<?xml version="1.0" encoding="UTF-8" standalone="no" ?>
<gpx xmlns="http://www.topografix.com/GPX/1/1" xmlns:xsi="http://www.w3.org/2001/XMLSchema-instance" xsi:schemaLocation="http://www.topografix.com/GPX/1/1 http://www.topografix.com/GPX/1/1/gpx.xsd" version="1.1" creator="VisuGPX - https://www.visugpx.com">
  <metadata>
    <name>forêt noir</name>
  </metadata>
  <trk>
    <name><![CDATA[forêt noir_1]]></name>
    <trkseg>
      <trkpt lat="48.8245" lon="8.1527">
        <ele>121</ele>
        <time>2020-07-25T06:55:44Z</time>
      </trkpt>
      <trkpt lat="48.8245" lon="8.1527">
        <ele>121</ele>
        <time>2020-07-25T06:55:45Z</time>
      </trkpt>
      <trkpt lat="48.82452" lon="8.15266">
        <ele>121.2</ele>
        <time>2020-07-25T06:56:34Z</time>
      </trkpt>
      <trkpt lat="48.8245" lon="8.15264">
        <ele>121.2</ele>
        <time>2020-07-25T06:56:36Z</time>
      </trkpt>
      <trkpt lat="48.82445" lon="8.15258">
        <ele>121.2</ele>
        <time>2020-07-25T06:56:40Z</time>
      </trkpt>
      <trkpt lat="48.82434" lon="8.15244">
        <ele>121.2</ele>
        <time>2020-07-25T06:56:49Z</time>
      </trkpt>
      <trkpt lat="48.82425" lon="8.15227">
        <ele>121.2</ele>
        <time>2020-07-25T06:56:56Z</time>
      </trkpt>
      <trkpt lat="48.82409" lon="8.15205">
        <ele>121.2</ele>
        <time>2020-07-25T06:57:06Z</time>
      </trkpt>
      <trkpt lat="48.82395" lon="8.15188">
        <ele>121.2</ele>
        <time>2020-07-25T06:57:14Z</time>
      </trkpt>
      <trkpt lat="48.82384" lon="8.15172">
        <ele>121.4</ele>
        <time>2020-07-25T06:57:19Z</time>
      </trkpt>
      <trkpt lat="48.82371" lon="8.15152">
        <ele>121.2</ele>
        <time>2020-07-25T06:57:25Z</time>
      </trkpt>
      <trkpt lat="48.82358" lon="8.1513">
        <ele>121.2</ele>
        <time>2020-07-25T06:57:32Z</time>
      </trkpt>
      <trkpt lat="48.8235" lon="8.1512">
        <ele>121.2</ele>
        <time>2020-07-25T06:57:37Z</time>
      </trkpt>
      <trkpt lat="48.82339" lon="8.15101">
        <ele>121.4</ele>
        <time>2020-07-25T06:57:45Z</time>
      </trkpt>
      <trkpt lat="48.82323" lon="8.1507">
        <ele>121.4</ele>
        <time>2020-07-25T06:57:52Z</time>
      </trkpt>
      <trkpt lat="48.82309" lon="8.15033">
        <ele>120.8</ele>
        <time>2020-07-25T06:57:59Z</time>
      </trkpt>
      <trkpt lat="48.82296" lon="8.15001">
        <ele>120.4</ele>
        <time>2020-07-25T06:58:04Z</time>
      </trkpt>
      <trkpt lat="48.82293" lon="8.14995">
        <ele>120.4</ele>
        <time>2020-07-25T06:58:05Z</time>
      </trkpt>
      <trkpt lat="48.82285" lon="8.14973">
        <ele>120.2</ele>
        <time>2020-07-25T06:58:09Z</time>
      </trkpt>
      <trkpt lat="48.82283" lon="8.14967">
        <ele>120.2</ele>
        <time>2020-07-25T06:58:10Z</time>
      </trkpt>
      <trkpt lat="48.82281" lon="8.14963">
        <ele>120</ele>
        <time>2020-07-25T06:58:11Z</time>
      </trkpt>
      <trkpt lat="48.82279" lon="8.14961">
        <ele>120</ele>
        <time>2020-07-25T06:58:12Z</time>
      </trkpt>
      <trkpt lat="48.82271" lon="8.14964">
        <ele>120</ele>
        <time>2020-07-25T06:58:14Z</time>
      </trkpt>
      <trkpt lat="48.82239" lon="8.14977">
        <ele>120</ele>
        <time>2020-07-25T06:58:21Z</time>
      </trkpt>
      <trkpt lat="48.82229" lon="8.14981">
        <ele>120</ele>
        <time>2020-07-25T06:58:23Z</time>
      </trkpt>
      <trkpt lat="48.82205" lon="8.14987">
        <ele>120.2</ele>
        <time>2020-07-25T06:58:28Z</time>
      </trkpt>
      <trkpt lat="48.82174" lon="8.14989">
        <ele>120.2</ele>
        <time>2020-07-25T06:58:35Z</time>
      </trkpt>
      <trkpt lat="48.82164" lon="8.14989">
        <ele>120.2</ele>
        <time>2020-07-25T06:58:37Z</time>
      </trkpt>
      <trkpt lat="48.82145" lon="8.14986">
        <ele>120.2</ele>
        <time>2020-07-25T06:58:41Z</time>
      </trkpt>
      <trkpt lat="48.82116" lon="8.14981">
        <ele>119.8</ele>
        <time>2020-07-25T06:58:47Z</time>
      </trkpt>
      <trkpt lat="48.8211" lon="8.1498">
        <ele>119.8</ele>
        <time>2020-07-25T06:58:48Z</time>
      </trkpt>
      <trkpt lat="48.82101" lon="8.14975">
        <ele>119.8</ele>
        <time>2020-07-25T06:58:50Z</time>
      </trkpt>
      <trkpt lat="48.82096" lon="8.14972">
        <ele>119.6</ele>
        <time>2020-07-25T06:58:51Z</time>
      </trkpt>
      <trkpt lat="48.8205" lon="8.14946">
        <ele>119.6</ele>
        <time>2020-07-25T06:59:01Z</time>
      </trkpt>
      <trkpt lat="48.82024" lon="8.1493">
        <ele>119.6</ele>
        <time>2020-07-25T06:59:07Z</time>
      </trkpt>
      <trkpt lat="48.82021" lon="8.14926">
        <ele>119.6</ele>
        <time>2020-07-25T06:59:08Z</time>
      </trkpt>
      <trkpt lat="48.82011" lon="8.14914">
        <ele>119.8</ele>
        <time>2020-07-25T06:59:12Z</time>
      </trkpt>
      <trkpt lat="48.81999" lon="8.14909">
        <ele>120.2</ele>
        <time>2020-07-25T06:59:16Z</time>
      </trkpt>
      <trkpt lat="48.81991" lon="8.14911">
        <ele>120.4</ele>
        <time>2020-07-25T06:59:18Z</time>
      </trkpt>
      <trkpt lat="48.81989" lon="8.14914">
        <ele>120.4</ele>
        <time>2020-07-25T06:59:19Z</time>
      </trkpt>
      <trkpt lat="48.81971" lon="8.14953">
        <ele>120.4</ele>
        <time>2020-07-25T06:59:26Z</time>
      </trkpt>
      <trkpt lat="48.81964" lon="8.14965">
        <ele>120.2</ele>
        <time>2020-07-25T06:59:28Z</time>
      </trkpt>
      <trkpt lat="48.81946" lon="8.14996">
        <ele>120</ele>
        <time>2020-07-25T06:59:34Z</time>
      </trkpt>
      <trkpt lat="48.81939" lon="8.15007">
        <ele>120</ele>
        <time>2020-07-25T06:59:36Z</time>
      </trkpt>
      <trkpt lat="48.81923" lon="8.15034">
        <ele>120</ele>
        <time>2020-07-25T06:59:41Z</time>
      </trkpt>
      <trkpt lat="48.81921" lon="8.15039">
        <ele>120</ele>
        <time>2020-07-25T06:59:42Z</time>
      </trkpt>
      <trkpt lat="48.81909" lon="8.15064">
        <ele>120</ele>
        <time>2020-07-25T06:59:47Z</time>
      </trkpt>
      <trkpt lat="48.81906" lon="8.15071">
        <ele>120</ele>
        <time>2020-07-25T06:59:48Z</time>
      </trkpt>
      <trkpt lat="48.81892" lon="8.15098">
        <ele>120.2</ele>
        <time>2020-07-25T06:59:53Z</time>
      </trkpt>
      <trkpt lat="48.81882" lon="8.15116">
        <ele>120</ele>
        <time>2020-07-25T06:59:56Z</time>
      </trkpt>
      <trkpt lat="48.81874" lon="8.15134">
        <ele>120.2</ele>
        <time>2020-07-25T06:59:59Z</time>
      </trkpt>
      <trkpt lat="48.81863" lon="8.15156">
        <ele>120.2</ele>
        <time>2020-07-25T07:00:03Z</time>
      </trkpt>
      <trkpt lat="48.81858" lon="8.15171">
        <ele>120.2</ele>
        <time>2020-07-25T07:00:05Z</time>
      </trkpt>
      <trkpt lat="48.81832" lon="8.15228">
        <ele>120.2</ele>
        <time>2020-07-25T07:00:15Z</time>
      </trkpt>
      <trkpt lat="48.8183" lon="8.1524">
        <ele>120.2</ele>
        <time>2020-07-25T07:00:17Z</time>
      </trkpt>
      <trkpt lat="48.81829" lon="8.15247">
        <ele>120.2</ele>
        <time>2020-07-25T07:00:18Z</time>
      </trkpt>
      <trkpt lat="48.81805" lon="8.15289">
        <ele>120.2</ele>
        <time>2020-07-25T07:00:26Z</time>
      </trkpt>
      <trkpt lat="48.81785" lon="8.15321">
        <ele>120.2</ele>
        <time>2020-07-25T07:00:32Z</time>
      </trkpt>
      <trkpt lat="48.81783" lon="8.15326">
        <ele>120.2</ele>
        <time>2020-07-25T07:00:33Z</time>
      </trkpt>
      <trkpt lat="48.81776" lon="8.15347">
        <ele>120.2</ele>
        <time>2020-07-25T07:00:37Z</time>
      </trkpt>
      <trkpt lat="48.81772" lon="8.15351">
        <ele>120.2</ele>
        <time>2020-07-25T07:00:38Z</time>
      </trkpt>
      <trkpt lat="48.81768" lon="8.15354">
        <ele>120.2</ele>
        <time>2020-07-25T07:00:39Z</time>
      </trkpt>
      <trkpt lat="48.81765" lon="8.15362">
        <ele>120.2</ele>
        <time>2020-07-25T07:00:41Z</time>
      </trkpt>
      <trkpt lat="48.81766" lon="8.15376">
        <ele>120.2</ele>
        <time>2020-07-25T07:00:43Z</time>
      </trkpt>
      <trkpt lat="48.81763" lon="8.15396">
        <ele>120.4</ele>
        <time>2020-07-25T07:00:46Z</time>
      </trkpt>
      <trkpt lat="48.81749" lon="8.15445">
        <ele>120.4</ele>
        <time>2020-07-25T07:00:53Z</time>
      </trkpt>
      <trkpt lat="48.81727" lon="8.15518">
        <ele>120.2</ele>
        <time>2020-07-25T07:01:03Z</time>
      </trkpt>
      <trkpt lat="48.81704" lon="8.1559">
        <ele>119.8</ele>
        <time>2020-07-25T07:01:13Z</time>
      </trkpt>
      <trkpt lat="48.81701" lon="8.15597">
        <ele>119.8</ele>
        <time>2020-07-25T07:01:14Z</time>
      </trkpt>
      <trkpt lat="48.81695" lon="8.15612">
        <ele>119.8</ele>
        <time>2020-07-25T07:01:16Z</time>
      </trkpt>
      <trkpt lat="48.81691" lon="8.15623">
        <ele>119.8</ele>
        <time>2020-07-25T07:01:18Z</time>
      </trkpt>
      <trkpt lat="48.8169" lon="8.15631">
        <ele>119.8</ele>
        <time>2020-07-25T07:01:19Z</time>
      </trkpt>
      <trkpt lat="48.81689" lon="8.15637">
        <ele>119.8</ele>
        <time>2020-07-25T07:01:20Z</time>
      </trkpt>
      <trkpt lat="48.81686" lon="8.15652">
        <ele>119.8</ele>
        <time>2020-07-25T07:01:23Z</time>
      </trkpt>
      <trkpt lat="48.81675" lon="8.1569">
        <ele>121</ele>
        <time>2020-07-25T07:01:29Z</time>
      </trkpt>
      <trkpt lat="48.81673" lon="8.15697">
        <ele>121.6</ele>
        <time>2020-07-25T07:01:30Z</time>
      </trkpt>
      <trkpt lat="48.81662" lon="8.15731">
        <ele>122.2</ele>
        <time>2020-07-25T07:01:35Z</time>
      </trkpt>
      <trkpt lat="48.81655" lon="8.15757">
        <ele>122.2</ele>
        <time>2020-07-25T07:01:39Z</time>
      </trkpt>
      <trkpt lat="48.81641" lon="8.15807">
        <ele>122.2</ele>
        <time>2020-07-25T07:01:46Z</time>
      </trkpt>
      <trkpt lat="48.81626" lon="8.1585">
        <ele>122.2</ele>
        <time>2020-07-25T07:01:52Z</time>
      </trkpt>
      <trkpt lat="48.8161" lon="8.159">
        <ele>122.4</ele>
        <time>2020-07-25T07:01:59Z</time>
      </trkpt>
      <trkpt lat="48.81582" lon="8.15971">
        <ele>122.4</ele>
        <time>2020-07-25T07:02:09Z</time>
      </trkpt>
      <trkpt lat="48.81561" lon="8.16031">
        <ele>122.2</ele>
        <time>2020-07-25T07:02:17Z</time>
      </trkpt>
      <trkpt lat="48.81541" lon="8.1609">
        <ele>122.2</ele>
        <time>2020-07-25T07:02:25Z</time>
      </trkpt>
      <trkpt lat="48.81536" lon="8.16106">
        <ele>122.2</ele>
        <time>2020-07-25T07:02:27Z</time>
      </trkpt>
      <trkpt lat="48.8153" lon="8.16119">
        <ele>122.2</ele>
        <time>2020-07-25T07:02:29Z</time>
      </trkpt>
      <trkpt lat="48.81524" lon="8.1613">
        <ele>122.2</ele>
        <time>2020-07-25T07:02:31Z</time>
      </trkpt>
      <trkpt lat="48.81517" lon="8.16138">
        <ele>122</ele>
        <time>2020-07-25T07:02:33Z</time>
      </trkpt>
      <trkpt lat="48.81515" lon="8.1615">
        <ele>122</ele>
        <time>2020-07-25T07:02:35Z</time>
      </trkpt>
      <trkpt lat="48.81518" lon="8.16163">
        <ele>122</ele>
        <time>2020-07-25T07:02:37Z</time>
      </trkpt>
      <trkpt lat="48.81518" lon="8.16178">
        <ele>122</ele>
        <time>2020-07-25T07:02:39Z</time>
      </trkpt>
      <trkpt lat="48.81507" lon="8.16211">
        <ele>122.2</ele>
        <time>2020-07-25T07:02:44Z</time>
      </trkpt>
      <trkpt lat="48.81489" lon="8.16262">
        <ele>122.2</ele>
        <time>2020-07-25T07:02:51Z</time>
      </trkpt>
      <trkpt lat="48.81462" lon="8.16336">
        <ele>122</ele>
        <time>2020-07-25T07:03:01Z</time>
      </trkpt>
      <trkpt lat="48.8145" lon="8.16364">
        <ele>122</ele>
        <time>2020-07-25T07:03:05Z</time>
      </trkpt>
      <trkpt lat="48.81445" lon="8.16378">
        <ele>121.8</ele>
        <time>2020-07-25T07:03:07Z</time>
      </trkpt>
      <trkpt lat="48.8142" lon="8.16445">
        <ele>121.2</ele>
        <time>2020-07-25T07:03:16Z</time>
      </trkpt>
      <trkpt lat="48.8141" lon="8.16467">
        <ele>121.2</ele>
        <time>2020-07-25T07:03:19Z</time>
      </trkpt>
      <trkpt lat="48.81402" lon="8.16489">
        <ele>121</ele>
        <time>2020-07-25T07:03:22Z</time>
      </trkpt>
      <trkpt lat="48.81398" lon="8.16497">
        <ele>121</ele>
        <time>2020-07-25T07:03:23Z</time>
      </trkpt>
      <trkpt lat="48.81388" lon="8.16527">
        <ele>120.8</ele>
        <time>2020-07-25T07:03:27Z</time>
      </trkpt>
      <trkpt lat="48.81379" lon="8.16549">
        <ele>120.8</ele>
        <time>2020-07-25T07:03:30Z</time>
      </trkpt>
      <trkpt lat="48.81372" lon="8.16573">
        <ele>120.6</ele>
        <time>2020-07-25T07:03:33Z</time>
      </trkpt>
      <trkpt lat="48.81341" lon="8.16646">
        <ele>120.6</ele>
        <time>2020-07-25T07:03:43Z</time>
      </trkpt>
      <trkpt lat="48.81338" lon="8.16653">
        <ele>120.6</ele>
        <time>2020-07-25T07:03:44Z</time>
      </trkpt>
      <trkpt lat="48.81314" lon="8.1671">
        <ele>120.6</ele>
        <time>2020-07-25T07:03:52Z</time>
      </trkpt>
      <trkpt lat="48.81291" lon="8.16765">
        <ele>120.6</ele>
        <time>2020-07-25T07:04:00Z</time>
      </trkpt>
      <trkpt lat="48.81285" lon="8.16779">
        <ele>120.6</ele>
        <time>2020-07-25T07:04:02Z</time>
      </trkpt>
      <trkpt lat="48.81267" lon="8.16822">
        <ele>120.8</ele>
        <time>2020-07-25T07:04:08Z</time>
      </trkpt>
      <trkpt lat="48.8124" lon="8.16883">
        <ele>121</ele>
        <time>2020-07-25T07:04:17Z</time>
      </trkpt>
      <trkpt lat="48.81222" lon="8.16925">
        <ele>121</ele>
        <time>2020-07-25T07:04:23Z</time>
      </trkpt>
      <trkpt lat="48.81204" lon="8.16967">
        <ele>121.2</ele>
        <time>2020-07-25T07:04:29Z</time>
      </trkpt>
      <trkpt lat="48.81188" lon="8.17003">
        <ele>121.4</ele>
        <time>2020-07-25T07:04:34Z</time>
      </trkpt>
      <trkpt lat="48.81185" lon="8.1701">
        <ele>121.4</ele>
        <time>2020-07-25T07:04:35Z</time>
      </trkpt>
      <trkpt lat="48.81163" lon="8.17056">
        <ele>121.6</ele>
        <time>2020-07-25T07:04:42Z</time>
      </trkpt>
      <trkpt lat="48.81131" lon="8.17127">
        <ele>121.6</ele>
        <time>2020-07-25T07:04:52Z</time>
      </trkpt>
      <trkpt lat="48.81106" lon="8.17183">
        <ele>121.6</ele>
        <time>2020-07-25T07:05:00Z</time>
      </trkpt>
      <trkpt lat="48.81083" lon="8.17234">
        <ele>121.8</ele>
        <time>2020-07-25T07:05:08Z</time>
      </trkpt>
      <trkpt lat="48.81079" lon="8.17249">
        <ele>122</ele>
        <time>2020-07-25T07:05:10Z</time>
      </trkpt>
      <trkpt lat="48.81073" lon="8.17263">
        <ele>122.2</ele>
        <time>2020-07-25T07:05:12Z</time>
      </trkpt>
      <trkpt lat="48.8107" lon="8.17269">
        <ele>122.2</ele>
        <time>2020-07-25T07:05:13Z</time>
      </trkpt>
      <trkpt lat="48.81066" lon="8.17275">
        <ele>122.4</ele>
        <time>2020-07-25T07:05:14Z</time>
      </trkpt>
      <trkpt lat="48.81045" lon="8.1731">
        <ele>122.6</ele>
        <time>2020-07-25T07:05:20Z</time>
      </trkpt>
      <trkpt lat="48.81008" lon="8.17369">
        <ele>122.8</ele>
        <time>2020-07-25T07:05:30Z</time>
      </trkpt>
      <trkpt lat="48.81005" lon="8.17374">
        <ele>122.8</ele>
        <time>2020-07-25T07:05:31Z</time>
      </trkpt>
      <trkpt lat="48.80968" lon="8.17432">
        <ele>123.4</ele>
        <time>2020-07-25T07:05:41Z</time>
      </trkpt>
      <trkpt lat="48.80942" lon="8.17475">
        <ele>123.4</ele>
        <time>2020-07-25T07:05:48Z</time>
      </trkpt>
      <trkpt lat="48.80924" lon="8.17504">
        <ele>123.4</ele>
        <time>2020-07-25T07:05:53Z</time>
      </trkpt>
      <trkpt lat="48.80916" lon="8.17518">
        <ele>123.4</ele>
        <time>2020-07-25T07:05:55Z</time>
      </trkpt>
      <trkpt lat="48.80888" lon="8.17568">
        <ele>123.8</ele>
        <time>2020-07-25T07:06:03Z</time>
      </trkpt>
      <trkpt lat="48.80867" lon="8.17597">
        <ele>124.2</ele>
        <time>2020-07-25T07:06:08Z</time>
      </trkpt>
      <trkpt lat="48.80851" lon="8.17621">
        <ele>124.2</ele>
        <time>2020-07-25T07:06:12Z</time>
      </trkpt>
      <trkpt lat="48.80843" lon="8.17632">
        <ele>124.2</ele>
        <time>2020-07-25T07:06:14Z</time>
      </trkpt>
      <trkpt lat="48.80823" lon="8.17664">
        <ele>123.4</ele>
        <time>2020-07-25T07:06:19Z</time>
      </trkpt>
      <trkpt lat="48.80821" lon="8.17669">
        <ele>123.4</ele>
        <time>2020-07-25T07:06:20Z</time>
      </trkpt>
      <trkpt lat="48.80811" lon="8.17693">
        <ele>123.4</ele>
        <time>2020-07-25T07:06:23Z</time>
      </trkpt>
      <trkpt lat="48.80788" lon="8.17734">
        <ele>123.4</ele>
        <time>2020-07-25T07:06:30Z</time>
      </trkpt>
      <trkpt lat="48.80769" lon="8.17768">
        <ele>124.4</ele>
        <time>2020-07-25T07:06:36Z</time>
      </trkpt>
      <trkpt lat="48.80766" lon="8.17772">
        <ele>124.6</ele>
        <time>2020-07-25T07:06:37Z</time>
      </trkpt>
      <trkpt lat="48.8075" lon="8.17797">
        <ele>125</ele>
        <time>2020-07-25T07:06:42Z</time>
      </trkpt>
      <trkpt lat="48.80744" lon="8.17807">
        <ele>125.2</ele>
        <time>2020-07-25T07:06:44Z</time>
      </trkpt>
      <trkpt lat="48.80738" lon="8.17818">
        <ele>125.4</ele>
        <time>2020-07-25T07:06:46Z</time>
      </trkpt>
      <trkpt lat="48.8072" lon="8.17849">
        <ele>126.4</ele>
        <time>2020-07-25T07:06:52Z</time>
      </trkpt>
      <trkpt lat="48.80717" lon="8.17854">
        <ele>126.6</ele>
        <time>2020-07-25T07:06:53Z</time>
      </trkpt>
      <trkpt lat="48.80711" lon="8.17864">
        <ele>127</ele>
        <time>2020-07-25T07:06:55Z</time>
      </trkpt>
      <trkpt lat="48.80698" lon="8.17885">
        <ele>127.6</ele>
        <time>2020-07-25T07:06:59Z</time>
      </trkpt>
      <trkpt lat="48.80692" lon="8.17895">
        <ele>127.8</ele>
        <time>2020-07-25T07:07:01Z</time>
      </trkpt>
      <trkpt lat="48.80679" lon="8.17917">
        <ele>128.2</ele>
        <time>2020-07-25T07:07:05Z</time>
      </trkpt>
      <trkpt lat="48.8067" lon="8.17936">
        <ele>128.6</ele>
        <time>2020-07-25T07:07:08Z</time>
      </trkpt>
      <trkpt lat="48.80667" lon="8.1794">
        <ele>128.6</ele>
        <time>2020-07-25T07:07:09Z</time>
      </trkpt>
      <trkpt lat="48.80634" lon="8.17984">
        <ele>129.4</ele>
        <time>2020-07-25T07:07:18Z</time>
      </trkpt>
      <trkpt lat="48.80626" lon="8.17994">
        <ele>129.6</ele>
        <time>2020-07-25T07:07:20Z</time>
      </trkpt>
      <trkpt lat="48.80612" lon="8.18005">
        <ele>129.6</ele>
        <time>2020-07-25T07:07:23Z</time>
      </trkpt>
      <trkpt lat="48.80578" lon="8.18041">
        <ele>129.2</ele>
        <time>2020-07-25T07:07:30Z</time>
      </trkpt>
      <trkpt lat="48.80547" lon="8.18075">
        <ele>128.4</ele>
        <time>2020-07-25T07:07:36Z</time>
      </trkpt>
      <trkpt lat="48.80531" lon="8.18093">
        <ele>127.8</ele>
        <time>2020-07-25T07:07:39Z</time>
      </trkpt>
      <trkpt lat="48.80508" lon="8.18117">
        <ele>127.2</ele>
        <time>2020-07-25T07:07:43Z</time>
      </trkpt>
      <trkpt lat="48.80484" lon="8.18142">
        <ele>126.4</ele>
        <time>2020-07-25T07:07:47Z</time>
      </trkpt>
      <trkpt lat="48.80467" lon="8.18163">
        <ele>125.4</ele>
        <time>2020-07-25T07:07:50Z</time>
      </trkpt>
      <trkpt lat="48.80455" lon="8.18176">
        <ele>124.8</ele>
        <time>2020-07-25T07:07:52Z</time>
      </trkpt>
      <trkpt lat="48.80439" lon="8.18197">
        <ele>124.2</ele>
        <time>2020-07-25T07:07:55Z</time>
      </trkpt>
      <trkpt lat="48.80426" lon="8.1822">
        <ele>123.4</ele>
        <time>2020-07-25T07:07:58Z</time>
      </trkpt>
      <trkpt lat="48.80401" lon="8.18264">
        <ele>123.2</ele>
        <time>2020-07-25T07:08:04Z</time>
      </trkpt>
      <trkpt lat="48.80368" lon="8.18325">
        <ele>123.4</ele>
        <time>2020-07-25T07:08:12Z</time>
      </trkpt>
      <trkpt lat="48.80343" lon="8.18379">
        <ele>123.6</ele>
        <time>2020-07-25T07:08:19Z</time>
      </trkpt>
      <trkpt lat="48.80339" lon="8.18386">
        <ele>123.6</ele>
        <time>2020-07-25T07:08:20Z</time>
      </trkpt>
      <trkpt lat="48.80326" lon="8.18405">
        <ele>123.6</ele>
        <time>2020-07-25T07:08:23Z</time>
      </trkpt>
      <trkpt lat="48.80322" lon="8.18411">
        <ele>123.6</ele>
        <time>2020-07-25T07:08:24Z</time>
      </trkpt>
      <trkpt lat="48.80311" lon="8.18431">
        <ele>123.6</ele>
        <time>2020-07-25T07:08:27Z</time>
      </trkpt>
      <trkpt lat="48.80308" lon="8.1844">
        <ele>123.6</ele>
        <time>2020-07-25T07:08:28Z</time>
      </trkpt>
      <trkpt lat="48.80302" lon="8.18467">
        <ele>123.6</ele>
        <time>2020-07-25T07:08:31Z</time>
      </trkpt>
      <trkpt lat="48.80299" lon="8.18475">
        <ele>123.6</ele>
        <time>2020-07-25T07:08:32Z</time>
      </trkpt>
      <trkpt lat="48.80288" lon="8.18498">
        <ele>123</ele>
        <time>2020-07-25T07:08:35Z</time>
      </trkpt>
      <trkpt lat="48.80274" lon="8.18531">
        <ele>122</ele>
        <time>2020-07-25T07:08:39Z</time>
      </trkpt>
      <trkpt lat="48.80267" lon="8.18547">
        <ele>121.8</ele>
        <time>2020-07-25T07:08:41Z</time>
      </trkpt>
      <trkpt lat="48.80239" lon="8.18622">
        <ele>121</ele>
        <time>2020-07-25T07:08:50Z</time>
      </trkpt>
      <trkpt lat="48.80236" lon="8.1863">
        <ele>121</ele>
        <time>2020-07-25T07:08:51Z</time>
      </trkpt>
      <trkpt lat="48.80214" lon="8.18685">
        <ele>120.6</ele>
        <time>2020-07-25T07:08:58Z</time>
      </trkpt>
      <trkpt lat="48.80204" lon="8.18711">
        <ele>120.6</ele>
        <time>2020-07-25T07:09:01Z</time>
      </trkpt>
      <trkpt lat="48.80194" lon="8.18733">
        <ele>120.6</ele>
        <time>2020-07-25T07:09:04Z</time>
      </trkpt>
      <trkpt lat="48.80164" lon="8.188">
        <ele>120.4</ele>
        <time>2020-07-25T07:09:13Z</time>
      </trkpt>
      <trkpt lat="48.80148" lon="8.18837">
        <ele>120.4</ele>
        <time>2020-07-25T07:09:18Z</time>
      </trkpt>
      <trkpt lat="48.80141" lon="8.18852">
        <ele>120.4</ele>
        <time>2020-07-25T07:09:20Z</time>
      </trkpt>
      <trkpt lat="48.80116" lon="8.18903">
        <ele>120.4</ele>
        <time>2020-07-25T07:09:27Z</time>
      </trkpt>
      <trkpt lat="48.80112" lon="8.18908">
        <ele>120.4</ele>
        <time>2020-07-25T07:09:28Z</time>
      </trkpt>
      <trkpt lat="48.80099" lon="8.18921">
        <ele>120.4</ele>
        <time>2020-07-25T07:09:31Z</time>
      </trkpt>
      <trkpt lat="48.80097" lon="8.18927">
        <ele>120.4</ele>
        <time>2020-07-25T07:09:32Z</time>
      </trkpt>
      <trkpt lat="48.80095" lon="8.18934">
        <ele>120.4</ele>
        <time>2020-07-25T07:09:33Z</time>
      </trkpt>
      <trkpt lat="48.80086" lon="8.18964">
        <ele>120.6</ele>
        <time>2020-07-25T07:09:37Z</time>
      </trkpt>
      <trkpt lat="48.80072" lon="8.18996">
        <ele>120.2</ele>
        <time>2020-07-25T07:09:41Z</time>
      </trkpt>
      <trkpt lat="48.80069" lon="8.19003">
        <ele>120.2</ele>
        <time>2020-07-25T07:09:42Z</time>
      </trkpt>
      <trkpt lat="48.80066" lon="8.19011">
        <ele>120.6</ele>
        <time>2020-07-25T07:09:43Z</time>
      </trkpt>
      <trkpt lat="48.80058" lon="8.19024">
        <ele>120.6</ele>
        <time>2020-07-25T07:09:45Z</time>
      </trkpt>
      <trkpt lat="48.80029" lon="8.19079">
        <ele>120.6</ele>
        <time>2020-07-25T07:09:53Z</time>
      </trkpt>
      <trkpt lat="48.80003" lon="8.19124">
        <ele>120.6</ele>
        <time>2020-07-25T07:10:00Z</time>
      </trkpt>
      <trkpt lat="48.79982" lon="8.19162">
        <ele>120.8</ele>
        <time>2020-07-25T07:10:06Z</time>
      </trkpt>
      <trkpt lat="48.79973" lon="8.19179">
        <ele>121</ele>
        <time>2020-07-25T07:10:09Z</time>
      </trkpt>
      <trkpt lat="48.7996" lon="8.19208">
        <ele>121.4</ele>
        <time>2020-07-25T07:10:14Z</time>
      </trkpt>
      <trkpt lat="48.79949" lon="8.1923">
        <ele>121.6</ele>
        <time>2020-07-25T07:10:18Z</time>
      </trkpt>
      <trkpt lat="48.79945" lon="8.19234">
        <ele>121.8</ele>
        <time>2020-07-25T07:10:19Z</time>
      </trkpt>
      <trkpt lat="48.79941" lon="8.19235">
        <ele>121.8</ele>
        <time>2020-07-25T07:10:20Z</time>
      </trkpt>
      <trkpt lat="48.79919" lon="8.19228">
        <ele>121.8</ele>
        <time>2020-07-25T07:10:24Z</time>
      </trkpt>
      <trkpt lat="48.79886" lon="8.19216">
        <ele>121.6</ele>
        <time>2020-07-25T07:10:30Z</time>
      </trkpt>
      <trkpt lat="48.79827" lon="8.19202">
        <ele>121</ele>
        <time>2020-07-25T07:10:40Z</time>
      </trkpt>
      <trkpt lat="48.79781" lon="8.19203">
        <ele>121</ele>
        <time>2020-07-25T07:10:48Z</time>
      </trkpt>
      <trkpt lat="48.79775" lon="8.19203">
        <ele>121</ele>
        <time>2020-07-25T07:10:49Z</time>
      </trkpt>
      <trkpt lat="48.79758" lon="8.19201">
        <ele>121</ele>
        <time>2020-07-25T07:10:52Z</time>
      </trkpt>
      <trkpt lat="48.79753" lon="8.192">
        <ele>121</ele>
        <time>2020-07-25T07:10:53Z</time>
      </trkpt>
      <trkpt lat="48.79747" lon="8.19207">
        <ele>121</ele>
        <time>2020-07-25T07:10:55Z</time>
      </trkpt>
      <trkpt lat="48.79746" lon="8.19232">
        <ele>121</ele>
        <time>2020-07-25T07:10:59Z</time>
      </trkpt>
      <trkpt lat="48.79741" lon="8.19243">
        <ele>121.2</ele>
        <time>2020-07-25T07:11:01Z</time>
      </trkpt>
      <trkpt lat="48.79737" lon="8.19247">
        <ele>121.6</ele>
        <time>2020-07-25T07:11:02Z</time>
      </trkpt>
      <trkpt lat="48.79728" lon="8.1925">
        <ele>122</ele>
        <time>2020-07-25T07:11:04Z</time>
      </trkpt>
      <trkpt lat="48.79703" lon="8.19253">
        <ele>122.6</ele>
        <time>2020-07-25T07:11:09Z</time>
      </trkpt>
      <trkpt lat="48.79688" lon="8.19257">
        <ele>122.8</ele>
        <time>2020-07-25T07:11:12Z</time>
      </trkpt>
      <trkpt lat="48.79667" lon="8.19263">
        <ele>122.8</ele>
        <time>2020-07-25T07:11:16Z</time>
      </trkpt>
      <trkpt lat="48.79623" lon="8.19274">
        <ele>123</ele>
        <time>2020-07-25T07:11:24Z</time>
      </trkpt>
      <trkpt lat="48.79591" lon="8.19285">
        <ele>123</ele>
        <time>2020-07-25T07:11:30Z</time>
      </trkpt>
      <trkpt lat="48.79587" lon="8.19283">
        <ele>123</ele>
        <time>2020-07-25T07:11:31Z</time>
      </trkpt>
      <trkpt lat="48.79571" lon="8.19269">
        <ele>123</ele>
        <time>2020-07-25T07:11:35Z</time>
      </trkpt>
      <trkpt lat="48.79562" lon="8.19265">
        <ele>123</ele>
        <time>2020-07-25T07:11:37Z</time>
      </trkpt>
      <trkpt lat="48.79547" lon="8.19263">
        <ele>123</ele>
        <time>2020-07-25T07:11:40Z</time>
      </trkpt>
      <trkpt lat="48.79527" lon="8.19257">
        <ele>123</ele>
        <time>2020-07-25T07:11:44Z</time>
      </trkpt>
      <trkpt lat="48.79508" lon="8.19247">
        <ele>122.8</ele>
        <time>2020-07-25T07:11:48Z</time>
      </trkpt>
      <trkpt lat="48.79498" lon="8.19241">
        <ele>122.8</ele>
        <time>2020-07-25T07:11:50Z</time>
      </trkpt>
      <trkpt lat="48.79468" lon="8.19228">
        <ele>122.6</ele>
        <time>2020-07-25T07:11:56Z</time>
      </trkpt>
      <trkpt lat="48.79464" lon="8.19229">
        <ele>122.6</ele>
        <time>2020-07-25T07:11:57Z</time>
      </trkpt>
      <trkpt lat="48.79454" lon="8.19236">
        <ele>122.4</ele>
        <time>2020-07-25T07:12:00Z</time>
      </trkpt>
      <trkpt lat="48.7945" lon="8.19235">
        <ele>122.4</ele>
        <time>2020-07-25T07:12:01Z</time>
      </trkpt>
      <trkpt lat="48.79446" lon="8.19232">
        <ele>122.4</ele>
        <time>2020-07-25T07:12:02Z</time>
      </trkpt>
      <trkpt lat="48.79431" lon="8.19216">
        <ele>122.4</ele>
        <time>2020-07-25T07:12:06Z</time>
      </trkpt>
      <trkpt lat="48.79394" lon="8.19178">
        <ele>122.2</ele>
        <time>2020-07-25T07:12:15Z</time>
      </trkpt>
      <trkpt lat="48.79379" lon="8.19163">
        <ele>122.2</ele>
        <time>2020-07-25T07:12:19Z</time>
      </trkpt>
      <trkpt lat="48.79378" lon="8.19156">
        <ele>122.2</ele>
        <time>2020-07-25T07:12:21Z</time>
      </trkpt>
      <trkpt lat="48.79382" lon="8.19157">
        <ele>122.2</ele>
        <time>2020-07-25T07:12:23Z</time>
      </trkpt>
      <trkpt lat="48.79396" lon="8.19176">
        <ele>122.4</ele>
        <time>2020-07-25T07:12:27Z</time>
      </trkpt>
      <trkpt lat="48.79402" lon="8.19186">
        <ele>122.8</ele>
        <time>2020-07-25T07:12:29Z</time>
      </trkpt>
      <trkpt lat="48.79407" lon="8.19194">
        <ele>122.8</ele>
        <time>2020-07-25T07:12:31Z</time>
      </trkpt>
      <trkpt lat="48.79401" lon="8.19206">
        <ele>123</ele>
        <time>2020-07-25T07:12:34Z</time>
      </trkpt>
      <trkpt lat="48.79381" lon="8.1922">
        <ele>123</ele>
        <time>2020-07-25T07:12:39Z</time>
      </trkpt>
      <trkpt lat="48.79371" lon="8.19233">
        <ele>123</ele>
        <time>2020-07-25T07:12:42Z</time>
      </trkpt>
      <trkpt lat="48.79368" lon="8.19245">
        <ele>123</ele>
        <time>2020-07-25T07:12:44Z</time>
      </trkpt>
      <trkpt lat="48.79349" lon="8.19279">
        <ele>123</ele>
        <time>2020-07-25T07:12:50Z</time>
      </trkpt>
      <trkpt lat="48.79345" lon="8.19283">
        <ele>123</ele>
        <time>2020-07-25T07:12:51Z</time>
      </trkpt>
      <trkpt lat="48.79337" lon="8.19291">
        <ele>123</ele>
        <time>2020-07-25T07:12:53Z</time>
      </trkpt>
      <trkpt lat="48.79328" lon="8.1929">
        <ele>123</ele>
        <time>2020-07-25T07:12:55Z</time>
      </trkpt>
      <trkpt lat="48.79314" lon="8.19278">
        <ele>123</ele>
        <time>2020-07-25T07:12:58Z</time>
      </trkpt>
      <trkpt lat="48.79301" lon="8.19264">
        <ele>122.8</ele>
        <time>2020-07-25T07:13:01Z</time>
      </trkpt>
      <trkpt lat="48.79256" lon="8.19218">
        <ele>122</ele>
        <time>2020-07-25T07:13:11Z</time>
      </trkpt>
      <trkpt lat="48.79212" lon="8.19171">
        <ele>122</ele>
        <time>2020-07-25T07:13:21Z</time>
      </trkpt>
      <trkpt lat="48.79172" lon="8.19128">
        <ele>122</ele>
        <time>2020-07-25T07:13:30Z</time>
      </trkpt>
      <trkpt lat="48.79155" lon="8.1911">
        <ele>121.8</ele>
        <time>2020-07-25T07:13:34Z</time>
      </trkpt>
      <trkpt lat="48.79132" lon="8.19086">
        <ele>121.6</ele>
        <time>2020-07-25T07:13:39Z</time>
      </trkpt>
      <trkpt lat="48.79105" lon="8.19058">
        <ele>121.6</ele>
        <time>2020-07-25T07:13:45Z</time>
      </trkpt>
      <trkpt lat="48.79099" lon="8.19052">
        <ele>121.6</ele>
        <time>2020-07-25T07:13:46Z</time>
      </trkpt>
      <trkpt lat="48.79061" lon="8.19009">
        <ele>122</ele>
        <time>2020-07-25T07:13:55Z</time>
      </trkpt>
      <trkpt lat="48.79057" lon="8.19002">
        <ele>122</ele>
        <time>2020-07-25T07:13:56Z</time>
      </trkpt>
      <trkpt lat="48.79039" lon="8.18964">
        <ele>122</ele>
        <time>2020-07-25T07:14:02Z</time>
      </trkpt>
      <trkpt lat="48.79026" lon="8.18931">
        <ele>122.4</ele>
        <time>2020-07-25T07:14:08Z</time>
      </trkpt>
      <trkpt lat="48.79024" lon="8.18926">
        <ele>122.2</ele>
        <time>2020-07-25T07:14:09Z</time>
      </trkpt>
      <trkpt lat="48.7902" lon="8.18921">
        <ele>122</ele>
        <time>2020-07-25T07:14:10Z</time>
      </trkpt>
      <trkpt lat="48.79012" lon="8.18914">
        <ele>122</ele>
        <time>2020-07-25T07:14:12Z</time>
      </trkpt>
      <trkpt lat="48.79007" lon="8.18913">
        <ele>121.8</ele>
        <time>2020-07-25T07:14:13Z</time>
      </trkpt>
      <trkpt lat="48.79002" lon="8.18913">
        <ele>121.8</ele>
        <time>2020-07-25T07:14:14Z</time>
      </trkpt>
      <trkpt lat="48.78992" lon="8.18918">
        <ele>121.6</ele>
        <time>2020-07-25T07:14:16Z</time>
      </trkpt>
      <trkpt lat="48.78984" lon="8.18929">
        <ele>121.4</ele>
        <time>2020-07-25T07:14:18Z</time>
      </trkpt>
      <trkpt lat="48.78978" lon="8.18941">
        <ele>121.4</ele>
        <time>2020-07-25T07:14:20Z</time>
      </trkpt>
      <trkpt lat="48.78975" lon="8.18948">
        <ele>121.4</ele>
        <time>2020-07-25T07:14:21Z</time>
      </trkpt>
      <trkpt lat="48.78971" lon="8.18954">
        <ele>121.2</ele>
        <time>2020-07-25T07:14:22Z</time>
      </trkpt>
      <trkpt lat="48.78958" lon="8.18978">
        <ele>120.4</ele>
        <time>2020-07-25T07:14:26Z</time>
      </trkpt>
      <trkpt lat="48.78914" lon="8.19048">
        <ele>119.4</ele>
        <time>2020-07-25T07:14:38Z</time>
      </trkpt>
      <trkpt lat="48.78907" lon="8.19057">
        <ele>119.4</ele>
        <time>2020-07-25T07:14:40Z</time>
      </trkpt>
      <trkpt lat="48.7889" lon="8.1907">
        <ele>120.2</ele>
        <time>2020-07-25T07:14:45Z</time>
      </trkpt>
      <trkpt lat="48.78878" lon="8.19075">
        <ele>121.2</ele>
        <time>2020-07-25T07:14:49Z</time>
      </trkpt>
      <trkpt lat="48.78874" lon="8.19072">
        <ele>121.6</ele>
        <time>2020-07-25T07:14:50Z</time>
      </trkpt>
      <trkpt lat="48.78855" lon="8.1905">
        <ele>122.4</ele>
        <time>2020-07-25T07:14:55Z</time>
      </trkpt>
      <trkpt lat="48.78848" lon="8.19041">
        <ele>122.6</ele>
        <time>2020-07-25T07:14:57Z</time>
      </trkpt>
      <trkpt lat="48.78828" lon="8.19016">
        <ele>122.8</ele>
        <time>2020-07-25T07:15:02Z</time>
      </trkpt>
      <trkpt lat="48.78819" lon="8.19009">
        <ele>122.8</ele>
        <time>2020-07-25T07:15:04Z</time>
      </trkpt>
      <trkpt lat="48.78806" lon="8.19002">
        <ele>122.8</ele>
        <time>2020-07-25T07:15:07Z</time>
      </trkpt>
      <trkpt lat="48.788" lon="8.19">
        <ele>122.8</ele>
        <time>2020-07-25T07:15:08Z</time>
      </trkpt>
      <trkpt lat="48.78792" lon="8.18998">
        <ele>122.8</ele>
        <time>2020-07-25T07:15:10Z</time>
      </trkpt>
      <trkpt lat="48.78783" lon="8.18991">
        <ele>123</ele>
        <time>2020-07-25T07:15:12Z</time>
      </trkpt>
      <trkpt lat="48.78773" lon="8.18979">
        <ele>123.2</ele>
        <time>2020-07-25T07:15:15Z</time>
      </trkpt>
      <trkpt lat="48.7877" lon="8.18976">
        <ele>123.2</ele>
        <time>2020-07-25T07:15:16Z</time>
      </trkpt>
      <trkpt lat="48.78766" lon="8.18975">
        <ele>123.2</ele>
        <time>2020-07-25T07:15:17Z</time>
      </trkpt>
      <trkpt lat="48.78757" lon="8.1898">
        <ele>123.2</ele>
        <time>2020-07-25T07:15:19Z</time>
      </trkpt>
      <trkpt lat="48.78753" lon="8.18983">
        <ele>123.4</ele>
        <time>2020-07-25T07:15:20Z</time>
      </trkpt>
      <trkpt lat="48.78744" lon="8.18988">
        <ele>123.4</ele>
        <time>2020-07-25T07:15:22Z</time>
      </trkpt>
      <trkpt lat="48.78731" lon="8.18997">
        <ele>123.6</ele>
        <time>2020-07-25T07:15:25Z</time>
      </trkpt>
      <trkpt lat="48.78727" lon="8.19001">
        <ele>123.6</ele>
        <time>2020-07-25T07:15:26Z</time>
      </trkpt>
      <trkpt lat="48.78722" lon="8.19005">
        <ele>123.6</ele>
        <time>2020-07-25T07:15:27Z</time>
      </trkpt>
      <trkpt lat="48.78705" lon="8.19023">
        <ele>124</ele>
        <time>2020-07-25T07:15:31Z</time>
      </trkpt>
      <trkpt lat="48.78674" lon="8.19061">
        <ele>124.4</ele>
        <time>2020-07-25T07:15:38Z</time>
      </trkpt>
      <trkpt lat="48.78655" lon="8.19093">
        <ele>124.6</ele>
        <time>2020-07-25T07:15:43Z</time>
      </trkpt>
      <trkpt lat="48.78649" lon="8.19106">
        <ele>124.6</ele>
        <time>2020-07-25T07:15:45Z</time>
      </trkpt>
      <trkpt lat="48.78633" lon="8.19142">
        <ele>124.6</ele>
        <time>2020-07-25T07:15:50Z</time>
      </trkpt>
      <trkpt lat="48.78625" lon="8.19162">
        <ele>125</ele>
        <time>2020-07-25T07:15:53Z</time>
      </trkpt>
      <trkpt lat="48.78616" lon="8.19191">
        <ele>125.2</ele>
        <time>2020-07-25T07:15:57Z</time>
      </trkpt>
      <trkpt lat="48.78612" lon="8.19208">
        <ele>125.2</ele>
        <time>2020-07-25T07:16:00Z</time>
      </trkpt>
      <trkpt lat="48.78611" lon="8.19214">
        <ele>125.4</ele>
        <time>2020-07-25T07:16:04Z</time>
      </trkpt>
      <trkpt lat="48.78611" lon="8.19214">
        <ele>125.4</ele>
        <time>2020-07-25T07:16:05Z</time>
      </trkpt>
      <trkpt lat="48.78608" lon="8.19221">
        <ele>126</ele>
        <time>2020-07-25T07:16:23Z</time>
      </trkpt>
      <trkpt lat="48.78608" lon="8.19225">
        <ele>126</ele>
        <time>2020-07-25T07:16:24Z</time>
      </trkpt>
      <trkpt lat="48.786" lon="8.19254">
        <ele>126</ele>
        <time>2020-07-25T07:16:29Z</time>
      </trkpt>
      <trkpt lat="48.78597" lon="8.19269">
        <ele>125.8</ele>
        <time>2020-07-25T07:16:31Z</time>
      </trkpt>
      <trkpt lat="48.78593" lon="8.19283">
        <ele>125.6</ele>
        <time>2020-07-25T07:16:33Z</time>
      </trkpt>
      <trkpt lat="48.78591" lon="8.1929">
        <ele>125.4</ele>
        <time>2020-07-25T07:16:34Z</time>
      </trkpt>
      <trkpt lat="48.78577" lon="8.19343">
        <ele>125</ele>
        <time>2020-07-25T07:16:41Z</time>
      </trkpt>
      <trkpt lat="48.78574" lon="8.19351">
        <ele>125</ele>
        <time>2020-07-25T07:16:42Z</time>
      </trkpt>
      <trkpt lat="48.78569" lon="8.19381">
        <ele>124.8</ele>
        <time>2020-07-25T07:16:46Z</time>
      </trkpt>
      <trkpt lat="48.78564" lon="8.1942">
        <ele>124.6</ele>
        <time>2020-07-25T07:16:51Z</time>
      </trkpt>
      <trkpt lat="48.78563" lon="8.19428">
        <ele>124.6</ele>
        <time>2020-07-25T07:16:52Z</time>
      </trkpt>
      <trkpt lat="48.78557" lon="8.19464">
        <ele>124.6</ele>
        <time>2020-07-25T07:16:57Z</time>
      </trkpt>
      <trkpt lat="48.7855" lon="8.19518">
        <ele>125.2</ele>
        <time>2020-07-25T07:17:04Z</time>
      </trkpt>
      <trkpt lat="48.78543" lon="8.19577">
        <ele>125.6</ele>
        <time>2020-07-25T07:17:11Z</time>
      </trkpt>
      <trkpt lat="48.78541" lon="8.19606">
        <ele>125.8</ele>
        <time>2020-07-25T07:17:15Z</time>
      </trkpt>
      <trkpt lat="48.7854" lon="8.19619">
        <ele>125.8</ele>
        <time>2020-07-25T07:17:17Z</time>
      </trkpt>
      <trkpt lat="48.78536" lon="8.19658">
        <ele>125.8</ele>
        <time>2020-07-25T07:17:22Z</time>
      </trkpt>
      <trkpt lat="48.78535" lon="8.19665">
        <ele>125.8</ele>
        <time>2020-07-25T07:17:23Z</time>
      </trkpt>
      <trkpt lat="48.78532" lon="8.19698">
        <ele>125.8</ele>
        <time>2020-07-25T07:17:27Z</time>
      </trkpt>
      <trkpt lat="48.78531" lon="8.19706">
        <ele>125.8</ele>
        <time>2020-07-25T07:17:28Z</time>
      </trkpt>
      <trkpt lat="48.78522" lon="8.19749">
        <ele>126</ele>
        <time>2020-07-25T07:17:33Z</time>
      </trkpt>
      <trkpt lat="48.78514" lon="8.19777">
        <ele>126</ele>
        <time>2020-07-25T07:17:37Z</time>
      </trkpt>
      <trkpt lat="48.78503" lon="8.19818">
        <ele>126.4</ele>
        <time>2020-07-25T07:17:43Z</time>
      </trkpt>
      <trkpt lat="48.785" lon="8.19825">
        <ele>126.6</ele>
        <time>2020-07-25T07:17:44Z</time>
      </trkpt>
      <trkpt lat="48.78487" lon="8.1986">
        <ele>127</ele>
        <time>2020-07-25T07:17:49Z</time>
      </trkpt>
      <trkpt lat="48.78484" lon="8.19867">
        <ele>127</ele>
        <time>2020-07-25T07:17:50Z</time>
      </trkpt>
      <trkpt lat="48.78481" lon="8.19873">
        <ele>127</ele>
        <time>2020-07-25T07:17:51Z</time>
      </trkpt>
      <trkpt lat="48.78476" lon="8.19888">
        <ele>127.2</ele>
        <time>2020-07-25T07:17:53Z</time>
      </trkpt>
      <trkpt lat="48.78468" lon="8.19909">
        <ele>127.2</ele>
        <time>2020-07-25T07:17:56Z</time>
      </trkpt>
      <trkpt lat="48.78466" lon="8.19916">
        <ele>127.2</ele>
        <time>2020-07-25T07:17:57Z</time>
      </trkpt>
      <trkpt lat="48.78462" lon="8.19946">
        <ele>127.8</ele>
        <time>2020-07-25T07:18:01Z</time>
      </trkpt>
      <trkpt lat="48.78462" lon="8.19952">
        <ele>127.8</ele>
        <time>2020-07-25T07:18:02Z</time>
      </trkpt>
      <trkpt lat="48.78459" lon="8.1998">
        <ele>128</ele>
        <time>2020-07-25T07:18:06Z</time>
      </trkpt>
      <trkpt lat="48.78457" lon="8.19987">
        <ele>128</ele>
        <time>2020-07-25T07:18:07Z</time>
      </trkpt>
      <trkpt lat="48.78453" lon="8.19999">
        <ele>128.2</ele>
        <time>2020-07-25T07:18:09Z</time>
      </trkpt>
      <trkpt lat="48.78446" lon="8.20013">
        <ele>128.4</ele>
        <time>2020-07-25T07:18:11Z</time>
      </trkpt>
      <trkpt lat="48.78439" lon="8.20023">
        <ele>128.6</ele>
        <time>2020-07-25T07:18:13Z</time>
      </trkpt>
      <trkpt lat="48.78435" lon="8.20029">
        <ele>128.6</ele>
        <time>2020-07-25T07:18:14Z</time>
      </trkpt>
      <trkpt lat="48.78425" lon="8.20034">
        <ele>128.6</ele>
        <time>2020-07-25T07:18:16Z</time>
      </trkpt>
      <trkpt lat="48.78414" lon="8.20036">
        <ele>128.8</ele>
        <time>2020-07-25T07:18:18Z</time>
      </trkpt>
      <trkpt lat="48.78407" lon="8.20046">
        <ele>128.8</ele>
        <time>2020-07-25T07:18:20Z</time>
      </trkpt>
      <trkpt lat="48.78394" lon="8.20079">
        <ele>128.8</ele>
        <time>2020-07-25T07:18:25Z</time>
      </trkpt>
      <trkpt lat="48.7839" lon="8.20084">
        <ele>129</ele>
        <time>2020-07-25T07:18:26Z</time>
      </trkpt>
      <trkpt lat="48.78381" lon="8.20105">
        <ele>129</ele>
        <time>2020-07-25T07:18:29Z</time>
      </trkpt>
      <trkpt lat="48.78376" lon="8.2012">
        <ele>129</ele>
        <time>2020-07-25T07:18:31Z</time>
      </trkpt>
      <trkpt lat="48.78366" lon="8.20147">
        <ele>129</ele>
        <time>2020-07-25T07:18:35Z</time>
      </trkpt>
      <trkpt lat="48.78351" lon="8.20181">
        <ele>129.2</ele>
        <time>2020-07-25T07:18:41Z</time>
      </trkpt>
      <trkpt lat="48.78349" lon="8.20188">
        <ele>129.2</ele>
        <time>2020-07-25T07:18:42Z</time>
      </trkpt>
      <trkpt lat="48.78341" lon="8.202">
        <ele>129.2</ele>
        <time>2020-07-25T07:18:44Z</time>
      </trkpt>
      <trkpt lat="48.78333" lon="8.20214">
        <ele>129.2</ele>
        <time>2020-07-25T07:18:46Z</time>
      </trkpt>
      <trkpt lat="48.78331" lon="8.20219">
        <ele>129.2</ele>
        <time>2020-07-25T07:18:47Z</time>
      </trkpt>
      <trkpt lat="48.78323" lon="8.20239">
        <ele>129.2</ele>
        <time>2020-07-25T07:18:50Z</time>
      </trkpt>
      <trkpt lat="48.78315" lon="8.20256">
        <ele>129.2</ele>
        <time>2020-07-25T07:18:53Z</time>
      </trkpt>
      <trkpt lat="48.78306" lon="8.20278">
        <ele>129.2</ele>
        <time>2020-07-25T07:18:57Z</time>
      </trkpt>
      <trkpt lat="48.78283" lon="8.20329">
        <ele>129.8</ele>
        <time>2020-07-25T07:19:05Z</time>
      </trkpt>
      <trkpt lat="48.78275" lon="8.20343">
        <ele>129.8</ele>
        <time>2020-07-25T07:19:07Z</time>
      </trkpt>
      <trkpt lat="48.78266" lon="8.20361">
        <ele>129.8</ele>
        <time>2020-07-25T07:19:10Z</time>
      </trkpt>
      <trkpt lat="48.78247" lon="8.20401">
        <ele>129.8</ele>
        <time>2020-07-25T07:19:16Z</time>
      </trkpt>
      <trkpt lat="48.7823" lon="8.20435">
        <ele>130</ele>
        <time>2020-07-25T07:19:21Z</time>
      </trkpt>
      <trkpt lat="48.78223" lon="8.20448">
        <ele>130.2</ele>
        <time>2020-07-25T07:19:23Z</time>
      </trkpt>
      <trkpt lat="48.78204" lon="8.20485">
        <ele>130.4</ele>
        <time>2020-07-25T07:19:29Z</time>
      </trkpt>
      <trkpt lat="48.78196" lon="8.20499">
        <ele>130.4</ele>
        <time>2020-07-25T07:19:31Z</time>
      </trkpt>
      <trkpt lat="48.78175" lon="8.20535">
        <ele>130.4</ele>
        <time>2020-07-25T07:19:37Z</time>
      </trkpt>
      <trkpt lat="48.78172" lon="8.20542">
        <ele>130.4</ele>
        <time>2020-07-25T07:19:38Z</time>
      </trkpt>
      <trkpt lat="48.78165" lon="8.20561">
        <ele>130.4</ele>
        <time>2020-07-25T07:19:41Z</time>
      </trkpt>
      <trkpt lat="48.78157" lon="8.20582">
        <ele>130.6</ele>
        <time>2020-07-25T07:19:44Z</time>
      </trkpt>
      <trkpt lat="48.78137" lon="8.20625">
        <ele>130.8</ele>
        <time>2020-07-25T07:19:50Z</time>
      </trkpt>
      <trkpt lat="48.78111" lon="8.20675">
        <ele>130.8</ele>
        <time>2020-07-25T07:19:58Z</time>
      </trkpt>
      <trkpt lat="48.78087" lon="8.20725">
        <ele>131</ele>
        <time>2020-07-25T07:20:05Z</time>
      </trkpt>
      <trkpt lat="48.78062" lon="8.20776">
        <ele>131</ele>
        <time>2020-07-25T07:20:13Z</time>
      </trkpt>
      <trkpt lat="48.78045" lon="8.20811">
        <ele>131.2</ele>
        <time>2020-07-25T07:20:19Z</time>
      </trkpt>
      <trkpt lat="48.7804" lon="8.20822">
        <ele>131.2</ele>
        <time>2020-07-25T07:20:21Z</time>
      </trkpt>
      <trkpt lat="48.78029" lon="8.2085">
        <ele>131.6</ele>
        <time>2020-07-25T07:20:25Z</time>
      </trkpt>
      <trkpt lat="48.78005" lon="8.20903">
        <ele>132</ele>
        <time>2020-07-25T07:20:33Z</time>
      </trkpt>
      <trkpt lat="48.77989" lon="8.20938">
        <ele>132</ele>
        <time>2020-07-25T07:20:38Z</time>
      </trkpt>
      <trkpt lat="48.77978" lon="8.20958">
        <ele>132</ele>
        <time>2020-07-25T07:20:41Z</time>
      </trkpt>
      <trkpt lat="48.77942" lon="8.21027">
        <ele>132.6</ele>
        <time>2020-07-25T07:20:52Z</time>
      </trkpt>
      <trkpt lat="48.7794" lon="8.21032">
        <ele>132.4</ele>
        <time>2020-07-25T07:20:53Z</time>
      </trkpt>
      <trkpt lat="48.77929" lon="8.21053">
        <ele>132.6</ele>
        <time>2020-07-25T07:20:56Z</time>
      </trkpt>
      <trkpt lat="48.77917" lon="8.2108">
        <ele>132.6</ele>
        <time>2020-07-25T07:21:00Z</time>
      </trkpt>
      <trkpt lat="48.77896" lon="8.21133">
        <ele>132.6</ele>
        <time>2020-07-25T07:21:08Z</time>
      </trkpt>
      <trkpt lat="48.77881" lon="8.21164">
        <ele>132.8</ele>
        <time>2020-07-25T07:21:13Z</time>
      </trkpt>
      <trkpt lat="48.77877" lon="8.2117">
        <ele>133</ele>
        <time>2020-07-25T07:21:14Z</time>
      </trkpt>
      <trkpt lat="48.77873" lon="8.21172">
        <ele>133</ele>
        <time>2020-07-25T07:21:15Z</time>
      </trkpt>
      <trkpt lat="48.77861" lon="8.21182">
        <ele>133.6</ele>
        <time>2020-07-25T07:21:19Z</time>
      </trkpt>
      <trkpt lat="48.77858" lon="8.21192">
        <ele>133.8</ele>
        <time>2020-07-25T07:21:21Z</time>
      </trkpt>
      <trkpt lat="48.77856" lon="8.21206">
        <ele>133.8</ele>
        <time>2020-07-25T07:21:23Z</time>
      </trkpt>
      <trkpt lat="48.77856" lon="8.21212">
        <ele>134</ele>
        <time>2020-07-25T07:21:24Z</time>
      </trkpt>
      <trkpt lat="48.77854" lon="8.21218">
        <ele>134</ele>
        <time>2020-07-25T07:21:25Z</time>
      </trkpt>
      <trkpt lat="48.77848" lon="8.2123">
        <ele>134</ele>
        <time>2020-07-25T07:21:27Z</time>
      </trkpt>
      <trkpt lat="48.77845" lon="8.21236">
        <ele>134.2</ele>
        <time>2020-07-25T07:21:28Z</time>
      </trkpt>
      <trkpt lat="48.77841" lon="8.21242">
        <ele>134.2</ele>
        <time>2020-07-25T07:21:29Z</time>
      </trkpt>
      <trkpt lat="48.77822" lon="8.21281">
        <ele>134.2</ele>
        <time>2020-07-25T07:21:35Z</time>
      </trkpt>
      <trkpt lat="48.77791" lon="8.21349">
        <ele>134.4</ele>
        <time>2020-07-25T07:21:46Z</time>
      </trkpt>
      <trkpt lat="48.77774" lon="8.21382">
        <ele>135</ele>
        <time>2020-07-25T07:21:51Z</time>
      </trkpt>
      <trkpt lat="48.77764" lon="8.21399">
        <ele>135.2</ele>
        <time>2020-07-25T07:21:54Z</time>
      </trkpt>
      <trkpt lat="48.77758" lon="8.21412">
        <ele>135.4</ele>
        <time>2020-07-25T07:21:56Z</time>
      </trkpt>
      <trkpt lat="48.77754" lon="8.21425">
        <ele>135.4</ele>
        <time>2020-07-25T07:21:58Z</time>
      </trkpt>
      <trkpt lat="48.77737" lon="8.21467">
        <ele>136</ele>
        <time>2020-07-25T07:22:04Z</time>
      </trkpt>
      <trkpt lat="48.77711" lon="8.21518">
        <ele>136.4</ele>
        <time>2020-07-25T07:22:12Z</time>
      </trkpt>
      <trkpt lat="48.77682" lon="8.21576">
        <ele>136.8</ele>
        <time>2020-07-25T07:22:21Z</time>
      </trkpt>
      <trkpt lat="48.77674" lon="8.21595">
        <ele>137</ele>
        <time>2020-07-25T07:22:24Z</time>
      </trkpt>
      <trkpt lat="48.77662" lon="8.21624">
        <ele>137.2</ele>
        <time>2020-07-25T07:22:28Z</time>
      </trkpt>
      <trkpt lat="48.77637" lon="8.21674">
        <ele>137.8</ele>
        <time>2020-07-25T07:22:36Z</time>
      </trkpt>
      <trkpt lat="48.77632" lon="8.21679">
        <ele>137.8</ele>
        <time>2020-07-25T07:22:37Z</time>
      </trkpt>
      <trkpt lat="48.77619" lon="8.217">
        <ele>138</ele>
        <time>2020-07-25T07:22:41Z</time>
      </trkpt>
      <trkpt lat="48.77603" lon="8.2173">
        <ele>138</ele>
        <time>2020-07-25T07:22:46Z</time>
      </trkpt>
      <trkpt lat="48.77598" lon="8.21743">
        <ele>138.2</ele>
        <time>2020-07-25T07:22:48Z</time>
      </trkpt>
      <trkpt lat="48.77589" lon="8.21761">
        <ele>138.2</ele>
        <time>2020-07-25T07:22:51Z</time>
      </trkpt>
      <trkpt lat="48.77581" lon="8.21781">
        <ele>138.4</ele>
        <time>2020-07-25T07:22:54Z</time>
      </trkpt>
      <trkpt lat="48.7757" lon="8.21799">
        <ele>138.8</ele>
        <time>2020-07-25T07:22:57Z</time>
      </trkpt>
      <trkpt lat="48.77564" lon="8.21813">
        <ele>139</ele>
        <time>2020-07-25T07:22:59Z</time>
      </trkpt>
      <trkpt lat="48.77562" lon="8.2182">
        <ele>139.2</ele>
        <time>2020-07-25T07:23:00Z</time>
      </trkpt>
      <trkpt lat="48.77558" lon="8.21827">
        <ele>139.2</ele>
        <time>2020-07-25T07:23:01Z</time>
      </trkpt>
      <trkpt lat="48.77544" lon="8.21861">
        <ele>139.4</ele>
        <time>2020-07-25T07:23:06Z</time>
      </trkpt>
      <trkpt lat="48.77534" lon="8.21881">
        <ele>139.4</ele>
        <time>2020-07-25T07:23:09Z</time>
      </trkpt>
      <trkpt lat="48.77529" lon="8.21894">
        <ele>139.6</ele>
        <time>2020-07-25T07:23:11Z</time>
      </trkpt>
      <trkpt lat="48.77515" lon="8.21918">
        <ele>140</ele>
        <time>2020-07-25T07:23:15Z</time>
      </trkpt>
      <trkpt lat="48.77512" lon="8.21924">
        <ele>140</ele>
        <time>2020-07-25T07:23:16Z</time>
      </trkpt>
      <trkpt lat="48.77507" lon="8.2193">
        <ele>140</ele>
        <time>2020-07-25T07:23:17Z</time>
      </trkpt>
      <trkpt lat="48.77495" lon="8.21944">
        <ele>140</ele>
        <time>2020-07-25T07:23:20Z</time>
      </trkpt>
      <trkpt lat="48.77487" lon="8.21955">
        <ele>140</ele>
        <time>2020-07-25T07:23:22Z</time>
      </trkpt>
      <trkpt lat="48.77469" lon="8.21985">
        <ele>140.2</ele>
        <time>2020-07-25T07:23:27Z</time>
      </trkpt>
      <trkpt lat="48.7746" lon="8.21995">
        <ele>140.2</ele>
        <time>2020-07-25T07:23:29Z</time>
      </trkpt>
      <trkpt lat="48.77443" lon="8.22015">
        <ele>140.4</ele>
        <time>2020-07-25T07:23:33Z</time>
      </trkpt>
      <trkpt lat="48.77437" lon="8.22027">
        <ele>140.4</ele>
        <time>2020-07-25T07:23:35Z</time>
      </trkpt>
      <trkpt lat="48.77424" lon="8.2205">
        <ele>140.6</ele>
        <time>2020-07-25T07:23:39Z</time>
      </trkpt>
      <trkpt lat="48.77414" lon="8.22068">
        <ele>140.6</ele>
        <time>2020-07-25T07:23:42Z</time>
      </trkpt>
      <trkpt lat="48.77408" lon="8.2208">
        <ele>140.8</ele>
        <time>2020-07-25T07:23:44Z</time>
      </trkpt>
      <trkpt lat="48.77404" lon="8.22093">
        <ele>141</ele>
        <time>2020-07-25T07:23:46Z</time>
      </trkpt>
      <trkpt lat="48.77399" lon="8.22108">
        <ele>141.2</ele>
        <time>2020-07-25T07:23:48Z</time>
      </trkpt>
      <trkpt lat="48.77397" lon="8.22114">
        <ele>141.2</ele>
        <time>2020-07-25T07:23:49Z</time>
      </trkpt>
      <trkpt lat="48.77383" lon="8.22139">
        <ele>141.2</ele>
        <time>2020-07-25T07:23:53Z</time>
      </trkpt>
      <trkpt lat="48.77361" lon="8.2218">
        <ele>141.4</ele>
        <time>2020-07-25T07:24:00Z</time>
      </trkpt>
      <trkpt lat="48.77352" lon="8.22195">
        <ele>141.4</ele>
        <time>2020-07-25T07:24:03Z</time>
      </trkpt>
      <trkpt lat="48.77343" lon="8.22208">
        <ele>141.6</ele>
        <time>2020-07-25T07:24:06Z</time>
      </trkpt>
      <trkpt lat="48.77327" lon="8.22235">
        <ele>142</ele>
        <time>2020-07-25T07:24:12Z</time>
      </trkpt>
      <trkpt lat="48.77311" lon="8.22261">
        <ele>142.4</ele>
        <time>2020-07-25T07:24:19Z</time>
      </trkpt>
      <trkpt lat="48.77302" lon="8.22274">
        <ele>142.8</ele>
        <time>2020-07-25T07:24:24Z</time>
      </trkpt>
      <trkpt lat="48.77291" lon="8.22293">
        <ele>143</ele>
        <time>2020-07-25T07:24:28Z</time>
      </trkpt>
      <trkpt lat="48.77285" lon="8.22305">
        <ele>143.2</ele>
        <time>2020-07-25T07:24:30Z</time>
      </trkpt>
      <trkpt lat="48.77283" lon="8.22311">
        <ele>143.2</ele>
        <time>2020-07-25T07:24:31Z</time>
      </trkpt>
      <trkpt lat="48.77277" lon="8.22321">
        <ele>143.4</ele>
        <time>2020-07-25T07:24:33Z</time>
      </trkpt>
      <trkpt lat="48.77273" lon="8.22326">
        <ele>143.4</ele>
        <time>2020-07-25T07:24:34Z</time>
      </trkpt>
      <trkpt lat="48.7727" lon="8.22331">
        <ele>143.4</ele>
        <time>2020-07-25T07:24:35Z</time>
      </trkpt>
      <trkpt lat="48.77257" lon="8.22352">
        <ele>143.6</ele>
        <time>2020-07-25T07:24:39Z</time>
      </trkpt>
      <trkpt lat="48.7723" lon="8.22396">
        <ele>143.8</ele>
        <time>2020-07-25T07:24:47Z</time>
      </trkpt>
      <trkpt lat="48.7721" lon="8.22431">
        <ele>144</ele>
        <time>2020-07-25T07:24:53Z</time>
      </trkpt>
      <trkpt lat="48.77204" lon="8.22442">
        <ele>144</ele>
        <time>2020-07-25T07:24:55Z</time>
      </trkpt>
      <trkpt lat="48.77188" lon="8.2247">
        <ele>144</ele>
        <time>2020-07-25T07:25:01Z</time>
      </trkpt>
      <trkpt lat="48.77186" lon="8.22472">
        <ele>144.2</ele>
        <time>2020-07-25T07:25:04Z</time>
      </trkpt>
      <trkpt lat="48.77186" lon="8.22472">
        <ele>144.2</ele>
        <time>2020-07-25T07:25:05Z</time>
      </trkpt>
      <trkpt lat="48.77183" lon="8.22478">
        <ele>145</ele>
        <time>2020-07-25T07:25:12Z</time>
      </trkpt>
      <trkpt lat="48.77179" lon="8.22485">
        <ele>145.2</ele>
        <time>2020-07-25T07:25:14Z</time>
      </trkpt>
      <trkpt lat="48.77174" lon="8.22495">
        <ele>145.2</ele>
        <time>2020-07-25T07:25:16Z</time>
      </trkpt>
      <trkpt lat="48.77168" lon="8.22504">
        <ele>145.2</ele>
        <time>2020-07-25T07:25:18Z</time>
      </trkpt>
      <trkpt lat="48.77162" lon="8.22512">
        <ele>145.2</ele>
        <time>2020-07-25T07:25:20Z</time>
      </trkpt>
      <trkpt lat="48.77154" lon="8.22526">
        <ele>145.2</ele>
        <time>2020-07-25T07:25:23Z</time>
      </trkpt>
      <trkpt lat="48.77135" lon="8.22558">
        <ele>145.2</ele>
        <time>2020-07-25T07:25:29Z</time>
      </trkpt>
      <trkpt lat="48.77128" lon="8.22568">
        <ele>145.2</ele>
        <time>2020-07-25T07:25:31Z</time>
      </trkpt>
      <trkpt lat="48.77122" lon="8.22578">
        <ele>145.2</ele>
        <time>2020-07-25T07:25:33Z</time>
      </trkpt>
      <trkpt lat="48.7711" lon="8.22598">
        <ele>145.2</ele>
        <time>2020-07-25T07:25:37Z</time>
      </trkpt>
      <trkpt lat="48.77107" lon="8.22603">
        <ele>145.4</ele>
        <time>2020-07-25T07:25:38Z</time>
      </trkpt>
      <trkpt lat="48.77104" lon="8.22609">
        <ele>145.4</ele>
        <time>2020-07-25T07:25:39Z</time>
      </trkpt>
      <trkpt lat="48.77088" lon="8.22635">
        <ele>145.6</ele>
        <time>2020-07-25T07:25:44Z</time>
      </trkpt>
      <trkpt lat="48.77066" lon="8.22671">
        <ele>146</ele>
        <time>2020-07-25T07:25:51Z</time>
      </trkpt>
      <trkpt lat="48.77043" lon="8.22709">
        <ele>146.4</ele>
        <time>2020-07-25T07:25:58Z</time>
      </trkpt>
      <trkpt lat="48.7704" lon="8.22713">
        <ele>146.6</ele>
        <time>2020-07-25T07:25:59Z</time>
      </trkpt>
      <trkpt lat="48.77019" lon="8.22744">
        <ele>147</ele>
        <time>2020-07-25T07:26:05Z</time>
      </trkpt>
      <trkpt lat="48.77015" lon="8.22749">
        <ele>147</ele>
        <time>2020-07-25T07:26:06Z</time>
      </trkpt>
      <trkpt lat="48.77004" lon="8.22764">
        <ele>147</ele>
        <time>2020-07-25T07:26:09Z</time>
      </trkpt>
      <trkpt lat="48.76994" lon="8.22778">
        <ele>147.2</ele>
        <time>2020-07-25T07:26:12Z</time>
      </trkpt>
      <trkpt lat="48.76988" lon="8.22789">
        <ele>147.4</ele>
        <time>2020-07-25T07:26:14Z</time>
      </trkpt>
      <trkpt lat="48.76981" lon="8.22799">
        <ele>147.6</ele>
        <time>2020-07-25T07:26:16Z</time>
      </trkpt>
      <trkpt lat="48.76978" lon="8.22805">
        <ele>147.8</ele>
        <time>2020-07-25T07:26:17Z</time>
      </trkpt>
      <trkpt lat="48.76974" lon="8.22809">
        <ele>147.8</ele>
        <time>2020-07-25T07:26:18Z</time>
      </trkpt>
      <trkpt lat="48.76971" lon="8.22814">
        <ele>148</ele>
        <time>2020-07-25T07:26:19Z</time>
      </trkpt>
      <trkpt lat="48.76954" lon="8.22837">
        <ele>148.2</ele>
        <time>2020-07-25T07:26:24Z</time>
      </trkpt>
      <trkpt lat="48.7694" lon="8.22854">
        <ele>148.6</ele>
        <time>2020-07-25T07:26:28Z</time>
      </trkpt>
      <trkpt lat="48.76933" lon="8.22861">
        <ele>148.6</ele>
        <time>2020-07-25T07:26:30Z</time>
      </trkpt>
      <trkpt lat="48.76925" lon="8.22867">
        <ele>148.8</ele>
        <time>2020-07-25T07:26:32Z</time>
      </trkpt>
      <trkpt lat="48.76917" lon="8.22873">
        <ele>149</ele>
        <time>2020-07-25T07:26:34Z</time>
      </trkpt>
      <trkpt lat="48.76912" lon="8.22878">
        <ele>149</ele>
        <time>2020-07-25T07:26:35Z</time>
      </trkpt>
      <trkpt lat="48.769" lon="8.2289">
        <ele>149.6</ele>
        <time>2020-07-25T07:26:40Z</time>
      </trkpt>
      <trkpt lat="48.769" lon="8.2289">
        <ele>149.6</ele>
        <time>2020-07-25T07:26:41Z</time>
      </trkpt>
      <trkpt lat="48.769" lon="8.2289">
        <ele>149.8</ele>
        <time>2020-07-25T07:26:43Z</time>
      </trkpt>
      <trkpt lat="48.76896" lon="8.22897">
        <ele>149.8</ele>
        <time>2020-07-25T07:27:29Z</time>
      </trkpt>
      <trkpt lat="48.76891" lon="8.22911">
        <ele>149.8</ele>
        <time>2020-07-25T07:27:33Z</time>
      </trkpt>
      <trkpt lat="48.76891" lon="8.22913">
        <ele>149.6</ele>
        <time>2020-07-25T07:27:37Z</time>
      </trkpt>
      <trkpt lat="48.76897" lon="8.22917">
        <ele>149.6</ele>
        <time>2020-07-25T07:27:48Z</time>
      </trkpt>
      <trkpt lat="48.76902" lon="8.22918">
        <ele>149.6</ele>
        <time>2020-07-25T07:27:50Z</time>
      </trkpt>
      <trkpt lat="48.76905" lon="8.22919">
        <ele>149.6</ele>
        <time>2020-07-25T07:27:51Z</time>
      </trkpt>
      <trkpt lat="48.76911" lon="8.22924">
        <ele>149.6</ele>
        <time>2020-07-25T07:27:53Z</time>
      </trkpt>
      <trkpt lat="48.76912" lon="8.22928">
        <ele>149.6</ele>
        <time>2020-07-25T07:27:54Z</time>
      </trkpt>
      <trkpt lat="48.7691" lon="8.22937">
        <ele>149.6</ele>
        <time>2020-07-25T07:27:57Z</time>
      </trkpt>
      <trkpt lat="48.76908" lon="8.22939">
        <ele>149.6</ele>
        <time>2020-07-25T07:27:58Z</time>
      </trkpt>
      <trkpt lat="48.769" lon="8.22947">
        <ele>149.6</ele>
        <time>2020-07-25T07:28:01Z</time>
      </trkpt>
      <trkpt lat="48.76889" lon="8.22958">
        <ele>149.4</ele>
        <time>2020-07-25T07:28:04Z</time>
      </trkpt>
      <trkpt lat="48.76872" lon="8.22976">
        <ele>149.4</ele>
        <time>2020-07-25T07:28:08Z</time>
      </trkpt>
      <trkpt lat="48.76861" lon="8.2299">
        <ele>149.4</ele>
        <time>2020-07-25T07:28:11Z</time>
      </trkpt>
      <trkpt lat="48.76854" lon="8.23">
        <ele>149.4</ele>
        <time>2020-07-25T07:28:13Z</time>
      </trkpt>
      <trkpt lat="48.76837" lon="8.23027">
        <ele>149.4</ele>
        <time>2020-07-25T07:28:18Z</time>
      </trkpt>
      <trkpt lat="48.76834" lon="8.23033">
        <ele>149.4</ele>
        <time>2020-07-25T07:28:19Z</time>
      </trkpt>
      <trkpt lat="48.76823" lon="8.23062">
        <ele>149.4</ele>
        <time>2020-07-25T07:28:24Z</time>
      </trkpt>
      <trkpt lat="48.76816" lon="8.23079">
        <ele>149.4</ele>
        <time>2020-07-25T07:28:27Z</time>
      </trkpt>
      <trkpt lat="48.76802" lon="8.23122">
        <ele>149.4</ele>
        <time>2020-07-25T07:28:34Z</time>
      </trkpt>
      <trkpt lat="48.768" lon="8.23128">
        <ele>149.4</ele>
        <time>2020-07-25T07:28:35Z</time>
      </trkpt>
      <trkpt lat="48.76781" lon="8.23156">
        <ele>149.6</ele>
        <time>2020-07-25T07:28:41Z</time>
      </trkpt>
      <trkpt lat="48.76776" lon="8.23164">
        <ele>150</ele>
        <time>2020-07-25T07:28:43Z</time>
      </trkpt>
      <trkpt lat="48.7677" lon="8.23172">
        <ele>150.6</ele>
        <time>2020-07-25T07:28:47Z</time>
      </trkpt>
      <trkpt lat="48.76768" lon="8.23175">
        <ele>150.6</ele>
        <time>2020-07-25T07:28:48Z</time>
      </trkpt>
      <trkpt lat="48.76764" lon="8.23182">
        <ele>150.8</ele>
        <time>2020-07-25T07:28:50Z</time>
      </trkpt>
      <trkpt lat="48.76763" lon="8.23188">
        <ele>150.8</ele>
        <time>2020-07-25T07:28:51Z</time>
      </trkpt>
      <trkpt lat="48.76762" lon="8.2321">
        <ele>150.8</ele>
        <time>2020-07-25T07:28:55Z</time>
      </trkpt>
      <trkpt lat="48.76761" lon="8.23231">
        <ele>150.8</ele>
        <time>2020-07-25T07:28:58Z</time>
      </trkpt>
      <trkpt lat="48.7676" lon="8.23238">
        <ele>150.8</ele>
        <time>2020-07-25T07:28:59Z</time>
      </trkpt>
      <trkpt lat="48.76759" lon="8.23246">
        <ele>150.8</ele>
        <time>2020-07-25T07:29:00Z</time>
      </trkpt>
      <trkpt lat="48.76751" lon="8.23263">
        <ele>150.6</ele>
        <time>2020-07-25T07:29:03Z</time>
      </trkpt>
      <trkpt lat="48.76733" lon="8.23286">
        <ele>150.4</ele>
        <time>2020-07-25T07:29:08Z</time>
      </trkpt>
      <trkpt lat="48.76712" lon="8.2332">
        <ele>150.2</ele>
        <time>2020-07-25T07:29:15Z</time>
      </trkpt>
      <trkpt lat="48.76695" lon="8.23344">
        <ele>150.4</ele>
        <time>2020-07-25T07:29:21Z</time>
      </trkpt>
      <trkpt lat="48.76672" lon="8.23381">
        <ele>150.4</ele>
        <time>2020-07-25T07:29:29Z</time>
      </trkpt>
      <trkpt lat="48.76664" lon="8.2339">
        <ele>150.6</ele>
        <time>2020-07-25T07:29:34Z</time>
      </trkpt>
      <trkpt lat="48.76662" lon="8.2339">
        <ele>150.6</ele>
        <time>2020-07-25T07:29:35Z</time>
      </trkpt>
      <trkpt lat="48.76658" lon="8.23387">
        <ele>150.6</ele>
        <time>2020-07-25T07:29:38Z</time>
      </trkpt>
      <trkpt lat="48.76657" lon="8.23387">
        <ele>150.6</ele>
        <time>2020-07-25T07:29:39Z</time>
      </trkpt>
      <trkpt lat="48.76644" lon="8.23386">
        <ele>150.6</ele>
        <time>2020-07-25T07:29:45Z</time>
      </trkpt>
      <trkpt lat="48.7663" lon="8.2338">
        <ele>150.6</ele>
        <time>2020-07-25T07:29:49Z</time>
      </trkpt>
      <trkpt lat="48.7661" lon="8.23365">
        <ele>150.8</ele>
        <time>2020-07-25T07:29:55Z</time>
      </trkpt>
      <trkpt lat="48.76595" lon="8.23363">
        <ele>151.6</ele>
        <time>2020-07-25T07:30:00Z</time>
      </trkpt>
      <trkpt lat="48.76593" lon="8.23365">
        <ele>152</ele>
        <time>2020-07-25T07:30:01Z</time>
      </trkpt>
      <trkpt lat="48.76581" lon="8.23378">
        <ele>153.2</ele>
        <time>2020-07-25T07:30:06Z</time>
      </trkpt>
      <trkpt lat="48.76573" lon="8.23392">
        <ele>154.4</ele>
        <time>2020-07-25T07:30:11Z</time>
      </trkpt>
      <trkpt lat="48.76565" lon="8.23403">
        <ele>155.4</ele>
        <time>2020-07-25T07:30:15Z</time>
      </trkpt>
      <trkpt lat="48.76558" lon="8.23412">
        <ele>156.6</ele>
        <time>2020-07-25T07:30:19Z</time>
      </trkpt>
      <trkpt lat="48.76554" lon="8.23417">
        <ele>157</ele>
        <time>2020-07-25T07:30:21Z</time>
      </trkpt>
      <trkpt lat="48.76547" lon="8.23423">
        <ele>157.6</ele>
        <time>2020-07-25T07:30:24Z</time>
      </trkpt>
      <trkpt lat="48.76537" lon="8.2343">
        <ele>158.8</ele>
        <time>2020-07-25T07:30:28Z</time>
      </trkpt>
      <trkpt lat="48.76535" lon="8.23431">
        <ele>159</ele>
        <time>2020-07-25T07:30:29Z</time>
      </trkpt>
      <trkpt lat="48.76528" lon="8.23438">
        <ele>160</ele>
        <time>2020-07-25T07:30:32Z</time>
      </trkpt>
      <trkpt lat="48.76522" lon="8.23448">
        <ele>160.4</ele>
        <time>2020-07-25T07:30:35Z</time>
      </trkpt>
      <trkpt lat="48.76517" lon="8.23456">
        <ele>161</ele>
        <time>2020-07-25T07:30:37Z</time>
      </trkpt>
      <trkpt lat="48.7651" lon="8.2347">
        <ele>161.2</ele>
        <time>2020-07-25T07:30:40Z</time>
      </trkpt>
      <trkpt lat="48.76497" lon="8.23493">
        <ele>161.4</ele>
        <time>2020-07-25T07:30:45Z</time>
      </trkpt>
      <trkpt lat="48.76475" lon="8.23536">
        <ele>160.6</ele>
        <time>2020-07-25T07:30:53Z</time>
      </trkpt>
      <trkpt lat="48.76462" lon="8.23561">
        <ele>160</ele>
        <time>2020-07-25T07:30:57Z</time>
      </trkpt>
      <trkpt lat="48.76456" lon="8.23571">
        <ele>159.6</ele>
        <time>2020-07-25T07:30:59Z</time>
      </trkpt>
      <trkpt lat="48.76447" lon="8.23584">
        <ele>158.8</ele>
        <time>2020-07-25T07:31:01Z</time>
      </trkpt>
      <trkpt lat="48.76441" lon="8.23593">
        <ele>157.8</ele>
        <time>2020-07-25T07:31:03Z</time>
      </trkpt>
      <trkpt lat="48.7644" lon="8.23598">
        <ele>157.2</ele>
        <time>2020-07-25T07:31:04Z</time>
      </trkpt>
      <trkpt lat="48.76439" lon="8.23603">
        <ele>156.6</ele>
        <time>2020-07-25T07:31:05Z</time>
      </trkpt>
      <trkpt lat="48.76435" lon="8.23622">
        <ele>155.4</ele>
        <time>2020-07-25T07:31:08Z</time>
      </trkpt>
      <trkpt lat="48.76434" lon="8.23628">
        <ele>155</ele>
        <time>2020-07-25T07:31:09Z</time>
      </trkpt>
      <trkpt lat="48.76432" lon="8.23634">
        <ele>154.4</ele>
        <time>2020-07-25T07:31:10Z</time>
      </trkpt>
      <trkpt lat="48.76425" lon="8.23648">
        <ele>153.6</ele>
        <time>2020-07-25T07:31:13Z</time>
      </trkpt>
      <trkpt lat="48.76424" lon="8.23649">
        <ele>153.6</ele>
        <time>2020-07-25T07:31:14Z</time>
      </trkpt>
      <trkpt lat="48.76412" lon="8.2364">
        <ele>153.6</ele>
        <time>2020-07-25T07:31:19Z</time>
      </trkpt>
      <trkpt lat="48.76398" lon="8.23628">
        <ele>153.6</ele>
        <time>2020-07-25T07:31:24Z</time>
      </trkpt>
      <trkpt lat="48.76387" lon="8.23622">
        <ele>153.6</ele>
        <time>2020-07-25T07:31:28Z</time>
      </trkpt>
      <trkpt lat="48.76367" lon="8.23616">
        <ele>153.6</ele>
        <time>2020-07-25T07:31:33Z</time>
      </trkpt>
      <trkpt lat="48.76358" lon="8.23614">
        <ele>153.6</ele>
        <time>2020-07-25T07:31:35Z</time>
      </trkpt>
      <trkpt lat="48.7634" lon="8.23612">
        <ele>153.4</ele>
        <time>2020-07-25T07:31:39Z</time>
      </trkpt>
      <trkpt lat="48.76299" lon="8.23615">
        <ele>153.4</ele>
        <time>2020-07-25T07:31:48Z</time>
      </trkpt>
      <trkpt lat="48.76282" lon="8.23622">
        <ele>153.4</ele>
        <time>2020-07-25T07:31:52Z</time>
      </trkpt>
      <trkpt lat="48.76273" lon="8.23628">
        <ele>153.4</ele>
        <time>2020-07-25T07:31:54Z</time>
      </trkpt>
      <trkpt lat="48.7627" lon="8.2363">
        <ele>153.2</ele>
        <time>2020-07-25T07:31:55Z</time>
      </trkpt>
      <trkpt lat="48.76266" lon="8.23635">
        <ele>153.2</ele>
        <time>2020-07-25T07:31:56Z</time>
      </trkpt>
      <trkpt lat="48.76254" lon="8.23653">
        <ele>153.2</ele>
        <time>2020-07-25T07:32:00Z</time>
      </trkpt>
      <trkpt lat="48.76251" lon="8.23658">
        <ele>153.2</ele>
        <time>2020-07-25T07:32:01Z</time>
      </trkpt>
      <trkpt lat="48.76234" lon="8.2369">
        <ele>153.2</ele>
        <time>2020-07-25T07:32:07Z</time>
      </trkpt>
      <trkpt lat="48.76231" lon="8.23695">
        <ele>153.2</ele>
        <time>2020-07-25T07:32:08Z</time>
      </trkpt>
      <trkpt lat="48.76216" lon="8.23709">
        <ele>153.2</ele>
        <time>2020-07-25T07:32:12Z</time>
      </trkpt>
      <trkpt lat="48.76207" lon="8.23715">
        <ele>153.2</ele>
        <time>2020-07-25T07:32:14Z</time>
      </trkpt>
      <trkpt lat="48.76194" lon="8.23722">
        <ele>153.4</ele>
        <time>2020-07-25T07:32:17Z</time>
      </trkpt>
      <trkpt lat="48.7618" lon="8.23729">
        <ele>153.6</ele>
        <time>2020-07-25T07:32:20Z</time>
      </trkpt>
      <trkpt lat="48.76167" lon="8.23736">
        <ele>153.8</ele>
        <time>2020-07-25T07:32:23Z</time>
      </trkpt>
      <trkpt lat="48.7612" lon="8.23759">
        <ele>154.2</ele>
        <time>2020-07-25T07:32:33Z</time>
      </trkpt>
      <trkpt lat="48.76102" lon="8.23771">
        <ele>154.2</ele>
        <time>2020-07-25T07:32:37Z</time>
      </trkpt>
      <trkpt lat="48.76086" lon="8.23788">
        <ele>154.6</ele>
        <time>2020-07-25T07:32:41Z</time>
      </trkpt>
      <trkpt lat="48.7607" lon="8.23807">
        <ele>154.8</ele>
        <time>2020-07-25T07:32:45Z</time>
      </trkpt>
      <trkpt lat="48.76069" lon="8.23809">
        <ele>154.8</ele>
        <time>2020-07-25T07:32:46Z</time>
      </trkpt>
      <trkpt lat="48.76055" lon="8.23824">
        <ele>155.2</ele>
        <time>2020-07-25T07:32:50Z</time>
      </trkpt>
      <trkpt lat="48.76047" lon="8.23832">
        <ele>155.2</ele>
        <time>2020-07-25T07:32:52Z</time>
      </trkpt>
      <trkpt lat="48.76044" lon="8.23836">
        <ele>155.2</ele>
        <time>2020-07-25T07:32:53Z</time>
      </trkpt>
      <trkpt lat="48.7604" lon="8.23838">
        <ele>155.4</ele>
        <time>2020-07-25T07:32:54Z</time>
      </trkpt>
      <trkpt lat="48.76027" lon="8.23846">
        <ele>155.8</ele>
        <time>2020-07-25T07:32:57Z</time>
      </trkpt>
      <trkpt lat="48.76019" lon="8.2385">
        <ele>156</ele>
        <time>2020-07-25T07:32:59Z</time>
      </trkpt>
      <trkpt lat="48.76015" lon="8.23851">
        <ele>156.2</ele>
        <time>2020-07-25T07:33:00Z</time>
      </trkpt>
      <trkpt lat="48.76005" lon="8.23853">
        <ele>156.2</ele>
        <time>2020-07-25T07:33:03Z</time>
      </trkpt>
      <trkpt lat="48.75981" lon="8.23856">
        <ele>156.4</ele>
        <time>2020-07-25T07:33:09Z</time>
      </trkpt>
      <trkpt lat="48.75957" lon="8.23862">
        <ele>156.4</ele>
        <time>2020-07-25T07:33:15Z</time>
      </trkpt>
      <trkpt lat="48.75942" lon="8.23857">
        <ele>156.4</ele>
        <time>2020-07-25T07:33:19Z</time>
      </trkpt>
      <trkpt lat="48.75933" lon="8.23854">
        <ele>156.4</ele>
        <time>2020-07-25T07:33:21Z</time>
      </trkpt>
      <trkpt lat="48.75919" lon="8.23855">
        <ele>156.4</ele>
        <time>2020-07-25T07:33:24Z</time>
      </trkpt>
      <trkpt lat="48.75909" lon="8.23855">
        <ele>156.4</ele>
        <time>2020-07-25T07:33:26Z</time>
      </trkpt>
      <trkpt lat="48.759" lon="8.23852">
        <ele>156.4</ele>
        <time>2020-07-25T07:33:28Z</time>
      </trkpt>
      <trkpt lat="48.75897" lon="8.23849">
        <ele>156.4</ele>
        <time>2020-07-25T07:33:29Z</time>
      </trkpt>
      <trkpt lat="48.75888" lon="8.23846">
        <ele>156.6</ele>
        <time>2020-07-25T07:33:31Z</time>
      </trkpt>
      <trkpt lat="48.75878" lon="8.23844">
        <ele>156.8</ele>
        <time>2020-07-25T07:33:33Z</time>
      </trkpt>
      <trkpt lat="48.75873" lon="8.23845">
        <ele>157</ele>
        <time>2020-07-25T07:33:34Z</time>
      </trkpt>
      <trkpt lat="48.75836" lon="8.2384">
        <ele>157</ele>
        <time>2020-07-25T07:33:41Z</time>
      </trkpt>
      <trkpt lat="48.75832" lon="8.23839">
        <ele>157</ele>
        <time>2020-07-25T07:33:42Z</time>
      </trkpt>
      <trkpt lat="48.75807" lon="8.23835">
        <ele>157.2</ele>
        <time>2020-07-25T07:33:47Z</time>
      </trkpt>
      <trkpt lat="48.75788" lon="8.23834">
        <ele>157.2</ele>
        <time>2020-07-25T07:33:51Z</time>
      </trkpt>
      <trkpt lat="48.75773" lon="8.23833">
        <ele>157.4</ele>
        <time>2020-07-25T07:33:54Z</time>
      </trkpt>
      <trkpt lat="48.75735" lon="8.23828">
        <ele>158</ele>
        <time>2020-07-25T07:34:02Z</time>
      </trkpt>
      <trkpt lat="48.75703" lon="8.23825">
        <ele>158.2</ele>
        <time>2020-07-25T07:34:09Z</time>
      </trkpt>
      <trkpt lat="48.75693" lon="8.23824">
        <ele>158.2</ele>
        <time>2020-07-25T07:34:11Z</time>
      </trkpt>
      <trkpt lat="48.75689" lon="8.23824">
        <ele>158.2</ele>
        <time>2020-07-25T07:34:12Z</time>
      </trkpt>
      <trkpt lat="48.75685" lon="8.23823">
        <ele>158.4</ele>
        <time>2020-07-25T07:34:13Z</time>
      </trkpt>
      <trkpt lat="48.75669" lon="8.23822">
        <ele>158.4</ele>
        <time>2020-07-25T07:34:16Z</time>
      </trkpt>
      <trkpt lat="48.75633" lon="8.2382">
        <ele>158.4</ele>
        <time>2020-07-25T07:34:24Z</time>
      </trkpt>
      <trkpt lat="48.75588" lon="8.23814">
        <ele>158.8</ele>
        <time>2020-07-25T07:34:33Z</time>
      </trkpt>
      <trkpt lat="48.75583" lon="8.23814">
        <ele>158.8</ele>
        <time>2020-07-25T07:34:34Z</time>
      </trkpt>
      <trkpt lat="48.75579" lon="8.23813">
        <ele>158.8</ele>
        <time>2020-07-25T07:34:35Z</time>
      </trkpt>
      <trkpt lat="48.75574" lon="8.23812">
        <ele>158.8</ele>
        <time>2020-07-25T07:34:36Z</time>
      </trkpt>
      <trkpt lat="48.7555" lon="8.23809">
        <ele>159.2</ele>
        <time>2020-07-25T07:34:41Z</time>
      </trkpt>
      <trkpt lat="48.75545" lon="8.23807">
        <ele>159.4</ele>
        <time>2020-07-25T07:34:42Z</time>
      </trkpt>
      <trkpt lat="48.75512" lon="8.23806">
        <ele>160.2</ele>
        <time>2020-07-25T07:34:49Z</time>
      </trkpt>
      <trkpt lat="48.75507" lon="8.23808">
        <ele>160.2</ele>
        <time>2020-07-25T07:34:50Z</time>
      </trkpt>
      <trkpt lat="48.75498" lon="8.23812">
        <ele>160.4</ele>
        <time>2020-07-25T07:34:52Z</time>
      </trkpt>
      <trkpt lat="48.75494" lon="8.23813">
        <ele>160.4</ele>
        <time>2020-07-25T07:34:53Z</time>
      </trkpt>
      <trkpt lat="48.75487" lon="8.23818">
        <ele>160.4</ele>
        <time>2020-07-25T07:34:55Z</time>
      </trkpt>
      <trkpt lat="48.75477" lon="8.23828">
        <ele>160.6</ele>
        <time>2020-07-25T07:34:59Z</time>
      </trkpt>
      <trkpt lat="48.7546" lon="8.23839">
        <ele>161</ele>
        <time>2020-07-25T07:35:05Z</time>
      </trkpt>
      <trkpt lat="48.75438" lon="8.23854">
        <ele>161.4</ele>
        <time>2020-07-25T07:35:11Z</time>
      </trkpt>
      <trkpt lat="48.7543" lon="8.2386">
        <ele>161.4</ele>
        <time>2020-07-25T07:35:13Z</time>
      </trkpt>
      <trkpt lat="48.75415" lon="8.2387">
        <ele>161.4</ele>
        <time>2020-07-25T07:35:17Z</time>
      </trkpt>
      <trkpt lat="48.75385" lon="8.23893">
        <ele>161</ele>
        <time>2020-07-25T07:35:24Z</time>
      </trkpt>
      <trkpt lat="48.75376" lon="8.239">
        <ele>161</ele>
        <time>2020-07-25T07:35:26Z</time>
      </trkpt>
      <trkpt lat="48.75368" lon="8.23907">
        <ele>161</ele>
        <time>2020-07-25T07:35:28Z</time>
      </trkpt>
      <trkpt lat="48.75365" lon="8.23911">
        <ele>161</ele>
        <time>2020-07-25T07:35:29Z</time>
      </trkpt>
      <trkpt lat="48.7536" lon="8.23916">
        <ele>161</ele>
        <time>2020-07-25T07:35:30Z</time>
      </trkpt>
      <trkpt lat="48.7534" lon="8.23939">
        <ele>161</ele>
        <time>2020-07-25T07:35:35Z</time>
      </trkpt>
      <trkpt lat="48.75318" lon="8.23968">
        <ele>161.4</ele>
        <time>2020-07-25T07:35:41Z</time>
      </trkpt>
      <trkpt lat="48.7531" lon="8.23977">
        <ele>161.2</ele>
        <time>2020-07-25T07:35:43Z</time>
      </trkpt>
      <trkpt lat="48.75304" lon="8.23987">
        <ele>161.2</ele>
        <time>2020-07-25T07:35:45Z</time>
      </trkpt>
      <trkpt lat="48.75293" lon="8.24003">
        <ele>161.2</ele>
        <time>2020-07-25T07:35:48Z</time>
      </trkpt>
      <trkpt lat="48.75285" lon="8.24011">
        <ele>161.4</ele>
        <time>2020-07-25T07:35:50Z</time>
      </trkpt>
      <trkpt lat="48.75275" lon="8.24026">
        <ele>161.4</ele>
        <time>2020-07-25T07:35:53Z</time>
      </trkpt>
      <trkpt lat="48.75271" lon="8.2403">
        <ele>161.4</ele>
        <time>2020-07-25T07:35:54Z</time>
      </trkpt>
      <trkpt lat="48.75246" lon="8.24061">
        <ele>161.8</ele>
        <time>2020-07-25T07:36:01Z</time>
      </trkpt>
      <trkpt lat="48.7523" lon="8.24083">
        <ele>162.2</ele>
        <time>2020-07-25T07:36:06Z</time>
      </trkpt>
      <trkpt lat="48.75224" lon="8.24094">
        <ele>162.2</ele>
        <time>2020-07-25T07:36:08Z</time>
      </trkpt>
      <trkpt lat="48.7522" lon="8.241">
        <ele>162.2</ele>
        <time>2020-07-25T07:36:09Z</time>
      </trkpt>
      <trkpt lat="48.75214" lon="8.24107">
        <ele>162.2</ele>
        <time>2020-07-25T07:36:11Z</time>
      </trkpt>
      <trkpt lat="48.75208" lon="8.24109">
        <ele>162.4</ele>
        <time>2020-07-25T07:36:13Z</time>
      </trkpt>
      <trkpt lat="48.75193" lon="8.24125">
        <ele>162.4</ele>
        <time>2020-07-25T07:36:17Z</time>
      </trkpt>
      <trkpt lat="48.75179" lon="8.24157">
        <ele>163.2</ele>
        <time>2020-07-25T07:36:23Z</time>
      </trkpt>
      <trkpt lat="48.75176" lon="8.24162">
        <ele>163.4</ele>
        <time>2020-07-25T07:36:24Z</time>
      </trkpt>
      <trkpt lat="48.75169" lon="8.24178">
        <ele>163.4</ele>
        <time>2020-07-25T07:36:27Z</time>
      </trkpt>
      <trkpt lat="48.7516" lon="8.24191">
        <ele>163.6</ele>
        <time>2020-07-25T07:36:30Z</time>
      </trkpt>
      <trkpt lat="48.75139" lon="8.24236">
        <ele>164</ele>
        <time>2020-07-25T07:36:38Z</time>
      </trkpt>
      <trkpt lat="48.75132" lon="8.24253">
        <ele>164.2</ele>
        <time>2020-07-25T07:36:41Z</time>
      </trkpt>
      <trkpt lat="48.75121" lon="8.24275">
        <ele>164.4</ele>
        <time>2020-07-25T07:36:45Z</time>
      </trkpt>
      <trkpt lat="48.75118" lon="8.24279">
        <ele>164.6</ele>
        <time>2020-07-25T07:36:46Z</time>
      </trkpt>
      <trkpt lat="48.75111" lon="8.24296">
        <ele>164.6</ele>
        <time>2020-07-25T07:36:49Z</time>
      </trkpt>
      <trkpt lat="48.75109" lon="8.243">
        <ele>164.6</ele>
        <time>2020-07-25T07:36:50Z</time>
      </trkpt>
      <trkpt lat="48.75091" lon="8.24333">
        <ele>165</ele>
        <time>2020-07-25T07:36:56Z</time>
      </trkpt>
      <trkpt lat="48.75088" lon="8.24338">
        <ele>165.2</ele>
        <time>2020-07-25T07:36:57Z</time>
      </trkpt>
      <trkpt lat="48.75082" lon="8.24349">
        <ele>165.4</ele>
        <time>2020-07-25T07:36:59Z</time>
      </trkpt>
      <trkpt lat="48.75076" lon="8.2436">
        <ele>165.4</ele>
        <time>2020-07-25T07:37:01Z</time>
      </trkpt>
      <trkpt lat="48.75072" lon="8.24371">
        <ele>165.6</ele>
        <time>2020-07-25T07:37:03Z</time>
      </trkpt>
      <trkpt lat="48.75069" lon="8.24385">
        <ele>165.8</ele>
        <time>2020-07-25T07:37:05Z</time>
      </trkpt>
      <trkpt lat="48.75066" lon="8.24412">
        <ele>166.2</ele>
        <time>2020-07-25T07:37:09Z</time>
      </trkpt>
      <trkpt lat="48.75066" lon="8.24426">
        <ele>166.4</ele>
        <time>2020-07-25T07:37:11Z</time>
      </trkpt>
      <trkpt lat="48.75067" lon="8.24433">
        <ele>166.4</ele>
        <time>2020-07-25T07:37:12Z</time>
      </trkpt>
      <trkpt lat="48.75071" lon="8.24455">
        <ele>166.6</ele>
        <time>2020-07-25T07:37:15Z</time>
      </trkpt>
      <trkpt lat="48.75074" lon="8.24486">
        <ele>166.8</ele>
        <time>2020-07-25T07:37:19Z</time>
      </trkpt>
      <trkpt lat="48.75074" lon="8.24503">
        <ele>166.8</ele>
        <time>2020-07-25T07:37:21Z</time>
      </trkpt>
      <trkpt lat="48.75073" lon="8.24511">
        <ele>166.8</ele>
        <time>2020-07-25T07:37:22Z</time>
      </trkpt>
      <trkpt lat="48.75072" lon="8.24566">
        <ele>166.6</ele>
        <time>2020-07-25T07:37:29Z</time>
      </trkpt>
      <trkpt lat="48.75067" lon="8.2463">
        <ele>166.6</ele>
        <time>2020-07-25T07:37:38Z</time>
      </trkpt>
      <trkpt lat="48.75057" lon="8.24675">
        <ele>167.4</ele>
        <time>2020-07-25T07:37:45Z</time>
      </trkpt>
      <trkpt lat="48.75041" lon="8.24736">
        <ele>168.4</ele>
        <time>2020-07-25T07:37:54Z</time>
      </trkpt>
      <trkpt lat="48.75038" lon="8.24743">
        <ele>168.4</ele>
        <time>2020-07-25T07:37:55Z</time>
      </trkpt>
      <trkpt lat="48.75036" lon="8.24749">
        <ele>168.4</ele>
        <time>2020-07-25T07:37:56Z</time>
      </trkpt>
      <trkpt lat="48.75025" lon="8.24774">
        <ele>168.6</ele>
        <time>2020-07-25T07:38:00Z</time>
      </trkpt>
      <trkpt lat="48.75019" lon="8.24785">
        <ele>168.6</ele>
        <time>2020-07-25T07:38:02Z</time>
      </trkpt>
      <trkpt lat="48.75009" lon="8.24802">
        <ele>168.6</ele>
        <time>2020-07-25T07:38:05Z</time>
      </trkpt>
      <trkpt lat="48.75" lon="8.24817">
        <ele>168.6</ele>
        <time>2020-07-25T07:38:08Z</time>
      </trkpt>
      <trkpt lat="48.74997" lon="8.24823">
        <ele>168.6</ele>
        <time>2020-07-25T07:38:09Z</time>
      </trkpt>
      <trkpt lat="48.74991" lon="8.24837">
        <ele>168.8</ele>
        <time>2020-07-25T07:38:11Z</time>
      </trkpt>
      <trkpt lat="48.74986" lon="8.24848">
        <ele>168.8</ele>
        <time>2020-07-25T07:38:13Z</time>
      </trkpt>
      <trkpt lat="48.74985" lon="8.24856">
        <ele>169</ele>
        <time>2020-07-25T07:38:14Z</time>
      </trkpt>
      <trkpt lat="48.74976" lon="8.24892">
        <ele>169.4</ele>
        <time>2020-07-25T07:38:19Z</time>
      </trkpt>
      <trkpt lat="48.74972" lon="8.24907">
        <ele>169.6</ele>
        <time>2020-07-25T07:38:21Z</time>
      </trkpt>
      <trkpt lat="48.74966" lon="8.24934">
        <ele>169.8</ele>
        <time>2020-07-25T07:38:25Z</time>
      </trkpt>
      <trkpt lat="48.74964" lon="8.24949">
        <ele>169.8</ele>
        <time>2020-07-25T07:38:27Z</time>
      </trkpt>
      <trkpt lat="48.74964" lon="8.2498">
        <ele>169.8</ele>
        <time>2020-07-25T07:38:31Z</time>
      </trkpt>
      <trkpt lat="48.74963" lon="8.24995">
        <ele>170</ele>
        <time>2020-07-25T07:38:33Z</time>
      </trkpt>
      <trkpt lat="48.74962" lon="8.25015">
        <ele>170.4</ele>
        <time>2020-07-25T07:38:36Z</time>
      </trkpt>
      <trkpt lat="48.74961" lon="8.25028">
        <ele>170.4</ele>
        <time>2020-07-25T07:38:38Z</time>
      </trkpt>
      <trkpt lat="48.74959" lon="8.25042">
        <ele>170.6</ele>
        <time>2020-07-25T07:38:40Z</time>
      </trkpt>
      <trkpt lat="48.74952" lon="8.25082">
        <ele>170.8</ele>
        <time>2020-07-25T07:38:46Z</time>
      </trkpt>
      <trkpt lat="48.74941" lon="8.25136">
        <ele>171.2</ele>
        <time>2020-07-25T07:38:54Z</time>
      </trkpt>
      <trkpt lat="48.74924" lon="8.25183">
        <ele>171.4</ele>
        <time>2020-07-25T07:39:01Z</time>
      </trkpt>
      <trkpt lat="48.74921" lon="8.25188">
        <ele>171.6</ele>
        <time>2020-07-25T07:39:02Z</time>
      </trkpt>
      <trkpt lat="48.74914" lon="8.25198">
        <ele>171.6</ele>
        <time>2020-07-25T07:39:04Z</time>
      </trkpt>
      <trkpt lat="48.74899" lon="8.25213">
        <ele>171.8</ele>
        <time>2020-07-25T07:39:08Z</time>
      </trkpt>
      <trkpt lat="48.74871" lon="8.25237">
        <ele>172.2</ele>
        <time>2020-07-25T07:39:15Z</time>
      </trkpt>
      <trkpt lat="48.74863" lon="8.25243">
        <ele>172.2</ele>
        <time>2020-07-25T07:39:17Z</time>
      </trkpt>
      <trkpt lat="48.74846" lon="8.25255">
        <ele>172.4</ele>
        <time>2020-07-25T07:39:21Z</time>
      </trkpt>
      <trkpt lat="48.74822" lon="8.25275">
        <ele>172.6</ele>
        <time>2020-07-25T07:39:27Z</time>
      </trkpt>
      <trkpt lat="48.74818" lon="8.2528">
        <ele>172.6</ele>
        <time>2020-07-25T07:39:28Z</time>
      </trkpt>
      <trkpt lat="48.7481" lon="8.25289">
        <ele>172.8</ele>
        <time>2020-07-25T07:39:30Z</time>
      </trkpt>
      <trkpt lat="48.74807" lon="8.25293">
        <ele>172.8</ele>
        <time>2020-07-25T07:39:31Z</time>
      </trkpt>
      <trkpt lat="48.74799" lon="8.25302">
        <ele>172.8</ele>
        <time>2020-07-25T07:39:33Z</time>
      </trkpt>
      <trkpt lat="48.74791" lon="8.25314">
        <ele>173</ele>
        <time>2020-07-25T07:39:35Z</time>
      </trkpt>
      <trkpt lat="48.74787" lon="8.25319">
        <ele>173</ele>
        <time>2020-07-25T07:39:36Z</time>
      </trkpt>
      <trkpt lat="48.7478" lon="8.25328">
        <ele>173</ele>
        <time>2020-07-25T07:39:38Z</time>
      </trkpt>
      <trkpt lat="48.74768" lon="8.25347">
        <ele>173.4</ele>
        <time>2020-07-25T07:39:42Z</time>
      </trkpt>
      <trkpt lat="48.74763" lon="8.25355">
        <ele>173.6</ele>
        <time>2020-07-25T07:39:44Z</time>
      </trkpt>
      <trkpt lat="48.74748" lon="8.25378">
        <ele>174.2</ele>
        <time>2020-07-25T07:39:49Z</time>
      </trkpt>
      <trkpt lat="48.74731" lon="8.25403">
        <ele>174.6</ele>
        <time>2020-07-25T07:39:54Z</time>
      </trkpt>
      <trkpt lat="48.74727" lon="8.25408">
        <ele>174.8</ele>
        <time>2020-07-25T07:39:55Z</time>
      </trkpt>
      <trkpt lat="48.74725" lon="8.25413">
        <ele>174.8</ele>
        <time>2020-07-25T07:39:56Z</time>
      </trkpt>
      <trkpt lat="48.74703" lon="8.25447">
        <ele>175.2</ele>
        <time>2020-07-25T07:40:03Z</time>
      </trkpt>
      <trkpt lat="48.7468" lon="8.25473">
        <ele>175.6</ele>
        <time>2020-07-25T07:40:09Z</time>
      </trkpt>
      <trkpt lat="48.74673" lon="8.2548">
        <ele>175.8</ele>
        <time>2020-07-25T07:40:11Z</time>
      </trkpt>
      <trkpt lat="48.7466" lon="8.25496">
        <ele>176</ele>
        <time>2020-07-25T07:40:15Z</time>
      </trkpt>
      <trkpt lat="48.74643" lon="8.25512">
        <ele>176.2</ele>
        <time>2020-07-25T07:40:20Z</time>
      </trkpt>
      <trkpt lat="48.74634" lon="8.25533">
        <ele>176.4</ele>
        <time>2020-07-25T07:40:25Z</time>
      </trkpt>
      <trkpt lat="48.74629" lon="8.25543">
        <ele>176.8</ele>
        <time>2020-07-25T07:40:27Z</time>
      </trkpt>
      <trkpt lat="48.74623" lon="8.25561">
        <ele>177.2</ele>
        <time>2020-07-25T07:40:32Z</time>
      </trkpt>
      <trkpt lat="48.74622" lon="8.25565">
        <ele>177.2</ele>
        <time>2020-07-25T07:40:34Z</time>
      </trkpt>
      <trkpt lat="48.74621" lon="8.25574">
        <ele>177.2</ele>
        <time>2020-07-25T07:40:37Z</time>
      </trkpt>
      <trkpt lat="48.74618" lon="8.25596">
        <ele>177.2</ele>
        <time>2020-07-25T07:40:42Z</time>
      </trkpt>
      <trkpt lat="48.74605" lon="8.2562">
        <ele>177.2</ele>
        <time>2020-07-25T07:40:48Z</time>
      </trkpt>
      <trkpt lat="48.74588" lon="8.25651">
        <ele>177.4</ele>
        <time>2020-07-25T07:40:55Z</time>
      </trkpt>
      <trkpt lat="48.74575" lon="8.25674">
        <ele>177.8</ele>
        <time>2020-07-25T07:41:00Z</time>
      </trkpt>
      <trkpt lat="48.74573" lon="8.25679">
        <ele>177.8</ele>
        <time>2020-07-25T07:41:01Z</time>
      </trkpt>
      <trkpt lat="48.74552" lon="8.25715">
        <ele>178</ele>
        <time>2020-07-25T07:41:09Z</time>
      </trkpt>
      <trkpt lat="48.74532" lon="8.25752">
        <ele>178.2</ele>
        <time>2020-07-25T07:41:17Z</time>
      </trkpt>
      <trkpt lat="48.74526" lon="8.25761">
        <ele>178.8</ele>
        <time>2020-07-25T07:41:19Z</time>
      </trkpt>
      <trkpt lat="48.74515" lon="8.25784">
        <ele>179.2</ele>
        <time>2020-07-25T07:41:24Z</time>
      </trkpt>
      <trkpt lat="48.74502" lon="8.25814">
        <ele>179.6</ele>
        <time>2020-07-25T07:41:30Z</time>
      </trkpt>
      <trkpt lat="48.74497" lon="8.25831">
        <ele>179.8</ele>
        <time>2020-07-25T07:41:33Z</time>
      </trkpt>
      <trkpt lat="48.74493" lon="8.25842">
        <ele>180</ele>
        <time>2020-07-25T07:41:35Z</time>
      </trkpt>
      <trkpt lat="48.74489" lon="8.25853">
        <ele>180</ele>
        <time>2020-07-25T07:41:37Z</time>
      </trkpt>
      <trkpt lat="48.74478" lon="8.25885">
        <ele>180.2</ele>
        <time>2020-07-25T07:41:43Z</time>
      </trkpt>
      <trkpt lat="48.74466" lon="8.25907">
        <ele>180.6</ele>
        <time>2020-07-25T07:41:48Z</time>
      </trkpt>
      <trkpt lat="48.74456" lon="8.25919">
        <ele>180.6</ele>
        <time>2020-07-25T07:41:51Z</time>
      </trkpt>
      <trkpt lat="48.74451" lon="8.25927">
        <ele>180.8</ele>
        <time>2020-07-25T07:41:53Z</time>
      </trkpt>
      <trkpt lat="48.74437" lon="8.25946">
        <ele>181.2</ele>
        <time>2020-07-25T07:41:58Z</time>
      </trkpt>
      <trkpt lat="48.74428" lon="8.25956">
        <ele>181.4</ele>
        <time>2020-07-25T07:42:01Z</time>
      </trkpt>
      <trkpt lat="48.74425" lon="8.25954">
        <ele>181.6</ele>
        <time>2020-07-25T07:42:02Z</time>
      </trkpt>
      <trkpt lat="48.74419" lon="8.25948">
        <ele>181.8</ele>
        <time>2020-07-25T07:42:04Z</time>
      </trkpt>
      <trkpt lat="48.7441" lon="8.25938">
        <ele>182.2</ele>
        <time>2020-07-25T07:42:07Z</time>
      </trkpt>
      <trkpt lat="48.74404" lon="8.25932">
        <ele>182.2</ele>
        <time>2020-07-25T07:42:09Z</time>
      </trkpt>
      <trkpt lat="48.74389" lon="8.25913">
        <ele>182.2</ele>
        <time>2020-07-25T07:42:14Z</time>
      </trkpt>
      <trkpt lat="48.74363" lon="8.25882">
        <ele>182.4</ele>
        <time>2020-07-25T07:42:21Z</time>
      </trkpt>
      <trkpt lat="48.74359" lon="8.25879">
        <ele>182.4</ele>
        <time>2020-07-25T07:42:22Z</time>
      </trkpt>
      <trkpt lat="48.74344" lon="8.25864">
        <ele>182.2</ele>
        <time>2020-07-25T07:42:26Z</time>
      </trkpt>
      <trkpt lat="48.7433" lon="8.25849">
        <ele>181.8</ele>
        <time>2020-07-25T07:42:30Z</time>
      </trkpt>
      <trkpt lat="48.74322" lon="8.25839">
        <ele>181.6</ele>
        <time>2020-07-25T07:42:33Z</time>
      </trkpt>
      <trkpt lat="48.7432" lon="8.25836">
        <ele>181.6</ele>
        <time>2020-07-25T07:42:36Z</time>
      </trkpt>
      <trkpt lat="48.7432" lon="8.25836">
        <ele>181.6</ele>
        <time>2020-07-25T07:42:37Z</time>
      </trkpt>
      <trkpt lat="48.74319" lon="8.25837">
        <ele>182.2</ele>
        <time>2020-07-25T07:43:05Z</time>
      </trkpt>
      <trkpt lat="48.74319" lon="8.25843">
        <ele>182.2</ele>
        <time>2020-07-25T07:43:07Z</time>
      </trkpt>
      <trkpt lat="48.7432" lon="8.25845">
        <ele>182.2</ele>
        <time>2020-07-25T07:43:08Z</time>
      </trkpt>
      <trkpt lat="48.74326" lon="8.25853">
        <ele>182.2</ele>
        <time>2020-07-25T07:43:11Z</time>
      </trkpt>
      <trkpt lat="48.74339" lon="8.25865">
        <ele>182</ele>
        <time>2020-07-25T07:43:16Z</time>
      </trkpt>
      <trkpt lat="48.7436" lon="8.25887">
        <ele>181.8</ele>
        <time>2020-07-25T07:43:23Z</time>
      </trkpt>
      <trkpt lat="48.74378" lon="8.25906">
        <ele>181.4</ele>
        <time>2020-07-25T07:43:29Z</time>
      </trkpt>
      <trkpt lat="48.744" lon="8.25937">
        <ele>181.4</ele>
        <time>2020-07-25T07:43:37Z</time>
      </trkpt>
      <trkpt lat="48.74402" lon="8.25945">
        <ele>181.6</ele>
        <time>2020-07-25T07:43:39Z</time>
      </trkpt>
      <trkpt lat="48.744" lon="8.25948">
        <ele>181.6</ele>
        <time>2020-07-25T07:43:40Z</time>
      </trkpt>
      <trkpt lat="48.74397" lon="8.25953">
        <ele>181.8</ele>
        <time>2020-07-25T07:43:42Z</time>
      </trkpt>
      <trkpt lat="48.74391" lon="8.25957">
        <ele>182</ele>
        <time>2020-07-25T07:43:46Z</time>
      </trkpt>
      <trkpt lat="48.7439" lon="8.25957">
        <ele>182.4</ele>
        <time>2020-07-25T07:43:48Z</time>
      </trkpt>
      <trkpt lat="48.74386" lon="8.25959">
        <ele>183</ele>
        <time>2020-07-25T07:44:10Z</time>
      </trkpt>
      <trkpt lat="48.74375" lon="8.25963">
        <ele>183</ele>
        <time>2020-07-25T07:44:14Z</time>
      </trkpt>
      <trkpt lat="48.74362" lon="8.25968">
        <ele>183</ele>
        <time>2020-07-25T07:44:19Z</time>
      </trkpt>
      <trkpt lat="48.7436" lon="8.2597">
        <ele>183</ele>
        <time>2020-07-25T07:44:20Z</time>
      </trkpt>
      <trkpt lat="48.74341" lon="8.25979">
        <ele>184.2</ele>
        <time>2020-07-25T07:44:27Z</time>
      </trkpt>
      <trkpt lat="48.74325" lon="8.25984">
        <ele>185.2</ele>
        <time>2020-07-25T07:44:33Z</time>
      </trkpt>
      <trkpt lat="48.74322" lon="8.25984">
        <ele>185.4</ele>
        <time>2020-07-25T07:44:34Z</time>
      </trkpt>
      <trkpt lat="48.74311" lon="8.25986">
        <ele>186.4</ele>
        <time>2020-07-25T07:44:38Z</time>
      </trkpt>
      <trkpt lat="48.74306" lon="8.25986">
        <ele>186.8</ele>
        <time>2020-07-25T07:44:40Z</time>
      </trkpt>
      <trkpt lat="48.74295" lon="8.25983">
        <ele>187.6</ele>
        <time>2020-07-25T07:44:45Z</time>
      </trkpt>
      <trkpt lat="48.74288" lon="8.2598">
        <ele>188.2</ele>
        <time>2020-07-25T07:44:48Z</time>
      </trkpt>
      <trkpt lat="48.74284" lon="8.25977">
        <ele>188.6</ele>
        <time>2020-07-25T07:44:50Z</time>
      </trkpt>
      <trkpt lat="48.74272" lon="8.25971">
        <ele>189.6</ele>
        <time>2020-07-25T07:44:55Z</time>
      </trkpt>
      <trkpt lat="48.74255" lon="8.25962">
        <ele>190.6</ele>
        <time>2020-07-25T07:45:02Z</time>
      </trkpt>
      <trkpt lat="48.74241" lon="8.25949">
        <ele>191.6</ele>
        <time>2020-07-25T07:45:09Z</time>
      </trkpt>
      <trkpt lat="48.74239" lon="8.25947">
        <ele>191.6</ele>
        <time>2020-07-25T07:45:10Z</time>
      </trkpt>
      <trkpt lat="48.74229" lon="8.25936">
        <ele>192.6</ele>
        <time>2020-07-25T07:45:15Z</time>
      </trkpt>
      <trkpt lat="48.74221" lon="8.25927">
        <ele>193.2</ele>
        <time>2020-07-25T07:45:19Z</time>
      </trkpt>
      <trkpt lat="48.74217" lon="8.25924">
        <ele>193.6</ele>
        <time>2020-07-25T07:45:21Z</time>
      </trkpt>
      <trkpt lat="48.74205" lon="8.25912">
        <ele>194.8</ele>
        <time>2020-07-25T07:45:27Z</time>
      </trkpt>
      <trkpt lat="48.74204" lon="8.25909">
        <ele>195</ele>
        <time>2020-07-25T07:45:28Z</time>
      </trkpt>
      <trkpt lat="48.74194" lon="8.25898">
        <ele>195.8</ele>
        <time>2020-07-25T07:45:33Z</time>
      </trkpt>
      <trkpt lat="48.74186" lon="8.2589">
        <ele>196.6</ele>
        <time>2020-07-25T07:45:37Z</time>
      </trkpt>
      <trkpt lat="48.74184" lon="8.25888">
        <ele>196.8</ele>
        <time>2020-07-25T07:45:38Z</time>
      </trkpt>
      <trkpt lat="48.74172" lon="8.25882">
        <ele>198</ele>
        <time>2020-07-25T07:45:44Z</time>
      </trkpt>
      <trkpt lat="48.74167" lon="8.25881">
        <ele>198.4</ele>
        <time>2020-07-25T07:45:46Z</time>
      </trkpt>
      <trkpt lat="48.74163" lon="8.2588">
        <ele>198.6</ele>
        <time>2020-07-25T07:45:48Z</time>
      </trkpt>
      <trkpt lat="48.74159" lon="8.25877">
        <ele>199</ele>
        <time>2020-07-25T07:45:50Z</time>
      </trkpt>
      <trkpt lat="48.74152" lon="8.25874">
        <ele>199.8</ele>
        <time>2020-07-25T07:45:53Z</time>
      </trkpt>
      <trkpt lat="48.74148" lon="8.25871">
        <ele>200.2</ele>
        <time>2020-07-25T07:45:55Z</time>
      </trkpt>
      <trkpt lat="48.74139" lon="8.25868">
        <ele>200.8</ele>
        <time>2020-07-25T07:45:59Z</time>
      </trkpt>
      <trkpt lat="48.74132" lon="8.25866">
        <ele>201.2</ele>
        <time>2020-07-25T07:46:02Z</time>
      </trkpt>
      <trkpt lat="48.74121" lon="8.25862">
        <ele>202.2</ele>
        <time>2020-07-25T07:46:07Z</time>
      </trkpt>
      <trkpt lat="48.74118" lon="8.2586">
        <ele>202.2</ele>
        <time>2020-07-25T07:46:08Z</time>
      </trkpt>
      <trkpt lat="48.74104" lon="8.25855">
        <ele>203</ele>
        <time>2020-07-25T07:46:14Z</time>
      </trkpt>
      <trkpt lat="48.741" lon="8.25853">
        <ele>203.6</ele>
        <time>2020-07-25T07:46:16Z</time>
      </trkpt>
      <trkpt lat="48.7409" lon="8.25854">
        <ele>204.2</ele>
        <time>2020-07-25T07:46:20Z</time>
      </trkpt>
      <trkpt lat="48.74088" lon="8.25854">
        <ele>204.4</ele>
        <time>2020-07-25T07:46:21Z</time>
      </trkpt>
      <trkpt lat="48.74078" lon="8.25861">
        <ele>205.4</ele>
        <time>2020-07-25T07:46:26Z</time>
      </trkpt>
      <trkpt lat="48.74072" lon="8.25878">
        <ele>206.4</ele>
        <time>2020-07-25T07:46:31Z</time>
      </trkpt>
      <trkpt lat="48.7407" lon="8.25885">
        <ele>206.8</ele>
        <time>2020-07-25T07:46:33Z</time>
      </trkpt>
      <trkpt lat="48.74066" lon="8.25898">
        <ele>207.6</ele>
        <time>2020-07-25T07:46:37Z</time>
      </trkpt>
      <trkpt lat="48.74063" lon="8.25907">
        <ele>208.2</ele>
        <time>2020-07-25T07:46:40Z</time>
      </trkpt>
      <trkpt lat="48.74061" lon="8.25911">
        <ele>208.6</ele>
        <time>2020-07-25T07:46:42Z</time>
      </trkpt>
      <trkpt lat="48.74058" lon="8.25916">
        <ele>209.2</ele>
        <time>2020-07-25T07:46:45Z</time>
      </trkpt>
      <trkpt lat="48.74057" lon="8.25917">
        <ele>209.8</ele>
        <time>2020-07-25T07:46:48Z</time>
      </trkpt>
      <trkpt lat="48.74053" lon="8.25922">
        <ele>210.8</ele>
        <time>2020-07-25T07:47:30Z</time>
      </trkpt>
      <trkpt lat="48.74042" lon="8.25939">
        <ele>210.8</ele>
        <time>2020-07-25T07:47:36Z</time>
      </trkpt>
      <trkpt lat="48.74037" lon="8.25949">
        <ele>211</ele>
        <time>2020-07-25T07:47:39Z</time>
      </trkpt>
      <trkpt lat="48.74036" lon="8.25961">
        <ele>211.8</ele>
        <time>2020-07-25T07:47:42Z</time>
      </trkpt>
      <trkpt lat="48.74036" lon="8.2597">
        <ele>212.2</ele>
        <time>2020-07-25T07:47:44Z</time>
      </trkpt>
      <trkpt lat="48.74036" lon="8.25989">
        <ele>213</ele>
        <time>2020-07-25T07:47:49Z</time>
      </trkpt>
      <trkpt lat="48.74036" lon="8.25996">
        <ele>213.2</ele>
        <time>2020-07-25T07:47:51Z</time>
      </trkpt>
      <trkpt lat="48.74038" lon="8.26017">
        <ele>214.4</ele>
        <time>2020-07-25T07:47:57Z</time>
      </trkpt>
      <trkpt lat="48.7404" lon="8.26039">
        <ele>215.2</ele>
        <time>2020-07-25T07:48:03Z</time>
      </trkpt>
      <trkpt lat="48.7404" lon="8.26043">
        <ele>215.4</ele>
        <time>2020-07-25T07:48:04Z</time>
      </trkpt>
      <trkpt lat="48.74042" lon="8.26062">
        <ele>216.4</ele>
        <time>2020-07-25T07:48:09Z</time>
      </trkpt>
      <trkpt lat="48.74042" lon="8.26066">
        <ele>216.4</ele>
        <time>2020-07-25T07:48:10Z</time>
      </trkpt>
      <trkpt lat="48.74041" lon="8.26089">
        <ele>217.4</ele>
        <time>2020-07-25T07:48:16Z</time>
      </trkpt>
      <trkpt lat="48.7404" lon="8.26092">
        <ele>217.6</ele>
        <time>2020-07-25T07:48:17Z</time>
      </trkpt>
      <trkpt lat="48.74027" lon="8.26109">
        <ele>218.6</ele>
        <time>2020-07-25T07:48:24Z</time>
      </trkpt>
      <trkpt lat="48.74016" lon="8.26115">
        <ele>219.6</ele>
        <time>2020-07-25T07:48:29Z</time>
      </trkpt>
      <trkpt lat="48.74009" lon="8.26119">
        <ele>220.2</ele>
        <time>2020-07-25T07:48:32Z</time>
      </trkpt>
      <trkpt lat="48.74005" lon="8.26123">
        <ele>220.8</ele>
        <time>2020-07-25T07:48:34Z</time>
      </trkpt>
      <trkpt lat="48.74001" lon="8.26133">
        <ele>221.6</ele>
        <time>2020-07-25T07:48:37Z</time>
      </trkpt>
      <trkpt lat="48.73998" lon="8.2614">
        <ele>222</ele>
        <time>2020-07-25T07:48:39Z</time>
      </trkpt>
      <trkpt lat="48.73995" lon="8.26162">
        <ele>222.8</ele>
        <time>2020-07-25T07:48:45Z</time>
      </trkpt>
      <trkpt lat="48.73994" lon="8.2617">
        <ele>223</ele>
        <time>2020-07-25T07:48:47Z</time>
      </trkpt>
      <trkpt lat="48.7399" lon="8.26196">
        <ele>224</ele>
        <time>2020-07-25T07:48:54Z</time>
      </trkpt>
      <trkpt lat="48.7399" lon="8.262">
        <ele>224.2</ele>
        <time>2020-07-25T07:48:55Z</time>
      </trkpt>
      <trkpt lat="48.7399" lon="8.26222">
        <ele>225.2</ele>
        <time>2020-07-25T07:49:01Z</time>
      </trkpt>
      <trkpt lat="48.73991" lon="8.26226">
        <ele>225.4</ele>
        <time>2020-07-25T07:49:02Z</time>
      </trkpt>
      <trkpt lat="48.73993" lon="8.26249">
        <ele>226.8</ele>
        <time>2020-07-25T07:49:08Z</time>
      </trkpt>
      <trkpt lat="48.73996" lon="8.2627">
        <ele>227.8</ele>
        <time>2020-07-25T07:49:14Z</time>
      </trkpt>
      <trkpt lat="48.73998" lon="8.26281">
        <ele>228.2</ele>
        <time>2020-07-25T07:49:17Z</time>
      </trkpt>
      <trkpt lat="48.73998" lon="8.26296">
        <ele>229</ele>
        <time>2020-07-25T07:49:21Z</time>
      </trkpt>
      <trkpt lat="48.73997" lon="8.26303">
        <ele>229.4</ele>
        <time>2020-07-25T07:49:23Z</time>
      </trkpt>
      <trkpt lat="48.73994" lon="8.26313">
        <ele>230</ele>
        <time>2020-07-25T07:49:26Z</time>
      </trkpt>
      <trkpt lat="48.73987" lon="8.26326">
        <ele>230.8</ele>
        <time>2020-07-25T07:49:30Z</time>
      </trkpt>
      <trkpt lat="48.73984" lon="8.2633">
        <ele>231</ele>
        <time>2020-07-25T07:49:32Z</time>
      </trkpt>
      <trkpt lat="48.73981" lon="8.26335">
        <ele>231.2</ele>
        <time>2020-07-25T07:49:34Z</time>
      </trkpt>
      <trkpt lat="48.73974" lon="8.26344">
        <ele>232</ele>
        <time>2020-07-25T07:49:38Z</time>
      </trkpt>
      <trkpt lat="48.73972" lon="8.26347">
        <ele>232.4</ele>
        <time>2020-07-25T07:49:39Z</time>
      </trkpt>
      <trkpt lat="48.73967" lon="8.26364">
        <ele>233.6</ele>
        <time>2020-07-25T07:49:44Z</time>
      </trkpt>
      <trkpt lat="48.73967" lon="8.26371">
        <ele>234</ele>
        <time>2020-07-25T07:49:46Z</time>
      </trkpt>
      <trkpt lat="48.7397" lon="8.26388">
        <ele>234.6</ele>
        <time>2020-07-25T07:49:51Z</time>
      </trkpt>
      <trkpt lat="48.73971" lon="8.26395">
        <ele>235</ele>
        <time>2020-07-25T07:49:53Z</time>
      </trkpt>
      <trkpt lat="48.73975" lon="8.26412">
        <ele>236</ele>
        <time>2020-07-25T07:49:58Z</time>
      </trkpt>
      <trkpt lat="48.73979" lon="8.26429">
        <ele>237</ele>
        <time>2020-07-25T07:50:03Z</time>
      </trkpt>
      <trkpt lat="48.7398" lon="8.26432">
        <ele>237.2</ele>
        <time>2020-07-25T07:50:04Z</time>
      </trkpt>
      <trkpt lat="48.73983" lon="8.2645">
        <ele>238.2</ele>
        <time>2020-07-25T07:50:09Z</time>
      </trkpt>
      <trkpt lat="48.73983" lon="8.26461">
        <ele>238.6</ele>
        <time>2020-07-25T07:50:12Z</time>
      </trkpt>
      <trkpt lat="48.73978" lon="8.26477">
        <ele>239.2</ele>
        <time>2020-07-25T07:50:17Z</time>
      </trkpt>
      <trkpt lat="48.73975" lon="8.26482">
        <ele>239.4</ele>
        <time>2020-07-25T07:50:19Z</time>
      </trkpt>
      <trkpt lat="48.73965" lon="8.26493">
        <ele>240.2</ele>
        <time>2020-07-25T07:50:25Z</time>
      </trkpt>
      <trkpt lat="48.73963" lon="8.26495">
        <ele>240.4</ele>
        <time>2020-07-25T07:50:26Z</time>
      </trkpt>
      <trkpt lat="48.73955" lon="8.2651">
        <ele>241.4</ele>
        <time>2020-07-25T07:50:32Z</time>
      </trkpt>
      <trkpt lat="48.73954" lon="8.26512">
        <ele>241.4</ele>
        <time>2020-07-25T07:50:33Z</time>
      </trkpt>
      <trkpt lat="48.73948" lon="8.2653">
        <ele>242.4</ele>
        <time>2020-07-25T07:50:38Z</time>
      </trkpt>
      <trkpt lat="48.73947" lon="8.26533">
        <ele>242.4</ele>
        <time>2020-07-25T07:50:39Z</time>
      </trkpt>
      <trkpt lat="48.73944" lon="8.26547">
        <ele>243.4</ele>
        <time>2020-07-25T07:50:43Z</time>
      </trkpt>
      <trkpt lat="48.73943" lon="8.26561">
        <ele>244.4</ele>
        <time>2020-07-25T07:50:47Z</time>
      </trkpt>
      <trkpt lat="48.73942" lon="8.26566">
        <ele>244.6</ele>
        <time>2020-07-25T07:50:48Z</time>
      </trkpt>
      <trkpt lat="48.73941" lon="8.26592">
        <ele>245.8</ele>
        <time>2020-07-25T07:50:55Z</time>
      </trkpt>
      <trkpt lat="48.7394" lon="8.26603">
        <ele>246.8</ele>
        <time>2020-07-25T07:50:58Z</time>
      </trkpt>
      <trkpt lat="48.7394" lon="8.26618">
        <ele>247.6</ele>
        <time>2020-07-25T07:51:02Z</time>
      </trkpt>
      <trkpt lat="48.7394" lon="8.26625">
        <ele>248</ele>
        <time>2020-07-25T07:51:04Z</time>
      </trkpt>
      <trkpt lat="48.7394" lon="8.26647">
        <ele>248.8</ele>
        <time>2020-07-25T07:51:10Z</time>
      </trkpt>
      <trkpt lat="48.7394" lon="8.26651">
        <ele>249</ele>
        <time>2020-07-25T07:51:11Z</time>
      </trkpt>
      <trkpt lat="48.73939" lon="8.26672">
        <ele>250</ele>
        <time>2020-07-25T07:51:17Z</time>
      </trkpt>
      <trkpt lat="48.73939" lon="8.26676">
        <ele>250</ele>
        <time>2020-07-25T07:51:18Z</time>
      </trkpt>
      <trkpt lat="48.73938" lon="8.26701">
        <ele>250.6</ele>
        <time>2020-07-25T07:51:25Z</time>
      </trkpt>
      <trkpt lat="48.73938" lon="8.26713">
        <ele>251</ele>
        <time>2020-07-25T07:51:28Z</time>
      </trkpt>
      <trkpt lat="48.73938" lon="8.26716">
        <ele>251</ele>
        <time>2020-07-25T07:51:29Z</time>
      </trkpt>
      <trkpt lat="48.73938" lon="8.26731">
        <ele>251.8</ele>
        <time>2020-07-25T07:51:33Z</time>
      </trkpt>
      <trkpt lat="48.73937" lon="8.26735">
        <ele>252</ele>
        <time>2020-07-25T07:51:34Z</time>
      </trkpt>
      <trkpt lat="48.73937" lon="8.26755">
        <ele>253.2</ele>
        <time>2020-07-25T07:51:40Z</time>
      </trkpt>
      <trkpt lat="48.73937" lon="8.26759">
        <ele>253.2</ele>
        <time>2020-07-25T07:51:41Z</time>
      </trkpt>
      <trkpt lat="48.73936" lon="8.26776">
        <ele>254.2</ele>
        <time>2020-07-25T07:51:46Z</time>
      </trkpt>
      <trkpt lat="48.73935" lon="8.26791">
        <ele>254.8</ele>
        <time>2020-07-25T07:51:50Z</time>
      </trkpt>
      <trkpt lat="48.73934" lon="8.26802">
        <ele>255.4</ele>
        <time>2020-07-25T07:51:53Z</time>
      </trkpt>
      <trkpt lat="48.73931" lon="8.26815">
        <ele>256</ele>
        <time>2020-07-25T07:51:57Z</time>
      </trkpt>
      <trkpt lat="48.73927" lon="8.26825">
        <ele>256.4</ele>
        <time>2020-07-25T07:52:00Z</time>
      </trkpt>
      <trkpt lat="48.73922" lon="8.26833">
        <ele>257.2</ele>
        <time>2020-07-25T07:52:03Z</time>
      </trkpt>
      <trkpt lat="48.73919" lon="8.26838">
        <ele>257.4</ele>
        <time>2020-07-25T07:52:05Z</time>
      </trkpt>
      <trkpt lat="48.73907" lon="8.26844">
        <ele>258.2</ele>
        <time>2020-07-25T07:52:10Z</time>
      </trkpt>
      <trkpt lat="48.73904" lon="8.26845">
        <ele>258.4</ele>
        <time>2020-07-25T07:52:11Z</time>
      </trkpt>
      <trkpt lat="48.73886" lon="8.26846">
        <ele>259.2</ele>
        <time>2020-07-25T07:52:18Z</time>
      </trkpt>
      <trkpt lat="48.73881" lon="8.26846">
        <ele>259.4</ele>
        <time>2020-07-25T07:52:20Z</time>
      </trkpt>
      <trkpt lat="48.73866" lon="8.26849">
        <ele>260.2</ele>
        <time>2020-07-25T07:52:26Z</time>
      </trkpt>
      <trkpt lat="48.73855" lon="8.26854">
        <ele>260.6</ele>
        <time>2020-07-25T07:52:31Z</time>
      </trkpt>
      <trkpt lat="48.73849" lon="8.26856">
        <ele>261</ele>
        <time>2020-07-25T07:52:34Z</time>
      </trkpt>
      <trkpt lat="48.73841" lon="8.26859">
        <ele>261.8</ele>
        <time>2020-07-25T07:52:38Z</time>
      </trkpt>
      <trkpt lat="48.73832" lon="8.2686">
        <ele>262.2</ele>
        <time>2020-07-25T07:52:41Z</time>
      </trkpt>
      <trkpt lat="48.73823" lon="8.26861">
        <ele>262.8</ele>
        <time>2020-07-25T07:52:45Z</time>
      </trkpt>
      <trkpt lat="48.73815" lon="8.2686">
        <ele>263.4</ele>
        <time>2020-07-25T07:52:48Z</time>
      </trkpt>
      <trkpt lat="48.73796" lon="8.26851">
        <ele>263.8</ele>
        <time>2020-07-25T07:52:55Z</time>
      </trkpt>
      <trkpt lat="48.7379" lon="8.26847">
        <ele>264</ele>
        <time>2020-07-25T07:52:57Z</time>
      </trkpt>
      <trkpt lat="48.73766" lon="8.26836">
        <ele>264</ele>
        <time>2020-07-25T07:53:06Z</time>
      </trkpt>
      <trkpt lat="48.73737" lon="8.26826">
        <ele>264</ele>
        <time>2020-07-25T07:53:16Z</time>
      </trkpt>
      <trkpt lat="48.73712" lon="8.26821">
        <ele>264.2</ele>
        <time>2020-07-25T07:53:25Z</time>
      </trkpt>
      <trkpt lat="48.73698" lon="8.2682">
        <ele>265</ele>
        <time>2020-07-25T07:53:30Z</time>
      </trkpt>
      <trkpt lat="48.73687" lon="8.26823">
        <ele>266</ele>
        <time>2020-07-25T07:53:34Z</time>
      </trkpt>
      <trkpt lat="48.73683" lon="8.26825">
        <ele>266</ele>
        <time>2020-07-25T07:53:35Z</time>
      </trkpt>
      <trkpt lat="48.73669" lon="8.26836">
        <ele>266.6</ele>
        <time>2020-07-25T07:53:40Z</time>
      </trkpt>
      <trkpt lat="48.73656" lon="8.26854">
        <ele>266.8</ele>
        <time>2020-07-25T07:53:46Z</time>
      </trkpt>
      <trkpt lat="48.73647" lon="8.26882">
        <ele>266.8</ele>
        <time>2020-07-25T07:53:53Z</time>
      </trkpt>
      <trkpt lat="48.73638" lon="8.26916">
        <ele>267</ele>
        <time>2020-07-25T07:54:01Z</time>
      </trkpt>
      <trkpt lat="48.73628" lon="8.26931">
        <ele>267.4</ele>
        <time>2020-07-25T07:54:06Z</time>
      </trkpt>
      <trkpt lat="48.73614" lon="8.26946">
        <ele>268</ele>
        <time>2020-07-25T07:54:12Z</time>
      </trkpt>
      <trkpt lat="48.7361" lon="8.26951">
        <ele>268.2</ele>
        <time>2020-07-25T07:54:14Z</time>
      </trkpt>
      <trkpt lat="48.73592" lon="8.26968">
        <ele>269</ele>
        <time>2020-07-25T07:54:22Z</time>
      </trkpt>
      <trkpt lat="48.7359" lon="8.2697">
        <ele>269.2</ele>
        <time>2020-07-25T07:54:23Z</time>
      </trkpt>
      <trkpt lat="48.73577" lon="8.26974">
        <ele>270</ele>
        <time>2020-07-25T07:54:29Z</time>
      </trkpt>
      <trkpt lat="48.73573" lon="8.26975">
        <ele>270.2</ele>
        <time>2020-07-25T07:54:31Z</time>
      </trkpt>
      <trkpt lat="48.73564" lon="8.26975">
        <ele>271.4</ele>
        <time>2020-07-25T07:54:35Z</time>
      </trkpt>
      <trkpt lat="48.7356" lon="8.26975">
        <ele>271.8</ele>
        <time>2020-07-25T07:54:37Z</time>
      </trkpt>
      <trkpt lat="48.73552" lon="8.26974">
        <ele>272.2</ele>
        <time>2020-07-25T07:54:41Z</time>
      </trkpt>
      <trkpt lat="48.73545" lon="8.26975">
        <ele>273.4</ele>
        <time>2020-07-25T07:54:45Z</time>
      </trkpt>
      <trkpt lat="48.73537" lon="8.26975">
        <ele>274.4</ele>
        <time>2020-07-25T07:54:49Z</time>
      </trkpt>
      <trkpt lat="48.73534" lon="8.26975">
        <ele>275</ele>
        <time>2020-07-25T07:54:51Z</time>
      </trkpt>
      <trkpt lat="48.7353" lon="8.26974">
        <ele>275.6</ele>
        <time>2020-07-25T07:54:53Z</time>
      </trkpt>
      <trkpt lat="48.73525" lon="8.26971">
        <ele>276.6</ele>
        <time>2020-07-25T07:54:56Z</time>
      </trkpt>
      <trkpt lat="48.73518" lon="8.26969">
        <ele>277.8</ele>
        <time>2020-07-25T07:55:00Z</time>
      </trkpt>
      <trkpt lat="48.73511" lon="8.26966">
        <ele>279</ele>
        <time>2020-07-25T07:55:04Z</time>
      </trkpt>
      <trkpt lat="48.73507" lon="8.26962">
        <ele>280</ele>
        <time>2020-07-25T07:55:07Z</time>
      </trkpt>
      <trkpt lat="48.73505" lon="8.2696">
        <ele>280.2</ele>
        <time>2020-07-25T07:55:08Z</time>
      </trkpt>
      <trkpt lat="48.73498" lon="8.26953">
        <ele>281</ele>
        <time>2020-07-25T07:55:12Z</time>
      </trkpt>
      <trkpt lat="48.73494" lon="8.26947">
        <ele>281.8</ele>
        <time>2020-07-25T07:55:15Z</time>
      </trkpt>
      <trkpt lat="48.73492" lon="8.26945">
        <ele>282</ele>
        <time>2020-07-25T07:55:16Z</time>
      </trkpt>
      <trkpt lat="48.73487" lon="8.26934">
        <ele>283</ele>
        <time>2020-07-25T07:55:20Z</time>
      </trkpt>
      <trkpt lat="48.73483" lon="8.2693">
        <ele>283.6</ele>
        <time>2020-07-25T07:55:22Z</time>
      </trkpt>
      <trkpt lat="48.73481" lon="8.26926">
        <ele>284</ele>
        <time>2020-07-25T07:55:24Z</time>
      </trkpt>
      <trkpt lat="48.73475" lon="8.2692">
        <ele>285</ele>
        <time>2020-07-25T07:55:28Z</time>
      </trkpt>
      <trkpt lat="48.73469" lon="8.26912">
        <ele>286</ele>
        <time>2020-07-25T07:55:32Z</time>
      </trkpt>
      <trkpt lat="48.73462" lon="8.26909">
        <ele>287</ele>
        <time>2020-07-25T07:55:36Z</time>
      </trkpt>
      <trkpt lat="48.7346" lon="8.26909">
        <ele>287.2</ele>
        <time>2020-07-25T07:55:37Z</time>
      </trkpt>
      <trkpt lat="48.73455" lon="8.26906">
        <ele>288</ele>
        <time>2020-07-25T07:55:40Z</time>
      </trkpt>
      <trkpt lat="48.73453" lon="8.26905">
        <ele>288.2</ele>
        <time>2020-07-25T07:55:41Z</time>
      </trkpt>
      <trkpt lat="48.7345" lon="8.26904">
        <ele>288.4</ele>
        <time>2020-07-25T07:55:42Z</time>
      </trkpt>
      <trkpt lat="48.73437" lon="8.26899">
        <ele>289.4</ele>
        <time>2020-07-25T07:55:49Z</time>
      </trkpt>
      <trkpt lat="48.73433" lon="8.26898">
        <ele>290</ele>
        <time>2020-07-25T07:55:52Z</time>
      </trkpt>
      <trkpt lat="48.73427" lon="8.26899">
        <ele>290.6</ele>
        <time>2020-07-25T07:55:56Z</time>
      </trkpt>
      <trkpt lat="48.73426" lon="8.26899">
        <ele>290.6</ele>
        <time>2020-07-25T07:55:57Z</time>
      </trkpt>
      <trkpt lat="48.73425" lon="8.26898">
        <ele>290.8</ele>
        <time>2020-07-25T07:55:58Z</time>
      </trkpt>
      <trkpt lat="48.73425" lon="8.26898">
        <ele>291.2</ele>
        <time>2020-07-25T07:56:01Z</time>
      </trkpt>
      <trkpt lat="48.73419" lon="8.26902">
        <ele>291.8</ele>
        <time>2020-07-25T07:56:39Z</time>
      </trkpt>
      <trkpt lat="48.73416" lon="8.26903">
        <ele>291.8</ele>
        <time>2020-07-25T07:56:40Z</time>
      </trkpt>
      <trkpt lat="48.73407" lon="8.26902">
        <ele>292</ele>
        <time>2020-07-25T07:56:45Z</time>
      </trkpt>
      <trkpt lat="48.73396" lon="8.26906">
        <ele>292.4</ele>
        <time>2020-07-25T07:56:51Z</time>
      </trkpt>
      <trkpt lat="48.73381" lon="8.2691">
        <ele>292.8</ele>
        <time>2020-07-25T07:56:57Z</time>
      </trkpt>
      <trkpt lat="48.73379" lon="8.2691">
        <ele>293</ele>
        <time>2020-07-25T07:56:58Z</time>
      </trkpt>
      <trkpt lat="48.73376" lon="8.26911">
        <ele>293</ele>
        <time>2020-07-25T07:57:00Z</time>
      </trkpt>
      <trkpt lat="48.7337" lon="8.26913">
        <ele>293.4</ele>
        <time>2020-07-25T07:57:03Z</time>
      </trkpt>
      <trkpt lat="48.73364" lon="8.26915">
        <ele>294</ele>
        <time>2020-07-25T07:57:06Z</time>
      </trkpt>
      <trkpt lat="48.73356" lon="8.26919">
        <ele>294.6</ele>
        <time>2020-07-25T07:57:10Z</time>
      </trkpt>
      <trkpt lat="48.73349" lon="8.26922">
        <ele>295</ele>
        <time>2020-07-25T07:57:13Z</time>
      </trkpt>
      <trkpt lat="48.73334" lon="8.26928">
        <ele>296.2</ele>
        <time>2020-07-25T07:57:19Z</time>
      </trkpt>
      <trkpt lat="48.7332" lon="8.26934">
        <ele>297.4</ele>
        <time>2020-07-25T07:57:26Z</time>
      </trkpt>
      <trkpt lat="48.73318" lon="8.26935">
        <ele>297.4</ele>
        <time>2020-07-25T07:57:27Z</time>
      </trkpt>
      <trkpt lat="48.73308" lon="8.26941">
        <ele>298.4</ele>
        <time>2020-07-25T07:57:32Z</time>
      </trkpt>
      <trkpt lat="48.73303" lon="8.26943">
        <ele>298.6</ele>
        <time>2020-07-25T07:57:34Z</time>
      </trkpt>
      <trkpt lat="48.73295" lon="8.26948">
        <ele>299.6</ele>
        <time>2020-07-25T07:57:38Z</time>
      </trkpt>
      <trkpt lat="48.73291" lon="8.2695">
        <ele>300</ele>
        <time>2020-07-25T07:57:40Z</time>
      </trkpt>
      <trkpt lat="48.73285" lon="8.26952">
        <ele>300.6</ele>
        <time>2020-07-25T07:57:43Z</time>
      </trkpt>
      <trkpt lat="48.73274" lon="8.26958">
        <ele>301.6</ele>
        <time>2020-07-25T07:57:48Z</time>
      </trkpt>
      <trkpt lat="48.73257" lon="8.26965">
        <ele>302.8</ele>
        <time>2020-07-25T07:57:55Z</time>
      </trkpt>
      <trkpt lat="48.73255" lon="8.26966">
        <ele>302.8</ele>
        <time>2020-07-25T07:57:56Z</time>
      </trkpt>
      <trkpt lat="48.73249" lon="8.26967">
        <ele>303.2</ele>
        <time>2020-07-25T07:57:58Z</time>
      </trkpt>
      <trkpt lat="48.73239" lon="8.26974">
        <ele>303.8</ele>
        <time>2020-07-25T07:58:02Z</time>
      </trkpt>
      <trkpt lat="48.73228" lon="8.26977">
        <ele>304.4</ele>
        <time>2020-07-25T07:58:06Z</time>
      </trkpt>
      <trkpt lat="48.73217" lon="8.26979">
        <ele>304.8</ele>
        <time>2020-07-25T07:58:10Z</time>
      </trkpt>
      <trkpt lat="48.73208" lon="8.26979">
        <ele>305.2</ele>
        <time>2020-07-25T07:58:13Z</time>
      </trkpt>
      <trkpt lat="48.73181" lon="8.26974">
        <ele>305.8</ele>
        <time>2020-07-25T07:58:21Z</time>
      </trkpt>
      <trkpt lat="48.73156" lon="8.26978">
        <ele>306.4</ele>
        <time>2020-07-25T07:58:28Z</time>
      </trkpt>
      <trkpt lat="48.7314" lon="8.26991">
        <ele>306.8</ele>
        <time>2020-07-25T07:58:34Z</time>
      </trkpt>
      <trkpt lat="48.73137" lon="8.26993">
        <ele>306.8</ele>
        <time>2020-07-25T07:58:35Z</time>
      </trkpt>
      <trkpt lat="48.73122" lon="8.27009">
        <ele>307.2</ele>
        <time>2020-07-25T07:58:40Z</time>
      </trkpt>
      <trkpt lat="48.731" lon="8.27047">
        <ele>307.6</ele>
        <time>2020-07-25T07:58:48Z</time>
      </trkpt>
      <trkpt lat="48.73099" lon="8.27052">
        <ele>307.8</ele>
        <time>2020-07-25T07:58:49Z</time>
      </trkpt>
      <trkpt lat="48.73095" lon="8.27071">
        <ele>308</ele>
        <time>2020-07-25T07:58:52Z</time>
      </trkpt>
      <trkpt lat="48.7309" lon="8.2709">
        <ele>308</ele>
        <time>2020-07-25T07:58:55Z</time>
      </trkpt>
      <trkpt lat="48.73086" lon="8.27117">
        <ele>308.4</ele>
        <time>2020-07-25T07:58:59Z</time>
      </trkpt>
      <trkpt lat="48.73081" lon="8.27154">
        <ele>308.8</ele>
        <time>2020-07-25T07:59:05Z</time>
      </trkpt>
      <trkpt lat="48.73079" lon="8.27198">
        <ele>309.6</ele>
        <time>2020-07-25T07:59:13Z</time>
      </trkpt>
      <trkpt lat="48.73078" lon="8.27212">
        <ele>309.8</ele>
        <time>2020-07-25T07:59:16Z</time>
      </trkpt>
      <trkpt lat="48.73074" lon="8.27233">
        <ele>310.4</ele>
        <time>2020-07-25T07:59:20Z</time>
      </trkpt>
      <trkpt lat="48.73063" lon="8.27269">
        <ele>311</ele>
        <time>2020-07-25T07:59:27Z</time>
      </trkpt>
      <trkpt lat="48.73062" lon="8.27273">
        <ele>311</ele>
        <time>2020-07-25T07:59:28Z</time>
      </trkpt>
      <trkpt lat="48.73053" lon="8.27294">
        <ele>311.4</ele>
        <time>2020-07-25T07:59:33Z</time>
      </trkpt>
      <trkpt lat="48.73038" lon="8.27316">
        <ele>311.6</ele>
        <time>2020-07-25T07:59:40Z</time>
      </trkpt>
      <trkpt lat="48.73027" lon="8.27328">
        <ele>312</ele>
        <time>2020-07-25T07:59:45Z</time>
      </trkpt>
      <trkpt lat="48.7302" lon="8.27334">
        <ele>312.4</ele>
        <time>2020-07-25T07:59:48Z</time>
      </trkpt>
      <trkpt lat="48.7301" lon="8.27344">
        <ele>313.2</ele>
        <time>2020-07-25T07:59:53Z</time>
      </trkpt>
      <trkpt lat="48.73007" lon="8.27347">
        <ele>313.4</ele>
        <time>2020-07-25T07:59:54Z</time>
      </trkpt>
      <trkpt lat="48.73001" lon="8.27357">
        <ele>314.2</ele>
        <time>2020-07-25T07:59:58Z</time>
      </trkpt>
      <trkpt lat="48.72998" lon="8.27361">
        <ele>314.8</ele>
        <time>2020-07-25T08:00:00Z</time>
      </trkpt>
      <trkpt lat="48.72994" lon="8.27365">
        <ele>315.2</ele>
        <time>2020-07-25T08:00:02Z</time>
      </trkpt>
      <trkpt lat="48.72982" lon="8.27377">
        <ele>316.4</ele>
        <time>2020-07-25T08:00:08Z</time>
      </trkpt>
      <trkpt lat="48.72974" lon="8.27385">
        <ele>317.6</ele>
        <time>2020-07-25T08:00:13Z</time>
      </trkpt>
      <trkpt lat="48.72972" lon="8.27387">
        <ele>317.8</ele>
        <time>2020-07-25T08:00:14Z</time>
      </trkpt>
      <trkpt lat="48.72967" lon="8.27392">
        <ele>318.6</ele>
        <time>2020-07-25T08:00:17Z</time>
      </trkpt>
      <trkpt lat="48.72962" lon="8.27395">
        <ele>319.4</ele>
        <time>2020-07-25T08:00:20Z</time>
      </trkpt>
      <trkpt lat="48.7296" lon="8.27396">
        <ele>319.6</ele>
        <time>2020-07-25T08:00:21Z</time>
      </trkpt>
      <trkpt lat="48.72955" lon="8.27401">
        <ele>320.4</ele>
        <time>2020-07-25T08:00:24Z</time>
      </trkpt>
      <trkpt lat="48.72951" lon="8.27404">
        <ele>320.8</ele>
        <time>2020-07-25T08:00:26Z</time>
      </trkpt>
      <trkpt lat="48.72944" lon="8.2741">
        <ele>321.6</ele>
        <time>2020-07-25T08:00:31Z</time>
      </trkpt>
      <trkpt lat="48.7294" lon="8.27414">
        <ele>322.2</ele>
        <time>2020-07-25T08:00:33Z</time>
      </trkpt>
      <trkpt lat="48.72934" lon="8.27418">
        <ele>322.8</ele>
        <time>2020-07-25T08:00:36Z</time>
      </trkpt>
      <trkpt lat="48.72923" lon="8.27427">
        <ele>324</ele>
        <time>2020-07-25T08:00:42Z</time>
      </trkpt>
      <trkpt lat="48.72915" lon="8.27434">
        <ele>325</ele>
        <time>2020-07-25T08:00:47Z</time>
      </trkpt>
      <trkpt lat="48.72913" lon="8.27435">
        <ele>325.4</ele>
        <time>2020-07-25T08:00:48Z</time>
      </trkpt>
      <trkpt lat="48.72905" lon="8.27439">
        <ele>326.2</ele>
        <time>2020-07-25T08:00:52Z</time>
      </trkpt>
      <trkpt lat="48.72899" lon="8.27441">
        <ele>327</ele>
        <time>2020-07-25T08:00:55Z</time>
      </trkpt>
      <trkpt lat="48.72895" lon="8.27443">
        <ele>327.4</ele>
        <time>2020-07-25T08:00:57Z</time>
      </trkpt>
      <trkpt lat="48.72889" lon="8.27444">
        <ele>328.2</ele>
        <time>2020-07-25T08:01:00Z</time>
      </trkpt>
      <trkpt lat="48.72886" lon="8.27446">
        <ele>328.6</ele>
        <time>2020-07-25T08:01:02Z</time>
      </trkpt>
      <trkpt lat="48.72885" lon="8.27447">
        <ele>328.8</ele>
        <time>2020-07-25T08:01:03Z</time>
      </trkpt>
      <trkpt lat="48.72879" lon="8.27453">
        <ele>329.6</ele>
        <time>2020-07-25T08:01:07Z</time>
      </trkpt>
      <trkpt lat="48.72871" lon="8.27462">
        <ele>330.8</ele>
        <time>2020-07-25T08:01:13Z</time>
      </trkpt>
      <trkpt lat="48.72868" lon="8.27463">
        <ele>331</ele>
        <time>2020-07-25T08:01:15Z</time>
      </trkpt>
      <trkpt lat="48.72862" lon="8.27468">
        <ele>331.8</ele>
        <time>2020-07-25T08:01:20Z</time>
      </trkpt>
      <trkpt lat="48.72861" lon="8.2747">
        <ele>332</ele>
        <time>2020-07-25T08:01:21Z</time>
      </trkpt>
      <trkpt lat="48.72858" lon="8.27484">
        <ele>333</ele>
        <time>2020-07-25T08:01:27Z</time>
      </trkpt>
      <trkpt lat="48.72858" lon="8.27484">
        <ele>333</ele>
        <time>2020-07-25T08:01:28Z</time>
      </trkpt>
      <trkpt lat="48.72858" lon="8.27484">
        <ele>333.2</ele>
        <time>2020-07-25T08:01:29Z</time>
      </trkpt>
      <trkpt lat="48.72853" lon="8.27478">
        <ele>333</ele>
        <time>2020-07-25T08:06:08Z</time>
      </trkpt>
      <trkpt lat="48.7285" lon="8.2748">
        <ele>333.2</ele>
        <time>2020-07-25T08:06:10Z</time>
      </trkpt>
      <trkpt lat="48.72846" lon="8.27482">
        <ele>333</ele>
        <time>2020-07-25T08:06:12Z</time>
      </trkpt>
      <trkpt lat="48.7284" lon="8.27482">
        <ele>333.4</ele>
        <time>2020-07-25T08:06:15Z</time>
      </trkpt>
      <trkpt lat="48.72832" lon="8.27487">
        <ele>334</ele>
        <time>2020-07-25T08:06:20Z</time>
      </trkpt>
      <trkpt lat="48.7282" lon="8.27487">
        <ele>335.2</ele>
        <time>2020-07-25T08:06:25Z</time>
      </trkpt>
      <trkpt lat="48.72816" lon="8.27487">
        <ele>335.2</ele>
        <time>2020-07-25T08:06:27Z</time>
      </trkpt>
      <trkpt lat="48.72812" lon="8.27487">
        <ele>335.6</ele>
        <time>2020-07-25T08:06:29Z</time>
      </trkpt>
      <trkpt lat="48.72806" lon="8.27486">
        <ele>336.2</ele>
        <time>2020-07-25T08:06:32Z</time>
      </trkpt>
      <trkpt lat="48.72803" lon="8.27485">
        <ele>336.6</ele>
        <time>2020-07-25T08:06:34Z</time>
      </trkpt>
      <trkpt lat="48.72798" lon="8.27483">
        <ele>337.2</ele>
        <time>2020-07-25T08:06:37Z</time>
      </trkpt>
      <trkpt lat="48.72787" lon="8.27479">
        <ele>338</ele>
        <time>2020-07-25T08:06:42Z</time>
      </trkpt>
      <trkpt lat="48.72783" lon="8.27478">
        <ele>338.4</ele>
        <time>2020-07-25T08:06:44Z</time>
      </trkpt>
      <trkpt lat="48.7277" lon="8.27477">
        <ele>339.6</ele>
        <time>2020-07-25T08:06:50Z</time>
      </trkpt>
      <trkpt lat="48.72763" lon="8.27478">
        <ele>340.2</ele>
        <time>2020-07-25T08:06:53Z</time>
      </trkpt>
      <trkpt lat="48.72759" lon="8.2748">
        <ele>340.8</ele>
        <time>2020-07-25T08:06:55Z</time>
      </trkpt>
      <trkpt lat="48.72758" lon="8.2748">
        <ele>341</ele>
        <time>2020-07-25T08:06:56Z</time>
      </trkpt>
      <trkpt lat="48.72746" lon="8.27484">
        <ele>341.6</ele>
        <time>2020-07-25T08:07:01Z</time>
      </trkpt>
      <trkpt lat="48.72735" lon="8.27485">
        <ele>342.6</ele>
        <time>2020-07-25T08:07:06Z</time>
      </trkpt>
      <trkpt lat="48.7273" lon="8.27486">
        <ele>343</ele>
        <time>2020-07-25T08:07:08Z</time>
      </trkpt>
      <trkpt lat="48.72723" lon="8.27487">
        <ele>343.8</ele>
        <time>2020-07-25T08:07:11Z</time>
      </trkpt>
      <trkpt lat="48.72714" lon="8.27488">
        <ele>344.8</ele>
        <time>2020-07-25T08:07:16Z</time>
      </trkpt>
      <trkpt lat="48.72712" lon="8.27488">
        <ele>345</ele>
        <time>2020-07-25T08:07:17Z</time>
      </trkpt>
      <trkpt lat="48.727" lon="8.27492">
        <ele>346</ele>
        <time>2020-07-25T08:07:23Z</time>
      </trkpt>
      <trkpt lat="48.72693" lon="8.27495">
        <ele>346.8</ele>
        <time>2020-07-25T08:07:26Z</time>
      </trkpt>
      <trkpt lat="48.7269" lon="8.27497">
        <ele>347.2</ele>
        <time>2020-07-25T08:07:28Z</time>
      </trkpt>
      <trkpt lat="48.7268" lon="8.27501">
        <ele>348.4</ele>
        <time>2020-07-25T08:07:33Z</time>
      </trkpt>
      <trkpt lat="48.72678" lon="8.27502">
        <ele>348.6</ele>
        <time>2020-07-25T08:07:34Z</time>
      </trkpt>
      <trkpt lat="48.7267" lon="8.27509">
        <ele>349.4</ele>
        <time>2020-07-25T08:07:39Z</time>
      </trkpt>
      <trkpt lat="48.72668" lon="8.2751">
        <ele>349.6</ele>
        <time>2020-07-25T08:07:40Z</time>
      </trkpt>
      <trkpt lat="48.72658" lon="8.27518">
        <ele>350.6</ele>
        <time>2020-07-25T08:07:45Z</time>
      </trkpt>
      <trkpt lat="48.72653" lon="8.27523">
        <ele>351.2</ele>
        <time>2020-07-25T08:07:48Z</time>
      </trkpt>
      <trkpt lat="48.72653" lon="8.27526">
        <ele>351.6</ele>
        <time>2020-07-25T08:07:50Z</time>
      </trkpt>
      <trkpt lat="48.72644" lon="8.27542">
        <ele>352.6</ele>
        <time>2020-07-25T08:07:56Z</time>
      </trkpt>
      <trkpt lat="48.72635" lon="8.27554">
        <ele>353.8</ele>
        <time>2020-07-25T08:08:02Z</time>
      </trkpt>
      <trkpt lat="48.72633" lon="8.27555">
        <ele>354</ele>
        <time>2020-07-25T08:08:03Z</time>
      </trkpt>
      <trkpt lat="48.72626" lon="8.27561">
        <ele>355</ele>
        <time>2020-07-25T08:08:07Z</time>
      </trkpt>
      <trkpt lat="48.72619" lon="8.27566">
        <ele>355.6</ele>
        <time>2020-07-25T08:08:11Z</time>
      </trkpt>
      <trkpt lat="48.72616" lon="8.27569">
        <ele>355.8</ele>
        <time>2020-07-25T08:08:13Z</time>
      </trkpt>
      <trkpt lat="48.72604" lon="8.27571">
        <ele>357</ele>
        <time>2020-07-25T08:08:18Z</time>
      </trkpt>
      <trkpt lat="48.72599" lon="8.27571">
        <ele>357.4</ele>
        <time>2020-07-25T08:08:20Z</time>
      </trkpt>
      <trkpt lat="48.72592" lon="8.27568">
        <ele>358</ele>
        <time>2020-07-25T08:08:23Z</time>
      </trkpt>
      <trkpt lat="48.7259" lon="8.27567">
        <ele>358.4</ele>
        <time>2020-07-25T08:08:24Z</time>
      </trkpt>
      <trkpt lat="48.72588" lon="8.27565">
        <ele>358.6</ele>
        <time>2020-07-25T08:08:25Z</time>
      </trkpt>
      <trkpt lat="48.7258" lon="8.27563">
        <ele>359.4</ele>
        <time>2020-07-25T08:08:29Z</time>
      </trkpt>
      <trkpt lat="48.72576" lon="8.27561">
        <ele>359.8</ele>
        <time>2020-07-25T08:08:31Z</time>
      </trkpt>
      <trkpt lat="48.72571" lon="8.27559">
        <ele>360.4</ele>
        <time>2020-07-25T08:08:33Z</time>
      </trkpt>
      <trkpt lat="48.72559" lon="8.27555">
        <ele>361.6</ele>
        <time>2020-07-25T08:08:38Z</time>
      </trkpt>
      <trkpt lat="48.72549" lon="8.27554">
        <ele>362.4</ele>
        <time>2020-07-25T08:08:43Z</time>
      </trkpt>
      <trkpt lat="48.72545" lon="8.27552">
        <ele>362.8</ele>
        <time>2020-07-25T08:08:45Z</time>
      </trkpt>
      <trkpt lat="48.72534" lon="8.27551">
        <ele>363.6</ele>
        <time>2020-07-25T08:08:50Z</time>
      </trkpt>
      <trkpt lat="48.72526" lon="8.2755">
        <ele>364.4</ele>
        <time>2020-07-25T08:08:54Z</time>
      </trkpt>
      <trkpt lat="48.72524" lon="8.2755">
        <ele>364.8</ele>
        <time>2020-07-25T08:08:55Z</time>
      </trkpt>
      <trkpt lat="48.72514" lon="8.27549">
        <ele>365.8</ele>
        <time>2020-07-25T08:09:00Z</time>
      </trkpt>
      <trkpt lat="48.72508" lon="8.27549">
        <ele>366.6</ele>
        <time>2020-07-25T08:09:03Z</time>
      </trkpt>
      <trkpt lat="48.72505" lon="8.27549">
        <ele>366.8</ele>
        <time>2020-07-25T08:09:05Z</time>
      </trkpt>
      <trkpt lat="48.72495" lon="8.2755">
        <ele>367.8</ele>
        <time>2020-07-25T08:09:10Z</time>
      </trkpt>
      <trkpt lat="48.72486" lon="8.27549">
        <ele>369</ele>
        <time>2020-07-25T08:09:15Z</time>
      </trkpt>
      <trkpt lat="48.72478" lon="8.27548">
        <ele>369.6</ele>
        <time>2020-07-25T08:09:19Z</time>
      </trkpt>
      <trkpt lat="48.72475" lon="8.27548">
        <ele>370</ele>
        <time>2020-07-25T08:09:21Z</time>
      </trkpt>
      <trkpt lat="48.72459" lon="8.27551">
        <ele>371</ele>
        <time>2020-07-25T08:09:28Z</time>
      </trkpt>
      <trkpt lat="48.72457" lon="8.27552">
        <ele>371.4</ele>
        <time>2020-07-25T08:09:29Z</time>
      </trkpt>
      <trkpt lat="48.72449" lon="8.27551">
        <ele>372.2</ele>
        <time>2020-07-25T08:09:33Z</time>
      </trkpt>
      <trkpt lat="48.72442" lon="8.27549">
        <ele>372.4</ele>
        <time>2020-07-25T08:09:36Z</time>
      </trkpt>
      <trkpt lat="48.72436" lon="8.27549">
        <ele>373</ele>
        <time>2020-07-25T08:09:39Z</time>
      </trkpt>
      <trkpt lat="48.7243" lon="8.27549">
        <ele>373.6</ele>
        <time>2020-07-25T08:09:42Z</time>
      </trkpt>
      <trkpt lat="48.72426" lon="8.27549">
        <ele>374</ele>
        <time>2020-07-25T08:09:44Z</time>
      </trkpt>
      <trkpt lat="48.72417" lon="8.27546">
        <ele>375.2</ele>
        <time>2020-07-25T08:09:49Z</time>
      </trkpt>
      <trkpt lat="48.72407" lon="8.27544">
        <ele>376.4</ele>
        <time>2020-07-25T08:09:54Z</time>
      </trkpt>
      <trkpt lat="48.72402" lon="8.27544">
        <ele>376.6</ele>
        <time>2020-07-25T08:09:56Z</time>
      </trkpt>
      <trkpt lat="48.72393" lon="8.27543">
        <ele>377.2</ele>
        <time>2020-07-25T08:10:00Z</time>
      </trkpt>
      <trkpt lat="48.72391" lon="8.27543">
        <ele>377.6</ele>
        <time>2020-07-25T08:10:01Z</time>
      </trkpt>
      <trkpt lat="48.7238" lon="8.27543">
        <ele>378.6</ele>
        <time>2020-07-25T08:10:06Z</time>
      </trkpt>
      <trkpt lat="48.7237" lon="8.27544">
        <ele>379.6</ele>
        <time>2020-07-25T08:10:11Z</time>
      </trkpt>
      <trkpt lat="48.72368" lon="8.27545">
        <ele>379.8</ele>
        <time>2020-07-25T08:10:12Z</time>
      </trkpt>
      <trkpt lat="48.72359" lon="8.27543">
        <ele>380.8</ele>
        <time>2020-07-25T08:10:16Z</time>
      </trkpt>
      <trkpt lat="48.72354" lon="8.27544">
        <ele>381.4</ele>
        <time>2020-07-25T08:10:19Z</time>
      </trkpt>
      <trkpt lat="48.72349" lon="8.27545">
        <ele>381.8</ele>
        <time>2020-07-25T08:10:21Z</time>
      </trkpt>
      <trkpt lat="48.72341" lon="8.27547">
        <ele>382.8</ele>
        <time>2020-07-25T08:10:25Z</time>
      </trkpt>
      <trkpt lat="48.72337" lon="8.27549">
        <ele>382.8</ele>
        <time>2020-07-25T08:10:27Z</time>
      </trkpt>
      <trkpt lat="48.72333" lon="8.27552">
        <ele>383.2</ele>
        <time>2020-07-25T08:10:29Z</time>
      </trkpt>
      <trkpt lat="48.7233" lon="8.27556">
        <ele>383.6</ele>
        <time>2020-07-25T08:10:31Z</time>
      </trkpt>
      <trkpt lat="48.72329" lon="8.27558">
        <ele>383.8</ele>
        <time>2020-07-25T08:10:32Z</time>
      </trkpt>
      <trkpt lat="48.72321" lon="8.27569">
        <ele>384.8</ele>
        <time>2020-07-25T08:10:37Z</time>
      </trkpt>
      <trkpt lat="48.72318" lon="8.27573">
        <ele>385.2</ele>
        <time>2020-07-25T08:10:39Z</time>
      </trkpt>
      <trkpt lat="48.72315" lon="8.27578">
        <ele>385.6</ele>
        <time>2020-07-25T08:10:41Z</time>
      </trkpt>
      <trkpt lat="48.72314" lon="8.2758">
        <ele>386</ele>
        <time>2020-07-25T08:10:42Z</time>
      </trkpt>
      <trkpt lat="48.72312" lon="8.27583">
        <ele>386.2</ele>
        <time>2020-07-25T08:10:43Z</time>
      </trkpt>
      <trkpt lat="48.72305" lon="8.27592">
        <ele>387</ele>
        <time>2020-07-25T08:10:47Z</time>
      </trkpt>
      <trkpt lat="48.723" lon="8.27598">
        <ele>387.6</ele>
        <time>2020-07-25T08:10:50Z</time>
      </trkpt>
      <trkpt lat="48.72295" lon="8.27603">
        <ele>388</ele>
        <time>2020-07-25T08:10:53Z</time>
      </trkpt>
      <trkpt lat="48.72292" lon="8.27606">
        <ele>388.2</ele>
        <time>2020-07-25T08:10:55Z</time>
      </trkpt>
      <trkpt lat="48.72287" lon="8.27609">
        <ele>389</ele>
        <time>2020-07-25T08:10:58Z</time>
      </trkpt>
      <trkpt lat="48.72283" lon="8.27611">
        <ele>389.4</ele>
        <time>2020-07-25T08:11:00Z</time>
      </trkpt>
      <trkpt lat="48.72277" lon="8.27612">
        <ele>390.2</ele>
        <time>2020-07-25T08:11:03Z</time>
      </trkpt>
      <trkpt lat="48.72266" lon="8.27609">
        <ele>391.4</ele>
        <time>2020-07-25T08:11:08Z</time>
      </trkpt>
      <trkpt lat="48.72253" lon="8.27607">
        <ele>392.4</ele>
        <time>2020-07-25T08:11:14Z</time>
      </trkpt>
      <trkpt lat="48.72243" lon="8.27606">
        <ele>393.4</ele>
        <time>2020-07-25T08:11:18Z</time>
      </trkpt>
      <trkpt lat="48.72242" lon="8.27606">
        <ele>393.6</ele>
        <time>2020-07-25T08:11:19Z</time>
      </trkpt>
      <trkpt lat="48.72239" lon="8.27608">
        <ele>394</ele>
        <time>2020-07-25T08:11:21Z</time>
      </trkpt>
      <trkpt lat="48.72237" lon="8.27609">
        <ele>394.2</ele>
        <time>2020-07-25T08:11:22Z</time>
      </trkpt>
      <trkpt lat="48.72234" lon="8.27614">
        <ele>394.6</ele>
        <time>2020-07-25T08:11:24Z</time>
      </trkpt>
      <trkpt lat="48.72231" lon="8.27618">
        <ele>395</ele>
        <time>2020-07-25T08:11:26Z</time>
      </trkpt>
      <trkpt lat="48.72229" lon="8.2762">
        <ele>395.2</ele>
        <time>2020-07-25T08:11:27Z</time>
      </trkpt>
      <trkpt lat="48.72223" lon="8.27627">
        <ele>395.6</ele>
        <time>2020-07-25T08:11:30Z</time>
      </trkpt>
      <trkpt lat="48.72213" lon="8.27636">
        <ele>396.6</ele>
        <time>2020-07-25T08:11:36Z</time>
      </trkpt>
      <trkpt lat="48.72211" lon="8.27636">
        <ele>396.8</ele>
        <time>2020-07-25T08:11:37Z</time>
      </trkpt>
      <trkpt lat="48.72199" lon="8.27642">
        <ele>398</ele>
        <time>2020-07-25T08:11:43Z</time>
      </trkpt>
      <trkpt lat="48.72197" lon="8.27643">
        <ele>398.2</ele>
        <time>2020-07-25T08:11:44Z</time>
      </trkpt>
      <trkpt lat="48.72186" lon="8.27649">
        <ele>399.2</ele>
        <time>2020-07-25T08:11:49Z</time>
      </trkpt>
      <trkpt lat="48.72185" lon="8.2765">
        <ele>399.2</ele>
        <time>2020-07-25T08:11:50Z</time>
      </trkpt>
      <trkpt lat="48.72177" lon="8.27653">
        <ele>400.4</ele>
        <time>2020-07-25T08:11:54Z</time>
      </trkpt>
      <trkpt lat="48.72174" lon="8.27657">
        <ele>400.6</ele>
        <time>2020-07-25T08:11:56Z</time>
      </trkpt>
      <trkpt lat="48.72169" lon="8.27662">
        <ele>401.4</ele>
        <time>2020-07-25T08:11:59Z</time>
      </trkpt>
      <trkpt lat="48.72164" lon="8.27668">
        <ele>401.8</ele>
        <time>2020-07-25T08:12:02Z</time>
      </trkpt>
      <trkpt lat="48.72159" lon="8.27675">
        <ele>402.4</ele>
        <time>2020-07-25T08:12:05Z</time>
      </trkpt>
      <trkpt lat="48.7215" lon="8.27688">
        <ele>403.8</ele>
        <time>2020-07-25T08:12:11Z</time>
      </trkpt>
      <trkpt lat="48.72143" lon="8.27701">
        <ele>404.8</ele>
        <time>2020-07-25T08:12:17Z</time>
      </trkpt>
      <trkpt lat="48.72135" lon="8.27718">
        <ele>406.2</ele>
        <time>2020-07-25T08:12:24Z</time>
      </trkpt>
      <trkpt lat="48.72132" lon="8.27733">
        <ele>407.2</ele>
        <time>2020-07-25T08:12:29Z</time>
      </trkpt>
      <trkpt lat="48.72131" lon="8.27739">
        <ele>407.8</ele>
        <time>2020-07-25T08:12:31Z</time>
      </trkpt>
      <trkpt lat="48.72131" lon="8.27748">
        <ele>408.4</ele>
        <time>2020-07-25T08:12:34Z</time>
      </trkpt>
      <trkpt lat="48.7213" lon="8.27752">
        <ele>408.6</ele>
        <time>2020-07-25T08:12:35Z</time>
      </trkpt>
      <trkpt lat="48.72127" lon="8.27761">
        <ele>409.2</ele>
        <time>2020-07-25T08:12:38Z</time>
      </trkpt>
      <trkpt lat="48.72124" lon="8.27765">
        <ele>409.4</ele>
        <time>2020-07-25T08:12:40Z</time>
      </trkpt>
      <trkpt lat="48.72117" lon="8.27774">
        <ele>410.4</ele>
        <time>2020-07-25T08:12:45Z</time>
      </trkpt>
      <trkpt lat="48.72115" lon="8.27775">
        <ele>410.6</ele>
        <time>2020-07-25T08:12:46Z</time>
      </trkpt>
      <trkpt lat="48.72107" lon="8.27781">
        <ele>411.6</ele>
        <time>2020-07-25T08:12:51Z</time>
      </trkpt>
      <trkpt lat="48.72105" lon="8.27781">
        <ele>411.8</ele>
        <time>2020-07-25T08:12:52Z</time>
      </trkpt>
      <trkpt lat="48.72094" lon="8.27787">
        <ele>413</ele>
        <time>2020-07-25T08:12:58Z</time>
      </trkpt>
      <trkpt lat="48.72092" lon="8.27787">
        <ele>413</ele>
        <time>2020-07-25T08:12:59Z</time>
      </trkpt>
      <trkpt lat="48.72082" lon="8.27791">
        <ele>414</ele>
        <time>2020-07-25T08:13:04Z</time>
      </trkpt>
      <trkpt lat="48.72078" lon="8.27792">
        <ele>414.6</ele>
        <time>2020-07-25T08:13:06Z</time>
      </trkpt>
      <trkpt lat="48.72075" lon="8.27793">
        <ele>415.2</ele>
        <time>2020-07-25T08:13:08Z</time>
      </trkpt>
      <trkpt lat="48.72072" lon="8.27797">
        <ele>415.6</ele>
        <time>2020-07-25T08:13:10Z</time>
      </trkpt>
      <trkpt lat="48.72067" lon="8.27802">
        <ele>416.2</ele>
        <time>2020-07-25T08:13:13Z</time>
      </trkpt>
      <trkpt lat="48.72062" lon="8.2781">
        <ele>417</ele>
        <time>2020-07-25T08:13:17Z</time>
      </trkpt>
      <trkpt lat="48.72059" lon="8.27814">
        <ele>417.4</ele>
        <time>2020-07-25T08:13:19Z</time>
      </trkpt>
      <trkpt lat="48.72058" lon="8.27816">
        <ele>417.6</ele>
        <time>2020-07-25T08:13:20Z</time>
      </trkpt>
      <trkpt lat="48.72056" lon="8.2782">
        <ele>417.8</ele>
        <time>2020-07-25T08:13:22Z</time>
      </trkpt>
      <trkpt lat="48.72052" lon="8.27825">
        <ele>418.4</ele>
        <time>2020-07-25T08:13:25Z</time>
      </trkpt>
      <trkpt lat="48.72044" lon="8.27834">
        <ele>419.4</ele>
        <time>2020-07-25T08:13:29Z</time>
      </trkpt>
      <trkpt lat="48.72042" lon="8.27834">
        <ele>419.6</ele>
        <time>2020-07-25T08:13:30Z</time>
      </trkpt>
      <trkpt lat="48.72039" lon="8.27836">
        <ele>419.8</ele>
        <time>2020-07-25T08:13:31Z</time>
      </trkpt>
      <trkpt lat="48.72036" lon="8.2784">
        <ele>420.2</ele>
        <time>2020-07-25T08:13:33Z</time>
      </trkpt>
      <trkpt lat="48.72033" lon="8.27844">
        <ele>420.6</ele>
        <time>2020-07-25T08:13:35Z</time>
      </trkpt>
      <trkpt lat="48.72026" lon="8.27853">
        <ele>421.4</ele>
        <time>2020-07-25T08:13:40Z</time>
      </trkpt>
      <trkpt lat="48.72025" lon="8.27855">
        <ele>421.6</ele>
        <time>2020-07-25T08:13:41Z</time>
      </trkpt>
      <trkpt lat="48.72016" lon="8.27863">
        <ele>422.4</ele>
        <time>2020-07-25T08:13:46Z</time>
      </trkpt>
      <trkpt lat="48.72014" lon="8.27866">
        <ele>422.6</ele>
        <time>2020-07-25T08:13:47Z</time>
      </trkpt>
      <trkpt lat="48.72006" lon="8.2788">
        <ele>423.6</ele>
        <time>2020-07-25T08:13:52Z</time>
      </trkpt>
      <trkpt lat="48.72005" lon="8.27882">
        <ele>423.6</ele>
        <time>2020-07-25T08:13:53Z</time>
      </trkpt>
      <trkpt lat="48.72001" lon="8.27889">
        <ele>424.8</ele>
        <time>2020-07-25T08:13:56Z</time>
      </trkpt>
      <trkpt lat="48.71997" lon="8.27895">
        <ele>425.2</ele>
        <time>2020-07-25T08:13:59Z</time>
      </trkpt>
      <trkpt lat="48.71994" lon="8.27902">
        <ele>425.8</ele>
        <time>2020-07-25T08:14:02Z</time>
      </trkpt>
      <trkpt lat="48.71988" lon="8.27913">
        <ele>426.8</ele>
        <time>2020-07-25T08:14:07Z</time>
      </trkpt>
      <trkpt lat="48.71987" lon="8.27914">
        <ele>427</ele>
        <time>2020-07-25T08:14:08Z</time>
      </trkpt>
      <trkpt lat="48.71985" lon="8.27924">
        <ele>427.8</ele>
        <time>2020-07-25T08:14:12Z</time>
      </trkpt>
      <trkpt lat="48.71983" lon="8.27929">
        <ele>428</ele>
        <time>2020-07-25T08:14:14Z</time>
      </trkpt>
      <trkpt lat="48.71979" lon="8.27934">
        <ele>428.8</ele>
        <time>2020-07-25T08:14:17Z</time>
      </trkpt>
      <trkpt lat="48.71978" lon="8.27936">
        <ele>429</ele>
        <time>2020-07-25T08:14:18Z</time>
      </trkpt>
      <trkpt lat="48.71977" lon="8.27939">
        <ele>429.2</ele>
        <time>2020-07-25T08:14:19Z</time>
      </trkpt>
      <trkpt lat="48.71972" lon="8.27957">
        <ele>430.4</ele>
        <time>2020-07-25T08:14:25Z</time>
      </trkpt>
      <trkpt lat="48.71969" lon="8.27969">
        <ele>431.4</ele>
        <time>2020-07-25T08:14:30Z</time>
      </trkpt>
      <trkpt lat="48.71966" lon="8.27972">
        <ele>431.8</ele>
        <time>2020-07-25T08:14:32Z</time>
      </trkpt>
      <trkpt lat="48.7196" lon="8.27977">
        <ele>432.4</ele>
        <time>2020-07-25T08:14:36Z</time>
      </trkpt>
      <trkpt lat="48.71952" lon="8.27985">
        <ele>433.6</ele>
        <time>2020-07-25T08:14:41Z</time>
      </trkpt>
      <trkpt lat="48.71948" lon="8.2799">
        <ele>434.2</ele>
        <time>2020-07-25T08:14:44Z</time>
      </trkpt>
      <trkpt lat="48.71945" lon="8.27992">
        <ele>434.6</ele>
        <time>2020-07-25T08:14:46Z</time>
      </trkpt>
      <trkpt lat="48.71939" lon="8.28">
        <ele>435.8</ele>
        <time>2020-07-25T08:14:51Z</time>
      </trkpt>
      <trkpt lat="48.71935" lon="8.28003">
        <ele>436</ele>
        <time>2020-07-25T08:14:53Z</time>
      </trkpt>
      <trkpt lat="48.71931" lon="8.28004">
        <ele>436.4</ele>
        <time>2020-07-25T08:14:55Z</time>
      </trkpt>
      <trkpt lat="48.71929" lon="8.28005">
        <ele>436.6</ele>
        <time>2020-07-25T08:14:56Z</time>
      </trkpt>
      <trkpt lat="48.71926" lon="8.28006">
        <ele>436.8</ele>
        <time>2020-07-25T08:14:58Z</time>
      </trkpt>
      <trkpt lat="48.71923" lon="8.28008">
        <ele>437.4</ele>
        <time>2020-07-25T08:15:00Z</time>
      </trkpt>
      <trkpt lat="48.71921" lon="8.2801">
        <ele>437.6</ele>
        <time>2020-07-25T08:15:01Z</time>
      </trkpt>
      <trkpt lat="48.71919" lon="8.28012">
        <ele>437.8</ele>
        <time>2020-07-25T08:15:02Z</time>
      </trkpt>
      <trkpt lat="48.71914" lon="8.28017">
        <ele>438.6</ele>
        <time>2020-07-25T08:15:06Z</time>
      </trkpt>
      <trkpt lat="48.7191" lon="8.28019">
        <ele>439</ele>
        <time>2020-07-25T08:15:08Z</time>
      </trkpt>
      <trkpt lat="48.71909" lon="8.2802">
        <ele>439.2</ele>
        <time>2020-07-25T08:15:09Z</time>
      </trkpt>
      <trkpt lat="48.71903" lon="8.28022">
        <ele>439.8</ele>
        <time>2020-07-25T08:15:12Z</time>
      </trkpt>
      <trkpt lat="48.71901" lon="8.28023">
        <ele>440</ele>
        <time>2020-07-25T08:15:13Z</time>
      </trkpt>
      <trkpt lat="48.71895" lon="8.28028">
        <ele>440.8</ele>
        <time>2020-07-25T08:15:18Z</time>
      </trkpt>
      <trkpt lat="48.71893" lon="8.2803">
        <ele>441.4</ele>
        <time>2020-07-25T08:15:20Z</time>
      </trkpt>
      <trkpt lat="48.71891" lon="8.28033">
        <ele>441.8</ele>
        <time>2020-07-25T08:15:22Z</time>
      </trkpt>
      <trkpt lat="48.71887" lon="8.2804">
        <ele>442.4</ele>
        <time>2020-07-25T08:15:25Z</time>
      </trkpt>
      <trkpt lat="48.71885" lon="8.28054">
        <ele>443.2</ele>
        <time>2020-07-25T08:15:29Z</time>
      </trkpt>
      <trkpt lat="48.71885" lon="8.28062">
        <ele>443.6</ele>
        <time>2020-07-25T08:15:31Z</time>
      </trkpt>
      <trkpt lat="48.71885" lon="8.28071">
        <ele>444.2</ele>
        <time>2020-07-25T08:15:34Z</time>
      </trkpt>
      <trkpt lat="48.71885" lon="8.28072">
        <ele>444.2</ele>
        <time>2020-07-25T08:15:35Z</time>
      </trkpt>
      <trkpt lat="48.71886" lon="8.28074">
        <ele>444.6</ele>
        <time>2020-07-25T08:15:36Z</time>
      </trkpt>
      <trkpt lat="48.71891" lon="8.2808">
        <ele>445.2</ele>
        <time>2020-07-25T08:15:40Z</time>
      </trkpt>
      <trkpt lat="48.71892" lon="8.2808">
        <ele>445.2</ele>
        <time>2020-07-25T08:15:41Z</time>
      </trkpt>
      <trkpt lat="48.71893" lon="8.2808">
        <ele>445.4</ele>
        <time>2020-07-25T08:15:42Z</time>
      </trkpt>
      <trkpt lat="48.719" lon="8.28076">
        <ele>446.4</ele>
        <time>2020-07-25T08:15:46Z</time>
      </trkpt>
      <trkpt lat="48.71904" lon="8.28072">
        <ele>446.8</ele>
        <time>2020-07-25T08:15:49Z</time>
      </trkpt>
      <trkpt lat="48.71908" lon="8.28067">
        <ele>447.4</ele>
        <time>2020-07-25T08:15:52Z</time>
      </trkpt>
      <trkpt lat="48.71915" lon="8.28062">
        <ele>448</ele>
        <time>2020-07-25T08:15:56Z</time>
      </trkpt>
      <trkpt lat="48.71922" lon="8.28059">
        <ele>448.6</ele>
        <time>2020-07-25T08:16:00Z</time>
      </trkpt>
      <trkpt lat="48.71926" lon="8.28059">
        <ele>449</ele>
        <time>2020-07-25T08:16:03Z</time>
      </trkpt>
      <trkpt lat="48.7193" lon="8.28061">
        <ele>449.4</ele>
        <time>2020-07-25T08:16:06Z</time>
      </trkpt>
      <trkpt lat="48.71931" lon="8.28061">
        <ele>449.6</ele>
        <time>2020-07-25T08:16:07Z</time>
      </trkpt>
      <trkpt lat="48.71933" lon="8.28063">
        <ele>450</ele>
        <time>2020-07-25T08:16:09Z</time>
      </trkpt>
      <trkpt lat="48.71938" lon="8.28069">
        <ele>450.4</ele>
        <time>2020-07-25T08:16:12Z</time>
      </trkpt>
      <trkpt lat="48.71939" lon="8.28071">
        <ele>450.6</ele>
        <time>2020-07-25T08:16:13Z</time>
      </trkpt>
      <trkpt lat="48.7194" lon="8.28075">
        <ele>451</ele>
        <time>2020-07-25T08:16:15Z</time>
      </trkpt>
      <trkpt lat="48.71943" lon="8.2808">
        <ele>451.6</ele>
        <time>2020-07-25T08:16:18Z</time>
      </trkpt>
      <trkpt lat="48.71947" lon="8.28086">
        <ele>452.4</ele>
        <time>2020-07-25T08:16:21Z</time>
      </trkpt>
      <trkpt lat="48.71948" lon="8.28088">
        <ele>452.8</ele>
        <time>2020-07-25T08:16:22Z</time>
      </trkpt>
      <trkpt lat="48.7196" lon="8.281">
        <ele>453.8</ele>
        <time>2020-07-25T08:16:28Z</time>
      </trkpt>
      <trkpt lat="48.71967" lon="8.28107">
        <ele>454.4</ele>
        <time>2020-07-25T08:16:32Z</time>
      </trkpt>
      <trkpt lat="48.71972" lon="8.28115">
        <ele>455</ele>
        <time>2020-07-25T08:16:35Z</time>
      </trkpt>
      <trkpt lat="48.71974" lon="8.2812">
        <ele>455.2</ele>
        <time>2020-07-25T08:16:37Z</time>
      </trkpt>
      <trkpt lat="48.71976" lon="8.2813">
        <ele>455.8</ele>
        <time>2020-07-25T08:16:40Z</time>
      </trkpt>
      <trkpt lat="48.71976" lon="8.28136">
        <ele>456</ele>
        <time>2020-07-25T08:16:42Z</time>
      </trkpt>
      <trkpt lat="48.7197" lon="8.28143">
        <ele>457</ele>
        <time>2020-07-25T08:16:47Z</time>
      </trkpt>
      <trkpt lat="48.71968" lon="8.28144">
        <ele>457.2</ele>
        <time>2020-07-25T08:16:48Z</time>
      </trkpt>
      <trkpt lat="48.71962" lon="8.2815">
        <ele>458.4</ele>
        <time>2020-07-25T08:16:53Z</time>
      </trkpt>
      <trkpt lat="48.71961" lon="8.28151">
        <ele>458.8</ele>
        <time>2020-07-25T08:16:54Z</time>
      </trkpt>
      <trkpt lat="48.71956" lon="8.28151">
        <ele>459.2</ele>
        <time>2020-07-25T08:16:56Z</time>
      </trkpt>
      <trkpt lat="48.71952" lon="8.28153">
        <ele>459.6</ele>
        <time>2020-07-25T08:16:58Z</time>
      </trkpt>
      <trkpt lat="48.71948" lon="8.28156">
        <ele>460</ele>
        <time>2020-07-25T08:17:01Z</time>
      </trkpt>
      <trkpt lat="48.71947" lon="8.2816">
        <ele>460.2</ele>
        <time>2020-07-25T08:17:02Z</time>
      </trkpt>
      <trkpt lat="48.71946" lon="8.28162">
        <ele>460.4</ele>
        <time>2020-07-25T08:17:03Z</time>
      </trkpt>
      <trkpt lat="48.71944" lon="8.28164">
        <ele>460.6</ele>
        <time>2020-07-25T08:17:04Z</time>
      </trkpt>
      <trkpt lat="48.71939" lon="8.28167">
        <ele>461</ele>
        <time>2020-07-25T08:17:07Z</time>
      </trkpt>
      <trkpt lat="48.71935" lon="8.28169">
        <ele>461.6</ele>
        <time>2020-07-25T08:17:09Z</time>
      </trkpt>
      <trkpt lat="48.71926" lon="8.28176">
        <ele>462.6</ele>
        <time>2020-07-25T08:17:15Z</time>
      </trkpt>
      <trkpt lat="48.71919" lon="8.28184">
        <ele>463.8</ele>
        <time>2020-07-25T08:17:22Z</time>
      </trkpt>
      <trkpt lat="48.71918" lon="8.28185">
        <ele>464</ele>
        <time>2020-07-25T08:17:23Z</time>
      </trkpt>
      <trkpt lat="48.71915" lon="8.28192">
        <ele>464.8</ele>
        <time>2020-07-25T08:17:28Z</time>
      </trkpt>
      <trkpt lat="48.71914" lon="8.28193">
        <ele>465</ele>
        <time>2020-07-25T08:17:29Z</time>
      </trkpt>
      <trkpt lat="48.71913" lon="8.28196">
        <ele>465.2</ele>
        <time>2020-07-25T08:17:30Z</time>
      </trkpt>
      <trkpt lat="48.71909" lon="8.28203">
        <ele>466</ele>
        <time>2020-07-25T08:17:34Z</time>
      </trkpt>
      <trkpt lat="48.71905" lon="8.28212">
        <ele>466.8</ele>
        <time>2020-07-25T08:17:38Z</time>
      </trkpt>
      <trkpt lat="48.71904" lon="8.28214">
        <ele>467.2</ele>
        <time>2020-07-25T08:17:39Z</time>
      </trkpt>
      <trkpt lat="48.71898" lon="8.28226">
        <ele>468.2</ele>
        <time>2020-07-25T08:17:45Z</time>
      </trkpt>
      <trkpt lat="48.71897" lon="8.28227">
        <ele>468.4</ele>
        <time>2020-07-25T08:17:46Z</time>
      </trkpt>
      <trkpt lat="48.71894" lon="8.28236">
        <ele>469.4</ele>
        <time>2020-07-25T08:17:51Z</time>
      </trkpt>
      <trkpt lat="48.71893" lon="8.28239">
        <ele>469.6</ele>
        <time>2020-07-25T08:17:52Z</time>
      </trkpt>
      <trkpt lat="48.71891" lon="8.28246">
        <ele>470.2</ele>
        <time>2020-07-25T08:17:56Z</time>
      </trkpt>
      <trkpt lat="48.71891" lon="8.28248">
        <ele>470.4</ele>
        <time>2020-07-25T08:17:57Z</time>
      </trkpt>
      <trkpt lat="48.7189" lon="8.28251">
        <ele>470.8</ele>
        <time>2020-07-25T08:17:59Z</time>
      </trkpt>
      <trkpt lat="48.71886" lon="8.2826">
        <ele>471.6</ele>
        <time>2020-07-25T08:18:03Z</time>
      </trkpt>
      <trkpt lat="48.71886" lon="8.28262">
        <ele>471.8</ele>
        <time>2020-07-25T08:18:04Z</time>
      </trkpt>
      <trkpt lat="48.71888" lon="8.28268">
        <ele>472.6</ele>
        <time>2020-07-25T08:18:08Z</time>
      </trkpt>
      <trkpt lat="48.71888" lon="8.28268">
        <ele>473.2</ele>
        <time>2020-07-25T08:18:10Z</time>
      </trkpt>
      <trkpt lat="48.71888" lon="8.28268">
        <ele>473.4</ele>
        <time>2020-07-25T08:18:11Z</time>
      </trkpt>
      <trkpt lat="48.71886" lon="8.2827">
        <ele>474.2</ele>
        <time>2020-07-25T08:20:31Z</time>
      </trkpt>
      <trkpt lat="48.71881" lon="8.28272">
        <ele>474.2</ele>
        <time>2020-07-25T08:20:33Z</time>
      </trkpt>
      <trkpt lat="48.71867" lon="8.28285">
        <ele>474.6</ele>
        <time>2020-07-25T08:20:40Z</time>
      </trkpt>
      <trkpt lat="48.71862" lon="8.28291">
        <ele>475.2</ele>
        <time>2020-07-25T08:20:43Z</time>
      </trkpt>
      <trkpt lat="48.71857" lon="8.28299">
        <ele>476.2</ele>
        <time>2020-07-25T08:20:46Z</time>
      </trkpt>
      <trkpt lat="48.71855" lon="8.28301">
        <ele>476.4</ele>
        <time>2020-07-25T08:20:47Z</time>
      </trkpt>
      <trkpt lat="48.71848" lon="8.28308">
        <ele>477.4</ele>
        <time>2020-07-25T08:20:51Z</time>
      </trkpt>
      <trkpt lat="48.71846" lon="8.2831">
        <ele>477.8</ele>
        <time>2020-07-25T08:20:52Z</time>
      </trkpt>
      <trkpt lat="48.71844" lon="8.28311">
        <ele>478</ele>
        <time>2020-07-25T08:20:53Z</time>
      </trkpt>
      <trkpt lat="48.71837" lon="8.28316">
        <ele>478.6</ele>
        <time>2020-07-25T08:20:57Z</time>
      </trkpt>
      <trkpt lat="48.71831" lon="8.28322">
        <ele>479.4</ele>
        <time>2020-07-25T08:21:00Z</time>
      </trkpt>
      <trkpt lat="48.7183" lon="8.28325">
        <ele>479.6</ele>
        <time>2020-07-25T08:21:01Z</time>
      </trkpt>
      <trkpt lat="48.71825" lon="8.28328">
        <ele>480.4</ele>
        <time>2020-07-25T08:21:04Z</time>
      </trkpt>
      <trkpt lat="48.71823" lon="8.2833">
        <ele>480.8</ele>
        <time>2020-07-25T08:21:06Z</time>
      </trkpt>
      <trkpt lat="48.71821" lon="8.28331">
        <ele>481</ele>
        <time>2020-07-25T08:21:07Z</time>
      </trkpt>
      <trkpt lat="48.71814" lon="8.28336">
        <ele>482</ele>
        <time>2020-07-25T08:21:11Z</time>
      </trkpt>
      <trkpt lat="48.71806" lon="8.28341">
        <ele>483</ele>
        <time>2020-07-25T08:21:16Z</time>
      </trkpt>
      <trkpt lat="48.71804" lon="8.28342">
        <ele>483.4</ele>
        <time>2020-07-25T08:21:17Z</time>
      </trkpt>
      <trkpt lat="48.71797" lon="8.28344">
        <ele>484.2</ele>
        <time>2020-07-25T08:21:21Z</time>
      </trkpt>
      <trkpt lat="48.71792" lon="8.28347">
        <ele>484.8</ele>
        <time>2020-07-25T08:21:24Z</time>
      </trkpt>
      <trkpt lat="48.71791" lon="8.28349">
        <ele>485</ele>
        <time>2020-07-25T08:21:25Z</time>
      </trkpt>
      <trkpt lat="48.71789" lon="8.28351">
        <ele>485.2</ele>
        <time>2020-07-25T08:21:26Z</time>
      </trkpt>
      <trkpt lat="48.71785" lon="8.28352">
        <ele>485.6</ele>
        <time>2020-07-25T08:21:28Z</time>
      </trkpt>
      <trkpt lat="48.7178" lon="8.28354">
        <ele>486.2</ele>
        <time>2020-07-25T08:21:31Z</time>
      </trkpt>
      <trkpt lat="48.71772" lon="8.28356">
        <ele>486.8</ele>
        <time>2020-07-25T08:21:35Z</time>
      </trkpt>
      <trkpt lat="48.7177" lon="8.28358">
        <ele>487.2</ele>
        <time>2020-07-25T08:21:37Z</time>
      </trkpt>
      <trkpt lat="48.71764" lon="8.28363">
        <ele>488.4</ele>
        <time>2020-07-25T08:21:42Z</time>
      </trkpt>
      <trkpt lat="48.71759" lon="8.28367">
        <ele>489.6</ele>
        <time>2020-07-25T08:21:46Z</time>
      </trkpt>
      <trkpt lat="48.71756" lon="8.2837">
        <ele>490</ele>
        <time>2020-07-25T08:21:48Z</time>
      </trkpt>
      <trkpt lat="48.71751" lon="8.28372">
        <ele>490.8</ele>
        <time>2020-07-25T08:21:51Z</time>
      </trkpt>
      <trkpt lat="48.71749" lon="8.28375">
        <ele>491</ele>
        <time>2020-07-25T08:21:53Z</time>
      </trkpt>
      <trkpt lat="48.71744" lon="8.2838">
        <ele>491.6</ele>
        <time>2020-07-25T08:21:56Z</time>
      </trkpt>
      <trkpt lat="48.71739" lon="8.28383">
        <ele>492.8</ele>
        <time>2020-07-25T08:22:00Z</time>
      </trkpt>
      <trkpt lat="48.71738" lon="8.28384">
        <ele>493</ele>
        <time>2020-07-25T08:22:01Z</time>
      </trkpt>
      <trkpt lat="48.71734" lon="8.28382">
        <ele>493.8</ele>
        <time>2020-07-25T08:22:04Z</time>
      </trkpt>
      <trkpt lat="48.71733" lon="8.28384">
        <ele>494</ele>
        <time>2020-07-25T08:22:05Z</time>
      </trkpt>
      <trkpt lat="48.71727" lon="8.28397">
        <ele>494.8</ele>
        <time>2020-07-25T08:22:10Z</time>
      </trkpt>
      <trkpt lat="48.71722" lon="8.28401">
        <ele>495.6</ele>
        <time>2020-07-25T08:22:13Z</time>
      </trkpt>
      <trkpt lat="48.7172" lon="8.28403">
        <ele>496</ele>
        <time>2020-07-25T08:22:15Z</time>
      </trkpt>
      <trkpt lat="48.71717" lon="8.28411">
        <ele>496.8</ele>
        <time>2020-07-25T08:22:19Z</time>
      </trkpt>
      <trkpt lat="48.71716" lon="8.28413">
        <ele>497</ele>
        <time>2020-07-25T08:22:20Z</time>
      </trkpt>
      <trkpt lat="48.71715" lon="8.28415">
        <ele>497.2</ele>
        <time>2020-07-25T08:22:21Z</time>
      </trkpt>
      <trkpt lat="48.71711" lon="8.28418">
        <ele>497.8</ele>
        <time>2020-07-25T08:22:23Z</time>
      </trkpt>
      <trkpt lat="48.71709" lon="8.28422">
        <ele>498.2</ele>
        <time>2020-07-25T08:22:25Z</time>
      </trkpt>
      <trkpt lat="48.71701" lon="8.28428">
        <ele>499.6</ele>
        <time>2020-07-25T08:22:30Z</time>
      </trkpt>
      <trkpt lat="48.71699" lon="8.2843">
        <ele>499.8</ele>
        <time>2020-07-25T08:22:31Z</time>
      </trkpt>
      <trkpt lat="48.71692" lon="8.28433">
        <ele>500.4</ele>
        <time>2020-07-25T08:22:35Z</time>
      </trkpt>
      <trkpt lat="48.7169" lon="8.28433">
        <ele>500.6</ele>
        <time>2020-07-25T08:22:36Z</time>
      </trkpt>
      <trkpt lat="48.71687" lon="8.28432">
        <ele>500.8</ele>
        <time>2020-07-25T08:22:37Z</time>
      </trkpt>
      <trkpt lat="48.71685" lon="8.28432">
        <ele>500.6</ele>
        <time>2020-07-25T08:22:38Z</time>
      </trkpt>
      <trkpt lat="48.71678" lon="8.28425">
        <ele>501.6</ele>
        <time>2020-07-25T08:22:43Z</time>
      </trkpt>
      <trkpt lat="48.7167" lon="8.28411">
        <ele>502.6</ele>
        <time>2020-07-25T08:22:50Z</time>
      </trkpt>
      <trkpt lat="48.71668" lon="8.2841">
        <ele>502.8</ele>
        <time>2020-07-25T08:22:51Z</time>
      </trkpt>
      <trkpt lat="48.71662" lon="8.28405">
        <ele>503.6</ele>
        <time>2020-07-25T08:22:55Z</time>
      </trkpt>
      <trkpt lat="48.71657" lon="8.284">
        <ele>504.2</ele>
        <time>2020-07-25T08:22:58Z</time>
      </trkpt>
      <trkpt lat="48.71654" lon="8.28396">
        <ele>504.6</ele>
        <time>2020-07-25T08:23:00Z</time>
      </trkpt>
      <trkpt lat="48.71645" lon="8.28393">
        <ele>505.6</ele>
        <time>2020-07-25T08:23:05Z</time>
      </trkpt>
      <trkpt lat="48.71644" lon="8.28392">
        <ele>505.8</ele>
        <time>2020-07-25T08:23:06Z</time>
      </trkpt>
      <trkpt lat="48.71637" lon="8.28392">
        <ele>507</ele>
        <time>2020-07-25T08:23:11Z</time>
      </trkpt>
      <trkpt lat="48.71632" lon="8.28392">
        <ele>507.8</ele>
        <time>2020-07-25T08:23:14Z</time>
      </trkpt>
      <trkpt lat="48.7163" lon="8.28392">
        <ele>508</ele>
        <time>2020-07-25T08:23:15Z</time>
      </trkpt>
      <trkpt lat="48.71622" lon="8.28395">
        <ele>509</ele>
        <time>2020-07-25T08:23:21Z</time>
      </trkpt>
      <trkpt lat="48.71621" lon="8.28395">
        <ele>509</ele>
        <time>2020-07-25T08:23:22Z</time>
      </trkpt>
      <trkpt lat="48.71616" lon="8.28395">
        <ele>510</ele>
        <time>2020-07-25T08:23:26Z</time>
      </trkpt>
      <trkpt lat="48.71614" lon="8.28396">
        <ele>510.2</ele>
        <time>2020-07-25T08:23:27Z</time>
      </trkpt>
      <trkpt lat="48.71611" lon="8.28396">
        <ele>510.6</ele>
        <time>2020-07-25T08:23:29Z</time>
      </trkpt>
      <trkpt lat="48.71608" lon="8.28396">
        <ele>511.4</ele>
        <time>2020-07-25T08:23:32Z</time>
      </trkpt>
      <trkpt lat="48.71605" lon="8.28396">
        <ele>511.8</ele>
        <time>2020-07-25T08:23:34Z</time>
      </trkpt>
      <trkpt lat="48.71604" lon="8.28396">
        <ele>512.2</ele>
        <time>2020-07-25T08:23:36Z</time>
      </trkpt>
      <trkpt lat="48.71602" lon="8.28395">
        <ele>512.4</ele>
        <time>2020-07-25T08:23:37Z</time>
      </trkpt>
      <trkpt lat="48.71593" lon="8.28391">
        <ele>513.6</ele>
        <time>2020-07-25T08:23:43Z</time>
      </trkpt>
      <trkpt lat="48.71592" lon="8.2839">
        <ele>513.8</ele>
        <time>2020-07-25T08:23:44Z</time>
      </trkpt>
      <trkpt lat="48.7159" lon="8.28389">
        <ele>514</ele>
        <time>2020-07-25T08:23:45Z</time>
      </trkpt>
      <trkpt lat="48.71588" lon="8.28387">
        <ele>514.4</ele>
        <time>2020-07-25T08:23:47Z</time>
      </trkpt>
      <trkpt lat="48.71587" lon="8.28386">
        <ele>514.8</ele>
        <time>2020-07-25T08:23:48Z</time>
      </trkpt>
      <trkpt lat="48.71579" lon="8.28383">
        <ele>515.6</ele>
        <time>2020-07-25T08:23:52Z</time>
      </trkpt>
      <trkpt lat="48.71578" lon="8.28382">
        <ele>516</ele>
        <time>2020-07-25T08:23:53Z</time>
      </trkpt>
      <trkpt lat="48.71576" lon="8.28381">
        <ele>516.4</ele>
        <time>2020-07-25T08:23:55Z</time>
      </trkpt>
      <trkpt lat="48.71574" lon="8.28379">
        <ele>517</ele>
        <time>2020-07-25T08:23:57Z</time>
      </trkpt>
      <trkpt lat="48.71573" lon="8.28378">
        <ele>517.2</ele>
        <time>2020-07-25T08:23:58Z</time>
      </trkpt>
      <trkpt lat="48.71565" lon="8.28373">
        <ele>518</ele>
        <time>2020-07-25T08:24:02Z</time>
      </trkpt>
      <trkpt lat="48.71565" lon="8.28373">
        <ele>518.2</ele>
        <time>2020-07-25T08:24:03Z</time>
      </trkpt>
      <trkpt lat="48.71562" lon="8.28373">
        <ele>518.6</ele>
        <time>2020-07-25T08:24:05Z</time>
      </trkpt>
      <trkpt lat="48.71559" lon="8.28371">
        <ele>519.2</ele>
        <time>2020-07-25T08:24:08Z</time>
      </trkpt>
      <trkpt lat="48.71558" lon="8.2837">
        <ele>519.4</ele>
        <time>2020-07-25T08:24:09Z</time>
      </trkpt>
      <trkpt lat="48.7155" lon="8.28368">
        <ele>520.4</ele>
        <time>2020-07-25T08:24:14Z</time>
      </trkpt>
      <trkpt lat="48.71546" lon="8.28367">
        <ele>520.8</ele>
        <time>2020-07-25T08:24:16Z</time>
      </trkpt>
      <trkpt lat="48.71543" lon="8.28365">
        <ele>521.2</ele>
        <time>2020-07-25T08:24:18Z</time>
      </trkpt>
      <trkpt lat="48.71541" lon="8.28365">
        <ele>521.4</ele>
        <time>2020-07-25T08:24:19Z</time>
      </trkpt>
      <trkpt lat="48.71539" lon="8.28365">
        <ele>522</ele>
        <time>2020-07-25T08:24:21Z</time>
      </trkpt>
      <trkpt lat="48.71536" lon="8.28365">
        <ele>522.6</ele>
        <time>2020-07-25T08:24:24Z</time>
      </trkpt>
      <trkpt lat="48.7153" lon="8.28365">
        <ele>523.4</ele>
        <time>2020-07-25T08:24:28Z</time>
      </trkpt>
      <trkpt lat="48.71528" lon="8.28365">
        <ele>523.6</ele>
        <time>2020-07-25T08:24:30Z</time>
      </trkpt>
      <trkpt lat="48.71519" lon="8.28364">
        <ele>524.8</ele>
        <time>2020-07-25T08:24:35Z</time>
      </trkpt>
      <trkpt lat="48.71517" lon="8.28364">
        <ele>524.8</ele>
        <time>2020-07-25T08:24:36Z</time>
      </trkpt>
      <trkpt lat="48.7151" lon="8.28362">
        <ele>525.6</ele>
        <time>2020-07-25T08:24:41Z</time>
      </trkpt>
      <trkpt lat="48.71498" lon="8.28362">
        <ele>526.6</ele>
        <time>2020-07-25T08:24:46Z</time>
      </trkpt>
      <trkpt lat="48.71493" lon="8.28361">
        <ele>527.4</ele>
        <time>2020-07-25T08:24:50Z</time>
      </trkpt>
      <trkpt lat="48.71492" lon="8.2836">
        <ele>527.8</ele>
        <time>2020-07-25T08:24:51Z</time>
      </trkpt>
      <trkpt lat="48.7149" lon="8.2836">
        <ele>528.2</ele>
        <time>2020-07-25T08:24:53Z</time>
      </trkpt>
      <trkpt lat="48.71489" lon="8.2836">
        <ele>528.6</ele>
        <time>2020-07-25T08:24:55Z</time>
      </trkpt>
      <trkpt lat="48.71488" lon="8.2836">
        <ele>528.8</ele>
        <time>2020-07-25T08:24:56Z</time>
      </trkpt>
      <trkpt lat="48.71478" lon="8.28361">
        <ele>529.6</ele>
        <time>2020-07-25T08:25:00Z</time>
      </trkpt>
      <trkpt lat="48.71475" lon="8.2836">
        <ele>530</ele>
        <time>2020-07-25T08:25:02Z</time>
      </trkpt>
      <trkpt lat="48.71473" lon="8.28359">
        <ele>530.4</ele>
        <time>2020-07-25T08:25:04Z</time>
      </trkpt>
      <trkpt lat="48.7147" lon="8.28358">
        <ele>530.6</ele>
        <time>2020-07-25T08:25:06Z</time>
      </trkpt>
      <trkpt lat="48.71466" lon="8.28355">
        <ele>531</ele>
        <time>2020-07-25T08:25:08Z</time>
      </trkpt>
      <trkpt lat="48.71464" lon="8.28353">
        <ele>531.6</ele>
        <time>2020-07-25T08:25:10Z</time>
      </trkpt>
      <trkpt lat="48.7146" lon="8.2835">
        <ele>532.2</ele>
        <time>2020-07-25T08:25:14Z</time>
      </trkpt>
      <trkpt lat="48.71454" lon="8.28348">
        <ele>533.2</ele>
        <time>2020-07-25T08:25:18Z</time>
      </trkpt>
      <trkpt lat="48.71453" lon="8.28347">
        <ele>533.4</ele>
        <time>2020-07-25T08:25:19Z</time>
      </trkpt>
      <trkpt lat="48.71449" lon="8.28344">
        <ele>533.8</ele>
        <time>2020-07-25T08:25:22Z</time>
      </trkpt>
      <trkpt lat="48.71448" lon="8.28342">
        <ele>534.2</ele>
        <time>2020-07-25T08:25:24Z</time>
      </trkpt>
      <trkpt lat="48.71446" lon="8.28341">
        <ele>534.6</ele>
        <time>2020-07-25T08:25:26Z</time>
      </trkpt>
      <trkpt lat="48.71441" lon="8.28339">
        <ele>535.4</ele>
        <time>2020-07-25T08:25:30Z</time>
      </trkpt>
      <trkpt lat="48.71437" lon="8.28338">
        <ele>536.2</ele>
        <time>2020-07-25T08:25:33Z</time>
      </trkpt>
      <trkpt lat="48.71434" lon="8.28337">
        <ele>536.6</ele>
        <time>2020-07-25T08:25:35Z</time>
      </trkpt>
      <trkpt lat="48.71425" lon="8.28334">
        <ele>537.8</ele>
        <time>2020-07-25T08:25:40Z</time>
      </trkpt>
      <trkpt lat="48.71416" lon="8.28335">
        <ele>538.8</ele>
        <time>2020-07-25T08:25:45Z</time>
      </trkpt>
      <trkpt lat="48.71412" lon="8.28334">
        <ele>539.2</ele>
        <time>2020-07-25T08:25:47Z</time>
      </trkpt>
      <trkpt lat="48.71404" lon="8.28333">
        <ele>540</ele>
        <time>2020-07-25T08:25:51Z</time>
      </trkpt>
      <trkpt lat="48.71398" lon="8.28332">
        <ele>540.6</ele>
        <time>2020-07-25T08:25:54Z</time>
      </trkpt>
      <trkpt lat="48.71394" lon="8.28333">
        <ele>541</ele>
        <time>2020-07-25T08:25:56Z</time>
      </trkpt>
      <trkpt lat="48.71385" lon="8.28334">
        <ele>542.2</ele>
        <time>2020-07-25T08:26:01Z</time>
      </trkpt>
      <trkpt lat="48.71383" lon="8.28331">
        <ele>543.2</ele>
        <time>2020-07-25T08:26:06Z</time>
      </trkpt>
      <trkpt lat="48.71382" lon="8.2833">
        <ele>543.4</ele>
        <time>2020-07-25T08:26:07Z</time>
      </trkpt>
      <trkpt lat="48.7138" lon="8.28329">
        <ele>543.6</ele>
        <time>2020-07-25T08:26:09Z</time>
      </trkpt>
      <trkpt lat="48.71377" lon="8.28328">
        <ele>544</ele>
        <time>2020-07-25T08:26:11Z</time>
      </trkpt>
      <trkpt lat="48.71374" lon="8.28326">
        <ele>544.4</ele>
        <time>2020-07-25T08:26:13Z</time>
      </trkpt>
      <trkpt lat="48.71373" lon="8.28325">
        <ele>544.6</ele>
        <time>2020-07-25T08:26:14Z</time>
      </trkpt>
      <trkpt lat="48.71366" lon="8.28321">
        <ele>545.4</ele>
        <time>2020-07-25T08:26:18Z</time>
      </trkpt>
      <trkpt lat="48.71362" lon="8.2832">
        <ele>545.8</ele>
        <time>2020-07-25T08:26:20Z</time>
      </trkpt>
      <trkpt lat="48.71359" lon="8.28317">
        <ele>546.4</ele>
        <time>2020-07-25T08:26:22Z</time>
      </trkpt>
      <trkpt lat="48.7135" lon="8.2831">
        <ele>547.6</ele>
        <time>2020-07-25T08:26:28Z</time>
      </trkpt>
      <trkpt lat="48.71348" lon="8.2831">
        <ele>547.8</ele>
        <time>2020-07-25T08:26:29Z</time>
      </trkpt>
      <trkpt lat="48.71346" lon="8.28309">
        <ele>548</ele>
        <time>2020-07-25T08:26:30Z</time>
      </trkpt>
      <trkpt lat="48.71342" lon="8.28307">
        <ele>548.8</ele>
        <time>2020-07-25T08:26:33Z</time>
      </trkpt>
      <trkpt lat="48.71341" lon="8.28307">
        <ele>549</ele>
        <time>2020-07-25T08:26:34Z</time>
      </trkpt>
      <trkpt lat="48.71333" lon="8.28302">
        <ele>549.8</ele>
        <time>2020-07-25T08:26:38Z</time>
      </trkpt>
      <trkpt lat="48.71329" lon="8.283">
        <ele>550.6</ele>
        <time>2020-07-25T08:26:41Z</time>
      </trkpt>
      <trkpt lat="48.71328" lon="8.28299">
        <ele>550.6</ele>
        <time>2020-07-25T08:26:42Z</time>
      </trkpt>
      <trkpt lat="48.71324" lon="8.28297">
        <ele>550.8</ele>
        <time>2020-07-25T08:26:44Z</time>
      </trkpt>
      <trkpt lat="48.71318" lon="8.28291">
        <ele>551.6</ele>
        <time>2020-07-25T08:26:47Z</time>
      </trkpt>
      <trkpt lat="48.71315" lon="8.28292">
        <ele>551.8</ele>
        <time>2020-07-25T08:26:48Z</time>
      </trkpt>
      <trkpt lat="48.71314" lon="8.28292">
        <ele>552</ele>
        <time>2020-07-25T08:26:49Z</time>
      </trkpt>
      <trkpt lat="48.71309" lon="8.28289">
        <ele>553</ele>
        <time>2020-07-25T08:26:54Z</time>
      </trkpt>
      <trkpt lat="48.71304" lon="8.28285">
        <ele>553.8</ele>
        <time>2020-07-25T08:26:58Z</time>
      </trkpt>
      <trkpt lat="48.71302" lon="8.28283">
        <ele>554.2</ele>
        <time>2020-07-25T08:27:00Z</time>
      </trkpt>
      <trkpt lat="48.71295" lon="8.28279">
        <ele>555</ele>
        <time>2020-07-25T08:27:05Z</time>
      </trkpt>
      <trkpt lat="48.71294" lon="8.28278">
        <ele>555.2</ele>
        <time>2020-07-25T08:27:06Z</time>
      </trkpt>
      <trkpt lat="48.71288" lon="8.28275">
        <ele>556</ele>
        <time>2020-07-25T08:27:10Z</time>
      </trkpt>
      <trkpt lat="48.71285" lon="8.28273">
        <ele>556.4</ele>
        <time>2020-07-25T08:27:12Z</time>
      </trkpt>
      <trkpt lat="48.71279" lon="8.28269">
        <ele>557.4</ele>
        <time>2020-07-25T08:27:17Z</time>
      </trkpt>
      <trkpt lat="48.71278" lon="8.28268">
        <ele>557.4</ele>
        <time>2020-07-25T08:27:18Z</time>
      </trkpt>
      <trkpt lat="48.71277" lon="8.28267">
        <ele>557.8</ele>
        <time>2020-07-25T08:27:19Z</time>
      </trkpt>
      <trkpt lat="48.7127" lon="8.28264">
        <ele>558.6</ele>
        <time>2020-07-25T08:27:23Z</time>
      </trkpt>
      <trkpt lat="48.71265" lon="8.2826">
        <ele>559</ele>
        <time>2020-07-25T08:27:26Z</time>
      </trkpt>
      <trkpt lat="48.7126" lon="8.28258">
        <ele>559.4</ele>
        <time>2020-07-25T08:27:28Z</time>
      </trkpt>
      <trkpt lat="48.71257" lon="8.28257">
        <ele>560.2</ele>
        <time>2020-07-25T08:27:31Z</time>
      </trkpt>
      <trkpt lat="48.71255" lon="8.28256">
        <ele>560.6</ele>
        <time>2020-07-25T08:27:33Z</time>
      </trkpt>
      <trkpt lat="48.7125" lon="8.28253">
        <ele>561.2</ele>
        <time>2020-07-25T08:27:36Z</time>
      </trkpt>
      <trkpt lat="48.71248" lon="8.28252">
        <ele>561.8</ele>
        <time>2020-07-25T08:27:38Z</time>
      </trkpt>
      <trkpt lat="48.71246" lon="8.2825">
        <ele>562</ele>
        <time>2020-07-25T08:27:40Z</time>
      </trkpt>
      <trkpt lat="48.71243" lon="8.28249">
        <ele>562.2</ele>
        <time>2020-07-25T08:27:41Z</time>
      </trkpt>
      <trkpt lat="48.71237" lon="8.28249">
        <ele>562.8</ele>
        <time>2020-07-25T08:27:44Z</time>
      </trkpt>
      <trkpt lat="48.7123" lon="8.28246">
        <ele>563.8</ele>
        <time>2020-07-25T08:27:49Z</time>
      </trkpt>
      <trkpt lat="48.71228" lon="8.28245">
        <ele>564</ele>
        <time>2020-07-25T08:27:50Z</time>
      </trkpt>
      <trkpt lat="48.71224" lon="8.2824">
        <ele>565</ele>
        <time>2020-07-25T08:27:54Z</time>
      </trkpt>
      <trkpt lat="48.71219" lon="8.28235">
        <ele>565.8</ele>
        <time>2020-07-25T08:27:59Z</time>
      </trkpt>
      <trkpt lat="48.71215" lon="8.28233">
        <ele>566.4</ele>
        <time>2020-07-25T08:28:02Z</time>
      </trkpt>
      <trkpt lat="48.71213" lon="8.28231">
        <ele>566.8</ele>
        <time>2020-07-25T08:28:04Z</time>
      </trkpt>
      <trkpt lat="48.71211" lon="8.2823">
        <ele>567</ele>
        <time>2020-07-25T08:28:05Z</time>
      </trkpt>
      <trkpt lat="48.71209" lon="8.28228">
        <ele>567.4</ele>
        <time>2020-07-25T08:28:07Z</time>
      </trkpt>
      <trkpt lat="48.71206" lon="8.28224">
        <ele>568</ele>
        <time>2020-07-25T08:28:11Z</time>
      </trkpt>
      <trkpt lat="48.71203" lon="8.28221">
        <ele>568.6</ele>
        <time>2020-07-25T08:28:13Z</time>
      </trkpt>
      <trkpt lat="48.71195" lon="8.28218">
        <ele>569</ele>
        <time>2020-07-25T08:28:17Z</time>
      </trkpt>
      <trkpt lat="48.71193" lon="8.28217">
        <ele>569.2</ele>
        <time>2020-07-25T08:28:18Z</time>
      </trkpt>
      <trkpt lat="48.7119" lon="8.28216">
        <ele>569.2</ele>
        <time>2020-07-25T08:28:19Z</time>
      </trkpt>
      <trkpt lat="48.71178" lon="8.28213">
        <ele>570.2</ele>
        <time>2020-07-25T08:28:25Z</time>
      </trkpt>
      <trkpt lat="48.71176" lon="8.28212">
        <ele>570.6</ele>
        <time>2020-07-25T08:28:26Z</time>
      </trkpt>
      <trkpt lat="48.71171" lon="8.28211">
        <ele>571</ele>
        <time>2020-07-25T08:28:29Z</time>
      </trkpt>
      <trkpt lat="48.71168" lon="8.28211">
        <ele>571.2</ele>
        <time>2020-07-25T08:28:31Z</time>
      </trkpt>
      <trkpt lat="48.71167" lon="8.28212">
        <ele>571.4</ele>
        <time>2020-07-25T08:28:32Z</time>
      </trkpt>
      <trkpt lat="48.71165" lon="8.28212">
        <ele>571.6</ele>
        <time>2020-07-25T08:28:33Z</time>
      </trkpt>
      <trkpt lat="48.71162" lon="8.28212">
        <ele>571.8</ele>
        <time>2020-07-25T08:28:35Z</time>
      </trkpt>
      <trkpt lat="48.7116" lon="8.28211">
        <ele>572.2</ele>
        <time>2020-07-25T08:28:37Z</time>
      </trkpt>
      <trkpt lat="48.71159" lon="8.28211">
        <ele>572.4</ele>
        <time>2020-07-25T08:28:38Z</time>
      </trkpt>
      <trkpt lat="48.7115" lon="8.28208">
        <ele>573.2</ele>
        <time>2020-07-25T08:28:44Z</time>
      </trkpt>
      <trkpt lat="48.71148" lon="8.28205">
        <ele>573.6</ele>
        <time>2020-07-25T08:28:46Z</time>
      </trkpt>
      <trkpt lat="48.71144" lon="8.282">
        <ele>574</ele>
        <time>2020-07-25T08:28:49Z</time>
      </trkpt>
      <trkpt lat="48.71142" lon="8.28199">
        <ele>574</ele>
        <time>2020-07-25T08:28:50Z</time>
      </trkpt>
      <trkpt lat="48.71136" lon="8.28195">
        <ele>574.6</ele>
        <time>2020-07-25T08:28:54Z</time>
      </trkpt>
      <trkpt lat="48.71133" lon="8.28193">
        <ele>574.8</ele>
        <time>2020-07-25T08:28:56Z</time>
      </trkpt>
      <trkpt lat="48.71123" lon="8.28189">
        <ele>575.8</ele>
        <time>2020-07-25T08:29:02Z</time>
      </trkpt>
      <trkpt lat="48.71122" lon="8.28188">
        <ele>576</ele>
        <time>2020-07-25T08:29:03Z</time>
      </trkpt>
      <trkpt lat="48.71112" lon="8.28188">
        <ele>576.8</ele>
        <time>2020-07-25T08:29:08Z</time>
      </trkpt>
      <trkpt lat="48.71109" lon="8.28187">
        <ele>577.2</ele>
        <time>2020-07-25T08:29:10Z</time>
      </trkpt>
      <trkpt lat="48.71104" lon="8.28181">
        <ele>578</ele>
        <time>2020-07-25T08:29:15Z</time>
      </trkpt>
      <trkpt lat="48.71102" lon="8.28179">
        <ele>578.4</ele>
        <time>2020-07-25T08:29:17Z</time>
      </trkpt>
      <trkpt lat="48.71101" lon="8.28176">
        <ele>578.6</ele>
        <time>2020-07-25T08:29:19Z</time>
      </trkpt>
      <trkpt lat="48.71098" lon="8.28174">
        <ele>579</ele>
        <time>2020-07-25T08:29:22Z</time>
      </trkpt>
      <trkpt lat="48.71095" lon="8.28173">
        <ele>579.6</ele>
        <time>2020-07-25T08:29:25Z</time>
      </trkpt>
      <trkpt lat="48.71092" lon="8.2817">
        <ele>580.2</ele>
        <time>2020-07-25T08:29:28Z</time>
      </trkpt>
      <trkpt lat="48.71086" lon="8.28167">
        <ele>580.6</ele>
        <time>2020-07-25T08:29:33Z</time>
      </trkpt>
      <trkpt lat="48.71076" lon="8.28161">
        <ele>581</ele>
        <time>2020-07-25T08:29:38Z</time>
      </trkpt>
      <trkpt lat="48.71074" lon="8.2816">
        <ele>581.2</ele>
        <time>2020-07-25T08:29:39Z</time>
      </trkpt>
      <trkpt lat="48.71072" lon="8.28158">
        <ele>581.6</ele>
        <time>2020-07-25T08:29:42Z</time>
      </trkpt>
      <trkpt lat="48.7107" lon="8.28155">
        <ele>581.6</ele>
        <time>2020-07-25T08:29:44Z</time>
      </trkpt>
      <trkpt lat="48.71065" lon="8.28152">
        <ele>582.2</ele>
        <time>2020-07-25T08:29:48Z</time>
      </trkpt>
      <trkpt lat="48.71061" lon="8.2815">
        <ele>582.8</ele>
        <time>2020-07-25T08:29:51Z</time>
      </trkpt>
      <trkpt lat="48.71058" lon="8.28147">
        <ele>583.4</ele>
        <time>2020-07-25T08:29:54Z</time>
      </trkpt>
      <trkpt lat="48.71053" lon="8.28142">
        <ele>584.2</ele>
        <time>2020-07-25T08:29:59Z</time>
      </trkpt>
      <trkpt lat="48.71051" lon="8.28142">
        <ele>584.4</ele>
        <time>2020-07-25T08:30:00Z</time>
      </trkpt>
      <trkpt lat="48.71047" lon="8.28139">
        <ele>585.2</ele>
        <time>2020-07-25T08:30:04Z</time>
      </trkpt>
      <trkpt lat="48.71046" lon="8.28137">
        <ele>585.4</ele>
        <time>2020-07-25T08:30:05Z</time>
      </trkpt>
      <trkpt lat="48.71044" lon="8.28137">
        <ele>585.6</ele>
        <time>2020-07-25T08:30:06Z</time>
      </trkpt>
      <trkpt lat="48.7104" lon="8.28135">
        <ele>586.2</ele>
        <time>2020-07-25T08:30:10Z</time>
      </trkpt>
      <trkpt lat="48.71037" lon="8.28135">
        <ele>586.6</ele>
        <time>2020-07-25T08:30:12Z</time>
      </trkpt>
      <trkpt lat="48.71029" lon="8.2813">
        <ele>587.6</ele>
        <time>2020-07-25T08:30:17Z</time>
      </trkpt>
      <trkpt lat="48.71027" lon="8.28129">
        <ele>587.8</ele>
        <time>2020-07-25T08:30:18Z</time>
      </trkpt>
      <trkpt lat="48.71018" lon="8.28124">
        <ele>588.6</ele>
        <time>2020-07-25T08:30:24Z</time>
      </trkpt>
      <trkpt lat="48.71017" lon="8.28124">
        <ele>588.8</ele>
        <time>2020-07-25T08:30:25Z</time>
      </trkpt>
      <trkpt lat="48.71014" lon="8.28123">
        <ele>589</ele>
        <time>2020-07-25T08:30:27Z</time>
      </trkpt>
      <trkpt lat="48.7101" lon="8.2812">
        <ele>589.6</ele>
        <time>2020-07-25T08:30:30Z</time>
      </trkpt>
      <trkpt lat="48.71007" lon="8.28119">
        <ele>589.8</ele>
        <time>2020-07-25T08:30:32Z</time>
      </trkpt>
      <trkpt lat="48.71003" lon="8.28113">
        <ele>590.4</ele>
        <time>2020-07-25T08:30:36Z</time>
      </trkpt>
      <trkpt lat="48.71" lon="8.28112">
        <ele>590.8</ele>
        <time>2020-07-25T08:30:38Z</time>
      </trkpt>
      <trkpt lat="48.70989" lon="8.28105">
        <ele>592</ele>
        <time>2020-07-25T08:30:46Z</time>
      </trkpt>
      <trkpt lat="48.70988" lon="8.28104">
        <ele>592.2</ele>
        <time>2020-07-25T08:30:47Z</time>
      </trkpt>
      <trkpt lat="48.70985" lon="8.28102">
        <ele>592.4</ele>
        <time>2020-07-25T08:30:49Z</time>
      </trkpt>
      <trkpt lat="48.70983" lon="8.28101">
        <ele>592.8</ele>
        <time>2020-07-25T08:30:51Z</time>
      </trkpt>
      <trkpt lat="48.70979" lon="8.28099">
        <ele>593</ele>
        <time>2020-07-25T08:30:53Z</time>
      </trkpt>
      <trkpt lat="48.70974" lon="8.28096">
        <ele>593.6</ele>
        <time>2020-07-25T08:30:56Z</time>
      </trkpt>
      <trkpt lat="48.70969" lon="8.28093">
        <ele>594.2</ele>
        <time>2020-07-25T08:30:59Z</time>
      </trkpt>
      <trkpt lat="48.70966" lon="8.2809">
        <ele>595.2</ele>
        <time>2020-07-25T08:31:03Z</time>
      </trkpt>
      <trkpt lat="48.70964" lon="8.28089">
        <ele>595.4</ele>
        <time>2020-07-25T08:31:04Z</time>
      </trkpt>
      <trkpt lat="48.7096" lon="8.28086">
        <ele>595.6</ele>
        <time>2020-07-25T08:31:06Z</time>
      </trkpt>
      <trkpt lat="48.70957" lon="8.28083">
        <ele>595.8</ele>
        <time>2020-07-25T08:31:08Z</time>
      </trkpt>
      <trkpt lat="48.70955" lon="8.2808">
        <ele>596.4</ele>
        <time>2020-07-25T08:31:10Z</time>
      </trkpt>
      <trkpt lat="48.70952" lon="8.28077">
        <ele>596.6</ele>
        <time>2020-07-25T08:31:12Z</time>
      </trkpt>
      <trkpt lat="48.70948" lon="8.28076">
        <ele>597</ele>
        <time>2020-07-25T08:31:14Z</time>
      </trkpt>
      <trkpt lat="48.70946" lon="8.28076">
        <ele>597.2</ele>
        <time>2020-07-25T08:31:15Z</time>
      </trkpt>
      <trkpt lat="48.70944" lon="8.28074">
        <ele>597.4</ele>
        <time>2020-07-25T08:31:16Z</time>
      </trkpt>
      <trkpt lat="48.70941" lon="8.28073">
        <ele>597.6</ele>
        <time>2020-07-25T08:31:18Z</time>
      </trkpt>
      <trkpt lat="48.70939" lon="8.28074">
        <ele>597.8</ele>
        <time>2020-07-25T08:31:19Z</time>
      </trkpt>
      <trkpt lat="48.70938" lon="8.28073">
        <ele>598</ele>
        <time>2020-07-25T08:31:20Z</time>
      </trkpt>
      <trkpt lat="48.70932" lon="8.28069">
        <ele>598.4</ele>
        <time>2020-07-25T08:31:24Z</time>
      </trkpt>
      <trkpt lat="48.70923" lon="8.28066">
        <ele>599.6</ele>
        <time>2020-07-25T08:31:30Z</time>
      </trkpt>
      <trkpt lat="48.70918" lon="8.28064">
        <ele>600.2</ele>
        <time>2020-07-25T08:31:33Z</time>
      </trkpt>
      <trkpt lat="48.70912" lon="8.28062">
        <ele>600.6</ele>
        <time>2020-07-25T08:31:36Z</time>
      </trkpt>
      <trkpt lat="48.70905" lon="8.28061">
        <ele>601.4</ele>
        <time>2020-07-25T08:31:40Z</time>
      </trkpt>
      <trkpt lat="48.70902" lon="8.28058">
        <ele>601.8</ele>
        <time>2020-07-25T08:31:42Z</time>
      </trkpt>
      <trkpt lat="48.70896" lon="8.28055">
        <ele>602.4</ele>
        <time>2020-07-25T08:31:46Z</time>
      </trkpt>
      <trkpt lat="48.70894" lon="8.28055">
        <ele>602.6</ele>
        <time>2020-07-25T08:31:47Z</time>
      </trkpt>
      <trkpt lat="48.70893" lon="8.28054">
        <ele>602.8</ele>
        <time>2020-07-25T08:31:48Z</time>
      </trkpt>
      <trkpt lat="48.70886" lon="8.28054">
        <ele>603.6</ele>
        <time>2020-07-25T08:31:53Z</time>
      </trkpt>
      <trkpt lat="48.70883" lon="8.28055">
        <ele>604</ele>
        <time>2020-07-25T08:31:55Z</time>
      </trkpt>
      <trkpt lat="48.70882" lon="8.28056">
        <ele>604</ele>
        <time>2020-07-25T08:31:56Z</time>
      </trkpt>
      <trkpt lat="48.70879" lon="8.2806">
        <ele>604.4</ele>
        <time>2020-07-25T08:31:59Z</time>
      </trkpt>
      <trkpt lat="48.70877" lon="8.28062">
        <ele>604.6</ele>
        <time>2020-07-25T08:32:00Z</time>
      </trkpt>
      <trkpt lat="48.70873" lon="8.28065">
        <ele>605</ele>
        <time>2020-07-25T08:32:03Z</time>
      </trkpt>
      <trkpt lat="48.70869" lon="8.28069">
        <ele>605</ele>
        <time>2020-07-25T08:32:05Z</time>
      </trkpt>
      <trkpt lat="48.70866" lon="8.28071">
        <ele>605.4</ele>
        <time>2020-07-25T08:32:07Z</time>
      </trkpt>
      <trkpt lat="48.70864" lon="8.28078">
        <ele>606</ele>
        <time>2020-07-25T08:32:10Z</time>
      </trkpt>
      <trkpt lat="48.7086" lon="8.28091">
        <ele>607.2</ele>
        <time>2020-07-25T08:32:16Z</time>
      </trkpt>
      <trkpt lat="48.70858" lon="8.28103">
        <ele>608.2</ele>
        <time>2020-07-25T08:32:21Z</time>
      </trkpt>
      <trkpt lat="48.70857" lon="8.2812">
        <ele>609.4</ele>
        <time>2020-07-25T08:32:28Z</time>
      </trkpt>
      <trkpt lat="48.70856" lon="8.28129">
        <ele>610</ele>
        <time>2020-07-25T08:32:32Z</time>
      </trkpt>
      <trkpt lat="48.70856" lon="8.28133">
        <ele>610.2</ele>
        <time>2020-07-25T08:32:34Z</time>
      </trkpt>
      <trkpt lat="48.70856" lon="8.28136">
        <ele>610.4</ele>
        <time>2020-07-25T08:32:35Z</time>
      </trkpt>
      <trkpt lat="48.70855" lon="8.28151">
        <ele>611.2</ele>
        <time>2020-07-25T08:32:41Z</time>
      </trkpt>
      <trkpt lat="48.70855" lon="8.28156">
        <ele>611.6</ele>
        <time>2020-07-25T08:32:43Z</time>
      </trkpt>
      <trkpt lat="48.70854" lon="8.2817">
        <ele>612.2</ele>
        <time>2020-07-25T08:32:48Z</time>
      </trkpt>
      <trkpt lat="48.70853" lon="8.28176">
        <ele>612.6</ele>
        <time>2020-07-25T08:32:50Z</time>
      </trkpt>
      <trkpt lat="48.70853" lon="8.28188">
        <ele>613.4</ele>
        <time>2020-07-25T08:32:55Z</time>
      </trkpt>
      <trkpt lat="48.70854" lon="8.28194">
        <ele>613.8</ele>
        <time>2020-07-25T08:32:57Z</time>
      </trkpt>
      <trkpt lat="48.70854" lon="8.28195">
        <ele>614</ele>
        <time>2020-07-25T08:32:58Z</time>
      </trkpt>
      <trkpt lat="48.70855" lon="8.28203">
        <ele>614.4</ele>
        <time>2020-07-25T08:33:01Z</time>
      </trkpt>
      <trkpt lat="48.70855" lon="8.28207">
        <ele>614.8</ele>
        <time>2020-07-25T08:33:03Z</time>
      </trkpt>
      <trkpt lat="48.70854" lon="8.28221">
        <ele>615.8</ele>
        <time>2020-07-25T08:33:09Z</time>
      </trkpt>
      <trkpt lat="48.70854" lon="8.28222">
        <ele>616</ele>
        <time>2020-07-25T08:33:10Z</time>
      </trkpt>
      <trkpt lat="48.70853" lon="8.28237">
        <ele>617</ele>
        <time>2020-07-25T08:33:16Z</time>
      </trkpt>
      <trkpt lat="48.70853" lon="8.28241">
        <ele>617.2</ele>
        <time>2020-07-25T08:33:18Z</time>
      </trkpt>
      <trkpt lat="48.70851" lon="8.2825">
        <ele>618</ele>
        <time>2020-07-25T08:33:22Z</time>
      </trkpt>
      <trkpt lat="48.7085" lon="8.28257">
        <ele>618.8</ele>
        <time>2020-07-25T08:33:25Z</time>
      </trkpt>
      <trkpt lat="48.7085" lon="8.28265">
        <ele>619.2</ele>
        <time>2020-07-25T08:33:28Z</time>
      </trkpt>
      <trkpt lat="48.70851" lon="8.28268">
        <ele>619.4</ele>
        <time>2020-07-25T08:33:29Z</time>
      </trkpt>
      <trkpt lat="48.7085" lon="8.28274">
        <ele>619.8</ele>
        <time>2020-07-25T08:33:31Z</time>
      </trkpt>
      <trkpt lat="48.70852" lon="8.28282">
        <ele>620</ele>
        <time>2020-07-25T08:33:34Z</time>
      </trkpt>
      <trkpt lat="48.70853" lon="8.28291">
        <ele>620.8</ele>
        <time>2020-07-25T08:33:38Z</time>
      </trkpt>
      <trkpt lat="48.70854" lon="8.28295">
        <ele>621</ele>
        <time>2020-07-25T08:33:40Z</time>
      </trkpt>
      <trkpt lat="48.70851" lon="8.28308">
        <ele>622.2</ele>
        <time>2020-07-25T08:33:45Z</time>
      </trkpt>
      <trkpt lat="48.7085" lon="8.28311">
        <ele>622.4</ele>
        <time>2020-07-25T08:33:46Z</time>
      </trkpt>
      <trkpt lat="48.70848" lon="8.28322">
        <ele>623.2</ele>
        <time>2020-07-25T08:33:51Z</time>
      </trkpt>
      <trkpt lat="48.70848" lon="8.28331">
        <ele>624</ele>
        <time>2020-07-25T08:33:55Z</time>
      </trkpt>
      <trkpt lat="48.70848" lon="8.28332">
        <ele>624</ele>
        <time>2020-07-25T08:33:57Z</time>
      </trkpt>
      <trkpt lat="48.70848" lon="8.28334">
        <ele>624.2</ele>
        <time>2020-07-25T08:33:58Z</time>
      </trkpt>
      <trkpt lat="48.70847" lon="8.28335">
        <ele>624.6</ele>
        <time>2020-07-25T08:33:59Z</time>
      </trkpt>
      <trkpt lat="48.70845" lon="8.28346">
        <ele>625.4</ele>
        <time>2020-07-25T08:34:04Z</time>
      </trkpt>
      <trkpt lat="48.70843" lon="8.28351">
        <ele>625.8</ele>
        <time>2020-07-25T08:34:07Z</time>
      </trkpt>
      <trkpt lat="48.70842" lon="8.28358">
        <ele>626.4</ele>
        <time>2020-07-25T08:34:10Z</time>
      </trkpt>
      <trkpt lat="48.70839" lon="8.28365">
        <ele>627</ele>
        <time>2020-07-25T08:34:13Z</time>
      </trkpt>
      <trkpt lat="48.70836" lon="8.28373">
        <ele>627.4</ele>
        <time>2020-07-25T08:34:16Z</time>
      </trkpt>
      <trkpt lat="48.70833" lon="8.28386">
        <ele>628.2</ele>
        <time>2020-07-25T08:34:20Z</time>
      </trkpt>
      <trkpt lat="48.70833" lon="8.28389">
        <ele>628.4</ele>
        <time>2020-07-25T08:34:22Z</time>
      </trkpt>
      <trkpt lat="48.70828" lon="8.28398">
        <ele>629</ele>
        <time>2020-07-25T08:34:24Z</time>
      </trkpt>
      <trkpt lat="48.70827" lon="8.28403">
        <ele>629.2</ele>
        <time>2020-07-25T08:34:26Z</time>
      </trkpt>
      <trkpt lat="48.70827" lon="8.28405">
        <ele>629.4</ele>
        <time>2020-07-25T08:34:27Z</time>
      </trkpt>
      <trkpt lat="48.70824" lon="8.2842">
        <ele>630.4</ele>
        <time>2020-07-25T08:34:33Z</time>
      </trkpt>
      <trkpt lat="48.70823" lon="8.28426">
        <ele>630.8</ele>
        <time>2020-07-25T08:34:35Z</time>
      </trkpt>
      <trkpt lat="48.70823" lon="8.28435">
        <ele>631.4</ele>
        <time>2020-07-25T08:34:38Z</time>
      </trkpt>
      <trkpt lat="48.70822" lon="8.28437">
        <ele>631.6</ele>
        <time>2020-07-25T08:34:39Z</time>
      </trkpt>
      <trkpt lat="48.70819" lon="8.28444">
        <ele>632.2</ele>
        <time>2020-07-25T08:34:43Z</time>
      </trkpt>
      <trkpt lat="48.70816" lon="8.2845">
        <ele>632.4</ele>
        <time>2020-07-25T08:34:46Z</time>
      </trkpt>
      <trkpt lat="48.70814" lon="8.28456">
        <ele>632.8</ele>
        <time>2020-07-25T08:34:49Z</time>
      </trkpt>
      <trkpt lat="48.70812" lon="8.28461">
        <ele>633.2</ele>
        <time>2020-07-25T08:34:51Z</time>
      </trkpt>
      <trkpt lat="48.70806" lon="8.28465">
        <ele>633.4</ele>
        <time>2020-07-25T08:34:54Z</time>
      </trkpt>
      <trkpt lat="48.70802" lon="8.28472">
        <ele>633.6</ele>
        <time>2020-07-25T08:34:57Z</time>
      </trkpt>
      <trkpt lat="48.70797" lon="8.28478">
        <ele>633.8</ele>
        <time>2020-07-25T08:35:00Z</time>
      </trkpt>
      <trkpt lat="48.70786" lon="8.28488">
        <ele>634.2</ele>
        <time>2020-07-25T08:35:06Z</time>
      </trkpt>
      <trkpt lat="48.70779" lon="8.28497">
        <ele>634.8</ele>
        <time>2020-07-25T08:35:10Z</time>
      </trkpt>
      <trkpt lat="48.70772" lon="8.28504">
        <ele>635</ele>
        <time>2020-07-25T08:35:14Z</time>
      </trkpt>
      <trkpt lat="48.70763" lon="8.28511">
        <ele>635.6</ele>
        <time>2020-07-25T08:35:18Z</time>
      </trkpt>
      <trkpt lat="48.70751" lon="8.28523">
        <ele>636.8</ele>
        <time>2020-07-25T08:35:25Z</time>
      </trkpt>
      <trkpt lat="48.70745" lon="8.28527">
        <ele>637.4</ele>
        <time>2020-07-25T08:35:29Z</time>
      </trkpt>
      <trkpt lat="48.70743" lon="8.28526">
        <ele>637.8</ele>
        <time>2020-07-25T08:35:32Z</time>
      </trkpt>
      <trkpt lat="48.70743" lon="8.28526">
        <ele>638.2</ele>
        <time>2020-07-25T08:35:35Z</time>
      </trkpt>
      <trkpt lat="48.70737" lon="8.2853">
        <ele>638.8</ele>
        <time>2020-07-25T08:35:57Z</time>
      </trkpt>
      <trkpt lat="48.70735" lon="8.28531">
        <ele>638.8</ele>
        <time>2020-07-25T08:35:58Z</time>
      </trkpt>
      <trkpt lat="48.70733" lon="8.28532">
        <ele>638.8</ele>
        <time>2020-07-25T08:35:59Z</time>
      </trkpt>
      <trkpt lat="48.70724" lon="8.28537">
        <ele>639</ele>
        <time>2020-07-25T08:36:02Z</time>
      </trkpt>
      <trkpt lat="48.70708" lon="8.28541">
        <ele>639.4</ele>
        <time>2020-07-25T08:36:08Z</time>
      </trkpt>
      <trkpt lat="48.707" lon="8.2854">
        <ele>639.8</ele>
        <time>2020-07-25T08:36:11Z</time>
      </trkpt>
      <trkpt lat="48.70698" lon="8.28538">
        <ele>640</ele>
        <time>2020-07-25T08:36:12Z</time>
      </trkpt>
      <trkpt lat="48.70696" lon="8.28536">
        <ele>640</ele>
        <time>2020-07-25T08:36:13Z</time>
      </trkpt>
      <trkpt lat="48.70677" lon="8.28529">
        <ele>640.6</ele>
        <time>2020-07-25T08:36:19Z</time>
      </trkpt>
      <trkpt lat="48.70667" lon="8.28522">
        <ele>641</ele>
        <time>2020-07-25T08:36:22Z</time>
      </trkpt>
      <trkpt lat="48.7066" lon="8.2852">
        <ele>641.2</ele>
        <time>2020-07-25T08:36:24Z</time>
      </trkpt>
      <trkpt lat="48.70638" lon="8.28507">
        <ele>641.8</ele>
        <time>2020-07-25T08:36:30Z</time>
      </trkpt>
      <trkpt lat="48.70621" lon="8.28495">
        <ele>642</ele>
        <time>2020-07-25T08:36:35Z</time>
      </trkpt>
      <trkpt lat="48.70612" lon="8.28493">
        <ele>642.2</ele>
        <time>2020-07-25T08:36:37Z</time>
      </trkpt>
      <trkpt lat="48.70594" lon="8.28475">
        <ele>643</ele>
        <time>2020-07-25T08:36:43Z</time>
      </trkpt>
      <trkpt lat="48.70589" lon="8.28468">
        <ele>643.2</ele>
        <time>2020-07-25T08:36:45Z</time>
      </trkpt>
      <trkpt lat="48.70565" lon="8.28448">
        <ele>643.8</ele>
        <time>2020-07-25T08:36:53Z</time>
      </trkpt>
      <trkpt lat="48.7055" lon="8.28436">
        <ele>644.2</ele>
        <time>2020-07-25T08:36:58Z</time>
      </trkpt>
      <trkpt lat="48.70547" lon="8.28434">
        <ele>644.2</ele>
        <time>2020-07-25T08:36:59Z</time>
      </trkpt>
      <trkpt lat="48.7052" lon="8.28419">
        <ele>645</ele>
        <time>2020-07-25T08:37:07Z</time>
      </trkpt>
      <trkpt lat="48.70488" lon="8.28418">
        <ele>646</ele>
        <time>2020-07-25T08:37:16Z</time>
      </trkpt>
      <trkpt lat="48.70484" lon="8.2842">
        <ele>646</ele>
        <time>2020-07-25T08:37:17Z</time>
      </trkpt>
      <trkpt lat="48.70472" lon="8.28425">
        <ele>646.6</ele>
        <time>2020-07-25T08:37:21Z</time>
      </trkpt>
      <trkpt lat="48.70451" lon="8.28432">
        <ele>647</ele>
        <time>2020-07-25T08:37:27Z</time>
      </trkpt>
      <trkpt lat="48.70448" lon="8.28433">
        <ele>647.2</ele>
        <time>2020-07-25T08:37:28Z</time>
      </trkpt>
      <trkpt lat="48.7042" lon="8.28436">
        <ele>647.8</ele>
        <time>2020-07-25T08:37:36Z</time>
      </trkpt>
      <trkpt lat="48.70403" lon="8.28428">
        <ele>647.8</ele>
        <time>2020-07-25T08:37:41Z</time>
      </trkpt>
      <trkpt lat="48.70395" lon="8.28426">
        <ele>648</ele>
        <time>2020-07-25T08:37:43Z</time>
      </trkpt>
      <trkpt lat="48.70381" lon="8.28416">
        <ele>648.4</ele>
        <time>2020-07-25T08:37:47Z</time>
      </trkpt>
      <trkpt lat="48.70355" lon="8.28398">
        <ele>649</ele>
        <time>2020-07-25T08:37:54Z</time>
      </trkpt>
      <trkpt lat="48.70352" lon="8.28394">
        <ele>649.2</ele>
        <time>2020-07-25T08:37:55Z</time>
      </trkpt>
      <trkpt lat="48.70333" lon="8.28376">
        <ele>649.8</ele>
        <time>2020-07-25T08:38:01Z</time>
      </trkpt>
      <trkpt lat="48.70327" lon="8.28369">
        <ele>650.2</ele>
        <time>2020-07-25T08:38:03Z</time>
      </trkpt>
      <trkpt lat="48.70307" lon="8.28349">
        <ele>650.8</ele>
        <time>2020-07-25T08:38:10Z</time>
      </trkpt>
      <trkpt lat="48.7029" lon="8.28329">
        <ele>651.2</ele>
        <time>2020-07-25T08:38:16Z</time>
      </trkpt>
      <trkpt lat="48.70282" lon="8.28321">
        <ele>651.2</ele>
        <time>2020-07-25T08:38:19Z</time>
      </trkpt>
      <trkpt lat="48.7026" lon="8.28298">
        <ele>652.2</ele>
        <time>2020-07-25T08:38:27Z</time>
      </trkpt>
      <trkpt lat="48.70257" lon="8.28295">
        <ele>652.4</ele>
        <time>2020-07-25T08:38:28Z</time>
      </trkpt>
      <trkpt lat="48.70232" lon="8.28279">
        <ele>653.4</ele>
        <time>2020-07-25T08:38:36Z</time>
      </trkpt>
      <trkpt lat="48.70225" lon="8.28277">
        <ele>653.6</ele>
        <time>2020-07-25T08:38:38Z</time>
      </trkpt>
      <trkpt lat="48.70202" lon="8.28263">
        <ele>654</ele>
        <time>2020-07-25T08:38:46Z</time>
      </trkpt>
      <trkpt lat="48.70187" lon="8.28256">
        <ele>654.4</ele>
        <time>2020-07-25T08:38:51Z</time>
      </trkpt>
      <trkpt lat="48.70178" lon="8.28251">
        <ele>654.6</ele>
        <time>2020-07-25T08:38:54Z</time>
      </trkpt>
      <trkpt lat="48.70165" lon="8.28242">
        <ele>655</ele>
        <time>2020-07-25T08:39:00Z</time>
      </trkpt>
      <trkpt lat="48.7016" lon="8.28242">
        <ele>655</ele>
        <time>2020-07-25T08:39:03Z</time>
      </trkpt>
      <trkpt lat="48.70158" lon="8.28246">
        <ele>655.2</ele>
        <time>2020-07-25T08:39:05Z</time>
      </trkpt>
      <trkpt lat="48.70161" lon="8.28248">
        <ele>655.6</ele>
        <time>2020-07-25T08:39:07Z</time>
      </trkpt>
      <trkpt lat="48.70166" lon="8.28249">
        <ele>655.8</ele>
        <time>2020-07-25T08:39:09Z</time>
      </trkpt>
      <trkpt lat="48.70168" lon="8.28248">
        <ele>655.8</ele>
        <time>2020-07-25T08:39:10Z</time>
      </trkpt>
      <trkpt lat="48.70174" lon="8.28243">
        <ele>655.8</ele>
        <time>2020-07-25T08:39:13Z</time>
      </trkpt>
      <trkpt lat="48.70175" lon="8.28242">
        <ele>656</ele>
        <time>2020-07-25T08:39:16Z</time>
      </trkpt>
      <trkpt lat="48.70172" lon="8.28245">
        <ele>656</ele>
        <time>2020-07-25T08:40:07Z</time>
      </trkpt>
      <trkpt lat="48.70167" lon="8.28245">
        <ele>655.8</ele>
        <time>2020-07-25T08:40:09Z</time>
      </trkpt>
      <trkpt lat="48.70153" lon="8.28242">
        <ele>655.8</ele>
        <time>2020-07-25T08:40:15Z</time>
      </trkpt>
      <trkpt lat="48.70143" lon="8.28243">
        <ele>655.8</ele>
        <time>2020-07-25T08:40:21Z</time>
      </trkpt>
      <trkpt lat="48.70143" lon="8.28243">
        <ele>655.8</ele>
        <time>2020-07-25T08:40:24Z</time>
      </trkpt>
      <trkpt lat="48.70138" lon="8.28247">
        <ele>656.4</ele>
        <time>2020-07-25T08:41:23Z</time>
      </trkpt>
      <trkpt lat="48.70137" lon="8.28249">
        <ele>656.4</ele>
        <time>2020-07-25T08:41:24Z</time>
      </trkpt>
      <trkpt lat="48.70136" lon="8.2825">
        <ele>656.4</ele>
        <time>2020-07-25T08:41:27Z</time>
      </trkpt>
      <trkpt lat="48.70132" lon="8.28253">
        <ele>656.6</ele>
        <time>2020-07-25T08:41:59Z</time>
      </trkpt>
      <trkpt lat="48.70128" lon="8.28258">
        <ele>656.6</ele>
        <time>2020-07-25T08:42:02Z</time>
      </trkpt>
      <trkpt lat="48.70119" lon="8.28278">
        <ele>656.6</ele>
        <time>2020-07-25T08:42:09Z</time>
      </trkpt>
      <trkpt lat="48.70105" lon="8.28295">
        <ele>657</ele>
        <time>2020-07-25T08:42:16Z</time>
      </trkpt>
      <trkpt lat="48.70101" lon="8.28302">
        <ele>657.4</ele>
        <time>2020-07-25T08:42:19Z</time>
      </trkpt>
      <trkpt lat="48.70095" lon="8.28309">
        <ele>658.2</ele>
        <time>2020-07-25T08:42:22Z</time>
      </trkpt>
      <trkpt lat="48.70089" lon="8.28314">
        <ele>658.6</ele>
        <time>2020-07-25T08:42:24Z</time>
      </trkpt>
      <trkpt lat="48.7008" lon="8.28324">
        <ele>659.6</ele>
        <time>2020-07-25T08:42:29Z</time>
      </trkpt>
      <trkpt lat="48.70078" lon="8.28328">
        <ele>660</ele>
        <time>2020-07-25T08:42:31Z</time>
      </trkpt>
      <trkpt lat="48.70075" lon="8.28332">
        <ele>660.4</ele>
        <time>2020-07-25T08:42:33Z</time>
      </trkpt>
      <trkpt lat="48.70071" lon="8.28337">
        <ele>661.6</ele>
        <time>2020-07-25T08:42:37Z</time>
      </trkpt>
      <trkpt lat="48.70068" lon="8.2834">
        <ele>662.2</ele>
        <time>2020-07-25T08:42:39Z</time>
      </trkpt>
      <trkpt lat="48.70066" lon="8.28343">
        <ele>662.8</ele>
        <time>2020-07-25T08:42:41Z</time>
      </trkpt>
      <trkpt lat="48.7006" lon="8.28352">
        <ele>664</ele>
        <time>2020-07-25T08:42:46Z</time>
      </trkpt>
      <trkpt lat="48.7006" lon="8.28353">
        <ele>664.2</ele>
        <time>2020-07-25T08:42:47Z</time>
      </trkpt>
      <trkpt lat="48.70058" lon="8.28357">
        <ele>664.6</ele>
        <time>2020-07-25T08:42:50Z</time>
      </trkpt>
      <trkpt lat="48.70056" lon="8.2836">
        <ele>665</ele>
        <time>2020-07-25T08:42:52Z</time>
      </trkpt>
      <trkpt lat="48.70054" lon="8.28361">
        <ele>665</ele>
        <time>2020-07-25T08:42:53Z</time>
      </trkpt>
      <trkpt lat="48.70048" lon="8.28368">
        <ele>666</ele>
        <time>2020-07-25T08:42:58Z</time>
      </trkpt>
      <trkpt lat="48.70047" lon="8.2837">
        <ele>666.2</ele>
        <time>2020-07-25T08:42:59Z</time>
      </trkpt>
      <trkpt lat="48.70043" lon="8.28376">
        <ele>666.8</ele>
        <time>2020-07-25T08:43:03Z</time>
      </trkpt>
      <trkpt lat="48.70039" lon="8.28381">
        <ele>667</ele>
        <time>2020-07-25T08:43:06Z</time>
      </trkpt>
      <trkpt lat="48.70038" lon="8.28382">
        <ele>667.2</ele>
        <time>2020-07-25T08:43:07Z</time>
      </trkpt>
      <trkpt lat="48.70029" lon="8.28394">
        <ele>668.2</ele>
        <time>2020-07-25T08:43:13Z</time>
      </trkpt>
      <trkpt lat="48.70027" lon="8.28396">
        <ele>668.4</ele>
        <time>2020-07-25T08:43:14Z</time>
      </trkpt>
      <trkpt lat="48.70016" lon="8.28404">
        <ele>669.4</ele>
        <time>2020-07-25T08:43:19Z</time>
      </trkpt>
      <trkpt lat="48.70013" lon="8.28407">
        <ele>670</ele>
        <time>2020-07-25T08:43:22Z</time>
      </trkpt>
      <trkpt lat="48.70009" lon="8.28414">
        <ele>670.6</ele>
        <time>2020-07-25T08:43:26Z</time>
      </trkpt>
      <trkpt lat="48.70007" lon="8.28417">
        <ele>671</ele>
        <time>2020-07-25T08:43:28Z</time>
      </trkpt>
      <trkpt lat="48.70006" lon="8.28418">
        <ele>671</ele>
        <time>2020-07-25T08:43:29Z</time>
      </trkpt>
      <trkpt lat="48.70003" lon="8.28421">
        <ele>671.6</ele>
        <time>2020-07-25T08:43:32Z</time>
      </trkpt>
      <trkpt lat="48.70001" lon="8.28425">
        <ele>672</ele>
        <time>2020-07-25T08:43:34Z</time>
      </trkpt>
      <trkpt lat="48.69999" lon="8.28427">
        <ele>672.2</ele>
        <time>2020-07-25T08:43:35Z</time>
      </trkpt>
      <trkpt lat="48.69992" lon="8.28434">
        <ele>672.6</ele>
        <time>2020-07-25T08:43:40Z</time>
      </trkpt>
      <trkpt lat="48.69988" lon="8.28439">
        <ele>673</ele>
        <time>2020-07-25T08:43:43Z</time>
      </trkpt>
      <trkpt lat="48.69987" lon="8.2844">
        <ele>673.2</ele>
        <time>2020-07-25T08:43:44Z</time>
      </trkpt>
      <trkpt lat="48.69984" lon="8.28445">
        <ele>673.6</ele>
        <time>2020-07-25T08:43:47Z</time>
      </trkpt>
      <trkpt lat="48.69981" lon="8.28449">
        <ele>674.2</ele>
        <time>2020-07-25T08:43:50Z</time>
      </trkpt>
      <trkpt lat="48.69974" lon="8.28455">
        <ele>674.8</ele>
        <time>2020-07-25T08:43:53Z</time>
      </trkpt>
      <trkpt lat="48.69967" lon="8.28462">
        <ele>675.6</ele>
        <time>2020-07-25T08:43:58Z</time>
      </trkpt>
      <trkpt lat="48.69966" lon="8.28464">
        <ele>676</ele>
        <time>2020-07-25T08:43:59Z</time>
      </trkpt>
      <trkpt lat="48.69961" lon="8.28468">
        <ele>676.2</ele>
        <time>2020-07-25T08:44:02Z</time>
      </trkpt>
      <trkpt lat="48.6996" lon="8.2847">
        <ele>676.4</ele>
        <time>2020-07-25T08:44:04Z</time>
      </trkpt>
      <trkpt lat="48.69958" lon="8.28472">
        <ele>676.8</ele>
        <time>2020-07-25T08:44:06Z</time>
      </trkpt>
      <trkpt lat="48.69954" lon="8.28482">
        <ele>677.8</ele>
        <time>2020-07-25T08:44:10Z</time>
      </trkpt>
      <trkpt lat="48.69952" lon="8.28484">
        <ele>678.4</ele>
        <time>2020-07-25T08:44:12Z</time>
      </trkpt>
      <trkpt lat="48.69944" lon="8.28489">
        <ele>679</ele>
        <time>2020-07-25T08:44:16Z</time>
      </trkpt>
      <trkpt lat="48.6994" lon="8.28489">
        <ele>679.4</ele>
        <time>2020-07-25T08:44:19Z</time>
      </trkpt>
      <trkpt lat="48.69933" lon="8.28486">
        <ele>680</ele>
        <time>2020-07-25T08:44:23Z</time>
      </trkpt>
      <trkpt lat="48.69932" lon="8.28485">
        <ele>680.2</ele>
        <time>2020-07-25T08:44:24Z</time>
      </trkpt>
      <trkpt lat="48.69928" lon="8.28479">
        <ele>680.8</ele>
        <time>2020-07-25T08:44:27Z</time>
      </trkpt>
      <trkpt lat="48.69925" lon="8.28476">
        <ele>681.2</ele>
        <time>2020-07-25T08:44:29Z</time>
      </trkpt>
      <trkpt lat="48.69919" lon="8.28469">
        <ele>681.6</ele>
        <time>2020-07-25T08:44:32Z</time>
      </trkpt>
      <trkpt lat="48.69918" lon="8.28467">
        <ele>682</ele>
        <time>2020-07-25T08:44:33Z</time>
      </trkpt>
      <trkpt lat="48.69916" lon="8.28464">
        <ele>682.2</ele>
        <time>2020-07-25T08:44:34Z</time>
      </trkpt>
      <trkpt lat="48.6991" lon="8.28454">
        <ele>683</ele>
        <time>2020-07-25T08:44:39Z</time>
      </trkpt>
      <trkpt lat="48.69909" lon="8.28452">
        <ele>683.2</ele>
        <time>2020-07-25T08:44:40Z</time>
      </trkpt>
      <trkpt lat="48.69901" lon="8.28442">
        <ele>684.2</ele>
        <time>2020-07-25T08:44:45Z</time>
      </trkpt>
      <trkpt lat="48.69899" lon="8.28441">
        <ele>684.6</ele>
        <time>2020-07-25T08:44:46Z</time>
      </trkpt>
      <trkpt lat="48.69894" lon="8.28436">
        <ele>685</ele>
        <time>2020-07-25T08:44:49Z</time>
      </trkpt>
      <trkpt lat="48.69894" lon="8.28435">
        <ele>685.2</ele>
        <time>2020-07-25T08:44:50Z</time>
      </trkpt>
      <trkpt lat="48.69891" lon="8.2843">
        <ele>685.6</ele>
        <time>2020-07-25T08:44:53Z</time>
      </trkpt>
      <trkpt lat="48.69889" lon="8.28429">
        <ele>686.2</ele>
        <time>2020-07-25T08:44:55Z</time>
      </trkpt>
      <trkpt lat="48.69883" lon="8.28425">
        <ele>687.4</ele>
        <time>2020-07-25T08:45:00Z</time>
      </trkpt>
      <trkpt lat="48.69874" lon="8.2842">
        <ele>688.4</ele>
        <time>2020-07-25T08:45:06Z</time>
      </trkpt>
      <trkpt lat="48.69872" lon="8.28419">
        <ele>688.4</ele>
        <time>2020-07-25T08:45:07Z</time>
      </trkpt>
      <trkpt lat="48.69862" lon="8.28414">
        <ele>689.2</ele>
        <time>2020-07-25T08:45:12Z</time>
      </trkpt>
      <trkpt lat="48.6986" lon="8.28413">
        <ele>689.6</ele>
        <time>2020-07-25T08:45:14Z</time>
      </trkpt>
      <trkpt lat="48.69853" lon="8.28406">
        <ele>690.4</ele>
        <time>2020-07-25T08:45:18Z</time>
      </trkpt>
      <trkpt lat="48.69849" lon="8.28403">
        <ele>691</ele>
        <time>2020-07-25T08:45:21Z</time>
      </trkpt>
      <trkpt lat="48.69845" lon="8.284">
        <ele>691.6</ele>
        <time>2020-07-25T08:45:23Z</time>
      </trkpt>
      <trkpt lat="48.69841" lon="8.28396">
        <ele>692</ele>
        <time>2020-07-25T08:45:26Z</time>
      </trkpt>
      <trkpt lat="48.69838" lon="8.28393">
        <ele>692</ele>
        <time>2020-07-25T08:45:28Z</time>
      </trkpt>
      <trkpt lat="48.69838" lon="8.28392">
        <ele>692.2</ele>
        <time>2020-07-25T08:45:29Z</time>
      </trkpt>
      <trkpt lat="48.69837" lon="8.28392">
        <ele>692.4</ele>
        <time>2020-07-25T08:45:30Z</time>
      </trkpt>
      <trkpt lat="48.69826" lon="8.28392">
        <ele>693.4</ele>
        <time>2020-07-25T08:45:36Z</time>
      </trkpt>
      <trkpt lat="48.69825" lon="8.28392">
        <ele>693.4</ele>
        <time>2020-07-25T08:45:37Z</time>
      </trkpt>
      <trkpt lat="48.69823" lon="8.28392">
        <ele>693.6</ele>
        <time>2020-07-25T08:45:38Z</time>
      </trkpt>
      <trkpt lat="48.69817" lon="8.28391">
        <ele>694</ele>
        <time>2020-07-25T08:45:41Z</time>
      </trkpt>
      <trkpt lat="48.69815" lon="8.28391">
        <ele>694.2</ele>
        <time>2020-07-25T08:45:42Z</time>
      </trkpt>
      <trkpt lat="48.69811" lon="8.28391">
        <ele>694.6</ele>
        <time>2020-07-25T08:45:44Z</time>
      </trkpt>
      <trkpt lat="48.69808" lon="8.28391">
        <ele>695</ele>
        <time>2020-07-25T08:45:46Z</time>
      </trkpt>
      <trkpt lat="48.69803" lon="8.28389">
        <ele>695.6</ele>
        <time>2020-07-25T08:45:49Z</time>
      </trkpt>
      <trkpt lat="48.69799" lon="8.28386">
        <ele>695.8</ele>
        <time>2020-07-25T08:45:51Z</time>
      </trkpt>
      <trkpt lat="48.69797" lon="8.28385">
        <ele>696.2</ele>
        <time>2020-07-25T08:45:52Z</time>
      </trkpt>
      <trkpt lat="48.69794" lon="8.28382">
        <ele>696.4</ele>
        <time>2020-07-25T08:45:54Z</time>
      </trkpt>
      <trkpt lat="48.69789" lon="8.28382">
        <ele>697</ele>
        <time>2020-07-25T08:45:56Z</time>
      </trkpt>
      <trkpt lat="48.69784" lon="8.28379">
        <ele>697.4</ele>
        <time>2020-07-25T08:45:59Z</time>
      </trkpt>
      <trkpt lat="48.69783" lon="8.28378">
        <ele>697.6</ele>
        <time>2020-07-25T08:46:00Z</time>
      </trkpt>
      <trkpt lat="48.69775" lon="8.28371">
        <ele>698.6</ele>
        <time>2020-07-25T08:46:06Z</time>
      </trkpt>
      <trkpt lat="48.69774" lon="8.2837">
        <ele>698.8</ele>
        <time>2020-07-25T08:46:07Z</time>
      </trkpt>
      <trkpt lat="48.69767" lon="8.28365">
        <ele>699.4</ele>
        <time>2020-07-25T08:46:11Z</time>
      </trkpt>
      <trkpt lat="48.69762" lon="8.28363">
        <ele>699.8</ele>
        <time>2020-07-25T08:46:14Z</time>
      </trkpt>
      <trkpt lat="48.69754" lon="8.2836">
        <ele>700.4</ele>
        <time>2020-07-25T08:46:18Z</time>
      </trkpt>
      <trkpt lat="48.69752" lon="8.2836">
        <ele>700.8</ele>
        <time>2020-07-25T08:46:20Z</time>
      </trkpt>
      <trkpt lat="48.6975" lon="8.28361">
        <ele>701</ele>
        <time>2020-07-25T08:46:21Z</time>
      </trkpt>
      <trkpt lat="48.69747" lon="8.28362">
        <ele>701.4</ele>
        <time>2020-07-25T08:46:24Z</time>
      </trkpt>
      <trkpt lat="48.69741" lon="8.28362">
        <ele>702.4</ele>
        <time>2020-07-25T08:46:28Z</time>
      </trkpt>
      <trkpt lat="48.6974" lon="8.28362">
        <ele>702.8</ele>
        <time>2020-07-25T08:46:29Z</time>
      </trkpt>
      <trkpt lat="48.6973" lon="8.28358">
        <ele>703.8</ele>
        <time>2020-07-25T08:46:35Z</time>
      </trkpt>
      <trkpt lat="48.69729" lon="8.28357">
        <ele>704</ele>
        <time>2020-07-25T08:46:36Z</time>
      </trkpt>
      <trkpt lat="48.69723" lon="8.28354">
        <ele>704.8</ele>
        <time>2020-07-25T08:46:40Z</time>
      </trkpt>
      <trkpt lat="48.69717" lon="8.2835">
        <ele>705.6</ele>
        <time>2020-07-25T08:46:44Z</time>
      </trkpt>
      <trkpt lat="48.69714" lon="8.28347">
        <ele>705.8</ele>
        <time>2020-07-25T08:46:46Z</time>
      </trkpt>
      <trkpt lat="48.69707" lon="8.28341">
        <ele>706.8</ele>
        <time>2020-07-25T08:46:50Z</time>
      </trkpt>
      <trkpt lat="48.69698" lon="8.28334">
        <ele>707.8</ele>
        <time>2020-07-25T08:46:55Z</time>
      </trkpt>
      <trkpt lat="48.69694" lon="8.28334">
        <ele>708.2</ele>
        <time>2020-07-25T08:46:57Z</time>
      </trkpt>
      <trkpt lat="48.69689" lon="8.2833">
        <ele>708.8</ele>
        <time>2020-07-25T08:47:01Z</time>
      </trkpt>
      <trkpt lat="48.69685" lon="8.28326">
        <ele>709.4</ele>
        <time>2020-07-25T08:47:04Z</time>
      </trkpt>
      <trkpt lat="48.69682" lon="8.28323">
        <ele>709.8</ele>
        <time>2020-07-25T08:47:06Z</time>
      </trkpt>
      <trkpt lat="48.69674" lon="8.28315">
        <ele>711</ele>
        <time>2020-07-25T08:47:12Z</time>
      </trkpt>
      <trkpt lat="48.69672" lon="8.28313">
        <ele>711.2</ele>
        <time>2020-07-25T08:47:13Z</time>
      </trkpt>
      <trkpt lat="48.69666" lon="8.28308">
        <ele>711.8</ele>
        <time>2020-07-25T08:47:18Z</time>
      </trkpt>
      <trkpt lat="48.69658" lon="8.283">
        <ele>712.8</ele>
        <time>2020-07-25T08:47:24Z</time>
      </trkpt>
      <trkpt lat="48.69657" lon="8.283">
        <ele>713</ele>
        <time>2020-07-25T08:47:25Z</time>
      </trkpt>
      <trkpt lat="48.69656" lon="8.28298">
        <ele>713</ele>
        <time>2020-07-25T08:47:26Z</time>
      </trkpt>
      <trkpt lat="48.6965" lon="8.28293">
        <ele>713.8</ele>
        <time>2020-07-25T08:47:31Z</time>
      </trkpt>
      <trkpt lat="48.69647" lon="8.2829">
        <ele>714.2</ele>
        <time>2020-07-25T08:47:33Z</time>
      </trkpt>
      <trkpt lat="48.69646" lon="8.28289">
        <ele>714.4</ele>
        <time>2020-07-25T08:47:34Z</time>
      </trkpt>
      <trkpt lat="48.69643" lon="8.28287">
        <ele>714.8</ele>
        <time>2020-07-25T08:47:36Z</time>
      </trkpt>
      <trkpt lat="48.69642" lon="8.28287">
        <ele>715</ele>
        <time>2020-07-25T08:47:37Z</time>
      </trkpt>
      <trkpt lat="48.69642" lon="8.28286">
        <ele>715.2</ele>
        <time>2020-07-25T08:47:38Z</time>
      </trkpt>
      <trkpt lat="48.69634" lon="8.28282">
        <ele>716</ele>
        <time>2020-07-25T08:47:42Z</time>
      </trkpt>
      <trkpt lat="48.69629" lon="8.28279">
        <ele>716.8</ele>
        <time>2020-07-25T08:47:45Z</time>
      </trkpt>
      <trkpt lat="48.69628" lon="8.28278">
        <ele>717</ele>
        <time>2020-07-25T08:47:46Z</time>
      </trkpt>
      <trkpt lat="48.69624" lon="8.28276">
        <ele>717.6</ele>
        <time>2020-07-25T08:47:49Z</time>
      </trkpt>
      <trkpt lat="48.69623" lon="8.28276">
        <ele>717.8</ele>
        <time>2020-07-25T08:47:50Z</time>
      </trkpt>
      <trkpt lat="48.69622" lon="8.28275">
        <ele>718</ele>
        <time>2020-07-25T08:47:51Z</time>
      </trkpt>
      <trkpt lat="48.69614" lon="8.28271">
        <ele>719</ele>
        <time>2020-07-25T08:47:56Z</time>
      </trkpt>
      <trkpt lat="48.69603" lon="8.2827">
        <ele>720</ele>
        <time>2020-07-25T08:48:02Z</time>
      </trkpt>
      <trkpt lat="48.69602" lon="8.28269">
        <ele>720.2</ele>
        <time>2020-07-25T08:48:03Z</time>
      </trkpt>
      <trkpt lat="48.69598" lon="8.28268">
        <ele>721</ele>
        <time>2020-07-25T08:48:06Z</time>
      </trkpt>
      <trkpt lat="48.69595" lon="8.28266">
        <ele>721.4</ele>
        <time>2020-07-25T08:48:08Z</time>
      </trkpt>
      <trkpt lat="48.69588" lon="8.28262">
        <ele>722</ele>
        <time>2020-07-25T08:48:11Z</time>
      </trkpt>
      <trkpt lat="48.69582" lon="8.28259">
        <ele>722.6</ele>
        <time>2020-07-25T08:48:14Z</time>
      </trkpt>
      <trkpt lat="48.69578" lon="8.28256">
        <ele>723</ele>
        <time>2020-07-25T08:48:16Z</time>
      </trkpt>
      <trkpt lat="48.69571" lon="8.28254">
        <ele>723.6</ele>
        <time>2020-07-25T08:48:20Z</time>
      </trkpt>
      <trkpt lat="48.69568" lon="8.28252">
        <ele>724</ele>
        <time>2020-07-25T08:48:22Z</time>
      </trkpt>
      <trkpt lat="48.69563" lon="8.28253">
        <ele>724.6</ele>
        <time>2020-07-25T08:48:25Z</time>
      </trkpt>
      <trkpt lat="48.69559" lon="8.28253">
        <ele>725</ele>
        <time>2020-07-25T08:48:27Z</time>
      </trkpt>
      <trkpt lat="48.69557" lon="8.28252">
        <ele>725</ele>
        <time>2020-07-25T08:48:28Z</time>
      </trkpt>
      <trkpt lat="48.69554" lon="8.28257">
        <ele>725.6</ele>
        <time>2020-07-25T08:48:31Z</time>
      </trkpt>
      <trkpt lat="48.69551" lon="8.28256">
        <ele>726.2</ele>
        <time>2020-07-25T08:48:33Z</time>
      </trkpt>
      <trkpt lat="48.69542" lon="8.28254">
        <ele>727</ele>
        <time>2020-07-25T08:48:38Z</time>
      </trkpt>
      <trkpt lat="48.69541" lon="8.28254">
        <ele>727.2</ele>
        <time>2020-07-25T08:48:39Z</time>
      </trkpt>
      <trkpt lat="48.69539" lon="8.28254">
        <ele>727.2</ele>
        <time>2020-07-25T08:48:40Z</time>
      </trkpt>
      <trkpt lat="48.69536" lon="8.28254">
        <ele>727.8</ele>
        <time>2020-07-25T08:48:43Z</time>
      </trkpt>
      <trkpt lat="48.69533" lon="8.28254">
        <ele>728</ele>
        <time>2020-07-25T08:48:45Z</time>
      </trkpt>
      <trkpt lat="48.6953" lon="8.28255">
        <ele>728.4</ele>
        <time>2020-07-25T08:48:47Z</time>
      </trkpt>
      <trkpt lat="48.69529" lon="8.28255">
        <ele>728.6</ele>
        <time>2020-07-25T08:48:48Z</time>
      </trkpt>
      <trkpt lat="48.69529" lon="8.28255">
        <ele>729</ele>
        <time>2020-07-25T08:48:49Z</time>
      </trkpt>
      <trkpt lat="48.69527" lon="8.28256">
        <ele>729.2</ele>
        <time>2020-07-25T08:48:50Z</time>
      </trkpt>
      <trkpt lat="48.69517" lon="8.2826">
        <ele>730</ele>
        <time>2020-07-25T08:48:55Z</time>
      </trkpt>
      <trkpt lat="48.69512" lon="8.28263">
        <ele>730.4</ele>
        <time>2020-07-25T08:48:58Z</time>
      </trkpt>
      <trkpt lat="48.69503" lon="8.28267">
        <ele>731.2</ele>
        <time>2020-07-25T08:49:03Z</time>
      </trkpt>
      <trkpt lat="48.69501" lon="8.28268">
        <ele>731.4</ele>
        <time>2020-07-25T08:49:05Z</time>
      </trkpt>
      <trkpt lat="48.69498" lon="8.28268">
        <ele>731.6</ele>
        <time>2020-07-25T08:49:06Z</time>
      </trkpt>
      <trkpt lat="48.69491" lon="8.28274">
        <ele>731.8</ele>
        <time>2020-07-25T08:49:09Z</time>
      </trkpt>
      <trkpt lat="48.69488" lon="8.28275">
        <ele>732.2</ele>
        <time>2020-07-25T08:49:11Z</time>
      </trkpt>
      <trkpt lat="48.69479" lon="8.28286">
        <ele>733</ele>
        <time>2020-07-25T08:49:17Z</time>
      </trkpt>
      <trkpt lat="48.69476" lon="8.28289">
        <ele>733.4</ele>
        <time>2020-07-25T08:49:20Z</time>
      </trkpt>
      <trkpt lat="48.69471" lon="8.28292">
        <ele>733.8</ele>
        <time>2020-07-25T08:49:23Z</time>
      </trkpt>
      <trkpt lat="48.69461" lon="8.28303">
        <ele>734.6</ele>
        <time>2020-07-25T08:49:29Z</time>
      </trkpt>
      <trkpt lat="48.69459" lon="8.28305">
        <ele>734.8</ele>
        <time>2020-07-25T08:49:30Z</time>
      </trkpt>
      <trkpt lat="48.69448" lon="8.28323">
        <ele>735.4</ele>
        <time>2020-07-25T08:49:37Z</time>
      </trkpt>
      <trkpt lat="48.69446" lon="8.28327">
        <ele>735.6</ele>
        <time>2020-07-25T08:49:39Z</time>
      </trkpt>
      <trkpt lat="48.69436" lon="8.2835">
        <ele>736.2</ele>
        <time>2020-07-25T08:49:46Z</time>
      </trkpt>
      <trkpt lat="48.69431" lon="8.2837">
        <ele>736.4</ele>
        <time>2020-07-25T08:49:52Z</time>
      </trkpt>
      <trkpt lat="48.69431" lon="8.28373">
        <ele>736.4</ele>
        <time>2020-07-25T08:49:53Z</time>
      </trkpt>
      <trkpt lat="48.69427" lon="8.28387">
        <ele>736.8</ele>
        <time>2020-07-25T08:49:57Z</time>
      </trkpt>
      <trkpt lat="48.69425" lon="8.28406">
        <ele>737.6</ele>
        <time>2020-07-25T08:50:03Z</time>
      </trkpt>
      <trkpt lat="48.69422" lon="8.28431">
        <ele>738.2</ele>
        <time>2020-07-25T08:50:10Z</time>
      </trkpt>
      <trkpt lat="48.69421" lon="8.28445">
        <ele>738.8</ele>
        <time>2020-07-25T08:50:13Z</time>
      </trkpt>
      <trkpt lat="48.69421" lon="8.28453">
        <ele>738.8</ele>
        <time>2020-07-25T08:50:15Z</time>
      </trkpt>
      <trkpt lat="48.6942" lon="8.28487">
        <ele>739.4</ele>
        <time>2020-07-25T08:50:23Z</time>
      </trkpt>
      <trkpt lat="48.69418" lon="8.28494">
        <ele>739.6</ele>
        <time>2020-07-25T08:50:25Z</time>
      </trkpt>
      <trkpt lat="48.69418" lon="8.28504">
        <ele>740</ele>
        <time>2020-07-25T08:50:27Z</time>
      </trkpt>
      <trkpt lat="48.69417" lon="8.28532">
        <ele>740.6</ele>
        <time>2020-07-25T08:50:34Z</time>
      </trkpt>
      <trkpt lat="48.69416" lon="8.28536">
        <ele>740.8</ele>
        <time>2020-07-25T08:50:35Z</time>
      </trkpt>
      <trkpt lat="48.69415" lon="8.28562">
        <ele>741.8</ele>
        <time>2020-07-25T08:50:41Z</time>
      </trkpt>
      <trkpt lat="48.69417" lon="8.28568">
        <ele>741.8</ele>
        <time>2020-07-25T08:50:42Z</time>
      </trkpt>
      <trkpt lat="48.69416" lon="8.28588">
        <ele>742.4</ele>
        <time>2020-07-25T08:50:47Z</time>
      </trkpt>
      <trkpt lat="48.69415" lon="8.28611">
        <ele>743</ele>
        <time>2020-07-25T08:50:53Z</time>
      </trkpt>
      <trkpt lat="48.69415" lon="8.28623">
        <ele>743.2</ele>
        <time>2020-07-25T08:50:56Z</time>
      </trkpt>
      <trkpt lat="48.69414" lon="8.28648">
        <ele>744</ele>
        <time>2020-07-25T08:51:02Z</time>
      </trkpt>
      <trkpt lat="48.69413" lon="8.28665">
        <ele>744.4</ele>
        <time>2020-07-25T08:51:06Z</time>
      </trkpt>
      <trkpt lat="48.69413" lon="8.28686">
        <ele>745</ele>
        <time>2020-07-25T08:51:12Z</time>
      </trkpt>
      <trkpt lat="48.69413" lon="8.2869">
        <ele>745</ele>
        <time>2020-07-25T08:51:13Z</time>
      </trkpt>
      <trkpt lat="48.69411" lon="8.28713">
        <ele>745.8</ele>
        <time>2020-07-25T08:51:19Z</time>
      </trkpt>
      <trkpt lat="48.69411" lon="8.28717">
        <ele>746</ele>
        <time>2020-07-25T08:51:20Z</time>
      </trkpt>
      <trkpt lat="48.69411" lon="8.28732">
        <ele>746.6</ele>
        <time>2020-07-25T08:51:25Z</time>
      </trkpt>
      <trkpt lat="48.6941" lon="8.28738">
        <ele>747</ele>
        <time>2020-07-25T08:51:27Z</time>
      </trkpt>
      <trkpt lat="48.69408" lon="8.28754">
        <ele>748</ele>
        <time>2020-07-25T08:51:32Z</time>
      </trkpt>
      <trkpt lat="48.69407" lon="8.28757">
        <ele>748.4</ele>
        <time>2020-07-25T08:51:33Z</time>
      </trkpt>
      <trkpt lat="48.69402" lon="8.28772">
        <ele>749.4</ele>
        <time>2020-07-25T08:51:38Z</time>
      </trkpt>
      <trkpt lat="48.694" lon="8.28776">
        <ele>749.6</ele>
        <time>2020-07-25T08:51:39Z</time>
      </trkpt>
      <trkpt lat="48.69399" lon="8.2878">
        <ele>750</ele>
        <time>2020-07-25T08:51:40Z</time>
      </trkpt>
      <trkpt lat="48.69398" lon="8.28788">
        <ele>750.6</ele>
        <time>2020-07-25T08:51:43Z</time>
      </trkpt>
      <trkpt lat="48.69398" lon="8.2879">
        <ele>750.8</ele>
        <time>2020-07-25T08:51:44Z</time>
      </trkpt>
      <trkpt lat="48.69395" lon="8.288">
        <ele>751.8</ele>
        <time>2020-07-25T08:51:48Z</time>
      </trkpt>
      <trkpt lat="48.69393" lon="8.28806">
        <ele>752.4</ele>
        <time>2020-07-25T08:51:51Z</time>
      </trkpt>
      <trkpt lat="48.69392" lon="8.28808">
        <ele>752.6</ele>
        <time>2020-07-25T08:51:52Z</time>
      </trkpt>
      <trkpt lat="48.69391" lon="8.2881">
        <ele>752.8</ele>
        <time>2020-07-25T08:51:53Z</time>
      </trkpt>
      <trkpt lat="48.69389" lon="8.28816">
        <ele>753.4</ele>
        <time>2020-07-25T08:51:56Z</time>
      </trkpt>
      <trkpt lat="48.69387" lon="8.28823">
        <ele>754</ele>
        <time>2020-07-25T08:51:59Z</time>
      </trkpt>
      <trkpt lat="48.69383" lon="8.28835">
        <ele>755.4</ele>
        <time>2020-07-25T08:52:04Z</time>
      </trkpt>
      <trkpt lat="48.69383" lon="8.28837">
        <ele>755.6</ele>
        <time>2020-07-25T08:52:05Z</time>
      </trkpt>
      <trkpt lat="48.69381" lon="8.28843">
        <ele>756.2</ele>
        <time>2020-07-25T08:52:08Z</time>
      </trkpt>
      <trkpt lat="48.69381" lon="8.28845">
        <ele>756.4</ele>
        <time>2020-07-25T08:52:09Z</time>
      </trkpt>
      <trkpt lat="48.69379" lon="8.2885">
        <ele>756.8</ele>
        <time>2020-07-25T08:52:11Z</time>
      </trkpt>
      <trkpt lat="48.69377" lon="8.28856">
        <ele>757.4</ele>
        <time>2020-07-25T08:52:14Z</time>
      </trkpt>
      <trkpt lat="48.69374" lon="8.28864">
        <ele>758.4</ele>
        <time>2020-07-25T08:52:18Z</time>
      </trkpt>
      <trkpt lat="48.69372" lon="8.2887">
        <ele>758.6</ele>
        <time>2020-07-25T08:52:20Z</time>
      </trkpt>
      <trkpt lat="48.69368" lon="8.28879">
        <ele>759.8</ele>
        <time>2020-07-25T08:52:25Z</time>
      </trkpt>
      <trkpt lat="48.69366" lon="8.28884">
        <ele>760.6</ele>
        <time>2020-07-25T08:52:28Z</time>
      </trkpt>
      <trkpt lat="48.69364" lon="8.28887">
        <ele>760.8</ele>
        <time>2020-07-25T08:52:30Z</time>
      </trkpt>
      <trkpt lat="48.69359" lon="8.28898">
        <ele>762</ele>
        <time>2020-07-25T08:52:36Z</time>
      </trkpt>
      <trkpt lat="48.69354" lon="8.28906">
        <ele>763</ele>
        <time>2020-07-25T08:52:41Z</time>
      </trkpt>
      <trkpt lat="48.69353" lon="8.28908">
        <ele>763.2</ele>
        <time>2020-07-25T08:52:42Z</time>
      </trkpt>
      <trkpt lat="48.6935" lon="8.28913">
        <ele>764.2</ele>
        <time>2020-07-25T08:52:45Z</time>
      </trkpt>
      <trkpt lat="48.69347" lon="8.28918">
        <ele>764.6</ele>
        <time>2020-07-25T08:52:48Z</time>
      </trkpt>
      <trkpt lat="48.69345" lon="8.28923">
        <ele>765</ele>
        <time>2020-07-25T08:52:51Z</time>
      </trkpt>
      <trkpt lat="48.6934" lon="8.28934">
        <ele>766.2</ele>
        <time>2020-07-25T08:52:56Z</time>
      </trkpt>
      <trkpt lat="48.69338" lon="8.2894">
        <ele>767</ele>
        <time>2020-07-25T08:52:59Z</time>
      </trkpt>
      <trkpt lat="48.69337" lon="8.28944">
        <ele>767.4</ele>
        <time>2020-07-25T08:53:01Z</time>
      </trkpt>
      <trkpt lat="48.69333" lon="8.28953">
        <ele>768.2</ele>
        <time>2020-07-25T08:53:06Z</time>
      </trkpt>
      <trkpt lat="48.69331" lon="8.28957">
        <ele>768.4</ele>
        <time>2020-07-25T08:53:08Z</time>
      </trkpt>
      <trkpt lat="48.6933" lon="8.28961">
        <ele>769</ele>
        <time>2020-07-25T08:53:10Z</time>
      </trkpt>
      <trkpt lat="48.69329" lon="8.28963">
        <ele>769.2</ele>
        <time>2020-07-25T08:53:11Z</time>
      </trkpt>
      <trkpt lat="48.69328" lon="8.28967">
        <ele>769.6</ele>
        <time>2020-07-25T08:53:13Z</time>
      </trkpt>
      <trkpt lat="48.69327" lon="8.28974">
        <ele>770.6</ele>
        <time>2020-07-25T08:53:17Z</time>
      </trkpt>
      <trkpt lat="48.69326" lon="8.28975">
        <ele>770.8</ele>
        <time>2020-07-25T08:53:18Z</time>
      </trkpt>
      <trkpt lat="48.69324" lon="8.28986">
        <ele>771.8</ele>
        <time>2020-07-25T08:53:24Z</time>
      </trkpt>
      <trkpt lat="48.6932" lon="8.28995">
        <ele>772.8</ele>
        <time>2020-07-25T08:53:29Z</time>
      </trkpt>
      <trkpt lat="48.6932" lon="8.28997">
        <ele>773</ele>
        <time>2020-07-25T08:53:30Z</time>
      </trkpt>
      <trkpt lat="48.69317" lon="8.29008">
        <ele>774</ele>
        <time>2020-07-25T08:53:36Z</time>
      </trkpt>
      <trkpt lat="48.69317" lon="8.2901">
        <ele>774.2</ele>
        <time>2020-07-25T08:53:37Z</time>
      </trkpt>
      <trkpt lat="48.69316" lon="8.29014">
        <ele>774.6</ele>
        <time>2020-07-25T08:53:39Z</time>
      </trkpt>
      <trkpt lat="48.69315" lon="8.29017">
        <ele>774.8</ele>
        <time>2020-07-25T08:53:41Z</time>
      </trkpt>
      <trkpt lat="48.69313" lon="8.29021">
        <ele>775.2</ele>
        <time>2020-07-25T08:53:43Z</time>
      </trkpt>
      <trkpt lat="48.6931" lon="8.29029">
        <ele>775.8</ele>
        <time>2020-07-25T08:53:47Z</time>
      </trkpt>
      <trkpt lat="48.69309" lon="8.29031">
        <ele>776</ele>
        <time>2020-07-25T08:53:48Z</time>
      </trkpt>
      <trkpt lat="48.69308" lon="8.29033">
        <ele>776.2</ele>
        <time>2020-07-25T08:53:49Z</time>
      </trkpt>
      <trkpt lat="48.69306" lon="8.29037">
        <ele>776.4</ele>
        <time>2020-07-25T08:53:51Z</time>
      </trkpt>
      <trkpt lat="48.69301" lon="8.29047">
        <ele>777.2</ele>
        <time>2020-07-25T08:53:57Z</time>
      </trkpt>
      <trkpt lat="48.693" lon="8.29048">
        <ele>777.4</ele>
        <time>2020-07-25T08:53:58Z</time>
      </trkpt>
      <trkpt lat="48.69299" lon="8.2905">
        <ele>777.6</ele>
        <time>2020-07-25T08:53:59Z</time>
      </trkpt>
      <trkpt lat="48.69297" lon="8.29055">
        <ele>778.2</ele>
        <time>2020-07-25T08:54:02Z</time>
      </trkpt>
      <trkpt lat="48.69295" lon="8.29058">
        <ele>778.6</ele>
        <time>2020-07-25T08:54:04Z</time>
      </trkpt>
      <trkpt lat="48.69295" lon="8.29058">
        <ele>778.8</ele>
        <time>2020-07-25T08:54:05Z</time>
      </trkpt>
      <trkpt lat="48.69293" lon="8.29062">
        <ele>779.4</ele>
        <time>2020-07-25T08:54:07Z</time>
      </trkpt>
      <trkpt lat="48.6929" lon="8.29067">
        <ele>780.2</ele>
        <time>2020-07-25T08:54:10Z</time>
      </trkpt>
      <trkpt lat="48.69289" lon="8.29068">
        <ele>780.6</ele>
        <time>2020-07-25T08:54:11Z</time>
      </trkpt>
      <trkpt lat="48.69284" lon="8.29076">
        <ele>781.6</ele>
        <time>2020-07-25T08:54:16Z</time>
      </trkpt>
      <trkpt lat="48.69281" lon="8.29081">
        <ele>782.2</ele>
        <time>2020-07-25T08:54:19Z</time>
      </trkpt>
      <trkpt lat="48.69278" lon="8.29084">
        <ele>782.8</ele>
        <time>2020-07-25T08:54:21Z</time>
      </trkpt>
      <trkpt lat="48.69273" lon="8.29092">
        <ele>783.8</ele>
        <time>2020-07-25T08:54:26Z</time>
      </trkpt>
      <trkpt lat="48.69272" lon="8.29093">
        <ele>784</ele>
        <time>2020-07-25T08:54:27Z</time>
      </trkpt>
      <trkpt lat="48.69268" lon="8.29098">
        <ele>785</ele>
        <time>2020-07-25T08:54:31Z</time>
      </trkpt>
      <trkpt lat="48.69266" lon="8.29101">
        <ele>785.6</ele>
        <time>2020-07-25T08:54:33Z</time>
      </trkpt>
      <trkpt lat="48.69265" lon="8.29103">
        <ele>785.8</ele>
        <time>2020-07-25T08:54:34Z</time>
      </trkpt>
      <trkpt lat="48.69264" lon="8.29105">
        <ele>786</ele>
        <time>2020-07-25T08:54:35Z</time>
      </trkpt>
      <trkpt lat="48.69262" lon="8.29109">
        <ele>786.8</ele>
        <time>2020-07-25T08:54:38Z</time>
      </trkpt>
      <trkpt lat="48.69261" lon="8.2911">
        <ele>787.2</ele>
        <time>2020-07-25T08:54:39Z</time>
      </trkpt>
      <trkpt lat="48.69258" lon="8.29113">
        <ele>787.6</ele>
        <time>2020-07-25T08:54:41Z</time>
      </trkpt>
      <trkpt lat="48.69257" lon="8.29117">
        <ele>788</ele>
        <time>2020-07-25T08:54:44Z</time>
      </trkpt>
      <trkpt lat="48.69257" lon="8.2912">
        <ele>788.2</ele>
        <time>2020-07-25T08:54:45Z</time>
      </trkpt>
      <trkpt lat="48.69258" lon="8.29122">
        <ele>788.8</ele>
        <time>2020-07-25T08:54:47Z</time>
      </trkpt>
      <trkpt lat="48.69261" lon="8.29123">
        <ele>789.2</ele>
        <time>2020-07-25T08:54:49Z</time>
      </trkpt>
      <trkpt lat="48.69267" lon="8.2912">
        <ele>790.4</ele>
        <time>2020-07-25T08:54:53Z</time>
      </trkpt>
      <trkpt lat="48.69274" lon="8.29118">
        <ele>791</ele>
        <time>2020-07-25T08:55:00Z</time>
      </trkpt>
      <trkpt lat="48.69268" lon="8.29118">
        <ele>790.8</ele>
        <time>2020-07-25T08:56:12Z</time>
      </trkpt>
      <trkpt lat="48.69264" lon="8.2912">
        <ele>790.8</ele>
        <time>2020-07-25T08:56:14Z</time>
      </trkpt>
      <trkpt lat="48.69251" lon="8.29126">
        <ele>790.8</ele>
        <time>2020-07-25T08:56:20Z</time>
      </trkpt>
      <trkpt lat="48.6924" lon="8.29131">
        <ele>790.8</ele>
        <time>2020-07-25T08:56:24Z</time>
      </trkpt>
      <trkpt lat="48.69233" lon="8.29135">
        <ele>791</ele>
        <time>2020-07-25T08:56:27Z</time>
      </trkpt>
      <trkpt lat="48.69213" lon="8.29143">
        <ele>791.2</ele>
        <time>2020-07-25T08:56:34Z</time>
      </trkpt>
      <trkpt lat="48.69192" lon="8.29153">
        <ele>791.6</ele>
        <time>2020-07-25T08:56:41Z</time>
      </trkpt>
      <trkpt lat="48.69183" lon="8.29157">
        <ele>791.8</ele>
        <time>2020-07-25T08:56:44Z</time>
      </trkpt>
      <trkpt lat="48.69167" lon="8.29165">
        <ele>791.8</ele>
        <time>2020-07-25T08:56:49Z</time>
      </trkpt>
      <trkpt lat="48.69161" lon="8.29169">
        <ele>792</ele>
        <time>2020-07-25T08:56:51Z</time>
      </trkpt>
      <trkpt lat="48.69135" lon="8.29183">
        <ele>792.4</ele>
        <time>2020-07-25T08:56:59Z</time>
      </trkpt>
      <trkpt lat="48.6911" lon="8.29196">
        <ele>792.4</ele>
        <time>2020-07-25T08:57:06Z</time>
      </trkpt>
      <trkpt lat="48.69088" lon="8.29205">
        <ele>792.6</ele>
        <time>2020-07-25T08:57:12Z</time>
      </trkpt>
      <trkpt lat="48.69085" lon="8.29206">
        <ele>792.8</ele>
        <time>2020-07-25T08:57:13Z</time>
      </trkpt>
      <trkpt lat="48.69066" lon="8.29221">
        <ele>793</ele>
        <time>2020-07-25T08:57:19Z</time>
      </trkpt>
      <trkpt lat="48.69045" lon="8.2924">
        <ele>793.8</ele>
        <time>2020-07-25T08:57:26Z</time>
      </trkpt>
      <trkpt lat="48.69041" lon="8.29244">
        <ele>793.8</ele>
        <time>2020-07-25T08:57:27Z</time>
      </trkpt>
      <trkpt lat="48.69019" lon="8.29263">
        <ele>794.8</ele>
        <time>2020-07-25T08:57:34Z</time>
      </trkpt>
      <trkpt lat="48.69002" lon="8.29278">
        <ele>795</ele>
        <time>2020-07-25T08:57:39Z</time>
      </trkpt>
      <trkpt lat="48.68969" lon="8.29301">
        <ele>795.4</ele>
        <time>2020-07-25T08:57:49Z</time>
      </trkpt>
      <trkpt lat="48.68958" lon="8.29307">
        <ele>795.6</ele>
        <time>2020-07-25T08:57:52Z</time>
      </trkpt>
      <trkpt lat="48.68941" lon="8.29317">
        <ele>796</ele>
        <time>2020-07-25T08:57:57Z</time>
      </trkpt>
      <trkpt lat="48.6892" lon="8.29328">
        <ele>796.8</ele>
        <time>2020-07-25T08:58:03Z</time>
      </trkpt>
      <trkpt lat="48.68913" lon="8.29332">
        <ele>797</ele>
        <time>2020-07-25T08:58:05Z</time>
      </trkpt>
      <trkpt lat="48.68884" lon="8.29346">
        <ele>797.6</ele>
        <time>2020-07-25T08:58:13Z</time>
      </trkpt>
      <trkpt lat="48.68878" lon="8.29349">
        <ele>797.8</ele>
        <time>2020-07-25T08:58:15Z</time>
      </trkpt>
      <trkpt lat="48.68853" lon="8.29357">
        <ele>798.6</ele>
        <time>2020-07-25T08:58:22Z</time>
      </trkpt>
      <trkpt lat="48.6885" lon="8.29358">
        <ele>798.6</ele>
        <time>2020-07-25T08:58:23Z</time>
      </trkpt>
      <trkpt lat="48.68829" lon="8.29359">
        <ele>799.4</ele>
        <time>2020-07-25T08:58:30Z</time>
      </trkpt>
      <trkpt lat="48.68829" lon="8.29359">
        <ele>799.6</ele>
        <time>2020-07-25T08:58:32Z</time>
      </trkpt>
      <trkpt lat="48.68825" lon="8.29357">
        <ele>801</ele>
        <time>2020-07-25T09:00:16Z</time>
      </trkpt>
      <trkpt lat="48.68822" lon="8.29357">
        <ele>801.2</ele>
        <time>2020-07-25T09:00:17Z</time>
      </trkpt>
      <trkpt lat="48.68806" lon="8.29359">
        <ele>801</ele>
        <time>2020-07-25T09:00:22Z</time>
      </trkpt>
      <trkpt lat="48.6878" lon="8.2936">
        <ele>801.2</ele>
        <time>2020-07-25T09:00:30Z</time>
      </trkpt>
      <trkpt lat="48.68757" lon="8.29361">
        <ele>802</ele>
        <time>2020-07-25T09:00:37Z</time>
      </trkpt>
      <trkpt lat="48.68751" lon="8.29361">
        <ele>802.2</ele>
        <time>2020-07-25T09:00:39Z</time>
      </trkpt>
      <trkpt lat="48.68744" lon="8.29361">
        <ele>803</ele>
        <time>2020-07-25T09:00:41Z</time>
      </trkpt>
      <trkpt lat="48.68724" lon="8.29361">
        <ele>803.8</ele>
        <time>2020-07-25T09:00:47Z</time>
      </trkpt>
      <trkpt lat="48.68718" lon="8.29361">
        <ele>804</ele>
        <time>2020-07-25T09:00:49Z</time>
      </trkpt>
      <trkpt lat="48.68702" lon="8.29359">
        <ele>804.4</ele>
        <time>2020-07-25T09:00:54Z</time>
      </trkpt>
      <trkpt lat="48.68684" lon="8.29358">
        <ele>805.2</ele>
        <time>2020-07-25T09:01:00Z</time>
      </trkpt>
      <trkpt lat="48.68679" lon="8.29357">
        <ele>805.6</ele>
        <time>2020-07-25T09:01:02Z</time>
      </trkpt>
      <trkpt lat="48.68665" lon="8.29353">
        <ele>806.2</ele>
        <time>2020-07-25T09:01:07Z</time>
      </trkpt>
      <trkpt lat="48.6866" lon="8.29351">
        <ele>806.6</ele>
        <time>2020-07-25T09:01:09Z</time>
      </trkpt>
      <trkpt lat="48.68651" lon="8.29348">
        <ele>807.4</ele>
        <time>2020-07-25T09:01:12Z</time>
      </trkpt>
      <trkpt lat="48.68637" lon="8.29345">
        <ele>808.4</ele>
        <time>2020-07-25T09:01:17Z</time>
      </trkpt>
      <trkpt lat="48.68622" lon="8.2934">
        <ele>809.4</ele>
        <time>2020-07-25T09:01:22Z</time>
      </trkpt>
      <trkpt lat="48.68616" lon="8.29338">
        <ele>809.8</ele>
        <time>2020-07-25T09:01:24Z</time>
      </trkpt>
      <trkpt lat="48.68597" lon="8.2933">
        <ele>810.4</ele>
        <time>2020-07-25T09:01:30Z</time>
      </trkpt>
      <trkpt lat="48.68595" lon="8.29329">
        <ele>810.6</ele>
        <time>2020-07-25T09:01:31Z</time>
      </trkpt>
      <trkpt lat="48.68577" lon="8.2932">
        <ele>811.6</ele>
        <time>2020-07-25T09:01:37Z</time>
      </trkpt>
      <trkpt lat="48.68571" lon="8.29318">
        <ele>811.8</ele>
        <time>2020-07-25T09:01:39Z</time>
      </trkpt>
      <trkpt lat="48.68557" lon="8.29309">
        <ele>812.6</ele>
        <time>2020-07-25T09:01:44Z</time>
      </trkpt>
      <trkpt lat="48.68549" lon="8.29303">
        <ele>813</ele>
        <time>2020-07-25T09:01:47Z</time>
      </trkpt>
      <trkpt lat="48.68535" lon="8.29293">
        <ele>813.4</ele>
        <time>2020-07-25T09:01:52Z</time>
      </trkpt>
      <trkpt lat="48.68522" lon="8.29285">
        <ele>814.2</ele>
        <time>2020-07-25T09:01:57Z</time>
      </trkpt>
      <trkpt lat="48.68513" lon="8.29279">
        <ele>814.4</ele>
        <time>2020-07-25T09:02:00Z</time>
      </trkpt>
      <trkpt lat="48.68496" lon="8.29271">
        <ele>815.6</ele>
        <time>2020-07-25T09:02:06Z</time>
      </trkpt>
      <trkpt lat="48.6847" lon="8.29259">
        <ele>816.4</ele>
        <time>2020-07-25T09:02:15Z</time>
      </trkpt>
      <trkpt lat="48.68449" lon="8.29241">
        <ele>817.6</ele>
        <time>2020-07-25T09:02:23Z</time>
      </trkpt>
      <trkpt lat="48.68432" lon="8.29225">
        <ele>818.6</ele>
        <time>2020-07-25T09:02:30Z</time>
      </trkpt>
      <trkpt lat="48.68427" lon="8.2922">
        <ele>819</ele>
        <time>2020-07-25T09:02:32Z</time>
      </trkpt>
      <trkpt lat="48.68416" lon="8.29212">
        <ele>819.8</ele>
        <time>2020-07-25T09:02:36Z</time>
      </trkpt>
      <trkpt lat="48.6841" lon="8.29206">
        <ele>820</ele>
        <time>2020-07-25T09:02:39Z</time>
      </trkpt>
      <trkpt lat="48.68392" lon="8.29191">
        <ele>820.6</ele>
        <time>2020-07-25T09:02:46Z</time>
      </trkpt>
      <trkpt lat="48.6839" lon="8.29188">
        <ele>821</ele>
        <time>2020-07-25T09:02:47Z</time>
      </trkpt>
      <trkpt lat="48.68376" lon="8.29174">
        <ele>821.8</ele>
        <time>2020-07-25T09:02:53Z</time>
      </trkpt>
      <trkpt lat="48.68365" lon="8.29161">
        <ele>822.6</ele>
        <time>2020-07-25T09:02:58Z</time>
      </trkpt>
      <trkpt lat="48.6836" lon="8.29156">
        <ele>822.8</ele>
        <time>2020-07-25T09:03:00Z</time>
      </trkpt>
      <trkpt lat="48.68349" lon="8.29142">
        <ele>823.8</ele>
        <time>2020-07-25T09:03:05Z</time>
      </trkpt>
      <trkpt lat="48.68347" lon="8.2914">
        <ele>823.8</ele>
        <time>2020-07-25T09:03:06Z</time>
      </trkpt>
      <trkpt lat="48.68335" lon="8.29125">
        <ele>824.8</ele>
        <time>2020-07-25T09:03:12Z</time>
      </trkpt>
      <trkpt lat="48.68333" lon="8.29122">
        <ele>825</ele>
        <time>2020-07-25T09:03:13Z</time>
      </trkpt>
      <trkpt lat="48.68317" lon="8.29104">
        <ele>825.8</ele>
        <time>2020-07-25T09:03:20Z</time>
      </trkpt>
      <trkpt lat="48.68301" lon="8.29088">
        <ele>826.4</ele>
        <time>2020-07-25T09:03:27Z</time>
      </trkpt>
      <trkpt lat="48.6829" lon="8.29081">
        <ele>826.8</ele>
        <time>2020-07-25T09:03:31Z</time>
      </trkpt>
      <trkpt lat="48.6828" lon="8.29071">
        <ele>827.6</ele>
        <time>2020-07-25T09:03:35Z</time>
      </trkpt>
      <trkpt lat="48.68273" lon="8.29063">
        <ele>827.8</ele>
        <time>2020-07-25T09:03:38Z</time>
      </trkpt>
      <trkpt lat="48.68266" lon="8.29046">
        <ele>828.4</ele>
        <time>2020-07-25T09:03:42Z</time>
      </trkpt>
      <trkpt lat="48.68256" lon="8.29012">
        <ele>828.8</ele>
        <time>2020-07-25T09:03:50Z</time>
      </trkpt>
      <trkpt lat="48.68255" lon="8.29008">
        <ele>829</ele>
        <time>2020-07-25T09:03:51Z</time>
      </trkpt>
      <trkpt lat="48.68249" lon="8.28987">
        <ele>830.2</ele>
        <time>2020-07-25T09:03:56Z</time>
      </trkpt>
      <trkpt lat="48.68245" lon="8.28975">
        <ele>830.2</ele>
        <time>2020-07-25T09:03:59Z</time>
      </trkpt>
      <trkpt lat="48.68238" lon="8.28955">
        <ele>831</ele>
        <time>2020-07-25T09:04:04Z</time>
      </trkpt>
      <trkpt lat="48.68237" lon="8.28951">
        <ele>831.2</ele>
        <time>2020-07-25T09:04:05Z</time>
      </trkpt>
      <trkpt lat="48.68221" lon="8.28928">
        <ele>831.8</ele>
        <time>2020-07-25T09:04:12Z</time>
      </trkpt>
      <trkpt lat="48.68217" lon="8.28923">
        <ele>832.2</ele>
        <time>2020-07-25T09:04:14Z</time>
      </trkpt>
      <trkpt lat="48.68204" lon="8.28904">
        <ele>832.8</ele>
        <time>2020-07-25T09:04:20Z</time>
      </trkpt>
      <trkpt lat="48.68198" lon="8.28888">
        <ele>833.4</ele>
        <time>2020-07-25T09:04:24Z</time>
      </trkpt>
      <trkpt lat="48.68194" lon="8.28871">
        <ele>834.4</ele>
        <time>2020-07-25T09:04:28Z</time>
      </trkpt>
      <trkpt lat="48.68193" lon="8.28867">
        <ele>834.6</ele>
        <time>2020-07-25T09:04:29Z</time>
      </trkpt>
      <trkpt lat="48.68185" lon="8.28844">
        <ele>835</ele>
        <time>2020-07-25T09:04:35Z</time>
      </trkpt>
      <trkpt lat="48.68178" lon="8.28829">
        <ele>835.4</ele>
        <time>2020-07-25T09:04:39Z</time>
      </trkpt>
      <trkpt lat="48.68168" lon="8.28814">
        <ele>836.4</ele>
        <time>2020-07-25T09:04:44Z</time>
      </trkpt>
      <trkpt lat="48.68163" lon="8.28808">
        <ele>836.6</ele>
        <time>2020-07-25T09:04:46Z</time>
      </trkpt>
      <trkpt lat="48.68149" lon="8.28794">
        <ele>837.6</ele>
        <time>2020-07-25T09:04:52Z</time>
      </trkpt>
      <trkpt lat="48.68146" lon="8.2879">
        <ele>837.8</ele>
        <time>2020-07-25T09:04:53Z</time>
      </trkpt>
      <trkpt lat="48.68134" lon="8.2877">
        <ele>838.6</ele>
        <time>2020-07-25T09:04:59Z</time>
      </trkpt>
      <trkpt lat="48.6813" lon="8.28758">
        <ele>838.8</ele>
        <time>2020-07-25T09:05:02Z</time>
      </trkpt>
      <trkpt lat="48.68123" lon="8.28741">
        <ele>839.6</ele>
        <time>2020-07-25T09:05:07Z</time>
      </trkpt>
      <trkpt lat="48.68121" lon="8.28738">
        <ele>839.8</ele>
        <time>2020-07-25T09:05:08Z</time>
      </trkpt>
      <trkpt lat="48.68107" lon="8.28722">
        <ele>840.2</ele>
        <time>2020-07-25T09:05:14Z</time>
      </trkpt>
      <trkpt lat="48.68094" lon="8.28707">
        <ele>840.4</ele>
        <time>2020-07-25T09:05:19Z</time>
      </trkpt>
      <trkpt lat="48.68091" lon="8.28703">
        <ele>840.4</ele>
        <time>2020-07-25T09:05:20Z</time>
      </trkpt>
      <trkpt lat="48.68069" lon="8.28672">
        <ele>840.8</ele>
        <time>2020-07-25T09:05:29Z</time>
      </trkpt>
      <trkpt lat="48.68047" lon="8.28648">
        <ele>841.4</ele>
        <time>2020-07-25T09:05:37Z</time>
      </trkpt>
      <trkpt lat="48.68045" lon="8.28645">
        <ele>841.6</ele>
        <time>2020-07-25T09:05:38Z</time>
      </trkpt>
      <trkpt lat="48.68027" lon="8.28622">
        <ele>841.8</ele>
        <time>2020-07-25T09:05:45Z</time>
      </trkpt>
      <trkpt lat="48.68006" lon="8.28603">
        <ele>841.8</ele>
        <time>2020-07-25T09:05:52Z</time>
      </trkpt>
      <trkpt lat="48.67982" lon="8.28587">
        <ele>842.4</ele>
        <time>2020-07-25T09:05:59Z</time>
      </trkpt>
      <trkpt lat="48.67979" lon="8.28585">
        <ele>842.6</ele>
        <time>2020-07-25T09:06:00Z</time>
      </trkpt>
      <trkpt lat="48.67949" lon="8.28563">
        <ele>843.2</ele>
        <time>2020-07-25T09:06:09Z</time>
      </trkpt>
      <trkpt lat="48.67935" lon="8.28557">
        <ele>843.4</ele>
        <time>2020-07-25T09:06:13Z</time>
      </trkpt>
      <trkpt lat="48.67928" lon="8.28553">
        <ele>843.4</ele>
        <time>2020-07-25T09:06:15Z</time>
      </trkpt>
      <trkpt lat="48.67894" lon="8.28535">
        <ele>844</ele>
        <time>2020-07-25T09:06:24Z</time>
      </trkpt>
      <trkpt lat="48.67883" lon="8.28527">
        <ele>844.4</ele>
        <time>2020-07-25T09:06:27Z</time>
      </trkpt>
      <trkpt lat="48.67865" lon="8.28517">
        <ele>844.6</ele>
        <time>2020-07-25T09:06:32Z</time>
      </trkpt>
      <trkpt lat="48.67835" lon="8.28503">
        <ele>845</ele>
        <time>2020-07-25T09:06:40Z</time>
      </trkpt>
      <trkpt lat="48.67827" lon="8.28499">
        <ele>845.2</ele>
        <time>2020-07-25T09:06:42Z</time>
      </trkpt>
      <trkpt lat="48.67805" lon="8.2849">
        <ele>845.6</ele>
        <time>2020-07-25T09:06:48Z</time>
      </trkpt>
      <trkpt lat="48.6778" lon="8.28479">
        <ele>846.2</ele>
        <time>2020-07-25T09:06:55Z</time>
      </trkpt>
      <trkpt lat="48.67775" lon="8.28478">
        <ele>846.2</ele>
        <time>2020-07-25T09:06:56Z</time>
      </trkpt>
      <trkpt lat="48.67749" lon="8.28473">
        <ele>846.2</ele>
        <time>2020-07-25T09:07:03Z</time>
      </trkpt>
      <trkpt lat="48.67727" lon="8.28468">
        <ele>846.8</ele>
        <time>2020-07-25T09:07:09Z</time>
      </trkpt>
      <trkpt lat="48.67723" lon="8.28468">
        <ele>847</ele>
        <time>2020-07-25T09:07:10Z</time>
      </trkpt>
      <trkpt lat="48.67693" lon="8.28457">
        <ele>847.8</ele>
        <time>2020-07-25T09:07:18Z</time>
      </trkpt>
      <trkpt lat="48.67678" lon="8.28453">
        <ele>848.2</ele>
        <time>2020-07-25T09:07:22Z</time>
      </trkpt>
      <trkpt lat="48.67662" lon="8.2845">
        <ele>848.4</ele>
        <time>2020-07-25T09:07:26Z</time>
      </trkpt>
      <trkpt lat="48.67634" lon="8.2845">
        <ele>848.6</ele>
        <time>2020-07-25T09:07:33Z</time>
      </trkpt>
      <trkpt lat="48.67601" lon="8.28448">
        <ele>849.2</ele>
        <time>2020-07-25T09:07:41Z</time>
      </trkpt>
      <trkpt lat="48.67567" lon="8.28439">
        <ele>849.4</ele>
        <time>2020-07-25T09:07:49Z</time>
      </trkpt>
      <trkpt lat="48.67556" lon="8.28428">
        <ele>849.6</ele>
        <time>2020-07-25T09:07:52Z</time>
      </trkpt>
      <trkpt lat="48.67547" lon="8.28415">
        <ele>849.8</ele>
        <time>2020-07-25T09:07:55Z</time>
      </trkpt>
      <trkpt lat="48.67544" lon="8.28411">
        <ele>849.8</ele>
        <time>2020-07-25T09:07:56Z</time>
      </trkpt>
      <trkpt lat="48.67532" lon="8.28396">
        <ele>849.8</ele>
        <time>2020-07-25T09:08:00Z</time>
      </trkpt>
      <trkpt lat="48.67519" lon="8.28381">
        <ele>850</ele>
        <time>2020-07-25T09:08:05Z</time>
      </trkpt>
      <trkpt lat="48.67518" lon="8.28378">
        <ele>850</ele>
        <time>2020-07-25T09:08:06Z</time>
      </trkpt>
      <trkpt lat="48.6751" lon="8.28361">
        <ele>850.4</ele>
        <time>2020-07-25T09:08:12Z</time>
      </trkpt>
      <trkpt lat="48.67509" lon="8.28358">
        <ele>850.6</ele>
        <time>2020-07-25T09:08:15Z</time>
      </trkpt>
      <trkpt lat="48.67513" lon="8.28377">
        <ele>852.2</ele>
        <time>2020-07-25T09:15:20Z</time>
      </trkpt>
      <trkpt lat="48.67512" lon="8.28382">
        <ele>852.2</ele>
        <time>2020-07-25T09:15:22Z</time>
      </trkpt>
      <trkpt lat="48.67511" lon="8.28386">
        <ele>852.2</ele>
        <time>2020-07-25T09:15:25Z</time>
      </trkpt>
      <trkpt lat="48.67508" lon="8.28393">
        <ele>852.2</ele>
        <time>2020-07-25T09:15:29Z</time>
      </trkpt>
      <trkpt lat="48.67508" lon="8.28398">
        <ele>852</ele>
        <time>2020-07-25T09:15:31Z</time>
      </trkpt>
      <trkpt lat="48.67514" lon="8.28411">
        <ele>852</ele>
        <time>2020-07-25T09:15:36Z</time>
      </trkpt>
      <trkpt lat="48.67519" lon="8.28426">
        <ele>851.6</ele>
        <time>2020-07-25T09:15:40Z</time>
      </trkpt>
      <trkpt lat="48.6752" lon="8.28439">
        <ele>851</ele>
        <time>2020-07-25T09:15:43Z</time>
      </trkpt>
      <trkpt lat="48.67522" lon="8.2846">
        <ele>850.2</ele>
        <time>2020-07-25T09:15:48Z</time>
      </trkpt>
      <trkpt lat="48.67523" lon="8.28467">
        <ele>850</ele>
        <time>2020-07-25T09:15:50Z</time>
      </trkpt>
      <trkpt lat="48.67524" lon="8.28474">
        <ele>849.8</ele>
        <time>2020-07-25T09:15:52Z</time>
      </trkpt>
      <trkpt lat="48.67524" lon="8.28493">
        <ele>849</ele>
        <time>2020-07-25T09:15:56Z</time>
      </trkpt>
      <trkpt lat="48.67523" lon="8.28507">
        <ele>848.6</ele>
        <time>2020-07-25T09:15:59Z</time>
      </trkpt>
      <trkpt lat="48.67523" lon="8.28522">
        <ele>847.6</ele>
        <time>2020-07-25T09:16:02Z</time>
      </trkpt>
      <trkpt lat="48.67522" lon="8.28536">
        <ele>846.2</ele>
        <time>2020-07-25T09:16:05Z</time>
      </trkpt>
      <trkpt lat="48.67524" lon="8.28546">
        <ele>844.8</ele>
        <time>2020-07-25T09:16:08Z</time>
      </trkpt>
      <trkpt lat="48.67525" lon="8.28553">
        <ele>843.6</ele>
        <time>2020-07-25T09:16:10Z</time>
      </trkpt>
      <trkpt lat="48.67526" lon="8.28563">
        <ele>842.4</ele>
        <time>2020-07-25T09:16:12Z</time>
      </trkpt>
      <trkpt lat="48.67528" lon="8.28578">
        <ele>841.2</ele>
        <time>2020-07-25T09:16:15Z</time>
      </trkpt>
      <trkpt lat="48.67529" lon="8.28583">
        <ele>841</ele>
        <time>2020-07-25T09:16:16Z</time>
      </trkpt>
      <trkpt lat="48.67534" lon="8.28601">
        <ele>840</ele>
        <time>2020-07-25T09:16:20Z</time>
      </trkpt>
      <trkpt lat="48.67538" lon="8.28618">
        <ele>839.2</ele>
        <time>2020-07-25T09:16:24Z</time>
      </trkpt>
      <trkpt lat="48.67539" lon="8.28622">
        <ele>838.8</ele>
        <time>2020-07-25T09:16:26Z</time>
      </trkpt>
      <trkpt lat="48.6754" lon="8.28623">
        <ele>838.6</ele>
        <time>2020-07-25T09:16:28Z</time>
      </trkpt>
      <trkpt lat="48.6754" lon="8.28623">
        <ele>838.6</ele>
        <time>2020-07-25T09:16:29Z</time>
      </trkpt>
      <trkpt lat="48.67538" lon="8.28616">
        <ele>838.6</ele>
        <time>2020-07-25T09:16:47Z</time>
      </trkpt>
      <trkpt lat="48.67535" lon="8.28608">
        <ele>838.6</ele>
        <time>2020-07-25T09:16:49Z</time>
      </trkpt>
      <trkpt lat="48.67528" lon="8.28582">
        <ele>838.6</ele>
        <time>2020-07-25T09:16:55Z</time>
      </trkpt>
      <trkpt lat="48.67523" lon="8.28558">
        <ele>838.6</ele>
        <time>2020-07-25T09:17:02Z</time>
      </trkpt>
      <trkpt lat="48.67522" lon="8.28556">
        <ele>838.6</ele>
        <time>2020-07-25T09:17:03Z</time>
      </trkpt>
      <trkpt lat="48.67521" lon="8.28555">
        <ele>838.8</ele>
        <time>2020-07-25T09:17:05Z</time>
      </trkpt>
      <trkpt lat="48.6752" lon="8.28555">
        <ele>839</ele>
        <time>2020-07-25T09:17:06Z</time>
      </trkpt>
      <trkpt lat="48.67516" lon="8.2857">
        <ele>839.2</ele>
        <time>2020-07-25T09:17:10Z</time>
      </trkpt>
      <trkpt lat="48.67511" lon="8.28601">
        <ele>839</ele>
        <time>2020-07-25T09:17:18Z</time>
      </trkpt>
      <trkpt lat="48.67509" lon="8.28615">
        <ele>837.6</ele>
        <time>2020-07-25T09:17:21Z</time>
      </trkpt>
      <trkpt lat="48.67509" lon="8.28628">
        <ele>836.4</ele>
        <time>2020-07-25T09:17:24Z</time>
      </trkpt>
      <trkpt lat="48.6751" lon="8.28632">
        <ele>836</ele>
        <time>2020-07-25T09:17:25Z</time>
      </trkpt>
      <trkpt lat="48.6751" lon="8.28636">
        <ele>835.2</ele>
        <time>2020-07-25T09:17:26Z</time>
      </trkpt>
      <trkpt lat="48.67509" lon="8.28651">
        <ele>834.2</ele>
        <time>2020-07-25T09:17:29Z</time>
      </trkpt>
      <trkpt lat="48.67509" lon="8.28655">
        <ele>833.8</ele>
        <time>2020-07-25T09:17:30Z</time>
      </trkpt>
      <trkpt lat="48.67508" lon="8.28663">
        <ele>833</ele>
        <time>2020-07-25T09:17:32Z</time>
      </trkpt>
      <trkpt lat="48.67506" lon="8.28676">
        <ele>832</ele>
        <time>2020-07-25T09:17:35Z</time>
      </trkpt>
      <trkpt lat="48.67506" lon="8.2868">
        <ele>831.6</ele>
        <time>2020-07-25T09:17:36Z</time>
      </trkpt>
      <trkpt lat="48.67506" lon="8.28685">
        <ele>830.8</ele>
        <time>2020-07-25T09:17:38Z</time>
      </trkpt>
      <trkpt lat="48.67505" lon="8.28689">
        <ele>830</ele>
        <time>2020-07-25T09:17:39Z</time>
      </trkpt>
      <trkpt lat="48.67505" lon="8.28694">
        <ele>829.6</ele>
        <time>2020-07-25T09:17:40Z</time>
      </trkpt>
      <trkpt lat="48.67506" lon="8.28702">
        <ele>828.6</ele>
        <time>2020-07-25T09:17:42Z</time>
      </trkpt>
      <trkpt lat="48.67506" lon="8.28705">
        <ele>828</ele>
        <time>2020-07-25T09:17:43Z</time>
      </trkpt>
      <trkpt lat="48.67508" lon="8.28713">
        <ele>827.4</ele>
        <time>2020-07-25T09:17:45Z</time>
      </trkpt>
      <trkpt lat="48.6751" lon="8.28728">
        <ele>825.8</ele>
        <time>2020-07-25T09:17:49Z</time>
      </trkpt>
      <trkpt lat="48.6751" lon="8.28732">
        <ele>825.4</ele>
        <time>2020-07-25T09:17:50Z</time>
      </trkpt>
      <trkpt lat="48.67512" lon="8.2874">
        <ele>825</ele>
        <time>2020-07-25T09:17:52Z</time>
      </trkpt>
      <trkpt lat="48.67513" lon="8.28744">
        <ele>824.6</ele>
        <time>2020-07-25T09:17:53Z</time>
      </trkpt>
      <trkpt lat="48.67516" lon="8.28753">
        <ele>823.4</ele>
        <time>2020-07-25T09:17:55Z</time>
      </trkpt>
      <trkpt lat="48.67516" lon="8.28757">
        <ele>822.8</ele>
        <time>2020-07-25T09:17:56Z</time>
      </trkpt>
      <trkpt lat="48.67516" lon="8.28762">
        <ele>822</ele>
        <time>2020-07-25T09:17:58Z</time>
      </trkpt>
      <trkpt lat="48.67515" lon="8.28761">
        <ele>821.8</ele>
        <time>2020-07-25T09:17:59Z</time>
      </trkpt>
      <trkpt lat="48.67514" lon="8.28758">
        <ele>821.4</ele>
        <time>2020-07-25T09:18:00Z</time>
      </trkpt>
      <trkpt lat="48.67513" lon="8.28756">
        <ele>821</ele>
        <time>2020-07-25T09:18:01Z</time>
      </trkpt>
      <trkpt lat="48.67513" lon="8.28754">
        <ele>819.6</ele>
        <time>2020-07-25T09:18:03Z</time>
      </trkpt>
      <trkpt lat="48.67513" lon="8.28754">
        <ele>818.8</ele>
        <time>2020-07-25T09:18:05Z</time>
      </trkpt>
      <trkpt lat="48.67509" lon="8.28749">
        <ele>818.2</ele>
        <time>2020-07-25T09:18:22Z</time>
      </trkpt>
      <trkpt lat="48.67504" lon="8.28744">
        <ele>818</ele>
        <time>2020-07-25T09:18:24Z</time>
      </trkpt>
      <trkpt lat="48.67488" lon="8.28721">
        <ele>818</ele>
        <time>2020-07-25T09:18:29Z</time>
      </trkpt>
      <trkpt lat="48.67474" lon="8.28701">
        <ele>817</ele>
        <time>2020-07-25T09:18:33Z</time>
      </trkpt>
      <trkpt lat="48.67467" lon="8.2869">
        <ele>815.8</ele>
        <time>2020-07-25T09:18:35Z</time>
      </trkpt>
      <trkpt lat="48.6746" lon="8.28679">
        <ele>814.8</ele>
        <time>2020-07-25T09:18:37Z</time>
      </trkpt>
      <trkpt lat="48.67454" lon="8.2867">
        <ele>813.4</ele>
        <time>2020-07-25T09:18:39Z</time>
      </trkpt>
      <trkpt lat="48.67447" lon="8.28662">
        <ele>812</ele>
        <time>2020-07-25T09:18:41Z</time>
      </trkpt>
      <trkpt lat="48.67442" lon="8.28657">
        <ele>811.4</ele>
        <time>2020-07-25T09:18:42Z</time>
      </trkpt>
      <trkpt lat="48.67438" lon="8.28652">
        <ele>810.8</ele>
        <time>2020-07-25T09:18:43Z</time>
      </trkpt>
      <trkpt lat="48.6743" lon="8.28643">
        <ele>809</ele>
        <time>2020-07-25T09:18:45Z</time>
      </trkpt>
      <trkpt lat="48.67421" lon="8.28634">
        <ele>807.4</ele>
        <time>2020-07-25T09:18:47Z</time>
      </trkpt>
      <trkpt lat="48.67412" lon="8.28627">
        <ele>805.8</ele>
        <time>2020-07-25T09:18:49Z</time>
      </trkpt>
      <trkpt lat="48.67403" lon="8.28619">
        <ele>804.2</ele>
        <time>2020-07-25T09:18:51Z</time>
      </trkpt>
      <trkpt lat="48.67397" lon="8.28617">
        <ele>803.4</ele>
        <time>2020-07-25T09:18:52Z</time>
      </trkpt>
      <trkpt lat="48.67392" lon="8.28615">
        <ele>802.6</ele>
        <time>2020-07-25T09:18:53Z</time>
      </trkpt>
      <trkpt lat="48.6738" lon="8.28613">
        <ele>801</ele>
        <time>2020-07-25T09:18:55Z</time>
      </trkpt>
      <trkpt lat="48.6737" lon="8.28614">
        <ele>799.6</ele>
        <time>2020-07-25T09:18:57Z</time>
      </trkpt>
      <trkpt lat="48.67361" lon="8.28619">
        <ele>797.8</ele>
        <time>2020-07-25T09:18:59Z</time>
      </trkpt>
      <trkpt lat="48.67353" lon="8.28626">
        <ele>796.2</ele>
        <time>2020-07-25T09:19:01Z</time>
      </trkpt>
      <trkpt lat="48.67349" lon="8.28631">
        <ele>795.4</ele>
        <time>2020-07-25T09:19:02Z</time>
      </trkpt>
      <trkpt lat="48.67344" lon="8.28635">
        <ele>794.6</ele>
        <time>2020-07-25T09:19:03Z</time>
      </trkpt>
      <trkpt lat="48.67336" lon="8.28645">
        <ele>794</ele>
        <time>2020-07-25T09:19:05Z</time>
      </trkpt>
      <trkpt lat="48.67333" lon="8.28651">
        <ele>793</ele>
        <time>2020-07-25T09:19:06Z</time>
      </trkpt>
      <trkpt lat="48.6733" lon="8.28658">
        <ele>792.4</ele>
        <time>2020-07-25T09:19:07Z</time>
      </trkpt>
      <trkpt lat="48.67328" lon="8.28664">
        <ele>791.6</ele>
        <time>2020-07-25T09:19:08Z</time>
      </trkpt>
      <trkpt lat="48.67325" lon="8.28669">
        <ele>790.8</ele>
        <time>2020-07-25T09:19:09Z</time>
      </trkpt>
      <trkpt lat="48.67323" lon="8.28673">
        <ele>790</ele>
        <time>2020-07-25T09:19:10Z</time>
      </trkpt>
      <trkpt lat="48.6732" lon="8.28679">
        <ele>788.4</ele>
        <time>2020-07-25T09:19:12Z</time>
      </trkpt>
      <trkpt lat="48.67318" lon="8.28684">
        <ele>787</ele>
        <time>2020-07-25T09:19:14Z</time>
      </trkpt>
      <trkpt lat="48.67317" lon="8.28686">
        <ele>786</ele>
        <time>2020-07-25T09:19:15Z</time>
      </trkpt>
      <trkpt lat="48.67317" lon="8.28689">
        <ele>785.2</ele>
        <time>2020-07-25T09:19:16Z</time>
      </trkpt>
      <trkpt lat="48.67318" lon="8.28693">
        <ele>784.6</ele>
        <time>2020-07-25T09:19:17Z</time>
      </trkpt>
      <trkpt lat="48.67318" lon="8.28696">
        <ele>784.2</ele>
        <time>2020-07-25T09:19:18Z</time>
      </trkpt>
      <trkpt lat="48.67318" lon="8.287">
        <ele>783.2</ele>
        <time>2020-07-25T09:19:22Z</time>
      </trkpt>
      <trkpt lat="48.67318" lon="8.28705">
        <ele>780.8</ele>
        <time>2020-07-25T09:20:16Z</time>
      </trkpt>
      <trkpt lat="48.67319" lon="8.28716">
        <ele>780.8</ele>
        <time>2020-07-25T09:20:18Z</time>
      </trkpt>
      <trkpt lat="48.67319" lon="8.28724">
        <ele>780.6</ele>
        <time>2020-07-25T09:20:20Z</time>
      </trkpt>
      <trkpt lat="48.67316" lon="8.28735">
        <ele>780.4</ele>
        <time>2020-07-25T09:20:22Z</time>
      </trkpt>
      <trkpt lat="48.67303" lon="8.28749">
        <ele>779.4</ele>
        <time>2020-07-25T09:20:26Z</time>
      </trkpt>
      <trkpt lat="48.67299" lon="8.28755">
        <ele>778.8</ele>
        <time>2020-07-25T09:20:28Z</time>
      </trkpt>
      <trkpt lat="48.67297" lon="8.28758">
        <ele>778.4</ele>
        <time>2020-07-25T09:20:29Z</time>
      </trkpt>
      <trkpt lat="48.67294" lon="8.28766">
        <ele>778</ele>
        <time>2020-07-25T09:20:31Z</time>
      </trkpt>
      <trkpt lat="48.67285" lon="8.28788">
        <ele>778</ele>
        <time>2020-07-25T09:20:37Z</time>
      </trkpt>
      <trkpt lat="48.67275" lon="8.28807">
        <ele>778.2</ele>
        <time>2020-07-25T09:20:42Z</time>
      </trkpt>
      <trkpt lat="48.67262" lon="8.28828">
        <ele>779.4</ele>
        <time>2020-07-25T09:20:48Z</time>
      </trkpt>
      <trkpt lat="48.6726" lon="8.28832">
        <ele>779.6</ele>
        <time>2020-07-25T09:20:49Z</time>
      </trkpt>
      <trkpt lat="48.67249" lon="8.28852">
        <ele>780.4</ele>
        <time>2020-07-25T09:20:55Z</time>
      </trkpt>
      <trkpt lat="48.67248" lon="8.28855">
        <ele>780.6</ele>
        <time>2020-07-25T09:20:56Z</time>
      </trkpt>
      <trkpt lat="48.67236" lon="8.28872">
        <ele>781.6</ele>
        <time>2020-07-25T09:21:01Z</time>
      </trkpt>
      <trkpt lat="48.67232" lon="8.28878">
        <ele>782</ele>
        <time>2020-07-25T09:21:03Z</time>
      </trkpt>
      <trkpt lat="48.67223" lon="8.28891">
        <ele>782.8</ele>
        <time>2020-07-25T09:21:07Z</time>
      </trkpt>
      <trkpt lat="48.67219" lon="8.28898">
        <ele>783</ele>
        <time>2020-07-25T09:21:09Z</time>
      </trkpt>
      <trkpt lat="48.67209" lon="8.28919">
        <ele>784</ele>
        <time>2020-07-25T09:21:15Z</time>
      </trkpt>
      <trkpt lat="48.67206" lon="8.2893">
        <ele>784.6</ele>
        <time>2020-07-25T09:21:18Z</time>
      </trkpt>
      <trkpt lat="48.67204" lon="8.28938">
        <ele>784.8</ele>
        <time>2020-07-25T09:21:20Z</time>
      </trkpt>
      <trkpt lat="48.67198" lon="8.28966">
        <ele>785.6</ele>
        <time>2020-07-25T09:21:27Z</time>
      </trkpt>
      <trkpt lat="48.67196" lon="8.28973">
        <ele>785.8</ele>
        <time>2020-07-25T09:21:29Z</time>
      </trkpt>
      <trkpt lat="48.67193" lon="8.28994">
        <ele>786.6</ele>
        <time>2020-07-25T09:21:34Z</time>
      </trkpt>
      <trkpt lat="48.67191" lon="8.29002">
        <ele>786.8</ele>
        <time>2020-07-25T09:21:36Z</time>
      </trkpt>
      <trkpt lat="48.6719" lon="8.29006">
        <ele>787</ele>
        <time>2020-07-25T09:21:37Z</time>
      </trkpt>
      <trkpt lat="48.67186" lon="8.29026">
        <ele>788</ele>
        <time>2020-07-25T09:21:42Z</time>
      </trkpt>
      <trkpt lat="48.67185" lon="8.2903">
        <ele>788.4</ele>
        <time>2020-07-25T09:21:43Z</time>
      </trkpt>
      <trkpt lat="48.6718" lon="8.29053">
        <ele>789.4</ele>
        <time>2020-07-25T09:21:49Z</time>
      </trkpt>
      <trkpt lat="48.67179" lon="8.29056">
        <ele>789.6</ele>
        <time>2020-07-25T09:21:50Z</time>
      </trkpt>
      <trkpt lat="48.67175" lon="8.29072">
        <ele>790.4</ele>
        <time>2020-07-25T09:21:54Z</time>
      </trkpt>
      <trkpt lat="48.67172" lon="8.29083">
        <ele>791</ele>
        <time>2020-07-25T09:21:57Z</time>
      </trkpt>
      <trkpt lat="48.67168" lon="8.29093">
        <ele>791.4</ele>
        <time>2020-07-25T09:22:00Z</time>
      </trkpt>
      <trkpt lat="48.67164" lon="8.29107">
        <ele>791.8</ele>
        <time>2020-07-25T09:22:04Z</time>
      </trkpt>
      <trkpt lat="48.67158" lon="8.29124">
        <ele>792.4</ele>
        <time>2020-07-25T09:22:09Z</time>
      </trkpt>
      <trkpt lat="48.67157" lon="8.29127">
        <ele>792.8</ele>
        <time>2020-07-25T09:22:10Z</time>
      </trkpt>
      <trkpt lat="48.67153" lon="8.29146">
        <ele>793.4</ele>
        <time>2020-07-25T09:22:15Z</time>
      </trkpt>
      <trkpt lat="48.67149" lon="8.29162">
        <ele>794</ele>
        <time>2020-07-25T09:22:19Z</time>
      </trkpt>
      <trkpt lat="48.67147" lon="8.29175">
        <ele>794.6</ele>
        <time>2020-07-25T09:22:22Z</time>
      </trkpt>
      <trkpt lat="48.67142" lon="8.29199">
        <ele>795.2</ele>
        <time>2020-07-25T09:22:28Z</time>
      </trkpt>
      <trkpt lat="48.6714" lon="8.29211">
        <ele>795.4</ele>
        <time>2020-07-25T09:22:31Z</time>
      </trkpt>
      <trkpt lat="48.67137" lon="8.29226">
        <ele>796.6</ele>
        <time>2020-07-25T09:22:35Z</time>
      </trkpt>
      <trkpt lat="48.67136" lon="8.2923">
        <ele>796.6</ele>
        <time>2020-07-25T09:22:36Z</time>
      </trkpt>
      <trkpt lat="48.67133" lon="8.29254">
        <ele>797.6</ele>
        <time>2020-07-25T09:22:42Z</time>
      </trkpt>
      <trkpt lat="48.6713" lon="8.29265">
        <ele>798.2</ele>
        <time>2020-07-25T09:22:45Z</time>
      </trkpt>
      <trkpt lat="48.67127" lon="8.29281">
        <ele>798.6</ele>
        <time>2020-07-25T09:22:49Z</time>
      </trkpt>
      <trkpt lat="48.67121" lon="8.29303">
        <ele>799.6</ele>
        <time>2020-07-25T09:22:55Z</time>
      </trkpt>
      <trkpt lat="48.67113" lon="8.29328">
        <ele>800.6</ele>
        <time>2020-07-25T09:23:02Z</time>
      </trkpt>
      <trkpt lat="48.67111" lon="8.29331">
        <ele>800.6</ele>
        <time>2020-07-25T09:23:03Z</time>
      </trkpt>
      <trkpt lat="48.67104" lon="8.29352">
        <ele>801.6</ele>
        <time>2020-07-25T09:23:09Z</time>
      </trkpt>
      <trkpt lat="48.67102" lon="8.29359">
        <ele>801.8</ele>
        <time>2020-07-25T09:23:11Z</time>
      </trkpt>
      <trkpt lat="48.67097" lon="8.29379">
        <ele>802.6</ele>
        <time>2020-07-25T09:23:16Z</time>
      </trkpt>
      <trkpt lat="48.67095" lon="8.29391">
        <ele>803</ele>
        <time>2020-07-25T09:23:19Z</time>
      </trkpt>
      <trkpt lat="48.67091" lon="8.29415">
        <ele>804.2</ele>
        <time>2020-07-25T09:23:25Z</time>
      </trkpt>
      <trkpt lat="48.67091" lon="8.2942">
        <ele>804.2</ele>
        <time>2020-07-25T09:23:26Z</time>
      </trkpt>
      <trkpt lat="48.67087" lon="8.29445">
        <ele>805.2</ele>
        <time>2020-07-25T09:23:32Z</time>
      </trkpt>
      <trkpt lat="48.67084" lon="8.29453">
        <ele>805.6</ele>
        <time>2020-07-25T09:23:34Z</time>
      </trkpt>
      <trkpt lat="48.67074" lon="8.29471">
        <ele>805.8</ele>
        <time>2020-07-25T09:23:40Z</time>
      </trkpt>
      <trkpt lat="48.67065" lon="8.29478">
        <ele>806.2</ele>
        <time>2020-07-25T09:23:43Z</time>
      </trkpt>
      <trkpt lat="48.67054" lon="8.29486">
        <ele>806.6</ele>
        <time>2020-07-25T09:23:47Z</time>
      </trkpt>
      <trkpt lat="48.67035" lon="8.29497">
        <ele>807</ele>
        <time>2020-07-25T09:23:54Z</time>
      </trkpt>
      <trkpt lat="48.67029" lon="8.29497">
        <ele>807.2</ele>
        <time>2020-07-25T09:23:56Z</time>
      </trkpt>
      <trkpt lat="48.67018" lon="8.29494">
        <ele>807.6</ele>
        <time>2020-07-25T09:23:59Z</time>
      </trkpt>
      <trkpt lat="48.66998" lon="8.29491">
        <ele>808.2</ele>
        <time>2020-07-25T09:24:06Z</time>
      </trkpt>
      <trkpt lat="48.66993" lon="8.2949">
        <ele>808.4</ele>
        <time>2020-07-25T09:24:08Z</time>
      </trkpt>
      <trkpt lat="48.66981" lon="8.29486">
        <ele>808.8</ele>
        <time>2020-07-25T09:24:12Z</time>
      </trkpt>
      <trkpt lat="48.66965" lon="8.29472">
        <ele>809.2</ele>
        <time>2020-07-25T09:24:18Z</time>
      </trkpt>
      <trkpt lat="48.66963" lon="8.2947">
        <ele>809.2</ele>
        <time>2020-07-25T09:24:19Z</time>
      </trkpt>
      <trkpt lat="48.6696" lon="8.29467">
        <ele>809.4</ele>
        <time>2020-07-25T09:24:20Z</time>
      </trkpt>
      <trkpt lat="48.66955" lon="8.29462">
        <ele>809.4</ele>
        <time>2020-07-25T09:24:22Z</time>
      </trkpt>
      <trkpt lat="48.66935" lon="8.29443">
        <ele>809.6</ele>
        <time>2020-07-25T09:24:29Z</time>
      </trkpt>
      <trkpt lat="48.66917" lon="8.29426">
        <ele>810.2</ele>
        <time>2020-07-25T09:24:35Z</time>
      </trkpt>
      <trkpt lat="48.6691" lon="8.29421">
        <ele>810.4</ele>
        <time>2020-07-25T09:24:37Z</time>
      </trkpt>
      <trkpt lat="48.66889" lon="8.29408">
        <ele>810.4</ele>
        <time>2020-07-25T09:24:43Z</time>
      </trkpt>
      <trkpt lat="48.66867" lon="8.29407">
        <ele>810.4</ele>
        <time>2020-07-25T09:24:49Z</time>
      </trkpt>
      <trkpt lat="48.66853" lon="8.29418">
        <ele>810.4</ele>
        <time>2020-07-25T09:24:53Z</time>
      </trkpt>
      <trkpt lat="48.66835" lon="8.29437">
        <ele>810.4</ele>
        <time>2020-07-25T09:24:59Z</time>
      </trkpt>
      <trkpt lat="48.6682" lon="8.29452">
        <ele>810.4</ele>
        <time>2020-07-25T09:25:04Z</time>
      </trkpt>
      <trkpt lat="48.66798" lon="8.29466">
        <ele>810.8</ele>
        <time>2020-07-25T09:25:10Z</time>
      </trkpt>
      <trkpt lat="48.66782" lon="8.29474">
        <ele>811.2</ele>
        <time>2020-07-25T09:25:14Z</time>
      </trkpt>
      <trkpt lat="48.66773" lon="8.29474">
        <ele>811.4</ele>
        <time>2020-07-25T09:25:16Z</time>
      </trkpt>
      <trkpt lat="48.66753" lon="8.29477">
        <ele>811.6</ele>
        <time>2020-07-25T09:25:21Z</time>
      </trkpt>
      <trkpt lat="48.66729" lon="8.29491">
        <ele>811.6</ele>
        <time>2020-07-25T09:25:27Z</time>
      </trkpt>
      <trkpt lat="48.667" lon="8.29506">
        <ele>811.6</ele>
        <time>2020-07-25T09:25:35Z</time>
      </trkpt>
      <trkpt lat="48.66685" lon="8.29521">
        <ele>811.6</ele>
        <time>2020-07-25T09:25:40Z</time>
      </trkpt>
      <trkpt lat="48.66674" lon="8.29539">
        <ele>811.6</ele>
        <time>2020-07-25T09:25:45Z</time>
      </trkpt>
      <trkpt lat="48.66675" lon="8.29554">
        <ele>811.6</ele>
        <time>2020-07-25T09:25:49Z</time>
      </trkpt>
      <trkpt lat="48.6668" lon="8.29573">
        <ele>811.6</ele>
        <time>2020-07-25T09:25:54Z</time>
      </trkpt>
      <trkpt lat="48.66693" lon="8.29595">
        <ele>811.8</ele>
        <time>2020-07-25T09:26:00Z</time>
      </trkpt>
      <trkpt lat="48.66704" lon="8.29608">
        <ele>811.8</ele>
        <time>2020-07-25T09:26:04Z</time>
      </trkpt>
      <trkpt lat="48.66716" lon="8.2962">
        <ele>812.2</ele>
        <time>2020-07-25T09:26:08Z</time>
      </trkpt>
      <trkpt lat="48.6673" lon="8.29629">
        <ele>812.4</ele>
        <time>2020-07-25T09:26:12Z</time>
      </trkpt>
      <trkpt lat="48.66748" lon="8.29639">
        <ele>812.8</ele>
        <time>2020-07-25T09:26:17Z</time>
      </trkpt>
      <trkpt lat="48.66777" lon="8.29651">
        <ele>813.4</ele>
        <time>2020-07-25T09:26:26Z</time>
      </trkpt>
      <trkpt lat="48.66795" lon="8.29654">
        <ele>813.8</ele>
        <time>2020-07-25T09:26:31Z</time>
      </trkpt>
      <trkpt lat="48.66815" lon="8.29659">
        <ele>813.8</ele>
        <time>2020-07-25T09:26:36Z</time>
      </trkpt>
      <trkpt lat="48.66833" lon="8.29674">
        <ele>813.6</ele>
        <time>2020-07-25T09:26:42Z</time>
      </trkpt>
      <trkpt lat="48.66843" lon="8.29687">
        <ele>813.6</ele>
        <time>2020-07-25T09:26:47Z</time>
      </trkpt>
      <trkpt lat="48.66844" lon="8.29691">
        <ele>813.6</ele>
        <time>2020-07-25T09:26:48Z</time>
      </trkpt>
      <trkpt lat="48.66845" lon="8.2971">
        <ele>814</ele>
        <time>2020-07-25T09:26:53Z</time>
      </trkpt>
      <trkpt lat="48.66844" lon="8.29743">
        <ele>814.4</ele>
        <time>2020-07-25T09:26:59Z</time>
      </trkpt>
      <trkpt lat="48.66843" lon="8.29749">
        <ele>814.4</ele>
        <time>2020-07-25T09:27:00Z</time>
      </trkpt>
      <trkpt lat="48.66842" lon="8.29783">
        <ele>814.8</ele>
        <time>2020-07-25T09:27:06Z</time>
      </trkpt>
      <trkpt lat="48.66851" lon="8.29839">
        <ele>815.2</ele>
        <time>2020-07-25T09:27:15Z</time>
      </trkpt>
      <trkpt lat="48.66852" lon="8.29852">
        <ele>815.2</ele>
        <time>2020-07-25T09:27:17Z</time>
      </trkpt>
      <trkpt lat="48.66849" lon="8.29865">
        <ele>815.2</ele>
        <time>2020-07-25T09:27:19Z</time>
      </trkpt>
      <trkpt lat="48.66848" lon="8.29872">
        <ele>815.2</ele>
        <time>2020-07-25T09:27:20Z</time>
      </trkpt>
      <trkpt lat="48.66839" lon="8.2989">
        <ele>815.2</ele>
        <time>2020-07-25T09:27:23Z</time>
      </trkpt>
      <trkpt lat="48.6683" lon="8.29895">
        <ele>815</ele>
        <time>2020-07-25T09:27:25Z</time>
      </trkpt>
      <trkpt lat="48.6682" lon="8.299">
        <ele>814.8</ele>
        <time>2020-07-25T09:27:27Z</time>
      </trkpt>
      <trkpt lat="48.66815" lon="8.29902">
        <ele>814.6</ele>
        <time>2020-07-25T09:27:28Z</time>
      </trkpt>
      <trkpt lat="48.66793" lon="8.29913">
        <ele>813.6</ele>
        <time>2020-07-25T09:27:32Z</time>
      </trkpt>
      <trkpt lat="48.66787" lon="8.29918">
        <ele>813.4</ele>
        <time>2020-07-25T09:27:33Z</time>
      </trkpt>
      <trkpt lat="48.66764" lon="8.29936">
        <ele>812.2</ele>
        <time>2020-07-25T09:27:37Z</time>
      </trkpt>
      <trkpt lat="48.66758" lon="8.29941">
        <ele>812</ele>
        <time>2020-07-25T09:27:38Z</time>
      </trkpt>
      <trkpt lat="48.66746" lon="8.29951">
        <ele>811.2</ele>
        <time>2020-07-25T09:27:40Z</time>
      </trkpt>
      <trkpt lat="48.6672" lon="8.29972">
        <ele>810.2</ele>
        <time>2020-07-25T09:27:44Z</time>
      </trkpt>
      <trkpt lat="48.66714" lon="8.29978">
        <ele>809.8</ele>
        <time>2020-07-25T09:27:45Z</time>
      </trkpt>
      <trkpt lat="48.66707" lon="8.29983">
        <ele>809.4</ele>
        <time>2020-07-25T09:27:46Z</time>
      </trkpt>
      <trkpt lat="48.667" lon="8.29987">
        <ele>809.2</ele>
        <time>2020-07-25T09:27:47Z</time>
      </trkpt>
      <trkpt lat="48.66678" lon="8.29999">
        <ele>808.4</ele>
        <time>2020-07-25T09:27:50Z</time>
      </trkpt>
      <trkpt lat="48.66671" lon="8.30002">
        <ele>808</ele>
        <time>2020-07-25T09:27:51Z</time>
      </trkpt>
      <trkpt lat="48.66651" lon="8.30012">
        <ele>807</ele>
        <time>2020-07-25T09:27:54Z</time>
      </trkpt>
      <trkpt lat="48.66644" lon="8.30014">
        <ele>806.6</ele>
        <time>2020-07-25T09:27:55Z</time>
      </trkpt>
      <trkpt lat="48.66631" lon="8.30015">
        <ele>806</ele>
        <time>2020-07-25T09:27:57Z</time>
      </trkpt>
      <trkpt lat="48.66624" lon="8.30014">
        <ele>805.8</ele>
        <time>2020-07-25T09:27:58Z</time>
      </trkpt>
      <trkpt lat="48.66602" lon="8.30012">
        <ele>805.4</ele>
        <time>2020-07-25T09:28:02Z</time>
      </trkpt>
      <trkpt lat="48.66597" lon="8.30011">
        <ele>805.4</ele>
        <time>2020-07-25T09:28:03Z</time>
      </trkpt>
      <trkpt lat="48.66584" lon="8.30007">
        <ele>804.6</ele>
        <time>2020-07-25T09:28:06Z</time>
      </trkpt>
      <trkpt lat="48.66582" lon="8.30007">
        <ele>804.4</ele>
        <time>2020-07-25T09:28:07Z</time>
      </trkpt>
      <trkpt lat="48.66581" lon="8.30008">
        <ele>804.2</ele>
        <time>2020-07-25T09:28:10Z</time>
      </trkpt>
      <trkpt lat="48.66579" lon="8.30007">
        <ele>803.8</ele>
        <time>2020-07-25T09:29:17Z</time>
      </trkpt>
      <trkpt lat="48.66563" lon="8.3">
        <ele>804</ele>
        <time>2020-07-25T09:29:22Z</time>
      </trkpt>
      <trkpt lat="48.66542" lon="8.29988">
        <ele>803.4</ele>
        <time>2020-07-25T09:29:27Z</time>
      </trkpt>
      <trkpt lat="48.66533" lon="8.29982">
        <ele>803</ele>
        <time>2020-07-25T09:29:29Z</time>
      </trkpt>
      <trkpt lat="48.66517" lon="8.29974">
        <ele>802</ele>
        <time>2020-07-25T09:29:32Z</time>
      </trkpt>
      <trkpt lat="48.66512" lon="8.29971">
        <ele>801.8</ele>
        <time>2020-07-25T09:29:33Z</time>
      </trkpt>
      <trkpt lat="48.66491" lon="8.29958">
        <ele>800.8</ele>
        <time>2020-07-25T09:29:37Z</time>
      </trkpt>
      <trkpt lat="48.6646" lon="8.29937">
        <ele>800.2</ele>
        <time>2020-07-25T09:29:43Z</time>
      </trkpt>
      <trkpt lat="48.66451" lon="8.29931">
        <ele>799.4</ele>
        <time>2020-07-25T09:29:45Z</time>
      </trkpt>
      <trkpt lat="48.66439" lon="8.29922">
        <ele>798.2</ele>
        <time>2020-07-25T09:29:49Z</time>
      </trkpt>
      <trkpt lat="48.66439" lon="8.29922">
        <ele>798</ele>
        <time>2020-07-25T09:29:51Z</time>
      </trkpt>
      <trkpt lat="48.66435" lon="8.29919">
        <ele>798</ele>
        <time>2020-07-25T09:32:05Z</time>
      </trkpt>
      <trkpt lat="48.66419" lon="8.29906">
        <ele>798</ele>
        <time>2020-07-25T09:32:10Z</time>
      </trkpt>
      <trkpt lat="48.66406" lon="8.29894">
        <ele>797.4</ele>
        <time>2020-07-25T09:32:15Z</time>
      </trkpt>
      <trkpt lat="48.66405" lon="8.29893">
        <ele>797.2</ele>
        <time>2020-07-25T09:32:18Z</time>
      </trkpt>
      <trkpt lat="48.664" lon="8.29893">
        <ele>796.4</ele>
        <time>2020-07-25T09:33:18Z</time>
      </trkpt>
      <trkpt lat="48.6639" lon="8.29885">
        <ele>796.2</ele>
        <time>2020-07-25T09:33:22Z</time>
      </trkpt>
      <trkpt lat="48.66368" lon="8.29867">
        <ele>795.2</ele>
        <time>2020-07-25T09:33:28Z</time>
      </trkpt>
      <trkpt lat="48.66365" lon="8.29863">
        <ele>795</ele>
        <time>2020-07-25T09:33:29Z</time>
      </trkpt>
      <trkpt lat="48.66347" lon="8.29843">
        <ele>794.4</ele>
        <time>2020-07-25T09:33:35Z</time>
      </trkpt>
      <trkpt lat="48.66335" lon="8.29827">
        <ele>794</ele>
        <time>2020-07-25T09:33:38Z</time>
      </trkpt>
      <trkpt lat="48.66332" lon="8.29822">
        <ele>794</ele>
        <time>2020-07-25T09:33:39Z</time>
      </trkpt>
      <trkpt lat="48.66328" lon="8.29817">
        <ele>794</ele>
        <time>2020-07-25T09:33:40Z</time>
      </trkpt>
      <trkpt lat="48.66312" lon="8.29793">
        <ele>793.2</ele>
        <time>2020-07-25T09:33:46Z</time>
      </trkpt>
      <trkpt lat="48.66308" lon="8.29789">
        <ele>792.8</ele>
        <time>2020-07-25T09:33:47Z</time>
      </trkpt>
      <trkpt lat="48.66286" lon="8.29757">
        <ele>792</ele>
        <time>2020-07-25T09:33:53Z</time>
      </trkpt>
      <trkpt lat="48.66282" lon="8.29752">
        <ele>791.8</ele>
        <time>2020-07-25T09:33:54Z</time>
      </trkpt>
      <trkpt lat="48.66278" lon="8.29746">
        <ele>791.8</ele>
        <time>2020-07-25T09:33:55Z</time>
      </trkpt>
      <trkpt lat="48.66267" lon="8.2973">
        <ele>791.6</ele>
        <time>2020-07-25T09:33:57Z</time>
      </trkpt>
      <trkpt lat="48.66252" lon="8.29713">
        <ele>791</ele>
        <time>2020-07-25T09:34:00Z</time>
      </trkpt>
      <trkpt lat="48.66243" lon="8.29701">
        <ele>790.6</ele>
        <time>2020-07-25T09:34:02Z</time>
      </trkpt>
      <trkpt lat="48.66223" lon="8.29682">
        <ele>789.4</ele>
        <time>2020-07-25T09:34:06Z</time>
      </trkpt>
      <trkpt lat="48.6621" lon="8.29671">
        <ele>789</ele>
        <time>2020-07-25T09:34:08Z</time>
      </trkpt>
      <trkpt lat="48.66193" lon="8.29659">
        <ele>788.2</ele>
        <time>2020-07-25T09:34:11Z</time>
      </trkpt>
      <trkpt lat="48.66186" lon="8.29654">
        <ele>787.8</ele>
        <time>2020-07-25T09:34:12Z</time>
      </trkpt>
      <trkpt lat="48.66174" lon="8.29643">
        <ele>787.2</ele>
        <time>2020-07-25T09:34:14Z</time>
      </trkpt>
      <trkpt lat="48.66156" lon="8.29625">
        <ele>785.8</ele>
        <time>2020-07-25T09:34:17Z</time>
      </trkpt>
      <trkpt lat="48.66144" lon="8.29611">
        <ele>785.4</ele>
        <time>2020-07-25T09:34:19Z</time>
      </trkpt>
      <trkpt lat="48.66132" lon="8.29596">
        <ele>784.6</ele>
        <time>2020-07-25T09:34:21Z</time>
      </trkpt>
      <trkpt lat="48.66121" lon="8.2958">
        <ele>784</ele>
        <time>2020-07-25T09:34:23Z</time>
      </trkpt>
      <trkpt lat="48.66115" lon="8.29573">
        <ele>783.8</ele>
        <time>2020-07-25T09:34:24Z</time>
      </trkpt>
      <trkpt lat="48.66104" lon="8.29559">
        <ele>783.4</ele>
        <time>2020-07-25T09:34:26Z</time>
      </trkpt>
      <trkpt lat="48.6609" lon="8.29544">
        <ele>781.8</ele>
        <time>2020-07-25T09:34:29Z</time>
      </trkpt>
      <trkpt lat="48.6608" lon="8.29532">
        <ele>781</ele>
        <time>2020-07-25T09:34:32Z</time>
      </trkpt>
      <trkpt lat="48.66077" lon="8.29527">
        <ele>780.8</ele>
        <time>2020-07-25T09:34:33Z</time>
      </trkpt>
      <trkpt lat="48.66057" lon="8.29497">
        <ele>780.4</ele>
        <time>2020-07-25T09:34:38Z</time>
      </trkpt>
      <trkpt lat="48.66042" lon="8.29472">
        <ele>779.6</ele>
        <time>2020-07-25T09:34:42Z</time>
      </trkpt>
      <trkpt lat="48.66028" lon="8.29448">
        <ele>779.4</ele>
        <time>2020-07-25T09:34:45Z</time>
      </trkpt>
      <trkpt lat="48.66023" lon="8.29437">
        <ele>778.6</ele>
        <time>2020-07-25T09:34:48Z</time>
      </trkpt>
      <trkpt lat="48.66023" lon="8.29437">
        <ele>778.2</ele>
        <time>2020-07-25T09:34:50Z</time>
      </trkpt>
      <trkpt lat="48.66025" lon="8.29443">
        <ele>778</ele>
        <time>2020-07-25T09:35:31Z</time>
      </trkpt>
      <trkpt lat="48.66033" lon="8.29462">
        <ele>778.2</ele>
        <time>2020-07-25T09:35:38Z</time>
      </trkpt>
      <trkpt lat="48.66041" lon="8.29475">
        <ele>778.4</ele>
        <time>2020-07-25T09:35:43Z</time>
      </trkpt>
      <trkpt lat="48.66053" lon="8.29493">
        <ele>778.8</ele>
        <time>2020-07-25T09:35:48Z</time>
      </trkpt>
      <trkpt lat="48.66072" lon="8.29523">
        <ele>779.6</ele>
        <time>2020-07-25T09:35:56Z</time>
      </trkpt>
      <trkpt lat="48.66079" lon="8.29533">
        <ele>779.8</ele>
        <time>2020-07-25T09:35:59Z</time>
      </trkpt>
      <trkpt lat="48.66087" lon="8.29541">
        <ele>780.2</ele>
        <time>2020-07-25T09:36:02Z</time>
      </trkpt>
      <trkpt lat="48.66095" lon="8.29553">
        <ele>781</ele>
        <time>2020-07-25T09:36:07Z</time>
      </trkpt>
      <trkpt lat="48.66096" lon="8.29554">
        <ele>781.2</ele>
        <time>2020-07-25T09:36:08Z</time>
      </trkpt>
      <trkpt lat="48.6611" lon="8.29569">
        <ele>782</ele>
        <time>2020-07-25T09:36:15Z</time>
      </trkpt>
      <trkpt lat="48.66113" lon="8.29571">
        <ele>782</ele>
        <time>2020-07-25T09:36:16Z</time>
      </trkpt>
      <trkpt lat="48.66121" lon="8.2958">
        <ele>782.2</ele>
        <time>2020-07-25T09:36:19Z</time>
      </trkpt>
      <trkpt lat="48.66141" lon="8.29604">
        <ele>782.8</ele>
        <time>2020-07-25T09:36:26Z</time>
      </trkpt>
      <trkpt lat="48.66151" lon="8.29617">
        <ele>783</ele>
        <time>2020-07-25T09:36:30Z</time>
      </trkpt>
      <trkpt lat="48.6616" lon="8.29628">
        <ele>783.6</ele>
        <time>2020-07-25T09:36:33Z</time>
      </trkpt>
      <trkpt lat="48.66177" lon="8.29649">
        <ele>784</ele>
        <time>2020-07-25T09:36:39Z</time>
      </trkpt>
      <trkpt lat="48.6618" lon="8.29652">
        <ele>784.2</ele>
        <time>2020-07-25T09:36:40Z</time>
      </trkpt>
      <trkpt lat="48.66195" lon="8.29665">
        <ele>785.2</ele>
        <time>2020-07-25T09:36:45Z</time>
      </trkpt>
      <trkpt lat="48.66199" lon="8.29668">
        <ele>785.4</ele>
        <time>2020-07-25T09:36:46Z</time>
      </trkpt>
      <trkpt lat="48.66219" lon="8.2968">
        <ele>786.4</ele>
        <time>2020-07-25T09:36:52Z</time>
      </trkpt>
      <trkpt lat="48.6624" lon="8.29699">
        <ele>787.4</ele>
        <time>2020-07-25T09:36:59Z</time>
      </trkpt>
      <trkpt lat="48.66243" lon="8.29702">
        <ele>787.4</ele>
        <time>2020-07-25T09:37:00Z</time>
      </trkpt>
      <trkpt lat="48.66258" lon="8.2972">
        <ele>788.2</ele>
        <time>2020-07-25T09:37:05Z</time>
      </trkpt>
      <trkpt lat="48.66264" lon="8.29728">
        <ele>788.6</ele>
        <time>2020-07-25T09:37:07Z</time>
      </trkpt>
      <trkpt lat="48.66276" lon="8.29743">
        <ele>789</ele>
        <time>2020-07-25T09:37:11Z</time>
      </trkpt>
      <trkpt lat="48.66287" lon="8.29759">
        <ele>789.6</ele>
        <time>2020-07-25T09:37:15Z</time>
      </trkpt>
      <trkpt lat="48.66291" lon="8.29767">
        <ele>789.6</ele>
        <time>2020-07-25T09:37:17Z</time>
      </trkpt>
      <trkpt lat="48.66308" lon="8.2979">
        <ele>790.6</ele>
        <time>2020-07-25T09:37:23Z</time>
      </trkpt>
      <trkpt lat="48.66311" lon="8.29793">
        <ele>790.8</ele>
        <time>2020-07-25T09:37:24Z</time>
      </trkpt>
      <trkpt lat="48.66331" lon="8.29818">
        <ele>791.4</ele>
        <time>2020-07-25T09:37:31Z</time>
      </trkpt>
      <trkpt lat="48.66333" lon="8.29822">
        <ele>791.6</ele>
        <time>2020-07-25T09:37:32Z</time>
      </trkpt>
      <trkpt lat="48.66352" lon="8.29847">
        <ele>792.6</ele>
        <time>2020-07-25T09:37:39Z</time>
      </trkpt>
      <trkpt lat="48.66372" lon="8.29867">
        <ele>793.8</ele>
        <time>2020-07-25T09:37:46Z</time>
      </trkpt>
      <trkpt lat="48.66391" lon="8.29883">
        <ele>794.8</ele>
        <time>2020-07-25T09:37:53Z</time>
      </trkpt>
      <trkpt lat="48.664" lon="8.29891">
        <ele>795.6</ele>
        <time>2020-07-25T09:37:58Z</time>
      </trkpt>
      <trkpt lat="48.66401" lon="8.29893">
        <ele>795.8</ele>
        <time>2020-07-25T09:37:59Z</time>
      </trkpt>
      <trkpt lat="48.66404" lon="8.29898">
        <ele>796.2</ele>
        <time>2020-07-25T09:38:02Z</time>
      </trkpt>
      <trkpt lat="48.66406" lon="8.29896">
        <ele>796.6</ele>
        <time>2020-07-25T09:38:05Z</time>
      </trkpt>
      <trkpt lat="48.66405" lon="8.29895">
        <ele>796.6</ele>
        <time>2020-07-25T09:38:06Z</time>
      </trkpt>
      <trkpt lat="48.66404" lon="8.29893">
        <ele>796.8</ele>
        <time>2020-07-25T09:38:07Z</time>
      </trkpt>
      <trkpt lat="48.66403" lon="8.29893">
        <ele>796.8</ele>
        <time>2020-07-25T09:38:08Z</time>
      </trkpt>
      <trkpt lat="48.66401" lon="8.29895">
        <ele>796.8</ele>
        <time>2020-07-25T09:38:10Z</time>
      </trkpt>
      <trkpt lat="48.6639" lon="8.29895">
        <ele>796.6</ele>
        <time>2020-07-25T09:38:16Z</time>
      </trkpt>
      <trkpt lat="48.66379" lon="8.29901">
        <ele>795.2</ele>
        <time>2020-07-25T09:38:22Z</time>
      </trkpt>
      <trkpt lat="48.66373" lon="8.29904">
        <ele>794</ele>
        <time>2020-07-25T09:38:25Z</time>
      </trkpt>
      <trkpt lat="48.66369" lon="8.29905">
        <ele>792.8</ele>
        <time>2020-07-25T09:38:27Z</time>
      </trkpt>
      <trkpt lat="48.66366" lon="8.29906">
        <ele>792.4</ele>
        <time>2020-07-25T09:38:28Z</time>
      </trkpt>
      <trkpt lat="48.66361" lon="8.29907">
        <ele>791.4</ele>
        <time>2020-07-25T09:38:30Z</time>
      </trkpt>
      <trkpt lat="48.66357" lon="8.29907">
        <ele>790.2</ele>
        <time>2020-07-25T09:38:32Z</time>
      </trkpt>
      <trkpt lat="48.66351" lon="8.29909">
        <ele>788.6</ele>
        <time>2020-07-25T09:38:35Z</time>
      </trkpt>
      <trkpt lat="48.66347" lon="8.29909">
        <ele>787.4</ele>
        <time>2020-07-25T09:38:37Z</time>
      </trkpt>
      <trkpt lat="48.66342" lon="8.29909">
        <ele>786</ele>
        <time>2020-07-25T09:38:39Z</time>
      </trkpt>
      <trkpt lat="48.66338" lon="8.29908">
        <ele>784.6</ele>
        <time>2020-07-25T09:38:41Z</time>
      </trkpt>
      <trkpt lat="48.66335" lon="8.29908">
        <ele>784</ele>
        <time>2020-07-25T09:38:42Z</time>
      </trkpt>
      <trkpt lat="48.66333" lon="8.29907">
        <ele>783.4</ele>
        <time>2020-07-25T09:38:43Z</time>
      </trkpt>
      <trkpt lat="48.6633" lon="8.29906">
        <ele>782.8</ele>
        <time>2020-07-25T09:38:44Z</time>
      </trkpt>
      <trkpt lat="48.66326" lon="8.29905">
        <ele>782</ele>
        <time>2020-07-25T09:38:45Z</time>
      </trkpt>
      <trkpt lat="48.66319" lon="8.29902">
        <ele>781</ele>
        <time>2020-07-25T09:38:47Z</time>
      </trkpt>
      <trkpt lat="48.66312" lon="8.29901">
        <ele>779.8</ele>
        <time>2020-07-25T09:38:49Z</time>
      </trkpt>
      <trkpt lat="48.66305" lon="8.29898">
        <ele>778.6</ele>
        <time>2020-07-25T09:38:52Z</time>
      </trkpt>
      <trkpt lat="48.663" lon="8.29899">
        <ele>777.4</ele>
        <time>2020-07-25T09:38:54Z</time>
      </trkpt>
      <trkpt lat="48.66292" lon="8.299">
        <ele>776.4</ele>
        <time>2020-07-25T09:38:57Z</time>
      </trkpt>
      <trkpt lat="48.66287" lon="8.29904">
        <ele>776.2</ele>
        <time>2020-07-25T09:38:59Z</time>
      </trkpt>
      <trkpt lat="48.66277" lon="8.29912">
        <ele>775</ele>
        <time>2020-07-25T09:39:03Z</time>
      </trkpt>
      <trkpt lat="48.66271" lon="8.29911">
        <ele>774</ele>
        <time>2020-07-25T09:39:05Z</time>
      </trkpt>
      <trkpt lat="48.66267" lon="8.29909">
        <ele>772.8</ele>
        <time>2020-07-25T09:39:07Z</time>
      </trkpt>
      <trkpt lat="48.66263" lon="8.29907">
        <ele>771.4</ele>
        <time>2020-07-25T09:39:10Z</time>
      </trkpt>
      <trkpt lat="48.66261" lon="8.29906">
        <ele>770</ele>
        <time>2020-07-25T09:39:12Z</time>
      </trkpt>
      <trkpt lat="48.6626" lon="8.29905">
        <ele>769.4</ele>
        <time>2020-07-25T09:39:13Z</time>
      </trkpt>
      <trkpt lat="48.66259" lon="8.29904">
        <ele>769</ele>
        <time>2020-07-25T09:39:14Z</time>
      </trkpt>
      <trkpt lat="48.66258" lon="8.29904">
        <ele>768.6</ele>
        <time>2020-07-25T09:39:15Z</time>
      </trkpt>
      <trkpt lat="48.66255" lon="8.29905">
        <ele>767.8</ele>
        <time>2020-07-25T09:39:17Z</time>
      </trkpt>
      <trkpt lat="48.66254" lon="8.29905">
        <ele>767.6</ele>
        <time>2020-07-25T09:39:18Z</time>
      </trkpt>
      <trkpt lat="48.66253" lon="8.29905">
        <ele>767.2</ele>
        <time>2020-07-25T09:39:19Z</time>
      </trkpt>
      <trkpt lat="48.66251" lon="8.29904">
        <ele>767</ele>
        <time>2020-07-25T09:39:20Z</time>
      </trkpt>
      <trkpt lat="48.66249" lon="8.29905">
        <ele>766.8</ele>
        <time>2020-07-25T09:39:21Z</time>
      </trkpt>
      <trkpt lat="48.66242" lon="8.29906">
        <ele>766.2</ele>
        <time>2020-07-25T09:39:24Z</time>
      </trkpt>
      <trkpt lat="48.66237" lon="8.29907">
        <ele>765.4</ele>
        <time>2020-07-25T09:39:26Z</time>
      </trkpt>
      <trkpt lat="48.6623" lon="8.29909">
        <ele>764.4</ele>
        <time>2020-07-25T09:39:29Z</time>
      </trkpt>
      <trkpt lat="48.66223" lon="8.29911">
        <ele>763.2</ele>
        <time>2020-07-25T09:39:32Z</time>
      </trkpt>
      <trkpt lat="48.66219" lon="8.29913">
        <ele>761.4</ele>
        <time>2020-07-25T09:39:34Z</time>
      </trkpt>
      <trkpt lat="48.66215" lon="8.29911">
        <ele>760.4</ele>
        <time>2020-07-25T09:39:36Z</time>
      </trkpt>
      <trkpt lat="48.66208" lon="8.2991">
        <ele>759.2</ele>
        <time>2020-07-25T09:39:39Z</time>
      </trkpt>
      <trkpt lat="48.66207" lon="8.2991">
        <ele>758.2</ele>
        <time>2020-07-25T09:39:41Z</time>
      </trkpt>
      <trkpt lat="48.66207" lon="8.2991">
        <ele>757.6</ele>
        <time>2020-07-25T09:39:42Z</time>
      </trkpt>
      <trkpt lat="48.662" lon="8.29908">
        <ele>755.2</ele>
        <time>2020-07-25T09:40:14Z</time>
      </trkpt>
      <trkpt lat="48.66196" lon="8.29907">
        <ele>755.2</ele>
        <time>2020-07-25T09:40:16Z</time>
      </trkpt>
      <trkpt lat="48.66189" lon="8.29906">
        <ele>755.2</ele>
        <time>2020-07-25T09:40:19Z</time>
      </trkpt>
      <trkpt lat="48.66185" lon="8.29906">
        <ele>754.8</ele>
        <time>2020-07-25T09:40:21Z</time>
      </trkpt>
      <trkpt lat="48.66179" lon="8.29905">
        <ele>753.8</ele>
        <time>2020-07-25T09:40:23Z</time>
      </trkpt>
      <trkpt lat="48.6617" lon="8.29902">
        <ele>752.6</ele>
        <time>2020-07-25T09:40:26Z</time>
      </trkpt>
      <trkpt lat="48.66159" lon="8.29899">
        <ele>751.6</ele>
        <time>2020-07-25T09:40:30Z</time>
      </trkpt>
      <trkpt lat="48.66155" lon="8.29897">
        <ele>750.4</ele>
        <time>2020-07-25T09:40:32Z</time>
      </trkpt>
      <trkpt lat="48.66151" lon="8.29895">
        <ele>749.2</ele>
        <time>2020-07-25T09:40:34Z</time>
      </trkpt>
      <trkpt lat="48.66147" lon="8.29895">
        <ele>748</ele>
        <time>2020-07-25T09:40:36Z</time>
      </trkpt>
      <trkpt lat="48.66142" lon="8.29894">
        <ele>746.8</ele>
        <time>2020-07-25T09:40:39Z</time>
      </trkpt>
      <trkpt lat="48.66142" lon="8.29894">
        <ele>746.2</ele>
        <time>2020-07-25T09:40:40Z</time>
      </trkpt>
      <trkpt lat="48.66142" lon="8.29894">
        <ele>745.6</ele>
        <time>2020-07-25T09:40:41Z</time>
      </trkpt>
      <trkpt lat="48.66069" lon="8.2989">
        <ele>729.2</ele>
        <time>2020-07-25T09:42:15Z</time>
      </trkpt>
      <trkpt lat="48.66066" lon="8.2989">
        <ele>728.6</ele>
        <time>2020-07-25T09:42:18Z</time>
      </trkpt>
      <trkpt lat="48.66065" lon="8.29892">
        <ele>728.2</ele>
        <time>2020-07-25T09:42:20Z</time>
      </trkpt>
      <trkpt lat="48.66064" lon="8.29894">
        <ele>727.6</ele>
        <time>2020-07-25T09:42:22Z</time>
      </trkpt>
      <trkpt lat="48.66065" lon="8.29898">
        <ele>727</ele>
        <time>2020-07-25T09:42:26Z</time>
      </trkpt>
      <trkpt lat="48.66065" lon="8.29898">
        <ele>726.8</ele>
        <time>2020-07-25T09:42:27Z</time>
      </trkpt>
      <trkpt lat="48.66065" lon="8.29898">
        <ele>726.6</ele>
        <time>2020-07-25T09:42:28Z</time>
      </trkpt>
      <trkpt lat="48.66068" lon="8.29902">
        <ele>726.4</ele>
        <time>2020-07-25T09:43:23Z</time>
      </trkpt>
      <trkpt lat="48.66071" lon="8.29907">
        <ele>726.6</ele>
        <time>2020-07-25T09:43:25Z</time>
      </trkpt>
      <trkpt lat="48.66084" lon="8.29924">
        <ele>726.6</ele>
        <time>2020-07-25T09:43:31Z</time>
      </trkpt>
      <trkpt lat="48.66098" lon="8.29943">
        <ele>726.4</ele>
        <time>2020-07-25T09:43:37Z</time>
      </trkpt>
      <trkpt lat="48.66114" lon="8.29969">
        <ele>726.4</ele>
        <time>2020-07-25T09:43:44Z</time>
      </trkpt>
      <trkpt lat="48.66133" lon="8.29999">
        <ele>727</ele>
        <time>2020-07-25T09:43:52Z</time>
      </trkpt>
      <trkpt lat="48.66149" lon="8.30024">
        <ele>727.8</ele>
        <time>2020-07-25T09:43:57Z</time>
      </trkpt>
      <trkpt lat="48.6617" lon="8.30066">
        <ele>727.8</ele>
        <time>2020-07-25T09:44:03Z</time>
      </trkpt>
      <trkpt lat="48.66189" lon="8.30107">
        <ele>726.6</ele>
        <time>2020-07-25T09:44:08Z</time>
      </trkpt>
      <trkpt lat="48.66192" lon="8.30115">
        <ele>726.2</ele>
        <time>2020-07-25T09:44:09Z</time>
      </trkpt>
      <trkpt lat="48.66196" lon="8.30123">
        <ele>725.8</ele>
        <time>2020-07-25T09:44:10Z</time>
      </trkpt>
      <trkpt lat="48.66203" lon="8.30138">
        <ele>725.2</ele>
        <time>2020-07-25T09:44:12Z</time>
      </trkpt>
      <trkpt lat="48.66218" lon="8.30173">
        <ele>723.8</ele>
        <time>2020-07-25T09:44:16Z</time>
      </trkpt>
      <trkpt lat="48.66222" lon="8.30181">
        <ele>723.8</ele>
        <time>2020-07-25T09:44:17Z</time>
      </trkpt>
      <trkpt lat="48.66237" lon="8.30212">
        <ele>723</ele>
        <time>2020-07-25T09:44:20Z</time>
      </trkpt>
      <trkpt lat="48.66241" lon="8.30218">
        <ele>722.4</ele>
        <time>2020-07-25T09:44:21Z</time>
      </trkpt>
      <trkpt lat="48.66246" lon="8.30224">
        <ele>721.4</ele>
        <time>2020-07-25T09:44:22Z</time>
      </trkpt>
      <trkpt lat="48.66257" lon="8.30235">
        <ele>720.8</ele>
        <time>2020-07-25T09:44:24Z</time>
      </trkpt>
      <trkpt lat="48.66263" lon="8.30239">
        <ele>720.2</ele>
        <time>2020-07-25T09:44:25Z</time>
      </trkpt>
      <trkpt lat="48.66269" lon="8.30244">
        <ele>719.6</ele>
        <time>2020-07-25T09:44:26Z</time>
      </trkpt>
      <trkpt lat="48.66282" lon="8.30251">
        <ele>718.4</ele>
        <time>2020-07-25T09:44:28Z</time>
      </trkpt>
      <trkpt lat="48.66302" lon="8.30268">
        <ele>717.8</ele>
        <time>2020-07-25T09:44:31Z</time>
      </trkpt>
      <trkpt lat="48.66308" lon="8.30275">
        <ele>717.6</ele>
        <time>2020-07-25T09:44:32Z</time>
      </trkpt>
      <trkpt lat="48.66314" lon="8.30283">
        <ele>717.4</ele>
        <time>2020-07-25T09:44:33Z</time>
      </trkpt>
      <trkpt lat="48.66327" lon="8.30302">
        <ele>716.4</ele>
        <time>2020-07-25T09:44:35Z</time>
      </trkpt>
      <trkpt lat="48.66332" lon="8.30309">
        <ele>715.8</ele>
        <time>2020-07-25T09:44:36Z</time>
      </trkpt>
      <trkpt lat="48.66339" lon="8.30319">
        <ele>714.8</ele>
        <time>2020-07-25T09:44:37Z</time>
      </trkpt>
      <trkpt lat="48.6635" lon="8.30337">
        <ele>713.4</ele>
        <time>2020-07-25T09:44:39Z</time>
      </trkpt>
      <trkpt lat="48.66367" lon="8.30365">
        <ele>712.2</ele>
        <time>2020-07-25T09:44:42Z</time>
      </trkpt>
      <trkpt lat="48.66383" lon="8.30394">
        <ele>711.2</ele>
        <time>2020-07-25T09:44:45Z</time>
      </trkpt>
      <trkpt lat="48.66396" lon="8.3042">
        <ele>710</ele>
        <time>2020-07-25T09:44:48Z</time>
      </trkpt>
      <trkpt lat="48.66411" lon="8.30448">
        <ele>709.6</ele>
        <time>2020-07-25T09:44:51Z</time>
      </trkpt>
      <trkpt lat="48.66419" lon="8.30462">
        <ele>708.8</ele>
        <time>2020-07-25T09:44:53Z</time>
      </trkpt>
      <trkpt lat="48.66425" lon="8.3047">
        <ele>708.4</ele>
        <time>2020-07-25T09:44:54Z</time>
      </trkpt>
      <trkpt lat="48.66436" lon="8.30481">
        <ele>708</ele>
        <time>2020-07-25T09:44:56Z</time>
      </trkpt>
      <trkpt lat="48.66446" lon="8.30491">
        <ele>708</ele>
        <time>2020-07-25T09:44:58Z</time>
      </trkpt>
      <trkpt lat="48.66455" lon="8.30504">
        <ele>707.8</ele>
        <time>2020-07-25T09:45:00Z</time>
      </trkpt>
      <trkpt lat="48.66457" lon="8.30508">
        <ele>707.6</ele>
        <time>2020-07-25T09:45:01Z</time>
      </trkpt>
      <trkpt lat="48.66459" lon="8.30514">
        <ele>707.4</ele>
        <time>2020-07-25T09:45:03Z</time>
      </trkpt>
      <trkpt lat="48.66459" lon="8.30515">
        <ele>707.2</ele>
        <time>2020-07-25T09:45:06Z</time>
      </trkpt>
      <trkpt lat="48.66467" lon="8.30518">
        <ele>707</ele>
        <time>2020-07-25T09:45:15Z</time>
      </trkpt>
      <trkpt lat="48.66483" lon="8.30524">
        <ele>706.8</ele>
        <time>2020-07-25T09:45:19Z</time>
      </trkpt>
      <trkpt lat="48.66487" lon="8.30524">
        <ele>707</ele>
        <time>2020-07-25T09:45:20Z</time>
      </trkpt>
      <trkpt lat="48.66491" lon="8.30523">
        <ele>706.8</ele>
        <time>2020-07-25T09:45:21Z</time>
      </trkpt>
      <trkpt lat="48.66499" lon="8.30521">
        <ele>706.6</ele>
        <time>2020-07-25T09:45:23Z</time>
      </trkpt>
      <trkpt lat="48.66514" lon="8.30515">
        <ele>705.6</ele>
        <time>2020-07-25T09:45:26Z</time>
      </trkpt>
      <trkpt lat="48.66531" lon="8.3051">
        <ele>704.6</ele>
        <time>2020-07-25T09:45:29Z</time>
      </trkpt>
      <trkpt lat="48.66545" lon="8.30506">
        <ele>703.8</ele>
        <time>2020-07-25T09:45:31Z</time>
      </trkpt>
      <trkpt lat="48.66559" lon="8.30503">
        <ele>703.4</ele>
        <time>2020-07-25T09:45:33Z</time>
      </trkpt>
      <trkpt lat="48.66573" lon="8.30499">
        <ele>702.2</ele>
        <time>2020-07-25T09:45:35Z</time>
      </trkpt>
      <trkpt lat="48.66586" lon="8.30495">
        <ele>701.4</ele>
        <time>2020-07-25T09:45:37Z</time>
      </trkpt>
      <trkpt lat="48.66593" lon="8.30492">
        <ele>701</ele>
        <time>2020-07-25T09:45:38Z</time>
      </trkpt>
      <trkpt lat="48.66612" lon="8.30481">
        <ele>699.6</ele>
        <time>2020-07-25T09:45:41Z</time>
      </trkpt>
      <trkpt lat="48.66617" lon="8.30476">
        <ele>699.4</ele>
        <time>2020-07-25T09:45:42Z</time>
      </trkpt>
      <trkpt lat="48.66643" lon="8.30458">
        <ele>698.8</ele>
        <time>2020-07-25T09:45:46Z</time>
      </trkpt>
      <trkpt lat="48.6665" lon="8.30455">
        <ele>698.4</ele>
        <time>2020-07-25T09:45:47Z</time>
      </trkpt>
      <trkpt lat="48.66665" lon="8.30452">
        <ele>697.8</ele>
        <time>2020-07-25T09:45:49Z</time>
      </trkpt>
      <trkpt lat="48.66672" lon="8.30452">
        <ele>697.4</ele>
        <time>2020-07-25T09:45:50Z</time>
      </trkpt>
      <trkpt lat="48.66685" lon="8.30454">
        <ele>696.4</ele>
        <time>2020-07-25T09:45:52Z</time>
      </trkpt>
      <trkpt lat="48.66692" lon="8.30457">
        <ele>696</ele>
        <time>2020-07-25T09:45:53Z</time>
      </trkpt>
      <trkpt lat="48.66698" lon="8.30459">
        <ele>695.4</ele>
        <time>2020-07-25T09:45:54Z</time>
      </trkpt>
      <trkpt lat="48.66706" lon="8.30463">
        <ele>695</ele>
        <time>2020-07-25T09:45:55Z</time>
      </trkpt>
      <trkpt lat="48.66712" lon="8.30464">
        <ele>694.6</ele>
        <time>2020-07-25T09:45:56Z</time>
      </trkpt>
      <trkpt lat="48.66726" lon="8.30467">
        <ele>693.8</ele>
        <time>2020-07-25T09:45:58Z</time>
      </trkpt>
      <trkpt lat="48.66745" lon="8.30474">
        <ele>693.6</ele>
        <time>2020-07-25T09:46:01Z</time>
      </trkpt>
      <trkpt lat="48.66758" lon="8.30483">
        <ele>693.2</ele>
        <time>2020-07-25T09:46:03Z</time>
      </trkpt>
      <trkpt lat="48.66771" lon="8.30499">
        <ele>692.6</ele>
        <time>2020-07-25T09:46:05Z</time>
      </trkpt>
      <trkpt lat="48.66794" lon="8.30537">
        <ele>691</ele>
        <time>2020-07-25T09:46:10Z</time>
      </trkpt>
      <trkpt lat="48.66799" lon="8.30543">
        <ele>690.2</ele>
        <time>2020-07-25T09:46:11Z</time>
      </trkpt>
      <trkpt lat="48.66803" lon="8.3055">
        <ele>689.4</ele>
        <time>2020-07-25T09:46:12Z</time>
      </trkpt>
      <trkpt lat="48.66812" lon="8.30565">
        <ele>688</ele>
        <time>2020-07-25T09:46:14Z</time>
      </trkpt>
      <trkpt lat="48.66821" lon="8.30579">
        <ele>686.8</ele>
        <time>2020-07-25T09:46:16Z</time>
      </trkpt>
      <trkpt lat="48.6683" lon="8.30593">
        <ele>686.2</ele>
        <time>2020-07-25T09:46:18Z</time>
      </trkpt>
      <trkpt lat="48.6684" lon="8.30605">
        <ele>685.4</ele>
        <time>2020-07-25T09:46:20Z</time>
      </trkpt>
      <trkpt lat="48.6685" lon="8.3061">
        <ele>684.8</ele>
        <time>2020-07-25T09:46:22Z</time>
      </trkpt>
      <trkpt lat="48.66855" lon="8.30609">
        <ele>684.2</ele>
        <time>2020-07-25T09:46:23Z</time>
      </trkpt>
      <trkpt lat="48.6686" lon="8.30608">
        <ele>684</ele>
        <time>2020-07-25T09:46:24Z</time>
      </trkpt>
      <trkpt lat="48.66871" lon="8.30601">
        <ele>683.6</ele>
        <time>2020-07-25T09:46:26Z</time>
      </trkpt>
      <trkpt lat="48.66876" lon="8.30598">
        <ele>683.6</ele>
        <time>2020-07-25T09:46:27Z</time>
      </trkpt>
      <trkpt lat="48.66881" lon="8.30599">
        <ele>683.2</ele>
        <time>2020-07-25T09:46:29Z</time>
      </trkpt>
      <trkpt lat="48.66882" lon="8.306">
        <ele>682.4</ele>
        <time>2020-07-25T09:46:33Z</time>
      </trkpt>
      <trkpt lat="48.66889" lon="8.30617">
        <ele>681.6</ele>
        <time>2020-07-25T09:48:18Z</time>
      </trkpt>
      <trkpt lat="48.66888" lon="8.30623">
        <ele>681.6</ele>
        <time>2020-07-25T09:48:20Z</time>
      </trkpt>
      <trkpt lat="48.66886" lon="8.30626">
        <ele>681.4</ele>
        <time>2020-07-25T09:48:24Z</time>
      </trkpt>
      <trkpt lat="48.6688" lon="8.3063">
        <ele>681.2</ele>
        <time>2020-07-25T09:48:49Z</time>
      </trkpt>
      <trkpt lat="48.66875" lon="8.30636">
        <ele>681.2</ele>
        <time>2020-07-25T09:48:51Z</time>
      </trkpt>
      <trkpt lat="48.66858" lon="8.30647">
        <ele>681</ele>
        <time>2020-07-25T09:48:56Z</time>
      </trkpt>
      <trkpt lat="48.66854" lon="8.3065">
        <ele>681</ele>
        <time>2020-07-25T09:48:57Z</time>
      </trkpt>
      <trkpt lat="48.6684" lon="8.30654">
        <ele>680.6</ele>
        <time>2020-07-25T09:49:00Z</time>
      </trkpt>
      <trkpt lat="48.66835" lon="8.30656">
        <ele>680.4</ele>
        <time>2020-07-25T09:49:01Z</time>
      </trkpt>
      <trkpt lat="48.6683" lon="8.30658">
        <ele>680.2</ele>
        <time>2020-07-25T09:49:02Z</time>
      </trkpt>
      <trkpt lat="48.66813" lon="8.30664">
        <ele>679.6</ele>
        <time>2020-07-25T09:49:05Z</time>
      </trkpt>
      <trkpt lat="48.66807" lon="8.30668">
        <ele>679.4</ele>
        <time>2020-07-25T09:49:06Z</time>
      </trkpt>
      <trkpt lat="48.6678" lon="8.30687">
        <ele>678.4</ele>
        <time>2020-07-25T09:49:11Z</time>
      </trkpt>
      <trkpt lat="48.66774" lon="8.30691">
        <ele>678.2</ele>
        <time>2020-07-25T09:49:12Z</time>
      </trkpt>
      <trkpt lat="48.66757" lon="8.30704">
        <ele>677.2</ele>
        <time>2020-07-25T09:49:15Z</time>
      </trkpt>
      <trkpt lat="48.6674" lon="8.30712">
        <ele>676.2</ele>
        <time>2020-07-25T09:49:18Z</time>
      </trkpt>
      <trkpt lat="48.66734" lon="8.30713">
        <ele>676</ele>
        <time>2020-07-25T09:49:19Z</time>
      </trkpt>
      <trkpt lat="48.66722" lon="8.30715">
        <ele>675</ele>
        <time>2020-07-25T09:49:21Z</time>
      </trkpt>
      <trkpt lat="48.66696" lon="8.30718">
        <ele>674</ele>
        <time>2020-07-25T09:49:25Z</time>
      </trkpt>
      <trkpt lat="48.66689" lon="8.30719">
        <ele>673.8</ele>
        <time>2020-07-25T09:49:26Z</time>
      </trkpt>
      <trkpt lat="48.66662" lon="8.3073">
        <ele>673.2</ele>
        <time>2020-07-25T09:49:30Z</time>
      </trkpt>
      <trkpt lat="48.66649" lon="8.30739">
        <ele>672.6</ele>
        <time>2020-07-25T09:49:32Z</time>
      </trkpt>
      <trkpt lat="48.6663" lon="8.30754">
        <ele>671.6</ele>
        <time>2020-07-25T09:49:35Z</time>
      </trkpt>
      <trkpt lat="48.6661" lon="8.30771">
        <ele>670.4</ele>
        <time>2020-07-25T09:49:38Z</time>
      </trkpt>
      <trkpt lat="48.6659" lon="8.30788">
        <ele>669.4</ele>
        <time>2020-07-25T09:49:41Z</time>
      </trkpt>
      <trkpt lat="48.66583" lon="8.30794">
        <ele>668.8</ele>
        <time>2020-07-25T09:49:42Z</time>
      </trkpt>
      <trkpt lat="48.66569" lon="8.30805">
        <ele>668.2</ele>
        <time>2020-07-25T09:49:44Z</time>
      </trkpt>
      <trkpt lat="48.66556" lon="8.30817">
        <ele>667</ele>
        <time>2020-07-25T09:49:46Z</time>
      </trkpt>
      <trkpt lat="48.66544" lon="8.30831">
        <ele>666.2</ele>
        <time>2020-07-25T09:49:48Z</time>
      </trkpt>
      <trkpt lat="48.66533" lon="8.30846">
        <ele>665.6</ele>
        <time>2020-07-25T09:49:50Z</time>
      </trkpt>
      <trkpt lat="48.66519" lon="8.30861">
        <ele>664.8</ele>
        <time>2020-07-25T09:49:53Z</time>
      </trkpt>
      <trkpt lat="48.66515" lon="8.30866">
        <ele>664.4</ele>
        <time>2020-07-25T09:49:54Z</time>
      </trkpt>
      <trkpt lat="48.66495" lon="8.30886">
        <ele>663.4</ele>
        <time>2020-07-25T09:49:58Z</time>
      </trkpt>
      <trkpt lat="48.66491" lon="8.30891">
        <ele>663</ele>
        <time>2020-07-25T09:49:59Z</time>
      </trkpt>
      <trkpt lat="48.66472" lon="8.30918">
        <ele>662.4</ele>
        <time>2020-07-25T09:50:03Z</time>
      </trkpt>
      <trkpt lat="48.66467" lon="8.30925">
        <ele>662.4</ele>
        <time>2020-07-25T09:50:04Z</time>
      </trkpt>
      <trkpt lat="48.66445" lon="8.30958">
        <ele>660.8</ele>
        <time>2020-07-25T09:50:09Z</time>
      </trkpt>
      <trkpt lat="48.66437" lon="8.30972">
        <ele>660.2</ele>
        <time>2020-07-25T09:50:11Z</time>
      </trkpt>
      <trkpt lat="48.66423" lon="8.31001">
        <ele>659.8</ele>
        <time>2020-07-25T09:50:15Z</time>
      </trkpt>
      <trkpt lat="48.66401" lon="8.31045">
        <ele>659</ele>
        <time>2020-07-25T09:50:21Z</time>
      </trkpt>
      <trkpt lat="48.66388" lon="8.31066">
        <ele>658.6</ele>
        <time>2020-07-25T09:50:24Z</time>
      </trkpt>
      <trkpt lat="48.66375" lon="8.31086">
        <ele>657.8</ele>
        <time>2020-07-25T09:50:27Z</time>
      </trkpt>
      <trkpt lat="48.66353" lon="8.3112">
        <ele>657.2</ele>
        <time>2020-07-25T09:50:32Z</time>
      </trkpt>
      <trkpt lat="48.66344" lon="8.31141">
        <ele>656.8</ele>
        <time>2020-07-25T09:50:35Z</time>
      </trkpt>
      <trkpt lat="48.66341" lon="8.31155">
        <ele>656.4</ele>
        <time>2020-07-25T09:50:37Z</time>
      </trkpt>
      <trkpt lat="48.66339" lon="8.31179">
        <ele>655.8</ele>
        <time>2020-07-25T09:50:40Z</time>
      </trkpt>
      <trkpt lat="48.66339" lon="8.31187">
        <ele>655.6</ele>
        <time>2020-07-25T09:50:41Z</time>
      </trkpt>
      <trkpt lat="48.66339" lon="8.31194">
        <ele>655.6</ele>
        <time>2020-07-25T09:50:42Z</time>
      </trkpt>
      <trkpt lat="48.66338" lon="8.31213">
        <ele>655.4</ele>
        <time>2020-07-25T09:50:46Z</time>
      </trkpt>
      <trkpt lat="48.66338" lon="8.31241">
        <ele>655.2</ele>
        <time>2020-07-25T09:50:52Z</time>
      </trkpt>
      <trkpt lat="48.66337" lon="8.31253">
        <ele>655.2</ele>
        <time>2020-07-25T09:50:54Z</time>
      </trkpt>
      <trkpt lat="48.66336" lon="8.31275">
        <ele>654.8</ele>
        <time>2020-07-25T09:50:57Z</time>
      </trkpt>
      <trkpt lat="48.66333" lon="8.31326">
        <ele>653.8</ele>
        <time>2020-07-25T09:51:03Z</time>
      </trkpt>
      <trkpt lat="48.66333" lon="8.31335">
        <ele>653.6</ele>
        <time>2020-07-25T09:51:04Z</time>
      </trkpt>
      <trkpt lat="48.66332" lon="8.3135">
        <ele>652.6</ele>
        <time>2020-07-25T09:51:06Z</time>
      </trkpt>
      <trkpt lat="48.66331" lon="8.3137">
        <ele>651.8</ele>
        <time>2020-07-25T09:51:09Z</time>
      </trkpt>
      <trkpt lat="48.6633" lon="8.31376">
        <ele>651.8</ele>
        <time>2020-07-25T09:51:10Z</time>
      </trkpt>
      <trkpt lat="48.66328" lon="8.31393">
        <ele>651.2</ele>
        <time>2020-07-25T09:51:13Z</time>
      </trkpt>
      <trkpt lat="48.66328" lon="8.31405">
        <ele>651</ele>
        <time>2020-07-25T09:51:15Z</time>
      </trkpt>
      <trkpt lat="48.66326" lon="8.31453">
        <ele>651</ele>
        <time>2020-07-25T09:51:23Z</time>
      </trkpt>
      <trkpt lat="48.66323" lon="8.31497">
        <ele>651</ele>
        <time>2020-07-25T09:51:30Z</time>
      </trkpt>
      <trkpt lat="48.66316" lon="8.31566">
        <ele>650.8</ele>
        <time>2020-07-25T09:51:41Z</time>
      </trkpt>
      <trkpt lat="48.66314" lon="8.31592">
        <ele>650.8</ele>
        <time>2020-07-25T09:51:45Z</time>
      </trkpt>
      <trkpt lat="48.66312" lon="8.31604">
        <ele>650.8</ele>
        <time>2020-07-25T09:51:47Z</time>
      </trkpt>
      <trkpt lat="48.66306" lon="8.31645">
        <ele>651</ele>
        <time>2020-07-25T09:51:54Z</time>
      </trkpt>
      <trkpt lat="48.66297" lon="8.31687">
        <ele>651</ele>
        <time>2020-07-25T09:52:01Z</time>
      </trkpt>
      <trkpt lat="48.66296" lon="8.31694">
        <ele>651</ele>
        <time>2020-07-25T09:52:02Z</time>
      </trkpt>
      <trkpt lat="48.66293" lon="8.31705">
        <ele>650.8</ele>
        <time>2020-07-25T09:52:04Z</time>
      </trkpt>
      <trkpt lat="48.6629" lon="8.31722">
        <ele>651</ele>
        <time>2020-07-25T09:52:07Z</time>
      </trkpt>
      <trkpt lat="48.66287" lon="8.31732">
        <ele>650.8</ele>
        <time>2020-07-25T09:52:09Z</time>
      </trkpt>
      <trkpt lat="48.66285" lon="8.31756">
        <ele>650.8</ele>
        <time>2020-07-25T09:52:13Z</time>
      </trkpt>
      <trkpt lat="48.66283" lon="8.31788">
        <ele>650.8</ele>
        <time>2020-07-25T09:52:20Z</time>
      </trkpt>
      <trkpt lat="48.66283" lon="8.31788">
        <ele>650.8</ele>
        <time>2020-07-25T09:52:22Z</time>
      </trkpt>
      <trkpt lat="48.66283" lon="8.3179">
        <ele>651.4</ele>
        <time>2020-07-25T09:52:48Z</time>
      </trkpt>
      <trkpt lat="48.66283" lon="8.31794">
        <ele>651.4</ele>
        <time>2020-07-25T09:52:49Z</time>
      </trkpt>
      <trkpt lat="48.66283" lon="8.31797">
        <ele>651.4</ele>
        <time>2020-07-25T09:52:50Z</time>
      </trkpt>
      <trkpt lat="48.66282" lon="8.31811">
        <ele>651.4</ele>
        <time>2020-07-25T09:52:54Z</time>
      </trkpt>
      <trkpt lat="48.66278" lon="8.31853">
        <ele>651</ele>
        <time>2020-07-25T09:53:02Z</time>
      </trkpt>
      <trkpt lat="48.66285" lon="8.31881">
        <ele>651</ele>
        <time>2020-07-25T09:53:07Z</time>
      </trkpt>
      <trkpt lat="48.66297" lon="8.31896">
        <ele>651</ele>
        <time>2020-07-25T09:53:11Z</time>
      </trkpt>
      <trkpt lat="48.66307" lon="8.31903">
        <ele>651</ele>
        <time>2020-07-25T09:53:14Z</time>
      </trkpt>
      <trkpt lat="48.66319" lon="8.31912">
        <ele>651</ele>
        <time>2020-07-25T09:53:17Z</time>
      </trkpt>
      <trkpt lat="48.66347" lon="8.31934">
        <ele>651</ele>
        <time>2020-07-25T09:53:24Z</time>
      </trkpt>
      <trkpt lat="48.66376" lon="8.31959">
        <ele>651</ele>
        <time>2020-07-25T09:53:32Z</time>
      </trkpt>
      <trkpt lat="48.66387" lon="8.31971">
        <ele>651</ele>
        <time>2020-07-25T09:53:35Z</time>
      </trkpt>
      <trkpt lat="48.66393" lon="8.31983">
        <ele>651</ele>
        <time>2020-07-25T09:53:37Z</time>
      </trkpt>
      <trkpt lat="48.66395" lon="8.3199">
        <ele>651</ele>
        <time>2020-07-25T09:53:38Z</time>
      </trkpt>
      <trkpt lat="48.66396" lon="8.31997">
        <ele>651</ele>
        <time>2020-07-25T09:53:39Z</time>
      </trkpt>
      <trkpt lat="48.66396" lon="8.32009">
        <ele>651</ele>
        <time>2020-07-25T09:53:41Z</time>
      </trkpt>
      <trkpt lat="48.66394" lon="8.32017">
        <ele>651</ele>
        <time>2020-07-25T09:53:42Z</time>
      </trkpt>
      <trkpt lat="48.66392" lon="8.32023">
        <ele>651</ele>
        <time>2020-07-25T09:53:43Z</time>
      </trkpt>
      <trkpt lat="48.66387" lon="8.32033">
        <ele>650.8</ele>
        <time>2020-07-25T09:53:45Z</time>
      </trkpt>
      <trkpt lat="48.6638" lon="8.32042">
        <ele>650.8</ele>
        <time>2020-07-25T09:53:47Z</time>
      </trkpt>
      <trkpt lat="48.66376" lon="8.32044">
        <ele>651</ele>
        <time>2020-07-25T09:53:48Z</time>
      </trkpt>
      <trkpt lat="48.66369" lon="8.3205">
        <ele>650.8</ele>
        <time>2020-07-25T09:53:50Z</time>
      </trkpt>
      <trkpt lat="48.66365" lon="8.32052">
        <ele>650.8</ele>
        <time>2020-07-25T09:53:51Z</time>
      </trkpt>
      <trkpt lat="48.6636" lon="8.32052">
        <ele>650.8</ele>
        <time>2020-07-25T09:53:52Z</time>
      </trkpt>
      <trkpt lat="48.66348" lon="8.3205">
        <ele>650.8</ele>
        <time>2020-07-25T09:53:55Z</time>
      </trkpt>
      <trkpt lat="48.66314" lon="8.32037">
        <ele>650.8</ele>
        <time>2020-07-25T09:54:03Z</time>
      </trkpt>
      <trkpt lat="48.66279" lon="8.32024">
        <ele>650.8</ele>
        <time>2020-07-25T09:54:11Z</time>
      </trkpt>
      <trkpt lat="48.66245" lon="8.32025">
        <ele>650.8</ele>
        <time>2020-07-25T09:54:19Z</time>
      </trkpt>
      <trkpt lat="48.66242" lon="8.32027">
        <ele>650.8</ele>
        <time>2020-07-25T09:54:20Z</time>
      </trkpt>
      <trkpt lat="48.66231" lon="8.3203">
        <ele>651</ele>
        <time>2020-07-25T09:54:24Z</time>
      </trkpt>
      <trkpt lat="48.66231" lon="8.32031">
        <ele>651.6</ele>
        <time>2020-07-25T09:54:29Z</time>
      </trkpt>
      <trkpt lat="48.66221" lon="8.32034">
        <ele>651.8</ele>
        <time>2020-07-25T09:54:36Z</time>
      </trkpt>
      <trkpt lat="48.66205" lon="8.32043">
        <ele>651.8</ele>
        <time>2020-07-25T09:54:40Z</time>
      </trkpt>
      <trkpt lat="48.66182" lon="8.32061">
        <ele>651.4</ele>
        <time>2020-07-25T09:54:46Z</time>
      </trkpt>
      <trkpt lat="48.66176" lon="8.32069">
        <ele>651.2</ele>
        <time>2020-07-25T09:54:48Z</time>
      </trkpt>
      <trkpt lat="48.66168" lon="8.32082">
        <ele>651.2</ele>
        <time>2020-07-25T09:54:51Z</time>
      </trkpt>
      <trkpt lat="48.66165" lon="8.32089">
        <ele>651.2</ele>
        <time>2020-07-25T09:54:52Z</time>
      </trkpt>
      <trkpt lat="48.66149" lon="8.32132">
        <ele>651.2</ele>
        <time>2020-07-25T09:54:59Z</time>
      </trkpt>
      <trkpt lat="48.66147" lon="8.3214">
        <ele>651.2</ele>
        <time>2020-07-25T09:55:00Z</time>
      </trkpt>
      <trkpt lat="48.66145" lon="8.32169">
        <ele>651.2</ele>
        <time>2020-07-25T09:55:04Z</time>
      </trkpt>
      <trkpt lat="48.66145" lon="8.32183">
        <ele>651.2</ele>
        <time>2020-07-25T09:55:06Z</time>
      </trkpt>
      <trkpt lat="48.66143" lon="8.32199">
        <ele>651.2</ele>
        <time>2020-07-25T09:55:08Z</time>
      </trkpt>
      <trkpt lat="48.66142" lon="8.32206">
        <ele>651</ele>
        <time>2020-07-25T09:55:09Z</time>
      </trkpt>
      <trkpt lat="48.6614" lon="8.32213">
        <ele>651</ele>
        <time>2020-07-25T09:55:10Z</time>
      </trkpt>
      <trkpt lat="48.66134" lon="8.32226">
        <ele>651</ele>
        <time>2020-07-25T09:55:12Z</time>
      </trkpt>
      <trkpt lat="48.66129" lon="8.32238">
        <ele>651</ele>
        <time>2020-07-25T09:55:14Z</time>
      </trkpt>
      <trkpt lat="48.66119" lon="8.32263">
        <ele>650.8</ele>
        <time>2020-07-25T09:55:18Z</time>
      </trkpt>
      <trkpt lat="48.66115" lon="8.32277">
        <ele>650.8</ele>
        <time>2020-07-25T09:55:20Z</time>
      </trkpt>
      <trkpt lat="48.66108" lon="8.32327">
        <ele>650.8</ele>
        <time>2020-07-25T09:55:27Z</time>
      </trkpt>
      <trkpt lat="48.66108" lon="8.32343">
        <ele>650.8</ele>
        <time>2020-07-25T09:55:29Z</time>
      </trkpt>
      <trkpt lat="48.66112" lon="8.32357">
        <ele>650.8</ele>
        <time>2020-07-25T09:55:31Z</time>
      </trkpt>
      <trkpt lat="48.66114" lon="8.32362">
        <ele>650.8</ele>
        <time>2020-07-25T09:55:32Z</time>
      </trkpt>
      <trkpt lat="48.66117" lon="8.32368">
        <ele>650.8</ele>
        <time>2020-07-25T09:55:33Z</time>
      </trkpt>
      <trkpt lat="48.66131" lon="8.32387">
        <ele>651</ele>
        <time>2020-07-25T09:55:37Z</time>
      </trkpt>
      <trkpt lat="48.66147" lon="8.32405">
        <ele>651</ele>
        <time>2020-07-25T09:55:41Z</time>
      </trkpt>
      <trkpt lat="48.66153" lon="8.32415">
        <ele>651</ele>
        <time>2020-07-25T09:55:43Z</time>
      </trkpt>
      <trkpt lat="48.66157" lon="8.32432">
        <ele>651.2</ele>
        <time>2020-07-25T09:55:47Z</time>
      </trkpt>
      <trkpt lat="48.66156" lon="8.32451">
        <ele>651.2</ele>
        <time>2020-07-25T09:55:52Z</time>
      </trkpt>
      <trkpt lat="48.66155" lon="8.32452">
        <ele>651.2</ele>
        <time>2020-07-25T09:55:53Z</time>
      </trkpt>
      <trkpt lat="48.66153" lon="8.32457">
        <ele>651.6</ele>
        <time>2020-07-25T09:55:55Z</time>
      </trkpt>
      <trkpt lat="48.66145" lon="8.32474">
        <ele>651.6</ele>
        <time>2020-07-25T09:55:59Z</time>
      </trkpt>
      <trkpt lat="48.66122" lon="8.32483">
        <ele>651.8</ele>
        <time>2020-07-25T09:56:05Z</time>
      </trkpt>
      <trkpt lat="48.66091" lon="8.32491">
        <ele>651.6</ele>
        <time>2020-07-25T09:56:12Z</time>
      </trkpt>
      <trkpt lat="48.66087" lon="8.32493">
        <ele>651.6</ele>
        <time>2020-07-25T09:56:13Z</time>
      </trkpt>
      <trkpt lat="48.66058" lon="8.32503">
        <ele>651.6</ele>
        <time>2020-07-25T09:56:19Z</time>
      </trkpt>
      <trkpt lat="48.66035" lon="8.3251">
        <ele>651.4</ele>
        <time>2020-07-25T09:56:24Z</time>
      </trkpt>
      <trkpt lat="48.66026" lon="8.32514">
        <ele>651.4</ele>
        <time>2020-07-25T09:56:26Z</time>
      </trkpt>
      <trkpt lat="48.66003" lon="8.32525">
        <ele>651.2</ele>
        <time>2020-07-25T09:56:31Z</time>
      </trkpt>
      <trkpt lat="48.65995" lon="8.32531">
        <ele>651.2</ele>
        <time>2020-07-25T09:56:33Z</time>
      </trkpt>
      <trkpt lat="48.65979" lon="8.32546">
        <ele>651</ele>
        <time>2020-07-25T09:56:37Z</time>
      </trkpt>
      <trkpt lat="48.65969" lon="8.32558">
        <ele>651</ele>
        <time>2020-07-25T09:56:40Z</time>
      </trkpt>
      <trkpt lat="48.65943" lon="8.32587">
        <ele>651</ele>
        <time>2020-07-25T09:56:47Z</time>
      </trkpt>
      <trkpt lat="48.65931" lon="8.32599">
        <ele>650.8</ele>
        <time>2020-07-25T09:56:50Z</time>
      </trkpt>
      <trkpt lat="48.65924" lon="8.32609">
        <ele>650.8</ele>
        <time>2020-07-25T09:56:52Z</time>
      </trkpt>
      <trkpt lat="48.65916" lon="8.32619">
        <ele>650.8</ele>
        <time>2020-07-25T09:56:54Z</time>
      </trkpt>
      <trkpt lat="48.6591" lon="8.32631">
        <ele>650.8</ele>
        <time>2020-07-25T09:56:56Z</time>
      </trkpt>
      <trkpt lat="48.65904" lon="8.32644">
        <ele>650.8</ele>
        <time>2020-07-25T09:56:58Z</time>
      </trkpt>
      <trkpt lat="48.65899" lon="8.32657">
        <ele>650.8</ele>
        <time>2020-07-25T09:57:00Z</time>
      </trkpt>
      <trkpt lat="48.65896" lon="8.32664">
        <ele>650.8</ele>
        <time>2020-07-25T09:57:01Z</time>
      </trkpt>
      <trkpt lat="48.65874" lon="8.32709">
        <ele>650.8</ele>
        <time>2020-07-25T09:57:08Z</time>
      </trkpt>
      <trkpt lat="48.65865" lon="8.32718">
        <ele>650.8</ele>
        <time>2020-07-25T09:57:10Z</time>
      </trkpt>
      <trkpt lat="48.65856" lon="8.32726">
        <ele>650.6</ele>
        <time>2020-07-25T09:57:12Z</time>
      </trkpt>
      <trkpt lat="48.65847" lon="8.32728">
        <ele>650.6</ele>
        <time>2020-07-25T09:57:14Z</time>
      </trkpt>
      <trkpt lat="48.65837" lon="8.32726">
        <ele>650.6</ele>
        <time>2020-07-25T09:57:16Z</time>
      </trkpt>
      <trkpt lat="48.65816" lon="8.32722">
        <ele>650.6</ele>
        <time>2020-07-25T09:57:20Z</time>
      </trkpt>
      <trkpt lat="48.65801" lon="8.32724">
        <ele>650.6</ele>
        <time>2020-07-25T09:57:23Z</time>
      </trkpt>
      <trkpt lat="48.65786" lon="8.32734">
        <ele>650.6</ele>
        <time>2020-07-25T09:57:26Z</time>
      </trkpt>
      <trkpt lat="48.65777" lon="8.32741">
        <ele>650.8</ele>
        <time>2020-07-25T09:57:28Z</time>
      </trkpt>
      <trkpt lat="48.65748" lon="8.32774">
        <ele>651</ele>
        <time>2020-07-25T09:57:35Z</time>
      </trkpt>
      <trkpt lat="48.65733" lon="8.32804">
        <ele>651</ele>
        <time>2020-07-25T09:57:40Z</time>
      </trkpt>
      <trkpt lat="48.6573" lon="8.32811">
        <ele>651</ele>
        <time>2020-07-25T09:57:41Z</time>
      </trkpt>
      <trkpt lat="48.65722" lon="8.32839">
        <ele>650.8</ele>
        <time>2020-07-25T09:57:45Z</time>
      </trkpt>
      <trkpt lat="48.65721" lon="8.32851">
        <ele>650.6</ele>
        <time>2020-07-25T09:57:47Z</time>
      </trkpt>
      <trkpt lat="48.6572" lon="8.3286">
        <ele>650.6</ele>
        <time>2020-07-25T09:57:48Z</time>
      </trkpt>
      <trkpt lat="48.65718" lon="8.32879">
        <ele>650.6</ele>
        <time>2020-07-25T09:57:51Z</time>
      </trkpt>
      <trkpt lat="48.65715" lon="8.329">
        <ele>650.8</ele>
        <time>2020-07-25T09:57:55Z</time>
      </trkpt>
      <trkpt lat="48.65712" lon="8.32922">
        <ele>651</ele>
        <time>2020-07-25T09:57:59Z</time>
      </trkpt>
      <trkpt lat="48.65711" lon="8.32972">
        <ele>651.2</ele>
        <time>2020-07-25T09:58:07Z</time>
      </trkpt>
      <trkpt lat="48.6571" lon="8.32975">
        <ele>651.4</ele>
        <time>2020-07-25T09:58:10Z</time>
      </trkpt>
      <trkpt lat="48.65709" lon="8.32984">
        <ele>651.6</ele>
        <time>2020-07-25T09:58:26Z</time>
      </trkpt>
      <trkpt lat="48.65708" lon="8.32992">
        <ele>651.6</ele>
        <time>2020-07-25T09:58:28Z</time>
      </trkpt>
      <trkpt lat="48.65709" lon="8.32999">
        <ele>651.4</ele>
        <time>2020-07-25T09:58:30Z</time>
      </trkpt>
      <trkpt lat="48.65707" lon="8.33006">
        <ele>651.4</ele>
        <time>2020-07-25T09:58:32Z</time>
      </trkpt>
      <trkpt lat="48.65703" lon="8.33017">
        <ele>651.4</ele>
        <time>2020-07-25T09:58:35Z</time>
      </trkpt>
      <trkpt lat="48.65701" lon="8.3302">
        <ele>651.4</ele>
        <time>2020-07-25T09:58:36Z</time>
      </trkpt>
      <trkpt lat="48.65695" lon="8.33032">
        <ele>651.2</ele>
        <time>2020-07-25T09:58:40Z</time>
      </trkpt>
      <trkpt lat="48.65692" lon="8.33036">
        <ele>651.2</ele>
        <time>2020-07-25T09:58:42Z</time>
      </trkpt>
      <trkpt lat="48.65689" lon="8.33041">
        <ele>651.2</ele>
        <time>2020-07-25T09:58:44Z</time>
      </trkpt>
      <trkpt lat="48.65674" lon="8.33052">
        <ele>651.2</ele>
        <time>2020-07-25T09:58:49Z</time>
      </trkpt>
      <trkpt lat="48.65667" lon="8.3306">
        <ele>651.2</ele>
        <time>2020-07-25T09:58:51Z</time>
      </trkpt>
      <trkpt lat="48.65656" lon="8.3307">
        <ele>651.2</ele>
        <time>2020-07-25T09:58:54Z</time>
      </trkpt>
      <trkpt lat="48.65636" lon="8.3309">
        <ele>651.2</ele>
        <time>2020-07-25T09:58:59Z</time>
      </trkpt>
      <trkpt lat="48.65628" lon="8.33099">
        <ele>651.2</ele>
        <time>2020-07-25T09:59:01Z</time>
      </trkpt>
      <trkpt lat="48.65625" lon="8.33103">
        <ele>651.2</ele>
        <time>2020-07-25T09:59:02Z</time>
      </trkpt>
      <trkpt lat="48.65624" lon="8.33106">
        <ele>651</ele>
        <time>2020-07-25T09:59:04Z</time>
      </trkpt>
      <trkpt lat="48.65626" lon="8.33104">
        <ele>651.4</ele>
        <time>2020-07-25T09:59:10Z</time>
      </trkpt>
      <trkpt lat="48.65626" lon="8.33103">
        <ele>651.6</ele>
        <time>2020-07-25T09:59:13Z</time>
      </trkpt>
      <trkpt lat="48.65622" lon="8.33111">
        <ele>651.6</ele>
        <time>2020-07-25T09:59:36Z</time>
      </trkpt>
      <trkpt lat="48.65619" lon="8.33114">
        <ele>651.6</ele>
        <time>2020-07-25T09:59:37Z</time>
      </trkpt>
      <trkpt lat="48.65609" lon="8.33129">
        <ele>651.6</ele>
        <time>2020-07-25T09:59:41Z</time>
      </trkpt>
      <trkpt lat="48.65606" lon="8.33135">
        <ele>651.6</ele>
        <time>2020-07-25T09:59:43Z</time>
      </trkpt>
      <trkpt lat="48.656" lon="8.33149">
        <ele>651.6</ele>
        <time>2020-07-25T09:59:47Z</time>
      </trkpt>
      <trkpt lat="48.65594" lon="8.33157">
        <ele>651.4</ele>
        <time>2020-07-25T09:59:50Z</time>
      </trkpt>
      <trkpt lat="48.65593" lon="8.33157">
        <ele>651.4</ele>
        <time>2020-07-25T09:59:51Z</time>
      </trkpt>
      <trkpt lat="48.6559" lon="8.33154">
        <ele>651.4</ele>
        <time>2020-07-25T09:59:53Z</time>
      </trkpt>
      <trkpt lat="48.65587" lon="8.33153">
        <ele>651.4</ele>
        <time>2020-07-25T09:59:55Z</time>
      </trkpt>
      <trkpt lat="48.65578" lon="8.33134">
        <ele>651.4</ele>
        <time>2020-07-25T10:00:01Z</time>
      </trkpt>
      <trkpt lat="48.65565" lon="8.33111">
        <ele>651.2</ele>
        <time>2020-07-25T10:00:07Z</time>
      </trkpt>
      <trkpt lat="48.65563" lon="8.33106">
        <ele>651.2</ele>
        <time>2020-07-25T10:00:08Z</time>
      </trkpt>
      <trkpt lat="48.65556" lon="8.33093">
        <ele>651.2</ele>
        <time>2020-07-25T10:00:12Z</time>
      </trkpt>
      <trkpt lat="48.65541" lon="8.3307">
        <ele>651.2</ele>
        <time>2020-07-25T10:00:19Z</time>
      </trkpt>
      <trkpt lat="48.65534" lon="8.33065">
        <ele>651.2</ele>
        <time>2020-07-25T10:00:23Z</time>
      </trkpt>
      <trkpt lat="48.65534" lon="8.33065">
        <ele>651.2</ele>
        <time>2020-07-25T10:00:25Z</time>
      </trkpt>
      <trkpt lat="48.65529" lon="8.33056">
        <ele>651.8</ele>
        <time>2020-07-25T10:00:34Z</time>
      </trkpt>
      <trkpt lat="48.65511" lon="8.33032">
        <ele>651.8</ele>
        <time>2020-07-25T10:00:40Z</time>
      </trkpt>
      <trkpt lat="48.65488" lon="8.33009">
        <ele>651.6</ele>
        <time>2020-07-25T10:00:47Z</time>
      </trkpt>
      <trkpt lat="48.65464" lon="8.32985">
        <ele>651.4</ele>
        <time>2020-07-25T10:00:54Z</time>
      </trkpt>
      <trkpt lat="48.65448" lon="8.32973">
        <ele>651.4</ele>
        <time>2020-07-25T10:00:58Z</time>
      </trkpt>
      <trkpt lat="48.65432" lon="8.32962">
        <ele>651.6</ele>
        <time>2020-07-25T10:01:02Z</time>
      </trkpt>
      <trkpt lat="48.65394" lon="8.32942">
        <ele>651.6</ele>
        <time>2020-07-25T10:01:11Z</time>
      </trkpt>
      <trkpt lat="48.65386" lon="8.3294">
        <ele>651.6</ele>
        <time>2020-07-25T10:01:13Z</time>
      </trkpt>
      <trkpt lat="48.65378" lon="8.32935">
        <ele>651.6</ele>
        <time>2020-07-25T10:01:15Z</time>
      </trkpt>
      <trkpt lat="48.65374" lon="8.32933">
        <ele>651.6</ele>
        <time>2020-07-25T10:01:16Z</time>
      </trkpt>
      <trkpt lat="48.65366" lon="8.3293">
        <ele>651.6</ele>
        <time>2020-07-25T10:01:18Z</time>
      </trkpt>
      <trkpt lat="48.65357" lon="8.32929">
        <ele>651.6</ele>
        <time>2020-07-25T10:01:20Z</time>
      </trkpt>
      <trkpt lat="48.65351" lon="8.32927">
        <ele>651.6</ele>
        <time>2020-07-25T10:01:21Z</time>
      </trkpt>
      <trkpt lat="48.65317" lon="8.32919">
        <ele>651.8</ele>
        <time>2020-07-25T10:01:29Z</time>
      </trkpt>
      <trkpt lat="48.6531" lon="8.32918">
        <ele>651.8</ele>
        <time>2020-07-25T10:01:32Z</time>
      </trkpt>
      <trkpt lat="48.65309" lon="8.32918">
        <ele>651.8</ele>
        <time>2020-07-25T10:01:33Z</time>
      </trkpt>
      <trkpt lat="48.65307" lon="8.32921">
        <ele>651.8</ele>
        <time>2020-07-25T10:01:35Z</time>
      </trkpt>
      <trkpt lat="48.65302" lon="8.32919">
        <ele>651.8</ele>
        <time>2020-07-25T10:01:39Z</time>
      </trkpt>
      <trkpt lat="48.65302" lon="8.32919">
        <ele>651.8</ele>
        <time>2020-07-25T10:01:40Z</time>
      </trkpt>
      <trkpt lat="48.653" lon="8.32925">
        <ele>651.8</ele>
        <time>2020-07-25T10:01:48Z</time>
      </trkpt>
      <trkpt lat="48.65299" lon="8.32928">
        <ele>651.8</ele>
        <time>2020-07-25T10:01:50Z</time>
      </trkpt>
      <trkpt lat="48.65299" lon="8.32928">
        <ele>651.8</ele>
        <time>2020-07-25T10:01:51Z</time>
      </trkpt>
      <trkpt lat="48.653" lon="8.32924">
        <ele>651.6</ele>
        <time>2020-07-25T10:02:08Z</time>
      </trkpt>
      <trkpt lat="48.65302" lon="8.32915">
        <ele>651.6</ele>
        <time>2020-07-25T10:02:10Z</time>
      </trkpt>
      <trkpt lat="48.65313" lon="8.32875">
        <ele>651.6</ele>
        <time>2020-07-25T10:02:18Z</time>
      </trkpt>
      <trkpt lat="48.65319" lon="8.32844">
        <ele>651.4</ele>
        <time>2020-07-25T10:02:23Z</time>
      </trkpt>
      <trkpt lat="48.6532" lon="8.32837">
        <ele>651.4</ele>
        <time>2020-07-25T10:02:24Z</time>
      </trkpt>
      <trkpt lat="48.65326" lon="8.32806">
        <ele>651.4</ele>
        <time>2020-07-25T10:02:29Z</time>
      </trkpt>
      <trkpt lat="48.65327" lon="8.32793">
        <ele>651.4</ele>
        <time>2020-07-25T10:02:31Z</time>
      </trkpt>
      <trkpt lat="48.65327" lon="8.32786">
        <ele>651.4</ele>
        <time>2020-07-25T10:02:33Z</time>
      </trkpt>
      <trkpt lat="48.65327" lon="8.32782">
        <ele>651.4</ele>
        <time>2020-07-25T10:02:34Z</time>
      </trkpt>
      <trkpt lat="48.65328" lon="8.32779">
        <ele>651.4</ele>
        <time>2020-07-25T10:02:35Z</time>
      </trkpt>
      <trkpt lat="48.65332" lon="8.32763">
        <ele>651.4</ele>
        <time>2020-07-25T10:02:41Z</time>
      </trkpt>
      <trkpt lat="48.65339" lon="8.32744">
        <ele>652</ele>
        <time>2020-07-25T10:02:48Z</time>
      </trkpt>
      <trkpt lat="48.65343" lon="8.32727">
        <ele>652.4</ele>
        <time>2020-07-25T10:02:55Z</time>
      </trkpt>
      <trkpt lat="48.65339" lon="8.32727">
        <ele>652.6</ele>
        <time>2020-07-25T10:02:58Z</time>
      </trkpt>
      <trkpt lat="48.65336" lon="8.32736">
        <ele>652.8</ele>
        <time>2020-07-25T10:03:01Z</time>
      </trkpt>
      <trkpt lat="48.65335" lon="8.32738">
        <ele>652.8</ele>
        <time>2020-07-25T10:03:03Z</time>
      </trkpt>
      <trkpt lat="48.65335" lon="8.32738">
        <ele>653.4</ele>
        <time>2020-07-25T10:03:05Z</time>
      </trkpt>
      <trkpt lat="48.65333" lon="8.32736">
        <ele>654.4</ele>
        <time>2020-07-25T10:03:55Z</time>
      </trkpt>
      <trkpt lat="48.65333" lon="8.32734">
        <ele>654.4</ele>
        <time>2020-07-25T10:03:56Z</time>
      </trkpt>
      <trkpt lat="48.6534" lon="8.32729">
        <ele>654.4</ele>
        <time>2020-07-25T10:04:01Z</time>
      </trkpt>
      <trkpt lat="48.65357" lon="8.3272">
        <ele>654.4</ele>
        <time>2020-07-25T10:04:09Z</time>
      </trkpt>
      <trkpt lat="48.65363" lon="8.32711">
        <ele>654.4</ele>
        <time>2020-07-25T10:04:14Z</time>
      </trkpt>
      <trkpt lat="48.65363" lon="8.32709">
        <ele>654.4</ele>
        <time>2020-07-25T10:04:15Z</time>
      </trkpt>
      <trkpt lat="48.65368" lon="8.32696">
        <ele>655</ele>
        <time>2020-07-25T10:04:22Z</time>
      </trkpt>
      <trkpt lat="48.65369" lon="8.32692">
        <ele>655.2</ele>
        <time>2020-07-25T10:04:24Z</time>
      </trkpt>
      <trkpt lat="48.65371" lon="8.32687">
        <ele>655.6</ele>
        <time>2020-07-25T10:04:27Z</time>
      </trkpt>
      <trkpt lat="48.65372" lon="8.32685">
        <ele>655.6</ele>
        <time>2020-07-25T10:04:28Z</time>
      </trkpt>
      <trkpt lat="48.65376" lon="8.32674">
        <ele>656.4</ele>
        <time>2020-07-25T10:04:35Z</time>
      </trkpt>
      <trkpt lat="48.65378" lon="8.32668">
        <ele>656.6</ele>
        <time>2020-07-25T10:04:39Z</time>
      </trkpt>
      <trkpt lat="48.65378" lon="8.32668">
        <ele>656.8</ele>
        <time>2020-07-25T10:04:41Z</time>
      </trkpt>
      <trkpt lat="48.65376" lon="8.32668">
        <ele>657.6</ele>
        <time>2020-07-25T10:05:03Z</time>
      </trkpt>
      <trkpt lat="48.65373" lon="8.32671">
        <ele>657.6</ele>
        <time>2020-07-25T10:05:05Z</time>
      </trkpt>
      <trkpt lat="48.65371" lon="8.32677">
        <ele>657.6</ele>
        <time>2020-07-25T10:05:07Z</time>
      </trkpt>
      <trkpt lat="48.65364" lon="8.32696">
        <ele>657.6</ele>
        <time>2020-07-25T10:05:12Z</time>
      </trkpt>
      <trkpt lat="48.65357" lon="8.32713">
        <ele>656.4</ele>
        <time>2020-07-25T10:05:18Z</time>
      </trkpt>
      <trkpt lat="48.6535" lon="8.32723">
        <ele>656</ele>
        <time>2020-07-25T10:05:22Z</time>
      </trkpt>
      <trkpt lat="48.65349" lon="8.32724">
        <ele>655.8</ele>
        <time>2020-07-25T10:05:23Z</time>
      </trkpt>
      <trkpt lat="48.65347" lon="8.32725">
        <ele>655.4</ele>
        <time>2020-07-25T10:05:24Z</time>
      </trkpt>
      <trkpt lat="48.65338" lon="8.32727">
        <ele>654.6</ele>
        <time>2020-07-25T10:05:29Z</time>
      </trkpt>
      <trkpt lat="48.65329" lon="8.32727">
        <ele>654.6</ele>
        <time>2020-07-25T10:05:34Z</time>
      </trkpt>
      <trkpt lat="48.65327" lon="8.32728">
        <ele>654.6</ele>
        <time>2020-07-25T10:05:35Z</time>
      </trkpt>
      <trkpt lat="48.6532" lon="8.32737">
        <ele>655.2</ele>
        <time>2020-07-25T10:05:40Z</time>
      </trkpt>
      <trkpt lat="48.65316" lon="8.3274">
        <ele>655.8</ele>
        <time>2020-07-25T10:05:42Z</time>
      </trkpt>
      <trkpt lat="48.65313" lon="8.32747">
        <ele>656.6</ele>
        <time>2020-07-25T10:05:45Z</time>
      </trkpt>
      <trkpt lat="48.65311" lon="8.3275">
        <ele>657</ele>
        <time>2020-07-25T10:05:46Z</time>
      </trkpt>
      <trkpt lat="48.6531" lon="8.32753">
        <ele>657.2</ele>
        <time>2020-07-25T10:05:47Z</time>
      </trkpt>
      <trkpt lat="48.65309" lon="8.32755">
        <ele>657.4</ele>
        <time>2020-07-25T10:05:48Z</time>
      </trkpt>
      <trkpt lat="48.65304" lon="8.32765">
        <ele>657.8</ele>
        <time>2020-07-25T10:05:52Z</time>
      </trkpt>
      <trkpt lat="48.65303" lon="8.32766">
        <ele>657.8</ele>
        <time>2020-07-25T10:05:53Z</time>
      </trkpt>
      <trkpt lat="48.65299" lon="8.32769">
        <ele>658</ele>
        <time>2020-07-25T10:05:56Z</time>
      </trkpt>
      <trkpt lat="48.65297" lon="8.32771">
        <ele>658.4</ele>
        <time>2020-07-25T10:05:58Z</time>
      </trkpt>
      <trkpt lat="48.65295" lon="8.32772">
        <ele>658.6</ele>
        <time>2020-07-25T10:06:00Z</time>
      </trkpt>
      <trkpt lat="48.65295" lon="8.32772">
        <ele>658.8</ele>
        <time>2020-07-25T10:06:03Z</time>
      </trkpt>
      <trkpt lat="48.653" lon="8.32767">
        <ele>660.2</ele>
        <time>2020-07-25T10:07:18Z</time>
      </trkpt>
      <trkpt lat="48.65304" lon="8.32761">
        <ele>660.2</ele>
        <time>2020-07-25T10:07:20Z</time>
      </trkpt>
      <trkpt lat="48.65312" lon="8.3275">
        <ele>660</ele>
        <time>2020-07-25T10:07:24Z</time>
      </trkpt>
      <trkpt lat="48.65316" lon="8.32742">
        <ele>659.2</ele>
        <time>2020-07-25T10:07:28Z</time>
      </trkpt>
      <trkpt lat="48.65316" lon="8.32741">
        <ele>658.8</ele>
        <time>2020-07-25T10:07:29Z</time>
      </trkpt>
      <trkpt lat="48.65317" lon="8.32741">
        <ele>658.4</ele>
        <time>2020-07-25T10:07:32Z</time>
      </trkpt>
      <trkpt lat="48.6532" lon="8.32734">
        <ele>657.4</ele>
        <time>2020-07-25T10:08:29Z</time>
      </trkpt>
      <trkpt lat="48.65334" lon="8.32725">
        <ele>657.4</ele>
        <time>2020-07-25T10:08:33Z</time>
      </trkpt>
      <trkpt lat="48.65345" lon="8.3273">
        <ele>656.8</ele>
        <time>2020-07-25T10:08:37Z</time>
      </trkpt>
      <trkpt lat="48.65345" lon="8.32738">
        <ele>655.8</ele>
        <time>2020-07-25T10:08:39Z</time>
      </trkpt>
      <trkpt lat="48.65343" lon="8.32743">
        <ele>655.4</ele>
        <time>2020-07-25T10:08:40Z</time>
      </trkpt>
      <trkpt lat="48.65341" lon="8.32748">
        <ele>654.8</ele>
        <time>2020-07-25T10:08:41Z</time>
      </trkpt>
      <trkpt lat="48.65338" lon="8.32761">
        <ele>653.6</ele>
        <time>2020-07-25T10:08:45Z</time>
      </trkpt>
      <trkpt lat="48.65331" lon="8.32781">
        <ele>652.6</ele>
        <time>2020-07-25T10:08:49Z</time>
      </trkpt>
      <trkpt lat="48.65327" lon="8.32792">
        <ele>652.4</ele>
        <time>2020-07-25T10:08:51Z</time>
      </trkpt>
      <trkpt lat="48.65326" lon="8.32798">
        <ele>652.4</ele>
        <time>2020-07-25T10:08:52Z</time>
      </trkpt>
      <trkpt lat="48.65324" lon="8.32803">
        <ele>652.4</ele>
        <time>2020-07-25T10:08:53Z</time>
      </trkpt>
      <trkpt lat="48.65314" lon="8.32848">
        <ele>652</ele>
        <time>2020-07-25T10:09:01Z</time>
      </trkpt>
      <trkpt lat="48.65313" lon="8.32856">
        <ele>652</ele>
        <time>2020-07-25T10:09:02Z</time>
      </trkpt>
      <trkpt lat="48.65305" lon="8.3289">
        <ele>651.8</ele>
        <time>2020-07-25T10:09:07Z</time>
      </trkpt>
      <trkpt lat="48.65299" lon="8.32908">
        <ele>651.8</ele>
        <time>2020-07-25T10:09:10Z</time>
      </trkpt>
      <trkpt lat="48.65286" lon="8.32939">
        <ele>651.8</ele>
        <time>2020-07-25T10:09:15Z</time>
      </trkpt>
      <trkpt lat="48.65275" lon="8.32956">
        <ele>651.8</ele>
        <time>2020-07-25T10:09:18Z</time>
      </trkpt>
      <trkpt lat="48.65262" lon="8.32972">
        <ele>651.8</ele>
        <time>2020-07-25T10:09:21Z</time>
      </trkpt>
      <trkpt lat="48.65242" lon="8.32998">
        <ele>651.4</ele>
        <time>2020-07-25T10:09:25Z</time>
      </trkpt>
      <trkpt lat="48.65238" lon="8.33002">
        <ele>651.4</ele>
        <time>2020-07-25T10:09:26Z</time>
      </trkpt>
      <trkpt lat="48.65229" lon="8.33005">
        <ele>650.6</ele>
        <time>2020-07-25T10:09:29Z</time>
      </trkpt>
      <trkpt lat="48.65227" lon="8.33006">
        <ele>650.2</ele>
        <time>2020-07-25T10:09:30Z</time>
      </trkpt>
      <trkpt lat="48.65226" lon="8.33006">
        <ele>649.2</ele>
        <time>2020-07-25T10:09:32Z</time>
      </trkpt>
      <trkpt lat="48.65226" lon="8.33006">
        <ele>649</ele>
        <time>2020-07-25T10:09:33Z</time>
      </trkpt>
      <trkpt lat="48.65231" lon="8.33003">
        <ele>648.2</ele>
        <time>2020-07-25T10:16:24Z</time>
      </trkpt>
      <trkpt lat="48.65235" lon="8.33004">
        <ele>648.2</ele>
        <time>2020-07-25T10:16:26Z</time>
      </trkpt>
      <trkpt lat="48.65239" lon="8.33006">
        <ele>648.2</ele>
        <time>2020-07-25T10:16:30Z</time>
      </trkpt>
      <trkpt lat="48.65236" lon="8.33015">
        <ele>648.2</ele>
        <time>2020-07-25T10:16:38Z</time>
      </trkpt>
      <trkpt lat="48.65229" lon="8.33022">
        <ele>648</ele>
        <time>2020-07-25T10:16:40Z</time>
      </trkpt>
      <trkpt lat="48.65211" lon="8.33041">
        <ele>648</ele>
        <time>2020-07-25T10:16:44Z</time>
      </trkpt>
      <trkpt lat="48.65179" lon="8.33074">
        <ele>647</ele>
        <time>2020-07-25T10:16:49Z</time>
      </trkpt>
      <trkpt lat="48.65156" lon="8.33093">
        <ele>645.4</ele>
        <time>2020-07-25T10:16:52Z</time>
      </trkpt>
      <trkpt lat="48.65138" lon="8.33106">
        <ele>644.6</ele>
        <time>2020-07-25T10:16:54Z</time>
      </trkpt>
      <trkpt lat="48.6513" lon="8.33109">
        <ele>643.8</ele>
        <time>2020-07-25T10:16:55Z</time>
      </trkpt>
      <trkpt lat="48.65117" lon="8.33113">
        <ele>643</ele>
        <time>2020-07-25T10:16:56Z</time>
      </trkpt>
      <trkpt lat="48.65106" lon="8.33113">
        <ele>642</ele>
        <time>2020-07-25T10:16:57Z</time>
      </trkpt>
      <trkpt lat="48.65084" lon="8.33109">
        <ele>640.2</ele>
        <time>2020-07-25T10:16:59Z</time>
      </trkpt>
      <trkpt lat="48.65065" lon="8.33103">
        <ele>638.6</ele>
        <time>2020-07-25T10:17:01Z</time>
      </trkpt>
      <trkpt lat="48.6504" lon="8.33099">
        <ele>636.8</ele>
        <time>2020-07-25T10:17:03Z</time>
      </trkpt>
      <trkpt lat="48.65028" lon="8.33101">
        <ele>635.6</ele>
        <time>2020-07-25T10:17:04Z</time>
      </trkpt>
      <trkpt lat="48.65017" lon="8.33106">
        <ele>634.4</ele>
        <time>2020-07-25T10:17:05Z</time>
      </trkpt>
      <trkpt lat="48.65006" lon="8.33112">
        <ele>633.4</ele>
        <time>2020-07-25T10:17:06Z</time>
      </trkpt>
      <trkpt lat="48.64997" lon="8.33121">
        <ele>632.4</ele>
        <time>2020-07-25T10:17:07Z</time>
      </trkpt>
      <trkpt lat="48.64988" lon="8.3313">
        <ele>631.8</ele>
        <time>2020-07-25T10:17:08Z</time>
      </trkpt>
      <trkpt lat="48.64972" lon="8.3315">
        <ele>629.8</ele>
        <time>2020-07-25T10:17:10Z</time>
      </trkpt>
      <trkpt lat="48.64964" lon="8.33161">
        <ele>628.2</ele>
        <time>2020-07-25T10:17:11Z</time>
      </trkpt>
      <trkpt lat="48.64957" lon="8.3317">
        <ele>627</ele>
        <time>2020-07-25T10:17:12Z</time>
      </trkpt>
      <trkpt lat="48.64947" lon="8.33183">
        <ele>626</ele>
        <time>2020-07-25T10:17:13Z</time>
      </trkpt>
      <trkpt lat="48.64932" lon="8.33207">
        <ele>624.6</ele>
        <time>2020-07-25T10:17:15Z</time>
      </trkpt>
      <trkpt lat="48.64918" lon="8.33227">
        <ele>623.6</ele>
        <time>2020-07-25T10:17:17Z</time>
      </trkpt>
      <trkpt lat="48.64902" lon="8.33249">
        <ele>622</ele>
        <time>2020-07-25T10:17:19Z</time>
      </trkpt>
      <trkpt lat="48.64895" lon="8.33257">
        <ele>621.2</ele>
        <time>2020-07-25T10:17:20Z</time>
      </trkpt>
      <trkpt lat="48.64887" lon="8.33264">
        <ele>620.6</ele>
        <time>2020-07-25T10:17:21Z</time>
      </trkpt>
      <trkpt lat="48.64879" lon="8.33269">
        <ele>620.4</ele>
        <time>2020-07-25T10:17:22Z</time>
      </trkpt>
      <trkpt lat="48.64856" lon="8.33281">
        <ele>618.8</ele>
        <time>2020-07-25T10:17:25Z</time>
      </trkpt>
      <trkpt lat="48.64849" lon="8.33285">
        <ele>617.8</ele>
        <time>2020-07-25T10:17:26Z</time>
      </trkpt>
      <trkpt lat="48.64844" lon="8.33291">
        <ele>617.4</ele>
        <time>2020-07-25T10:17:27Z</time>
      </trkpt>
      <trkpt lat="48.64838" lon="8.33302">
        <ele>616.2</ele>
        <time>2020-07-25T10:17:29Z</time>
      </trkpt>
      <trkpt lat="48.64834" lon="8.3331">
        <ele>615.2</ele>
        <time>2020-07-25T10:17:31Z</time>
      </trkpt>
      <trkpt lat="48.64831" lon="8.33314">
        <ele>614</ele>
        <time>2020-07-25T10:17:33Z</time>
      </trkpt>
      <trkpt lat="48.64831" lon="8.33316">
        <ele>613.6</ele>
        <time>2020-07-25T10:17:34Z</time>
      </trkpt>
      <trkpt lat="48.64832" lon="8.33317">
        <ele>613.2</ele>
        <time>2020-07-25T10:17:37Z</time>
      </trkpt>
      <trkpt lat="48.64836" lon="8.33329">
        <ele>613</ele>
        <time>2020-07-25T10:17:42Z</time>
      </trkpt>
      <trkpt lat="48.64837" lon="8.33335">
        <ele>613</ele>
        <time>2020-07-25T10:17:43Z</time>
      </trkpt>
      <trkpt lat="48.64844" lon="8.33353">
        <ele>612.8</ele>
        <time>2020-07-25T10:17:46Z</time>
      </trkpt>
      <trkpt lat="48.64849" lon="8.33358">
        <ele>612.8</ele>
        <time>2020-07-25T10:17:47Z</time>
      </trkpt>
      <trkpt lat="48.64854" lon="8.33362">
        <ele>612.8</ele>
        <time>2020-07-25T10:17:48Z</time>
      </trkpt>
      <trkpt lat="48.64866" lon="8.33367">
        <ele>612.6</ele>
        <time>2020-07-25T10:17:50Z</time>
      </trkpt>
      <trkpt lat="48.64879" lon="8.33363">
        <ele>612</ele>
        <time>2020-07-25T10:17:52Z</time>
      </trkpt>
      <trkpt lat="48.64886" lon="8.33358">
        <ele>611.4</ele>
        <time>2020-07-25T10:17:53Z</time>
      </trkpt>
      <trkpt lat="48.64892" lon="8.33352">
        <ele>611</ele>
        <time>2020-07-25T10:17:54Z</time>
      </trkpt>
      <trkpt lat="48.64918" lon="8.33323">
        <ele>609.8</ele>
        <time>2020-07-25T10:17:58Z</time>
      </trkpt>
      <trkpt lat="48.64939" lon="8.33302">
        <ele>608.8</ele>
        <time>2020-07-25T10:18:01Z</time>
      </trkpt>
      <trkpt lat="48.64962" lon="8.33282">
        <ele>607</ele>
        <time>2020-07-25T10:18:04Z</time>
      </trkpt>
      <trkpt lat="48.64979" lon="8.3327">
        <ele>605.8</ele>
        <time>2020-07-25T10:18:06Z</time>
      </trkpt>
      <trkpt lat="48.64998" lon="8.33264">
        <ele>604.8</ele>
        <time>2020-07-25T10:18:08Z</time>
      </trkpt>
      <trkpt lat="48.65016" lon="8.33264">
        <ele>603.4</ele>
        <time>2020-07-25T10:18:10Z</time>
      </trkpt>
      <trkpt lat="48.65034" lon="8.33267">
        <ele>601.8</ele>
        <time>2020-07-25T10:18:12Z</time>
      </trkpt>
      <trkpt lat="48.65051" lon="8.33275">
        <ele>600.6</ele>
        <time>2020-07-25T10:18:14Z</time>
      </trkpt>
      <trkpt lat="48.65066" lon="8.33286">
        <ele>598.6</ele>
        <time>2020-07-25T10:18:16Z</time>
      </trkpt>
      <trkpt lat="48.65073" lon="8.33293">
        <ele>597.6</ele>
        <time>2020-07-25T10:18:17Z</time>
      </trkpt>
      <trkpt lat="48.65086" lon="8.33311">
        <ele>595.6</ele>
        <time>2020-07-25T10:18:19Z</time>
      </trkpt>
      <trkpt lat="48.65091" lon="8.33321">
        <ele>594.8</ele>
        <time>2020-07-25T10:18:20Z</time>
      </trkpt>
      <trkpt lat="48.65095" lon="8.33331">
        <ele>593.8</ele>
        <time>2020-07-25T10:18:21Z</time>
      </trkpt>
      <trkpt lat="48.65101" lon="8.33354">
        <ele>592.2</ele>
        <time>2020-07-25T10:18:23Z</time>
      </trkpt>
      <trkpt lat="48.65101" lon="8.33378">
        <ele>590.2</ele>
        <time>2020-07-25T10:18:25Z</time>
      </trkpt>
      <trkpt lat="48.65099" lon="8.33391">
        <ele>589.2</ele>
        <time>2020-07-25T10:18:26Z</time>
      </trkpt>
      <trkpt lat="48.65096" lon="8.33401">
        <ele>589.2</ele>
        <time>2020-07-25T10:18:27Z</time>
      </trkpt>
      <trkpt lat="48.65089" lon="8.33413">
        <ele>588.6</ele>
        <time>2020-07-25T10:18:28Z</time>
      </trkpt>
      <trkpt lat="48.65082" lon="8.33421">
        <ele>587.6</ele>
        <time>2020-07-25T10:18:29Z</time>
      </trkpt>
      <trkpt lat="48.65066" lon="8.33432">
        <ele>585.8</ele>
        <time>2020-07-25T10:18:31Z</time>
      </trkpt>
      <trkpt lat="48.65056" lon="8.33436">
        <ele>585</ele>
        <time>2020-07-25T10:18:32Z</time>
      </trkpt>
      <trkpt lat="48.65049" lon="8.33437">
        <ele>584.4</ele>
        <time>2020-07-25T10:18:33Z</time>
      </trkpt>
      <trkpt lat="48.6503" lon="8.33441">
        <ele>583</ele>
        <time>2020-07-25T10:18:35Z</time>
      </trkpt>
      <trkpt lat="48.65023" lon="8.33443">
        <ele>582.4</ele>
        <time>2020-07-25T10:18:36Z</time>
      </trkpt>
      <trkpt lat="48.65017" lon="8.33445">
        <ele>582</ele>
        <time>2020-07-25T10:18:37Z</time>
      </trkpt>
      <trkpt lat="48.65004" lon="8.33453">
        <ele>581.2</ele>
        <time>2020-07-25T10:18:39Z</time>
      </trkpt>
      <trkpt lat="48.64997" lon="8.33459">
        <ele>580.4</ele>
        <time>2020-07-25T10:18:40Z</time>
      </trkpt>
      <trkpt lat="48.64985" lon="8.33473">
        <ele>578.8</ele>
        <time>2020-07-25T10:18:42Z</time>
      </trkpt>
      <trkpt lat="48.64973" lon="8.33489">
        <ele>578</ele>
        <time>2020-07-25T10:18:44Z</time>
      </trkpt>
      <trkpt lat="48.64959" lon="8.33507">
        <ele>577.6</ele>
        <time>2020-07-25T10:18:46Z</time>
      </trkpt>
      <trkpt lat="48.64937" lon="8.33533">
        <ele>576</ele>
        <time>2020-07-25T10:18:49Z</time>
      </trkpt>
      <trkpt lat="48.64929" lon="8.33541">
        <ele>575.4</ele>
        <time>2020-07-25T10:18:50Z</time>
      </trkpt>
      <trkpt lat="48.64921" lon="8.3355">
        <ele>574.8</ele>
        <time>2020-07-25T10:18:51Z</time>
      </trkpt>
      <trkpt lat="48.64903" lon="8.33566">
        <ele>573.4</ele>
        <time>2020-07-25T10:18:53Z</time>
      </trkpt>
      <trkpt lat="48.64885" lon="8.33581">
        <ele>572.4</ele>
        <time>2020-07-25T10:18:55Z</time>
      </trkpt>
      <trkpt lat="48.64876" lon="8.33589">
        <ele>571.4</ele>
        <time>2020-07-25T10:18:56Z</time>
      </trkpt>
      <trkpt lat="48.64851" lon="8.33611">
        <ele>569.8</ele>
        <time>2020-07-25T10:18:59Z</time>
      </trkpt>
      <trkpt lat="48.64834" lon="8.33626">
        <ele>568.2</ele>
        <time>2020-07-25T10:19:01Z</time>
      </trkpt>
      <trkpt lat="48.64825" lon="8.33634">
        <ele>567</ele>
        <time>2020-07-25T10:19:02Z</time>
      </trkpt>
      <trkpt lat="48.64809" lon="8.3365">
        <ele>565.2</ele>
        <time>2020-07-25T10:19:04Z</time>
      </trkpt>
      <trkpt lat="48.64791" lon="8.33668">
        <ele>563.6</ele>
        <time>2020-07-25T10:19:06Z</time>
      </trkpt>
      <trkpt lat="48.64782" lon="8.33678">
        <ele>562.8</ele>
        <time>2020-07-25T10:19:07Z</time>
      </trkpt>
      <trkpt lat="48.64772" lon="8.33686">
        <ele>562</ele>
        <time>2020-07-25T10:19:08Z</time>
      </trkpt>
      <trkpt lat="48.64751" lon="8.33697">
        <ele>560.6</ele>
        <time>2020-07-25T10:19:10Z</time>
      </trkpt>
      <trkpt lat="48.64731" lon="8.33707">
        <ele>559</ele>
        <time>2020-07-25T10:19:12Z</time>
      </trkpt>
      <trkpt lat="48.64722" lon="8.33714">
        <ele>558.2</ele>
        <time>2020-07-25T10:19:13Z</time>
      </trkpt>
      <trkpt lat="48.64713" lon="8.33722">
        <ele>557.2</ele>
        <time>2020-07-25T10:19:14Z</time>
      </trkpt>
      <trkpt lat="48.64705" lon="8.33732">
        <ele>556.2</ele>
        <time>2020-07-25T10:19:15Z</time>
      </trkpt>
      <trkpt lat="48.64697" lon="8.33741">
        <ele>554.6</ele>
        <time>2020-07-25T10:19:16Z</time>
      </trkpt>
      <trkpt lat="48.64689" lon="8.33749">
        <ele>553.2</ele>
        <time>2020-07-25T10:19:17Z</time>
      </trkpt>
      <trkpt lat="48.64671" lon="8.33765">
        <ele>552</ele>
        <time>2020-07-25T10:19:19Z</time>
      </trkpt>
      <trkpt lat="48.64661" lon="8.33771">
        <ele>551.4</ele>
        <time>2020-07-25T10:19:20Z</time>
      </trkpt>
      <trkpt lat="48.64651" lon="8.33774">
        <ele>550.8</ele>
        <time>2020-07-25T10:19:21Z</time>
      </trkpt>
      <trkpt lat="48.64629" lon="8.33776">
        <ele>549.4</ele>
        <time>2020-07-25T10:19:23Z</time>
      </trkpt>
      <trkpt lat="48.64608" lon="8.33772">
        <ele>548</ele>
        <time>2020-07-25T10:19:25Z</time>
      </trkpt>
      <trkpt lat="48.64598" lon="8.33767">
        <ele>546.8</ele>
        <time>2020-07-25T10:19:26Z</time>
      </trkpt>
      <trkpt lat="48.64588" lon="8.3376">
        <ele>545.4</ele>
        <time>2020-07-25T10:19:27Z</time>
      </trkpt>
      <trkpt lat="48.64578" lon="8.33754">
        <ele>544.4</ele>
        <time>2020-07-25T10:19:28Z</time>
      </trkpt>
      <trkpt lat="48.64568" lon="8.33748">
        <ele>543.2</ele>
        <time>2020-07-25T10:19:29Z</time>
      </trkpt>
      <trkpt lat="48.64547" lon="8.33736">
        <ele>542.2</ele>
        <time>2020-07-25T10:19:31Z</time>
      </trkpt>
      <trkpt lat="48.64536" lon="8.33732">
        <ele>541</ele>
        <time>2020-07-25T10:19:32Z</time>
      </trkpt>
      <trkpt lat="48.64515" lon="8.33726">
        <ele>539.2</ele>
        <time>2020-07-25T10:19:34Z</time>
      </trkpt>
      <trkpt lat="48.64494" lon="8.33723">
        <ele>537.4</ele>
        <time>2020-07-25T10:19:36Z</time>
      </trkpt>
      <trkpt lat="48.64483" lon="8.33721">
        <ele>536.4</ele>
        <time>2020-07-25T10:19:37Z</time>
      </trkpt>
      <trkpt lat="48.64463" lon="8.33718">
        <ele>534.8</ele>
        <time>2020-07-25T10:19:39Z</time>
      </trkpt>
      <trkpt lat="48.64452" lon="8.33716">
        <ele>533.8</ele>
        <time>2020-07-25T10:19:40Z</time>
      </trkpt>
      <trkpt lat="48.64431" lon="8.33715">
        <ele>532.2</ele>
        <time>2020-07-25T10:19:42Z</time>
      </trkpt>
      <trkpt lat="48.6442" lon="8.33716">
        <ele>531.2</ele>
        <time>2020-07-25T10:19:43Z</time>
      </trkpt>
      <trkpt lat="48.6441" lon="8.33718">
        <ele>530.4</ele>
        <time>2020-07-25T10:19:44Z</time>
      </trkpt>
      <trkpt lat="48.64399" lon="8.33722">
        <ele>529.4</ele>
        <time>2020-07-25T10:19:45Z</time>
      </trkpt>
      <trkpt lat="48.64379" lon="8.33729">
        <ele>527.6</ele>
        <time>2020-07-25T10:19:47Z</time>
      </trkpt>
      <trkpt lat="48.64359" lon="8.33735">
        <ele>526</ele>
        <time>2020-07-25T10:19:49Z</time>
      </trkpt>
      <trkpt lat="48.64349" lon="8.33739">
        <ele>524.8</ele>
        <time>2020-07-25T10:19:50Z</time>
      </trkpt>
      <trkpt lat="48.64339" lon="8.33742">
        <ele>524.2</ele>
        <time>2020-07-25T10:19:51Z</time>
      </trkpt>
      <trkpt lat="48.6433" lon="8.33746">
        <ele>523.4</ele>
        <time>2020-07-25T10:19:52Z</time>
      </trkpt>
      <trkpt lat="48.64321" lon="8.33749">
        <ele>522.4</ele>
        <time>2020-07-25T10:19:53Z</time>
      </trkpt>
      <trkpt lat="48.64302" lon="8.33756">
        <ele>520.8</ele>
        <time>2020-07-25T10:19:55Z</time>
      </trkpt>
      <trkpt lat="48.64284" lon="8.33763">
        <ele>519</ele>
        <time>2020-07-25T10:19:57Z</time>
      </trkpt>
      <trkpt lat="48.64265" lon="8.33771">
        <ele>517.2</ele>
        <time>2020-07-25T10:19:59Z</time>
      </trkpt>
      <trkpt lat="48.64239" lon="8.33781">
        <ele>515.6</ele>
        <time>2020-07-25T10:20:02Z</time>
      </trkpt>
      <trkpt lat="48.64221" lon="8.33788">
        <ele>514.2</ele>
        <time>2020-07-25T10:20:04Z</time>
      </trkpt>
      <trkpt lat="48.64203" lon="8.33795">
        <ele>512</ele>
        <time>2020-07-25T10:20:06Z</time>
      </trkpt>
      <trkpt lat="48.64193" lon="8.33799">
        <ele>511</ele>
        <time>2020-07-25T10:20:07Z</time>
      </trkpt>
      <trkpt lat="48.64184" lon="8.33803">
        <ele>509.8</ele>
        <time>2020-07-25T10:20:08Z</time>
      </trkpt>
      <trkpt lat="48.64175" lon="8.33808">
        <ele>509</ele>
        <time>2020-07-25T10:20:09Z</time>
      </trkpt>
      <trkpt lat="48.64166" lon="8.33813">
        <ele>507.8</ele>
        <time>2020-07-25T10:20:10Z</time>
      </trkpt>
      <trkpt lat="48.64158" lon="8.33819">
        <ele>506.8</ele>
        <time>2020-07-25T10:20:11Z</time>
      </trkpt>
      <trkpt lat="48.6415" lon="8.33826">
        <ele>505.6</ele>
        <time>2020-07-25T10:20:12Z</time>
      </trkpt>
      <trkpt lat="48.64142" lon="8.33834">
        <ele>504.4</ele>
        <time>2020-07-25T10:20:13Z</time>
      </trkpt>
      <trkpt lat="48.64135" lon="8.33841">
        <ele>502.8</ele>
        <time>2020-07-25T10:20:14Z</time>
      </trkpt>
      <trkpt lat="48.64128" lon="8.33849">
        <ele>501.6</ele>
        <time>2020-07-25T10:20:15Z</time>
      </trkpt>
      <trkpt lat="48.64121" lon="8.33858">
        <ele>500.6</ele>
        <time>2020-07-25T10:20:16Z</time>
      </trkpt>
      <trkpt lat="48.64107" lon="8.33875">
        <ele>499</ele>
        <time>2020-07-25T10:20:18Z</time>
      </trkpt>
      <trkpt lat="48.64099" lon="8.33884">
        <ele>497.8</ele>
        <time>2020-07-25T10:20:19Z</time>
      </trkpt>
      <trkpt lat="48.64091" lon="8.33893">
        <ele>496.6</ele>
        <time>2020-07-25T10:20:20Z</time>
      </trkpt>
      <trkpt lat="48.64083" lon="8.33902">
        <ele>495.4</ele>
        <time>2020-07-25T10:20:21Z</time>
      </trkpt>
      <trkpt lat="48.64075" lon="8.33911">
        <ele>494.4</ele>
        <time>2020-07-25T10:20:22Z</time>
      </trkpt>
      <trkpt lat="48.64066" lon="8.3392">
        <ele>493</ele>
        <time>2020-07-25T10:20:23Z</time>
      </trkpt>
      <trkpt lat="48.64058" lon="8.33927">
        <ele>491.6</ele>
        <time>2020-07-25T10:20:24Z</time>
      </trkpt>
      <trkpt lat="48.64049" lon="8.33933">
        <ele>490.4</ele>
        <time>2020-07-25T10:20:25Z</time>
      </trkpt>
      <trkpt lat="48.64039" lon="8.33938">
        <ele>489</ele>
        <time>2020-07-25T10:20:26Z</time>
      </trkpt>
      <trkpt lat="48.6403" lon="8.33942">
        <ele>487.6</ele>
        <time>2020-07-25T10:20:27Z</time>
      </trkpt>
      <trkpt lat="48.6402" lon="8.33944">
        <ele>486.4</ele>
        <time>2020-07-25T10:20:28Z</time>
      </trkpt>
      <trkpt lat="48.64011" lon="8.33946">
        <ele>484.8</ele>
        <time>2020-07-25T10:20:29Z</time>
      </trkpt>
      <trkpt lat="48.64002" lon="8.33946">
        <ele>483.6</ele>
        <time>2020-07-25T10:20:30Z</time>
      </trkpt>
      <trkpt lat="48.63994" lon="8.33945">
        <ele>482.2</ele>
        <time>2020-07-25T10:20:31Z</time>
      </trkpt>
      <trkpt lat="48.63986" lon="8.33943">
        <ele>482.2</ele>
        <time>2020-07-25T10:20:32Z</time>
      </trkpt>
      <trkpt lat="48.6398" lon="8.3394">
        <ele>481</ele>
        <time>2020-07-25T10:20:33Z</time>
      </trkpt>
      <trkpt lat="48.63973" lon="8.33937">
        <ele>479.4</ele>
        <time>2020-07-25T10:20:34Z</time>
      </trkpt>
      <trkpt lat="48.63966" lon="8.33934">
        <ele>477.8</ele>
        <time>2020-07-25T10:20:35Z</time>
      </trkpt>
      <trkpt lat="48.63961" lon="8.33928">
        <ele>476.2</ele>
        <time>2020-07-25T10:20:36Z</time>
      </trkpt>
      <trkpt lat="48.63959" lon="8.33921">
        <ele>475.4</ele>
        <time>2020-07-25T10:20:37Z</time>
      </trkpt>
      <trkpt lat="48.63959" lon="8.33914">
        <ele>474.2</ele>
        <time>2020-07-25T10:20:38Z</time>
      </trkpt>
      <trkpt lat="48.63961" lon="8.33897">
        <ele>472.8</ele>
        <time>2020-07-25T10:20:40Z</time>
      </trkpt>
      <trkpt lat="48.63962" lon="8.33891">
        <ele>471.6</ele>
        <time>2020-07-25T10:20:41Z</time>
      </trkpt>
      <trkpt lat="48.63961" lon="8.33877">
        <ele>469.6</ele>
        <time>2020-07-25T10:20:43Z</time>
      </trkpt>
      <trkpt lat="48.63958" lon="8.33867">
        <ele>468.6</ele>
        <time>2020-07-25T10:20:45Z</time>
      </trkpt>
      <trkpt lat="48.63954" lon="8.33859">
        <ele>468.4</ele>
        <time>2020-07-25T10:20:47Z</time>
      </trkpt>
      <trkpt lat="48.6395" lon="8.33853">
        <ele>468.4</ele>
        <time>2020-07-25T10:20:49Z</time>
      </trkpt>
      <trkpt lat="48.63949" lon="8.33852">
        <ele>468.4</ele>
        <time>2020-07-25T10:20:50Z</time>
      </trkpt>
      <trkpt lat="48.63948" lon="8.33855">
        <ele>468.2</ele>
        <time>2020-07-25T10:20:51Z</time>
      </trkpt>
      <trkpt lat="48.63955" lon="8.33865">
        <ele>468.2</ele>
        <time>2020-07-25T10:20:55Z</time>
      </trkpt>
      <trkpt lat="48.63966" lon="8.33878">
        <ele>468.6</ele>
        <time>2020-07-25T10:21:01Z</time>
      </trkpt>
      <trkpt lat="48.63966" lon="8.33878">
        <ele>468.8</ele>
        <time>2020-07-25T10:21:03Z</time>
      </trkpt>
      <trkpt lat="48.63965" lon="8.33874">
        <ele>468.8</ele>
        <time>2020-07-25T10:22:24Z</time>
      </trkpt>
      <trkpt lat="48.63963" lon="8.33873">
        <ele>468.8</ele>
        <time>2020-07-25T10:22:25Z</time>
      </trkpt>
      <trkpt lat="48.63959" lon="8.33871">
        <ele>468.6</ele>
        <time>2020-07-25T10:22:27Z</time>
      </trkpt>
      <trkpt lat="48.63956" lon="8.33865">
        <ele>468.6</ele>
        <time>2020-07-25T10:22:29Z</time>
      </trkpt>
      <trkpt lat="48.63952" lon="8.33857">
        <ele>468.6</ele>
        <time>2020-07-25T10:22:31Z</time>
      </trkpt>
      <trkpt lat="48.63943" lon="8.33846">
        <ele>467.8</ele>
        <time>2020-07-25T10:22:34Z</time>
      </trkpt>
      <trkpt lat="48.63925" lon="8.33822">
        <ele>467.8</ele>
        <time>2020-07-25T10:22:40Z</time>
      </trkpt>
      <trkpt lat="48.63914" lon="8.33788">
        <ele>468.4</ele>
        <time>2020-07-25T10:22:46Z</time>
      </trkpt>
      <trkpt lat="48.63908" lon="8.33761">
        <ele>468.8</ele>
        <time>2020-07-25T10:22:51Z</time>
      </trkpt>
      <trkpt lat="48.63904" lon="8.33739">
        <ele>469.6</ele>
        <time>2020-07-25T10:22:55Z</time>
      </trkpt>
      <trkpt lat="48.63902" lon="8.33734">
        <ele>469.8</ele>
        <time>2020-07-25T10:22:56Z</time>
      </trkpt>
      <trkpt lat="48.63894" lon="8.33708">
        <ele>470.8</ele>
        <time>2020-07-25T10:23:01Z</time>
      </trkpt>
      <trkpt lat="48.63889" lon="8.33692">
        <ele>471.2</ele>
        <time>2020-07-25T10:23:04Z</time>
      </trkpt>
      <trkpt lat="48.6388" lon="8.33667">
        <ele>472</ele>
        <time>2020-07-25T10:23:09Z</time>
      </trkpt>
      <trkpt lat="48.63873" lon="8.33645">
        <ele>473.4</ele>
        <time>2020-07-25T10:23:13Z</time>
      </trkpt>
      <trkpt lat="48.63871" lon="8.3364">
        <ele>473.8</ele>
        <time>2020-07-25T10:23:14Z</time>
      </trkpt>
      <trkpt lat="48.63864" lon="8.33619">
        <ele>474.4</ele>
        <time>2020-07-25T10:23:18Z</time>
      </trkpt>
      <trkpt lat="48.63855" lon="8.33592">
        <ele>475.2</ele>
        <time>2020-07-25T10:23:23Z</time>
      </trkpt>
      <trkpt lat="48.63852" lon="8.33581">
        <ele>475.6</ele>
        <time>2020-07-25T10:23:25Z</time>
      </trkpt>
      <trkpt lat="48.63843" lon="8.33543">
        <ele>476.4</ele>
        <time>2020-07-25T10:23:32Z</time>
      </trkpt>
      <trkpt lat="48.63841" lon="8.33527">
        <ele>476.8</ele>
        <time>2020-07-25T10:23:35Z</time>
      </trkpt>
      <trkpt lat="48.63841" lon="8.33503">
        <ele>477.2</ele>
        <time>2020-07-25T10:23:39Z</time>
      </trkpt>
      <trkpt lat="48.63842" lon="8.33481">
        <ele>478</ele>
        <time>2020-07-25T10:23:43Z</time>
      </trkpt>
      <trkpt lat="48.63844" lon="8.33445">
        <ele>479</ele>
        <time>2020-07-25T10:23:49Z</time>
      </trkpt>
      <trkpt lat="48.63845" lon="8.33439">
        <ele>479.2</ele>
        <time>2020-07-25T10:23:50Z</time>
      </trkpt>
      <trkpt lat="48.63846" lon="8.33409">
        <ele>480.4</ele>
        <time>2020-07-25T10:23:55Z</time>
      </trkpt>
      <trkpt lat="48.63847" lon="8.33398">
        <ele>480.8</ele>
        <time>2020-07-25T10:23:57Z</time>
      </trkpt>
      <trkpt lat="48.63849" lon="8.3337">
        <ele>481.4</ele>
        <time>2020-07-25T10:24:02Z</time>
      </trkpt>
      <trkpt lat="48.63852" lon="8.33353">
        <ele>481.8</ele>
        <time>2020-07-25T10:24:05Z</time>
      </trkpt>
      <trkpt lat="48.6386" lon="8.33318">
        <ele>482.4</ele>
        <time>2020-07-25T10:24:12Z</time>
      </trkpt>
      <trkpt lat="48.63861" lon="8.33313">
        <ele>482.4</ele>
        <time>2020-07-25T10:24:13Z</time>
      </trkpt>
      <trkpt lat="48.63862" lon="8.33281">
        <ele>483.6</ele>
        <time>2020-07-25T10:24:19Z</time>
      </trkpt>
      <trkpt lat="48.63862" lon="8.33276">
        <ele>483.8</ele>
        <time>2020-07-25T10:24:20Z</time>
      </trkpt>
      <trkpt lat="48.6386" lon="8.33257">
        <ele>484.8</ele>
        <time>2020-07-25T10:24:24Z</time>
      </trkpt>
      <trkpt lat="48.63853" lon="8.33227">
        <ele>485.6</ele>
        <time>2020-07-25T10:24:30Z</time>
      </trkpt>
      <trkpt lat="48.63851" lon="8.33217">
        <ele>486.2</ele>
        <time>2020-07-25T10:24:32Z</time>
      </trkpt>
      <trkpt lat="48.63846" lon="8.33193">
        <ele>487</ele>
        <time>2020-07-25T10:24:37Z</time>
      </trkpt>
      <trkpt lat="48.63845" lon="8.33188">
        <ele>487.2</ele>
        <time>2020-07-25T10:24:38Z</time>
      </trkpt>
      <trkpt lat="48.6384" lon="8.33172">
        <ele>487.8</ele>
        <time>2020-07-25T10:24:43Z</time>
      </trkpt>
      <trkpt lat="48.63836" lon="8.33153">
        <ele>488.2</ele>
        <time>2020-07-25T10:24:47Z</time>
      </trkpt>
      <trkpt lat="48.63832" lon="8.3314">
        <ele>488.4</ele>
        <time>2020-07-25T10:24:50Z</time>
      </trkpt>
      <trkpt lat="48.63824" lon="8.33113">
        <ele>489.2</ele>
        <time>2020-07-25T10:24:56Z</time>
      </trkpt>
      <trkpt lat="48.6382" lon="8.331">
        <ele>489.8</ele>
        <time>2020-07-25T10:24:59Z</time>
      </trkpt>
      <trkpt lat="48.63815" lon="8.33087">
        <ele>490.4</ele>
        <time>2020-07-25T10:25:02Z</time>
      </trkpt>
      <trkpt lat="48.6381" lon="8.33074">
        <ele>491</ele>
        <time>2020-07-25T10:25:05Z</time>
      </trkpt>
      <trkpt lat="48.63801" lon="8.33059">
        <ele>491.6</ele>
        <time>2020-07-25T10:25:09Z</time>
      </trkpt>
      <trkpt lat="48.63794" lon="8.33049">
        <ele>492</ele>
        <time>2020-07-25T10:25:12Z</time>
      </trkpt>
      <trkpt lat="48.63785" lon="8.33035">
        <ele>492.6</ele>
        <time>2020-07-25T10:25:16Z</time>
      </trkpt>
      <trkpt lat="48.63772" lon="8.33017">
        <ele>493.2</ele>
        <time>2020-07-25T10:25:21Z</time>
      </trkpt>
      <trkpt lat="48.63764" lon="8.33006">
        <ele>493.6</ele>
        <time>2020-07-25T10:25:24Z</time>
      </trkpt>
      <trkpt lat="48.63754" lon="8.3299">
        <ele>494.4</ele>
        <time>2020-07-25T10:25:28Z</time>
      </trkpt>
      <trkpt lat="48.63744" lon="8.32977">
        <ele>494.8</ele>
        <time>2020-07-25T10:25:32Z</time>
      </trkpt>
      <trkpt lat="48.63738" lon="8.32971">
        <ele>495</ele>
        <time>2020-07-25T10:25:34Z</time>
      </trkpt>
      <trkpt lat="48.63733" lon="8.32964">
        <ele>495</ele>
        <time>2020-07-25T10:25:36Z</time>
      </trkpt>
      <trkpt lat="48.63709" lon="8.32941">
        <ele>495.6</ele>
        <time>2020-07-25T10:25:44Z</time>
      </trkpt>
      <trkpt lat="48.63703" lon="8.32936">
        <ele>495.8</ele>
        <time>2020-07-25T10:25:46Z</time>
      </trkpt>
      <trkpt lat="48.63685" lon="8.32919">
        <ele>496.4</ele>
        <time>2020-07-25T10:25:52Z</time>
      </trkpt>
      <trkpt lat="48.63675" lon="8.32906">
        <ele>497</ele>
        <time>2020-07-25T10:25:56Z</time>
      </trkpt>
      <trkpt lat="48.63664" lon="8.32893">
        <ele>498</ele>
        <time>2020-07-25T10:26:00Z</time>
      </trkpt>
      <trkpt lat="48.63661" lon="8.3289">
        <ele>498.2</ele>
        <time>2020-07-25T10:26:01Z</time>
      </trkpt>
      <trkpt lat="48.63636" lon="8.3287">
        <ele>499</ele>
        <time>2020-07-25T10:26:09Z</time>
      </trkpt>
      <trkpt lat="48.63626" lon="8.32865">
        <ele>499.2</ele>
        <time>2020-07-25T10:26:12Z</time>
      </trkpt>
      <trkpt lat="48.6361" lon="8.32858">
        <ele>499.8</ele>
        <time>2020-07-25T10:26:17Z</time>
      </trkpt>
      <trkpt lat="48.63597" lon="8.32853">
        <ele>500.2</ele>
        <time>2020-07-25T10:26:21Z</time>
      </trkpt>
      <trkpt lat="48.63581" lon="8.32841">
        <ele>500.8</ele>
        <time>2020-07-25T10:26:26Z</time>
      </trkpt>
      <trkpt lat="48.63572" lon="8.32823">
        <ele>501.2</ele>
        <time>2020-07-25T10:26:30Z</time>
      </trkpt>
      <trkpt lat="48.63571" lon="8.32819">
        <ele>501.4</ele>
        <time>2020-07-25T10:26:31Z</time>
      </trkpt>
      <trkpt lat="48.63569" lon="8.32789">
        <ele>501.8</ele>
        <time>2020-07-25T10:26:37Z</time>
      </trkpt>
      <trkpt lat="48.63572" lon="8.32769">
        <ele>502.4</ele>
        <time>2020-07-25T10:26:41Z</time>
      </trkpt>
      <trkpt lat="48.63576" lon="8.32748">
        <ele>503</ele>
        <time>2020-07-25T10:26:45Z</time>
      </trkpt>
      <trkpt lat="48.6358" lon="8.32722">
        <ele>503.4</ele>
        <time>2020-07-25T10:26:50Z</time>
      </trkpt>
      <trkpt lat="48.63582" lon="8.32699">
        <ele>504</ele>
        <time>2020-07-25T10:26:54Z</time>
      </trkpt>
      <trkpt lat="48.63584" lon="8.32677">
        <ele>504.8</ele>
        <time>2020-07-25T10:26:58Z</time>
      </trkpt>
      <trkpt lat="48.63583" lon="8.32644">
        <ele>505.2</ele>
        <time>2020-07-25T10:27:04Z</time>
      </trkpt>
      <trkpt lat="48.63581" lon="8.32629">
        <ele>505.8</ele>
        <time>2020-07-25T10:27:07Z</time>
      </trkpt>
      <trkpt lat="48.63575" lon="8.32608">
        <ele>506.4</ele>
        <time>2020-07-25T10:27:11Z</time>
      </trkpt>
      <trkpt lat="48.6357" lon="8.32593">
        <ele>507</ele>
        <time>2020-07-25T10:27:14Z</time>
      </trkpt>
      <trkpt lat="48.6356" lon="8.32565">
        <ele>507.8</ele>
        <time>2020-07-25T10:27:20Z</time>
      </trkpt>
      <trkpt lat="48.63556" lon="8.32556">
        <ele>508</ele>
        <time>2020-07-25T10:27:22Z</time>
      </trkpt>
      <trkpt lat="48.63541" lon="8.32517">
        <ele>509</ele>
        <time>2020-07-25T10:27:30Z</time>
      </trkpt>
      <trkpt lat="48.63539" lon="8.32512">
        <ele>509</ele>
        <time>2020-07-25T10:27:31Z</time>
      </trkpt>
      <trkpt lat="48.63527" lon="8.32482">
        <ele>509.4</ele>
        <time>2020-07-25T10:27:37Z</time>
      </trkpt>
      <trkpt lat="48.63517" lon="8.32455">
        <ele>510.2</ele>
        <time>2020-07-25T10:27:42Z</time>
      </trkpt>
      <trkpt lat="48.63509" lon="8.32434">
        <ele>510.8</ele>
        <time>2020-07-25T10:27:46Z</time>
      </trkpt>
      <trkpt lat="48.63494" lon="8.32404">
        <ele>511.2</ele>
        <time>2020-07-25T10:27:52Z</time>
      </trkpt>
      <trkpt lat="48.63482" lon="8.32381">
        <ele>512</ele>
        <time>2020-07-25T10:27:57Z</time>
      </trkpt>
      <trkpt lat="48.63479" lon="8.32377">
        <ele>512.4</ele>
        <time>2020-07-25T10:27:58Z</time>
      </trkpt>
      <trkpt lat="48.63463" lon="8.32353">
        <ele>513</ele>
        <time>2020-07-25T10:28:04Z</time>
      </trkpt>
      <trkpt lat="48.63455" lon="8.32342">
        <ele>513.4</ele>
        <time>2020-07-25T10:28:07Z</time>
      </trkpt>
      <trkpt lat="48.63438" lon="8.32322">
        <ele>513.8</ele>
        <time>2020-07-25T10:28:13Z</time>
      </trkpt>
      <trkpt lat="48.63419" lon="8.32304">
        <ele>514.6</ele>
        <time>2020-07-25T10:28:19Z</time>
      </trkpt>
      <trkpt lat="48.63398" lon="8.32282">
        <ele>515.6</ele>
        <time>2020-07-25T10:28:26Z</time>
      </trkpt>
      <trkpt lat="48.63388" lon="8.32273">
        <ele>515.8</ele>
        <time>2020-07-25T10:28:29Z</time>
      </trkpt>
      <trkpt lat="48.6337" lon="8.32255">
        <ele>516.2</ele>
        <time>2020-07-25T10:28:35Z</time>
      </trkpt>
      <trkpt lat="48.63346" lon="8.3223">
        <ele>516.8</ele>
        <time>2020-07-25T10:28:43Z</time>
      </trkpt>
      <trkpt lat="48.63325" lon="8.32206">
        <ele>517.8</ele>
        <time>2020-07-25T10:28:50Z</time>
      </trkpt>
      <trkpt lat="48.63322" lon="8.32201">
        <ele>518</ele>
        <time>2020-07-25T10:28:51Z</time>
      </trkpt>
      <trkpt lat="48.63314" lon="8.32176">
        <ele>518.8</ele>
        <time>2020-07-25T10:28:56Z</time>
      </trkpt>
      <trkpt lat="48.63312" lon="8.32147">
        <ele>519.2</ele>
        <time>2020-07-25T10:29:01Z</time>
      </trkpt>
      <trkpt lat="48.63312" lon="8.32141">
        <ele>519.4</ele>
        <time>2020-07-25T10:29:02Z</time>
      </trkpt>
      <trkpt lat="48.63319" lon="8.32112">
        <ele>519.6</ele>
        <time>2020-07-25T10:29:08Z</time>
      </trkpt>
      <trkpt lat="48.6333" lon="8.32082">
        <ele>520.4</ele>
        <time>2020-07-25T10:29:14Z</time>
      </trkpt>
      <trkpt lat="48.63331" lon="8.32076">
        <ele>520.4</ele>
        <time>2020-07-25T10:29:15Z</time>
      </trkpt>
      <trkpt lat="48.63332" lon="8.32069">
        <ele>520.6</ele>
        <time>2020-07-25T10:29:16Z</time>
      </trkpt>
      <trkpt lat="48.63335" lon="8.32028">
        <ele>520.6</ele>
        <time>2020-07-25T10:29:22Z</time>
      </trkpt>
      <trkpt lat="48.63335" lon="8.32021">
        <ele>520.6</ele>
        <time>2020-07-25T10:29:23Z</time>
      </trkpt>
      <trkpt lat="48.63333" lon="8.31995">
        <ele>520.8</ele>
        <time>2020-07-25T10:29:27Z</time>
      </trkpt>
      <trkpt lat="48.63331" lon="8.31984">
        <ele>520.8</ele>
        <time>2020-07-25T10:29:29Z</time>
      </trkpt>
      <trkpt lat="48.63328" lon="8.31971">
        <ele>520.6</ele>
        <time>2020-07-25T10:29:31Z</time>
      </trkpt>
      <trkpt lat="48.63324" lon="8.31962">
        <ele>520.8</ele>
        <time>2020-07-25T10:29:33Z</time>
      </trkpt>
      <trkpt lat="48.63306" lon="8.31927">
        <ele>521</ele>
        <time>2020-07-25T10:29:40Z</time>
      </trkpt>
      <trkpt lat="48.63299" lon="8.31913">
        <ele>521.4</ele>
        <time>2020-07-25T10:29:43Z</time>
      </trkpt>
      <trkpt lat="48.63291" lon="8.31896">
        <ele>522.2</ele>
        <time>2020-07-25T10:29:46Z</time>
      </trkpt>
      <trkpt lat="48.63287" lon="8.31887">
        <ele>522.4</ele>
        <time>2020-07-25T10:29:48Z</time>
      </trkpt>
      <trkpt lat="48.63275" lon="8.31857">
        <ele>523.2</ele>
        <time>2020-07-25T10:29:54Z</time>
      </trkpt>
      <trkpt lat="48.6327" lon="8.31847">
        <ele>523.4</ele>
        <time>2020-07-25T10:29:56Z</time>
      </trkpt>
      <trkpt lat="48.63254" lon="8.31824">
        <ele>524.2</ele>
        <time>2020-07-25T10:30:02Z</time>
      </trkpt>
      <trkpt lat="48.63247" lon="8.31817">
        <ele>524.6</ele>
        <time>2020-07-25T10:30:04Z</time>
      </trkpt>
      <trkpt lat="48.63229" lon="8.31798">
        <ele>525</ele>
        <time>2020-07-25T10:30:10Z</time>
      </trkpt>
      <trkpt lat="48.63215" lon="8.31785">
        <ele>525.6</ele>
        <time>2020-07-25T10:30:15Z</time>
      </trkpt>
      <trkpt lat="48.63206" lon="8.31779">
        <ele>526</ele>
        <time>2020-07-25T10:30:18Z</time>
      </trkpt>
      <trkpt lat="48.63191" lon="8.3177">
        <ele>526.6</ele>
        <time>2020-07-25T10:30:23Z</time>
      </trkpt>
      <trkpt lat="48.63181" lon="8.31767">
        <ele>527.2</ele>
        <time>2020-07-25T10:30:26Z</time>
      </trkpt>
      <trkpt lat="48.6316" lon="8.31766">
        <ele>527.8</ele>
        <time>2020-07-25T10:30:32Z</time>
      </trkpt>
      <trkpt lat="48.63154" lon="8.31766">
        <ele>528</ele>
        <time>2020-07-25T10:30:34Z</time>
      </trkpt>
      <trkpt lat="48.63145" lon="8.31769">
        <ele>528.8</ele>
        <time>2020-07-25T10:30:37Z</time>
      </trkpt>
      <trkpt lat="48.63126" lon="8.31771">
        <ele>530</ele>
        <time>2020-07-25T10:30:43Z</time>
      </trkpt>
      <trkpt lat="48.6311" lon="8.3176">
        <ele>530.6</ele>
        <time>2020-07-25T10:30:48Z</time>
      </trkpt>
      <trkpt lat="48.63099" lon="8.31746">
        <ele>531</ele>
        <time>2020-07-25T10:30:53Z</time>
      </trkpt>
      <trkpt lat="48.63097" lon="8.31742">
        <ele>531.2</ele>
        <time>2020-07-25T10:30:54Z</time>
      </trkpt>
      <trkpt lat="48.63085" lon="8.31723">
        <ele>532.2</ele>
        <time>2020-07-25T10:31:00Z</time>
      </trkpt>
      <trkpt lat="48.63083" lon="8.31719">
        <ele>532.2</ele>
        <time>2020-07-25T10:31:01Z</time>
      </trkpt>
      <trkpt lat="48.63072" lon="8.31699">
        <ele>532.8</ele>
        <time>2020-07-25T10:31:06Z</time>
      </trkpt>
      <trkpt lat="48.63069" lon="8.31691">
        <ele>533.2</ele>
        <time>2020-07-25T10:31:08Z</time>
      </trkpt>
      <trkpt lat="48.63059" lon="8.31668">
        <ele>533.6</ele>
        <time>2020-07-25T10:31:14Z</time>
      </trkpt>
      <trkpt lat="48.63046" lon="8.31647">
        <ele>534.2</ele>
        <time>2020-07-25T10:31:20Z</time>
      </trkpt>
      <trkpt lat="48.63039" lon="8.31637">
        <ele>534.6</ele>
        <time>2020-07-25T10:31:23Z</time>
      </trkpt>
      <trkpt lat="48.63034" lon="8.3163">
        <ele>534.8</ele>
        <time>2020-07-25T10:31:25Z</time>
      </trkpt>
      <trkpt lat="48.63019" lon="8.31612">
        <ele>535.2</ele>
        <time>2020-07-25T10:31:31Z</time>
      </trkpt>
      <trkpt lat="48.63007" lon="8.31591">
        <ele>536</ele>
        <time>2020-07-25T10:31:37Z</time>
      </trkpt>
      <trkpt lat="48.62999" lon="8.31577">
        <ele>536.4</ele>
        <time>2020-07-25T10:31:41Z</time>
      </trkpt>
      <trkpt lat="48.62993" lon="8.31567">
        <ele>536.6</ele>
        <time>2020-07-25T10:31:44Z</time>
      </trkpt>
      <trkpt lat="48.62981" lon="8.31546">
        <ele>537.4</ele>
        <time>2020-07-25T10:31:50Z</time>
      </trkpt>
      <trkpt lat="48.62975" lon="8.31534">
        <ele>537.8</ele>
        <time>2020-07-25T10:31:53Z</time>
      </trkpt>
      <trkpt lat="48.62959" lon="8.31507">
        <ele>538.4</ele>
        <time>2020-07-25T10:32:01Z</time>
      </trkpt>
      <trkpt lat="48.62958" lon="8.31503">
        <ele>538.6</ele>
        <time>2020-07-25T10:32:02Z</time>
      </trkpt>
      <trkpt lat="48.62955" lon="8.31499">
        <ele>538.6</ele>
        <time>2020-07-25T10:32:03Z</time>
      </trkpt>
      <trkpt lat="48.62947" lon="8.31485">
        <ele>539.4</ele>
        <time>2020-07-25T10:32:09Z</time>
      </trkpt>
      <trkpt lat="48.62946" lon="8.31482">
        <ele>539.6</ele>
        <time>2020-07-25T10:32:10Z</time>
      </trkpt>
      <trkpt lat="48.62945" lon="8.3148">
        <ele>539.8</ele>
        <time>2020-07-25T10:32:12Z</time>
      </trkpt>
      <trkpt lat="48.62945" lon="8.31479">
        <ele>540.6</ele>
        <time>2020-07-25T10:32:15Z</time>
      </trkpt>
      <trkpt lat="48.62941" lon="8.31473">
        <ele>541.2</ele>
        <time>2020-07-25T10:32:23Z</time>
      </trkpt>
      <trkpt lat="48.62937" lon="8.31466">
        <ele>541.2</ele>
        <time>2020-07-25T10:32:25Z</time>
      </trkpt>
      <trkpt lat="48.62919" lon="8.31436">
        <ele>541.2</ele>
        <time>2020-07-25T10:32:33Z</time>
      </trkpt>
      <trkpt lat="48.62912" lon="8.31428">
        <ele>541.2</ele>
        <time>2020-07-25T10:32:35Z</time>
      </trkpt>
      <trkpt lat="48.629" lon="8.3141">
        <ele>541.8</ele>
        <time>2020-07-25T10:32:40Z</time>
      </trkpt>
      <trkpt lat="48.62892" lon="8.31399">
        <ele>542.4</ele>
        <time>2020-07-25T10:32:43Z</time>
      </trkpt>
      <trkpt lat="48.6288" lon="8.31381">
        <ele>543</ele>
        <time>2020-07-25T10:32:48Z</time>
      </trkpt>
      <trkpt lat="48.62875" lon="8.31372">
        <ele>543.4</ele>
        <time>2020-07-25T10:32:50Z</time>
      </trkpt>
      <trkpt lat="48.62865" lon="8.31346">
        <ele>543.6</ele>
        <time>2020-07-25T10:32:56Z</time>
      </trkpt>
      <trkpt lat="48.6286" lon="8.31326">
        <ele>544.4</ele>
        <time>2020-07-25T10:33:00Z</time>
      </trkpt>
      <trkpt lat="48.62859" lon="8.3132">
        <ele>544.4</ele>
        <time>2020-07-25T10:33:01Z</time>
      </trkpt>
      <trkpt lat="48.62858" lon="8.31311">
        <ele>545</ele>
        <time>2020-07-25T10:33:03Z</time>
      </trkpt>
      <trkpt lat="48.62858" lon="8.31301">
        <ele>545.4</ele>
        <time>2020-07-25T10:33:06Z</time>
      </trkpt>
      <trkpt lat="48.62861" lon="8.3127">
        <ele>546</ele>
        <time>2020-07-25T10:33:11Z</time>
      </trkpt>
      <trkpt lat="48.62861" lon="8.31265">
        <ele>546.4</ele>
        <time>2020-07-25T10:33:12Z</time>
      </trkpt>
      <trkpt lat="48.62867" lon="8.31235">
        <ele>547.4</ele>
        <time>2020-07-25T10:33:18Z</time>
      </trkpt>
      <trkpt lat="48.62867" lon="8.31235">
        <ele>547.4</ele>
        <time>2020-07-25T10:33:19Z</time>
      </trkpt>
      <trkpt lat="48.62875" lon="8.31203">
        <ele>548.2</ele>
        <time>2020-07-25T10:33:25Z</time>
      </trkpt>
      <trkpt lat="48.62879" lon="8.31183">
        <ele>548.6</ele>
        <time>2020-07-25T10:33:29Z</time>
      </trkpt>
      <trkpt lat="48.62881" lon="8.31146">
        <ele>549.2</ele>
        <time>2020-07-25T10:33:36Z</time>
      </trkpt>
      <trkpt lat="48.62881" lon="8.31126">
        <ele>549.6</ele>
        <time>2020-07-25T10:33:40Z</time>
      </trkpt>
      <trkpt lat="48.62881" lon="8.31095">
        <ele>550.4</ele>
        <time>2020-07-25T10:33:46Z</time>
      </trkpt>
      <trkpt lat="48.62879" lon="8.31069">
        <ele>551</ele>
        <time>2020-07-25T10:33:51Z</time>
      </trkpt>
      <trkpt lat="48.62877" lon="8.31059">
        <ele>551.4</ele>
        <time>2020-07-25T10:33:53Z</time>
      </trkpt>
      <trkpt lat="48.62872" lon="8.3104">
        <ele>552</ele>
        <time>2020-07-25T10:33:57Z</time>
      </trkpt>
      <trkpt lat="48.62867" lon="8.31026">
        <ele>552.4</ele>
        <time>2020-07-25T10:34:00Z</time>
      </trkpt>
      <trkpt lat="48.62858" lon="8.31006">
        <ele>553</ele>
        <time>2020-07-25T10:34:05Z</time>
      </trkpt>
      <trkpt lat="48.62853" lon="8.30994">
        <ele>553.6</ele>
        <time>2020-07-25T10:34:08Z</time>
      </trkpt>
      <trkpt lat="48.62842" lon="8.30968">
        <ele>553.8</ele>
        <time>2020-07-25T10:34:15Z</time>
      </trkpt>
      <trkpt lat="48.6284" lon="8.30964">
        <ele>554</ele>
        <time>2020-07-25T10:34:16Z</time>
      </trkpt>
      <trkpt lat="48.62826" lon="8.30934">
        <ele>554.4</ele>
        <time>2020-07-25T10:34:24Z</time>
      </trkpt>
      <trkpt lat="48.62817" lon="8.30914">
        <ele>555.2</ele>
        <time>2020-07-25T10:34:29Z</time>
      </trkpt>
      <trkpt lat="48.62812" lon="8.30903">
        <ele>555.8</ele>
        <time>2020-07-25T10:34:32Z</time>
      </trkpt>
      <trkpt lat="48.62808" lon="8.30896">
        <ele>556.4</ele>
        <time>2020-07-25T10:34:34Z</time>
      </trkpt>
      <trkpt lat="48.62798" lon="8.30873">
        <ele>557.6</ele>
        <time>2020-07-25T10:34:40Z</time>
      </trkpt>
      <trkpt lat="48.62792" lon="8.30863">
        <ele>558</ele>
        <time>2020-07-25T10:34:43Z</time>
      </trkpt>
      <trkpt lat="48.62783" lon="8.30844">
        <ele>558.6</ele>
        <time>2020-07-25T10:34:48Z</time>
      </trkpt>
      <trkpt lat="48.62777" lon="8.30822">
        <ele>559.4</ele>
        <time>2020-07-25T10:34:53Z</time>
      </trkpt>
      <trkpt lat="48.62776" lon="8.30818">
        <ele>559.6</ele>
        <time>2020-07-25T10:34:54Z</time>
      </trkpt>
      <trkpt lat="48.62768" lon="8.30787">
        <ele>560.6</ele>
        <time>2020-07-25T10:35:01Z</time>
      </trkpt>
      <trkpt lat="48.62767" lon="8.30783">
        <ele>560.8</ele>
        <time>2020-07-25T10:35:02Z</time>
      </trkpt>
      <trkpt lat="48.62762" lon="8.30758">
        <ele>561.8</ele>
        <time>2020-07-25T10:35:08Z</time>
      </trkpt>
      <trkpt lat="48.62761" lon="8.30753">
        <ele>561.6</ele>
        <time>2020-07-25T10:35:09Z</time>
      </trkpt>
      <trkpt lat="48.62756" lon="8.30723">
        <ele>562.6</ele>
        <time>2020-07-25T10:35:16Z</time>
      </trkpt>
      <trkpt lat="48.62753" lon="8.30706">
        <ele>563.2</ele>
        <time>2020-07-25T10:35:20Z</time>
      </trkpt>
      <trkpt lat="48.62752" lon="8.30701">
        <ele>563.2</ele>
        <time>2020-07-25T10:35:21Z</time>
      </trkpt>
      <trkpt lat="48.6275" lon="8.30683">
        <ele>563.8</ele>
        <time>2020-07-25T10:35:25Z</time>
      </trkpt>
      <trkpt lat="48.62748" lon="8.30665">
        <ele>564</ele>
        <time>2020-07-25T10:35:29Z</time>
      </trkpt>
      <trkpt lat="48.62745" lon="8.3064">
        <ele>564.8</ele>
        <time>2020-07-25T10:35:35Z</time>
      </trkpt>
      <trkpt lat="48.62742" lon="8.30623">
        <ele>565.4</ele>
        <time>2020-07-25T10:35:40Z</time>
      </trkpt>
      <trkpt lat="48.6274" lon="8.30616">
        <ele>565.8</ele>
        <time>2020-07-25T10:35:42Z</time>
      </trkpt>
      <trkpt lat="48.62738" lon="8.306">
        <ele>566.4</ele>
        <time>2020-07-25T10:35:47Z</time>
      </trkpt>
      <trkpt lat="48.62736" lon="8.3059">
        <ele>567</ele>
        <time>2020-07-25T10:35:52Z</time>
      </trkpt>
      <trkpt lat="48.62736" lon="8.3059">
        <ele>567</ele>
        <time>2020-07-25T10:35:53Z</time>
      </trkpt>
      <trkpt lat="48.62735" lon="8.30585">
        <ele>567.4</ele>
        <time>2020-07-25T10:37:23Z</time>
      </trkpt>
      <trkpt lat="48.62733" lon="8.30573">
        <ele>567.6</ele>
        <time>2020-07-25T10:37:26Z</time>
      </trkpt>
      <trkpt lat="48.62729" lon="8.30549">
        <ele>567.6</ele>
        <time>2020-07-25T10:37:31Z</time>
      </trkpt>
      <trkpt lat="48.62725" lon="8.30522">
        <ele>567.6</ele>
        <time>2020-07-25T10:37:37Z</time>
      </trkpt>
      <trkpt lat="48.62724" lon="8.30517">
        <ele>567.8</ele>
        <time>2020-07-25T10:37:38Z</time>
      </trkpt>
      <trkpt lat="48.62714" lon="8.30482">
        <ele>568.2</ele>
        <time>2020-07-25T10:37:45Z</time>
      </trkpt>
      <trkpt lat="48.62707" lon="8.30465">
        <ele>569</ele>
        <time>2020-07-25T10:37:49Z</time>
      </trkpt>
      <trkpt lat="48.62701" lon="8.30453">
        <ele>569.6</ele>
        <time>2020-07-25T10:37:52Z</time>
      </trkpt>
      <trkpt lat="48.62694" lon="8.30439">
        <ele>570.2</ele>
        <time>2020-07-25T10:37:56Z</time>
      </trkpt>
      <trkpt lat="48.62685" lon="8.30424">
        <ele>571.2</ele>
        <time>2020-07-25T10:38:01Z</time>
      </trkpt>
      <trkpt lat="48.62668" lon="8.304">
        <ele>572.2</ele>
        <time>2020-07-25T10:38:09Z</time>
      </trkpt>
      <trkpt lat="48.62648" lon="8.30374">
        <ele>572.8</ele>
        <time>2020-07-25T10:38:17Z</time>
      </trkpt>
      <trkpt lat="48.62633" lon="8.30364">
        <ele>573.2</ele>
        <time>2020-07-25T10:38:22Z</time>
      </trkpt>
      <trkpt lat="48.62627" lon="8.3036">
        <ele>573.6</ele>
        <time>2020-07-25T10:38:24Z</time>
      </trkpt>
      <trkpt lat="48.62606" lon="8.30347">
        <ele>574.2</ele>
        <time>2020-07-25T10:38:31Z</time>
      </trkpt>
      <trkpt lat="48.62601" lon="8.30342">
        <ele>574.4</ele>
        <time>2020-07-25T10:38:33Z</time>
      </trkpt>
      <trkpt lat="48.62587" lon="8.30326">
        <ele>575.2</ele>
        <time>2020-07-25T10:38:38Z</time>
      </trkpt>
      <trkpt lat="48.62583" lon="8.30317">
        <ele>575.4</ele>
        <time>2020-07-25T10:38:40Z</time>
      </trkpt>
      <trkpt lat="48.6257" lon="8.30282">
        <ele>576.2</ele>
        <time>2020-07-25T10:38:48Z</time>
      </trkpt>
      <trkpt lat="48.62562" lon="8.30244">
        <ele>576.8</ele>
        <time>2020-07-25T10:38:56Z</time>
      </trkpt>
      <trkpt lat="48.62559" lon="8.30229">
        <ele>577.2</ele>
        <time>2020-07-25T10:38:59Z</time>
      </trkpt>
      <trkpt lat="48.62555" lon="8.302">
        <ele>577.8</ele>
        <time>2020-07-25T10:39:05Z</time>
      </trkpt>
      <trkpt lat="48.62553" lon="8.30186">
        <ele>578.2</ele>
        <time>2020-07-25T10:39:08Z</time>
      </trkpt>
      <trkpt lat="48.6255" lon="8.30164">
        <ele>578.8</ele>
        <time>2020-07-25T10:39:13Z</time>
      </trkpt>
      <trkpt lat="48.62547" lon="8.30146">
        <ele>579.4</ele>
        <time>2020-07-25T10:39:17Z</time>
      </trkpt>
      <trkpt lat="48.62545" lon="8.30132">
        <ele>579.6</ele>
        <time>2020-07-25T10:39:20Z</time>
      </trkpt>
      <trkpt lat="48.6254" lon="8.30103">
        <ele>580.4</ele>
        <time>2020-07-25T10:39:26Z</time>
      </trkpt>
      <trkpt lat="48.62538" lon="8.30094">
        <ele>580.4</ele>
        <time>2020-07-25T10:39:28Z</time>
      </trkpt>
      <trkpt lat="48.62529" lon="8.30064">
        <ele>581</ele>
        <time>2020-07-25T10:39:34Z</time>
      </trkpt>
      <trkpt lat="48.62523" lon="8.30045">
        <ele>581.6</ele>
        <time>2020-07-25T10:39:38Z</time>
      </trkpt>
      <trkpt lat="48.62514" lon="8.30023">
        <ele>582</ele>
        <time>2020-07-25T10:39:43Z</time>
      </trkpt>
      <trkpt lat="48.62506" lon="8.30007">
        <ele>582.6</ele>
        <time>2020-07-25T10:39:47Z</time>
      </trkpt>
      <trkpt lat="48.62491" lon="8.29986">
        <ele>583.6</ele>
        <time>2020-07-25T10:39:53Z</time>
      </trkpt>
      <trkpt lat="48.62488" lon="8.29982">
        <ele>583.8</ele>
        <time>2020-07-25T10:39:54Z</time>
      </trkpt>
      <trkpt lat="48.62476" lon="8.2997">
        <ele>584.6</ele>
        <time>2020-07-25T10:39:58Z</time>
      </trkpt>
      <trkpt lat="48.62462" lon="8.29957">
        <ele>585.2</ele>
        <time>2020-07-25T10:40:03Z</time>
      </trkpt>
      <trkpt lat="48.62449" lon="8.29941">
        <ele>585.8</ele>
        <time>2020-07-25T10:40:08Z</time>
      </trkpt>
      <trkpt lat="48.62444" lon="8.29932">
        <ele>586.2</ele>
        <time>2020-07-25T10:40:10Z</time>
      </trkpt>
      <trkpt lat="48.62427" lon="8.29897">
        <ele>587</ele>
        <time>2020-07-25T10:40:19Z</time>
      </trkpt>
      <trkpt lat="48.62422" lon="8.29885">
        <ele>587.4</ele>
        <time>2020-07-25T10:40:22Z</time>
      </trkpt>
      <trkpt lat="48.62408" lon="8.29864">
        <ele>588</ele>
        <time>2020-07-25T10:40:28Z</time>
      </trkpt>
      <trkpt lat="48.62403" lon="8.29857">
        <ele>588.2</ele>
        <time>2020-07-25T10:40:30Z</time>
      </trkpt>
      <trkpt lat="48.62387" lon="8.29832">
        <ele>589.2</ele>
        <time>2020-07-25T10:40:37Z</time>
      </trkpt>
      <trkpt lat="48.62378" lon="8.29818">
        <ele>589.6</ele>
        <time>2020-07-25T10:40:41Z</time>
      </trkpt>
      <trkpt lat="48.62363" lon="8.29794">
        <ele>590.2</ele>
        <time>2020-07-25T10:40:49Z</time>
      </trkpt>
      <trkpt lat="48.62354" lon="8.29779">
        <ele>590.4</ele>
        <time>2020-07-25T10:40:52Z</time>
      </trkpt>
      <trkpt lat="48.62334" lon="8.29752">
        <ele>591.2</ele>
        <time>2020-07-25T10:41:00Z</time>
      </trkpt>
      <trkpt lat="48.62332" lon="8.29749">
        <ele>591.2</ele>
        <time>2020-07-25T10:41:01Z</time>
      </trkpt>
      <trkpt lat="48.62308" lon="8.29723">
        <ele>592</ele>
        <time>2020-07-25T10:41:10Z</time>
      </trkpt>
      <trkpt lat="48.62301" lon="8.29715">
        <ele>592.2</ele>
        <time>2020-07-25T10:41:13Z</time>
      </trkpt>
      <trkpt lat="48.6228" lon="8.29692">
        <ele>592.8</ele>
        <time>2020-07-25T10:41:21Z</time>
      </trkpt>
      <trkpt lat="48.62277" lon="8.29689">
        <ele>593.2</ele>
        <time>2020-07-25T10:41:22Z</time>
      </trkpt>
      <trkpt lat="48.62263" lon="8.29664">
        <ele>594.4</ele>
        <time>2020-07-25T10:41:28Z</time>
      </trkpt>
      <trkpt lat="48.62257" lon="8.29653">
        <ele>594.8</ele>
        <time>2020-07-25T10:41:32Z</time>
      </trkpt>
      <trkpt lat="48.62251" lon="8.2964">
        <ele>595.2</ele>
        <time>2020-07-25T10:41:34Z</time>
      </trkpt>
      <trkpt lat="48.62242" lon="8.29617">
        <ele>596.4</ele>
        <time>2020-07-25T10:41:39Z</time>
      </trkpt>
      <trkpt lat="48.62235" lon="8.29598">
        <ele>597</ele>
        <time>2020-07-25T10:41:43Z</time>
      </trkpt>
      <trkpt lat="48.62232" lon="8.29588">
        <ele>597.4</ele>
        <time>2020-07-25T10:41:45Z</time>
      </trkpt>
      <trkpt lat="48.62225" lon="8.29564">
        <ele>597.8</ele>
        <time>2020-07-25T10:41:51Z</time>
      </trkpt>
      <trkpt lat="48.62222" lon="8.29554">
        <ele>597.8</ele>
        <time>2020-07-25T10:41:52Z</time>
      </trkpt>
      <trkpt lat="48.6221" lon="8.29528">
        <ele>598.2</ele>
        <time>2020-07-25T10:41:58Z</time>
      </trkpt>
      <trkpt lat="48.62201" lon="8.29512">
        <ele>598.4</ele>
        <time>2020-07-25T10:42:02Z</time>
      </trkpt>
      <trkpt lat="48.6219" lon="8.295">
        <ele>598.4</ele>
        <time>2020-07-25T10:42:06Z</time>
      </trkpt>
      <trkpt lat="48.6217" lon="8.29483">
        <ele>599.4</ele>
        <time>2020-07-25T10:42:13Z</time>
      </trkpt>
      <trkpt lat="48.62166" lon="8.2948">
        <ele>599.6</ele>
        <time>2020-07-25T10:42:14Z</time>
      </trkpt>
      <trkpt lat="48.62158" lon="8.29475">
        <ele>600</ele>
        <time>2020-07-25T10:42:17Z</time>
      </trkpt>
      <trkpt lat="48.62142" lon="8.29467">
        <ele>600.4</ele>
        <time>2020-07-25T10:42:22Z</time>
      </trkpt>
      <trkpt lat="48.62135" lon="8.29464">
        <ele>600.4</ele>
        <time>2020-07-25T10:42:24Z</time>
      </trkpt>
      <trkpt lat="48.62117" lon="8.29457">
        <ele>600.8</ele>
        <time>2020-07-25T10:42:30Z</time>
      </trkpt>
      <trkpt lat="48.62107" lon="8.29454">
        <ele>601.4</ele>
        <time>2020-07-25T10:42:33Z</time>
      </trkpt>
      <trkpt lat="48.62094" lon="8.29452">
        <ele>602</ele>
        <time>2020-07-25T10:42:37Z</time>
      </trkpt>
      <trkpt lat="48.62091" lon="8.2945">
        <ele>602</ele>
        <time>2020-07-25T10:42:38Z</time>
      </trkpt>
      <trkpt lat="48.62078" lon="8.29447">
        <ele>602.4</ele>
        <time>2020-07-25T10:42:42Z</time>
      </trkpt>
      <trkpt lat="48.62062" lon="8.29443">
        <ele>603.2</ele>
        <time>2020-07-25T10:42:47Z</time>
      </trkpt>
      <trkpt lat="48.62059" lon="8.29442">
        <ele>603.6</ele>
        <time>2020-07-25T10:42:48Z</time>
      </trkpt>
      <trkpt lat="48.62032" lon="8.29432">
        <ele>604.8</ele>
        <time>2020-07-25T10:42:56Z</time>
      </trkpt>
      <trkpt lat="48.62029" lon="8.2943">
        <ele>605</ele>
        <time>2020-07-25T10:42:57Z</time>
      </trkpt>
      <trkpt lat="48.62009" lon="8.29423">
        <ele>605.6</ele>
        <time>2020-07-25T10:43:03Z</time>
      </trkpt>
      <trkpt lat="48.62006" lon="8.29422">
        <ele>605.8</ele>
        <time>2020-07-25T10:43:04Z</time>
      </trkpt>
      <trkpt lat="48.61986" lon="8.29414">
        <ele>606.6</ele>
        <time>2020-07-25T10:43:10Z</time>
      </trkpt>
      <trkpt lat="48.61973" lon="8.29409">
        <ele>607</ele>
        <time>2020-07-25T10:43:14Z</time>
      </trkpt>
      <trkpt lat="48.61954" lon="8.294">
        <ele>607.8</ele>
        <time>2020-07-25T10:43:20Z</time>
      </trkpt>
      <trkpt lat="48.61951" lon="8.29398">
        <ele>607.8</ele>
        <time>2020-07-25T10:43:21Z</time>
      </trkpt>
      <trkpt lat="48.61931" lon="8.29391">
        <ele>608.6</ele>
        <time>2020-07-25T10:43:27Z</time>
      </trkpt>
      <trkpt lat="48.61914" lon="8.29392">
        <ele>608.8</ele>
        <time>2020-07-25T10:43:32Z</time>
      </trkpt>
      <trkpt lat="48.61909" lon="8.29394">
        <ele>609.2</ele>
        <time>2020-07-25T10:43:34Z</time>
      </trkpt>
      <trkpt lat="48.61886" lon="8.29405">
        <ele>609.8</ele>
        <time>2020-07-25T10:43:41Z</time>
      </trkpt>
      <trkpt lat="48.61877" lon="8.29408">
        <ele>610.4</ele>
        <time>2020-07-25T10:43:44Z</time>
      </trkpt>
      <trkpt lat="48.61871" lon="8.29407">
        <ele>610.6</ele>
        <time>2020-07-25T10:43:46Z</time>
      </trkpt>
      <trkpt lat="48.6186" lon="8.29398">
        <ele>611</ele>
        <time>2020-07-25T10:43:50Z</time>
      </trkpt>
      <trkpt lat="48.61855" lon="8.29391">
        <ele>611.4</ele>
        <time>2020-07-25T10:43:52Z</time>
      </trkpt>
      <trkpt lat="48.61846" lon="8.29369">
        <ele>612</ele>
        <time>2020-07-25T10:43:57Z</time>
      </trkpt>
      <trkpt lat="48.61845" lon="8.29364">
        <ele>612.2</ele>
        <time>2020-07-25T10:43:58Z</time>
      </trkpt>
      <trkpt lat="48.61841" lon="8.29338">
        <ele>613</ele>
        <time>2020-07-25T10:44:03Z</time>
      </trkpt>
      <trkpt lat="48.61842" lon="8.29333">
        <ele>613.2</ele>
        <time>2020-07-25T10:44:04Z</time>
      </trkpt>
      <trkpt lat="48.61848" lon="8.29295">
        <ele>613.4</ele>
        <time>2020-07-25T10:44:11Z</time>
      </trkpt>
      <trkpt lat="48.61845" lon="8.29251">
        <ele>613.6</ele>
        <time>2020-07-25T10:44:19Z</time>
      </trkpt>
      <trkpt lat="48.61845" lon="8.29226">
        <ele>613.6</ele>
        <time>2020-07-25T10:44:25Z</time>
      </trkpt>
      <trkpt lat="48.61846" lon="8.2921">
        <ele>613.8</ele>
        <time>2020-07-25T10:44:31Z</time>
      </trkpt>
      <trkpt lat="48.61849" lon="8.29192">
        <ele>613.8</ele>
        <time>2020-07-25T10:44:38Z</time>
      </trkpt>
      <trkpt lat="48.61851" lon="8.2918">
        <ele>614</ele>
        <time>2020-07-25T10:44:43Z</time>
      </trkpt>
      <trkpt lat="48.61852" lon="8.29173">
        <ele>614</ele>
        <time>2020-07-25T10:45:10Z</time>
      </trkpt>
      <trkpt lat="48.61854" lon="8.29164">
        <ele>614</ele>
        <time>2020-07-25T10:45:12Z</time>
      </trkpt>
      <trkpt lat="48.61861" lon="8.2913">
        <ele>614</ele>
        <time>2020-07-25T10:45:18Z</time>
      </trkpt>
      <trkpt lat="48.61867" lon="8.29092">
        <ele>613.6</ele>
        <time>2020-07-25T10:45:24Z</time>
      </trkpt>
      <trkpt lat="48.61868" lon="8.29077">
        <ele>613.6</ele>
        <time>2020-07-25T10:45:26Z</time>
      </trkpt>
      <trkpt lat="48.61867" lon="8.29041">
        <ele>613.4</ele>
        <time>2020-07-25T10:45:31Z</time>
      </trkpt>
      <trkpt lat="48.61864" lon="8.29018">
        <ele>613.4</ele>
        <time>2020-07-25T10:45:34Z</time>
      </trkpt>
      <trkpt lat="48.61861" lon="8.28998">
        <ele>613.2</ele>
        <time>2020-07-25T10:45:37Z</time>
      </trkpt>
      <trkpt lat="48.6185" lon="8.2895">
        <ele>613.6</ele>
        <time>2020-07-25T10:45:44Z</time>
      </trkpt>
      <trkpt lat="48.61842" lon="8.28923">
        <ele>613.6</ele>
        <time>2020-07-25T10:45:48Z</time>
      </trkpt>
      <trkpt lat="48.61828" lon="8.28886">
        <ele>613.4</ele>
        <time>2020-07-25T10:45:54Z</time>
      </trkpt>
      <trkpt lat="48.61825" lon="8.2888">
        <ele>613.6</ele>
        <time>2020-07-25T10:45:55Z</time>
      </trkpt>
      <trkpt lat="48.61808" lon="8.28853">
        <ele>613.8</ele>
        <time>2020-07-25T10:46:00Z</time>
      </trkpt>
      <trkpt lat="48.61796" lon="8.28841">
        <ele>613.8</ele>
        <time>2020-07-25T10:46:03Z</time>
      </trkpt>
      <trkpt lat="48.6178" lon="8.28826">
        <ele>614</ele>
        <time>2020-07-25T10:46:07Z</time>
      </trkpt>
      <trkpt lat="48.61747" lon="8.28791">
        <ele>614.8</ele>
        <time>2020-07-25T10:46:16Z</time>
      </trkpt>
      <trkpt lat="48.61738" lon="8.28781">
        <ele>614.8</ele>
        <time>2020-07-25T10:46:19Z</time>
      </trkpt>
      <trkpt lat="48.61736" lon="8.28777">
        <ele>615</ele>
        <time>2020-07-25T10:46:21Z</time>
      </trkpt>
      <trkpt lat="48.61735" lon="8.28776">
        <ele>615.2</ele>
        <time>2020-07-25T10:46:24Z</time>
      </trkpt>
      <trkpt lat="48.61729" lon="8.28774">
        <ele>616</ele>
        <time>2020-07-25T10:47:45Z</time>
      </trkpt>
      <trkpt lat="48.61713" lon="8.28779">
        <ele>616</ele>
        <time>2020-07-25T10:47:50Z</time>
      </trkpt>
      <trkpt lat="48.61695" lon="8.28785">
        <ele>616</ele>
        <time>2020-07-25T10:47:56Z</time>
      </trkpt>
      <trkpt lat="48.6167" lon="8.28791">
        <ele>617</ele>
        <time>2020-07-25T10:48:03Z</time>
      </trkpt>
      <trkpt lat="48.61659" lon="8.2879">
        <ele>617.6</ele>
        <time>2020-07-25T10:48:06Z</time>
      </trkpt>
      <trkpt lat="48.61652" lon="8.2879">
        <ele>618.2</ele>
        <time>2020-07-25T10:48:08Z</time>
      </trkpt>
      <trkpt lat="48.61641" lon="8.28787">
        <ele>618.6</ele>
        <time>2020-07-25T10:48:12Z</time>
      </trkpt>
      <trkpt lat="48.61632" lon="8.28783">
        <ele>619.4</ele>
        <time>2020-07-25T10:48:15Z</time>
      </trkpt>
      <trkpt lat="48.61618" lon="8.28777">
        <ele>620</ele>
        <time>2020-07-25T10:48:20Z</time>
      </trkpt>
      <trkpt lat="48.61611" lon="8.28774">
        <ele>620.4</ele>
        <time>2020-07-25T10:48:23Z</time>
      </trkpt>
      <trkpt lat="48.61606" lon="8.28773">
        <ele>620.6</ele>
        <time>2020-07-25T10:48:25Z</time>
      </trkpt>
      <trkpt lat="48.61601" lon="8.28772">
        <ele>620.8</ele>
        <time>2020-07-25T10:48:27Z</time>
      </trkpt>
      <trkpt lat="48.61596" lon="8.28771">
        <ele>621</ele>
        <time>2020-07-25T10:48:29Z</time>
      </trkpt>
      <trkpt lat="48.61589" lon="8.28768">
        <ele>621.4</ele>
        <time>2020-07-25T10:48:32Z</time>
      </trkpt>
      <trkpt lat="48.61583" lon="8.28766">
        <ele>622.6</ele>
        <time>2020-07-25T10:48:35Z</time>
      </trkpt>
      <trkpt lat="48.61576" lon="8.28765">
        <ele>623.6</ele>
        <time>2020-07-25T10:48:38Z</time>
      </trkpt>
      <trkpt lat="48.61568" lon="8.28763">
        <ele>624</ele>
        <time>2020-07-25T10:48:41Z</time>
      </trkpt>
      <trkpt lat="48.6156" lon="8.28761">
        <ele>624.2</ele>
        <time>2020-07-25T10:48:45Z</time>
      </trkpt>
      <trkpt lat="48.61545" lon="8.28758">
        <ele>624.8</ele>
        <time>2020-07-25T10:48:51Z</time>
      </trkpt>
      <trkpt lat="48.61533" lon="8.28747">
        <ele>625.4</ele>
        <time>2020-07-25T10:48:57Z</time>
      </trkpt>
      <trkpt lat="48.61532" lon="8.28743">
        <ele>625.8</ele>
        <time>2020-07-25T10:48:58Z</time>
      </trkpt>
      <trkpt lat="48.61522" lon="8.28718">
        <ele>626.4</ele>
        <time>2020-07-25T10:49:05Z</time>
      </trkpt>
      <trkpt lat="48.61521" lon="8.28711">
        <ele>627</ele>
        <time>2020-07-25T10:49:07Z</time>
      </trkpt>
      <trkpt lat="48.61517" lon="8.28703">
        <ele>627.4</ele>
        <time>2020-07-25T10:49:10Z</time>
      </trkpt>
      <trkpt lat="48.6151" lon="8.28688">
        <ele>628</ele>
        <time>2020-07-25T10:49:15Z</time>
      </trkpt>
      <trkpt lat="48.61506" lon="8.28683">
        <ele>628.4</ele>
        <time>2020-07-25T10:49:17Z</time>
      </trkpt>
      <trkpt lat="48.61496" lon="8.28666">
        <ele>629.2</ele>
        <time>2020-07-25T10:49:23Z</time>
      </trkpt>
      <trkpt lat="48.61494" lon="8.28664">
        <ele>629.2</ele>
        <time>2020-07-25T10:49:24Z</time>
      </trkpt>
      <trkpt lat="48.61486" lon="8.28656">
        <ele>629.6</ele>
        <time>2020-07-25T10:49:28Z</time>
      </trkpt>
      <trkpt lat="48.61484" lon="8.28654">
        <ele>629.8</ele>
        <time>2020-07-25T10:49:29Z</time>
      </trkpt>
      <trkpt lat="48.6148" lon="8.2865">
        <ele>630.2</ele>
        <time>2020-07-25T10:49:31Z</time>
      </trkpt>
      <trkpt lat="48.61471" lon="8.28638">
        <ele>630.8</ele>
        <time>2020-07-25T10:49:36Z</time>
      </trkpt>
      <trkpt lat="48.61463" lon="8.28629">
        <ele>631.2</ele>
        <time>2020-07-25T10:49:40Z</time>
      </trkpt>
      <trkpt lat="48.61461" lon="8.28627">
        <ele>631.4</ele>
        <time>2020-07-25T10:49:41Z</time>
      </trkpt>
      <trkpt lat="48.61453" lon="8.28618">
        <ele>632.4</ele>
        <time>2020-07-25T10:49:45Z</time>
      </trkpt>
      <trkpt lat="48.61446" lon="8.28611">
        <ele>632.6</ele>
        <time>2020-07-25T10:49:49Z</time>
      </trkpt>
      <trkpt lat="48.61435" lon="8.28604">
        <ele>633.4</ele>
        <time>2020-07-25T10:49:54Z</time>
      </trkpt>
      <trkpt lat="48.61433" lon="8.28602">
        <ele>633.4</ele>
        <time>2020-07-25T10:49:55Z</time>
      </trkpt>
      <trkpt lat="48.61419" lon="8.28589">
        <ele>634.4</ele>
        <time>2020-07-25T10:50:01Z</time>
      </trkpt>
      <trkpt lat="48.61406" lon="8.28574">
        <ele>635.4</ele>
        <time>2020-07-25T10:50:07Z</time>
      </trkpt>
      <trkpt lat="48.61404" lon="8.28571">
        <ele>635.6</ele>
        <time>2020-07-25T10:50:08Z</time>
      </trkpt>
      <trkpt lat="48.6139" lon="8.28555">
        <ele>636.4</ele>
        <time>2020-07-25T10:50:14Z</time>
      </trkpt>
      <trkpt lat="48.61386" lon="8.2855">
        <ele>636.8</ele>
        <time>2020-07-25T10:50:16Z</time>
      </trkpt>
      <trkpt lat="48.61371" lon="8.28531">
        <ele>637.6</ele>
        <time>2020-07-25T10:50:22Z</time>
      </trkpt>
      <trkpt lat="48.61369" lon="8.28526">
        <ele>637.6</ele>
        <time>2020-07-25T10:50:23Z</time>
      </trkpt>
      <trkpt lat="48.61364" lon="8.28515">
        <ele>638.2</ele>
        <time>2020-07-25T10:50:26Z</time>
      </trkpt>
      <trkpt lat="48.61359" lon="8.28506">
        <ele>638.6</ele>
        <time>2020-07-25T10:50:29Z</time>
      </trkpt>
      <trkpt lat="48.61352" lon="8.28487">
        <ele>639.8</ele>
        <time>2020-07-25T10:50:35Z</time>
      </trkpt>
      <trkpt lat="48.6135" lon="8.28481">
        <ele>640.2</ele>
        <time>2020-07-25T10:50:37Z</time>
      </trkpt>
      <trkpt lat="48.61342" lon="8.28469">
        <ele>641</ele>
        <time>2020-07-25T10:50:41Z</time>
      </trkpt>
      <trkpt lat="48.61336" lon="8.28461">
        <ele>641.4</ele>
        <time>2020-07-25T10:50:44Z</time>
      </trkpt>
      <trkpt lat="48.61322" lon="8.28448">
        <ele>642</ele>
        <time>2020-07-25T10:50:50Z</time>
      </trkpt>
      <trkpt lat="48.61315" lon="8.28442">
        <ele>642.8</ele>
        <time>2020-07-25T10:50:53Z</time>
      </trkpt>
      <trkpt lat="48.61313" lon="8.28439">
        <ele>643</ele>
        <time>2020-07-25T10:50:54Z</time>
      </trkpt>
      <trkpt lat="48.61301" lon="8.28428">
        <ele>643.6</ele>
        <time>2020-07-25T10:50:59Z</time>
      </trkpt>
      <trkpt lat="48.61293" lon="8.28419">
        <ele>644.2</ele>
        <time>2020-07-25T10:51:03Z</time>
      </trkpt>
      <trkpt lat="48.61289" lon="8.28415">
        <ele>644.4</ele>
        <time>2020-07-25T10:51:05Z</time>
      </trkpt>
      <trkpt lat="48.61282" lon="8.28405">
        <ele>645.4</ele>
        <time>2020-07-25T10:51:09Z</time>
      </trkpt>
      <trkpt lat="48.61279" lon="8.28403">
        <ele>645.4</ele>
        <time>2020-07-25T10:51:10Z</time>
      </trkpt>
      <trkpt lat="48.61271" lon="8.28394">
        <ele>646.4</ele>
        <time>2020-07-25T10:51:14Z</time>
      </trkpt>
      <trkpt lat="48.61268" lon="8.28389">
        <ele>646.4</ele>
        <time>2020-07-25T10:51:16Z</time>
      </trkpt>
      <trkpt lat="48.61256" lon="8.2837">
        <ele>647</ele>
        <time>2020-07-25T10:51:22Z</time>
      </trkpt>
      <trkpt lat="48.61252" lon="8.28365">
        <ele>647.4</ele>
        <time>2020-07-25T10:51:24Z</time>
      </trkpt>
      <trkpt lat="48.61238" lon="8.28345">
        <ele>648.4</ele>
        <time>2020-07-25T10:51:30Z</time>
      </trkpt>
      <trkpt lat="48.61236" lon="8.28341">
        <ele>648.6</ele>
        <time>2020-07-25T10:51:31Z</time>
      </trkpt>
      <trkpt lat="48.61229" lon="8.28331">
        <ele>648.8</ele>
        <time>2020-07-25T10:51:34Z</time>
      </trkpt>
      <trkpt lat="48.61219" lon="8.28315">
        <ele>649.4</ele>
        <time>2020-07-25T10:51:39Z</time>
      </trkpt>
      <trkpt lat="48.61217" lon="8.28312">
        <ele>649.6</ele>
        <time>2020-07-25T10:51:40Z</time>
      </trkpt>
      <trkpt lat="48.61209" lon="8.28297">
        <ele>650.2</ele>
        <time>2020-07-25T10:51:44Z</time>
      </trkpt>
      <trkpt lat="48.61202" lon="8.28285">
        <ele>651</ele>
        <time>2020-07-25T10:51:48Z</time>
      </trkpt>
      <trkpt lat="48.61193" lon="8.28273">
        <ele>651.4</ele>
        <time>2020-07-25T10:51:52Z</time>
      </trkpt>
      <trkpt lat="48.61186" lon="8.28262">
        <ele>652</ele>
        <time>2020-07-25T10:51:56Z</time>
      </trkpt>
      <trkpt lat="48.61177" lon="8.28254">
        <ele>653</ele>
        <time>2020-07-25T10:52:00Z</time>
      </trkpt>
      <trkpt lat="48.61175" lon="8.28251">
        <ele>653</ele>
        <time>2020-07-25T10:52:01Z</time>
      </trkpt>
      <trkpt lat="48.61158" lon="8.28235">
        <ele>654</ele>
        <time>2020-07-25T10:52:08Z</time>
      </trkpt>
      <trkpt lat="48.61156" lon="8.28233">
        <ele>654.2</ele>
        <time>2020-07-25T10:52:09Z</time>
      </trkpt>
      <trkpt lat="48.61146" lon="8.28225">
        <ele>654.8</ele>
        <time>2020-07-25T10:52:13Z</time>
      </trkpt>
      <trkpt lat="48.61143" lon="8.28224">
        <ele>654.8</ele>
        <time>2020-07-25T10:52:14Z</time>
      </trkpt>
      <trkpt lat="48.61136" lon="8.28221">
        <ele>655.2</ele>
        <time>2020-07-25T10:52:17Z</time>
      </trkpt>
      <trkpt lat="48.61127" lon="8.2822">
        <ele>655.8</ele>
        <time>2020-07-25T10:52:20Z</time>
      </trkpt>
      <trkpt lat="48.61118" lon="8.28218">
        <ele>656.4</ele>
        <time>2020-07-25T10:52:23Z</time>
      </trkpt>
      <trkpt lat="48.61105" lon="8.28214">
        <ele>657</ele>
        <time>2020-07-25T10:52:28Z</time>
      </trkpt>
      <trkpt lat="48.61097" lon="8.28213">
        <ele>657.4</ele>
        <time>2020-07-25T10:52:31Z</time>
      </trkpt>
      <trkpt lat="48.61088" lon="8.2821">
        <ele>657.8</ele>
        <time>2020-07-25T10:52:34Z</time>
      </trkpt>
      <trkpt lat="48.61076" lon="8.28205">
        <ele>658.4</ele>
        <time>2020-07-25T10:52:39Z</time>
      </trkpt>
      <trkpt lat="48.61073" lon="8.28204">
        <ele>658.6</ele>
        <time>2020-07-25T10:52:40Z</time>
      </trkpt>
      <trkpt lat="48.61055" lon="8.28203">
        <ele>659.4</ele>
        <time>2020-07-25T10:52:47Z</time>
      </trkpt>
      <trkpt lat="48.61048" lon="8.28206">
        <ele>659.6</ele>
        <time>2020-07-25T10:52:50Z</time>
      </trkpt>
      <trkpt lat="48.61042" lon="8.28209">
        <ele>659.8</ele>
        <time>2020-07-25T10:52:52Z</time>
      </trkpt>
      <trkpt lat="48.61032" lon="8.28217">
        <ele>660.6</ele>
        <time>2020-07-25T10:52:56Z</time>
      </trkpt>
      <trkpt lat="48.61026" lon="8.28223">
        <ele>661.2</ele>
        <time>2020-07-25T10:52:59Z</time>
      </trkpt>
      <trkpt lat="48.61016" lon="8.2823">
        <ele>661.8</ele>
        <time>2020-07-25T10:53:03Z</time>
      </trkpt>
      <trkpt lat="48.61011" lon="8.28231">
        <ele>662.2</ele>
        <time>2020-07-25T10:53:05Z</time>
      </trkpt>
      <trkpt lat="48.60997" lon="8.28226">
        <ele>662.8</ele>
        <time>2020-07-25T10:53:10Z</time>
      </trkpt>
      <trkpt lat="48.60995" lon="8.28224">
        <ele>662.8</ele>
        <time>2020-07-25T10:53:11Z</time>
      </trkpt>
      <trkpt lat="48.60987" lon="8.28204">
        <ele>663.6</ele>
        <time>2020-07-25T10:53:17Z</time>
      </trkpt>
      <trkpt lat="48.60986" lon="8.28196">
        <ele>663.8</ele>
        <time>2020-07-25T10:53:19Z</time>
      </trkpt>
      <trkpt lat="48.60987" lon="8.28182">
        <ele>664.6</ele>
        <time>2020-07-25T10:53:23Z</time>
      </trkpt>
      <trkpt lat="48.60987" lon="8.28178">
        <ele>664.8</ele>
        <time>2020-07-25T10:53:24Z</time>
      </trkpt>
      <trkpt lat="48.60988" lon="8.28174">
        <ele>665</ele>
        <time>2020-07-25T10:53:25Z</time>
      </trkpt>
      <trkpt lat="48.60988" lon="8.28166">
        <ele>665.4</ele>
        <time>2020-07-25T10:53:27Z</time>
      </trkpt>
      <trkpt lat="48.60988" lon="8.28155">
        <ele>666</ele>
        <time>2020-07-25T10:53:30Z</time>
      </trkpt>
      <trkpt lat="48.60987" lon="8.28147">
        <ele>666.4</ele>
        <time>2020-07-25T10:53:32Z</time>
      </trkpt>
      <trkpt lat="48.60982" lon="8.2813">
        <ele>667</ele>
        <time>2020-07-25T10:53:36Z</time>
      </trkpt>
      <trkpt lat="48.6098" lon="8.28126">
        <ele>667.4</ele>
        <time>2020-07-25T10:53:37Z</time>
      </trkpt>
      <trkpt lat="48.60967" lon="8.281">
        <ele>668</ele>
        <time>2020-07-25T10:53:44Z</time>
      </trkpt>
      <trkpt lat="48.60966" lon="8.28098">
        <ele>668.2</ele>
        <time>2020-07-25T10:53:45Z</time>
      </trkpt>
      <trkpt lat="48.60948" lon="8.28078">
        <ele>669.2</ele>
        <time>2020-07-25T10:53:53Z</time>
      </trkpt>
      <trkpt lat="48.60943" lon="8.28074">
        <ele>669.4</ele>
        <time>2020-07-25T10:53:55Z</time>
      </trkpt>
      <trkpt lat="48.60929" lon="8.28063">
        <ele>670</ele>
        <time>2020-07-25T10:54:01Z</time>
      </trkpt>
      <trkpt lat="48.60921" lon="8.28058">
        <ele>670.4</ele>
        <time>2020-07-25T10:54:04Z</time>
      </trkpt>
      <trkpt lat="48.60903" lon="8.28047">
        <ele>671.2</ele>
        <time>2020-07-25T10:54:11Z</time>
      </trkpt>
      <trkpt lat="48.60898" lon="8.28044">
        <ele>671.4</ele>
        <time>2020-07-25T10:54:13Z</time>
      </trkpt>
      <trkpt lat="48.60883" lon="8.28036">
        <ele>672</ele>
        <time>2020-07-25T10:54:19Z</time>
      </trkpt>
      <trkpt lat="48.6087" lon="8.28025">
        <ele>672.6</ele>
        <time>2020-07-25T10:54:24Z</time>
      </trkpt>
      <trkpt lat="48.60865" lon="8.28021">
        <ele>672.8</ele>
        <time>2020-07-25T10:54:26Z</time>
      </trkpt>
      <trkpt lat="48.60843" lon="8.28">
        <ele>673.6</ele>
        <time>2020-07-25T10:54:35Z</time>
      </trkpt>
      <trkpt lat="48.60841" lon="8.27998">
        <ele>673.8</ele>
        <time>2020-07-25T10:54:36Z</time>
      </trkpt>
      <trkpt lat="48.6083" lon="8.27983">
        <ele>674.8</ele>
        <time>2020-07-25T10:54:41Z</time>
      </trkpt>
      <trkpt lat="48.60825" lon="8.27977">
        <ele>675</ele>
        <time>2020-07-25T10:54:43Z</time>
      </trkpt>
      <trkpt lat="48.60812" lon="8.27955">
        <ele>675.8</ele>
        <time>2020-07-25T10:54:50Z</time>
      </trkpt>
      <trkpt lat="48.60806" lon="8.27932">
        <ele>676.2</ele>
        <time>2020-07-25T10:54:56Z</time>
      </trkpt>
      <trkpt lat="48.60806" lon="8.27911">
        <ele>676.8</ele>
        <time>2020-07-25T10:55:01Z</time>
      </trkpt>
      <trkpt lat="48.60806" lon="8.27894">
        <ele>677.2</ele>
        <time>2020-07-25T10:55:05Z</time>
      </trkpt>
      <trkpt lat="48.60803" lon="8.27881">
        <ele>677.8</ele>
        <time>2020-07-25T10:55:08Z</time>
      </trkpt>
      <trkpt lat="48.608" lon="8.27869">
        <ele>678.2</ele>
        <time>2020-07-25T10:55:11Z</time>
      </trkpt>
      <trkpt lat="48.60788" lon="8.27834">
        <ele>678.8</ele>
        <time>2020-07-25T10:55:19Z</time>
      </trkpt>
      <trkpt lat="48.60776" lon="8.27813">
        <ele>679.2</ele>
        <time>2020-07-25T10:55:25Z</time>
      </trkpt>
      <trkpt lat="48.60762" lon="8.27786">
        <ele>679.8</ele>
        <time>2020-07-25T10:55:32Z</time>
      </trkpt>
      <trkpt lat="48.60759" lon="8.27778">
        <ele>680</ele>
        <time>2020-07-25T10:55:34Z</time>
      </trkpt>
      <trkpt lat="48.6075" lon="8.27746">
        <ele>680.2</ele>
        <time>2020-07-25T10:55:41Z</time>
      </trkpt>
      <trkpt lat="48.60741" lon="8.27707">
        <ele>680.6</ele>
        <time>2020-07-25T10:55:49Z</time>
      </trkpt>
      <trkpt lat="48.60734" lon="8.2769">
        <ele>681</ele>
        <time>2020-07-25T10:55:54Z</time>
      </trkpt>
      <trkpt lat="48.60734" lon="8.27687">
        <ele>681</ele>
        <time>2020-07-25T10:55:55Z</time>
      </trkpt>
      <trkpt lat="48.60733" lon="8.27684">
        <ele>681.2</ele>
        <time>2020-07-25T10:56:00Z</time>
      </trkpt>
      <trkpt lat="48.60729" lon="8.27676">
        <ele>681.6</ele>
        <time>2020-07-25T10:56:08Z</time>
      </trkpt>
      <trkpt lat="48.60724" lon="8.27667">
        <ele>681.6</ele>
        <time>2020-07-25T10:56:10Z</time>
      </trkpt>
      <trkpt lat="48.60713" lon="8.27641">
        <ele>681.8</ele>
        <time>2020-07-25T10:56:16Z</time>
      </trkpt>
      <trkpt lat="48.60695" lon="8.27616">
        <ele>681.8</ele>
        <time>2020-07-25T10:56:23Z</time>
      </trkpt>
      <trkpt lat="48.60685" lon="8.27607">
        <ele>681.8</ele>
        <time>2020-07-25T10:56:26Z</time>
      </trkpt>
      <trkpt lat="48.60667" lon="8.2759">
        <ele>682.2</ele>
        <time>2020-07-25T10:56:32Z</time>
      </trkpt>
      <trkpt lat="48.60636" lon="8.27562">
        <ele>682.6</ele>
        <time>2020-07-25T10:56:41Z</time>
      </trkpt>
      <trkpt lat="48.60622" lon="8.27543">
        <ele>682.8</ele>
        <time>2020-07-25T10:56:46Z</time>
      </trkpt>
      <trkpt lat="48.60613" lon="8.27532">
        <ele>683</ele>
        <time>2020-07-25T10:56:49Z</time>
      </trkpt>
      <trkpt lat="48.60589" lon="8.27516">
        <ele>683.2</ele>
        <time>2020-07-25T10:56:56Z</time>
      </trkpt>
      <trkpt lat="48.60563" lon="8.27504">
        <ele>683.6</ele>
        <time>2020-07-25T10:57:03Z</time>
      </trkpt>
      <trkpt lat="48.60545" lon="8.27483">
        <ele>683.8</ele>
        <time>2020-07-25T10:57:09Z</time>
      </trkpt>
      <trkpt lat="48.6054" lon="8.27474">
        <ele>683.8</ele>
        <time>2020-07-25T10:57:11Z</time>
      </trkpt>
      <trkpt lat="48.60528" lon="8.27452">
        <ele>684.2</ele>
        <time>2020-07-25T10:57:16Z</time>
      </trkpt>
      <trkpt lat="48.60518" lon="8.27427">
        <ele>685</ele>
        <time>2020-07-25T10:57:21Z</time>
      </trkpt>
      <trkpt lat="48.60515" lon="8.27411">
        <ele>685.4</ele>
        <time>2020-07-25T10:57:24Z</time>
      </trkpt>
      <trkpt lat="48.60506" lon="8.27383">
        <ele>686</ele>
        <time>2020-07-25T10:57:30Z</time>
      </trkpt>
      <trkpt lat="48.60503" lon="8.27379">
        <ele>686.2</ele>
        <time>2020-07-25T10:57:31Z</time>
      </trkpt>
      <trkpt lat="48.60485" lon="8.27351">
        <ele>687.2</ele>
        <time>2020-07-25T10:57:38Z</time>
      </trkpt>
      <trkpt lat="48.60484" lon="8.27345">
        <ele>687.6</ele>
        <time>2020-07-25T10:57:39Z</time>
      </trkpt>
      <trkpt lat="48.60483" lon="8.27334">
        <ele>688.2</ele>
        <time>2020-07-25T10:57:41Z</time>
      </trkpt>
      <trkpt lat="48.60483" lon="8.27324">
        <ele>688.6</ele>
        <time>2020-07-25T10:57:43Z</time>
      </trkpt>
      <trkpt lat="48.60488" lon="8.27294">
        <ele>689</ele>
        <time>2020-07-25T10:57:49Z</time>
      </trkpt>
      <trkpt lat="48.60487" lon="8.27285">
        <ele>689.2</ele>
        <time>2020-07-25T10:57:51Z</time>
      </trkpt>
      <trkpt lat="48.60486" lon="8.2728">
        <ele>689.4</ele>
        <time>2020-07-25T10:57:52Z</time>
      </trkpt>
      <trkpt lat="48.60485" lon="8.27275">
        <ele>689.6</ele>
        <time>2020-07-25T10:57:53Z</time>
      </trkpt>
      <trkpt lat="48.60472" lon="8.27249">
        <ele>690.4</ele>
        <time>2020-07-25T10:57:59Z</time>
      </trkpt>
      <trkpt lat="48.60463" lon="8.2722">
        <ele>691.2</ele>
        <time>2020-07-25T10:58:05Z</time>
      </trkpt>
      <trkpt lat="48.60462" lon="8.27189">
        <ele>691.4</ele>
        <time>2020-07-25T10:58:11Z</time>
      </trkpt>
      <trkpt lat="48.60461" lon="8.27184">
        <ele>691.4</ele>
        <time>2020-07-25T10:58:12Z</time>
      </trkpt>
      <trkpt lat="48.60455" lon="8.27154">
        <ele>692.4</ele>
        <time>2020-07-25T10:58:18Z</time>
      </trkpt>
      <trkpt lat="48.60453" lon="8.27149">
        <ele>692.6</ele>
        <time>2020-07-25T10:58:19Z</time>
      </trkpt>
      <trkpt lat="48.60437" lon="8.27113">
        <ele>693.4</ele>
        <time>2020-07-25T10:58:27Z</time>
      </trkpt>
      <trkpt lat="48.60435" lon="8.27109">
        <ele>693.6</ele>
        <time>2020-07-25T10:58:28Z</time>
      </trkpt>
      <trkpt lat="48.60425" lon="8.2708">
        <ele>694.2</ele>
        <time>2020-07-25T10:58:34Z</time>
      </trkpt>
      <trkpt lat="48.60428" lon="8.27054">
        <ele>694.4</ele>
        <time>2020-07-25T10:58:39Z</time>
      </trkpt>
      <trkpt lat="48.60436" lon="8.27039">
        <ele>694.6</ele>
        <time>2020-07-25T10:58:43Z</time>
      </trkpt>
      <trkpt lat="48.6044" lon="8.27035">
        <ele>694.6</ele>
        <time>2020-07-25T10:58:45Z</time>
      </trkpt>
      <trkpt lat="48.60443" lon="8.27029">
        <ele>694.8</ele>
        <time>2020-07-25T10:58:49Z</time>
      </trkpt>
      <trkpt lat="48.60444" lon="8.27027">
        <ele>695</ele>
        <time>2020-07-25T10:58:50Z</time>
      </trkpt>
      <trkpt lat="48.60446" lon="8.27023">
        <ele>695.4</ele>
        <time>2020-07-25T10:58:52Z</time>
      </trkpt>
      <trkpt lat="48.60448" lon="8.27021">
        <ele>695.8</ele>
        <time>2020-07-25T10:58:53Z</time>
      </trkpt>
      <trkpt lat="48.60453" lon="8.27015">
        <ele>696</ele>
        <time>2020-07-25T10:58:55Z</time>
      </trkpt>
      <trkpt lat="48.6046" lon="8.26993">
        <ele>696.2</ele>
        <time>2020-07-25T10:59:00Z</time>
      </trkpt>
      <trkpt lat="48.60461" lon="8.26965">
        <ele>696.4</ele>
        <time>2020-07-25T10:59:06Z</time>
      </trkpt>
      <trkpt lat="48.60458" lon="8.26956">
        <ele>696.4</ele>
        <time>2020-07-25T10:59:08Z</time>
      </trkpt>
      <trkpt lat="48.60453" lon="8.26942">
        <ele>697</ele>
        <time>2020-07-25T10:59:11Z</time>
      </trkpt>
      <trkpt lat="48.60446" lon="8.26917">
        <ele>697.8</ele>
        <time>2020-07-25T10:59:16Z</time>
      </trkpt>
      <trkpt lat="48.60445" lon="8.26912">
        <ele>697.8</ele>
        <time>2020-07-25T10:59:17Z</time>
      </trkpt>
      <trkpt lat="48.60436" lon="8.26877">
        <ele>698.4</ele>
        <time>2020-07-25T10:59:24Z</time>
      </trkpt>
      <trkpt lat="48.60427" lon="8.26836">
        <ele>698.8</ele>
        <time>2020-07-25T10:59:32Z</time>
      </trkpt>
      <trkpt lat="48.60424" lon="8.26826">
        <ele>698.8</ele>
        <time>2020-07-25T10:59:34Z</time>
      </trkpt>
      <trkpt lat="48.60417" lon="8.26803">
        <ele>699.6</ele>
        <time>2020-07-25T10:59:39Z</time>
      </trkpt>
      <trkpt lat="48.60413" lon="8.26794">
        <ele>699.8</ele>
        <time>2020-07-25T10:59:41Z</time>
      </trkpt>
      <trkpt lat="48.60407" lon="8.26769">
        <ele>700.6</ele>
        <time>2020-07-25T10:59:46Z</time>
      </trkpt>
      <trkpt lat="48.60407" lon="8.26758">
        <ele>701</ele>
        <time>2020-07-25T10:59:48Z</time>
      </trkpt>
      <trkpt lat="48.60407" lon="8.26748">
        <ele>701.4</ele>
        <time>2020-07-25T10:59:50Z</time>
      </trkpt>
      <trkpt lat="48.60409" lon="8.26738">
        <ele>701.6</ele>
        <time>2020-07-25T10:59:52Z</time>
      </trkpt>
      <trkpt lat="48.60411" lon="8.26714">
        <ele>701.8</ele>
        <time>2020-07-25T10:59:57Z</time>
      </trkpt>
      <trkpt lat="48.60411" lon="8.26704">
        <ele>702.2</ele>
        <time>2020-07-25T10:59:59Z</time>
      </trkpt>
      <trkpt lat="48.60409" lon="8.26678">
        <ele>703</ele>
        <time>2020-07-25T11:00:04Z</time>
      </trkpt>
      <trkpt lat="48.6041" lon="8.26668">
        <ele>703</ele>
        <time>2020-07-25T11:00:06Z</time>
      </trkpt>
      <trkpt lat="48.60409" lon="8.26659">
        <ele>703.2</ele>
        <time>2020-07-25T11:00:08Z</time>
      </trkpt>
      <trkpt lat="48.6041" lon="8.26649">
        <ele>703.4</ele>
        <time>2020-07-25T11:00:10Z</time>
      </trkpt>
      <trkpt lat="48.60412" lon="8.26628">
        <ele>703.6</ele>
        <time>2020-07-25T11:00:14Z</time>
      </trkpt>
      <trkpt lat="48.60415" lon="8.26607">
        <ele>704.2</ele>
        <time>2020-07-25T11:00:18Z</time>
      </trkpt>
      <trkpt lat="48.60414" lon="8.26596">
        <ele>704.2</ele>
        <time>2020-07-25T11:00:20Z</time>
      </trkpt>
      <trkpt lat="48.60413" lon="8.26591">
        <ele>704.4</ele>
        <time>2020-07-25T11:00:21Z</time>
      </trkpt>
      <trkpt lat="48.60411" lon="8.26572">
        <ele>705.2</ele>
        <time>2020-07-25T11:00:25Z</time>
      </trkpt>
      <trkpt lat="48.6041" lon="8.26566">
        <ele>705.6</ele>
        <time>2020-07-25T11:00:26Z</time>
      </trkpt>
      <trkpt lat="48.60408" lon="8.26539">
        <ele>706.4</ele>
        <time>2020-07-25T11:00:31Z</time>
      </trkpt>
      <trkpt lat="48.60408" lon="8.26523">
        <ele>706.6</ele>
        <time>2020-07-25T11:00:35Z</time>
      </trkpt>
      <trkpt lat="48.60408" lon="8.26499">
        <ele>707</ele>
        <time>2020-07-25T11:00:40Z</time>
      </trkpt>
      <trkpt lat="48.6041" lon="8.2648">
        <ele>707.4</ele>
        <time>2020-07-25T11:00:44Z</time>
      </trkpt>
      <trkpt lat="48.60412" lon="8.26471">
        <ele>707.8</ele>
        <time>2020-07-25T11:00:46Z</time>
      </trkpt>
      <trkpt lat="48.60414" lon="8.26447">
        <ele>708.6</ele>
        <time>2020-07-25T11:00:51Z</time>
      </trkpt>
      <trkpt lat="48.60415" lon="8.26444">
        <ele>708.8</ele>
        <time>2020-07-25T11:00:52Z</time>
      </trkpt>
      <trkpt lat="48.60416" lon="8.26424">
        <ele>709.2</ele>
        <time>2020-07-25T11:00:56Z</time>
      </trkpt>
      <trkpt lat="48.60417" lon="8.26419">
        <ele>709.2</ele>
        <time>2020-07-25T11:00:57Z</time>
      </trkpt>
      <trkpt lat="48.60426" lon="8.26393">
        <ele>709.8</ele>
        <time>2020-07-25T11:01:03Z</time>
      </trkpt>
      <trkpt lat="48.60427" lon="8.26383">
        <ele>710</ele>
        <time>2020-07-25T11:01:05Z</time>
      </trkpt>
      <trkpt lat="48.60435" lon="8.26355">
        <ele>710.8</ele>
        <time>2020-07-25T11:01:11Z</time>
      </trkpt>
      <trkpt lat="48.60439" lon="8.26339">
        <ele>711</ele>
        <time>2020-07-25T11:01:14Z</time>
      </trkpt>
      <trkpt lat="48.60443" lon="8.26321">
        <ele>712</ele>
        <time>2020-07-25T11:01:18Z</time>
      </trkpt>
      <trkpt lat="48.60444" lon="8.26316">
        <ele>712</ele>
        <time>2020-07-25T11:01:19Z</time>
      </trkpt>
      <trkpt lat="48.60446" lon="8.26271">
        <ele>713</ele>
        <time>2020-07-25T11:01:28Z</time>
      </trkpt>
      <trkpt lat="48.60447" lon="8.26267">
        <ele>713.2</ele>
        <time>2020-07-25T11:01:29Z</time>
      </trkpt>
      <trkpt lat="48.60449" lon="8.26238">
        <ele>713.8</ele>
        <time>2020-07-25T11:01:35Z</time>
      </trkpt>
      <trkpt lat="48.6045" lon="8.26228">
        <ele>714.2</ele>
        <time>2020-07-25T11:01:37Z</time>
      </trkpt>
      <trkpt lat="48.60445" lon="8.26197">
        <ele>714.6</ele>
        <time>2020-07-25T11:01:42Z</time>
      </trkpt>
      <trkpt lat="48.60447" lon="8.26179">
        <ele>714.8</ele>
        <time>2020-07-25T11:01:46Z</time>
      </trkpt>
      <trkpt lat="48.60447" lon="8.26163">
        <ele>715.2</ele>
        <time>2020-07-25T11:01:49Z</time>
      </trkpt>
      <trkpt lat="48.60443" lon="8.26151">
        <ele>715.6</ele>
        <time>2020-07-25T11:01:51Z</time>
      </trkpt>
      <trkpt lat="48.60447" lon="8.2614">
        <ele>715.8</ele>
        <time>2020-07-25T11:01:54Z</time>
      </trkpt>
      <trkpt lat="48.60448" lon="8.26137">
        <ele>715.8</ele>
        <time>2020-07-25T11:01:55Z</time>
      </trkpt>
      <trkpt lat="48.6045" lon="8.26134">
        <ele>716</ele>
        <time>2020-07-25T11:01:57Z</time>
      </trkpt>
      <trkpt lat="48.6045" lon="8.26133">
        <ele>716</ele>
        <time>2020-07-25T11:01:59Z</time>
      </trkpt>
      <trkpt lat="48.60452" lon="8.2613">
        <ele>717</ele>
        <time>2020-07-25T11:05:00Z</time>
      </trkpt>
      <trkpt lat="48.60456" lon="8.26123">
        <ele>717</ele>
        <time>2020-07-25T11:05:02Z</time>
      </trkpt>
      <trkpt lat="48.60467" lon="8.26099">
        <ele>717</ele>
        <time>2020-07-25T11:05:07Z</time>
      </trkpt>
      <trkpt lat="48.6047" lon="8.26085">
        <ele>717</ele>
        <time>2020-07-25T11:05:09Z</time>
      </trkpt>
      <trkpt lat="48.60479" lon="8.26066">
        <ele>716.6</ele>
        <time>2020-07-25T11:05:12Z</time>
      </trkpt>
      <trkpt lat="48.60488" lon="8.26055">
        <ele>716.2</ele>
        <time>2020-07-25T11:05:14Z</time>
      </trkpt>
      <trkpt lat="48.60494" lon="8.26051">
        <ele>715.8</ele>
        <time>2020-07-25T11:05:15Z</time>
      </trkpt>
      <trkpt lat="48.60501" lon="8.26047">
        <ele>715.6</ele>
        <time>2020-07-25T11:05:16Z</time>
      </trkpt>
      <trkpt lat="48.60513" lon="8.26039">
        <ele>714.8</ele>
        <time>2020-07-25T11:05:18Z</time>
      </trkpt>
      <trkpt lat="48.60523" lon="8.26027">
        <ele>714</ele>
        <time>2020-07-25T11:05:20Z</time>
      </trkpt>
      <trkpt lat="48.60527" lon="8.26018">
        <ele>713.4</ele>
        <time>2020-07-25T11:05:21Z</time>
      </trkpt>
      <trkpt lat="48.60531" lon="8.26009">
        <ele>712.8</ele>
        <time>2020-07-25T11:05:22Z</time>
      </trkpt>
      <trkpt lat="48.60537" lon="8.25987">
        <ele>711.6</ele>
        <time>2020-07-25T11:05:24Z</time>
      </trkpt>
      <trkpt lat="48.60542" lon="8.25967">
        <ele>711</ele>
        <time>2020-07-25T11:05:26Z</time>
      </trkpt>
      <trkpt lat="48.60543" lon="8.25957">
        <ele>710.8</ele>
        <time>2020-07-25T11:05:27Z</time>
      </trkpt>
      <trkpt lat="48.60543" lon="8.25947">
        <ele>710.4</ele>
        <time>2020-07-25T11:05:28Z</time>
      </trkpt>
      <trkpt lat="48.60547" lon="8.25933">
        <ele>708.6</ele>
        <time>2020-07-25T11:05:30Z</time>
      </trkpt>
      <trkpt lat="48.60552" lon="8.25925">
        <ele>707.4</ele>
        <time>2020-07-25T11:05:32Z</time>
      </trkpt>
      <trkpt lat="48.60563" lon="8.25919">
        <ele>706.2</ele>
        <time>2020-07-25T11:05:35Z</time>
      </trkpt>
      <trkpt lat="48.60567" lon="8.25919">
        <ele>706</ele>
        <time>2020-07-25T11:05:36Z</time>
      </trkpt>
      <trkpt lat="48.60582" lon="8.25929">
        <ele>705.4</ele>
        <time>2020-07-25T11:05:41Z</time>
      </trkpt>
      <trkpt lat="48.60596" lon="8.25944">
        <ele>705.4</ele>
        <time>2020-07-25T11:05:46Z</time>
      </trkpt>
      <trkpt lat="48.60612" lon="8.25956">
        <ele>705.4</ele>
        <time>2020-07-25T11:05:52Z</time>
      </trkpt>
      <trkpt lat="48.60626" lon="8.25966">
        <ele>706</ele>
        <time>2020-07-25T11:05:58Z</time>
      </trkpt>
      <trkpt lat="48.60633" lon="8.25975">
        <ele>706.8</ele>
        <time>2020-07-25T11:06:02Z</time>
      </trkpt>
      <trkpt lat="48.60637" lon="8.25982">
        <ele>707.6</ele>
        <time>2020-07-25T11:06:07Z</time>
      </trkpt>
      <trkpt lat="48.6064" lon="8.25986">
        <ele>708</ele>
        <time>2020-07-25T11:06:09Z</time>
      </trkpt>
      <trkpt lat="48.60645" lon="8.25994">
        <ele>708.8</ele>
        <time>2020-07-25T11:06:12Z</time>
      </trkpt>
      <trkpt lat="48.60648" lon="8.26008">
        <ele>709</ele>
        <time>2020-07-25T11:06:16Z</time>
      </trkpt>
      <trkpt lat="48.60648" lon="8.26025">
        <ele>709.8</ele>
        <time>2020-07-25T11:06:20Z</time>
      </trkpt>
      <trkpt lat="48.60648" lon="8.2604">
        <ele>710.8</ele>
        <time>2020-07-25T11:06:25Z</time>
      </trkpt>
      <trkpt lat="48.60645" lon="8.26057">
        <ele>712</ele>
        <time>2020-07-25T11:06:31Z</time>
      </trkpt>
      <trkpt lat="48.60641" lon="8.26073">
        <ele>713.2</ele>
        <time>2020-07-25T11:06:37Z</time>
      </trkpt>
      <trkpt lat="48.60639" lon="8.26077">
        <ele>713.6</ele>
        <time>2020-07-25T11:06:39Z</time>
      </trkpt>
      <trkpt lat="48.60636" lon="8.26086">
        <ele>714.2</ele>
        <time>2020-07-25T11:06:43Z</time>
      </trkpt>
      <trkpt lat="48.60634" lon="8.26099">
        <ele>714.8</ele>
        <time>2020-07-25T11:06:47Z</time>
      </trkpt>
      <trkpt lat="48.60633" lon="8.26107">
        <ele>715.4</ele>
        <time>2020-07-25T11:06:50Z</time>
      </trkpt>
      <trkpt lat="48.6063" lon="8.26126">
        <ele>716.6</ele>
        <time>2020-07-25T11:06:56Z</time>
      </trkpt>
      <trkpt lat="48.60629" lon="8.26146">
        <ele>717.6</ele>
        <time>2020-07-25T11:07:02Z</time>
      </trkpt>
      <trkpt lat="48.60628" lon="8.26156">
        <ele>718.4</ele>
        <time>2020-07-25T11:07:05Z</time>
      </trkpt>
      <trkpt lat="48.60628" lon="8.26164">
        <ele>718.6</ele>
        <time>2020-07-25T11:07:07Z</time>
      </trkpt>
      <trkpt lat="48.60628" lon="8.26182">
        <ele>719.4</ele>
        <time>2020-07-25T11:07:12Z</time>
      </trkpt>
      <trkpt lat="48.60627" lon="8.26189">
        <ele>719.8</ele>
        <time>2020-07-25T11:07:14Z</time>
      </trkpt>
      <trkpt lat="48.60627" lon="8.26211">
        <ele>721</ele>
        <time>2020-07-25T11:07:20Z</time>
      </trkpt>
      <trkpt lat="48.60625" lon="8.2623">
        <ele>722</ele>
        <time>2020-07-25T11:07:25Z</time>
      </trkpt>
      <trkpt lat="48.60624" lon="8.26245">
        <ele>723</ele>
        <time>2020-07-25T11:07:29Z</time>
      </trkpt>
      <trkpt lat="48.60623" lon="8.26253">
        <ele>723.6</ele>
        <time>2020-07-25T11:07:31Z</time>
      </trkpt>
      <trkpt lat="48.60621" lon="8.26272">
        <ele>724.6</ele>
        <time>2020-07-25T11:07:36Z</time>
      </trkpt>
      <trkpt lat="48.6062" lon="8.26283">
        <ele>725.2</ele>
        <time>2020-07-25T11:07:39Z</time>
      </trkpt>
      <trkpt lat="48.60619" lon="8.26286">
        <ele>725.8</ele>
        <time>2020-07-25T11:07:40Z</time>
      </trkpt>
      <trkpt lat="48.60621" lon="8.26297">
        <ele>726.4</ele>
        <time>2020-07-25T11:07:44Z</time>
      </trkpt>
      <trkpt lat="48.60622" lon="8.26298">
        <ele>726.6</ele>
        <time>2020-07-25T11:07:45Z</time>
      </trkpt>
      <trkpt lat="48.60623" lon="8.26293">
        <ele>726.8</ele>
        <time>2020-07-25T11:07:47Z</time>
      </trkpt>
      <trkpt lat="48.60623" lon="8.26292">
        <ele>727</ele>
        <time>2020-07-25T11:07:48Z</time>
      </trkpt>
      <trkpt lat="48.6062" lon="8.26294">
        <ele>727</ele>
        <time>2020-07-25T11:07:50Z</time>
      </trkpt>
      <trkpt lat="48.6062" lon="8.26297">
        <ele>727</ele>
        <time>2020-07-25T11:07:51Z</time>
      </trkpt>
      <trkpt lat="48.60619" lon="8.26312">
        <ele>727</ele>
        <time>2020-07-25T11:07:54Z</time>
      </trkpt>
      <trkpt lat="48.60617" lon="8.26351">
        <ele>727</ele>
        <time>2020-07-25T11:08:00Z</time>
      </trkpt>
      <trkpt lat="48.60616" lon="8.26366">
        <ele>727</ele>
        <time>2020-07-25T11:08:02Z</time>
      </trkpt>
      <trkpt lat="48.60615" lon="8.26388">
        <ele>727</ele>
        <time>2020-07-25T11:08:05Z</time>
      </trkpt>
      <trkpt lat="48.60615" lon="8.26434">
        <ele>726.6</ele>
        <time>2020-07-25T11:08:11Z</time>
      </trkpt>
      <trkpt lat="48.60614" lon="8.26458">
        <ele>726.4</ele>
        <time>2020-07-25T11:08:14Z</time>
      </trkpt>
      <trkpt lat="48.60614" lon="8.26483">
        <ele>726.2</ele>
        <time>2020-07-25T11:08:17Z</time>
      </trkpt>
      <trkpt lat="48.60613" lon="8.26525">
        <ele>726.2</ele>
        <time>2020-07-25T11:08:22Z</time>
      </trkpt>
      <trkpt lat="48.60614" lon="8.26543">
        <ele>726.2</ele>
        <time>2020-07-25T11:08:24Z</time>
      </trkpt>
      <trkpt lat="48.60616" lon="8.26561">
        <ele>726</ele>
        <time>2020-07-25T11:08:26Z</time>
      </trkpt>
      <trkpt lat="48.60622" lon="8.26609">
        <ele>725.8</ele>
        <time>2020-07-25T11:08:31Z</time>
      </trkpt>
      <trkpt lat="48.60632" lon="8.26671">
        <ele>725.4</ele>
        <time>2020-07-25T11:08:37Z</time>
      </trkpt>
      <trkpt lat="48.60635" lon="8.2668">
        <ele>725.4</ele>
        <time>2020-07-25T11:08:38Z</time>
      </trkpt>
      <trkpt lat="48.60642" lon="8.26699">
        <ele>725.2</ele>
        <time>2020-07-25T11:08:40Z</time>
      </trkpt>
      <trkpt lat="48.6065" lon="8.26718">
        <ele>724.6</ele>
        <time>2020-07-25T11:08:42Z</time>
      </trkpt>
      <trkpt lat="48.6066" lon="8.26747">
        <ele>723.8</ele>
        <time>2020-07-25T11:08:45Z</time>
      </trkpt>
      <trkpt lat="48.60665" lon="8.26768">
        <ele>723.4</ele>
        <time>2020-07-25T11:08:47Z</time>
      </trkpt>
      <trkpt lat="48.60666" lon="8.26779">
        <ele>723.4</ele>
        <time>2020-07-25T11:08:48Z</time>
      </trkpt>
      <trkpt lat="48.60668" lon="8.26812">
        <ele>722.8</ele>
        <time>2020-07-25T11:08:51Z</time>
      </trkpt>
      <trkpt lat="48.6067" lon="8.26834">
        <ele>721.8</ele>
        <time>2020-07-25T11:08:53Z</time>
      </trkpt>
      <trkpt lat="48.60671" lon="8.26844">
        <ele>721.6</ele>
        <time>2020-07-25T11:08:54Z</time>
      </trkpt>
      <trkpt lat="48.60682" lon="8.26895">
        <ele>720.8</ele>
        <time>2020-07-25T11:08:59Z</time>
      </trkpt>
      <trkpt lat="48.6069" lon="8.26913">
        <ele>720.6</ele>
        <time>2020-07-25T11:09:01Z</time>
      </trkpt>
      <trkpt lat="48.607" lon="8.26928">
        <ele>720.6</ele>
        <time>2020-07-25T11:09:03Z</time>
      </trkpt>
      <trkpt lat="48.60732" lon="8.26968">
        <ele>720.4</ele>
        <time>2020-07-25T11:09:09Z</time>
      </trkpt>
      <trkpt lat="48.60736" lon="8.26977">
        <ele>720.4</ele>
        <time>2020-07-25T11:09:10Z</time>
      </trkpt>
      <trkpt lat="48.60741" lon="8.26996">
        <ele>720.4</ele>
        <time>2020-07-25T11:09:12Z</time>
      </trkpt>
      <trkpt lat="48.6074" lon="8.27016">
        <ele>720.2</ele>
        <time>2020-07-25T11:09:14Z</time>
      </trkpt>
      <trkpt lat="48.60739" lon="8.27024">
        <ele>720.2</ele>
        <time>2020-07-25T11:09:15Z</time>
      </trkpt>
      <trkpt lat="48.60732" lon="8.27043">
        <ele>719.6</ele>
        <time>2020-07-25T11:09:17Z</time>
      </trkpt>
      <trkpt lat="48.60726" lon="8.27059">
        <ele>719.2</ele>
        <time>2020-07-25T11:09:19Z</time>
      </trkpt>
      <trkpt lat="48.60723" lon="8.27067">
        <ele>719</ele>
        <time>2020-07-25T11:09:20Z</time>
      </trkpt>
      <trkpt lat="48.6072" lon="8.27085">
        <ele>719</ele>
        <time>2020-07-25T11:09:22Z</time>
      </trkpt>
      <trkpt lat="48.6072" lon="8.27103">
        <ele>718.8</ele>
        <time>2020-07-25T11:09:24Z</time>
      </trkpt>
      <trkpt lat="48.60724" lon="8.27128">
        <ele>718.8</ele>
        <time>2020-07-25T11:09:27Z</time>
      </trkpt>
      <trkpt lat="48.6073" lon="8.27152">
        <ele>718.8</ele>
        <time>2020-07-25T11:09:30Z</time>
      </trkpt>
      <trkpt lat="48.60741" lon="8.27193">
        <ele>718.8</ele>
        <time>2020-07-25T11:09:35Z</time>
      </trkpt>
      <trkpt lat="48.60743" lon="8.27209">
        <ele>718.8</ele>
        <time>2020-07-25T11:09:37Z</time>
      </trkpt>
      <trkpt lat="48.60754" lon="8.27268">
        <ele>718.8</ele>
        <time>2020-07-25T11:09:45Z</time>
      </trkpt>
      <trkpt lat="48.60756" lon="8.27274">
        <ele>718.8</ele>
        <time>2020-07-25T11:09:46Z</time>
      </trkpt>
      <trkpt lat="48.60768" lon="8.27309">
        <ele>718.8</ele>
        <time>2020-07-25T11:09:51Z</time>
      </trkpt>
      <trkpt lat="48.60776" lon="8.27321">
        <ele>718.8</ele>
        <time>2020-07-25T11:09:53Z</time>
      </trkpt>
      <trkpt lat="48.60786" lon="8.27329">
        <ele>718.6</ele>
        <time>2020-07-25T11:09:55Z</time>
      </trkpt>
      <trkpt lat="48.60799" lon="8.27329">
        <ele>718.6</ele>
        <time>2020-07-25T11:09:57Z</time>
      </trkpt>
      <trkpt lat="48.60805" lon="8.27326">
        <ele>718.6</ele>
        <time>2020-07-25T11:09:58Z</time>
      </trkpt>
      <trkpt lat="48.60827" lon="8.2731">
        <ele>718.6</ele>
        <time>2020-07-25T11:10:02Z</time>
      </trkpt>
      <trkpt lat="48.60833" lon="8.27308">
        <ele>718.6</ele>
        <time>2020-07-25T11:10:03Z</time>
      </trkpt>
      <trkpt lat="48.60867" lon="8.27303">
        <ele>718.6</ele>
        <time>2020-07-25T11:10:09Z</time>
      </trkpt>
      <trkpt lat="48.60877" lon="8.27307">
        <ele>718.6</ele>
        <time>2020-07-25T11:10:11Z</time>
      </trkpt>
      <trkpt lat="48.60888" lon="8.27316">
        <ele>718.6</ele>
        <time>2020-07-25T11:10:13Z</time>
      </trkpt>
      <trkpt lat="48.60894" lon="8.27328">
        <ele>718.6</ele>
        <time>2020-07-25T11:10:15Z</time>
      </trkpt>
      <trkpt lat="48.609" lon="8.27343">
        <ele>718.2</ele>
        <time>2020-07-25T11:10:17Z</time>
      </trkpt>
      <trkpt lat="48.60901" lon="8.2736">
        <ele>717.8</ele>
        <time>2020-07-25T11:10:19Z</time>
      </trkpt>
      <trkpt lat="48.60904" lon="8.27385">
        <ele>717.4</ele>
        <time>2020-07-25T11:10:22Z</time>
      </trkpt>
      <trkpt lat="48.60907" lon="8.27415">
        <ele>717.2</ele>
        <time>2020-07-25T11:10:25Z</time>
      </trkpt>
      <trkpt lat="48.60911" lon="8.27433">
        <ele>717.2</ele>
        <time>2020-07-25T11:10:27Z</time>
      </trkpt>
      <trkpt lat="48.60929" lon="8.27495">
        <ele>716.6</ele>
        <time>2020-07-25T11:10:33Z</time>
      </trkpt>
      <trkpt lat="48.6094" lon="8.27534">
        <ele>716</ele>
        <time>2020-07-25T11:10:37Z</time>
      </trkpt>
      <trkpt lat="48.60944" lon="8.27544">
        <ele>715.2</ele>
        <time>2020-07-25T11:10:38Z</time>
      </trkpt>
      <trkpt lat="48.60948" lon="8.27552">
        <ele>714.8</ele>
        <time>2020-07-25T11:10:39Z</time>
      </trkpt>
      <trkpt lat="48.60953" lon="8.27559">
        <ele>714.2</ele>
        <time>2020-07-25T11:10:40Z</time>
      </trkpt>
      <trkpt lat="48.60953" lon="8.27559">
        <ele>714.2</ele>
        <time>2020-07-25T11:10:41Z</time>
      </trkpt>
      <trkpt lat="48.60964" lon="8.27568">
        <ele>714</ele>
        <time>2020-07-25T11:10:42Z</time>
      </trkpt>
      <trkpt lat="48.60972" lon="8.27571">
        <ele>714</ele>
        <time>2020-07-25T11:10:43Z</time>
      </trkpt>
      <trkpt lat="48.6099" lon="8.27583">
        <ele>713.2</ele>
        <time>2020-07-25T11:10:46Z</time>
      </trkpt>
      <trkpt lat="48.60995" lon="8.27589">
        <ele>713</ele>
        <time>2020-07-25T11:10:47Z</time>
      </trkpt>
      <trkpt lat="48.61001" lon="8.27599">
        <ele>712.8</ele>
        <time>2020-07-25T11:10:48Z</time>
      </trkpt>
      <trkpt lat="48.61006" lon="8.2762">
        <ele>712.2</ele>
        <time>2020-07-25T11:10:50Z</time>
      </trkpt>
      <trkpt lat="48.61012" lon="8.2765">
        <ele>711</ele>
        <time>2020-07-25T11:10:53Z</time>
      </trkpt>
      <trkpt lat="48.61018" lon="8.27677">
        <ele>710</ele>
        <time>2020-07-25T11:10:56Z</time>
      </trkpt>
      <trkpt lat="48.61021" lon="8.27686">
        <ele>710</ele>
        <time>2020-07-25T11:10:57Z</time>
      </trkpt>
      <trkpt lat="48.61031" lon="8.27707">
        <ele>709.6</ele>
        <time>2020-07-25T11:11:00Z</time>
      </trkpt>
      <trkpt lat="48.61053" lon="8.27744">
        <ele>709.6</ele>
        <time>2020-07-25T11:11:06Z</time>
      </trkpt>
      <trkpt lat="48.61082" lon="8.2778">
        <ele>709.6</ele>
        <time>2020-07-25T11:11:12Z</time>
      </trkpt>
      <trkpt lat="48.61114" lon="8.2781">
        <ele>710</ele>
        <time>2020-07-25T11:11:18Z</time>
      </trkpt>
      <trkpt lat="48.6112" lon="8.27814">
        <ele>710</ele>
        <time>2020-07-25T11:11:19Z</time>
      </trkpt>
      <trkpt lat="48.6113" lon="8.27819">
        <ele>709.8</ele>
        <time>2020-07-25T11:11:21Z</time>
      </trkpt>
      <trkpt lat="48.61151" lon="8.27824">
        <ele>709.8</ele>
        <time>2020-07-25T11:11:24Z</time>
      </trkpt>
      <trkpt lat="48.61197" lon="8.27835">
        <ele>709.4</ele>
        <time>2020-07-25T11:11:31Z</time>
      </trkpt>
      <trkpt lat="48.61202" lon="8.27837">
        <ele>709.4</ele>
        <time>2020-07-25T11:11:32Z</time>
      </trkpt>
      <trkpt lat="48.61209" lon="8.27843">
        <ele>709.2</ele>
        <time>2020-07-25T11:11:33Z</time>
      </trkpt>
      <trkpt lat="48.61219" lon="8.27856">
        <ele>709</ele>
        <time>2020-07-25T11:11:35Z</time>
      </trkpt>
      <trkpt lat="48.61223" lon="8.27864">
        <ele>709</ele>
        <time>2020-07-25T11:11:36Z</time>
      </trkpt>
      <trkpt lat="48.61243" lon="8.27891">
        <ele>708.2</ele>
        <time>2020-07-25T11:11:40Z</time>
      </trkpt>
      <trkpt lat="48.61254" lon="8.27902">
        <ele>707.8</ele>
        <time>2020-07-25T11:11:42Z</time>
      </trkpt>
      <trkpt lat="48.61285" lon="8.27927">
        <ele>707</ele>
        <time>2020-07-25T11:11:47Z</time>
      </trkpt>
      <trkpt lat="48.61297" lon="8.27939">
        <ele>706.4</ele>
        <time>2020-07-25T11:11:49Z</time>
      </trkpt>
      <trkpt lat="48.61308" lon="8.27951">
        <ele>705.4</ele>
        <time>2020-07-25T11:11:51Z</time>
      </trkpt>
      <trkpt lat="48.61311" lon="8.27956">
        <ele>704.8</ele>
        <time>2020-07-25T11:11:52Z</time>
      </trkpt>
      <trkpt lat="48.61315" lon="8.27963">
        <ele>703.6</ele>
        <time>2020-07-25T11:11:54Z</time>
      </trkpt>
      <trkpt lat="48.61325" lon="8.2797">
        <ele>703.2</ele>
        <time>2020-07-25T11:11:55Z</time>
      </trkpt>
      <trkpt lat="48.6133" lon="8.27972">
        <ele>702.6</ele>
        <time>2020-07-25T11:11:56Z</time>
      </trkpt>
      <trkpt lat="48.61341" lon="8.27976">
        <ele>701.8</ele>
        <time>2020-07-25T11:11:59Z</time>
      </trkpt>
      <trkpt lat="48.61344" lon="8.27978">
        <ele>701.8</ele>
        <time>2020-07-25T11:12:02Z</time>
      </trkpt>
      <trkpt lat="48.61344" lon="8.27978">
        <ele>701.8</ele>
        <time>2020-07-25T11:12:03Z</time>
      </trkpt>
      <trkpt lat="48.61344" lon="8.27973">
        <ele>702.4</ele>
        <time>2020-07-25T11:12:36Z</time>
      </trkpt>
      <trkpt lat="48.61344" lon="8.27972">
        <ele>702.4</ele>
        <time>2020-07-25T11:12:37Z</time>
      </trkpt>
      <trkpt lat="48.61342" lon="8.27972">
        <ele>702.4</ele>
        <time>2020-07-25T11:12:38Z</time>
      </trkpt>
      <trkpt lat="48.61337" lon="8.27973">
        <ele>702.4</ele>
        <time>2020-07-25T11:12:41Z</time>
      </trkpt>
      <trkpt lat="48.61336" lon="8.27976">
        <ele>702.4</ele>
        <time>2020-07-25T11:12:42Z</time>
      </trkpt>
      <trkpt lat="48.6134" lon="8.27988">
        <ele>702.2</ele>
        <time>2020-07-25T11:12:45Z</time>
      </trkpt>
      <trkpt lat="48.61346" lon="8.28001">
        <ele>701.6</ele>
        <time>2020-07-25T11:12:49Z</time>
      </trkpt>
      <trkpt lat="48.61346" lon="8.28001">
        <ele>701.4</ele>
        <time>2020-07-25T11:12:50Z</time>
      </trkpt>
      <trkpt lat="48.61349" lon="8.28003">
        <ele>700</ele>
        <time>2020-07-25T11:13:24Z</time>
      </trkpt>
      <trkpt lat="48.61357" lon="8.28009">
        <ele>700</ele>
        <time>2020-07-25T11:13:26Z</time>
      </trkpt>
      <trkpt lat="48.61367" lon="8.28008">
        <ele>699.8</ele>
        <time>2020-07-25T11:13:28Z</time>
      </trkpt>
      <trkpt lat="48.61371" lon="8.28004">
        <ele>699.8</ele>
        <time>2020-07-25T11:13:29Z</time>
      </trkpt>
      <trkpt lat="48.61375" lon="8.28001">
        <ele>699.8</ele>
        <time>2020-07-25T11:13:30Z</time>
      </trkpt>
      <trkpt lat="48.61385" lon="8.27984">
        <ele>699</ele>
        <time>2020-07-25T11:13:33Z</time>
      </trkpt>
      <trkpt lat="48.61388" lon="8.27977">
        <ele>698.8</ele>
        <time>2020-07-25T11:13:34Z</time>
      </trkpt>
      <trkpt lat="48.614" lon="8.27946">
        <ele>697.4</ele>
        <time>2020-07-25T11:13:38Z</time>
      </trkpt>
      <trkpt lat="48.61401" lon="8.27941">
        <ele>697.2</ele>
        <time>2020-07-25T11:13:39Z</time>
      </trkpt>
      <trkpt lat="48.61406" lon="8.27926">
        <ele>696</ele>
        <time>2020-07-25T11:13:42Z</time>
      </trkpt>
      <trkpt lat="48.61408" lon="8.2792">
        <ele>695.4</ele>
        <time>2020-07-25T11:13:43Z</time>
      </trkpt>
      <trkpt lat="48.61408" lon="8.2792">
        <ele>694.8</ele>
        <time>2020-07-25T11:13:44Z</time>
      </trkpt>
      <trkpt lat="48.6141" lon="8.27914">
        <ele>694.6</ele>
        <time>2020-07-25T11:13:45Z</time>
      </trkpt>
      <trkpt lat="48.61421" lon="8.27876">
        <ele>693.8</ele>
        <time>2020-07-25T11:13:50Z</time>
      </trkpt>
      <trkpt lat="48.61433" lon="8.27841">
        <ele>692.6</ele>
        <time>2020-07-25T11:13:53Z</time>
      </trkpt>
      <trkpt lat="48.61436" lon="8.27832">
        <ele>692</ele>
        <time>2020-07-25T11:13:54Z</time>
      </trkpt>
      <trkpt lat="48.61439" lon="8.27824">
        <ele>691.6</ele>
        <time>2020-07-25T11:13:55Z</time>
      </trkpt>
      <trkpt lat="48.61443" lon="8.27817">
        <ele>691.2</ele>
        <time>2020-07-25T11:13:56Z</time>
      </trkpt>
      <trkpt lat="48.61447" lon="8.27812">
        <ele>691</ele>
        <time>2020-07-25T11:13:57Z</time>
      </trkpt>
      <trkpt lat="48.6145" lon="8.27809">
        <ele>690.6</ele>
        <time>2020-07-25T11:13:58Z</time>
      </trkpt>
      <trkpt lat="48.6145" lon="8.27809">
        <ele>690.4</ele>
        <time>2020-07-25T11:13:59Z</time>
      </trkpt>
      <trkpt lat="48.61459" lon="8.27803">
        <ele>690</ele>
        <time>2020-07-25T11:14:00Z</time>
      </trkpt>
      <trkpt lat="48.61463" lon="8.27803">
        <ele>689.6</ele>
        <time>2020-07-25T11:14:01Z</time>
      </trkpt>
      <trkpt lat="48.61466" lon="8.27802">
        <ele>689.2</ele>
        <time>2020-07-25T11:14:02Z</time>
      </trkpt>
      <trkpt lat="48.6148" lon="8.27802">
        <ele>687.8</ele>
        <time>2020-07-25T11:14:05Z</time>
      </trkpt>
      <trkpt lat="48.61485" lon="8.27802">
        <ele>687.8</ele>
        <time>2020-07-25T11:14:06Z</time>
      </trkpt>
      <trkpt lat="48.61503" lon="8.27802">
        <ele>686.6</ele>
        <time>2020-07-25T11:14:09Z</time>
      </trkpt>
      <trkpt lat="48.61517" lon="8.27798">
        <ele>686</ele>
        <time>2020-07-25T11:14:11Z</time>
      </trkpt>
      <trkpt lat="48.61531" lon="8.27788">
        <ele>685.4</ele>
        <time>2020-07-25T11:14:13Z</time>
      </trkpt>
      <trkpt lat="48.61544" lon="8.27776">
        <ele>684.4</ele>
        <time>2020-07-25T11:14:15Z</time>
      </trkpt>
      <trkpt lat="48.6155" lon="8.27768">
        <ele>683.6</ele>
        <time>2020-07-25T11:14:16Z</time>
      </trkpt>
      <trkpt lat="48.61563" lon="8.27752">
        <ele>682.2</ele>
        <time>2020-07-25T11:14:18Z</time>
      </trkpt>
      <trkpt lat="48.61575" lon="8.27736">
        <ele>680.6</ele>
        <time>2020-07-25T11:14:20Z</time>
      </trkpt>
      <trkpt lat="48.61581" lon="8.27731">
        <ele>680.2</ele>
        <time>2020-07-25T11:14:21Z</time>
      </trkpt>
      <trkpt lat="48.6159" lon="8.27721">
        <ele>679.6</ele>
        <time>2020-07-25T11:14:23Z</time>
      </trkpt>
      <trkpt lat="48.61598" lon="8.27712">
        <ele>678.4</ele>
        <time>2020-07-25T11:14:25Z</time>
      </trkpt>
      <trkpt lat="48.61602" lon="8.27708">
        <ele>677.6</ele>
        <time>2020-07-25T11:14:26Z</time>
      </trkpt>
      <trkpt lat="48.61606" lon="8.27704">
        <ele>676.8</ele>
        <time>2020-07-25T11:14:27Z</time>
      </trkpt>
      <trkpt lat="48.61617" lon="8.27691">
        <ele>676</ele>
        <time>2020-07-25T11:14:30Z</time>
      </trkpt>
      <trkpt lat="48.6162" lon="8.27686">
        <ele>675.8</ele>
        <time>2020-07-25T11:14:31Z</time>
      </trkpt>
      <trkpt lat="48.61627" lon="8.27674">
        <ele>675.2</ele>
        <time>2020-07-25T11:14:33Z</time>
      </trkpt>
      <trkpt lat="48.61642" lon="8.27648">
        <ele>674.4</ele>
        <time>2020-07-25T11:14:37Z</time>
      </trkpt>
      <trkpt lat="48.61647" lon="8.27641">
        <ele>674.2</ele>
        <time>2020-07-25T11:14:38Z</time>
      </trkpt>
      <trkpt lat="48.61654" lon="8.2763">
        <ele>673.6</ele>
        <time>2020-07-25T11:14:40Z</time>
      </trkpt>
      <trkpt lat="48.61657" lon="8.27624">
        <ele>673</ele>
        <time>2020-07-25T11:14:41Z</time>
      </trkpt>
      <trkpt lat="48.61665" lon="8.2761">
        <ele>671.4</ele>
        <time>2020-07-25T11:14:44Z</time>
      </trkpt>
      <trkpt lat="48.61678" lon="8.2759">
        <ele>670.2</ele>
        <time>2020-07-25T11:14:46Z</time>
      </trkpt>
      <trkpt lat="48.61688" lon="8.27568">
        <ele>668.8</ele>
        <time>2020-07-25T11:14:50Z</time>
      </trkpt>
      <trkpt lat="48.61698" lon="8.27543">
        <ele>667.8</ele>
        <time>2020-07-25T11:14:52Z</time>
      </trkpt>
      <trkpt lat="48.61705" lon="8.27527">
        <ele>667.2</ele>
        <time>2020-07-25T11:14:54Z</time>
      </trkpt>
      <trkpt lat="48.61713" lon="8.27511">
        <ele>666.8</ele>
        <time>2020-07-25T11:14:56Z</time>
      </trkpt>
      <trkpt lat="48.61725" lon="8.27482">
        <ele>665.4</ele>
        <time>2020-07-25T11:15:00Z</time>
      </trkpt>
      <trkpt lat="48.61732" lon="8.27468">
        <ele>664.4</ele>
        <time>2020-07-25T11:15:02Z</time>
      </trkpt>
      <trkpt lat="48.61738" lon="8.27455">
        <ele>663.2</ele>
        <time>2020-07-25T11:15:04Z</time>
      </trkpt>
      <trkpt lat="48.61754" lon="8.27428">
        <ele>662.2</ele>
        <time>2020-07-25T11:15:08Z</time>
      </trkpt>
      <trkpt lat="48.61762" lon="8.27414">
        <ele>661</ele>
        <time>2020-07-25T11:15:10Z</time>
      </trkpt>
      <trkpt lat="48.61778" lon="8.27395">
        <ele>659.6</ele>
        <time>2020-07-25T11:15:13Z</time>
      </trkpt>
      <trkpt lat="48.61784" lon="8.27389">
        <ele>659.2</ele>
        <time>2020-07-25T11:15:14Z</time>
      </trkpt>
      <trkpt lat="48.61797" lon="8.27378">
        <ele>658</ele>
        <time>2020-07-25T11:15:16Z</time>
      </trkpt>
      <trkpt lat="48.61809" lon="8.2737">
        <ele>656.8</ele>
        <time>2020-07-25T11:15:18Z</time>
      </trkpt>
      <trkpt lat="48.61823" lon="8.27359">
        <ele>656.2</ele>
        <time>2020-07-25T11:15:20Z</time>
      </trkpt>
      <trkpt lat="48.6183" lon="8.27354">
        <ele>655.8</ele>
        <time>2020-07-25T11:15:21Z</time>
      </trkpt>
      <trkpt lat="48.61836" lon="8.27348">
        <ele>654.8</ele>
        <time>2020-07-25T11:15:22Z</time>
      </trkpt>
      <trkpt lat="48.61845" lon="8.27331">
        <ele>653</ele>
        <time>2020-07-25T11:15:24Z</time>
      </trkpt>
      <trkpt lat="48.61854" lon="8.27313">
        <ele>652.4</ele>
        <time>2020-07-25T11:15:26Z</time>
      </trkpt>
      <trkpt lat="48.61858" lon="8.27302">
        <ele>651.8</ele>
        <time>2020-07-25T11:15:27Z</time>
      </trkpt>
      <trkpt lat="48.61865" lon="8.2728">
        <ele>651</ele>
        <time>2020-07-25T11:15:29Z</time>
      </trkpt>
      <trkpt lat="48.61868" lon="8.27268">
        <ele>650.4</ele>
        <time>2020-07-25T11:15:30Z</time>
      </trkpt>
      <trkpt lat="48.61874" lon="8.27243">
        <ele>649.2</ele>
        <time>2020-07-25T11:15:32Z</time>
      </trkpt>
      <trkpt lat="48.61879" lon="8.27222">
        <ele>648.4</ele>
        <time>2020-07-25T11:15:34Z</time>
      </trkpt>
      <trkpt lat="48.61881" lon="8.27214">
        <ele>647.8</ele>
        <time>2020-07-25T11:15:35Z</time>
      </trkpt>
      <trkpt lat="48.61885" lon="8.27203">
        <ele>647.2</ele>
        <time>2020-07-25T11:15:37Z</time>
      </trkpt>
      <trkpt lat="48.61886" lon="8.27199">
        <ele>646.4</ele>
        <time>2020-07-25T11:15:38Z</time>
      </trkpt>
      <trkpt lat="48.6189" lon="8.27194">
        <ele>645.8</ele>
        <time>2020-07-25T11:15:40Z</time>
      </trkpt>
      <trkpt lat="48.61893" lon="8.27193">
        <ele>645.8</ele>
        <time>2020-07-25T11:15:41Z</time>
      </trkpt>
      <trkpt lat="48.61915" lon="8.27196">
        <ele>645.4</ele>
        <time>2020-07-25T11:15:47Z</time>
      </trkpt>
      <trkpt lat="48.61935" lon="8.2721">
        <ele>645.2</ele>
        <time>2020-07-25T11:15:53Z</time>
      </trkpt>
      <trkpt lat="48.61944" lon="8.27211">
        <ele>645.2</ele>
        <time>2020-07-25T11:15:57Z</time>
      </trkpt>
      <trkpt lat="48.61953" lon="8.27204">
        <ele>645.4</ele>
        <time>2020-07-25T11:16:02Z</time>
      </trkpt>
      <trkpt lat="48.61961" lon="8.2719">
        <ele>645.8</ele>
        <time>2020-07-25T11:16:07Z</time>
      </trkpt>
      <trkpt lat="48.61967" lon="8.27173">
        <ele>646.4</ele>
        <time>2020-07-25T11:16:11Z</time>
      </trkpt>
      <trkpt lat="48.61972" lon="8.2716">
        <ele>647.2</ele>
        <time>2020-07-25T11:16:14Z</time>
      </trkpt>
      <trkpt lat="48.61981" lon="8.27143">
        <ele>647.6</ele>
        <time>2020-07-25T11:16:18Z</time>
      </trkpt>
      <trkpt lat="48.61997" lon="8.27115">
        <ele>648.6</ele>
        <time>2020-07-25T11:16:25Z</time>
      </trkpt>
      <trkpt lat="48.62002" lon="8.27108">
        <ele>648.8</ele>
        <time>2020-07-25T11:16:27Z</time>
      </trkpt>
      <trkpt lat="48.62014" lon="8.27088">
        <ele>648.8</ele>
        <time>2020-07-25T11:16:32Z</time>
      </trkpt>
      <trkpt lat="48.62032" lon="8.27057">
        <ele>649.8</ele>
        <time>2020-07-25T11:16:40Z</time>
      </trkpt>
      <trkpt lat="48.62037" lon="8.27049">
        <ele>650.2</ele>
        <time>2020-07-25T11:16:42Z</time>
      </trkpt>
      <trkpt lat="48.62064" lon="8.2701">
        <ele>651.2</ele>
        <time>2020-07-25T11:16:53Z</time>
      </trkpt>
      <trkpt lat="48.62066" lon="8.27007">
        <ele>651.4</ele>
        <time>2020-07-25T11:16:54Z</time>
      </trkpt>
      <trkpt lat="48.62069" lon="8.26999">
        <ele>651.8</ele>
        <time>2020-07-25T11:16:56Z</time>
      </trkpt>
      <trkpt lat="48.62077" lon="8.26986">
        <ele>652.2</ele>
        <time>2020-07-25T11:17:00Z</time>
      </trkpt>
      <trkpt lat="48.6208" lon="8.26983">
        <ele>652.2</ele>
        <time>2020-07-25T11:17:01Z</time>
      </trkpt>
      <trkpt lat="48.62089" lon="8.26965">
        <ele>653.2</ele>
        <time>2020-07-25T11:17:07Z</time>
      </trkpt>
      <trkpt lat="48.62091" lon="8.26956">
        <ele>653.2</ele>
        <time>2020-07-25T11:17:10Z</time>
      </trkpt>
      <trkpt lat="48.62091" lon="8.26954">
        <ele>653.2</ele>
        <time>2020-07-25T11:17:11Z</time>
      </trkpt>
      <trkpt lat="48.6209" lon="8.26953">
        <ele>653.2</ele>
        <time>2020-07-25T11:17:12Z</time>
      </trkpt>
      <trkpt lat="48.62085" lon="8.26954">
        <ele>653.2</ele>
        <time>2020-07-25T11:17:15Z</time>
      </trkpt>
      <trkpt lat="48.62085" lon="8.26955">
        <ele>653</ele>
        <time>2020-07-25T11:17:18Z</time>
      </trkpt>
      <trkpt lat="48.62082" lon="8.26954">
        <ele>652.2</ele>
        <time>2020-07-25T11:18:16Z</time>
      </trkpt>
      <trkpt lat="48.62085" lon="8.26949">
        <ele>652.2</ele>
        <time>2020-07-25T11:18:19Z</time>
      </trkpt>
      <trkpt lat="48.62088" lon="8.26952">
        <ele>652.2</ele>
        <time>2020-07-25T11:18:21Z</time>
      </trkpt>
      <trkpt lat="48.62089" lon="8.26955">
        <ele>652.2</ele>
        <time>2020-07-25T11:18:22Z</time>
      </trkpt>
      <trkpt lat="48.62088" lon="8.26959">
        <ele>652.2</ele>
        <time>2020-07-25T11:18:23Z</time>
      </trkpt>
      <trkpt lat="48.62082" lon="8.26981">
        <ele>652.2</ele>
        <time>2020-07-25T11:18:29Z</time>
      </trkpt>
      <trkpt lat="48.62069" lon="8.27001">
        <ele>653.2</ele>
        <time>2020-07-25T11:18:34Z</time>
      </trkpt>
      <trkpt lat="48.62062" lon="8.27008">
        <ele>653.4</ele>
        <time>2020-07-25T11:18:36Z</time>
      </trkpt>
      <trkpt lat="48.62051" lon="8.27023">
        <ele>653.4</ele>
        <time>2020-07-25T11:18:39Z</time>
      </trkpt>
      <trkpt lat="48.62028" lon="8.27059">
        <ele>653.2</ele>
        <time>2020-07-25T11:18:45Z</time>
      </trkpt>
      <trkpt lat="48.62002" lon="8.27102">
        <ele>652.2</ele>
        <time>2020-07-25T11:18:51Z</time>
      </trkpt>
      <trkpt lat="48.61997" lon="8.27109">
        <ele>651.6</ele>
        <time>2020-07-25T11:18:52Z</time>
      </trkpt>
      <trkpt lat="48.6198" lon="8.27138">
        <ele>651</ele>
        <time>2020-07-25T11:18:56Z</time>
      </trkpt>
      <trkpt lat="48.61973" lon="8.27151">
        <ele>650.2</ele>
        <time>2020-07-25T11:18:58Z</time>
      </trkpt>
      <trkpt lat="48.61967" lon="8.27166">
        <ele>649.8</ele>
        <time>2020-07-25T11:19:00Z</time>
      </trkpt>
      <trkpt lat="48.61958" lon="8.27188">
        <ele>648.8</ele>
        <time>2020-07-25T11:19:03Z</time>
      </trkpt>
      <trkpt lat="48.61955" lon="8.27194">
        <ele>648.6</ele>
        <time>2020-07-25T11:19:04Z</time>
      </trkpt>
      <trkpt lat="48.61951" lon="8.27199">
        <ele>648.2</ele>
        <time>2020-07-25T11:19:05Z</time>
      </trkpt>
      <trkpt lat="48.61946" lon="8.27203">
        <ele>647.8</ele>
        <time>2020-07-25T11:19:06Z</time>
      </trkpt>
      <trkpt lat="48.61939" lon="8.27204">
        <ele>647.4</ele>
        <time>2020-07-25T11:19:07Z</time>
      </trkpt>
      <trkpt lat="48.61933" lon="8.27204">
        <ele>647.2</ele>
        <time>2020-07-25T11:19:08Z</time>
      </trkpt>
      <trkpt lat="48.61907" lon="8.27195">
        <ele>646.8</ele>
        <time>2020-07-25T11:19:12Z</time>
      </trkpt>
      <trkpt lat="48.61901" lon="8.27194">
        <ele>646.4</ele>
        <time>2020-07-25T11:19:13Z</time>
      </trkpt>
      <trkpt lat="48.61883" lon="8.27195">
        <ele>645.2</ele>
        <time>2020-07-25T11:19:17Z</time>
      </trkpt>
      <trkpt lat="48.61881" lon="8.27195">
        <ele>645</ele>
        <time>2020-07-25T11:19:20Z</time>
      </trkpt>
      <trkpt lat="48.61879" lon="8.27191">
        <ele>646</ele>
        <time>2020-07-25T11:20:21Z</time>
      </trkpt>
      <trkpt lat="48.61878" lon="8.27182">
        <ele>646</ele>
        <time>2020-07-25T11:20:24Z</time>
      </trkpt>
      <trkpt lat="48.61877" lon="8.27178">
        <ele>646</ele>
        <time>2020-07-25T11:20:25Z</time>
      </trkpt>
      <trkpt lat="48.61874" lon="8.27166">
        <ele>646</ele>
        <time>2020-07-25T11:20:28Z</time>
      </trkpt>
      <trkpt lat="48.61871" lon="8.2714">
        <ele>646.4</ele>
        <time>2020-07-25T11:20:34Z</time>
      </trkpt>
      <trkpt lat="48.61873" lon="8.27107">
        <ele>647.4</ele>
        <time>2020-07-25T11:20:41Z</time>
      </trkpt>
      <trkpt lat="48.61875" lon="8.27097">
        <ele>647.4</ele>
        <time>2020-07-25T11:20:44Z</time>
      </trkpt>
      <trkpt lat="48.61875" lon="8.27093">
        <ele>647.4</ele>
        <time>2020-07-25T11:20:46Z</time>
      </trkpt>
      <trkpt lat="48.61875" lon="8.27092">
        <ele>647.6</ele>
        <time>2020-07-25T11:20:49Z</time>
      </trkpt>
      <trkpt lat="48.61878" lon="8.27085">
        <ele>649</ele>
        <time>2020-07-25T11:27:01Z</time>
      </trkpt>
      <trkpt lat="48.61878" lon="8.27083">
        <ele>649</ele>
        <time>2020-07-25T11:27:02Z</time>
      </trkpt>
      <trkpt lat="48.61879" lon="8.2708">
        <ele>649</ele>
        <time>2020-07-25T11:27:03Z</time>
      </trkpt>
      <trkpt lat="48.61883" lon="8.27068">
        <ele>649</ele>
        <time>2020-07-25T11:27:06Z</time>
      </trkpt>
      <trkpt lat="48.61895" lon="8.27034">
        <ele>649</ele>
        <time>2020-07-25T11:27:13Z</time>
      </trkpt>
      <trkpt lat="48.61907" lon="8.27004">
        <ele>649</ele>
        <time>2020-07-25T11:27:19Z</time>
      </trkpt>
      <trkpt lat="48.61918" lon="8.2698">
        <ele>649.4</ele>
        <time>2020-07-25T11:27:24Z</time>
      </trkpt>
      <trkpt lat="48.6193" lon="8.26955">
        <ele>649.8</ele>
        <time>2020-07-25T11:27:29Z</time>
      </trkpt>
      <trkpt lat="48.61939" lon="8.26941">
        <ele>649.8</ele>
        <time>2020-07-25T11:27:32Z</time>
      </trkpt>
      <trkpt lat="48.61942" lon="8.26937">
        <ele>649.8</ele>
        <time>2020-07-25T11:27:33Z</time>
      </trkpt>
      <trkpt lat="48.6195" lon="8.26929">
        <ele>649.8</ele>
        <time>2020-07-25T11:27:35Z</time>
      </trkpt>
      <trkpt lat="48.61959" lon="8.26921">
        <ele>650</ele>
        <time>2020-07-25T11:27:38Z</time>
      </trkpt>
      <trkpt lat="48.61967" lon="8.26915">
        <ele>650</ele>
        <time>2020-07-25T11:27:40Z</time>
      </trkpt>
      <trkpt lat="48.61971" lon="8.26913">
        <ele>650</ele>
        <time>2020-07-25T11:27:41Z</time>
      </trkpt>
      <trkpt lat="48.61974" lon="8.2691">
        <ele>650</ele>
        <time>2020-07-25T11:27:42Z</time>
      </trkpt>
      <trkpt lat="48.61995" lon="8.26882">
        <ele>650.6</ele>
        <time>2020-07-25T11:27:49Z</time>
      </trkpt>
      <trkpt lat="48.62008" lon="8.26847">
        <ele>651</ele>
        <time>2020-07-25T11:27:56Z</time>
      </trkpt>
      <trkpt lat="48.62022" lon="8.268">
        <ele>651.4</ele>
        <time>2020-07-25T11:28:05Z</time>
      </trkpt>
      <trkpt lat="48.62039" lon="8.26759">
        <ele>652</ele>
        <time>2020-07-25T11:28:13Z</time>
      </trkpt>
      <trkpt lat="48.62044" lon="8.26742">
        <ele>652</ele>
        <time>2020-07-25T11:28:16Z</time>
      </trkpt>
      <trkpt lat="48.62049" lon="8.26718">
        <ele>652</ele>
        <time>2020-07-25T11:28:20Z</time>
      </trkpt>
      <trkpt lat="48.62054" lon="8.26668">
        <ele>652.4</ele>
        <time>2020-07-25T11:28:28Z</time>
      </trkpt>
      <trkpt lat="48.62054" lon="8.26662">
        <ele>652.4</ele>
        <time>2020-07-25T11:28:29Z</time>
      </trkpt>
      <trkpt lat="48.62057" lon="8.26643">
        <ele>652.8</ele>
        <time>2020-07-25T11:28:32Z</time>
      </trkpt>
      <trkpt lat="48.6206" lon="8.26631">
        <ele>652.8</ele>
        <time>2020-07-25T11:28:34Z</time>
      </trkpt>
      <trkpt lat="48.62073" lon="8.26606">
        <ele>653</ele>
        <time>2020-07-25T11:28:39Z</time>
      </trkpt>
      <trkpt lat="48.62075" lon="8.26602">
        <ele>653</ele>
        <time>2020-07-25T11:28:40Z</time>
      </trkpt>
      <trkpt lat="48.62091" lon="8.26582">
        <ele>653.4</ele>
        <time>2020-07-25T11:28:45Z</time>
      </trkpt>
      <trkpt lat="48.62099" lon="8.26575">
        <ele>653.6</ele>
        <time>2020-07-25T11:28:47Z</time>
      </trkpt>
      <trkpt lat="48.62118" lon="8.26561">
        <ele>654</ele>
        <time>2020-07-25T11:28:52Z</time>
      </trkpt>
      <trkpt lat="48.62127" lon="8.26552">
        <ele>654.2</ele>
        <time>2020-07-25T11:28:55Z</time>
      </trkpt>
      <trkpt lat="48.62139" lon="8.26536">
        <ele>654.6</ele>
        <time>2020-07-25T11:28:59Z</time>
      </trkpt>
      <trkpt lat="48.62152" lon="8.2652">
        <ele>655</ele>
        <time>2020-07-25T11:29:03Z</time>
      </trkpt>
      <trkpt lat="48.62169" lon="8.2649">
        <ele>655.6</ele>
        <time>2020-07-25T11:29:09Z</time>
      </trkpt>
      <trkpt lat="48.6217" lon="8.26486">
        <ele>655.6</ele>
        <time>2020-07-25T11:29:10Z</time>
      </trkpt>
      <trkpt lat="48.62174" lon="8.26472">
        <ele>655.8</ele>
        <time>2020-07-25T11:29:12Z</time>
      </trkpt>
      <trkpt lat="48.62176" lon="8.2646">
        <ele>655.8</ele>
        <time>2020-07-25T11:29:14Z</time>
      </trkpt>
      <trkpt lat="48.62183" lon="8.26422">
        <ele>656.2</ele>
        <time>2020-07-25T11:29:20Z</time>
      </trkpt>
      <trkpt lat="48.62183" lon="8.26416">
        <ele>656.4</ele>
        <time>2020-07-25T11:29:21Z</time>
      </trkpt>
      <trkpt lat="48.62187" lon="8.26389">
        <ele>656.4</ele>
        <time>2020-07-25T11:29:25Z</time>
      </trkpt>
      <trkpt lat="48.6219" lon="8.26377">
        <ele>656.6</ele>
        <time>2020-07-25T11:29:27Z</time>
      </trkpt>
      <trkpt lat="48.62192" lon="8.26371">
        <ele>656.6</ele>
        <time>2020-07-25T11:29:28Z</time>
      </trkpt>
      <trkpt lat="48.62194" lon="8.26365">
        <ele>656.6</ele>
        <time>2020-07-25T11:29:29Z</time>
      </trkpt>
      <trkpt lat="48.62199" lon="8.26348">
        <ele>656.6</ele>
        <time>2020-07-25T11:29:32Z</time>
      </trkpt>
      <trkpt lat="48.622" lon="8.26342">
        <ele>656.6</ele>
        <time>2020-07-25T11:29:33Z</time>
      </trkpt>
      <trkpt lat="48.62202" lon="8.26337">
        <ele>656.6</ele>
        <time>2020-07-25T11:29:34Z</time>
      </trkpt>
      <trkpt lat="48.62208" lon="8.26319">
        <ele>656.8</ele>
        <time>2020-07-25T11:29:37Z</time>
      </trkpt>
      <trkpt lat="48.62216" lon="8.26296">
        <ele>657</ele>
        <time>2020-07-25T11:29:41Z</time>
      </trkpt>
      <trkpt lat="48.62221" lon="8.26277">
        <ele>657.4</ele>
        <time>2020-07-25T11:29:44Z</time>
      </trkpt>
      <trkpt lat="48.62222" lon="8.2627">
        <ele>657.6</ele>
        <time>2020-07-25T11:29:45Z</time>
      </trkpt>
      <trkpt lat="48.62225" lon="8.26264">
        <ele>657.8</ele>
        <time>2020-07-25T11:29:46Z</time>
      </trkpt>
      <trkpt lat="48.62246" lon="8.26206">
        <ele>658.4</ele>
        <time>2020-07-25T11:29:56Z</time>
      </trkpt>
      <trkpt lat="48.62253" lon="8.26184">
        <ele>658.6</ele>
        <time>2020-07-25T11:30:00Z</time>
      </trkpt>
      <trkpt lat="48.62255" lon="8.26179">
        <ele>658.6</ele>
        <time>2020-07-25T11:30:01Z</time>
      </trkpt>
      <trkpt lat="48.6226" lon="8.26168">
        <ele>658.8</ele>
        <time>2020-07-25T11:30:03Z</time>
      </trkpt>
      <trkpt lat="48.62263" lon="8.26164">
        <ele>658.8</ele>
        <time>2020-07-25T11:30:04Z</time>
      </trkpt>
      <trkpt lat="48.62266" lon="8.26159">
        <ele>658.8</ele>
        <time>2020-07-25T11:30:05Z</time>
      </trkpt>
      <trkpt lat="48.62277" lon="8.26142">
        <ele>659</ele>
        <time>2020-07-25T11:30:09Z</time>
      </trkpt>
      <trkpt lat="48.6228" lon="8.26139">
        <ele>659</ele>
        <time>2020-07-25T11:30:10Z</time>
      </trkpt>
      <trkpt lat="48.62307" lon="8.26106">
        <ele>659.6</ele>
        <time>2020-07-25T11:30:19Z</time>
      </trkpt>
      <trkpt lat="48.62313" lon="8.26097">
        <ele>659.6</ele>
        <time>2020-07-25T11:30:21Z</time>
      </trkpt>
      <trkpt lat="48.62318" lon="8.26081">
        <ele>659.8</ele>
        <time>2020-07-25T11:30:24Z</time>
      </trkpt>
      <trkpt lat="48.62326" lon="8.26039">
        <ele>660</ele>
        <time>2020-07-25T11:30:31Z</time>
      </trkpt>
      <trkpt lat="48.62328" lon="8.26027">
        <ele>660</ele>
        <time>2020-07-25T11:30:33Z</time>
      </trkpt>
      <trkpt lat="48.62338" lon="8.26">
        <ele>660.2</ele>
        <time>2020-07-25T11:30:38Z</time>
      </trkpt>
      <trkpt lat="48.62343" lon="8.2599">
        <ele>660.2</ele>
        <time>2020-07-25T11:30:40Z</time>
      </trkpt>
      <trkpt lat="48.62353" lon="8.25975">
        <ele>660.4</ele>
        <time>2020-07-25T11:30:43Z</time>
      </trkpt>
      <trkpt lat="48.6236" lon="8.25966">
        <ele>660.6</ele>
        <time>2020-07-25T11:30:45Z</time>
      </trkpt>
      <trkpt lat="48.62363" lon="8.25961">
        <ele>660.6</ele>
        <time>2020-07-25T11:30:46Z</time>
      </trkpt>
      <trkpt lat="48.62369" lon="8.25952">
        <ele>660.6</ele>
        <time>2020-07-25T11:30:48Z</time>
      </trkpt>
      <trkpt lat="48.62382" lon="8.25927">
        <ele>661</ele>
        <time>2020-07-25T11:30:53Z</time>
      </trkpt>
      <trkpt lat="48.62389" lon="8.25912">
        <ele>661.4</ele>
        <time>2020-07-25T11:30:56Z</time>
      </trkpt>
      <trkpt lat="48.62406" lon="8.25876">
        <ele>662.2</ele>
        <time>2020-07-25T11:31:03Z</time>
      </trkpt>
      <trkpt lat="48.62421" lon="8.2585">
        <ele>662.6</ele>
        <time>2020-07-25T11:31:09Z</time>
      </trkpt>
      <trkpt lat="48.62424" lon="8.25846">
        <ele>662.6</ele>
        <time>2020-07-25T11:31:10Z</time>
      </trkpt>
      <trkpt lat="48.62434" lon="8.25825">
        <ele>663.6</ele>
        <time>2020-07-25T11:31:16Z</time>
      </trkpt>
      <trkpt lat="48.62436" lon="8.2582">
        <ele>663.6</ele>
        <time>2020-07-25T11:31:18Z</time>
      </trkpt>
      <trkpt lat="48.6244" lon="8.2581">
        <ele>664.4</ele>
        <time>2020-07-25T11:31:22Z</time>
      </trkpt>
      <trkpt lat="48.62442" lon="8.25808">
        <ele>664.8</ele>
        <time>2020-07-25T11:31:23Z</time>
      </trkpt>
      <trkpt lat="48.62445" lon="8.25798">
        <ele>665.4</ele>
        <time>2020-07-25T11:31:27Z</time>
      </trkpt>
      <trkpt lat="48.62447" lon="8.25791">
        <ele>665.8</ele>
        <time>2020-07-25T11:31:29Z</time>
      </trkpt>
      <trkpt lat="48.62448" lon="8.25789">
        <ele>665.8</ele>
        <time>2020-07-25T11:31:30Z</time>
      </trkpt>
      <trkpt lat="48.62458" lon="8.25765">
        <ele>666.2</ele>
        <time>2020-07-25T11:31:37Z</time>
      </trkpt>
      <trkpt lat="48.62472" lon="8.25742">
        <ele>666.8</ele>
        <time>2020-07-25T11:31:43Z</time>
      </trkpt>
      <trkpt lat="48.62488" lon="8.25716">
        <ele>666.8</ele>
        <time>2020-07-25T11:31:49Z</time>
      </trkpt>
      <trkpt lat="48.62504" lon="8.25693">
        <ele>667</ele>
        <time>2020-07-25T11:31:54Z</time>
      </trkpt>
      <trkpt lat="48.62515" lon="8.25681">
        <ele>667</ele>
        <time>2020-07-25T11:31:57Z</time>
      </trkpt>
      <trkpt lat="48.62538" lon="8.25658">
        <ele>667</ele>
        <time>2020-07-25T11:32:04Z</time>
      </trkpt>
      <trkpt lat="48.62542" lon="8.25651">
        <ele>667</ele>
        <time>2020-07-25T11:32:07Z</time>
      </trkpt>
      <trkpt lat="48.62544" lon="8.25652">
        <ele>667</ele>
        <time>2020-07-25T11:32:08Z</time>
      </trkpt>
      <trkpt lat="48.62549" lon="8.25671">
        <ele>667.2</ele>
        <time>2020-07-25T11:32:12Z</time>
      </trkpt>
      <trkpt lat="48.62552" lon="8.25676">
        <ele>667.2</ele>
        <time>2020-07-25T11:32:13Z</time>
      </trkpt>
      <trkpt lat="48.62563" lon="8.25696">
        <ele>667.2</ele>
        <time>2020-07-25T11:32:17Z</time>
      </trkpt>
      <trkpt lat="48.62573" lon="8.25709">
        <ele>667.2</ele>
        <time>2020-07-25T11:32:20Z</time>
      </trkpt>
      <trkpt lat="48.62582" lon="8.25712">
        <ele>667.4</ele>
        <time>2020-07-25T11:32:22Z</time>
      </trkpt>
      <trkpt lat="48.6259" lon="8.25703">
        <ele>667.6</ele>
        <time>2020-07-25T11:32:25Z</time>
      </trkpt>
      <trkpt lat="48.62602" lon="8.2568">
        <ele>667.6</ele>
        <time>2020-07-25T11:32:31Z</time>
      </trkpt>
      <trkpt lat="48.62606" lon="8.25667">
        <ele>668</ele>
        <time>2020-07-25T11:32:34Z</time>
      </trkpt>
      <trkpt lat="48.62621" lon="8.25638">
        <ele>669</ele>
        <time>2020-07-25T11:32:41Z</time>
      </trkpt>
      <trkpt lat="48.62624" lon="8.25634">
        <ele>669</ele>
        <time>2020-07-25T11:32:42Z</time>
      </trkpt>
      <trkpt lat="48.62638" lon="8.25615">
        <ele>669.6</ele>
        <time>2020-07-25T11:32:48Z</time>
      </trkpt>
      <trkpt lat="48.62648" lon="8.25607">
        <ele>670.2</ele>
        <time>2020-07-25T11:32:52Z</time>
      </trkpt>
      <trkpt lat="48.62657" lon="8.256">
        <ele>670.8</ele>
        <time>2020-07-25T11:32:55Z</time>
      </trkpt>
      <trkpt lat="48.62672" lon="8.25591">
        <ele>671.2</ele>
        <time>2020-07-25T11:33:00Z</time>
      </trkpt>
      <trkpt lat="48.62681" lon="8.25586">
        <ele>671.6</ele>
        <time>2020-07-25T11:33:03Z</time>
      </trkpt>
      <trkpt lat="48.6269" lon="8.25582">
        <ele>672.4</ele>
        <time>2020-07-25T11:33:06Z</time>
      </trkpt>
      <trkpt lat="48.6271" lon="8.25578">
        <ele>673.2</ele>
        <time>2020-07-25T11:33:12Z</time>
      </trkpt>
      <trkpt lat="48.62717" lon="8.25577">
        <ele>673.4</ele>
        <time>2020-07-25T11:33:14Z</time>
      </trkpt>
      <trkpt lat="48.62737" lon="8.25576">
        <ele>674.4</ele>
        <time>2020-07-25T11:33:20Z</time>
      </trkpt>
      <trkpt lat="48.6274" lon="8.25575">
        <ele>674.4</ele>
        <time>2020-07-25T11:33:21Z</time>
      </trkpt>
      <trkpt lat="48.62757" lon="8.25574">
        <ele>674.8</ele>
        <time>2020-07-25T11:33:27Z</time>
      </trkpt>
      <trkpt lat="48.62767" lon="8.25569">
        <ele>675.6</ele>
        <time>2020-07-25T11:33:31Z</time>
      </trkpt>
      <trkpt lat="48.62776" lon="8.25564">
        <ele>675.8</ele>
        <time>2020-07-25T11:33:34Z</time>
      </trkpt>
      <trkpt lat="48.62797" lon="8.25554">
        <ele>676.2</ele>
        <time>2020-07-25T11:33:41Z</time>
      </trkpt>
      <trkpt lat="48.62804" lon="8.25551">
        <ele>676.6</ele>
        <time>2020-07-25T11:33:43Z</time>
      </trkpt>
      <trkpt lat="48.62807" lon="8.25549">
        <ele>676.6</ele>
        <time>2020-07-25T11:33:44Z</time>
      </trkpt>
      <trkpt lat="48.62825" lon="8.25541">
        <ele>677</ele>
        <time>2020-07-25T11:33:50Z</time>
      </trkpt>
      <trkpt lat="48.62845" lon="8.2553">
        <ele>677.6</ele>
        <time>2020-07-25T11:33:57Z</time>
      </trkpt>
      <trkpt lat="48.62852" lon="8.25526">
        <ele>677.8</ele>
        <time>2020-07-25T11:33:59Z</time>
      </trkpt>
      <trkpt lat="48.62872" lon="8.25517">
        <ele>678.8</ele>
        <time>2020-07-25T11:34:05Z</time>
      </trkpt>
      <trkpt lat="48.62882" lon="8.25512">
        <ele>679</ele>
        <time>2020-07-25T11:34:08Z</time>
      </trkpt>
      <trkpt lat="48.62904" lon="8.25501">
        <ele>679.6</ele>
        <time>2020-07-25T11:34:15Z</time>
      </trkpt>
      <trkpt lat="48.6292" lon="8.25493">
        <ele>680</ele>
        <time>2020-07-25T11:34:20Z</time>
      </trkpt>
      <trkpt lat="48.62929" lon="8.2549">
        <ele>680.4</ele>
        <time>2020-07-25T11:34:23Z</time>
      </trkpt>
      <trkpt lat="48.62952" lon="8.25485">
        <ele>681.2</ele>
        <time>2020-07-25T11:34:30Z</time>
      </trkpt>
      <trkpt lat="48.62961" lon="8.25484">
        <ele>681.6</ele>
        <time>2020-07-25T11:34:33Z</time>
      </trkpt>
      <trkpt lat="48.62976" lon="8.25481">
        <ele>682.2</ele>
        <time>2020-07-25T11:34:38Z</time>
      </trkpt>
      <trkpt lat="48.62979" lon="8.2548">
        <ele>682.4</ele>
        <time>2020-07-25T11:34:39Z</time>
      </trkpt>
      <trkpt lat="48.62993" lon="8.25478">
        <ele>683.2</ele>
        <time>2020-07-25T11:34:44Z</time>
      </trkpt>
      <trkpt lat="48.63004" lon="8.25475">
        <ele>684.4</ele>
        <time>2020-07-25T11:34:48Z</time>
      </trkpt>
      <trkpt lat="48.63006" lon="8.25475">
        <ele>684.4</ele>
        <time>2020-07-25T11:34:49Z</time>
      </trkpt>
      <trkpt lat="48.6302" lon="8.25472">
        <ele>685.4</ele>
        <time>2020-07-25T11:34:54Z</time>
      </trkpt>
      <trkpt lat="48.63028" lon="8.25469">
        <ele>685.8</ele>
        <time>2020-07-25T11:34:57Z</time>
      </trkpt>
      <trkpt lat="48.63042" lon="8.25465">
        <ele>686.4</ele>
        <time>2020-07-25T11:35:02Z</time>
      </trkpt>
      <trkpt lat="48.6305" lon="8.25463">
        <ele>686.8</ele>
        <time>2020-07-25T11:35:05Z</time>
      </trkpt>
      <trkpt lat="48.63063" lon="8.25457">
        <ele>687.6</ele>
        <time>2020-07-25T11:35:10Z</time>
      </trkpt>
      <trkpt lat="48.6307" lon="8.25454">
        <ele>688.2</ele>
        <time>2020-07-25T11:35:13Z</time>
      </trkpt>
      <trkpt lat="48.6308" lon="8.25449">
        <ele>688.6</ele>
        <time>2020-07-25T11:35:17Z</time>
      </trkpt>
      <trkpt lat="48.63091" lon="8.25444">
        <ele>689.2</ele>
        <time>2020-07-25T11:35:21Z</time>
      </trkpt>
      <trkpt lat="48.63098" lon="8.2544">
        <ele>689.8</ele>
        <time>2020-07-25T11:35:24Z</time>
      </trkpt>
      <trkpt lat="48.63112" lon="8.25435">
        <ele>690.2</ele>
        <time>2020-07-25T11:35:29Z</time>
      </trkpt>
      <trkpt lat="48.63126" lon="8.25429">
        <ele>690.8</ele>
        <time>2020-07-25T11:35:35Z</time>
      </trkpt>
      <trkpt lat="48.63129" lon="8.25428">
        <ele>691</ele>
        <time>2020-07-25T11:35:36Z</time>
      </trkpt>
      <trkpt lat="48.63136" lon="8.25425">
        <ele>692</ele>
        <time>2020-07-25T11:35:39Z</time>
      </trkpt>
      <trkpt lat="48.63149" lon="8.25422">
        <ele>692.6</ele>
        <time>2020-07-25T11:35:44Z</time>
      </trkpt>
      <trkpt lat="48.63154" lon="8.25421">
        <ele>693.2</ele>
        <time>2020-07-25T11:35:46Z</time>
      </trkpt>
      <trkpt lat="48.63167" lon="8.25418">
        <ele>694</ele>
        <time>2020-07-25T11:35:51Z</time>
      </trkpt>
      <trkpt lat="48.63172" lon="8.25415">
        <ele>694.2</ele>
        <time>2020-07-25T11:35:53Z</time>
      </trkpt>
      <trkpt lat="48.63182" lon="8.2541">
        <ele>694.8</ele>
        <time>2020-07-25T11:35:57Z</time>
      </trkpt>
      <trkpt lat="48.63186" lon="8.25406">
        <ele>695</ele>
        <time>2020-07-25T11:35:59Z</time>
      </trkpt>
      <trkpt lat="48.6319" lon="8.25403">
        <ele>695.2</ele>
        <time>2020-07-25T11:36:01Z</time>
      </trkpt>
      <trkpt lat="48.63203" lon="8.25395">
        <ele>696.2</ele>
        <time>2020-07-25T11:36:07Z</time>
      </trkpt>
      <trkpt lat="48.63213" lon="8.25392">
        <ele>697.4</ele>
        <time>2020-07-25T11:36:11Z</time>
      </trkpt>
      <trkpt lat="48.63223" lon="8.25389">
        <ele>698.4</ele>
        <time>2020-07-25T11:36:16Z</time>
      </trkpt>
      <trkpt lat="48.63228" lon="8.25388">
        <ele>698.8</ele>
        <time>2020-07-25T11:36:18Z</time>
      </trkpt>
      <trkpt lat="48.63241" lon="8.25387">
        <ele>699.4</ele>
        <time>2020-07-25T11:36:23Z</time>
      </trkpt>
      <trkpt lat="48.63251" lon="8.25389">
        <ele>700</ele>
        <time>2020-07-25T11:36:28Z</time>
      </trkpt>
      <trkpt lat="48.63257" lon="8.2539">
        <ele>700.6</ele>
        <time>2020-07-25T11:36:31Z</time>
      </trkpt>
      <trkpt lat="48.63267" lon="8.25394">
        <ele>701.6</ele>
        <time>2020-07-25T11:36:35Z</time>
      </trkpt>
      <trkpt lat="48.63269" lon="8.25395">
        <ele>701.8</ele>
        <time>2020-07-25T11:36:36Z</time>
      </trkpt>
      <trkpt lat="48.63279" lon="8.25399">
        <ele>702.8</ele>
        <time>2020-07-25T11:36:40Z</time>
      </trkpt>
      <trkpt lat="48.63287" lon="8.25403">
        <ele>703.4</ele>
        <time>2020-07-25T11:36:44Z</time>
      </trkpt>
      <trkpt lat="48.63293" lon="8.25406">
        <ele>703.8</ele>
        <time>2020-07-25T11:36:47Z</time>
      </trkpt>
      <trkpt lat="48.633" lon="8.25409">
        <ele>704.4</ele>
        <time>2020-07-25T11:36:50Z</time>
      </trkpt>
      <trkpt lat="48.63304" lon="8.25411">
        <ele>704.8</ele>
        <time>2020-07-25T11:36:52Z</time>
      </trkpt>
      <trkpt lat="48.63313" lon="8.25409">
        <ele>705.6</ele>
        <time>2020-07-25T11:36:56Z</time>
      </trkpt>
      <trkpt lat="48.63321" lon="8.25402">
        <ele>705.8</ele>
        <time>2020-07-25T11:37:00Z</time>
      </trkpt>
      <trkpt lat="48.63326" lon="8.25395">
        <ele>706.4</ele>
        <time>2020-07-25T11:37:03Z</time>
      </trkpt>
      <trkpt lat="48.63328" lon="8.25389">
        <ele>707</ele>
        <time>2020-07-25T11:37:05Z</time>
      </trkpt>
      <trkpt lat="48.63335" lon="8.25372">
        <ele>707.8</ele>
        <time>2020-07-25T11:37:11Z</time>
      </trkpt>
      <trkpt lat="48.63336" lon="8.2537">
        <ele>708</ele>
        <time>2020-07-25T11:37:12Z</time>
      </trkpt>
      <trkpt lat="48.63341" lon="8.25356">
        <ele>709</ele>
        <time>2020-07-25T11:37:17Z</time>
      </trkpt>
      <trkpt lat="48.63342" lon="8.25353">
        <ele>709.4</ele>
        <time>2020-07-25T11:37:18Z</time>
      </trkpt>
      <trkpt lat="48.63347" lon="8.25338">
        <ele>710</ele>
        <time>2020-07-25T11:37:23Z</time>
      </trkpt>
      <trkpt lat="48.63354" lon="8.25329">
        <ele>710.8</ele>
        <time>2020-07-25T11:37:27Z</time>
      </trkpt>
      <trkpt lat="48.63368" lon="8.25322">
        <ele>711.2</ele>
        <time>2020-07-25T11:37:33Z</time>
      </trkpt>
      <trkpt lat="48.63371" lon="8.25322">
        <ele>711.2</ele>
        <time>2020-07-25T11:37:34Z</time>
      </trkpt>
      <trkpt lat="48.63389" lon="8.25326">
        <ele>712.2</ele>
        <time>2020-07-25T11:37:43Z</time>
      </trkpt>
      <trkpt lat="48.63402" lon="8.25335">
        <ele>713.2</ele>
        <time>2020-07-25T11:37:49Z</time>
      </trkpt>
      <trkpt lat="48.63418" lon="8.25342">
        <ele>714.2</ele>
        <time>2020-07-25T11:37:56Z</time>
      </trkpt>
      <trkpt lat="48.63421" lon="8.25343">
        <ele>714.4</ele>
        <time>2020-07-25T11:37:57Z</time>
      </trkpt>
      <trkpt lat="48.63431" lon="8.25346">
        <ele>715.4</ele>
        <time>2020-07-25T11:38:02Z</time>
      </trkpt>
      <trkpt lat="48.63436" lon="8.25345">
        <ele>715.6</ele>
        <time>2020-07-25T11:38:04Z</time>
      </trkpt>
      <trkpt lat="48.6345" lon="8.25341">
        <ele>716.4</ele>
        <time>2020-07-25T11:38:11Z</time>
      </trkpt>
      <trkpt lat="48.63453" lon="8.25339">
        <ele>716.6</ele>
        <time>2020-07-25T11:38:13Z</time>
      </trkpt>
      <trkpt lat="48.63457" lon="8.25337">
        <ele>717.2</ele>
        <time>2020-07-25T11:38:16Z</time>
      </trkpt>
      <trkpt lat="48.63458" lon="8.25337">
        <ele>717.4</ele>
        <time>2020-07-25T11:38:17Z</time>
      </trkpt>
      <trkpt lat="48.6346" lon="8.25336">
        <ele>717.8</ele>
        <time>2020-07-25T11:38:19Z</time>
      </trkpt>
      <trkpt lat="48.63464" lon="8.25337">
        <ele>718.2</ele>
        <time>2020-07-25T11:38:22Z</time>
      </trkpt>
      <trkpt lat="48.63467" lon="8.25335">
        <ele>718.6</ele>
        <time>2020-07-25T11:38:24Z</time>
      </trkpt>
      <trkpt lat="48.63468" lon="8.25335">
        <ele>718.6</ele>
        <time>2020-07-25T11:38:25Z</time>
      </trkpt>
      <trkpt lat="48.63468" lon="8.25335">
        <ele>718.8</ele>
        <time>2020-07-25T11:38:28Z</time>
      </trkpt>
      <trkpt lat="48.63471" lon="8.25336">
        <ele>719</ele>
        <time>2020-07-25T11:39:26Z</time>
      </trkpt>
      <trkpt lat="48.63472" lon="8.25336">
        <ele>719</ele>
        <time>2020-07-25T11:39:27Z</time>
      </trkpt>
      <trkpt lat="48.63475" lon="8.25335">
        <ele>719</ele>
        <time>2020-07-25T11:39:31Z</time>
      </trkpt>
      <trkpt lat="48.63468" lon="8.25336">
        <ele>719.2</ele>
        <time>2020-07-25T11:39:34Z</time>
      </trkpt>
      <trkpt lat="48.63465" lon="8.25334">
        <ele>719.2</ele>
        <time>2020-07-25T11:39:35Z</time>
      </trkpt>
      <trkpt lat="48.63467" lon="8.25322">
        <ele>719.2</ele>
        <time>2020-07-25T11:39:38Z</time>
      </trkpt>
      <trkpt lat="48.6348" lon="8.25297">
        <ele>718.2</ele>
        <time>2020-07-25T11:39:44Z</time>
      </trkpt>
      <trkpt lat="48.63492" lon="8.25268">
        <ele>717.8</ele>
        <time>2020-07-25T11:39:51Z</time>
      </trkpt>
      <trkpt lat="48.63498" lon="8.25236">
        <ele>718.2</ele>
        <time>2020-07-25T11:39:58Z</time>
      </trkpt>
      <trkpt lat="48.635" lon="8.25213">
        <ele>718.8</ele>
        <time>2020-07-25T11:40:03Z</time>
      </trkpt>
      <trkpt lat="48.63502" lon="8.25189">
        <ele>719.4</ele>
        <time>2020-07-25T11:40:08Z</time>
      </trkpt>
      <trkpt lat="48.63502" lon="8.25185">
        <ele>719.4</ele>
        <time>2020-07-25T11:40:09Z</time>
      </trkpt>
      <trkpt lat="48.63503" lon="8.25154">
        <ele>720.2</ele>
        <time>2020-07-25T11:40:16Z</time>
      </trkpt>
      <trkpt lat="48.63502" lon="8.2515">
        <ele>720.4</ele>
        <time>2020-07-25T11:40:17Z</time>
      </trkpt>
      <trkpt lat="48.63501" lon="8.2513">
        <ele>721.2</ele>
        <time>2020-07-25T11:40:22Z</time>
      </trkpt>
      <trkpt lat="48.63502" lon="8.25123">
        <ele>721.6</ele>
        <time>2020-07-25T11:40:24Z</time>
      </trkpt>
      <trkpt lat="48.63501" lon="8.25109">
        <ele>722.6</ele>
        <time>2020-07-25T11:40:28Z</time>
      </trkpt>
      <trkpt lat="48.63501" lon="8.25107">
        <ele>722.8</ele>
        <time>2020-07-25T11:40:29Z</time>
      </trkpt>
      <trkpt lat="48.63497" lon="8.25091">
        <ele>723.8</ele>
        <time>2020-07-25T11:40:33Z</time>
      </trkpt>
      <trkpt lat="48.63496" lon="8.25087">
        <ele>724</ele>
        <time>2020-07-25T11:40:34Z</time>
      </trkpt>
      <trkpt lat="48.63494" lon="8.25083">
        <ele>724.4</ele>
        <time>2020-07-25T11:40:35Z</time>
      </trkpt>
      <trkpt lat="48.63485" lon="8.2506">
        <ele>724.8</ele>
        <time>2020-07-25T11:40:40Z</time>
      </trkpt>
      <trkpt lat="48.63478" lon="8.25039">
        <ele>724.8</ele>
        <time>2020-07-25T11:40:45Z</time>
      </trkpt>
      <trkpt lat="48.63466" lon="8.25016">
        <ele>724</ele>
        <time>2020-07-25T11:40:49Z</time>
      </trkpt>
      <trkpt lat="48.63465" lon="8.25011">
        <ele>723.8</ele>
        <time>2020-07-25T11:40:50Z</time>
      </trkpt>
      <trkpt lat="48.63464" lon="8.24992">
        <ele>723.6</ele>
        <time>2020-07-25T11:40:53Z</time>
      </trkpt>
      <trkpt lat="48.63464" lon="8.24985">
        <ele>723.4</ele>
        <time>2020-07-25T11:40:54Z</time>
      </trkpt>
      <trkpt lat="48.63463" lon="8.24974">
        <ele>723</ele>
        <time>2020-07-25T11:40:56Z</time>
      </trkpt>
      <trkpt lat="48.63467" lon="8.24961">
        <ele>722.2</ele>
        <time>2020-07-25T11:40:58Z</time>
      </trkpt>
      <trkpt lat="48.63469" lon="8.24956">
        <ele>721.8</ele>
        <time>2020-07-25T11:40:59Z</time>
      </trkpt>
      <trkpt lat="48.63479" lon="8.24937">
        <ele>721.2</ele>
        <time>2020-07-25T11:41:02Z</time>
      </trkpt>
      <trkpt lat="48.63484" lon="8.24928">
        <ele>720.6</ele>
        <time>2020-07-25T11:41:04Z</time>
      </trkpt>
      <trkpt lat="48.63493" lon="8.24912">
        <ele>719.4</ele>
        <time>2020-07-25T11:41:07Z</time>
      </trkpt>
      <trkpt lat="48.63495" lon="8.24908">
        <ele>719.2</ele>
        <time>2020-07-25T11:41:08Z</time>
      </trkpt>
      <trkpt lat="48.63505" lon="8.24889">
        <ele>718.8</ele>
        <time>2020-07-25T11:41:13Z</time>
      </trkpt>
      <trkpt lat="48.63516" lon="8.24871">
        <ele>719</ele>
        <time>2020-07-25T11:41:19Z</time>
      </trkpt>
      <trkpt lat="48.63528" lon="8.24853">
        <ele>719.8</ele>
        <time>2020-07-25T11:41:25Z</time>
      </trkpt>
      <trkpt lat="48.6354" lon="8.24834">
        <ele>720.4</ele>
        <time>2020-07-25T11:41:31Z</time>
      </trkpt>
      <trkpt lat="48.63542" lon="8.24831">
        <ele>720.6</ele>
        <time>2020-07-25T11:41:32Z</time>
      </trkpt>
      <trkpt lat="48.63552" lon="8.24811">
        <ele>721</ele>
        <time>2020-07-25T11:41:38Z</time>
      </trkpt>
      <trkpt lat="48.63556" lon="8.24799">
        <ele>721.4</ele>
        <time>2020-07-25T11:41:41Z</time>
      </trkpt>
      <trkpt lat="48.63564" lon="8.24781">
        <ele>722</ele>
        <time>2020-07-25T11:41:46Z</time>
      </trkpt>
      <trkpt lat="48.6357" lon="8.24762">
        <ele>722.4</ele>
        <time>2020-07-25T11:41:51Z</time>
      </trkpt>
      <trkpt lat="48.63575" lon="8.24751">
        <ele>722.6</ele>
        <time>2020-07-25T11:41:54Z</time>
      </trkpt>
      <trkpt lat="48.63581" lon="8.24739">
        <ele>722.8</ele>
        <time>2020-07-25T11:41:58Z</time>
      </trkpt>
      <trkpt lat="48.63586" lon="8.2473">
        <ele>723.2</ele>
        <time>2020-07-25T11:42:01Z</time>
      </trkpt>
      <trkpt lat="48.63591" lon="8.24722">
        <ele>723.2</ele>
        <time>2020-07-25T11:42:04Z</time>
      </trkpt>
      <trkpt lat="48.63595" lon="8.24718">
        <ele>723.6</ele>
        <time>2020-07-25T11:42:06Z</time>
      </trkpt>
      <trkpt lat="48.63601" lon="8.24708">
        <ele>724.6</ele>
        <time>2020-07-25T11:42:10Z</time>
      </trkpt>
      <trkpt lat="48.63606" lon="8.24698">
        <ele>725</ele>
        <time>2020-07-25T11:42:14Z</time>
      </trkpt>
      <trkpt lat="48.63609" lon="8.24689">
        <ele>725.8</ele>
        <time>2020-07-25T11:42:17Z</time>
      </trkpt>
      <trkpt lat="48.63614" lon="8.24678">
        <ele>726.8</ele>
        <time>2020-07-25T11:42:21Z</time>
      </trkpt>
      <trkpt lat="48.63615" lon="8.24676">
        <ele>727</ele>
        <time>2020-07-25T11:42:22Z</time>
      </trkpt>
      <trkpt lat="48.63623" lon="8.24671">
        <ele>727.8</ele>
        <time>2020-07-25T11:42:26Z</time>
      </trkpt>
      <trkpt lat="48.63624" lon="8.24669">
        <ele>728</ele>
        <time>2020-07-25T11:42:27Z</time>
      </trkpt>
      <trkpt lat="48.63631" lon="8.24655">
        <ele>728.8</ele>
        <time>2020-07-25T11:42:33Z</time>
      </trkpt>
      <trkpt lat="48.63633" lon="8.24651">
        <ele>729.2</ele>
        <time>2020-07-25T11:42:35Z</time>
      </trkpt>
      <trkpt lat="48.63638" lon="8.24643">
        <ele>729.8</ele>
        <time>2020-07-25T11:42:39Z</time>
      </trkpt>
      <trkpt lat="48.63643" lon="8.24639">
        <ele>730.4</ele>
        <time>2020-07-25T11:42:42Z</time>
      </trkpt>
      <trkpt lat="48.63647" lon="8.24634">
        <ele>731</ele>
        <time>2020-07-25T11:42:45Z</time>
      </trkpt>
      <trkpt lat="48.63653" lon="8.24628">
        <ele>731.8</ele>
        <time>2020-07-25T11:42:49Z</time>
      </trkpt>
      <trkpt lat="48.63654" lon="8.24626">
        <ele>732</ele>
        <time>2020-07-25T11:42:50Z</time>
      </trkpt>
      <trkpt lat="48.6366" lon="8.24619">
        <ele>733.2</ele>
        <time>2020-07-25T11:42:54Z</time>
      </trkpt>
      <trkpt lat="48.63662" lon="8.24615">
        <ele>733.6</ele>
        <time>2020-07-25T11:42:56Z</time>
      </trkpt>
      <trkpt lat="48.63667" lon="8.24606">
        <ele>734.2</ele>
        <time>2020-07-25T11:43:00Z</time>
      </trkpt>
      <trkpt lat="48.63671" lon="8.246">
        <ele>734.8</ele>
        <time>2020-07-25T11:43:03Z</time>
      </trkpt>
      <trkpt lat="48.63674" lon="8.24594">
        <ele>735.4</ele>
        <time>2020-07-25T11:43:06Z</time>
      </trkpt>
      <trkpt lat="48.63679" lon="8.24586">
        <ele>736</ele>
        <time>2020-07-25T11:43:10Z</time>
      </trkpt>
      <trkpt lat="48.63681" lon="8.24583">
        <ele>736.4</ele>
        <time>2020-07-25T11:43:12Z</time>
      </trkpt>
      <trkpt lat="48.63687" lon="8.24571">
        <ele>737.6</ele>
        <time>2020-07-25T11:43:18Z</time>
      </trkpt>
      <trkpt lat="48.63688" lon="8.24568">
        <ele>737.6</ele>
        <time>2020-07-25T11:43:19Z</time>
      </trkpt>
      <trkpt lat="48.63697" lon="8.24552">
        <ele>738.8</ele>
        <time>2020-07-25T11:43:26Z</time>
      </trkpt>
      <trkpt lat="48.63707" lon="8.24537">
        <ele>739.8</ele>
        <time>2020-07-25T11:43:33Z</time>
      </trkpt>
      <trkpt lat="48.6371" lon="8.24534">
        <ele>740.2</ele>
        <time>2020-07-25T11:43:35Z</time>
      </trkpt>
      <trkpt lat="48.63716" lon="8.24527">
        <ele>741</ele>
        <time>2020-07-25T11:43:39Z</time>
      </trkpt>
      <trkpt lat="48.63717" lon="8.24525">
        <ele>741.2</ele>
        <time>2020-07-25T11:43:40Z</time>
      </trkpt>
      <trkpt lat="48.63727" lon="8.24514">
        <ele>742.2</ele>
        <time>2020-07-25T11:43:46Z</time>
      </trkpt>
      <trkpt lat="48.63739" lon="8.24501">
        <ele>743.2</ele>
        <time>2020-07-25T11:43:53Z</time>
      </trkpt>
      <trkpt lat="48.63741" lon="8.24498">
        <ele>743.4</ele>
        <time>2020-07-25T11:43:55Z</time>
      </trkpt>
      <trkpt lat="48.63748" lon="8.24488">
        <ele>744.2</ele>
        <time>2020-07-25T11:44:00Z</time>
      </trkpt>
      <trkpt lat="48.63754" lon="8.2448">
        <ele>744.8</ele>
        <time>2020-07-25T11:44:04Z</time>
      </trkpt>
      <trkpt lat="48.63758" lon="8.24474">
        <ele>745.4</ele>
        <time>2020-07-25T11:44:07Z</time>
      </trkpt>
      <trkpt lat="48.63766" lon="8.2446">
        <ele>746.6</ele>
        <time>2020-07-25T11:44:14Z</time>
      </trkpt>
      <trkpt lat="48.63768" lon="8.24456">
        <ele>746.6</ele>
        <time>2020-07-25T11:44:15Z</time>
      </trkpt>
      <trkpt lat="48.63776" lon="8.24442">
        <ele>747.6</ele>
        <time>2020-07-25T11:44:21Z</time>
      </trkpt>
      <trkpt lat="48.6378" lon="8.24435">
        <ele>748.2</ele>
        <time>2020-07-25T11:44:24Z</time>
      </trkpt>
      <trkpt lat="48.63783" lon="8.24428">
        <ele>748.6</ele>
        <time>2020-07-25T11:44:27Z</time>
      </trkpt>
      <trkpt lat="48.63788" lon="8.24415">
        <ele>749.4</ele>
        <time>2020-07-25T11:44:32Z</time>
      </trkpt>
      <trkpt lat="48.6379" lon="8.24411">
        <ele>749.8</ele>
        <time>2020-07-25T11:44:34Z</time>
      </trkpt>
      <trkpt lat="48.63791" lon="8.24408">
        <ele>750</ele>
        <time>2020-07-25T11:44:35Z</time>
      </trkpt>
      <trkpt lat="48.63792" lon="8.24403">
        <ele>750.4</ele>
        <time>2020-07-25T11:44:37Z</time>
      </trkpt>
      <trkpt lat="48.63794" lon="8.24398">
        <ele>750.8</ele>
        <time>2020-07-25T11:44:39Z</time>
      </trkpt>
      <trkpt lat="48.63796" lon="8.24396">
        <ele>750.8</ele>
        <time>2020-07-25T11:44:40Z</time>
      </trkpt>
      <trkpt lat="48.63799" lon="8.24385">
        <ele>751.8</ele>
        <time>2020-07-25T11:44:44Z</time>
      </trkpt>
      <trkpt lat="48.63802" lon="8.24381">
        <ele>752.2</ele>
        <time>2020-07-25T11:44:46Z</time>
      </trkpt>
      <trkpt lat="48.63808" lon="8.24368">
        <ele>753</ele>
        <time>2020-07-25T11:44:51Z</time>
      </trkpt>
      <trkpt lat="48.63811" lon="8.24361">
        <ele>753.6</ele>
        <time>2020-07-25T11:44:54Z</time>
      </trkpt>
      <trkpt lat="48.63816" lon="8.24354">
        <ele>754</ele>
        <time>2020-07-25T11:44:57Z</time>
      </trkpt>
      <trkpt lat="48.63817" lon="8.24351">
        <ele>754</ele>
        <time>2020-07-25T11:44:58Z</time>
      </trkpt>
      <trkpt lat="48.63822" lon="8.2434">
        <ele>754.8</ele>
        <time>2020-07-25T11:45:03Z</time>
      </trkpt>
      <trkpt lat="48.63826" lon="8.24331">
        <ele>755.2</ele>
        <time>2020-07-25T11:45:07Z</time>
      </trkpt>
      <trkpt lat="48.63829" lon="8.24324">
        <ele>756</ele>
        <time>2020-07-25T11:45:10Z</time>
      </trkpt>
      <trkpt lat="48.63832" lon="8.24319">
        <ele>756.6</ele>
        <time>2020-07-25T11:45:12Z</time>
      </trkpt>
      <trkpt lat="48.63835" lon="8.24312">
        <ele>757</ele>
        <time>2020-07-25T11:45:15Z</time>
      </trkpt>
      <trkpt lat="48.63837" lon="8.24308">
        <ele>757.2</ele>
        <time>2020-07-25T11:45:17Z</time>
      </trkpt>
      <trkpt lat="48.63839" lon="8.24304">
        <ele>757.6</ele>
        <time>2020-07-25T11:45:19Z</time>
      </trkpt>
      <trkpt lat="48.63846" lon="8.2429">
        <ele>758.2</ele>
        <time>2020-07-25T11:45:25Z</time>
      </trkpt>
      <trkpt lat="48.63849" lon="8.24283">
        <ele>758.8</ele>
        <time>2020-07-25T11:45:28Z</time>
      </trkpt>
      <trkpt lat="48.63855" lon="8.24271">
        <ele>759.6</ele>
        <time>2020-07-25T11:45:33Z</time>
      </trkpt>
      <trkpt lat="48.63856" lon="8.24269">
        <ele>759.8</ele>
        <time>2020-07-25T11:45:34Z</time>
      </trkpt>
      <trkpt lat="48.63867" lon="8.24248">
        <ele>760.8</ele>
        <time>2020-07-25T11:45:43Z</time>
      </trkpt>
      <trkpt lat="48.6387" lon="8.24244">
        <ele>761.2</ele>
        <time>2020-07-25T11:45:45Z</time>
      </trkpt>
      <trkpt lat="48.63873" lon="8.24237">
        <ele>762</ele>
        <time>2020-07-25T11:45:48Z</time>
      </trkpt>
      <trkpt lat="48.63877" lon="8.2423">
        <ele>762.6</ele>
        <time>2020-07-25T11:45:51Z</time>
      </trkpt>
      <trkpt lat="48.63877" lon="8.24229">
        <ele>762.8</ele>
        <time>2020-07-25T11:45:52Z</time>
      </trkpt>
      <trkpt lat="48.63881" lon="8.24221">
        <ele>763.2</ele>
        <time>2020-07-25T11:45:55Z</time>
      </trkpt>
      <trkpt lat="48.63884" lon="8.24214">
        <ele>763.8</ele>
        <time>2020-07-25T11:45:58Z</time>
      </trkpt>
      <trkpt lat="48.63888" lon="8.24208">
        <ele>764.2</ele>
        <time>2020-07-25T11:46:01Z</time>
      </trkpt>
      <trkpt lat="48.63893" lon="8.24199">
        <ele>765.6</ele>
        <time>2020-07-25T11:46:05Z</time>
      </trkpt>
      <trkpt lat="48.63902" lon="8.24187">
        <ele>766.4</ele>
        <time>2020-07-25T11:46:11Z</time>
      </trkpt>
      <trkpt lat="48.63904" lon="8.24185">
        <ele>766.6</ele>
        <time>2020-07-25T11:46:12Z</time>
      </trkpt>
      <trkpt lat="48.63911" lon="8.24175">
        <ele>767.2</ele>
        <time>2020-07-25T11:46:17Z</time>
      </trkpt>
      <trkpt lat="48.63914" lon="8.24168">
        <ele>767.6</ele>
        <time>2020-07-25T11:46:20Z</time>
      </trkpt>
      <trkpt lat="48.6392" lon="8.24155">
        <ele>768.6</ele>
        <time>2020-07-25T11:46:26Z</time>
      </trkpt>
      <trkpt lat="48.63921" lon="8.24153">
        <ele>769</ele>
        <time>2020-07-25T11:46:27Z</time>
      </trkpt>
      <trkpt lat="48.63927" lon="8.24138">
        <ele>770.2</ele>
        <time>2020-07-25T11:46:33Z</time>
      </trkpt>
      <trkpt lat="48.63928" lon="8.24136">
        <ele>770.4</ele>
        <time>2020-07-25T11:46:34Z</time>
      </trkpt>
      <trkpt lat="48.63931" lon="8.24122">
        <ele>771.2</ele>
        <time>2020-07-25T11:46:39Z</time>
      </trkpt>
      <trkpt lat="48.63934" lon="8.24115">
        <ele>771.6</ele>
        <time>2020-07-25T11:46:42Z</time>
      </trkpt>
      <trkpt lat="48.63941" lon="8.24098">
        <ele>772.6</ele>
        <time>2020-07-25T11:46:49Z</time>
      </trkpt>
      <trkpt lat="48.63944" lon="8.24081">
        <ele>773.4</ele>
        <time>2020-07-25T11:46:56Z</time>
      </trkpt>
      <trkpt lat="48.63945" lon="8.24073">
        <ele>773.8</ele>
        <time>2020-07-25T11:46:59Z</time>
      </trkpt>
      <trkpt lat="48.63947" lon="8.24066">
        <ele>774.2</ele>
        <time>2020-07-25T11:47:02Z</time>
      </trkpt>
      <trkpt lat="48.63948" lon="8.24053">
        <ele>774.8</ele>
        <time>2020-07-25T11:47:06Z</time>
      </trkpt>
      <trkpt lat="48.63949" lon="8.24047">
        <ele>775.4</ele>
        <time>2020-07-25T11:47:08Z</time>
      </trkpt>
      <trkpt lat="48.63952" lon="8.24036">
        <ele>776</ele>
        <time>2020-07-25T11:47:12Z</time>
      </trkpt>
      <trkpt lat="48.63953" lon="8.2403">
        <ele>776</ele>
        <time>2020-07-25T11:47:14Z</time>
      </trkpt>
      <trkpt lat="48.63957" lon="8.24017">
        <ele>776.8</ele>
        <time>2020-07-25T11:47:19Z</time>
      </trkpt>
      <trkpt lat="48.63958" lon="8.24012">
        <ele>777.2</ele>
        <time>2020-07-25T11:47:21Z</time>
      </trkpt>
      <trkpt lat="48.63961" lon="8.23995">
        <ele>777.8</ele>
        <time>2020-07-25T11:47:27Z</time>
      </trkpt>
      <trkpt lat="48.63962" lon="8.23988">
        <ele>778.2</ele>
        <time>2020-07-25T11:47:29Z</time>
      </trkpt>
      <trkpt lat="48.63964" lon="8.2398">
        <ele>778.6</ele>
        <time>2020-07-25T11:47:32Z</time>
      </trkpt>
      <trkpt lat="48.63966" lon="8.23972">
        <ele>779.2</ele>
        <time>2020-07-25T11:47:35Z</time>
      </trkpt>
      <trkpt lat="48.63966" lon="8.23969">
        <ele>779.2</ele>
        <time>2020-07-25T11:47:36Z</time>
      </trkpt>
      <trkpt lat="48.63967" lon="8.23957">
        <ele>780.2</ele>
        <time>2020-07-25T11:47:40Z</time>
      </trkpt>
      <trkpt lat="48.63969" lon="8.23951">
        <ele>780.6</ele>
        <time>2020-07-25T11:47:42Z</time>
      </trkpt>
      <trkpt lat="48.6397" lon="8.23935">
        <ele>781</ele>
        <time>2020-07-25T11:47:47Z</time>
      </trkpt>
      <trkpt lat="48.63974" lon="8.23922">
        <ele>781.8</ele>
        <time>2020-07-25T11:47:52Z</time>
      </trkpt>
      <trkpt lat="48.63978" lon="8.23906">
        <ele>783</ele>
        <time>2020-07-25T11:47:58Z</time>
      </trkpt>
      <trkpt lat="48.63987" lon="8.23891">
        <ele>784</ele>
        <time>2020-07-25T11:48:05Z</time>
      </trkpt>
      <trkpt lat="48.63991" lon="8.23885">
        <ele>784.6</ele>
        <time>2020-07-25T11:48:08Z</time>
      </trkpt>
      <trkpt lat="48.63997" lon="8.23877">
        <ele>785.4</ele>
        <time>2020-07-25T11:48:12Z</time>
      </trkpt>
      <trkpt lat="48.64" lon="8.23873">
        <ele>785.8</ele>
        <time>2020-07-25T11:48:14Z</time>
      </trkpt>
      <trkpt lat="48.64009" lon="8.23864">
        <ele>786.4</ele>
        <time>2020-07-25T11:48:20Z</time>
      </trkpt>
      <trkpt lat="48.64014" lon="8.23859">
        <ele>786.6</ele>
        <time>2020-07-25T11:48:23Z</time>
      </trkpt>
      <trkpt lat="48.64015" lon="8.23858">
        <ele>786.6</ele>
        <time>2020-07-25T11:48:24Z</time>
      </trkpt>
      <trkpt lat="48.64028" lon="8.23847">
        <ele>787.4</ele>
        <time>2020-07-25T11:48:32Z</time>
      </trkpt>
      <trkpt lat="48.64039" lon="8.23838">
        <ele>788.4</ele>
        <time>2020-07-25T11:48:39Z</time>
      </trkpt>
      <trkpt lat="48.6405" lon="8.23829">
        <ele>789.4</ele>
        <time>2020-07-25T11:48:46Z</time>
      </trkpt>
      <trkpt lat="48.6406" lon="8.2382">
        <ele>790.4</ele>
        <time>2020-07-25T11:48:52Z</time>
      </trkpt>
      <trkpt lat="48.64061" lon="8.23818">
        <ele>790.6</ele>
        <time>2020-07-25T11:48:53Z</time>
      </trkpt>
      <trkpt lat="48.6407" lon="8.23807">
        <ele>791.6</ele>
        <time>2020-07-25T11:48:59Z</time>
      </trkpt>
      <trkpt lat="48.64072" lon="8.23804">
        <ele>791.8</ele>
        <time>2020-07-25T11:49:01Z</time>
      </trkpt>
      <trkpt lat="48.64078" lon="8.23797">
        <ele>792.6</ele>
        <time>2020-07-25T11:49:05Z</time>
      </trkpt>
      <trkpt lat="48.6408" lon="8.23792">
        <ele>793</ele>
        <time>2020-07-25T11:49:07Z</time>
      </trkpt>
      <trkpt lat="48.64087" lon="8.2378">
        <ele>793.8</ele>
        <time>2020-07-25T11:49:13Z</time>
      </trkpt>
      <trkpt lat="48.64089" lon="8.23775">
        <ele>794.2</ele>
        <time>2020-07-25T11:49:15Z</time>
      </trkpt>
      <trkpt lat="48.64094" lon="8.23766">
        <ele>795</ele>
        <time>2020-07-25T11:49:19Z</time>
      </trkpt>
      <trkpt lat="48.64097" lon="8.23759">
        <ele>795.2</ele>
        <time>2020-07-25T11:49:22Z</time>
      </trkpt>
      <trkpt lat="48.64103" lon="8.23751">
        <ele>796</ele>
        <time>2020-07-25T11:49:26Z</time>
      </trkpt>
      <trkpt lat="48.64111" lon="8.23741">
        <ele>796.6</ele>
        <time>2020-07-25T11:49:31Z</time>
      </trkpt>
      <trkpt lat="48.64114" lon="8.23737">
        <ele>797</ele>
        <time>2020-07-25T11:49:33Z</time>
      </trkpt>
      <trkpt lat="48.64122" lon="8.23728">
        <ele>798</ele>
        <time>2020-07-25T11:49:38Z</time>
      </trkpt>
      <trkpt lat="48.64123" lon="8.23727">
        <ele>798.2</ele>
        <time>2020-07-25T11:49:39Z</time>
      </trkpt>
      <trkpt lat="48.64132" lon="8.23717">
        <ele>799.2</ele>
        <time>2020-07-25T11:49:44Z</time>
      </trkpt>
      <trkpt lat="48.64133" lon="8.23715">
        <ele>799.4</ele>
        <time>2020-07-25T11:49:45Z</time>
      </trkpt>
      <trkpt lat="48.64142" lon="8.23701">
        <ele>800.4</ele>
        <time>2020-07-25T11:49:52Z</time>
      </trkpt>
      <trkpt lat="48.64153" lon="8.23686">
        <ele>801</ele>
        <time>2020-07-25T11:49:59Z</time>
      </trkpt>
      <trkpt lat="48.64156" lon="8.23679">
        <ele>801.4</ele>
        <time>2020-07-25T11:50:02Z</time>
      </trkpt>
      <trkpt lat="48.64157" lon="8.23677">
        <ele>801.8</ele>
        <time>2020-07-25T11:50:03Z</time>
      </trkpt>
      <trkpt lat="48.64159" lon="8.23676">
        <ele>802</ele>
        <time>2020-07-25T11:50:04Z</time>
      </trkpt>
      <trkpt lat="48.6416" lon="8.23673">
        <ele>802.2</ele>
        <time>2020-07-25T11:50:05Z</time>
      </trkpt>
      <trkpt lat="48.64162" lon="8.23668">
        <ele>802.6</ele>
        <time>2020-07-25T11:50:07Z</time>
      </trkpt>
      <trkpt lat="48.64163" lon="8.23663">
        <ele>802.8</ele>
        <time>2020-07-25T11:50:09Z</time>
      </trkpt>
      <trkpt lat="48.64167" lon="8.23653">
        <ele>803.6</ele>
        <time>2020-07-25T11:50:13Z</time>
      </trkpt>
      <trkpt lat="48.6417" lon="8.23648">
        <ele>803.8</ele>
        <time>2020-07-25T11:50:15Z</time>
      </trkpt>
      <trkpt lat="48.64178" lon="8.23638">
        <ele>804.8</ele>
        <time>2020-07-25T11:50:20Z</time>
      </trkpt>
      <trkpt lat="48.6418" lon="8.23633">
        <ele>805</ele>
        <time>2020-07-25T11:50:22Z</time>
      </trkpt>
      <trkpt lat="48.64187" lon="8.23624">
        <ele>805.4</ele>
        <time>2020-07-25T11:50:27Z</time>
      </trkpt>
      <trkpt lat="48.64189" lon="8.2362">
        <ele>805.8</ele>
        <time>2020-07-25T11:50:29Z</time>
      </trkpt>
      <trkpt lat="48.6419" lon="8.23618">
        <ele>806</ele>
        <time>2020-07-25T11:50:30Z</time>
      </trkpt>
      <trkpt lat="48.64193" lon="8.23614">
        <ele>806.4</ele>
        <time>2020-07-25T11:50:32Z</time>
      </trkpt>
      <trkpt lat="48.64196" lon="8.23611">
        <ele>806.6</ele>
        <time>2020-07-25T11:50:34Z</time>
      </trkpt>
      <trkpt lat="48.64197" lon="8.23609">
        <ele>807</ele>
        <time>2020-07-25T11:50:35Z</time>
      </trkpt>
      <trkpt lat="48.64198" lon="8.23607">
        <ele>807</ele>
        <time>2020-07-25T11:50:36Z</time>
      </trkpt>
      <trkpt lat="48.64206" lon="8.23597">
        <ele>807.6</ele>
        <time>2020-07-25T11:50:42Z</time>
      </trkpt>
      <trkpt lat="48.64208" lon="8.23594">
        <ele>808</ele>
        <time>2020-07-25T11:50:44Z</time>
      </trkpt>
      <trkpt lat="48.64215" lon="8.2359">
        <ele>808.4</ele>
        <time>2020-07-25T11:50:48Z</time>
      </trkpt>
      <trkpt lat="48.64218" lon="8.23587">
        <ele>809</ele>
        <time>2020-07-25T11:50:52Z</time>
      </trkpt>
      <trkpt lat="48.6422" lon="8.23585">
        <ele>809.4</ele>
        <time>2020-07-25T11:50:54Z</time>
      </trkpt>
      <trkpt lat="48.64232" lon="8.23579">
        <ele>810</ele>
        <time>2020-07-25T11:51:00Z</time>
      </trkpt>
      <trkpt lat="48.64236" lon="8.23578">
        <ele>810.4</ele>
        <time>2020-07-25T11:51:02Z</time>
      </trkpt>
      <trkpt lat="48.64245" lon="8.23572">
        <ele>811.2</ele>
        <time>2020-07-25T11:51:07Z</time>
      </trkpt>
      <trkpt lat="48.64247" lon="8.23571">
        <ele>811.2</ele>
        <time>2020-07-25T11:51:08Z</time>
      </trkpt>
      <trkpt lat="48.64261" lon="8.2356">
        <ele>812</ele>
        <time>2020-07-25T11:51:15Z</time>
      </trkpt>
      <trkpt lat="48.64263" lon="8.23559">
        <ele>812.2</ele>
        <time>2020-07-25T11:51:16Z</time>
      </trkpt>
      <trkpt lat="48.64279" lon="8.23552">
        <ele>813.6</ele>
        <time>2020-07-25T11:51:24Z</time>
      </trkpt>
      <trkpt lat="48.64293" lon="8.23541">
        <ele>814.6</ele>
        <time>2020-07-25T11:51:32Z</time>
      </trkpt>
      <trkpt lat="48.64295" lon="8.23539">
        <ele>814.8</ele>
        <time>2020-07-25T11:51:33Z</time>
      </trkpt>
      <trkpt lat="48.64303" lon="8.23529">
        <ele>815.6</ele>
        <time>2020-07-25T11:51:38Z</time>
      </trkpt>
      <trkpt lat="48.64305" lon="8.23528">
        <ele>815.8</ele>
        <time>2020-07-25T11:51:39Z</time>
      </trkpt>
      <trkpt lat="48.64312" lon="8.23522">
        <ele>816.6</ele>
        <time>2020-07-25T11:51:44Z</time>
      </trkpt>
      <trkpt lat="48.64314" lon="8.2352">
        <ele>816.8</ele>
        <time>2020-07-25T11:51:45Z</time>
      </trkpt>
      <trkpt lat="48.64325" lon="8.2351">
        <ele>817.6</ele>
        <time>2020-07-25T11:51:51Z</time>
      </trkpt>
      <trkpt lat="48.64327" lon="8.23508">
        <ele>817.8</ele>
        <time>2020-07-25T11:51:52Z</time>
      </trkpt>
      <trkpt lat="48.64335" lon="8.23498">
        <ele>818.6</ele>
        <time>2020-07-25T11:51:58Z</time>
      </trkpt>
      <trkpt lat="48.64336" lon="8.23496">
        <ele>818.8</ele>
        <time>2020-07-25T11:51:59Z</time>
      </trkpt>
      <trkpt lat="48.64343" lon="8.23486">
        <ele>819.4</ele>
        <time>2020-07-25T11:52:04Z</time>
      </trkpt>
      <trkpt lat="48.64347" lon="8.2348">
        <ele>819.8</ele>
        <time>2020-07-25T11:52:07Z</time>
      </trkpt>
      <trkpt lat="48.64354" lon="8.23471">
        <ele>820.6</ele>
        <time>2020-07-25T11:52:12Z</time>
      </trkpt>
      <trkpt lat="48.64359" lon="8.23466">
        <ele>821</ele>
        <time>2020-07-25T11:52:15Z</time>
      </trkpt>
      <trkpt lat="48.64368" lon="8.23461">
        <ele>821.6</ele>
        <time>2020-07-25T11:52:20Z</time>
      </trkpt>
      <trkpt lat="48.64373" lon="8.23458">
        <ele>822</ele>
        <time>2020-07-25T11:52:23Z</time>
      </trkpt>
      <trkpt lat="48.64376" lon="8.23454">
        <ele>822.6</ele>
        <time>2020-07-25T11:52:26Z</time>
      </trkpt>
      <trkpt lat="48.64377" lon="8.23454">
        <ele>823</ele>
        <time>2020-07-25T11:52:27Z</time>
      </trkpt>
      <trkpt lat="48.64377" lon="8.23454">
        <ele>823.2</ele>
        <time>2020-07-25T11:52:28Z</time>
      </trkpt>
      <trkpt lat="48.64377" lon="8.23454">
        <ele>823.6</ele>
        <time>2020-07-25T11:52:30Z</time>
      </trkpt>
      <trkpt lat="48.72165" lon="8.21719">
        <ele>396.4</ele>
        <time>2020-07-25T14:05:38Z</time>
      </trkpt>
      <trkpt lat="48.72171" lon="8.21711">
        <ele>397.4</ele>
        <time>2020-07-25T14:05:43Z</time>
      </trkpt>
      <trkpt lat="48.72173" lon="8.21709">
        <ele>397.8</ele>
        <time>2020-07-25T14:05:45Z</time>
      </trkpt>
      <trkpt lat="48.72185" lon="8.21706">
        <ele>398.6</ele>
        <time>2020-07-25T14:05:52Z</time>
      </trkpt>
      <trkpt lat="48.72187" lon="8.21706">
        <ele>398.6</ele>
        <time>2020-07-25T14:05:53Z</time>
      </trkpt>
      <trkpt lat="48.722" lon="8.2171">
        <ele>399.6</ele>
        <time>2020-07-25T14:06:00Z</time>
      </trkpt>
      <trkpt lat="48.72202" lon="8.21711">
        <ele>399.6</ele>
        <time>2020-07-25T14:06:01Z</time>
      </trkpt>
      <trkpt lat="48.72213" lon="8.21718">
        <ele>400.8</ele>
        <time>2020-07-25T14:06:07Z</time>
      </trkpt>
      <trkpt lat="48.72227" lon="8.21725">
        <ele>402</ele>
        <time>2020-07-25T14:06:14Z</time>
      </trkpt>
      <trkpt lat="48.72236" lon="8.21737">
        <ele>403</ele>
        <time>2020-07-25T14:06:20Z</time>
      </trkpt>
      <trkpt lat="48.72242" lon="8.21749">
        <ele>404.2</ele>
        <time>2020-07-25T14:06:25Z</time>
      </trkpt>
      <trkpt lat="48.72245" lon="8.21757">
        <ele>404.6</ele>
        <time>2020-07-25T14:06:28Z</time>
      </trkpt>
      <trkpt lat="48.72249" lon="8.21764">
        <ele>405.2</ele>
        <time>2020-07-25T14:06:31Z</time>
      </trkpt>
      <trkpt lat="48.7225" lon="8.21766">
        <ele>405.4</ele>
        <time>2020-07-25T14:06:32Z</time>
      </trkpt>
      <trkpt lat="48.72257" lon="8.21778">
        <ele>406.2</ele>
        <time>2020-07-25T14:06:37Z</time>
      </trkpt>
      <trkpt lat="48.72266" lon="8.21789">
        <ele>407.4</ele>
        <time>2020-07-25T14:06:43Z</time>
      </trkpt>
      <trkpt lat="48.72268" lon="8.21791">
        <ele>407.4</ele>
        <time>2020-07-25T14:06:44Z</time>
      </trkpt>
      <trkpt lat="48.72275" lon="8.21804">
        <ele>408.4</ele>
        <time>2020-07-25T14:06:50Z</time>
      </trkpt>
      <trkpt lat="48.72276" lon="8.21807">
        <ele>408.6</ele>
        <time>2020-07-25T14:06:51Z</time>
      </trkpt>
      <trkpt lat="48.72275" lon="8.21819">
        <ele>409.8</ele>
        <time>2020-07-25T14:06:55Z</time>
      </trkpt>
      <trkpt lat="48.72274" lon="8.21831">
        <ele>410.6</ele>
        <time>2020-07-25T14:06:59Z</time>
      </trkpt>
      <trkpt lat="48.72273" lon="8.21834">
        <ele>410.8</ele>
        <time>2020-07-25T14:07:00Z</time>
      </trkpt>
      <trkpt lat="48.72271" lon="8.21847">
        <ele>411.6</ele>
        <time>2020-07-25T14:07:05Z</time>
      </trkpt>
      <trkpt lat="48.7227" lon="8.21854">
        <ele>411.8</ele>
        <time>2020-07-25T14:07:07Z</time>
      </trkpt>
      <trkpt lat="48.72269" lon="8.21871">
        <ele>412.6</ele>
        <time>2020-07-25T14:07:12Z</time>
      </trkpt>
      <trkpt lat="48.72269" lon="8.21874">
        <ele>412.8</ele>
        <time>2020-07-25T14:07:13Z</time>
      </trkpt>
      <trkpt lat="48.72269" lon="8.21877">
        <ele>413</ele>
        <time>2020-07-25T14:07:14Z</time>
      </trkpt>
      <trkpt lat="48.72272" lon="8.21887">
        <ele>413.4</ele>
        <time>2020-07-25T14:07:17Z</time>
      </trkpt>
      <trkpt lat="48.72273" lon="8.21895">
        <ele>413.8</ele>
        <time>2020-07-25T14:07:20Z</time>
      </trkpt>
      <trkpt lat="48.72275" lon="8.21897">
        <ele>414</ele>
        <time>2020-07-25T14:07:21Z</time>
      </trkpt>
      <trkpt lat="48.72277" lon="8.21902">
        <ele>414.2</ele>
        <time>2020-07-25T14:07:22Z</time>
      </trkpt>
      <trkpt lat="48.72284" lon="8.21917">
        <ele>415</ele>
        <time>2020-07-25T14:07:27Z</time>
      </trkpt>
      <trkpt lat="48.72288" lon="8.21923">
        <ele>415.2</ele>
        <time>2020-07-25T14:07:29Z</time>
      </trkpt>
      <trkpt lat="48.72289" lon="8.21925">
        <ele>415.2</ele>
        <time>2020-07-25T14:07:30Z</time>
      </trkpt>
      <trkpt lat="48.72291" lon="8.21933">
        <ele>415.6</ele>
        <time>2020-07-25T14:07:32Z</time>
      </trkpt>
      <trkpt lat="48.72291" lon="8.21935">
        <ele>415.8</ele>
        <time>2020-07-25T14:07:33Z</time>
      </trkpt>
      <trkpt lat="48.72293" lon="8.21942">
        <ele>416.2</ele>
        <time>2020-07-25T14:07:36Z</time>
      </trkpt>
      <trkpt lat="48.72294" lon="8.21951">
        <ele>416.6</ele>
        <time>2020-07-25T14:07:39Z</time>
      </trkpt>
      <trkpt lat="48.72294" lon="8.21956">
        <ele>417</ele>
        <time>2020-07-25T14:07:41Z</time>
      </trkpt>
      <trkpt lat="48.72295" lon="8.2196">
        <ele>417.2</ele>
        <time>2020-07-25T14:07:43Z</time>
      </trkpt>
      <trkpt lat="48.72295" lon="8.21962">
        <ele>417.4</ele>
        <time>2020-07-25T14:07:44Z</time>
      </trkpt>
      <trkpt lat="48.72297" lon="8.21966">
        <ele>417.6</ele>
        <time>2020-07-25T14:07:47Z</time>
      </trkpt>
      <trkpt lat="48.72296" lon="8.21971">
        <ele>417.8</ele>
        <time>2020-07-25T14:07:50Z</time>
      </trkpt>
      <trkpt lat="48.72297" lon="8.21975">
        <ele>418.4</ele>
        <time>2020-07-25T14:07:54Z</time>
      </trkpt>
      <trkpt lat="48.72297" lon="8.21975">
        <ele>418.8</ele>
        <time>2020-07-25T14:07:56Z</time>
      </trkpt>
      <trkpt lat="48.72297" lon="8.21983">
        <ele>419.4</ele>
        <time>2020-07-25T14:08:06Z</time>
      </trkpt>
      <trkpt lat="48.72297" lon="8.21985">
        <ele>419.4</ele>
        <time>2020-07-25T14:08:07Z</time>
      </trkpt>
      <trkpt lat="48.72299" lon="8.22002">
        <ele>419.6</ele>
        <time>2020-07-25T14:08:14Z</time>
      </trkpt>
      <trkpt lat="48.72302" lon="8.22016">
        <ele>420.6</ele>
        <time>2020-07-25T14:08:19Z</time>
      </trkpt>
      <trkpt lat="48.72303" lon="8.22022">
        <ele>421.2</ele>
        <time>2020-07-25T14:08:21Z</time>
      </trkpt>
      <trkpt lat="48.72303" lon="8.22027">
        <ele>421.8</ele>
        <time>2020-07-25T14:08:23Z</time>
      </trkpt>
      <trkpt lat="48.72306" lon="8.22039">
        <ele>423</ele>
        <time>2020-07-25T14:08:28Z</time>
      </trkpt>
      <trkpt lat="48.72308" lon="8.22045">
        <ele>424</ele>
        <time>2020-07-25T14:08:31Z</time>
      </trkpt>
      <trkpt lat="48.72309" lon="8.22046">
        <ele>424</ele>
        <time>2020-07-25T14:08:32Z</time>
      </trkpt>
      <trkpt lat="48.72312" lon="8.22051">
        <ele>424.8</ele>
        <time>2020-07-25T14:08:35Z</time>
      </trkpt>
      <trkpt lat="48.72316" lon="8.22056">
        <ele>425</ele>
        <time>2020-07-25T14:08:38Z</time>
      </trkpt>
      <trkpt lat="48.7232" lon="8.22062">
        <ele>426</ele>
        <time>2020-07-25T14:08:42Z</time>
      </trkpt>
      <trkpt lat="48.72322" lon="8.22063">
        <ele>426.4</ele>
        <time>2020-07-25T14:08:43Z</time>
      </trkpt>
      <trkpt lat="48.72328" lon="8.22067">
        <ele>427.6</ele>
        <time>2020-07-25T14:08:48Z</time>
      </trkpt>
      <trkpt lat="48.72329" lon="8.22068">
        <ele>427.8</ele>
        <time>2020-07-25T14:08:49Z</time>
      </trkpt>
      <trkpt lat="48.72334" lon="8.22068">
        <ele>428.8</ele>
        <time>2020-07-25T14:08:53Z</time>
      </trkpt>
      <trkpt lat="48.72342" lon="8.22066">
        <ele>429.8</ele>
        <time>2020-07-25T14:08:57Z</time>
      </trkpt>
      <trkpt lat="48.72344" lon="8.22066">
        <ele>429.8</ele>
        <time>2020-07-25T14:08:58Z</time>
      </trkpt>
      <trkpt lat="48.72345" lon="8.22065">
        <ele>430</ele>
        <time>2020-07-25T14:08:59Z</time>
      </trkpt>
      <trkpt lat="48.7235" lon="8.22064">
        <ele>430.8</ele>
        <time>2020-07-25T14:09:02Z</time>
      </trkpt>
      <trkpt lat="48.72352" lon="8.22063">
        <ele>431</ele>
        <time>2020-07-25T14:09:03Z</time>
      </trkpt>
      <trkpt lat="48.72354" lon="8.22061">
        <ele>431.6</ele>
        <time>2020-07-25T14:09:05Z</time>
      </trkpt>
      <trkpt lat="48.72355" lon="8.2206">
        <ele>431.6</ele>
        <time>2020-07-25T14:09:06Z</time>
      </trkpt>
      <trkpt lat="48.7236" lon="8.2206">
        <ele>432.2</ele>
        <time>2020-07-25T14:09:09Z</time>
      </trkpt>
      <trkpt lat="48.72363" lon="8.22058">
        <ele>432.6</ele>
        <time>2020-07-25T14:09:11Z</time>
      </trkpt>
      <trkpt lat="48.72364" lon="8.22057">
        <ele>432.8</ele>
        <time>2020-07-25T14:09:12Z</time>
      </trkpt>
      <trkpt lat="48.72366" lon="8.22054">
        <ele>433.2</ele>
        <time>2020-07-25T14:09:14Z</time>
      </trkpt>
      <trkpt lat="48.7237" lon="8.22049">
        <ele>433.8</ele>
        <time>2020-07-25T14:09:18Z</time>
      </trkpt>
      <trkpt lat="48.72374" lon="8.22044">
        <ele>434.2</ele>
        <time>2020-07-25T14:09:22Z</time>
      </trkpt>
      <trkpt lat="48.72378" lon="8.2204">
        <ele>435</ele>
        <time>2020-07-25T14:09:26Z</time>
      </trkpt>
      <trkpt lat="48.7238" lon="8.22037">
        <ele>435.4</ele>
        <time>2020-07-25T14:09:28Z</time>
      </trkpt>
      <trkpt lat="48.72387" lon="8.22029">
        <ele>436.4</ele>
        <time>2020-07-25T14:09:34Z</time>
      </trkpt>
      <trkpt lat="48.72394" lon="8.22022">
        <ele>437.4</ele>
        <time>2020-07-25T14:09:40Z</time>
      </trkpt>
      <trkpt lat="48.72396" lon="8.22019">
        <ele>437.8</ele>
        <time>2020-07-25T14:09:42Z</time>
      </trkpt>
      <trkpt lat="48.724" lon="8.22018">
        <ele>438.6</ele>
        <time>2020-07-25T14:09:45Z</time>
      </trkpt>
      <trkpt lat="48.72406" lon="8.22013">
        <ele>439.6</ele>
        <time>2020-07-25T14:09:50Z</time>
      </trkpt>
      <trkpt lat="48.72407" lon="8.22011">
        <ele>439.8</ele>
        <time>2020-07-25T14:09:51Z</time>
      </trkpt>
      <trkpt lat="48.72408" lon="8.2201">
        <ele>440.2</ele>
        <time>2020-07-25T14:09:52Z</time>
      </trkpt>
      <trkpt lat="48.7241" lon="8.22009">
        <ele>441</ele>
        <time>2020-07-25T14:09:54Z</time>
      </trkpt>
      <trkpt lat="48.72414" lon="8.22004">
        <ele>441.8</ele>
        <time>2020-07-25T14:09:58Z</time>
      </trkpt>
      <trkpt lat="48.72415" lon="8.22004">
        <ele>442</ele>
        <time>2020-07-25T14:09:59Z</time>
      </trkpt>
      <trkpt lat="48.72416" lon="8.22003">
        <ele>442</ele>
        <time>2020-07-25T14:10:00Z</time>
      </trkpt>
      <trkpt lat="48.72419" lon="8.21992">
        <ele>443</ele>
        <time>2020-07-25T14:10:05Z</time>
      </trkpt>
      <trkpt lat="48.72419" lon="8.21984">
        <ele>443.4</ele>
        <time>2020-07-25T14:10:09Z</time>
      </trkpt>
      <trkpt lat="48.72421" lon="8.21974">
        <ele>444</ele>
        <time>2020-07-25T14:10:14Z</time>
      </trkpt>
      <trkpt lat="48.72422" lon="8.21972">
        <ele>444.2</ele>
        <time>2020-07-25T14:10:15Z</time>
      </trkpt>
      <trkpt lat="48.72424" lon="8.21961">
        <ele>445.4</ele>
        <time>2020-07-25T14:10:20Z</time>
      </trkpt>
      <trkpt lat="48.72426" lon="8.21956">
        <ele>445.8</ele>
        <time>2020-07-25T14:10:22Z</time>
      </trkpt>
      <trkpt lat="48.72426" lon="8.21954">
        <ele>446</ele>
        <time>2020-07-25T14:10:23Z</time>
      </trkpt>
      <trkpt lat="48.72429" lon="8.21949">
        <ele>446.4</ele>
        <time>2020-07-25T14:10:26Z</time>
      </trkpt>
      <trkpt lat="48.72431" lon="8.21943">
        <ele>447.4</ele>
        <time>2020-07-25T14:10:29Z</time>
      </trkpt>
      <trkpt lat="48.72432" lon="8.2194">
        <ele>447.8</ele>
        <time>2020-07-25T14:10:31Z</time>
      </trkpt>
      <trkpt lat="48.72438" lon="8.21925">
        <ele>448.8</ele>
        <time>2020-07-25T14:10:38Z</time>
      </trkpt>
      <trkpt lat="48.72444" lon="8.21913">
        <ele>450</ele>
        <time>2020-07-25T14:10:44Z</time>
      </trkpt>
      <trkpt lat="48.72445" lon="8.21911">
        <ele>450.2</ele>
        <time>2020-07-25T14:10:45Z</time>
      </trkpt>
      <trkpt lat="48.72448" lon="8.21904">
        <ele>451</ele>
        <time>2020-07-25T14:10:49Z</time>
      </trkpt>
      <trkpt lat="48.72452" lon="8.21897">
        <ele>451.8</ele>
        <time>2020-07-25T14:10:53Z</time>
      </trkpt>
      <trkpt lat="48.72454" lon="8.21894">
        <ele>452</ele>
        <time>2020-07-25T14:10:55Z</time>
      </trkpt>
      <trkpt lat="48.72458" lon="8.2189">
        <ele>452.6</ele>
        <time>2020-07-25T14:10:58Z</time>
      </trkpt>
      <trkpt lat="48.72461" lon="8.21887">
        <ele>453.2</ele>
        <time>2020-07-25T14:11:01Z</time>
      </trkpt>
      <trkpt lat="48.72467" lon="8.21883">
        <ele>454.2</ele>
        <time>2020-07-25T14:11:06Z</time>
      </trkpt>
      <trkpt lat="48.72469" lon="8.21882">
        <ele>454.2</ele>
        <time>2020-07-25T14:11:07Z</time>
      </trkpt>
      <trkpt lat="48.72471" lon="8.21879">
        <ele>454.8</ele>
        <time>2020-07-25T14:11:10Z</time>
      </trkpt>
      <trkpt lat="48.72474" lon="8.21876">
        <ele>455.4</ele>
        <time>2020-07-25T14:11:12Z</time>
      </trkpt>
      <trkpt lat="48.72475" lon="8.21875">
        <ele>455.6</ele>
        <time>2020-07-25T14:11:13Z</time>
      </trkpt>
      <trkpt lat="48.72483" lon="8.21869">
        <ele>456.6</ele>
        <time>2020-07-25T14:11:19Z</time>
      </trkpt>
      <trkpt lat="48.72484" lon="8.21868">
        <ele>456.8</ele>
        <time>2020-07-25T14:11:20Z</time>
      </trkpt>
      <trkpt lat="48.72486" lon="8.21868">
        <ele>457.2</ele>
        <time>2020-07-25T14:11:22Z</time>
      </trkpt>
      <trkpt lat="48.72488" lon="8.21865">
        <ele>457.6</ele>
        <time>2020-07-25T14:11:24Z</time>
      </trkpt>
      <trkpt lat="48.72489" lon="8.21864">
        <ele>457.8</ele>
        <time>2020-07-25T14:11:25Z</time>
      </trkpt>
      <trkpt lat="48.72496" lon="8.21861">
        <ele>458.8</ele>
        <time>2020-07-25T14:11:31Z</time>
      </trkpt>
      <trkpt lat="48.72497" lon="8.2186">
        <ele>459</ele>
        <time>2020-07-25T14:11:32Z</time>
      </trkpt>
      <trkpt lat="48.72499" lon="8.21858">
        <ele>459.2</ele>
        <time>2020-07-25T14:11:34Z</time>
      </trkpt>
      <trkpt lat="48.725" lon="8.21857">
        <ele>459.4</ele>
        <time>2020-07-25T14:11:35Z</time>
      </trkpt>
      <trkpt lat="48.72502" lon="8.21856">
        <ele>459.4</ele>
        <time>2020-07-25T14:11:36Z</time>
      </trkpt>
      <trkpt lat="48.72507" lon="8.21853">
        <ele>459.6</ele>
        <time>2020-07-25T14:11:39Z</time>
      </trkpt>
      <trkpt lat="48.72509" lon="8.21851">
        <ele>460</ele>
        <time>2020-07-25T14:11:41Z</time>
      </trkpt>
      <trkpt lat="48.72514" lon="8.21847">
        <ele>460.4</ele>
        <time>2020-07-25T14:11:44Z</time>
      </trkpt>
      <trkpt lat="48.72516" lon="8.21844">
        <ele>460.6</ele>
        <time>2020-07-25T14:11:45Z</time>
      </trkpt>
      <trkpt lat="48.72519" lon="8.21841">
        <ele>461</ele>
        <time>2020-07-25T14:11:48Z</time>
      </trkpt>
      <trkpt lat="48.7252" lon="8.21841">
        <ele>461.2</ele>
        <time>2020-07-25T14:11:49Z</time>
      </trkpt>
      <trkpt lat="48.72521" lon="8.21839">
        <ele>461.2</ele>
        <time>2020-07-25T14:11:50Z</time>
      </trkpt>
      <trkpt lat="48.72527" lon="8.21828">
        <ele>462.2</ele>
        <time>2020-07-25T14:11:56Z</time>
      </trkpt>
      <trkpt lat="48.72526" lon="8.21826">
        <ele>462.4</ele>
        <time>2020-07-25T14:11:57Z</time>
      </trkpt>
      <trkpt lat="48.72529" lon="8.21822">
        <ele>462.6</ele>
        <time>2020-07-25T14:11:59Z</time>
      </trkpt>
      <trkpt lat="48.7253" lon="8.21821">
        <ele>462.8</ele>
        <time>2020-07-25T14:12:00Z</time>
      </trkpt>
      <trkpt lat="48.7253" lon="8.21817">
        <ele>463.4</ele>
        <time>2020-07-25T14:12:04Z</time>
      </trkpt>
      <trkpt lat="48.7253" lon="8.21814">
        <ele>463.6</ele>
        <time>2020-07-25T14:12:05Z</time>
      </trkpt>
      <trkpt lat="48.7253" lon="8.2181">
        <ele>463.6</ele>
        <time>2020-07-25T14:12:06Z</time>
      </trkpt>
      <trkpt lat="48.7253" lon="8.21801">
        <ele>463.8</ele>
        <time>2020-07-25T14:12:09Z</time>
      </trkpt>
      <trkpt lat="48.72531" lon="8.21795">
        <ele>464.2</ele>
        <time>2020-07-25T14:12:11Z</time>
      </trkpt>
      <trkpt lat="48.72531" lon="8.21792">
        <ele>464.4</ele>
        <time>2020-07-25T14:12:12Z</time>
      </trkpt>
      <trkpt lat="48.72532" lon="8.21789">
        <ele>464.4</ele>
        <time>2020-07-25T14:12:13Z</time>
      </trkpt>
      <trkpt lat="48.72534" lon="8.2178">
        <ele>465</ele>
        <time>2020-07-25T14:12:16Z</time>
      </trkpt>
      <trkpt lat="48.72539" lon="8.21767">
        <ele>465.6</ele>
        <time>2020-07-25T14:12:21Z</time>
      </trkpt>
      <trkpt lat="48.7254" lon="8.21765">
        <ele>465.8</ele>
        <time>2020-07-25T14:12:22Z</time>
      </trkpt>
      <trkpt lat="48.72551" lon="8.21751">
        <ele>466.4</ele>
        <time>2020-07-25T14:12:29Z</time>
      </trkpt>
      <trkpt lat="48.72553" lon="8.21747">
        <ele>466.8</ele>
        <time>2020-07-25T14:12:31Z</time>
      </trkpt>
      <trkpt lat="48.72562" lon="8.21729">
        <ele>467.6</ele>
        <time>2020-07-25T14:12:37Z</time>
      </trkpt>
      <trkpt lat="48.72565" lon="8.21724">
        <ele>467.8</ele>
        <time>2020-07-25T14:12:39Z</time>
      </trkpt>
      <trkpt lat="48.72571" lon="8.21718">
        <ele>468</ele>
        <time>2020-07-25T14:12:42Z</time>
      </trkpt>
      <trkpt lat="48.72577" lon="8.21703">
        <ele>468.4</ele>
        <time>2020-07-25T14:12:47Z</time>
      </trkpt>
      <trkpt lat="48.72581" lon="8.21694">
        <ele>469</ele>
        <time>2020-07-25T14:12:50Z</time>
      </trkpt>
      <trkpt lat="48.72588" lon="8.21683">
        <ele>469.4</ele>
        <time>2020-07-25T14:12:54Z</time>
      </trkpt>
      <trkpt lat="48.72595" lon="8.21672">
        <ele>470</ele>
        <time>2020-07-25T14:12:58Z</time>
      </trkpt>
      <trkpt lat="48.72601" lon="8.21666">
        <ele>470.2</ele>
        <time>2020-07-25T14:13:01Z</time>
      </trkpt>
      <trkpt lat="48.72612" lon="8.21659">
        <ele>471.2</ele>
        <time>2020-07-25T14:13:06Z</time>
      </trkpt>
      <trkpt lat="48.72626" lon="8.21656">
        <ele>472</ele>
        <time>2020-07-25T14:13:12Z</time>
      </trkpt>
      <trkpt lat="48.72629" lon="8.21656">
        <ele>472.2</ele>
        <time>2020-07-25T14:13:13Z</time>
      </trkpt>
      <trkpt lat="48.72631" lon="8.21655">
        <ele>472.2</ele>
        <time>2020-07-25T14:13:14Z</time>
      </trkpt>
      <trkpt lat="48.72637" lon="8.21654">
        <ele>472.8</ele>
        <time>2020-07-25T14:13:17Z</time>
      </trkpt>
      <trkpt lat="48.72645" lon="8.21654">
        <ele>473.4</ele>
        <time>2020-07-25T14:13:20Z</time>
      </trkpt>
      <trkpt lat="48.72649" lon="8.21655">
        <ele>473.8</ele>
        <time>2020-07-25T14:13:22Z</time>
      </trkpt>
      <trkpt lat="48.72657" lon="8.21655">
        <ele>474.4</ele>
        <time>2020-07-25T14:13:25Z</time>
      </trkpt>
      <trkpt lat="48.72661" lon="8.21657">
        <ele>474.8</ele>
        <time>2020-07-25T14:13:27Z</time>
      </trkpt>
      <trkpt lat="48.7267" lon="8.21657">
        <ele>475.2</ele>
        <time>2020-07-25T14:13:31Z</time>
      </trkpt>
      <trkpt lat="48.72687" lon="8.21658">
        <ele>476</ele>
        <time>2020-07-25T14:13:37Z</time>
      </trkpt>
      <trkpt lat="48.72691" lon="8.21658">
        <ele>476.4</ele>
        <time>2020-07-25T14:13:39Z</time>
      </trkpt>
      <trkpt lat="48.72704" lon="8.21662">
        <ele>477</ele>
        <time>2020-07-25T14:13:44Z</time>
      </trkpt>
      <trkpt lat="48.72709" lon="8.21663">
        <ele>477.4</ele>
        <time>2020-07-25T14:13:46Z</time>
      </trkpt>
      <trkpt lat="48.7272" lon="8.21666">
        <ele>478</ele>
        <time>2020-07-25T14:13:51Z</time>
      </trkpt>
      <trkpt lat="48.72723" lon="8.2167">
        <ele>478.2</ele>
        <time>2020-07-25T14:13:53Z</time>
      </trkpt>
      <trkpt lat="48.72727" lon="8.21674">
        <ele>478.4</ele>
        <time>2020-07-25T14:13:55Z</time>
      </trkpt>
      <trkpt lat="48.72739" lon="8.21682">
        <ele>479.4</ele>
        <time>2020-07-25T14:14:01Z</time>
      </trkpt>
      <trkpt lat="48.72741" lon="8.21684">
        <ele>479.6</ele>
        <time>2020-07-25T14:14:02Z</time>
      </trkpt>
      <trkpt lat="48.72753" lon="8.21694">
        <ele>480.4</ele>
        <time>2020-07-25T14:14:08Z</time>
      </trkpt>
      <trkpt lat="48.72755" lon="8.21696">
        <ele>480.6</ele>
        <time>2020-07-25T14:14:09Z</time>
      </trkpt>
      <trkpt lat="48.72769" lon="8.21715">
        <ele>481.6</ele>
        <time>2020-07-25T14:14:17Z</time>
      </trkpt>
      <trkpt lat="48.7278" lon="8.21728">
        <ele>482.4</ele>
        <time>2020-07-25T14:14:23Z</time>
      </trkpt>
      <trkpt lat="48.72781" lon="8.21731">
        <ele>482.6</ele>
        <time>2020-07-25T14:14:24Z</time>
      </trkpt>
      <trkpt lat="48.72783" lon="8.21734">
        <ele>482.8</ele>
        <time>2020-07-25T14:14:25Z</time>
      </trkpt>
      <trkpt lat="48.72796" lon="8.21749">
        <ele>483.6</ele>
        <time>2020-07-25T14:14:32Z</time>
      </trkpt>
      <trkpt lat="48.72806" lon="8.21764">
        <ele>484.4</ele>
        <time>2020-07-25T14:14:39Z</time>
      </trkpt>
      <trkpt lat="48.72809" lon="8.21769">
        <ele>484.6</ele>
        <time>2020-07-25T14:14:41Z</time>
      </trkpt>
      <trkpt lat="48.7281" lon="8.21771">
        <ele>484.8</ele>
        <time>2020-07-25T14:14:44Z</time>
      </trkpt>
      <trkpt lat="48.7281" lon="8.21771">
        <ele>485</ele>
        <time>2020-07-25T14:14:45Z</time>
      </trkpt>
      <trkpt lat="48.72813" lon="8.21774">
        <ele>486.2</ele>
        <time>2020-07-25T14:16:08Z</time>
      </trkpt>
      <trkpt lat="48.72818" lon="8.21776">
        <ele>486.2</ele>
        <time>2020-07-25T14:16:10Z</time>
      </trkpt>
      <trkpt lat="48.72824" lon="8.21778">
        <ele>486.2</ele>
        <time>2020-07-25T14:16:12Z</time>
      </trkpt>
      <trkpt lat="48.72827" lon="8.21781">
        <ele>486.2</ele>
        <time>2020-07-25T14:16:13Z</time>
      </trkpt>
      <trkpt lat="48.7283" lon="8.21783">
        <ele>486.2</ele>
        <time>2020-07-25T14:16:14Z</time>
      </trkpt>
      <trkpt lat="48.7285" lon="8.21794">
        <ele>485</ele>
        <time>2020-07-25T14:16:19Z</time>
      </trkpt>
      <trkpt lat="48.72854" lon="8.21796">
        <ele>484.8</ele>
        <time>2020-07-25T14:16:20Z</time>
      </trkpt>
      <trkpt lat="48.72866" lon="8.21802">
        <ele>483.8</ele>
        <time>2020-07-25T14:16:22Z</time>
      </trkpt>
      <trkpt lat="48.72879" lon="8.21806">
        <ele>482.4</ele>
        <time>2020-07-25T14:16:24Z</time>
      </trkpt>
      <trkpt lat="48.72893" lon="8.21813">
        <ele>480.8</ele>
        <time>2020-07-25T14:16:26Z</time>
      </trkpt>
      <trkpt lat="48.72909" lon="8.2182">
        <ele>479.4</ele>
        <time>2020-07-25T14:16:28Z</time>
      </trkpt>
      <trkpt lat="48.72928" lon="8.21829">
        <ele>478</ele>
        <time>2020-07-25T14:16:30Z</time>
      </trkpt>
      <trkpt lat="48.72946" lon="8.21837">
        <ele>476.2</ele>
        <time>2020-07-25T14:16:32Z</time>
      </trkpt>
      <trkpt lat="48.72963" lon="8.21847">
        <ele>474.2</ele>
        <time>2020-07-25T14:16:34Z</time>
      </trkpt>
      <trkpt lat="48.7297" lon="8.21852">
        <ele>472.8</ele>
        <time>2020-07-25T14:16:35Z</time>
      </trkpt>
      <trkpt lat="48.72981" lon="8.21857">
        <ele>471.4</ele>
        <time>2020-07-25T14:16:36Z</time>
      </trkpt>
      <trkpt lat="48.72989" lon="8.21862">
        <ele>469.8</ele>
        <time>2020-07-25T14:16:37Z</time>
      </trkpt>
      <trkpt lat="48.72997" lon="8.21865">
        <ele>468.8</ele>
        <time>2020-07-25T14:16:38Z</time>
      </trkpt>
      <trkpt lat="48.73006" lon="8.21869">
        <ele>467.6</ele>
        <time>2020-07-25T14:16:39Z</time>
      </trkpt>
      <trkpt lat="48.73013" lon="8.21872">
        <ele>466.4</ele>
        <time>2020-07-25T14:16:40Z</time>
      </trkpt>
      <trkpt lat="48.73023" lon="8.21878">
        <ele>465.4</ele>
        <time>2020-07-25T14:16:41Z</time>
      </trkpt>
      <trkpt lat="48.73031" lon="8.21884">
        <ele>464.4</ele>
        <time>2020-07-25T14:16:42Z</time>
      </trkpt>
      <trkpt lat="48.73038" lon="8.2189">
        <ele>463.4</ele>
        <time>2020-07-25T14:16:43Z</time>
      </trkpt>
      <trkpt lat="48.73054" lon="8.21905">
        <ele>462.4</ele>
        <time>2020-07-25T14:16:45Z</time>
      </trkpt>
      <trkpt lat="48.73078" lon="8.21931">
        <ele>461.6</ele>
        <time>2020-07-25T14:16:48Z</time>
      </trkpt>
      <trkpt lat="48.73086" lon="8.2194">
        <ele>460.8</ele>
        <time>2020-07-25T14:16:49Z</time>
      </trkpt>
      <trkpt lat="48.73103" lon="8.21957">
        <ele>459.6</ele>
        <time>2020-07-25T14:16:51Z</time>
      </trkpt>
      <trkpt lat="48.73119" lon="8.2197">
        <ele>458.4</ele>
        <time>2020-07-25T14:16:53Z</time>
      </trkpt>
      <trkpt lat="48.73134" lon="8.21983">
        <ele>456.4</ele>
        <time>2020-07-25T14:16:55Z</time>
      </trkpt>
      <trkpt lat="48.73142" lon="8.21989">
        <ele>455.4</ele>
        <time>2020-07-25T14:16:56Z</time>
      </trkpt>
      <trkpt lat="48.73158" lon="8.22">
        <ele>453.4</ele>
        <time>2020-07-25T14:16:58Z</time>
      </trkpt>
      <trkpt lat="48.73164" lon="8.22003">
        <ele>452.6</ele>
        <time>2020-07-25T14:16:59Z</time>
      </trkpt>
      <trkpt lat="48.73172" lon="8.22003">
        <ele>452.2</ele>
        <time>2020-07-25T14:17:00Z</time>
      </trkpt>
      <trkpt lat="48.73186" lon="8.21998">
        <ele>451.2</ele>
        <time>2020-07-25T14:17:02Z</time>
      </trkpt>
      <trkpt lat="48.73191" lon="8.21995">
        <ele>450.8</ele>
        <time>2020-07-25T14:17:03Z</time>
      </trkpt>
      <trkpt lat="48.73195" lon="8.2199">
        <ele>450.8</ele>
        <time>2020-07-25T14:17:04Z</time>
      </trkpt>
      <trkpt lat="48.73203" lon="8.21981">
        <ele>450.6</ele>
        <time>2020-07-25T14:17:06Z</time>
      </trkpt>
      <trkpt lat="48.73212" lon="8.21973">
        <ele>450.6</ele>
        <time>2020-07-25T14:17:08Z</time>
      </trkpt>
      <trkpt lat="48.7322" lon="8.21969">
        <ele>450.6</ele>
        <time>2020-07-25T14:17:10Z</time>
      </trkpt>
      <trkpt lat="48.73225" lon="8.21966">
        <ele>450.4</ele>
        <time>2020-07-25T14:17:11Z</time>
      </trkpt>
      <trkpt lat="48.73259" lon="8.21947">
        <ele>450</ele>
        <time>2020-07-25T14:17:17Z</time>
      </trkpt>
      <trkpt lat="48.73265" lon="8.21943">
        <ele>450</ele>
        <time>2020-07-25T14:17:18Z</time>
      </trkpt>
      <trkpt lat="48.73284" lon="8.21936">
        <ele>450</ele>
        <time>2020-07-25T14:17:21Z</time>
      </trkpt>
      <trkpt lat="48.73291" lon="8.21934">
        <ele>449.8</ele>
        <time>2020-07-25T14:17:22Z</time>
      </trkpt>
      <trkpt lat="48.73303" lon="8.21933">
        <ele>449.6</ele>
        <time>2020-07-25T14:17:24Z</time>
      </trkpt>
      <trkpt lat="48.73322" lon="8.21933">
        <ele>449</ele>
        <time>2020-07-25T14:17:27Z</time>
      </trkpt>
      <trkpt lat="48.73347" lon="8.21933">
        <ele>448.8</ele>
        <time>2020-07-25T14:17:32Z</time>
      </trkpt>
      <trkpt lat="48.73354" lon="8.2193">
        <ele>448.8</ele>
        <time>2020-07-25T14:17:34Z</time>
      </trkpt>
      <trkpt lat="48.73362" lon="8.21925">
        <ele>448.8</ele>
        <time>2020-07-25T14:17:36Z</time>
      </trkpt>
      <trkpt lat="48.73377" lon="8.21911">
        <ele>450.2</ele>
        <time>2020-07-25T14:17:42Z</time>
      </trkpt>
      <trkpt lat="48.73388" lon="8.21896">
        <ele>451</ele>
        <time>2020-07-25T14:17:47Z</time>
      </trkpt>
      <trkpt lat="48.7339" lon="8.21894">
        <ele>451.2</ele>
        <time>2020-07-25T14:17:48Z</time>
      </trkpt>
      <trkpt lat="48.734" lon="8.21881">
        <ele>452</ele>
        <time>2020-07-25T14:17:53Z</time>
      </trkpt>
      <trkpt lat="48.73402" lon="8.21878">
        <ele>452.4</ele>
        <time>2020-07-25T14:17:54Z</time>
      </trkpt>
      <trkpt lat="48.73404" lon="8.21876">
        <ele>452.8</ele>
        <time>2020-07-25T14:17:55Z</time>
      </trkpt>
      <trkpt lat="48.7341" lon="8.21876">
        <ele>453.6</ele>
        <time>2020-07-25T14:17:58Z</time>
      </trkpt>
      <trkpt lat="48.73419" lon="8.21877">
        <ele>454.8</ele>
        <time>2020-07-25T14:18:02Z</time>
      </trkpt>
      <trkpt lat="48.7342" lon="8.21877">
        <ele>455</ele>
        <time>2020-07-25T14:18:03Z</time>
      </trkpt>
      <trkpt lat="48.73427" lon="8.2188">
        <ele>455.8</ele>
        <time>2020-07-25T14:18:07Z</time>
      </trkpt>
      <trkpt lat="48.7343" lon="8.21882">
        <ele>456</ele>
        <time>2020-07-25T14:18:08Z</time>
      </trkpt>
      <trkpt lat="48.73433" lon="8.21882">
        <ele>456.2</ele>
        <time>2020-07-25T14:18:09Z</time>
      </trkpt>
      <trkpt lat="48.73439" lon="8.21883">
        <ele>457</ele>
        <time>2020-07-25T14:18:12Z</time>
      </trkpt>
      <trkpt lat="48.73457" lon="8.21889">
        <ele>457.8</ele>
        <time>2020-07-25T14:18:16Z</time>
      </trkpt>
      <trkpt lat="48.73458" lon="8.2189">
        <ele>458.2</ele>
        <time>2020-07-25T14:18:17Z</time>
      </trkpt>
      <trkpt lat="48.73463" lon="8.21891">
        <ele>458.8</ele>
        <time>2020-07-25T14:18:20Z</time>
      </trkpt>
      <trkpt lat="48.73469" lon="8.21895">
        <ele>459.4</ele>
        <time>2020-07-25T14:18:24Z</time>
      </trkpt>
      <trkpt lat="48.7347" lon="8.21896">
        <ele>459.6</ele>
        <time>2020-07-25T14:18:25Z</time>
      </trkpt>
      <trkpt lat="48.73476" lon="8.21898">
        <ele>460</ele>
        <time>2020-07-25T14:18:29Z</time>
      </trkpt>
      <trkpt lat="48.73478" lon="8.21898">
        <ele>460</ele>
        <time>2020-07-25T14:18:30Z</time>
      </trkpt>
      <trkpt lat="48.73488" lon="8.21897">
        <ele>460.2</ele>
        <time>2020-07-25T14:18:36Z</time>
      </trkpt>
      <trkpt lat="48.73503" lon="8.21888">
        <ele>459.4</ele>
        <time>2020-07-25T14:18:41Z</time>
      </trkpt>
      <trkpt lat="48.73522" lon="8.21863">
        <ele>458.4</ele>
        <time>2020-07-25T14:18:47Z</time>
      </trkpt>
      <trkpt lat="48.7353" lon="8.21838">
        <ele>457.4</ele>
        <time>2020-07-25T14:18:51Z</time>
      </trkpt>
      <trkpt lat="48.73533" lon="8.2183">
        <ele>457.4</ele>
        <time>2020-07-25T14:18:52Z</time>
      </trkpt>
      <trkpt lat="48.73541" lon="8.21801">
        <ele>456.8</ele>
        <time>2020-07-25T14:18:55Z</time>
      </trkpt>
      <trkpt lat="48.73542" lon="8.21791">
        <ele>456.6</ele>
        <time>2020-07-25T14:18:56Z</time>
      </trkpt>
      <trkpt lat="48.73543" lon="8.21771">
        <ele>456.6</ele>
        <time>2020-07-25T14:18:58Z</time>
      </trkpt>
      <trkpt lat="48.73543" lon="8.21753">
        <ele>455.4</ele>
        <time>2020-07-25T14:19:00Z</time>
      </trkpt>
      <trkpt lat="48.73543" lon="8.21746">
        <ele>454.6</ele>
        <time>2020-07-25T14:19:01Z</time>
      </trkpt>
      <trkpt lat="48.73543" lon="8.21738">
        <ele>454</ele>
        <time>2020-07-25T14:19:02Z</time>
      </trkpt>
      <trkpt lat="48.73543" lon="8.2173">
        <ele>453.2</ele>
        <time>2020-07-25T14:19:03Z</time>
      </trkpt>
      <trkpt lat="48.73544" lon="8.21724">
        <ele>452.6</ele>
        <time>2020-07-25T14:19:04Z</time>
      </trkpt>
      <trkpt lat="48.73545" lon="8.21713">
        <ele>451</ele>
        <time>2020-07-25T14:19:06Z</time>
      </trkpt>
      <trkpt lat="48.73548" lon="8.21704">
        <ele>449.8</ele>
        <time>2020-07-25T14:19:08Z</time>
      </trkpt>
      <trkpt lat="48.73555" lon="8.21689">
        <ele>448.6</ele>
        <time>2020-07-25T14:19:11Z</time>
      </trkpt>
      <trkpt lat="48.73557" lon="8.21684">
        <ele>447.4</ele>
        <time>2020-07-25T14:19:14Z</time>
      </trkpt>
      <trkpt lat="48.73557" lon="8.21684">
        <ele>446.6</ele>
        <time>2020-07-25T14:19:16Z</time>
      </trkpt>
      <trkpt lat="48.73553" lon="8.21691">
        <ele>445.4</ele>
        <time>2020-07-25T14:19:44Z</time>
      </trkpt>
      <trkpt lat="48.73551" lon="8.21695">
        <ele>445.4</ele>
        <time>2020-07-25T14:19:46Z</time>
      </trkpt>
      <trkpt lat="48.73545" lon="8.21709">
        <ele>445.6</ele>
        <time>2020-07-25T14:19:51Z</time>
      </trkpt>
      <trkpt lat="48.73544" lon="8.21721">
        <ele>446.4</ele>
        <time>2020-07-25T14:19:55Z</time>
      </trkpt>
      <trkpt lat="48.73544" lon="8.21724">
        <ele>446.6</ele>
        <time>2020-07-25T14:19:56Z</time>
      </trkpt>
      <trkpt lat="48.73542" lon="8.21732">
        <ele>446.8</ele>
        <time>2020-07-25T14:19:59Z</time>
      </trkpt>
      <trkpt lat="48.73542" lon="8.21737">
        <ele>447.4</ele>
        <time>2020-07-25T14:20:01Z</time>
      </trkpt>
      <trkpt lat="48.73541" lon="8.2174">
        <ele>447.4</ele>
        <time>2020-07-25T14:20:02Z</time>
      </trkpt>
      <trkpt lat="48.73541" lon="8.21742">
        <ele>447.8</ele>
        <time>2020-07-25T14:20:03Z</time>
      </trkpt>
      <trkpt lat="48.73541" lon="8.21742">
        <ele>448</ele>
        <time>2020-07-25T14:20:05Z</time>
      </trkpt>
      <trkpt lat="48.73536" lon="8.21745">
        <ele>450.2</ele>
        <time>2020-07-25T14:20:20Z</time>
      </trkpt>
      <trkpt lat="48.73532" lon="8.21748">
        <ele>450.2</ele>
        <time>2020-07-25T14:20:22Z</time>
      </trkpt>
      <trkpt lat="48.73528" lon="8.21749">
        <ele>450.2</ele>
        <time>2020-07-25T14:20:24Z</time>
      </trkpt>
      <trkpt lat="48.73525" lon="8.21746">
        <ele>449.8</ele>
        <time>2020-07-25T14:20:26Z</time>
      </trkpt>
      <trkpt lat="48.73525" lon="8.21744">
        <ele>449.8</ele>
        <time>2020-07-25T14:20:27Z</time>
      </trkpt>
      <trkpt lat="48.73524" lon="8.2174">
        <ele>449.4</ele>
        <time>2020-07-25T14:20:29Z</time>
      </trkpt>
      <trkpt lat="48.73526" lon="8.21736">
        <ele>448.8</ele>
        <time>2020-07-25T14:20:31Z</time>
      </trkpt>
      <trkpt lat="48.73526" lon="8.21724">
        <ele>448.2</ele>
        <time>2020-07-25T14:20:34Z</time>
      </trkpt>
      <trkpt lat="48.73525" lon="8.2172">
        <ele>448</ele>
        <time>2020-07-25T14:20:35Z</time>
      </trkpt>
      <trkpt lat="48.73525" lon="8.21717">
        <ele>447.8</ele>
        <time>2020-07-25T14:20:36Z</time>
      </trkpt>
      <trkpt lat="48.73524" lon="8.21709">
        <ele>447</ele>
        <time>2020-07-25T14:20:39Z</time>
      </trkpt>
      <trkpt lat="48.73524" lon="8.21708">
        <ele>446.4</ele>
        <time>2020-07-25T14:20:40Z</time>
      </trkpt>
      <trkpt lat="48.73523" lon="8.21707">
        <ele>445.8</ele>
        <time>2020-07-25T14:20:41Z</time>
      </trkpt>
      <trkpt lat="48.73521" lon="8.21705">
        <ele>445.4</ele>
        <time>2020-07-25T14:20:42Z</time>
      </trkpt>
      <trkpt lat="48.7352" lon="8.21702">
        <ele>444.8</ele>
        <time>2020-07-25T14:20:43Z</time>
      </trkpt>
      <trkpt lat="48.73517" lon="8.21699">
        <ele>443.6</ele>
        <time>2020-07-25T14:20:45Z</time>
      </trkpt>
      <trkpt lat="48.73517" lon="8.21697">
        <ele>443</ele>
        <time>2020-07-25T14:20:46Z</time>
      </trkpt>
      <trkpt lat="48.73517" lon="8.21695">
        <ele>442.6</ele>
        <time>2020-07-25T14:20:47Z</time>
      </trkpt>
      <trkpt lat="48.73517" lon="8.21693">
        <ele>442.4</ele>
        <time>2020-07-25T14:20:48Z</time>
      </trkpt>
      <trkpt lat="48.73516" lon="8.21691">
        <ele>442.2</ele>
        <time>2020-07-25T14:20:49Z</time>
      </trkpt>
      <trkpt lat="48.73516" lon="8.21688">
        <ele>441.8</ele>
        <time>2020-07-25T14:20:50Z</time>
      </trkpt>
      <trkpt lat="48.73516" lon="8.21683">
        <ele>441.6</ele>
        <time>2020-07-25T14:20:51Z</time>
      </trkpt>
      <trkpt lat="48.73516" lon="8.21673">
        <ele>440.4</ele>
        <time>2020-07-25T14:20:53Z</time>
      </trkpt>
      <trkpt lat="48.73515" lon="8.21667">
        <ele>439.8</ele>
        <time>2020-07-25T14:20:54Z</time>
      </trkpt>
      <trkpt lat="48.73516" lon="8.21661">
        <ele>439.2</ele>
        <time>2020-07-25T14:20:55Z</time>
      </trkpt>
      <trkpt lat="48.73519" lon="8.2165">
        <ele>438</ele>
        <time>2020-07-25T14:20:57Z</time>
      </trkpt>
      <trkpt lat="48.73522" lon="8.21646">
        <ele>437.2</ele>
        <time>2020-07-25T14:20:58Z</time>
      </trkpt>
      <trkpt lat="48.73523" lon="8.21642">
        <ele>436.2</ele>
        <time>2020-07-25T14:20:59Z</time>
      </trkpt>
      <trkpt lat="48.73525" lon="8.21635">
        <ele>435.6</ele>
        <time>2020-07-25T14:21:01Z</time>
      </trkpt>
      <trkpt lat="48.73526" lon="8.21632">
        <ele>434.6</ele>
        <time>2020-07-25T14:21:02Z</time>
      </trkpt>
      <trkpt lat="48.73528" lon="8.21627">
        <ele>433</ele>
        <time>2020-07-25T14:21:04Z</time>
      </trkpt>
      <trkpt lat="48.73529" lon="8.21624">
        <ele>432.4</ele>
        <time>2020-07-25T14:21:05Z</time>
      </trkpt>
      <trkpt lat="48.73531" lon="8.21621">
        <ele>431.8</ele>
        <time>2020-07-25T14:21:06Z</time>
      </trkpt>
      <trkpt lat="48.73533" lon="8.21618">
        <ele>431</ele>
        <time>2020-07-25T14:21:07Z</time>
      </trkpt>
      <trkpt lat="48.73534" lon="8.21613">
        <ele>430.4</ele>
        <time>2020-07-25T14:21:08Z</time>
      </trkpt>
      <trkpt lat="48.73535" lon="8.21602">
        <ele>429.8</ele>
        <time>2020-07-25T14:21:10Z</time>
      </trkpt>
      <trkpt lat="48.73537" lon="8.21597">
        <ele>429.2</ele>
        <time>2020-07-25T14:21:11Z</time>
      </trkpt>
      <trkpt lat="48.73541" lon="8.21592">
        <ele>427.8</ele>
        <time>2020-07-25T14:21:13Z</time>
      </trkpt>
      <trkpt lat="48.73542" lon="8.21585">
        <ele>426.4</ele>
        <time>2020-07-25T14:21:15Z</time>
      </trkpt>
      <trkpt lat="48.73542" lon="8.21576">
        <ele>425.2</ele>
        <time>2020-07-25T14:21:17Z</time>
      </trkpt>
      <trkpt lat="48.73546" lon="8.21567">
        <ele>423.8</ele>
        <time>2020-07-25T14:21:19Z</time>
      </trkpt>
      <trkpt lat="48.7355" lon="8.21558">
        <ele>422.6</ele>
        <time>2020-07-25T14:21:21Z</time>
      </trkpt>
      <trkpt lat="48.73548" lon="8.21549">
        <ele>421</ele>
        <time>2020-07-25T14:21:23Z</time>
      </trkpt>
      <trkpt lat="48.73549" lon="8.21546">
        <ele>420.2</ele>
        <time>2020-07-25T14:21:24Z</time>
      </trkpt>
      <trkpt lat="48.7355" lon="8.21544">
        <ele>419.4</ele>
        <time>2020-07-25T14:21:25Z</time>
      </trkpt>
      <trkpt lat="48.7355" lon="8.21544">
        <ele>417.8</ele>
        <time>2020-07-25T14:21:27Z</time>
      </trkpt>
      <trkpt lat="48.7355" lon="8.21544">
        <ele>417</ele>
        <time>2020-07-25T14:21:28Z</time>
      </trkpt>
      <trkpt lat="48.73553" lon="8.21533">
        <ele>414.4</ele>
        <time>2020-07-25T14:24:59Z</time>
      </trkpt>
      <trkpt lat="48.73555" lon="8.21526">
        <ele>414.4</ele>
        <time>2020-07-25T14:25:01Z</time>
      </trkpt>
      <trkpt lat="48.73555" lon="8.21523">
        <ele>414.2</ele>
        <time>2020-07-25T14:25:02Z</time>
      </trkpt>
      <trkpt lat="48.73561" lon="8.21511">
        <ele>413.2</ele>
        <time>2020-07-25T14:25:06Z</time>
      </trkpt>
      <trkpt lat="48.73562" lon="8.21508">
        <ele>412.8</ele>
        <time>2020-07-25T14:25:07Z</time>
      </trkpt>
      <trkpt lat="48.73563" lon="8.21502">
        <ele>412</ele>
        <time>2020-07-25T14:25:09Z</time>
      </trkpt>
      <trkpt lat="48.73565" lon="8.21496">
        <ele>411</ele>
        <time>2020-07-25T14:25:11Z</time>
      </trkpt>
      <trkpt lat="48.73565" lon="8.2149">
        <ele>409.8</ele>
        <time>2020-07-25T14:25:13Z</time>
      </trkpt>
      <trkpt lat="48.73567" lon="8.21479">
        <ele>409</ele>
        <time>2020-07-25T14:25:16Z</time>
      </trkpt>
      <trkpt lat="48.73568" lon="8.21474">
        <ele>408.6</ele>
        <time>2020-07-25T14:25:17Z</time>
      </trkpt>
      <trkpt lat="48.73568" lon="8.21459">
        <ele>407.4</ele>
        <time>2020-07-25T14:25:20Z</time>
      </trkpt>
      <trkpt lat="48.7357" lon="8.21454">
        <ele>407</ele>
        <time>2020-07-25T14:25:21Z</time>
      </trkpt>
      <trkpt lat="48.73571" lon="8.21446">
        <ele>405.6</ele>
        <time>2020-07-25T14:25:23Z</time>
      </trkpt>
      <trkpt lat="48.73571" lon="8.21437">
        <ele>404.2</ele>
        <time>2020-07-25T14:25:25Z</time>
      </trkpt>
      <trkpt lat="48.73571" lon="8.21434">
        <ele>403.4</ele>
        <time>2020-07-25T14:25:26Z</time>
      </trkpt>
      <trkpt lat="48.73569" lon="8.21429">
        <ele>402.6</ele>
        <time>2020-07-25T14:25:27Z</time>
      </trkpt>
      <trkpt lat="48.73568" lon="8.21422">
        <ele>401.4</ele>
        <time>2020-07-25T14:25:29Z</time>
      </trkpt>
      <trkpt lat="48.73566" lon="8.21413">
        <ele>399.8</ele>
        <time>2020-07-25T14:25:31Z</time>
      </trkpt>
      <trkpt lat="48.73564" lon="8.21401">
        <ele>398.6</ele>
        <time>2020-07-25T14:25:33Z</time>
      </trkpt>
      <trkpt lat="48.73563" lon="8.21393">
        <ele>397</ele>
        <time>2020-07-25T14:25:35Z</time>
      </trkpt>
      <trkpt lat="48.73562" lon="8.21388">
        <ele>395.8</ele>
        <time>2020-07-25T14:25:36Z</time>
      </trkpt>
      <trkpt lat="48.73563" lon="8.21385">
        <ele>394.8</ele>
        <time>2020-07-25T14:25:37Z</time>
      </trkpt>
      <trkpt lat="48.73562" lon="8.2138">
        <ele>394.2</ele>
        <time>2020-07-25T14:25:38Z</time>
      </trkpt>
      <trkpt lat="48.7356" lon="8.21376">
        <ele>393.4</ele>
        <time>2020-07-25T14:25:39Z</time>
      </trkpt>
      <trkpt lat="48.73558" lon="8.21369">
        <ele>391.8</ele>
        <time>2020-07-25T14:25:41Z</time>
      </trkpt>
      <trkpt lat="48.73553" lon="8.21358">
        <ele>390.2</ele>
        <time>2020-07-25T14:25:43Z</time>
      </trkpt>
      <trkpt lat="48.73549" lon="8.21351">
        <ele>389.4</ele>
        <time>2020-07-25T14:25:44Z</time>
      </trkpt>
      <trkpt lat="48.73542" lon="8.21339">
        <ele>388.6</ele>
        <time>2020-07-25T14:25:46Z</time>
      </trkpt>
      <trkpt lat="48.73538" lon="8.21332">
        <ele>388</ele>
        <time>2020-07-25T14:25:47Z</time>
      </trkpt>
      <trkpt lat="48.73537" lon="8.21326">
        <ele>387</ele>
        <time>2020-07-25T14:25:48Z</time>
      </trkpt>
      <trkpt lat="48.73535" lon="8.21316">
        <ele>385</ele>
        <time>2020-07-25T14:25:50Z</time>
      </trkpt>
      <trkpt lat="48.73534" lon="8.21312">
        <ele>384.2</ele>
        <time>2020-07-25T14:25:51Z</time>
      </trkpt>
      <trkpt lat="48.73533" lon="8.21308">
        <ele>383.4</ele>
        <time>2020-07-25T14:25:52Z</time>
      </trkpt>
      <trkpt lat="48.73532" lon="8.21306">
        <ele>381.8</ele>
        <time>2020-07-25T14:25:53Z</time>
      </trkpt>
      <trkpt lat="48.7353" lon="8.21295">
        <ele>379.8</ele>
        <time>2020-07-25T14:25:55Z</time>
      </trkpt>
      <trkpt lat="48.73528" lon="8.21282">
        <ele>378.8</ele>
        <time>2020-07-25T14:25:57Z</time>
      </trkpt>
      <trkpt lat="48.73528" lon="8.21276">
        <ele>378.4</ele>
        <time>2020-07-25T14:25:58Z</time>
      </trkpt>
      <trkpt lat="48.73525" lon="8.21264">
        <ele>377.6</ele>
        <time>2020-07-25T14:26:00Z</time>
      </trkpt>
      <trkpt lat="48.73524" lon="8.21261">
        <ele>377.2</ele>
        <time>2020-07-25T14:26:01Z</time>
      </trkpt>
      <trkpt lat="48.73524" lon="8.2126">
        <ele>375.8</ele>
        <time>2020-07-25T14:26:04Z</time>
      </trkpt>
      <trkpt lat="48.73524" lon="8.2126">
        <ele>375.4</ele>
        <time>2020-07-25T14:26:05Z</time>
      </trkpt>
      <trkpt lat="48.73524" lon="8.21256">
        <ele>373.2</ele>
        <time>2020-07-25T14:26:44Z</time>
      </trkpt>
      <trkpt lat="48.73524" lon="8.21249">
        <ele>373.2</ele>
        <time>2020-07-25T14:26:46Z</time>
      </trkpt>
      <trkpt lat="48.73523" lon="8.21248">
        <ele>373.2</ele>
        <time>2020-07-25T14:26:49Z</time>
      </trkpt>
      <trkpt lat="48.73521" lon="8.21242">
        <ele>373.2</ele>
        <time>2020-07-25T14:26:50Z</time>
      </trkpt>
      <trkpt lat="48.7351" lon="8.21216">
        <ele>372</ele>
        <time>2020-07-25T14:26:55Z</time>
      </trkpt>
      <trkpt lat="48.73508" lon="8.2121">
        <ele>371.4</ele>
        <time>2020-07-25T14:26:56Z</time>
      </trkpt>
      <trkpt lat="48.73506" lon="8.21206">
        <ele>370.6</ele>
        <time>2020-07-25T14:26:57Z</time>
      </trkpt>
      <trkpt lat="48.73501" lon="8.21199">
        <ele>369</ele>
        <time>2020-07-25T14:26:59Z</time>
      </trkpt>
      <trkpt lat="48.73499" lon="8.21194">
        <ele>367.8</ele>
        <time>2020-07-25T14:27:00Z</time>
      </trkpt>
      <trkpt lat="48.73498" lon="8.2119">
        <ele>366.6</ele>
        <time>2020-07-25T14:27:01Z</time>
      </trkpt>
      <trkpt lat="48.73494" lon="8.21183">
        <ele>365</ele>
        <time>2020-07-25T14:27:03Z</time>
      </trkpt>
      <trkpt lat="48.73491" lon="8.21172">
        <ele>363.8</ele>
        <time>2020-07-25T14:27:05Z</time>
      </trkpt>
      <trkpt lat="48.73488" lon="8.21162">
        <ele>362.4</ele>
        <time>2020-07-25T14:27:07Z</time>
      </trkpt>
      <trkpt lat="48.73488" lon="8.21155">
        <ele>360.6</ele>
        <time>2020-07-25T14:27:09Z</time>
      </trkpt>
      <trkpt lat="48.73487" lon="8.21139">
        <ele>359.4</ele>
        <time>2020-07-25T14:27:11Z</time>
      </trkpt>
      <trkpt lat="48.73486" lon="8.21134">
        <ele>358.8</ele>
        <time>2020-07-25T14:27:12Z</time>
      </trkpt>
      <trkpt lat="48.73484" lon="8.21128">
        <ele>358.2</ele>
        <time>2020-07-25T14:27:13Z</time>
      </trkpt>
      <trkpt lat="48.73484" lon="8.21122">
        <ele>357</ele>
        <time>2020-07-25T14:27:14Z</time>
      </trkpt>
      <trkpt lat="48.73484" lon="8.21107">
        <ele>355.6</ele>
        <time>2020-07-25T14:27:16Z</time>
      </trkpt>
      <trkpt lat="48.73487" lon="8.21102">
        <ele>354.8</ele>
        <time>2020-07-25T14:27:17Z</time>
      </trkpt>
      <trkpt lat="48.73489" lon="8.21099">
        <ele>354</ele>
        <time>2020-07-25T14:27:18Z</time>
      </trkpt>
      <trkpt lat="48.73489" lon="8.21097">
        <ele>353.6</ele>
        <time>2020-07-25T14:27:19Z</time>
      </trkpt>
      <trkpt lat="48.73488" lon="8.21097">
        <ele>352.6</ele>
        <time>2020-07-25T14:27:20Z</time>
      </trkpt>
      <trkpt lat="48.73488" lon="8.21097">
        <ele>352</ele>
        <time>2020-07-25T14:27:22Z</time>
      </trkpt>
      <trkpt lat="48.73489" lon="8.2109">
        <ele>348.4</ele>
        <time>2020-07-25T14:28:08Z</time>
      </trkpt>
      <trkpt lat="48.7349" lon="8.21087">
        <ele>348.4</ele>
        <time>2020-07-25T14:28:09Z</time>
      </trkpt>
      <trkpt lat="48.73492" lon="8.2108">
        <ele>348.4</ele>
        <time>2020-07-25T14:28:11Z</time>
      </trkpt>
      <trkpt lat="48.73494" lon="8.21072">
        <ele>348</ele>
        <time>2020-07-25T14:28:13Z</time>
      </trkpt>
      <trkpt lat="48.73496" lon="8.21068">
        <ele>347.8</ele>
        <time>2020-07-25T14:28:14Z</time>
      </trkpt>
      <trkpt lat="48.73501" lon="8.21061">
        <ele>347</ele>
        <time>2020-07-25T14:28:16Z</time>
      </trkpt>
      <trkpt lat="48.7351" lon="8.21055">
        <ele>345.6</ele>
        <time>2020-07-25T14:28:19Z</time>
      </trkpt>
      <trkpt lat="48.73515" lon="8.21053">
        <ele>344.4</ele>
        <time>2020-07-25T14:28:20Z</time>
      </trkpt>
      <trkpt lat="48.73519" lon="8.21051">
        <ele>343.8</ele>
        <time>2020-07-25T14:28:21Z</time>
      </trkpt>
      <trkpt lat="48.73523" lon="8.2105">
        <ele>343.2</ele>
        <time>2020-07-25T14:28:22Z</time>
      </trkpt>
      <trkpt lat="48.73531" lon="8.21047">
        <ele>342</ele>
        <time>2020-07-25T14:28:24Z</time>
      </trkpt>
      <trkpt lat="48.73535" lon="8.21044">
        <ele>341.6</ele>
        <time>2020-07-25T14:28:25Z</time>
      </trkpt>
      <trkpt lat="48.73545" lon="8.21033">
        <ele>340.6</ele>
        <time>2020-07-25T14:28:28Z</time>
      </trkpt>
      <trkpt lat="48.73553" lon="8.21026">
        <ele>339.4</ele>
        <time>2020-07-25T14:28:30Z</time>
      </trkpt>
      <trkpt lat="48.73556" lon="8.21022">
        <ele>339.2</ele>
        <time>2020-07-25T14:28:31Z</time>
      </trkpt>
      <trkpt lat="48.73566" lon="8.21012">
        <ele>338.2</ele>
        <time>2020-07-25T14:28:34Z</time>
      </trkpt>
      <trkpt lat="48.73571" lon="8.21006">
        <ele>337</ele>
        <time>2020-07-25T14:28:37Z</time>
      </trkpt>
      <trkpt lat="48.7358" lon="8.2099">
        <ele>335.6</ele>
        <time>2020-07-25T14:28:41Z</time>
      </trkpt>
      <trkpt lat="48.73581" lon="8.20986">
        <ele>335.2</ele>
        <time>2020-07-25T14:28:42Z</time>
      </trkpt>
      <trkpt lat="48.73581" lon="8.20976">
        <ele>334.2</ele>
        <time>2020-07-25T14:28:44Z</time>
      </trkpt>
      <trkpt lat="48.73581" lon="8.20976">
        <ele>333.6</ele>
        <time>2020-07-25T14:28:45Z</time>
      </trkpt>
      <trkpt lat="48.73583" lon="8.20979">
        <ele>330.2</ele>
        <time>2020-07-25T14:30:09Z</time>
      </trkpt>
      <trkpt lat="48.73583" lon="8.20985">
        <ele>330.2</ele>
        <time>2020-07-25T14:30:11Z</time>
      </trkpt>
      <trkpt lat="48.73582" lon="8.20989">
        <ele>330.2</ele>
        <time>2020-07-25T14:30:12Z</time>
      </trkpt>
      <trkpt lat="48.73581" lon="8.20997">
        <ele>330.2</ele>
        <time>2020-07-25T14:30:14Z</time>
      </trkpt>
      <trkpt lat="48.73578" lon="8.21001">
        <ele>330.2</ele>
        <time>2020-07-25T14:30:16Z</time>
      </trkpt>
      <trkpt lat="48.73577" lon="8.21008">
        <ele>330.2</ele>
        <time>2020-07-25T14:30:18Z</time>
      </trkpt>
      <trkpt lat="48.73578" lon="8.21014">
        <ele>330.4</ele>
        <time>2020-07-25T14:30:20Z</time>
      </trkpt>
      <trkpt lat="48.7358" lon="8.21015">
        <ele>330.8</ele>
        <time>2020-07-25T14:30:23Z</time>
      </trkpt>
      <trkpt lat="48.73581" lon="8.21014">
        <ele>331.4</ele>
        <time>2020-07-25T14:30:24Z</time>
      </trkpt>
      <trkpt lat="48.73584" lon="8.21012">
        <ele>332.4</ele>
        <time>2020-07-25T14:30:27Z</time>
      </trkpt>
      <trkpt lat="48.73585" lon="8.21012">
        <ele>332.8</ele>
        <time>2020-07-25T14:30:28Z</time>
      </trkpt>
      <trkpt lat="48.73587" lon="8.21009">
        <ele>333.2</ele>
        <time>2020-07-25T14:30:31Z</time>
      </trkpt>
      <trkpt lat="48.73591" lon="8.21011">
        <ele>333.4</ele>
        <time>2020-07-25T14:30:34Z</time>
      </trkpt>
      <trkpt lat="48.73591" lon="8.21011">
        <ele>333.4</ele>
        <time>2020-07-25T14:30:35Z</time>
      </trkpt>
      <trkpt lat="48.73596" lon="8.21008">
        <ele>333.6</ele>
        <time>2020-07-25T14:31:21Z</time>
      </trkpt>
      <trkpt lat="48.736" lon="8.21005">
        <ele>333.6</ele>
        <time>2020-07-25T14:31:23Z</time>
      </trkpt>
      <trkpt lat="48.73609" lon="8.20997">
        <ele>333.6</ele>
        <time>2020-07-25T14:31:27Z</time>
      </trkpt>
      <trkpt lat="48.73624" lon="8.20986">
        <ele>333.4</ele>
        <time>2020-07-25T14:31:32Z</time>
      </trkpt>
      <trkpt lat="48.73633" lon="8.20971">
        <ele>333.2</ele>
        <time>2020-07-25T14:31:37Z</time>
      </trkpt>
      <trkpt lat="48.73637" lon="8.20964">
        <ele>333.2</ele>
        <time>2020-07-25T14:31:39Z</time>
      </trkpt>
      <trkpt lat="48.73641" lon="8.20957">
        <ele>333.2</ele>
        <time>2020-07-25T14:31:41Z</time>
      </trkpt>
      <trkpt lat="48.73654" lon="8.20936">
        <ele>332.8</ele>
        <time>2020-07-25T14:31:47Z</time>
      </trkpt>
      <trkpt lat="48.7366" lon="8.20917">
        <ele>332.8</ele>
        <time>2020-07-25T14:31:52Z</time>
      </trkpt>
      <trkpt lat="48.73667" lon="8.2089">
        <ele>332.8</ele>
        <time>2020-07-25T14:31:59Z</time>
      </trkpt>
      <trkpt lat="48.73668" lon="8.20886">
        <ele>332.8</ele>
        <time>2020-07-25T14:32:00Z</time>
      </trkpt>
      <trkpt lat="48.7367" lon="8.20869">
        <ele>332.4</ele>
        <time>2020-07-25T14:32:03Z</time>
      </trkpt>
      <trkpt lat="48.73678" lon="8.20858">
        <ele>332</ele>
        <time>2020-07-25T14:32:06Z</time>
      </trkpt>
      <trkpt lat="48.73692" lon="8.20856">
        <ele>331.2</ele>
        <time>2020-07-25T14:32:10Z</time>
      </trkpt>
      <trkpt lat="48.73697" lon="8.20865">
        <ele>331</ele>
        <time>2020-07-25T14:32:12Z</time>
      </trkpt>
      <trkpt lat="48.73701" lon="8.20875">
        <ele>330.2</ele>
        <time>2020-07-25T14:32:14Z</time>
      </trkpt>
      <trkpt lat="48.73704" lon="8.20879">
        <ele>329.8</ele>
        <time>2020-07-25T14:32:15Z</time>
      </trkpt>
      <trkpt lat="48.73712" lon="8.20888">
        <ele>329.6</ele>
        <time>2020-07-25T14:32:19Z</time>
      </trkpt>
      <trkpt lat="48.73726" lon="8.20894">
        <ele>329.6</ele>
        <time>2020-07-25T14:32:25Z</time>
      </trkpt>
      <trkpt lat="48.73728" lon="8.20895">
        <ele>329.6</ele>
        <time>2020-07-25T14:32:26Z</time>
      </trkpt>
      <trkpt lat="48.73733" lon="8.20895">
        <ele>329.8</ele>
        <time>2020-07-25T14:32:28Z</time>
      </trkpt>
      <trkpt lat="48.73757" lon="8.20893">
        <ele>330.2</ele>
        <time>2020-07-25T14:32:36Z</time>
      </trkpt>
      <trkpt lat="48.73775" lon="8.20888">
        <ele>330.2</ele>
        <time>2020-07-25T14:32:42Z</time>
      </trkpt>
      <trkpt lat="48.73787" lon="8.20886">
        <ele>330.2</ele>
        <time>2020-07-25T14:32:47Z</time>
      </trkpt>
      <trkpt lat="48.73803" lon="8.20881">
        <ele>330.2</ele>
        <time>2020-07-25T14:32:53Z</time>
      </trkpt>
      <trkpt lat="48.73826" lon="8.20878">
        <ele>330.2</ele>
        <time>2020-07-25T14:33:02Z</time>
      </trkpt>
      <trkpt lat="48.73829" lon="8.20878">
        <ele>330.2</ele>
        <time>2020-07-25T14:33:06Z</time>
      </trkpt>
      <trkpt lat="48.73838" lon="8.20873">
        <ele>330.2</ele>
        <time>2020-07-25T14:35:35Z</time>
      </trkpt>
      <trkpt lat="48.7384" lon="8.20872">
        <ele>330.2</ele>
        <time>2020-07-25T14:35:36Z</time>
      </trkpt>
      <trkpt lat="48.73842" lon="8.20871">
        <ele>330.2</ele>
        <time>2020-07-25T14:35:37Z</time>
      </trkpt>
      <trkpt lat="48.73845" lon="8.2087">
        <ele>330.2</ele>
        <time>2020-07-25T14:35:38Z</time>
      </trkpt>
      <trkpt lat="48.73853" lon="8.20868">
        <ele>330.2</ele>
        <time>2020-07-25T14:35:41Z</time>
      </trkpt>
      <trkpt lat="48.73869" lon="8.20867">
        <ele>330.2</ele>
        <time>2020-07-25T14:35:46Z</time>
      </trkpt>
      <trkpt lat="48.73884" lon="8.20873">
        <ele>330</ele>
        <time>2020-07-25T14:35:51Z</time>
      </trkpt>
      <trkpt lat="48.73907" lon="8.20877">
        <ele>330</ele>
        <time>2020-07-25T14:35:58Z</time>
      </trkpt>
      <trkpt lat="48.73925" lon="8.20882">
        <ele>329.8</ele>
        <time>2020-07-25T14:36:03Z</time>
      </trkpt>
      <trkpt lat="48.73945" lon="8.2089">
        <ele>329.6</ele>
        <time>2020-07-25T14:36:08Z</time>
      </trkpt>
      <trkpt lat="48.73966" lon="8.20884">
        <ele>329.2</ele>
        <time>2020-07-25T14:36:13Z</time>
      </trkpt>
      <trkpt lat="48.73994" lon="8.20871">
        <ele>328.8</ele>
        <time>2020-07-25T14:36:19Z</time>
      </trkpt>
      <trkpt lat="48.74008" lon="8.20868">
        <ele>328.2</ele>
        <time>2020-07-25T14:36:22Z</time>
      </trkpt>
      <trkpt lat="48.74014" lon="8.20867">
        <ele>328</ele>
        <time>2020-07-25T14:36:23Z</time>
      </trkpt>
      <trkpt lat="48.74023" lon="8.20868">
        <ele>327.4</ele>
        <time>2020-07-25T14:36:25Z</time>
      </trkpt>
      <trkpt lat="48.74034" lon="8.2087">
        <ele>327.2</ele>
        <time>2020-07-25T14:36:27Z</time>
      </trkpt>
      <trkpt lat="48.74044" lon="8.20874">
        <ele>327.2</ele>
        <time>2020-07-25T14:36:29Z</time>
      </trkpt>
      <trkpt lat="48.74057" lon="8.20883">
        <ele>327</ele>
        <time>2020-07-25T14:36:32Z</time>
      </trkpt>
      <trkpt lat="48.74061" lon="8.20886">
        <ele>327</ele>
        <time>2020-07-25T14:36:33Z</time>
      </trkpt>
      <trkpt lat="48.7407" lon="8.20902">
        <ele>327</ele>
        <time>2020-07-25T14:36:36Z</time>
      </trkpt>
      <trkpt lat="48.74073" lon="8.20908">
        <ele>327</ele>
        <time>2020-07-25T14:36:37Z</time>
      </trkpt>
      <trkpt lat="48.7408" lon="8.20922">
        <ele>327</ele>
        <time>2020-07-25T14:36:39Z</time>
      </trkpt>
      <trkpt lat="48.74087" lon="8.2094">
        <ele>327.2</ele>
        <time>2020-07-25T14:36:42Z</time>
      </trkpt>
      <trkpt lat="48.74108" lon="8.20991">
        <ele>327.2</ele>
        <time>2020-07-25T14:36:50Z</time>
      </trkpt>
      <trkpt lat="48.74123" lon="8.21014">
        <ele>327</ele>
        <time>2020-07-25T14:36:54Z</time>
      </trkpt>
      <trkpt lat="48.74136" lon="8.2103">
        <ele>326.8</ele>
        <time>2020-07-25T14:36:57Z</time>
      </trkpt>
      <trkpt lat="48.74145" lon="8.21044">
        <ele>326.4</ele>
        <time>2020-07-25T14:36:59Z</time>
      </trkpt>
      <trkpt lat="48.74153" lon="8.21057">
        <ele>326.6</ele>
        <time>2020-07-25T14:37:01Z</time>
      </trkpt>
      <trkpt lat="48.74159" lon="8.21067">
        <ele>326</ele>
        <time>2020-07-25T14:37:03Z</time>
      </trkpt>
      <trkpt lat="48.74163" lon="8.21072">
        <ele>325.8</ele>
        <time>2020-07-25T14:37:04Z</time>
      </trkpt>
      <trkpt lat="48.74169" lon="8.21077">
        <ele>325.4</ele>
        <time>2020-07-25T14:37:06Z</time>
      </trkpt>
      <trkpt lat="48.74171" lon="8.21077">
        <ele>325.4</ele>
        <time>2020-07-25T14:37:07Z</time>
      </trkpt>
      <trkpt lat="48.74189" lon="8.21068">
        <ele>325</ele>
        <time>2020-07-25T14:37:11Z</time>
      </trkpt>
      <trkpt lat="48.74193" lon="8.21065">
        <ele>324.8</ele>
        <time>2020-07-25T14:37:12Z</time>
      </trkpt>
      <trkpt lat="48.74198" lon="8.21061">
        <ele>324.4</ele>
        <time>2020-07-25T14:37:13Z</time>
      </trkpt>
      <trkpt lat="48.74213" lon="8.21049">
        <ele>323</ele>
        <time>2020-07-25T14:37:16Z</time>
      </trkpt>
      <trkpt lat="48.74217" lon="8.21045">
        <ele>322.6</ele>
        <time>2020-07-25T14:37:17Z</time>
      </trkpt>
      <trkpt lat="48.74221" lon="8.21042">
        <ele>321.8</ele>
        <time>2020-07-25T14:37:19Z</time>
      </trkpt>
      <trkpt lat="48.74223" lon="8.21041">
        <ele>321.4</ele>
        <time>2020-07-25T14:37:20Z</time>
      </trkpt>
      <trkpt lat="48.74224" lon="8.21039">
        <ele>320.8</ele>
        <time>2020-07-25T14:37:21Z</time>
      </trkpt>
      <trkpt lat="48.74238" lon="8.21026">
        <ele>320</ele>
        <time>2020-07-25T14:37:26Z</time>
      </trkpt>
      <trkpt lat="48.74249" lon="8.21018">
        <ele>319.8</ele>
        <time>2020-07-25T14:37:29Z</time>
      </trkpt>
      <trkpt lat="48.74259" lon="8.2101">
        <ele>319.4</ele>
        <time>2020-07-25T14:37:32Z</time>
      </trkpt>
      <trkpt lat="48.74275" lon="8.21">
        <ele>318.8</ele>
        <time>2020-07-25T14:37:36Z</time>
      </trkpt>
      <trkpt lat="48.7428" lon="8.20998">
        <ele>318.4</ele>
        <time>2020-07-25T14:37:37Z</time>
      </trkpt>
      <trkpt lat="48.74299" lon="8.20988">
        <ele>317.6</ele>
        <time>2020-07-25T14:37:42Z</time>
      </trkpt>
      <trkpt lat="48.74306" lon="8.20985">
        <ele>317.4</ele>
        <time>2020-07-25T14:37:44Z</time>
      </trkpt>
      <trkpt lat="48.74327" lon="8.20978">
        <ele>317.4</ele>
        <time>2020-07-25T14:37:51Z</time>
      </trkpt>
      <trkpt lat="48.74349" lon="8.2097">
        <ele>318.4</ele>
        <time>2020-07-25T14:37:58Z</time>
      </trkpt>
      <trkpt lat="48.74359" lon="8.20966">
        <ele>318.8</ele>
        <time>2020-07-25T14:38:01Z</time>
      </trkpt>
      <trkpt lat="48.74374" lon="8.20963">
        <ele>319.2</ele>
        <time>2020-07-25T14:38:05Z</time>
      </trkpt>
      <trkpt lat="48.74406" lon="8.20957">
        <ele>319.6</ele>
        <time>2020-07-25T14:38:13Z</time>
      </trkpt>
      <trkpt lat="48.74431" lon="8.20954">
        <ele>319.6</ele>
        <time>2020-07-25T14:38:19Z</time>
      </trkpt>
      <trkpt lat="48.74439" lon="8.20956">
        <ele>319.6</ele>
        <time>2020-07-25T14:38:21Z</time>
      </trkpt>
      <trkpt lat="48.74443" lon="8.20958">
        <ele>319.6</ele>
        <time>2020-07-25T14:38:22Z</time>
      </trkpt>
      <trkpt lat="48.74459" lon="8.20968">
        <ele>319.4</ele>
        <time>2020-07-25T14:38:26Z</time>
      </trkpt>
      <trkpt lat="48.74461" lon="8.20971">
        <ele>319.4</ele>
        <time>2020-07-25T14:38:27Z</time>
      </trkpt>
      <trkpt lat="48.74488" lon="8.20995">
        <ele>319.6</ele>
        <time>2020-07-25T14:38:34Z</time>
      </trkpt>
      <trkpt lat="48.74495" lon="8.21001">
        <ele>319.6</ele>
        <time>2020-07-25T14:38:36Z</time>
      </trkpt>
      <trkpt lat="48.74503" lon="8.21003">
        <ele>319.6</ele>
        <time>2020-07-25T14:38:38Z</time>
      </trkpt>
      <trkpt lat="48.74507" lon="8.21002">
        <ele>319.6</ele>
        <time>2020-07-25T14:38:39Z</time>
      </trkpt>
      <trkpt lat="48.74512" lon="8.20998">
        <ele>319.6</ele>
        <time>2020-07-25T14:38:40Z</time>
      </trkpt>
      <trkpt lat="48.74519" lon="8.2099">
        <ele>319.6</ele>
        <time>2020-07-25T14:38:42Z</time>
      </trkpt>
      <trkpt lat="48.74522" lon="8.20985">
        <ele>319.6</ele>
        <time>2020-07-25T14:38:43Z</time>
      </trkpt>
      <trkpt lat="48.74525" lon="8.2098">
        <ele>319.6</ele>
        <time>2020-07-25T14:38:44Z</time>
      </trkpt>
      <trkpt lat="48.74533" lon="8.2096">
        <ele>319.8</ele>
        <time>2020-07-25T14:38:47Z</time>
      </trkpt>
      <trkpt lat="48.74544" lon="8.20943">
        <ele>320</ele>
        <time>2020-07-25T14:38:50Z</time>
      </trkpt>
      <trkpt lat="48.74554" lon="8.20935">
        <ele>320</ele>
        <time>2020-07-25T14:38:52Z</time>
      </trkpt>
      <trkpt lat="48.74564" lon="8.20933">
        <ele>320</ele>
        <time>2020-07-25T14:38:54Z</time>
      </trkpt>
      <trkpt lat="48.74574" lon="8.20934">
        <ele>319.6</ele>
        <time>2020-07-25T14:38:56Z</time>
      </trkpt>
      <trkpt lat="48.74621" lon="8.20943">
        <ele>318.6</ele>
        <time>2020-07-25T14:39:05Z</time>
      </trkpt>
      <trkpt lat="48.74632" lon="8.20946">
        <ele>318.6</ele>
        <time>2020-07-25T14:39:07Z</time>
      </trkpt>
      <trkpt lat="48.74642" lon="8.20942">
        <ele>318.6</ele>
        <time>2020-07-25T14:39:09Z</time>
      </trkpt>
      <trkpt lat="48.7465" lon="8.2093">
        <ele>318.6</ele>
        <time>2020-07-25T14:39:11Z</time>
      </trkpt>
      <trkpt lat="48.74652" lon="8.20922">
        <ele>318.4</ele>
        <time>2020-07-25T14:39:12Z</time>
      </trkpt>
      <trkpt lat="48.74652" lon="8.20912">
        <ele>318.4</ele>
        <time>2020-07-25T14:39:13Z</time>
      </trkpt>
      <trkpt lat="48.74651" lon="8.20894">
        <ele>317.8</ele>
        <time>2020-07-25T14:39:15Z</time>
      </trkpt>
      <trkpt lat="48.74649" lon="8.20885">
        <ele>317.8</ele>
        <time>2020-07-25T14:39:16Z</time>
      </trkpt>
      <trkpt lat="48.74641" lon="8.2086">
        <ele>317.4</ele>
        <time>2020-07-25T14:39:19Z</time>
      </trkpt>
      <trkpt lat="48.7463" lon="8.20836">
        <ele>317</ele>
        <time>2020-07-25T14:39:22Z</time>
      </trkpt>
      <trkpt lat="48.74623" lon="8.2082">
        <ele>316.4</ele>
        <time>2020-07-25T14:39:24Z</time>
      </trkpt>
      <trkpt lat="48.74619" lon="8.20813">
        <ele>316</ele>
        <time>2020-07-25T14:39:25Z</time>
      </trkpt>
      <trkpt lat="48.74611" lon="8.208">
        <ele>315.4</ele>
        <time>2020-07-25T14:39:27Z</time>
      </trkpt>
      <trkpt lat="48.74604" lon="8.20775">
        <ele>315</ele>
        <time>2020-07-25T14:39:30Z</time>
      </trkpt>
      <trkpt lat="48.74604" lon="8.20766">
        <ele>315</ele>
        <time>2020-07-25T14:39:31Z</time>
      </trkpt>
      <trkpt lat="48.74604" lon="8.20757">
        <ele>314.8</ele>
        <time>2020-07-25T14:39:32Z</time>
      </trkpt>
      <trkpt lat="48.74609" lon="8.2074">
        <ele>314.6</ele>
        <time>2020-07-25T14:39:34Z</time>
      </trkpt>
      <trkpt lat="48.74612" lon="8.20733">
        <ele>314.4</ele>
        <time>2020-07-25T14:39:35Z</time>
      </trkpt>
      <trkpt lat="48.74616" lon="8.20726">
        <ele>314</ele>
        <time>2020-07-25T14:39:36Z</time>
      </trkpt>
      <trkpt lat="48.74628" lon="8.20708">
        <ele>313.6</ele>
        <time>2020-07-25T14:39:39Z</time>
      </trkpt>
      <trkpt lat="48.74639" lon="8.20697">
        <ele>313.4</ele>
        <time>2020-07-25T14:39:43Z</time>
      </trkpt>
      <trkpt lat="48.74653" lon="8.20681">
        <ele>314.2</ele>
        <time>2020-07-25T14:39:49Z</time>
      </trkpt>
      <trkpt lat="48.74657" lon="8.20677">
        <ele>314.6</ele>
        <time>2020-07-25T14:39:51Z</time>
      </trkpt>
      <trkpt lat="48.74657" lon="8.20672">
        <ele>314.8</ele>
        <time>2020-07-25T14:39:53Z</time>
      </trkpt>
      <trkpt lat="48.74656" lon="8.20666">
        <ele>315</ele>
        <time>2020-07-25T14:39:55Z</time>
      </trkpt>
      <trkpt lat="48.74651" lon="8.20657">
        <ele>315.6</ele>
        <time>2020-07-25T14:39:59Z</time>
      </trkpt>
      <trkpt lat="48.74649" lon="8.20639">
        <ele>316</ele>
        <time>2020-07-25T14:40:04Z</time>
      </trkpt>
      <trkpt lat="48.74649" lon="8.20611">
        <ele>316</ele>
        <time>2020-07-25T14:40:11Z</time>
      </trkpt>
      <trkpt lat="48.74648" lon="8.20585">
        <ele>316.2</ele>
        <time>2020-07-25T14:40:16Z</time>
      </trkpt>
      <trkpt lat="48.74645" lon="8.2055">
        <ele>316.2</ele>
        <time>2020-07-25T14:40:22Z</time>
      </trkpt>
      <trkpt lat="48.74638" lon="8.20528">
        <ele>316.2</ele>
        <time>2020-07-25T14:40:28Z</time>
      </trkpt>
      <trkpt lat="48.74633" lon="8.20514">
        <ele>317</ele>
        <time>2020-07-25T14:40:32Z</time>
      </trkpt>
      <trkpt lat="48.74631" lon="8.20508">
        <ele>317.2</ele>
        <time>2020-07-25T14:40:34Z</time>
      </trkpt>
      <trkpt lat="48.74629" lon="8.20499">
        <ele>318.2</ele>
        <time>2020-07-25T14:40:37Z</time>
      </trkpt>
      <trkpt lat="48.74626" lon="8.20491">
        <ele>318.8</ele>
        <time>2020-07-25T14:40:40Z</time>
      </trkpt>
      <trkpt lat="48.74625" lon="8.20488">
        <ele>319.2</ele>
        <time>2020-07-25T14:40:41Z</time>
      </trkpt>
      <trkpt lat="48.74622" lon="8.20478">
        <ele>320.2</ele>
        <time>2020-07-25T14:40:45Z</time>
      </trkpt>
      <trkpt lat="48.74619" lon="8.20468">
        <ele>321.6</ele>
        <time>2020-07-25T14:40:49Z</time>
      </trkpt>
      <trkpt lat="48.74617" lon="8.20457">
        <ele>323</ele>
        <time>2020-07-25T14:40:53Z</time>
      </trkpt>
      <trkpt lat="48.74616" lon="8.20452">
        <ele>323.6</ele>
        <time>2020-07-25T14:40:55Z</time>
      </trkpt>
      <trkpt lat="48.74614" lon="8.20447">
        <ele>324</ele>
        <time>2020-07-25T14:40:57Z</time>
      </trkpt>
      <trkpt lat="48.74613" lon="8.20445">
        <ele>324.4</ele>
        <time>2020-07-25T14:40:58Z</time>
      </trkpt>
      <trkpt lat="48.7461" lon="8.20429">
        <ele>325.4</ele>
        <time>2020-07-25T14:41:03Z</time>
      </trkpt>
      <trkpt lat="48.7461" lon="8.20427">
        <ele>325.4</ele>
        <time>2020-07-25T14:41:04Z</time>
      </trkpt>
      <trkpt lat="48.74608" lon="8.20416">
        <ele>325.8</ele>
        <time>2020-07-25T14:41:07Z</time>
      </trkpt>
      <trkpt lat="48.74609" lon="8.20411">
        <ele>326</ele>
        <time>2020-07-25T14:41:09Z</time>
      </trkpt>
      <trkpt lat="48.74609" lon="8.20409">
        <ele>326</ele>
        <time>2020-07-25T14:41:10Z</time>
      </trkpt>
      <trkpt lat="48.74613" lon="8.20406">
        <ele>326.2</ele>
        <time>2020-07-25T14:41:13Z</time>
      </trkpt>
      <trkpt lat="48.74622" lon="8.20413">
        <ele>326.4</ele>
        <time>2020-07-25T14:41:19Z</time>
      </trkpt>
      <trkpt lat="48.74623" lon="8.20414">
        <ele>326.8</ele>
        <time>2020-07-25T14:41:20Z</time>
      </trkpt>
      <trkpt lat="48.74632" lon="8.2042">
        <ele>327.8</ele>
        <time>2020-07-25T14:41:26Z</time>
      </trkpt>
      <trkpt lat="48.74635" lon="8.20422">
        <ele>328</ele>
        <time>2020-07-25T14:41:28Z</time>
      </trkpt>
      <trkpt lat="48.74643" lon="8.20428">
        <ele>329</ele>
        <time>2020-07-25T14:41:33Z</time>
      </trkpt>
      <trkpt lat="48.74649" lon="8.20433">
        <ele>329.8</ele>
        <time>2020-07-25T14:41:37Z</time>
      </trkpt>
      <trkpt lat="48.74652" lon="8.20435">
        <ele>330</ele>
        <time>2020-07-25T14:41:39Z</time>
      </trkpt>
      <trkpt lat="48.74663" lon="8.20444">
        <ele>331</ele>
        <time>2020-07-25T14:41:46Z</time>
      </trkpt>
      <trkpt lat="48.74664" lon="8.20445">
        <ele>331.2</ele>
        <time>2020-07-25T14:41:47Z</time>
      </trkpt>
      <trkpt lat="48.74673" lon="8.20452">
        <ele>332.2</ele>
        <time>2020-07-25T14:41:53Z</time>
      </trkpt>
      <trkpt lat="48.74674" lon="8.20453">
        <ele>332.4</ele>
        <time>2020-07-25T14:41:54Z</time>
      </trkpt>
      <trkpt lat="48.74681" lon="8.20459">
        <ele>333.2</ele>
        <time>2020-07-25T14:41:59Z</time>
      </trkpt>
      <trkpt lat="48.74683" lon="8.20461">
        <ele>333.4</ele>
        <time>2020-07-25T14:42:00Z</time>
      </trkpt>
      <trkpt lat="48.74684" lon="8.20462">
        <ele>333.6</ele>
        <time>2020-07-25T14:42:01Z</time>
      </trkpt>
      <trkpt lat="48.74691" lon="8.20472">
        <ele>334.6</ele>
        <time>2020-07-25T14:42:06Z</time>
      </trkpt>
      <trkpt lat="48.74694" lon="8.20479">
        <ele>335</ele>
        <time>2020-07-25T14:42:09Z</time>
      </trkpt>
      <trkpt lat="48.74703" lon="8.20496">
        <ele>335.6</ele>
        <time>2020-07-25T14:42:17Z</time>
      </trkpt>
      <trkpt lat="48.74706" lon="8.205">
        <ele>335.8</ele>
        <time>2020-07-25T14:42:19Z</time>
      </trkpt>
      <trkpt lat="48.7471" lon="8.20505">
        <ele>336.2</ele>
        <time>2020-07-25T14:42:22Z</time>
      </trkpt>
      <trkpt lat="48.74713" lon="8.20507">
        <ele>336.6</ele>
        <time>2020-07-25T14:42:24Z</time>
      </trkpt>
      <trkpt lat="48.74717" lon="8.20508">
        <ele>337</ele>
        <time>2020-07-25T14:42:26Z</time>
      </trkpt>
      <trkpt lat="48.74719" lon="8.20508">
        <ele>337.2</ele>
        <time>2020-07-25T14:42:27Z</time>
      </trkpt>
      <trkpt lat="48.74724" lon="8.20505">
        <ele>338</ele>
        <time>2020-07-25T14:42:30Z</time>
      </trkpt>
      <trkpt lat="48.74726" lon="8.20504">
        <ele>338</ele>
        <time>2020-07-25T14:42:31Z</time>
      </trkpt>
      <trkpt lat="48.74735" lon="8.205">
        <ele>339</ele>
        <time>2020-07-25T14:42:36Z</time>
      </trkpt>
      <trkpt lat="48.74737" lon="8.20499">
        <ele>339.6</ele>
        <time>2020-07-25T14:42:38Z</time>
      </trkpt>
      <trkpt lat="48.74742" lon="8.20497">
        <ele>340.2</ele>
        <time>2020-07-25T14:42:41Z</time>
      </trkpt>
      <trkpt lat="48.74747" lon="8.20496">
        <ele>340.8</ele>
        <time>2020-07-25T14:42:45Z</time>
      </trkpt>
      <trkpt lat="48.74752" lon="8.20494">
        <ele>341.4</ele>
        <time>2020-07-25T14:42:48Z</time>
      </trkpt>
      <trkpt lat="48.74756" lon="8.20495">
        <ele>342</ele>
        <time>2020-07-25T14:42:51Z</time>
      </trkpt>
      <trkpt lat="48.7476" lon="8.20495">
        <ele>342.4</ele>
        <time>2020-07-25T14:42:53Z</time>
      </trkpt>
      <trkpt lat="48.74765" lon="8.20494">
        <ele>343.2</ele>
        <time>2020-07-25T14:42:56Z</time>
      </trkpt>
      <trkpt lat="48.74767" lon="8.20494">
        <ele>343.4</ele>
        <time>2020-07-25T14:42:57Z</time>
      </trkpt>
      <trkpt lat="48.74772" lon="8.20492">
        <ele>344</ele>
        <time>2020-07-25T14:43:00Z</time>
      </trkpt>
      <trkpt lat="48.74775" lon="8.20492">
        <ele>344.4</ele>
        <time>2020-07-25T14:43:02Z</time>
      </trkpt>
      <trkpt lat="48.74777" lon="8.20492">
        <ele>344.8</ele>
        <time>2020-07-25T14:43:04Z</time>
      </trkpt>
      <trkpt lat="48.7478" lon="8.2049">
        <ele>345.2</ele>
        <time>2020-07-25T14:43:06Z</time>
      </trkpt>
      <trkpt lat="48.74781" lon="8.20487">
        <ele>345.6</ele>
        <time>2020-07-25T14:43:08Z</time>
      </trkpt>
      <trkpt lat="48.74781" lon="8.20484">
        <ele>345.8</ele>
        <time>2020-07-25T14:43:09Z</time>
      </trkpt>
      <trkpt lat="48.74782" lon="8.20475">
        <ele>347</ele>
        <time>2020-07-25T14:43:13Z</time>
      </trkpt>
      <trkpt lat="48.74782" lon="8.20473">
        <ele>347.4</ele>
        <time>2020-07-25T14:43:14Z</time>
      </trkpt>
      <trkpt lat="48.74782" lon="8.20467">
        <ele>347.8</ele>
        <time>2020-07-25T14:43:16Z</time>
      </trkpt>
      <trkpt lat="48.74783" lon="8.20464">
        <ele>348</ele>
        <time>2020-07-25T14:43:18Z</time>
      </trkpt>
      <trkpt lat="48.74783" lon="8.20453">
        <ele>349</ele>
        <time>2020-07-25T14:43:23Z</time>
      </trkpt>
      <trkpt lat="48.74783" lon="8.20449">
        <ele>349.2</ele>
        <time>2020-07-25T14:43:24Z</time>
      </trkpt>
      <trkpt lat="48.74785" lon="8.20436">
        <ele>350</ele>
        <time>2020-07-25T14:43:29Z</time>
      </trkpt>
      <trkpt lat="48.74785" lon="8.20434">
        <ele>350.4</ele>
        <time>2020-07-25T14:43:30Z</time>
      </trkpt>
      <trkpt lat="48.74783" lon="8.2042">
        <ele>351</ele>
        <time>2020-07-25T14:43:34Z</time>
      </trkpt>
      <trkpt lat="48.74782" lon="8.20419">
        <ele>351.2</ele>
        <time>2020-07-25T14:43:35Z</time>
      </trkpt>
      <trkpt lat="48.74781" lon="8.20417">
        <ele>351.6</ele>
        <time>2020-07-25T14:43:36Z</time>
      </trkpt>
      <trkpt lat="48.7478" lon="8.20411">
        <ele>352.2</ele>
        <time>2020-07-25T14:43:39Z</time>
      </trkpt>
      <trkpt lat="48.7478" lon="8.20407">
        <ele>352.6</ele>
        <time>2020-07-25T14:43:41Z</time>
      </trkpt>
      <trkpt lat="48.7478" lon="8.20404">
        <ele>353.2</ele>
        <time>2020-07-25T14:43:43Z</time>
      </trkpt>
      <trkpt lat="48.7478" lon="8.20402">
        <ele>353.2</ele>
        <time>2020-07-25T14:43:44Z</time>
      </trkpt>
      <trkpt lat="48.7478" lon="8.20399">
        <ele>353.6</ele>
        <time>2020-07-25T14:43:46Z</time>
      </trkpt>
      <trkpt lat="48.7478" lon="8.20397">
        <ele>353.6</ele>
        <time>2020-07-25T14:43:47Z</time>
      </trkpt>
      <trkpt lat="48.74781" lon="8.20391">
        <ele>354.4</ele>
        <time>2020-07-25T14:43:50Z</time>
      </trkpt>
      <trkpt lat="48.74782" lon="8.20387">
        <ele>355</ele>
        <time>2020-07-25T14:43:52Z</time>
      </trkpt>
      <trkpt lat="48.74783" lon="8.20384">
        <ele>355.2</ele>
        <time>2020-07-25T14:43:54Z</time>
      </trkpt>
      <trkpt lat="48.74784" lon="8.20381">
        <ele>355.8</ele>
        <time>2020-07-25T14:43:56Z</time>
      </trkpt>
      <trkpt lat="48.74784" lon="8.20376">
        <ele>356</ele>
        <time>2020-07-25T14:43:58Z</time>
      </trkpt>
      <trkpt lat="48.74785" lon="8.20367">
        <ele>356.6</ele>
        <time>2020-07-25T14:44:01Z</time>
      </trkpt>
      <trkpt lat="48.74786" lon="8.20363">
        <ele>356.8</ele>
        <time>2020-07-25T14:44:03Z</time>
      </trkpt>
      <trkpt lat="48.74786" lon="8.20361">
        <ele>357</ele>
        <time>2020-07-25T14:44:04Z</time>
      </trkpt>
      <trkpt lat="48.74786" lon="8.20359">
        <ele>357.2</ele>
        <time>2020-07-25T14:44:05Z</time>
      </trkpt>
      <trkpt lat="48.74787" lon="8.20353">
        <ele>358</ele>
        <time>2020-07-25T14:44:08Z</time>
      </trkpt>
      <trkpt lat="48.74789" lon="8.20348">
        <ele>358.2</ele>
        <time>2020-07-25T14:44:10Z</time>
      </trkpt>
      <trkpt lat="48.7479" lon="8.20342">
        <ele>359</ele>
        <time>2020-07-25T14:44:13Z</time>
      </trkpt>
      <trkpt lat="48.7479" lon="8.20337">
        <ele>359.4</ele>
        <time>2020-07-25T14:44:15Z</time>
      </trkpt>
      <trkpt lat="48.74791" lon="8.20332">
        <ele>360</ele>
        <time>2020-07-25T14:44:18Z</time>
      </trkpt>
      <trkpt lat="48.74791" lon="8.20327">
        <ele>360.2</ele>
        <time>2020-07-25T14:44:20Z</time>
      </trkpt>
      <trkpt lat="48.74791" lon="8.20322">
        <ele>360.8</ele>
        <time>2020-07-25T14:44:22Z</time>
      </trkpt>
      <trkpt lat="48.74791" lon="8.20307">
        <ele>362</ele>
        <time>2020-07-25T14:44:28Z</time>
      </trkpt>
      <trkpt lat="48.74792" lon="8.20305">
        <ele>362.2</ele>
        <time>2020-07-25T14:44:29Z</time>
      </trkpt>
      <trkpt lat="48.74792" lon="8.20303">
        <ele>362.4</ele>
        <time>2020-07-25T14:44:30Z</time>
      </trkpt>
      <trkpt lat="48.74792" lon="8.20296">
        <ele>363.2</ele>
        <time>2020-07-25T14:44:34Z</time>
      </trkpt>
      <trkpt lat="48.74792" lon="8.20295">
        <ele>363.4</ele>
        <time>2020-07-25T14:44:35Z</time>
      </trkpt>
      <trkpt lat="48.74791" lon="8.20289">
        <ele>364</ele>
        <time>2020-07-25T14:44:38Z</time>
      </trkpt>
      <trkpt lat="48.7479" lon="8.20284">
        <ele>364.4</ele>
        <time>2020-07-25T14:44:40Z</time>
      </trkpt>
      <trkpt lat="48.74791" lon="8.20269">
        <ele>365.8</ele>
        <time>2020-07-25T14:44:46Z</time>
      </trkpt>
      <trkpt lat="48.74791" lon="8.20268">
        <ele>365.8</ele>
        <time>2020-07-25T14:44:47Z</time>
      </trkpt>
      <trkpt lat="48.74791" lon="8.20264">
        <ele>366</ele>
        <time>2020-07-25T14:44:49Z</time>
      </trkpt>
      <trkpt lat="48.74789" lon="8.20259">
        <ele>366.4</ele>
        <time>2020-07-25T14:44:51Z</time>
      </trkpt>
      <trkpt lat="48.7479" lon="8.20257">
        <ele>366.6</ele>
        <time>2020-07-25T14:44:52Z</time>
      </trkpt>
      <trkpt lat="48.7479" lon="8.20255">
        <ele>366.8</ele>
        <time>2020-07-25T14:44:53Z</time>
      </trkpt>
      <trkpt lat="48.74789" lon="8.20249">
        <ele>367.2</ele>
        <time>2020-07-25T14:44:55Z</time>
      </trkpt>
      <trkpt lat="48.74787" lon="8.20243">
        <ele>368</ele>
        <time>2020-07-25T14:44:58Z</time>
      </trkpt>
      <trkpt lat="48.74787" lon="8.20239">
        <ele>368.4</ele>
        <time>2020-07-25T14:45:00Z</time>
      </trkpt>
      <trkpt lat="48.74786" lon="8.20236">
        <ele>369</ele>
        <time>2020-07-25T14:45:02Z</time>
      </trkpt>
      <trkpt lat="48.74786" lon="8.20234">
        <ele>369</ele>
        <time>2020-07-25T14:45:03Z</time>
      </trkpt>
      <trkpt lat="48.74784" lon="8.20223">
        <ele>370</ele>
        <time>2020-07-25T14:45:08Z</time>
      </trkpt>
      <trkpt lat="48.74784" lon="8.20221">
        <ele>370.2</ele>
        <time>2020-07-25T14:45:09Z</time>
      </trkpt>
      <trkpt lat="48.74784" lon="8.20219">
        <ele>370.4</ele>
        <time>2020-07-25T14:45:10Z</time>
      </trkpt>
      <trkpt lat="48.74782" lon="8.20212">
        <ele>370.8</ele>
        <time>2020-07-25T14:45:13Z</time>
      </trkpt>
      <trkpt lat="48.74783" lon="8.20206">
        <ele>371.4</ele>
        <time>2020-07-25T14:45:15Z</time>
      </trkpt>
      <trkpt lat="48.74784" lon="8.202">
        <ele>372</ele>
        <time>2020-07-25T14:45:17Z</time>
      </trkpt>
      <trkpt lat="48.74784" lon="8.20195">
        <ele>372.2</ele>
        <time>2020-07-25T14:45:20Z</time>
      </trkpt>
      <trkpt lat="48.74782" lon="8.20191">
        <ele>372.8</ele>
        <time>2020-07-25T14:45:22Z</time>
      </trkpt>
      <trkpt lat="48.74782" lon="8.20183">
        <ele>373.2</ele>
        <time>2020-07-25T14:45:25Z</time>
      </trkpt>
      <trkpt lat="48.74782" lon="8.20178">
        <ele>373.8</ele>
        <time>2020-07-25T14:45:27Z</time>
      </trkpt>
      <trkpt lat="48.7478" lon="8.20171">
        <ele>374.4</ele>
        <time>2020-07-25T14:45:30Z</time>
      </trkpt>
      <trkpt lat="48.7478" lon="8.20169">
        <ele>374.8</ele>
        <time>2020-07-25T14:45:31Z</time>
      </trkpt>
      <trkpt lat="48.7478" lon="8.20167">
        <ele>375</ele>
        <time>2020-07-25T14:45:32Z</time>
      </trkpt>
      <trkpt lat="48.74779" lon="8.20152">
        <ele>376.2</ele>
        <time>2020-07-25T14:45:38Z</time>
      </trkpt>
      <trkpt lat="48.74779" lon="8.20147">
        <ele>376.8</ele>
        <time>2020-07-25T14:45:40Z</time>
      </trkpt>
      <trkpt lat="48.74778" lon="8.20143">
        <ele>377.2</ele>
        <time>2020-07-25T14:45:42Z</time>
      </trkpt>
      <trkpt lat="48.74778" lon="8.2014">
        <ele>377.4</ele>
        <time>2020-07-25T14:45:43Z</time>
      </trkpt>
      <trkpt lat="48.74779" lon="8.20131">
        <ele>378</ele>
        <time>2020-07-25T14:45:47Z</time>
      </trkpt>
      <trkpt lat="48.74779" lon="8.2013">
        <ele>378.4</ele>
        <time>2020-07-25T14:45:48Z</time>
      </trkpt>
      <trkpt lat="48.7478" lon="8.20127">
        <ele>378.4</ele>
        <time>2020-07-25T14:45:49Z</time>
      </trkpt>
      <trkpt lat="48.74782" lon="8.20118">
        <ele>379</ele>
        <time>2020-07-25T14:45:53Z</time>
      </trkpt>
      <trkpt lat="48.74782" lon="8.20117">
        <ele>379.4</ele>
        <time>2020-07-25T14:45:54Z</time>
      </trkpt>
      <trkpt lat="48.74783" lon="8.20114">
        <ele>379.6</ele>
        <time>2020-07-25T14:45:55Z</time>
      </trkpt>
      <trkpt lat="48.74784" lon="8.20111">
        <ele>379.8</ele>
        <time>2020-07-25T14:45:56Z</time>
      </trkpt>
      <trkpt lat="48.74786" lon="8.20105">
        <ele>380.6</ele>
        <time>2020-07-25T14:45:59Z</time>
      </trkpt>
      <trkpt lat="48.74786" lon="8.20103">
        <ele>380.8</ele>
        <time>2020-07-25T14:46:00Z</time>
      </trkpt>
      <trkpt lat="48.74792" lon="8.20093">
        <ele>381.8</ele>
        <time>2020-07-25T14:46:06Z</time>
      </trkpt>
      <trkpt lat="48.74793" lon="8.20091">
        <ele>382</ele>
        <time>2020-07-25T14:46:07Z</time>
      </trkpt>
      <trkpt lat="48.74795" lon="8.20085">
        <ele>383</ele>
        <time>2020-07-25T14:46:10Z</time>
      </trkpt>
      <trkpt lat="48.74798" lon="8.20077">
        <ele>384</ele>
        <time>2020-07-25T14:46:14Z</time>
      </trkpt>
      <trkpt lat="48.74799" lon="8.20074">
        <ele>384.2</ele>
        <time>2020-07-25T14:46:15Z</time>
      </trkpt>
      <trkpt lat="48.74799" lon="8.20069">
        <ele>384.6</ele>
        <time>2020-07-25T14:46:17Z</time>
      </trkpt>
      <trkpt lat="48.74798" lon="8.20066">
        <ele>384.8</ele>
        <time>2020-07-25T14:46:18Z</time>
      </trkpt>
      <trkpt lat="48.74798" lon="8.20062">
        <ele>385.2</ele>
        <time>2020-07-25T14:46:20Z</time>
      </trkpt>
      <trkpt lat="48.74799" lon="8.20057">
        <ele>385.4</ele>
        <time>2020-07-25T14:46:22Z</time>
      </trkpt>
      <trkpt lat="48.74799" lon="8.20055">
        <ele>385.6</ele>
        <time>2020-07-25T14:46:23Z</time>
      </trkpt>
      <trkpt lat="48.74799" lon="8.20052">
        <ele>385.8</ele>
        <time>2020-07-25T14:46:24Z</time>
      </trkpt>
      <trkpt lat="48.74798" lon="8.20046">
        <ele>386.6</ele>
        <time>2020-07-25T14:46:27Z</time>
      </trkpt>
      <trkpt lat="48.74799" lon="8.20044">
        <ele>386.6</ele>
        <time>2020-07-25T14:46:28Z</time>
      </trkpt>
      <trkpt lat="48.74803" lon="8.20036">
        <ele>387.6</ele>
        <time>2020-07-25T14:46:32Z</time>
      </trkpt>
      <trkpt lat="48.74803" lon="8.20034">
        <ele>387.8</ele>
        <time>2020-07-25T14:46:33Z</time>
      </trkpt>
      <trkpt lat="48.74805" lon="8.2003">
        <ele>388.4</ele>
        <time>2020-07-25T14:46:35Z</time>
      </trkpt>
      <trkpt lat="48.74807" lon="8.20027">
        <ele>388.8</ele>
        <time>2020-07-25T14:46:37Z</time>
      </trkpt>
      <trkpt lat="48.7481" lon="8.20021">
        <ele>389.8</ele>
        <time>2020-07-25T14:46:40Z</time>
      </trkpt>
      <trkpt lat="48.74811" lon="8.20019">
        <ele>390</ele>
        <time>2020-07-25T14:46:41Z</time>
      </trkpt>
      <trkpt lat="48.74811" lon="8.20016">
        <ele>390</ele>
        <time>2020-07-25T14:46:42Z</time>
      </trkpt>
      <trkpt lat="48.74812" lon="8.20014">
        <ele>390.2</ele>
        <time>2020-07-25T14:46:43Z</time>
      </trkpt>
      <trkpt lat="48.74816" lon="8.20006">
        <ele>391.2</ele>
        <time>2020-07-25T14:46:47Z</time>
      </trkpt>
      <trkpt lat="48.74819" lon="8.19996">
        <ele>392</ele>
        <time>2020-07-25T14:46:51Z</time>
      </trkpt>
      <trkpt lat="48.7482" lon="8.19994">
        <ele>392</ele>
        <time>2020-07-25T14:46:52Z</time>
      </trkpt>
      <trkpt lat="48.74821" lon="8.19992">
        <ele>392.4</ele>
        <time>2020-07-25T14:46:53Z</time>
      </trkpt>
      <trkpt lat="48.74822" lon="8.19991">
        <ele>392.4</ele>
        <time>2020-07-25T14:46:54Z</time>
      </trkpt>
      <trkpt lat="48.74823" lon="8.19987">
        <ele>392.8</ele>
        <time>2020-07-25T14:46:57Z</time>
      </trkpt>
      <trkpt lat="48.74824" lon="8.19984">
        <ele>393.2</ele>
        <time>2020-07-25T14:46:59Z</time>
      </trkpt>
      <trkpt lat="48.74826" lon="8.19983">
        <ele>393.6</ele>
        <time>2020-07-25T14:47:01Z</time>
      </trkpt>
      <trkpt lat="48.74826" lon="8.19981">
        <ele>393.6</ele>
        <time>2020-07-25T14:47:02Z</time>
      </trkpt>
      <trkpt lat="48.74826" lon="8.19979">
        <ele>394.2</ele>
        <time>2020-07-25T14:47:03Z</time>
      </trkpt>
      <trkpt lat="48.74827" lon="8.19975">
        <ele>394.6</ele>
        <time>2020-07-25T14:47:05Z</time>
      </trkpt>
      <trkpt lat="48.74827" lon="8.19974">
        <ele>394.8</ele>
        <time>2020-07-25T14:47:06Z</time>
      </trkpt>
      <trkpt lat="48.7483" lon="8.19968">
        <ele>395</ele>
        <time>2020-07-25T14:47:09Z</time>
      </trkpt>
      <trkpt lat="48.7483" lon="8.19965">
        <ele>395.2</ele>
        <time>2020-07-25T14:47:10Z</time>
      </trkpt>
      <trkpt lat="48.74834" lon="8.1995">
        <ele>395.8</ele>
        <time>2020-07-25T14:47:15Z</time>
      </trkpt>
      <trkpt lat="48.74835" lon="8.19946">
        <ele>396</ele>
        <time>2020-07-25T14:47:16Z</time>
      </trkpt>
      <trkpt lat="48.74837" lon="8.19942">
        <ele>396.2</ele>
        <time>2020-07-25T14:47:18Z</time>
      </trkpt>
      <trkpt lat="48.74843" lon="8.1993">
        <ele>397</ele>
        <time>2020-07-25T14:47:24Z</time>
      </trkpt>
      <trkpt lat="48.74844" lon="8.19928">
        <ele>397</ele>
        <time>2020-07-25T14:47:25Z</time>
      </trkpt>
      <trkpt lat="48.74845" lon="8.19926">
        <ele>397.4</ele>
        <time>2020-07-25T14:47:26Z</time>
      </trkpt>
      <trkpt lat="48.74846" lon="8.19925">
        <ele>398</ele>
        <time>2020-07-25T14:47:30Z</time>
      </trkpt>
      <trkpt lat="48.74845" lon="8.19929">
        <ele>399</ele>
        <time>2020-07-25T14:49:10Z</time>
      </trkpt>
      <trkpt lat="48.74847" lon="8.19934">
        <ele>399.2</ele>
        <time>2020-07-25T14:49:13Z</time>
      </trkpt>
      <trkpt lat="48.74847" lon="8.19934">
        <ele>399.2</ele>
        <time>2020-07-25T14:49:14Z</time>
      </trkpt>
      <trkpt lat="48.74846" lon="8.19938">
        <ele>399.2</ele>
        <time>2020-07-25T14:49:16Z</time>
      </trkpt>
      <trkpt lat="48.74847" lon="8.1994">
        <ele>399.2</ele>
        <time>2020-07-25T14:49:17Z</time>
      </trkpt>
      <trkpt lat="48.74847" lon="8.19956">
        <ele>400.4</ele>
        <time>2020-07-25T14:49:23Z</time>
      </trkpt>
      <trkpt lat="48.74846" lon="8.19959">
        <ele>400.6</ele>
        <time>2020-07-25T14:49:24Z</time>
      </trkpt>
      <trkpt lat="48.74845" lon="8.19966">
        <ele>401</ele>
        <time>2020-07-25T14:49:28Z</time>
      </trkpt>
      <trkpt lat="48.74846" lon="8.19972">
        <ele>401.2</ele>
        <time>2020-07-25T14:49:30Z</time>
      </trkpt>
      <trkpt lat="48.74846" lon="8.19976">
        <ele>401.4</ele>
        <time>2020-07-25T14:49:31Z</time>
      </trkpt>
      <trkpt lat="48.74846" lon="8.1998">
        <ele>401.4</ele>
        <time>2020-07-25T14:49:33Z</time>
      </trkpt>
      <trkpt lat="48.74845" lon="8.19987">
        <ele>401.8</ele>
        <time>2020-07-25T14:49:35Z</time>
      </trkpt>
      <trkpt lat="48.74847" lon="8.19996">
        <ele>402.4</ele>
        <time>2020-07-25T14:49:38Z</time>
      </trkpt>
      <trkpt lat="48.74848" lon="8.20004">
        <ele>402.8</ele>
        <time>2020-07-25T14:49:41Z</time>
      </trkpt>
      <trkpt lat="48.74847" lon="8.20006">
        <ele>403</ele>
        <time>2020-07-25T14:49:42Z</time>
      </trkpt>
      <trkpt lat="48.74847" lon="8.20008">
        <ele>403</ele>
        <time>2020-07-25T14:49:43Z</time>
      </trkpt>
      <trkpt lat="48.74849" lon="8.20015">
        <ele>403.6</ele>
        <time>2020-07-25T14:49:45Z</time>
      </trkpt>
      <trkpt lat="48.74851" lon="8.2002">
        <ele>403.8</ele>
        <time>2020-07-25T14:49:47Z</time>
      </trkpt>
      <trkpt lat="48.74853" lon="8.20026">
        <ele>404.4</ele>
        <time>2020-07-25T14:49:50Z</time>
      </trkpt>
      <trkpt lat="48.74853" lon="8.20028">
        <ele>404.8</ele>
        <time>2020-07-25T14:49:51Z</time>
      </trkpt>
      <trkpt lat="48.74854" lon="8.20028">
        <ele>405</ele>
        <time>2020-07-25T14:49:52Z</time>
      </trkpt>
      <trkpt lat="48.74854" lon="8.20031">
        <ele>405.4</ele>
        <time>2020-07-25T14:49:54Z</time>
      </trkpt>
      <trkpt lat="48.74854" lon="8.20032">
        <ele>405.6</ele>
        <time>2020-07-25T14:49:56Z</time>
      </trkpt>
      <trkpt lat="48.74854" lon="8.20032">
        <ele>406</ele>
        <time>2020-07-25T14:49:57Z</time>
      </trkpt>
      <trkpt lat="48.74854" lon="8.2002">
        <ele>406.6</ele>
        <time>2020-07-25T14:50:07Z</time>
      </trkpt>
      <trkpt lat="48.7485" lon="8.20007">
        <ele>406.6</ele>
        <time>2020-07-25T14:50:09Z</time>
      </trkpt>
      <trkpt lat="48.74846" lon="8.19996">
        <ele>406.6</ele>
        <time>2020-07-25T14:50:11Z</time>
      </trkpt>
      <trkpt lat="48.74844" lon="8.19981">
        <ele>406.6</ele>
        <time>2020-07-25T14:50:13Z</time>
      </trkpt>
      <trkpt lat="48.74844" lon="8.19966">
        <ele>406.4</ele>
        <time>2020-07-25T14:50:15Z</time>
      </trkpt>
      <trkpt lat="48.74846" lon="8.19953">
        <ele>405.4</ele>
        <time>2020-07-25T14:50:17Z</time>
      </trkpt>
      <trkpt lat="48.74847" lon="8.19944">
        <ele>404.8</ele>
        <time>2020-07-25T14:50:18Z</time>
      </trkpt>
      <trkpt lat="48.74849" lon="8.19937">
        <ele>404.4</ele>
        <time>2020-07-25T14:50:19Z</time>
      </trkpt>
      <trkpt lat="48.7485" lon="8.19925">
        <ele>403.4</ele>
        <time>2020-07-25T14:50:21Z</time>
      </trkpt>
      <trkpt lat="48.74848" lon="8.19919">
        <ele>403</ele>
        <time>2020-07-25T14:50:22Z</time>
      </trkpt>
      <trkpt lat="48.74845" lon="8.1991">
        <ele>402.2</ele>
        <time>2020-07-25T14:50:24Z</time>
      </trkpt>
      <trkpt lat="48.74842" lon="8.19902">
        <ele>401.2</ele>
        <time>2020-07-25T14:50:26Z</time>
      </trkpt>
      <trkpt lat="48.74841" lon="8.19894">
        <ele>400.8</ele>
        <time>2020-07-25T14:50:27Z</time>
      </trkpt>
      <trkpt lat="48.74841" lon="8.19882">
        <ele>400</ele>
        <time>2020-07-25T14:50:29Z</time>
      </trkpt>
      <trkpt lat="48.74841" lon="8.19871">
        <ele>399.6</ele>
        <time>2020-07-25T14:50:31Z</time>
      </trkpt>
      <trkpt lat="48.74842" lon="8.19855">
        <ele>399</ele>
        <time>2020-07-25T14:50:34Z</time>
      </trkpt>
      <trkpt lat="48.74843" lon="8.19851">
        <ele>398.8</ele>
        <time>2020-07-25T14:50:35Z</time>
      </trkpt>
      <trkpt lat="48.74842" lon="8.19845">
        <ele>398.4</ele>
        <time>2020-07-25T14:50:36Z</time>
      </trkpt>
      <trkpt lat="48.74842" lon="8.1984">
        <ele>397.4</ele>
        <time>2020-07-25T14:50:37Z</time>
      </trkpt>
      <trkpt lat="48.74842" lon="8.19828">
        <ele>396.4</ele>
        <time>2020-07-25T14:50:40Z</time>
      </trkpt>
      <trkpt lat="48.74842" lon="8.19822">
        <ele>396.2</ele>
        <time>2020-07-25T14:50:41Z</time>
      </trkpt>
      <trkpt lat="48.7484" lon="8.19799">
        <ele>395.2</ele>
        <time>2020-07-25T14:50:45Z</time>
      </trkpt>
      <trkpt lat="48.74839" lon="8.19772">
        <ele>394.2</ele>
        <time>2020-07-25T14:50:49Z</time>
      </trkpt>
      <trkpt lat="48.7484" lon="8.19767">
        <ele>393.6</ele>
        <time>2020-07-25T14:50:50Z</time>
      </trkpt>
      <trkpt lat="48.7484" lon="8.19762">
        <ele>393</ele>
        <time>2020-07-25T14:50:51Z</time>
      </trkpt>
      <trkpt lat="48.74841" lon="8.19752">
        <ele>392</ele>
        <time>2020-07-25T14:50:53Z</time>
      </trkpt>
      <trkpt lat="48.74842" lon="8.19743">
        <ele>390.8</ele>
        <time>2020-07-25T14:50:55Z</time>
      </trkpt>
      <trkpt lat="48.74846" lon="8.19716">
        <ele>389.6</ele>
        <time>2020-07-25T14:51:00Z</time>
      </trkpt>
      <trkpt lat="48.74847" lon="8.1971">
        <ele>389.6</ele>
        <time>2020-07-25T14:51:01Z</time>
      </trkpt>
      <trkpt lat="48.7485" lon="8.19693">
        <ele>388.6</ele>
        <time>2020-07-25T14:51:04Z</time>
      </trkpt>
      <trkpt lat="48.74849" lon="8.19686">
        <ele>388.2</ele>
        <time>2020-07-25T14:51:05Z</time>
      </trkpt>
      <trkpt lat="48.74849" lon="8.1968">
        <ele>387.6</ele>
        <time>2020-07-25T14:51:06Z</time>
      </trkpt>
      <trkpt lat="48.74852" lon="8.19655">
        <ele>386.8</ele>
        <time>2020-07-25T14:51:10Z</time>
      </trkpt>
      <trkpt lat="48.74853" lon="8.19648">
        <ele>386.4</ele>
        <time>2020-07-25T14:51:11Z</time>
      </trkpt>
      <trkpt lat="48.74854" lon="8.19628">
        <ele>385.4</ele>
        <time>2020-07-25T14:51:14Z</time>
      </trkpt>
      <trkpt lat="48.74853" lon="8.1962">
        <ele>385.2</ele>
        <time>2020-07-25T14:51:15Z</time>
      </trkpt>
      <trkpt lat="48.7485" lon="8.19606">
        <ele>384.2</ele>
        <time>2020-07-25T14:51:17Z</time>
      </trkpt>
      <trkpt lat="48.7485" lon="8.19599">
        <ele>384</ele>
        <time>2020-07-25T14:51:18Z</time>
      </trkpt>
      <trkpt lat="48.7485" lon="8.19583">
        <ele>383</ele>
        <time>2020-07-25T14:51:20Z</time>
      </trkpt>
      <trkpt lat="48.7485" lon="8.19559">
        <ele>381.8</ele>
        <time>2020-07-25T14:51:23Z</time>
      </trkpt>
      <trkpt lat="48.74851" lon="8.19546">
        <ele>380.4</ele>
        <time>2020-07-25T14:51:25Z</time>
      </trkpt>
      <trkpt lat="48.74851" lon="8.1954">
        <ele>379.8</ele>
        <time>2020-07-25T14:51:26Z</time>
      </trkpt>
      <trkpt lat="48.74852" lon="8.19533">
        <ele>379.4</ele>
        <time>2020-07-25T14:51:27Z</time>
      </trkpt>
      <trkpt lat="48.74856" lon="8.19513">
        <ele>377.6</ele>
        <time>2020-07-25T14:51:30Z</time>
      </trkpt>
      <trkpt lat="48.74858" lon="8.19508">
        <ele>377.4</ele>
        <time>2020-07-25T14:51:31Z</time>
      </trkpt>
      <trkpt lat="48.7486" lon="8.19503">
        <ele>377.4</ele>
        <time>2020-07-25T14:51:32Z</time>
      </trkpt>
      <trkpt lat="48.74866" lon="8.19497">
        <ele>377</ele>
        <time>2020-07-25T14:51:34Z</time>
      </trkpt>
      <trkpt lat="48.74871" lon="8.19495">
        <ele>376.6</ele>
        <time>2020-07-25T14:51:35Z</time>
      </trkpt>
      <trkpt lat="48.74888" lon="8.19494">
        <ele>375.2</ele>
        <time>2020-07-25T14:51:38Z</time>
      </trkpt>
      <trkpt lat="48.74907" lon="8.19497">
        <ele>374</ele>
        <time>2020-07-25T14:51:42Z</time>
      </trkpt>
      <trkpt lat="48.74921" lon="8.19495">
        <ele>373</ele>
        <time>2020-07-25T14:51:44Z</time>
      </trkpt>
      <trkpt lat="48.74928" lon="8.19495">
        <ele>372.4</ele>
        <time>2020-07-25T14:51:45Z</time>
      </trkpt>
      <trkpt lat="48.74937" lon="8.19491">
        <ele>372</ele>
        <time>2020-07-25T14:51:46Z</time>
      </trkpt>
      <trkpt lat="48.74944" lon="8.19488">
        <ele>371.4</ele>
        <time>2020-07-25T14:51:47Z</time>
      </trkpt>
      <trkpt lat="48.74949" lon="8.19485">
        <ele>370.8</ele>
        <time>2020-07-25T14:51:48Z</time>
      </trkpt>
      <trkpt lat="48.74961" lon="8.19484">
        <ele>369.8</ele>
        <time>2020-07-25T14:51:50Z</time>
      </trkpt>
      <trkpt lat="48.74972" lon="8.19483">
        <ele>368.4</ele>
        <time>2020-07-25T14:51:52Z</time>
      </trkpt>
      <trkpt lat="48.74977" lon="8.19482">
        <ele>367.2</ele>
        <time>2020-07-25T14:51:53Z</time>
      </trkpt>
      <trkpt lat="48.74982" lon="8.19484">
        <ele>366.8</ele>
        <time>2020-07-25T14:51:54Z</time>
      </trkpt>
      <trkpt lat="48.74985" lon="8.19484">
        <ele>366.2</ele>
        <time>2020-07-25T14:51:55Z</time>
      </trkpt>
      <trkpt lat="48.74997" lon="8.19489">
        <ele>364.8</ele>
        <time>2020-07-25T14:51:58Z</time>
      </trkpt>
      <trkpt lat="48.75006" lon="8.19492">
        <ele>364.2</ele>
        <time>2020-07-25T14:52:00Z</time>
      </trkpt>
      <trkpt lat="48.75012" lon="8.19493">
        <ele>363.8</ele>
        <time>2020-07-25T14:52:01Z</time>
      </trkpt>
      <trkpt lat="48.75028" lon="8.19488">
        <ele>363</ele>
        <time>2020-07-25T14:52:04Z</time>
      </trkpt>
      <trkpt lat="48.75032" lon="8.19488">
        <ele>362.8</ele>
        <time>2020-07-25T14:52:05Z</time>
      </trkpt>
      <trkpt lat="48.75039" lon="8.19484">
        <ele>361.8</ele>
        <time>2020-07-25T14:52:07Z</time>
      </trkpt>
      <trkpt lat="48.75043" lon="8.1948">
        <ele>361</ele>
        <time>2020-07-25T14:52:08Z</time>
      </trkpt>
      <trkpt lat="48.75045" lon="8.19478">
        <ele>360.2</ele>
        <time>2020-07-25T14:52:09Z</time>
      </trkpt>
      <trkpt lat="48.75044" lon="8.19472">
        <ele>359.8</ele>
        <time>2020-07-25T14:52:10Z</time>
      </trkpt>
      <trkpt lat="48.75041" lon="8.19459">
        <ele>358.6</ele>
        <time>2020-07-25T14:52:12Z</time>
      </trkpt>
      <trkpt lat="48.7504" lon="8.19446">
        <ele>357.4</ele>
        <time>2020-07-25T14:52:15Z</time>
      </trkpt>
      <trkpt lat="48.75041" lon="8.19441">
        <ele>357</ele>
        <time>2020-07-25T14:52:16Z</time>
      </trkpt>
      <trkpt lat="48.75042" lon="8.19436">
        <ele>356.2</ele>
        <time>2020-07-25T14:52:18Z</time>
      </trkpt>
      <trkpt lat="48.75042" lon="8.19436">
        <ele>355.6</ele>
        <time>2020-07-25T14:52:20Z</time>
      </trkpt>
      <trkpt lat="48.75042" lon="8.19436">
        <ele>355.6</ele>
        <time>2020-07-25T14:52:21Z</time>
      </trkpt>
      <trkpt lat="48.75042" lon="8.19429">
        <ele>355.2</ele>
        <time>2020-07-25T14:52:29Z</time>
      </trkpt>
      <trkpt lat="48.75041" lon="8.19431">
        <ele>355.2</ele>
        <time>2020-07-25T14:52:31Z</time>
      </trkpt>
      <trkpt lat="48.75041" lon="8.19432">
        <ele>355.2</ele>
        <time>2020-07-25T14:52:34Z</time>
      </trkpt>
      <trkpt lat="48.75042" lon="8.19434">
        <ele>355.2</ele>
        <time>2020-07-25T14:52:36Z</time>
      </trkpt>
      <trkpt lat="48.75042" lon="8.19436">
        <ele>355.2</ele>
        <time>2020-07-25T14:52:37Z</time>
      </trkpt>
      <trkpt lat="48.75043" lon="8.19441">
        <ele>355.2</ele>
        <time>2020-07-25T14:52:39Z</time>
      </trkpt>
      <trkpt lat="48.75044" lon="8.19446">
        <ele>355.2</ele>
        <time>2020-07-25T14:52:41Z</time>
      </trkpt>
      <trkpt lat="48.75045" lon="8.19444">
        <ele>355.6</ele>
        <time>2020-07-25T14:52:46Z</time>
      </trkpt>
      <trkpt lat="48.75046" lon="8.19437">
        <ele>356</ele>
        <time>2020-07-25T14:52:49Z</time>
      </trkpt>
      <trkpt lat="48.75046" lon="8.19431">
        <ele>356.2</ele>
        <time>2020-07-25T14:52:51Z</time>
      </trkpt>
      <trkpt lat="48.75047" lon="8.19429">
        <ele>356.2</ele>
        <time>2020-07-25T14:52:52Z</time>
      </trkpt>
      <trkpt lat="48.7505" lon="8.19421">
        <ele>356.6</ele>
        <time>2020-07-25T14:52:55Z</time>
      </trkpt>
      <trkpt lat="48.75053" lon="8.19416">
        <ele>357</ele>
        <time>2020-07-25T14:52:57Z</time>
      </trkpt>
      <trkpt lat="48.75054" lon="8.19413">
        <ele>357.2</ele>
        <time>2020-07-25T14:52:58Z</time>
      </trkpt>
      <trkpt lat="48.75057" lon="8.19407">
        <ele>357.8</ele>
        <time>2020-07-25T14:53:01Z</time>
      </trkpt>
      <trkpt lat="48.7506" lon="8.19404">
        <ele>358.2</ele>
        <time>2020-07-25T14:53:03Z</time>
      </trkpt>
      <trkpt lat="48.75061" lon="8.194">
        <ele>358.4</ele>
        <time>2020-07-25T14:53:05Z</time>
      </trkpt>
      <trkpt lat="48.75065" lon="8.19394">
        <ele>359</ele>
        <time>2020-07-25T14:53:07Z</time>
      </trkpt>
      <trkpt lat="48.75068" lon="8.1939">
        <ele>359.4</ele>
        <time>2020-07-25T14:53:09Z</time>
      </trkpt>
      <trkpt lat="48.75069" lon="8.19386">
        <ele>359.8</ele>
        <time>2020-07-25T14:53:11Z</time>
      </trkpt>
      <trkpt lat="48.75071" lon="8.19382">
        <ele>360.6</ele>
        <time>2020-07-25T14:53:14Z</time>
      </trkpt>
      <trkpt lat="48.75072" lon="8.19381">
        <ele>360.8</ele>
        <time>2020-07-25T14:53:15Z</time>
      </trkpt>
      <trkpt lat="48.75071" lon="8.19368">
        <ele>361.6</ele>
        <time>2020-07-25T14:53:19Z</time>
      </trkpt>
      <trkpt lat="48.75072" lon="8.19366">
        <ele>361.6</ele>
        <time>2020-07-25T14:53:20Z</time>
      </trkpt>
      <trkpt lat="48.75072" lon="8.19364">
        <ele>362</ele>
        <time>2020-07-25T14:53:21Z</time>
      </trkpt>
      <trkpt lat="48.75075" lon="8.19353">
        <ele>363</ele>
        <time>2020-07-25T14:53:26Z</time>
      </trkpt>
      <trkpt lat="48.75075" lon="8.19352">
        <ele>363.4</ele>
        <time>2020-07-25T14:53:27Z</time>
      </trkpt>
      <trkpt lat="48.75078" lon="8.19346">
        <ele>364.2</ele>
        <time>2020-07-25T14:53:31Z</time>
      </trkpt>
      <trkpt lat="48.75078" lon="8.19339">
        <ele>365</ele>
        <time>2020-07-25T14:53:34Z</time>
      </trkpt>
      <trkpt lat="48.75078" lon="8.19332">
        <ele>365.2</ele>
        <time>2020-07-25T14:53:37Z</time>
      </trkpt>
      <trkpt lat="48.75078" lon="8.19327">
        <ele>365.6</ele>
        <time>2020-07-25T14:53:39Z</time>
      </trkpt>
      <trkpt lat="48.75079" lon="8.19324">
        <ele>366</ele>
        <time>2020-07-25T14:53:41Z</time>
      </trkpt>
      <trkpt lat="48.7508" lon="8.19322">
        <ele>366.4</ele>
        <time>2020-07-25T14:53:42Z</time>
      </trkpt>
      <trkpt lat="48.75082" lon="8.19309">
        <ele>367.6</ele>
        <time>2020-07-25T14:53:48Z</time>
      </trkpt>
      <trkpt lat="48.75083" lon="8.19307">
        <ele>367.8</ele>
        <time>2020-07-25T14:53:49Z</time>
      </trkpt>
      <trkpt lat="48.75083" lon="8.19304">
        <ele>368</ele>
        <time>2020-07-25T14:53:50Z</time>
      </trkpt>
      <trkpt lat="48.75083" lon="8.19301">
        <ele>368.2</ele>
        <time>2020-07-25T14:53:51Z</time>
      </trkpt>
      <trkpt lat="48.75084" lon="8.19298">
        <ele>368.8</ele>
        <time>2020-07-25T14:53:53Z</time>
      </trkpt>
      <trkpt lat="48.75086" lon="8.19295">
        <ele>369.2</ele>
        <time>2020-07-25T14:53:55Z</time>
      </trkpt>
      <trkpt lat="48.7509" lon="8.19293">
        <ele>369.8</ele>
        <time>2020-07-25T14:53:58Z</time>
      </trkpt>
      <trkpt lat="48.75091" lon="8.19292">
        <ele>370.2</ele>
        <time>2020-07-25T14:54:00Z</time>
      </trkpt>
      <trkpt lat="48.75093" lon="8.19292">
        <ele>370.8</ele>
        <time>2020-07-25T14:54:02Z</time>
      </trkpt>
      <trkpt lat="48.75093" lon="8.19292">
        <ele>371.2</ele>
        <time>2020-07-25T14:54:03Z</time>
      </trkpt>
      <trkpt lat="48.75093" lon="8.19293">
        <ele>371.6</ele>
        <time>2020-07-25T14:54:06Z</time>
      </trkpt>
      <trkpt lat="48.75093" lon="8.19294">
        <ele>371.8</ele>
        <time>2020-07-25T14:54:07Z</time>
      </trkpt>
      <trkpt lat="48.75092" lon="8.19294">
        <ele>372.6</ele>
        <time>2020-07-25T14:54:10Z</time>
      </trkpt>
      <trkpt lat="48.75093" lon="8.19294">
        <ele>373</ele>
        <time>2020-07-25T14:54:13Z</time>
      </trkpt>
      <trkpt lat="48.751" lon="8.19302">
        <ele>374</ele>
        <time>2020-07-25T14:55:26Z</time>
      </trkpt>
      <trkpt lat="48.75103" lon="8.19307">
        <ele>374.2</ele>
        <time>2020-07-25T14:55:28Z</time>
      </trkpt>
      <trkpt lat="48.75106" lon="8.19314">
        <ele>374.2</ele>
        <time>2020-07-25T14:55:30Z</time>
      </trkpt>
      <trkpt lat="48.75107" lon="8.19315">
        <ele>374.2</ele>
        <time>2020-07-25T14:55:31Z</time>
      </trkpt>
      <trkpt lat="48.75108" lon="8.19316">
        <ele>374.4</ele>
        <time>2020-07-25T14:55:32Z</time>
      </trkpt>
      <trkpt lat="48.75111" lon="8.19316">
        <ele>375</ele>
        <time>2020-07-25T14:55:34Z</time>
      </trkpt>
      <trkpt lat="48.75112" lon="8.19316">
        <ele>375.2</ele>
        <time>2020-07-25T14:55:35Z</time>
      </trkpt>
      <trkpt lat="48.75114" lon="8.19316">
        <ele>375.4</ele>
        <time>2020-07-25T14:55:36Z</time>
      </trkpt>
      <trkpt lat="48.75115" lon="8.19316">
        <ele>375.6</ele>
        <time>2020-07-25T14:55:37Z</time>
      </trkpt>
      <trkpt lat="48.75118" lon="8.19316">
        <ele>376.2</ele>
        <time>2020-07-25T14:55:39Z</time>
      </trkpt>
      <trkpt lat="48.7512" lon="8.19316">
        <ele>376.4</ele>
        <time>2020-07-25T14:55:40Z</time>
      </trkpt>
      <trkpt lat="48.75121" lon="8.19317">
        <ele>376.4</ele>
        <time>2020-07-25T14:55:41Z</time>
      </trkpt>
      <trkpt lat="48.75127" lon="8.19321">
        <ele>377.8</ele>
        <time>2020-07-25T14:55:46Z</time>
      </trkpt>
      <trkpt lat="48.7513" lon="8.19324">
        <ele>378.4</ele>
        <time>2020-07-25T14:55:49Z</time>
      </trkpt>
      <trkpt lat="48.75132" lon="8.19325">
        <ele>378.8</ele>
        <time>2020-07-25T14:55:50Z</time>
      </trkpt>
      <trkpt lat="48.75137" lon="8.19326">
        <ele>379.6</ele>
        <time>2020-07-25T14:55:55Z</time>
      </trkpt>
      <trkpt lat="48.75142" lon="8.19324">
        <ele>379.8</ele>
        <time>2020-07-25T14:55:58Z</time>
      </trkpt>
      <trkpt lat="48.75146" lon="8.19323">
        <ele>379.8</ele>
        <time>2020-07-25T14:56:00Z</time>
      </trkpt>
      <trkpt lat="48.75147" lon="8.19322">
        <ele>379.8</ele>
        <time>2020-07-25T14:56:01Z</time>
      </trkpt>
      <trkpt lat="48.75149" lon="8.19318">
        <ele>379.8</ele>
        <time>2020-07-25T14:56:03Z</time>
      </trkpt>
      <trkpt lat="48.75151" lon="8.1931">
        <ele>379.6</ele>
        <time>2020-07-25T14:56:05Z</time>
      </trkpt>
      <trkpt lat="48.75152" lon="8.19305">
        <ele>379.4</ele>
        <time>2020-07-25T14:56:06Z</time>
      </trkpt>
      <trkpt lat="48.75153" lon="8.19299">
        <ele>379.2</ele>
        <time>2020-07-25T14:56:07Z</time>
      </trkpt>
      <trkpt lat="48.75158" lon="8.19281">
        <ele>378.2</ele>
        <time>2020-07-25T14:56:10Z</time>
      </trkpt>
      <trkpt lat="48.75163" lon="8.19265">
        <ele>377.6</ele>
        <time>2020-07-25T14:56:13Z</time>
      </trkpt>
      <trkpt lat="48.75164" lon="8.19256">
        <ele>376.8</ele>
        <time>2020-07-25T14:56:15Z</time>
      </trkpt>
      <trkpt lat="48.75163" lon="8.19252">
        <ele>376</ele>
        <time>2020-07-25T14:56:16Z</time>
      </trkpt>
      <trkpt lat="48.75162" lon="8.19247">
        <ele>375</ele>
        <time>2020-07-25T14:56:18Z</time>
      </trkpt>
      <trkpt lat="48.75159" lon="8.19241">
        <ele>374.4</ele>
        <time>2020-07-25T14:56:20Z</time>
      </trkpt>
      <trkpt lat="48.75156" lon="8.19237">
        <ele>373.6</ele>
        <time>2020-07-25T14:56:22Z</time>
      </trkpt>
      <trkpt lat="48.75152" lon="8.19229">
        <ele>373</ele>
        <time>2020-07-25T14:56:25Z</time>
      </trkpt>
      <trkpt lat="48.75148" lon="8.19217">
        <ele>372.6</ele>
        <time>2020-07-25T14:56:27Z</time>
      </trkpt>
      <trkpt lat="48.75151" lon="8.19211">
        <ele>371.8</ele>
        <time>2020-07-25T14:56:29Z</time>
      </trkpt>
      <trkpt lat="48.75152" lon="8.19209">
        <ele>371.4</ele>
        <time>2020-07-25T14:56:30Z</time>
      </trkpt>
      <trkpt lat="48.75154" lon="8.19204">
        <ele>370.4</ele>
        <time>2020-07-25T14:56:33Z</time>
      </trkpt>
      <trkpt lat="48.75155" lon="8.19203">
        <ele>369.8</ele>
        <time>2020-07-25T14:56:34Z</time>
      </trkpt>
      <trkpt lat="48.75156" lon="8.19201">
        <ele>369.6</ele>
        <time>2020-07-25T14:56:35Z</time>
      </trkpt>
      <trkpt lat="48.75159" lon="8.19198">
        <ele>369.2</ele>
        <time>2020-07-25T14:56:36Z</time>
      </trkpt>
      <trkpt lat="48.75162" lon="8.19197">
        <ele>369</ele>
        <time>2020-07-25T14:56:37Z</time>
      </trkpt>
      <trkpt lat="48.75166" lon="8.19196">
        <ele>368.8</ele>
        <time>2020-07-25T14:56:38Z</time>
      </trkpt>
      <trkpt lat="48.75175" lon="8.19196">
        <ele>368.6</ele>
        <time>2020-07-25T14:56:40Z</time>
      </trkpt>
      <trkpt lat="48.7518" lon="8.19199">
        <ele>368.4</ele>
        <time>2020-07-25T14:56:41Z</time>
      </trkpt>
      <trkpt lat="48.75185" lon="8.192">
        <ele>368.2</ele>
        <time>2020-07-25T14:56:42Z</time>
      </trkpt>
      <trkpt lat="48.75196" lon="8.19204">
        <ele>367.8</ele>
        <time>2020-07-25T14:56:44Z</time>
      </trkpt>
      <trkpt lat="48.75207" lon="8.19212">
        <ele>366.6</ele>
        <time>2020-07-25T14:56:46Z</time>
      </trkpt>
      <trkpt lat="48.7522" lon="8.19223">
        <ele>364.8</ele>
        <time>2020-07-25T14:56:48Z</time>
      </trkpt>
      <trkpt lat="48.75232" lon="8.19232">
        <ele>363</ele>
        <time>2020-07-25T14:56:50Z</time>
      </trkpt>
      <trkpt lat="48.75244" lon="8.19243">
        <ele>361.4</ele>
        <time>2020-07-25T14:56:52Z</time>
      </trkpt>
      <trkpt lat="48.75255" lon="8.19252">
        <ele>360</ele>
        <time>2020-07-25T14:56:54Z</time>
      </trkpt>
      <trkpt lat="48.75268" lon="8.19259">
        <ele>358.4</ele>
        <time>2020-07-25T14:56:56Z</time>
      </trkpt>
      <trkpt lat="48.75273" lon="8.19261">
        <ele>357.4</ele>
        <time>2020-07-25T14:56:57Z</time>
      </trkpt>
      <trkpt lat="48.75279" lon="8.19262">
        <ele>356.8</ele>
        <time>2020-07-25T14:56:58Z</time>
      </trkpt>
      <trkpt lat="48.75283" lon="8.19263">
        <ele>356.2</ele>
        <time>2020-07-25T14:56:59Z</time>
      </trkpt>
      <trkpt lat="48.75285" lon="8.19257">
        <ele>355.4</ele>
        <time>2020-07-25T14:57:00Z</time>
      </trkpt>
      <trkpt lat="48.75289" lon="8.19256">
        <ele>354.6</ele>
        <time>2020-07-25T14:57:01Z</time>
      </trkpt>
      <trkpt lat="48.75294" lon="8.19254">
        <ele>354</ele>
        <time>2020-07-25T14:57:02Z</time>
      </trkpt>
      <trkpt lat="48.75302" lon="8.19249">
        <ele>352.8</ele>
        <time>2020-07-25T14:57:04Z</time>
      </trkpt>
      <trkpt lat="48.75306" lon="8.19247">
        <ele>352.4</ele>
        <time>2020-07-25T14:57:05Z</time>
      </trkpt>
      <trkpt lat="48.7531" lon="8.19243">
        <ele>351.8</ele>
        <time>2020-07-25T14:57:07Z</time>
      </trkpt>
      <trkpt lat="48.75311" lon="8.19243">
        <ele>351.8</ele>
        <time>2020-07-25T14:57:08Z</time>
      </trkpt>
      <trkpt lat="48.75321" lon="8.19238">
        <ele>350.6</ele>
        <time>2020-07-25T14:57:13Z</time>
      </trkpt>
      <trkpt lat="48.75325" lon="8.19235">
        <ele>350.6</ele>
        <time>2020-07-25T14:57:15Z</time>
      </trkpt>
      <trkpt lat="48.75336" lon="8.19228">
        <ele>350</ele>
        <time>2020-07-25T14:57:19Z</time>
      </trkpt>
      <trkpt lat="48.75356" lon="8.19209">
        <ele>350</ele>
        <time>2020-07-25T14:57:26Z</time>
      </trkpt>
      <trkpt lat="48.75363" lon="8.19203">
        <ele>350</ele>
        <time>2020-07-25T14:57:29Z</time>
      </trkpt>
      <trkpt lat="48.75366" lon="8.19202">
        <ele>350</ele>
        <time>2020-07-25T14:57:30Z</time>
      </trkpt>
      <trkpt lat="48.75368" lon="8.19201">
        <ele>350.2</ele>
        <time>2020-07-25T14:57:31Z</time>
      </trkpt>
      <trkpt lat="48.75375" lon="8.192">
        <ele>350.4</ele>
        <time>2020-07-25T14:57:34Z</time>
      </trkpt>
      <trkpt lat="48.75385" lon="8.1921">
        <ele>351.4</ele>
        <time>2020-07-25T14:57:39Z</time>
      </trkpt>
      <trkpt lat="48.75389" lon="8.19214">
        <ele>352</ele>
        <time>2020-07-25T14:57:41Z</time>
      </trkpt>
      <trkpt lat="48.75395" lon="8.1923">
        <ele>353</ele>
        <time>2020-07-25T14:57:45Z</time>
      </trkpt>
      <trkpt lat="48.75402" lon="8.1925">
        <ele>354.2</ele>
        <time>2020-07-25T14:57:50Z</time>
      </trkpt>
      <trkpt lat="48.75404" lon="8.19256">
        <ele>354.6</ele>
        <time>2020-07-25T14:57:52Z</time>
      </trkpt>
      <trkpt lat="48.75405" lon="8.19259">
        <ele>354.8</ele>
        <time>2020-07-25T14:57:54Z</time>
      </trkpt>
      <trkpt lat="48.75406" lon="8.19262">
        <ele>355.2</ele>
        <time>2020-07-25T14:57:56Z</time>
      </trkpt>
      <trkpt lat="48.75406" lon="8.19265">
        <ele>355.4</ele>
        <time>2020-07-25T14:57:57Z</time>
      </trkpt>
      <trkpt lat="48.75406" lon="8.19267">
        <ele>355.4</ele>
        <time>2020-07-25T14:57:58Z</time>
      </trkpt>
      <trkpt lat="48.75405" lon="8.19272">
        <ele>355.6</ele>
        <time>2020-07-25T14:58:00Z</time>
      </trkpt>
      <trkpt lat="48.75406" lon="8.19294">
        <ele>355.6</ele>
        <time>2020-07-25T14:58:04Z</time>
      </trkpt>
      <trkpt lat="48.75405" lon="8.19314">
        <ele>355.6</ele>
        <time>2020-07-25T14:58:07Z</time>
      </trkpt>
      <trkpt lat="48.75405" lon="8.19322">
        <ele>355.6</ele>
        <time>2020-07-25T14:58:08Z</time>
      </trkpt>
      <trkpt lat="48.75403" lon="8.1934">
        <ele>355.2</ele>
        <time>2020-07-25T14:58:10Z</time>
      </trkpt>
      <trkpt lat="48.75403" lon="8.19356">
        <ele>354.6</ele>
        <time>2020-07-25T14:58:12Z</time>
      </trkpt>
      <trkpt lat="48.75404" lon="8.19364">
        <ele>354.2</ele>
        <time>2020-07-25T14:58:13Z</time>
      </trkpt>
      <trkpt lat="48.75404" lon="8.19372">
        <ele>353.6</ele>
        <time>2020-07-25T14:58:15Z</time>
      </trkpt>
      <trkpt lat="48.75404" lon="8.19376">
        <ele>352.8</ele>
        <time>2020-07-25T14:58:16Z</time>
      </trkpt>
      <trkpt lat="48.75406" lon="8.19393">
        <ele>351.6</ele>
        <time>2020-07-25T14:58:19Z</time>
      </trkpt>
      <trkpt lat="48.75406" lon="8.19399">
        <ele>351</ele>
        <time>2020-07-25T14:58:20Z</time>
      </trkpt>
      <trkpt lat="48.75411" lon="8.19418">
        <ele>350.8</ele>
        <time>2020-07-25T14:58:24Z</time>
      </trkpt>
      <trkpt lat="48.75415" lon="8.19424">
        <ele>350.4</ele>
        <time>2020-07-25T14:58:26Z</time>
      </trkpt>
      <trkpt lat="48.7542" lon="8.19425">
        <ele>349.6</ele>
        <time>2020-07-25T14:58:29Z</time>
      </trkpt>
      <trkpt lat="48.75422" lon="8.19424">
        <ele>349.2</ele>
        <time>2020-07-25T14:58:31Z</time>
      </trkpt>
      <trkpt lat="48.75422" lon="8.19424">
        <ele>349</ele>
        <time>2020-07-25T14:58:32Z</time>
      </trkpt>
      <trkpt lat="48.7542" lon="8.1942">
        <ele>348.2</ele>
        <time>2020-07-25T14:58:58Z</time>
      </trkpt>
      <trkpt lat="48.75421" lon="8.19418">
        <ele>348.2</ele>
        <time>2020-07-25T14:58:59Z</time>
      </trkpt>
      <trkpt lat="48.75421" lon="8.19412">
        <ele>347.8</ele>
        <time>2020-07-25T14:59:01Z</time>
      </trkpt>
      <trkpt lat="48.75422" lon="8.1941">
        <ele>347.8</ele>
        <time>2020-07-25T14:59:02Z</time>
      </trkpt>
      <trkpt lat="48.75428" lon="8.19382">
        <ele>347.2</ele>
        <time>2020-07-25T14:59:07Z</time>
      </trkpt>
      <trkpt lat="48.75431" lon="8.19373">
        <ele>346.6</ele>
        <time>2020-07-25T14:59:08Z</time>
      </trkpt>
      <trkpt lat="48.75437" lon="8.1936">
        <ele>344.8</ele>
        <time>2020-07-25T14:59:10Z</time>
      </trkpt>
      <trkpt lat="48.75446" lon="8.19345">
        <ele>343.8</ele>
        <time>2020-07-25T14:59:12Z</time>
      </trkpt>
      <trkpt lat="48.75449" lon="8.19337">
        <ele>342.8</ele>
        <time>2020-07-25T14:59:13Z</time>
      </trkpt>
      <trkpt lat="48.75451" lon="8.1933">
        <ele>341.4</ele>
        <time>2020-07-25T14:59:14Z</time>
      </trkpt>
      <trkpt lat="48.75454" lon="8.19326">
        <ele>340.2</ele>
        <time>2020-07-25T14:59:15Z</time>
      </trkpt>
      <trkpt lat="48.75458" lon="8.19314">
        <ele>338.8</ele>
        <time>2020-07-25T14:59:17Z</time>
      </trkpt>
      <trkpt lat="48.75462" lon="8.19307">
        <ele>338.2</ele>
        <time>2020-07-25T14:59:18Z</time>
      </trkpt>
      <trkpt lat="48.75466" lon="8.19302">
        <ele>337.6</ele>
        <time>2020-07-25T14:59:19Z</time>
      </trkpt>
      <trkpt lat="48.7548" lon="8.19285">
        <ele>336.4</ele>
        <time>2020-07-25T14:59:22Z</time>
      </trkpt>
      <trkpt lat="48.75483" lon="8.19278">
        <ele>335.8</ele>
        <time>2020-07-25T14:59:23Z</time>
      </trkpt>
      <trkpt lat="48.75484" lon="8.19269">
        <ele>334.4</ele>
        <time>2020-07-25T14:59:24Z</time>
      </trkpt>
      <trkpt lat="48.75485" lon="8.19262">
        <ele>333.4</ele>
        <time>2020-07-25T14:59:25Z</time>
      </trkpt>
      <trkpt lat="48.75489" lon="8.19257">
        <ele>332.6</ele>
        <time>2020-07-25T14:59:26Z</time>
      </trkpt>
      <trkpt lat="48.75493" lon="8.19253">
        <ele>331</ele>
        <time>2020-07-25T14:59:27Z</time>
      </trkpt>
      <trkpt lat="48.75497" lon="8.1925">
        <ele>330.2</ele>
        <time>2020-07-25T14:59:28Z</time>
      </trkpt>
      <trkpt lat="48.75505" lon="8.19245">
        <ele>328.6</ele>
        <time>2020-07-25T14:59:30Z</time>
      </trkpt>
      <trkpt lat="48.75507" lon="8.19243">
        <ele>327.8</ele>
        <time>2020-07-25T14:59:31Z</time>
      </trkpt>
      <trkpt lat="48.7551" lon="8.1924">
        <ele>326.6</ele>
        <time>2020-07-25T14:59:32Z</time>
      </trkpt>
      <trkpt lat="48.75518" lon="8.19231">
        <ele>325.6</ele>
        <time>2020-07-25T14:59:34Z</time>
      </trkpt>
      <trkpt lat="48.75526" lon="8.1922">
        <ele>323.8</ele>
        <time>2020-07-25T14:59:36Z</time>
      </trkpt>
      <trkpt lat="48.75534" lon="8.19214">
        <ele>322.2</ele>
        <time>2020-07-25T14:59:38Z</time>
      </trkpt>
      <trkpt lat="48.75538" lon="8.19211">
        <ele>321.6</ele>
        <time>2020-07-25T14:59:39Z</time>
      </trkpt>
      <trkpt lat="48.75544" lon="8.19206">
        <ele>321</ele>
        <time>2020-07-25T14:59:40Z</time>
      </trkpt>
      <trkpt lat="48.75554" lon="8.19197">
        <ele>319.8</ele>
        <time>2020-07-25T14:59:42Z</time>
      </trkpt>
      <trkpt lat="48.75558" lon="8.19194">
        <ele>318.8</ele>
        <time>2020-07-25T14:59:43Z</time>
      </trkpt>
      <trkpt lat="48.75562" lon="8.19191">
        <ele>318.4</ele>
        <time>2020-07-25T14:59:44Z</time>
      </trkpt>
      <trkpt lat="48.75571" lon="8.19181">
        <ele>317.4</ele>
        <time>2020-07-25T14:59:46Z</time>
      </trkpt>
      <trkpt lat="48.75576" lon="8.19177">
        <ele>316.4</ele>
        <time>2020-07-25T14:59:47Z</time>
      </trkpt>
      <trkpt lat="48.75585" lon="8.19166">
        <ele>314.8</ele>
        <time>2020-07-25T14:59:49Z</time>
      </trkpt>
      <trkpt lat="48.75598" lon="8.1915">
        <ele>313.6</ele>
        <time>2020-07-25T14:59:52Z</time>
      </trkpt>
      <trkpt lat="48.75602" lon="8.19145">
        <ele>312.6</ele>
        <time>2020-07-25T14:59:53Z</time>
      </trkpt>
      <trkpt lat="48.75606" lon="8.19141">
        <ele>311.8</ele>
        <time>2020-07-25T14:59:54Z</time>
      </trkpt>
      <trkpt lat="48.75611" lon="8.19137">
        <ele>310.4</ele>
        <time>2020-07-25T14:59:55Z</time>
      </trkpt>
      <trkpt lat="48.75617" lon="8.19132">
        <ele>308.8</ele>
        <time>2020-07-25T14:59:56Z</time>
      </trkpt>
      <trkpt lat="48.75623" lon="8.19126">
        <ele>307.2</ele>
        <time>2020-07-25T14:59:57Z</time>
      </trkpt>
      <trkpt lat="48.75629" lon="8.19118">
        <ele>305.8</ele>
        <time>2020-07-25T14:59:58Z</time>
      </trkpt>
      <trkpt lat="48.75634" lon="8.1911">
        <ele>305</ele>
        <time>2020-07-25T14:59:59Z</time>
      </trkpt>
      <trkpt lat="48.75639" lon="8.19105">
        <ele>304.6</ele>
        <time>2020-07-25T15:00:00Z</time>
      </trkpt>
      <trkpt lat="48.75646" lon="8.19099">
        <ele>303.2</ele>
        <time>2020-07-25T15:00:02Z</time>
      </trkpt>
      <trkpt lat="48.75655" lon="8.19095">
        <ele>301.4</ele>
        <time>2020-07-25T15:00:04Z</time>
      </trkpt>
      <trkpt lat="48.75665" lon="8.19091">
        <ele>300</ele>
        <time>2020-07-25T15:00:05Z</time>
      </trkpt>
      <trkpt lat="48.75674" lon="8.19087">
        <ele>298.8</ele>
        <time>2020-07-25T15:00:06Z</time>
      </trkpt>
      <trkpt lat="48.75685" lon="8.1908">
        <ele>297.8</ele>
        <time>2020-07-25T15:00:07Z</time>
      </trkpt>
      <trkpt lat="48.75691" lon="8.19075">
        <ele>297.4</ele>
        <time>2020-07-25T15:00:08Z</time>
      </trkpt>
      <trkpt lat="48.757" lon="8.19069">
        <ele>296.4</ele>
        <time>2020-07-25T15:00:10Z</time>
      </trkpt>
      <trkpt lat="48.75704" lon="8.19065">
        <ele>295.4</ele>
        <time>2020-07-25T15:00:11Z</time>
      </trkpt>
      <trkpt lat="48.75709" lon="8.19064">
        <ele>294.4</ele>
        <time>2020-07-25T15:00:12Z</time>
      </trkpt>
      <trkpt lat="48.75712" lon="8.19064">
        <ele>293</ele>
        <time>2020-07-25T15:00:13Z</time>
      </trkpt>
      <trkpt lat="48.75717" lon="8.19063">
        <ele>292.2</ele>
        <time>2020-07-25T15:00:14Z</time>
      </trkpt>
      <trkpt lat="48.75722" lon="8.19062">
        <ele>291.8</ele>
        <time>2020-07-25T15:00:15Z</time>
      </trkpt>
      <trkpt lat="48.75726" lon="8.1906">
        <ele>291.6</ele>
        <time>2020-07-25T15:00:16Z</time>
      </trkpt>
      <trkpt lat="48.75731" lon="8.19057">
        <ele>291.6</ele>
        <time>2020-07-25T15:00:18Z</time>
      </trkpt>
      <trkpt lat="48.75743" lon="8.19048">
        <ele>291.4</ele>
        <time>2020-07-25T15:00:22Z</time>
      </trkpt>
      <trkpt lat="48.75764" lon="8.1903">
        <ele>291.2</ele>
        <time>2020-07-25T15:00:26Z</time>
      </trkpt>
      <trkpt lat="48.75778" lon="8.19015">
        <ele>290.8</ele>
        <time>2020-07-25T15:00:29Z</time>
      </trkpt>
      <trkpt lat="48.75781" lon="8.1901">
        <ele>290.8</ele>
        <time>2020-07-25T15:00:30Z</time>
      </trkpt>
      <trkpt lat="48.75783" lon="8.19005">
        <ele>290.4</ele>
        <time>2020-07-25T15:00:31Z</time>
      </trkpt>
      <trkpt lat="48.75786" lon="8.19001">
        <ele>289.2</ele>
        <time>2020-07-25T15:00:32Z</time>
      </trkpt>
      <trkpt lat="48.75787" lon="8.18997">
        <ele>287.4</ele>
        <time>2020-07-25T15:00:33Z</time>
      </trkpt>
      <trkpt lat="48.7579" lon="8.18993">
        <ele>286.2</ele>
        <time>2020-07-25T15:00:34Z</time>
      </trkpt>
      <trkpt lat="48.75791" lon="8.18988">
        <ele>285.6</ele>
        <time>2020-07-25T15:00:35Z</time>
      </trkpt>
      <trkpt lat="48.75792" lon="8.18984">
        <ele>284.2</ele>
        <time>2020-07-25T15:00:36Z</time>
      </trkpt>
      <trkpt lat="48.75792" lon="8.18981">
        <ele>283.4</ele>
        <time>2020-07-25T15:00:37Z</time>
      </trkpt>
      <trkpt lat="48.75791" lon="8.18978">
        <ele>282.2</ele>
        <time>2020-07-25T15:00:40Z</time>
      </trkpt>
      <trkpt lat="48.75791" lon="8.18978">
        <ele>282</ele>
        <time>2020-07-25T15:00:41Z</time>
      </trkpt>
      <trkpt lat="48.75796" lon="8.18977">
        <ele>281.2</ele>
        <time>2020-07-25T15:01:21Z</time>
      </trkpt>
      <trkpt lat="48.75801" lon="8.18973">
        <ele>281.2</ele>
        <time>2020-07-25T15:01:23Z</time>
      </trkpt>
      <trkpt lat="48.75804" lon="8.18969">
        <ele>281.2</ele>
        <time>2020-07-25T15:01:24Z</time>
      </trkpt>
      <trkpt lat="48.75814" lon="8.18959">
        <ele>281.2</ele>
        <time>2020-07-25T15:01:27Z</time>
      </trkpt>
      <trkpt lat="48.75818" lon="8.18955">
        <ele>281.2</ele>
        <time>2020-07-25T15:01:28Z</time>
      </trkpt>
      <trkpt lat="48.7583" lon="8.18939">
        <ele>280.2</ele>
        <time>2020-07-25T15:01:33Z</time>
      </trkpt>
      <trkpt lat="48.75833" lon="8.18935">
        <ele>279.8</ele>
        <time>2020-07-25T15:01:34Z</time>
      </trkpt>
      <trkpt lat="48.75838" lon="8.18928">
        <ele>278.8</ele>
        <time>2020-07-25T15:01:36Z</time>
      </trkpt>
      <trkpt lat="48.75854" lon="8.18907">
        <ele>278.2</ele>
        <time>2020-07-25T15:01:41Z</time>
      </trkpt>
      <trkpt lat="48.75864" lon="8.18892">
        <ele>277.6</ele>
        <time>2020-07-25T15:01:44Z</time>
      </trkpt>
      <trkpt lat="48.75877" lon="8.18877">
        <ele>276.8</ele>
        <time>2020-07-25T15:01:47Z</time>
      </trkpt>
      <trkpt lat="48.75881" lon="8.18871">
        <ele>276.4</ele>
        <time>2020-07-25T15:01:48Z</time>
      </trkpt>
      <trkpt lat="48.75885" lon="8.18866">
        <ele>276.2</ele>
        <time>2020-07-25T15:01:49Z</time>
      </trkpt>
      <trkpt lat="48.75899" lon="8.18848">
        <ele>275.4</ele>
        <time>2020-07-25T15:01:52Z</time>
      </trkpt>
      <trkpt lat="48.75912" lon="8.18829">
        <ele>274.4</ele>
        <time>2020-07-25T15:01:55Z</time>
      </trkpt>
      <trkpt lat="48.75917" lon="8.18823">
        <ele>274.2</ele>
        <time>2020-07-25T15:01:56Z</time>
      </trkpt>
      <trkpt lat="48.75943" lon="8.18788">
        <ele>273</ele>
        <time>2020-07-25T15:02:01Z</time>
      </trkpt>
      <trkpt lat="48.75959" lon="8.18764">
        <ele>271.6</ele>
        <time>2020-07-25T15:02:04Z</time>
      </trkpt>
      <trkpt lat="48.7597" lon="8.18748">
        <ele>270</ele>
        <time>2020-07-25T15:02:06Z</time>
      </trkpt>
      <trkpt lat="48.75975" lon="8.18739">
        <ele>269.2</ele>
        <time>2020-07-25T15:02:07Z</time>
      </trkpt>
      <trkpt lat="48.7598" lon="8.1873">
        <ele>268.4</ele>
        <time>2020-07-25T15:02:08Z</time>
      </trkpt>
      <trkpt lat="48.75984" lon="8.1872">
        <ele>267.6</ele>
        <time>2020-07-25T15:02:09Z</time>
      </trkpt>
      <trkpt lat="48.75988" lon="8.18711">
        <ele>267</ele>
        <time>2020-07-25T15:02:10Z</time>
      </trkpt>
      <trkpt lat="48.75996" lon="8.18694">
        <ele>265.6</ele>
        <time>2020-07-25T15:02:12Z</time>
      </trkpt>
      <trkpt lat="48.76" lon="8.18685">
        <ele>264.2</ele>
        <time>2020-07-25T15:02:13Z</time>
      </trkpt>
      <trkpt lat="48.76004" lon="8.18676">
        <ele>263.6</ele>
        <time>2020-07-25T15:02:14Z</time>
      </trkpt>
      <trkpt lat="48.76007" lon="8.18666">
        <ele>262.6</ele>
        <time>2020-07-25T15:02:15Z</time>
      </trkpt>
      <trkpt lat="48.76014" lon="8.18645">
        <ele>261.4</ele>
        <time>2020-07-25T15:02:17Z</time>
      </trkpt>
      <trkpt lat="48.76019" lon="8.18623">
        <ele>260.4</ele>
        <time>2020-07-25T15:02:19Z</time>
      </trkpt>
      <trkpt lat="48.76022" lon="8.18611">
        <ele>259.8</ele>
        <time>2020-07-25T15:02:20Z</time>
      </trkpt>
      <trkpt lat="48.76025" lon="8.18597">
        <ele>259.4</ele>
        <time>2020-07-25T15:02:21Z</time>
      </trkpt>
      <trkpt lat="48.76026" lon="8.18584">
        <ele>258.4</ele>
        <time>2020-07-25T15:02:22Z</time>
      </trkpt>
      <trkpt lat="48.76028" lon="8.1857">
        <ele>257.2</ele>
        <time>2020-07-25T15:02:23Z</time>
      </trkpt>
      <trkpt lat="48.7603" lon="8.18555">
        <ele>255.8</ele>
        <time>2020-07-25T15:02:24Z</time>
      </trkpt>
      <trkpt lat="48.76032" lon="8.18541">
        <ele>254.4</ele>
        <time>2020-07-25T15:02:25Z</time>
      </trkpt>
      <trkpt lat="48.76041" lon="8.18513">
        <ele>252.2</ele>
        <time>2020-07-25T15:02:27Z</time>
      </trkpt>
      <trkpt lat="48.76046" lon="8.18499">
        <ele>251</ele>
        <time>2020-07-25T15:02:28Z</time>
      </trkpt>
      <trkpt lat="48.76055" lon="8.18473">
        <ele>249.2</ele>
        <time>2020-07-25T15:02:30Z</time>
      </trkpt>
      <trkpt lat="48.76058" lon="8.18461">
        <ele>247.6</ele>
        <time>2020-07-25T15:02:31Z</time>
      </trkpt>
      <trkpt lat="48.76062" lon="8.1845">
        <ele>246.6</ele>
        <time>2020-07-25T15:02:32Z</time>
      </trkpt>
      <trkpt lat="48.76065" lon="8.18438">
        <ele>245.8</ele>
        <time>2020-07-25T15:02:33Z</time>
      </trkpt>
      <trkpt lat="48.76069" lon="8.18425">
        <ele>243.8</ele>
        <time>2020-07-25T15:02:34Z</time>
      </trkpt>
      <trkpt lat="48.76074" lon="8.1841">
        <ele>242.4</ele>
        <time>2020-07-25T15:02:35Z</time>
      </trkpt>
      <trkpt lat="48.76078" lon="8.18398">
        <ele>240.8</ele>
        <time>2020-07-25T15:02:36Z</time>
      </trkpt>
      <trkpt lat="48.76081" lon="8.18386">
        <ele>239.6</ele>
        <time>2020-07-25T15:02:37Z</time>
      </trkpt>
      <trkpt lat="48.76084" lon="8.18375">
        <ele>239</ele>
        <time>2020-07-25T15:02:38Z</time>
      </trkpt>
      <trkpt lat="48.76087" lon="8.18364">
        <ele>238.4</ele>
        <time>2020-07-25T15:02:39Z</time>
      </trkpt>
      <trkpt lat="48.76098" lon="8.18329">
        <ele>237.6</ele>
        <time>2020-07-25T15:02:43Z</time>
      </trkpt>
      <trkpt lat="48.76106" lon="8.18315">
        <ele>237.6</ele>
        <time>2020-07-25T15:02:46Z</time>
      </trkpt>
      <trkpt lat="48.76109" lon="8.18312">
        <ele>237.6</ele>
        <time>2020-07-25T15:02:47Z</time>
      </trkpt>
      <trkpt lat="48.76115" lon="8.18299">
        <ele>237.4</ele>
        <time>2020-07-25T15:02:50Z</time>
      </trkpt>
      <trkpt lat="48.76117" lon="8.18292">
        <ele>237.2</ele>
        <time>2020-07-25T15:02:51Z</time>
      </trkpt>
      <trkpt lat="48.76125" lon="8.18257">
        <ele>237.2</ele>
        <time>2020-07-25T15:02:55Z</time>
      </trkpt>
      <trkpt lat="48.76132" lon="8.18221">
        <ele>236.6</ele>
        <time>2020-07-25T15:03:00Z</time>
      </trkpt>
      <trkpt lat="48.76133" lon="8.18215">
        <ele>235.8</ele>
        <time>2020-07-25T15:03:01Z</time>
      </trkpt>
      <trkpt lat="48.76135" lon="8.18209">
        <ele>234.8</ele>
        <time>2020-07-25T15:03:02Z</time>
      </trkpt>
      <trkpt lat="48.76135" lon="8.18204">
        <ele>234</ele>
        <time>2020-07-25T15:03:03Z</time>
      </trkpt>
      <trkpt lat="48.76134" lon="8.18199">
        <ele>233.4</ele>
        <time>2020-07-25T15:03:04Z</time>
      </trkpt>
      <trkpt lat="48.7613" lon="8.18187">
        <ele>232.6</ele>
        <time>2020-07-25T15:03:06Z</time>
      </trkpt>
      <trkpt lat="48.76125" lon="8.18181">
        <ele>232.2</ele>
        <time>2020-07-25T15:03:07Z</time>
      </trkpt>
      <trkpt lat="48.76121" lon="8.18176">
        <ele>231.4</ele>
        <time>2020-07-25T15:03:08Z</time>
      </trkpt>
      <trkpt lat="48.76107" lon="8.18164">
        <ele>230</ele>
        <time>2020-07-25T15:03:11Z</time>
      </trkpt>
      <trkpt lat="48.76101" lon="8.1816">
        <ele>229.6</ele>
        <time>2020-07-25T15:03:12Z</time>
      </trkpt>
      <trkpt lat="48.76097" lon="8.18157">
        <ele>229</ele>
        <time>2020-07-25T15:03:13Z</time>
      </trkpt>
      <trkpt lat="48.7609" lon="8.18153">
        <ele>226.8</ele>
        <time>2020-07-25T15:03:15Z</time>
      </trkpt>
      <trkpt lat="48.76087" lon="8.1815">
        <ele>225.4</ele>
        <time>2020-07-25T15:03:16Z</time>
      </trkpt>
      <trkpt lat="48.76084" lon="8.18148">
        <ele>224.6</ele>
        <time>2020-07-25T15:03:17Z</time>
      </trkpt>
      <trkpt lat="48.76083" lon="8.18149">
        <ele>223.8</ele>
        <time>2020-07-25T15:03:18Z</time>
      </trkpt>
      <trkpt lat="48.76082" lon="8.18151">
        <ele>223.4</ele>
        <time>2020-07-25T15:03:19Z</time>
      </trkpt>
      <trkpt lat="48.76083" lon="8.18152">
        <ele>222.8</ele>
        <time>2020-07-25T15:03:20Z</time>
      </trkpt>
      <trkpt lat="48.76086" lon="8.18153">
        <ele>222.2</ele>
        <time>2020-07-25T15:03:22Z</time>
      </trkpt>
      <trkpt lat="48.76094" lon="8.18156">
        <ele>222.2</ele>
        <time>2020-07-25T15:03:25Z</time>
      </trkpt>
      <trkpt lat="48.76096" lon="8.18154">
        <ele>222.2</ele>
        <time>2020-07-25T15:03:26Z</time>
      </trkpt>
      <trkpt lat="48.76098" lon="8.18151">
        <ele>222.2</ele>
        <time>2020-07-25T15:03:27Z</time>
      </trkpt>
      <trkpt lat="48.76102" lon="8.18135">
        <ele>222.2</ele>
        <time>2020-07-25T15:03:30Z</time>
      </trkpt>
      <trkpt lat="48.76107" lon="8.18118">
        <ele>222.6</ele>
        <time>2020-07-25T15:03:33Z</time>
      </trkpt>
      <trkpt lat="48.76111" lon="8.18101">
        <ele>223.2</ele>
        <time>2020-07-25T15:03:36Z</time>
      </trkpt>
      <trkpt lat="48.76124" lon="8.18051">
        <ele>224</ele>
        <time>2020-07-25T15:03:44Z</time>
      </trkpt>
      <trkpt lat="48.76125" lon="8.18044">
        <ele>224</ele>
        <time>2020-07-25T15:03:45Z</time>
      </trkpt>
      <trkpt lat="48.76136" lon="8.17999">
        <ele>224</ele>
        <time>2020-07-25T15:03:50Z</time>
      </trkpt>
      <trkpt lat="48.76147" lon="8.17948">
        <ele>224</ele>
        <time>2020-07-25T15:03:54Z</time>
      </trkpt>
      <trkpt lat="48.76155" lon="8.17907">
        <ele>222.2</ele>
        <time>2020-07-25T15:03:57Z</time>
      </trkpt>
      <trkpt lat="48.76159" lon="8.17892">
        <ele>220.8</ele>
        <time>2020-07-25T15:03:58Z</time>
      </trkpt>
      <trkpt lat="48.76163" lon="8.17874">
        <ele>219.6</ele>
        <time>2020-07-25T15:03:59Z</time>
      </trkpt>
      <trkpt lat="48.76167" lon="8.17858">
        <ele>219.6</ele>
        <time>2020-07-25T15:04:00Z</time>
      </trkpt>
      <trkpt lat="48.76171" lon="8.17841">
        <ele>218.4</ele>
        <time>2020-07-25T15:04:01Z</time>
      </trkpt>
      <trkpt lat="48.76174" lon="8.17827">
        <ele>217</ele>
        <time>2020-07-25T15:04:02Z</time>
      </trkpt>
      <trkpt lat="48.76179" lon="8.17809">
        <ele>215.6</ele>
        <time>2020-07-25T15:04:03Z</time>
      </trkpt>
      <trkpt lat="48.76184" lon="8.17791">
        <ele>214.6</ele>
        <time>2020-07-25T15:04:04Z</time>
      </trkpt>
      <trkpt lat="48.76192" lon="8.17772">
        <ele>213.2</ele>
        <time>2020-07-25T15:04:05Z</time>
      </trkpt>
      <trkpt lat="48.76199" lon="8.17758">
        <ele>212</ele>
        <time>2020-07-25T15:04:06Z</time>
      </trkpt>
      <trkpt lat="48.76206" lon="8.17745">
        <ele>210.6</ele>
        <time>2020-07-25T15:04:07Z</time>
      </trkpt>
      <trkpt lat="48.76211" lon="8.17735">
        <ele>209.2</ele>
        <time>2020-07-25T15:04:08Z</time>
      </trkpt>
      <trkpt lat="48.76217" lon="8.17723">
        <ele>207.4</ele>
        <time>2020-07-25T15:04:09Z</time>
      </trkpt>
      <trkpt lat="48.76224" lon="8.17711">
        <ele>206.2</ele>
        <time>2020-07-25T15:04:10Z</time>
      </trkpt>
      <trkpt lat="48.76228" lon="8.17703">
        <ele>205.6</ele>
        <time>2020-07-25T15:04:11Z</time>
      </trkpt>
      <trkpt lat="48.76236" lon="8.17686">
        <ele>205.2</ele>
        <time>2020-07-25T15:04:13Z</time>
      </trkpt>
      <trkpt lat="48.76239" lon="8.1768">
        <ele>205.4</ele>
        <time>2020-07-25T15:04:14Z</time>
      </trkpt>
      <trkpt lat="48.76243" lon="8.17674">
        <ele>205.2</ele>
        <time>2020-07-25T15:04:15Z</time>
      </trkpt>
      <trkpt lat="48.76252" lon="8.17659">
        <ele>205</ele>
        <time>2020-07-25T15:04:19Z</time>
      </trkpt>
      <trkpt lat="48.76257" lon="8.17646">
        <ele>206.8</ele>
        <time>2020-07-25T15:04:23Z</time>
      </trkpt>
      <trkpt lat="48.76258" lon="8.17643">
        <ele>207.6</ele>
        <time>2020-07-25T15:04:24Z</time>
      </trkpt>
      <trkpt lat="48.7626" lon="8.1764">
        <ele>208.2</ele>
        <time>2020-07-25T15:04:25Z</time>
      </trkpt>
      <trkpt lat="48.76261" lon="8.17637">
        <ele>208.4</ele>
        <time>2020-07-25T15:04:26Z</time>
      </trkpt>
      <trkpt lat="48.76264" lon="8.17634">
        <ele>209.2</ele>
        <time>2020-07-25T15:04:28Z</time>
      </trkpt>
      <trkpt lat="48.76265" lon="8.17631">
        <ele>209.4</ele>
        <time>2020-07-25T15:04:29Z</time>
      </trkpt>
      <trkpt lat="48.76267" lon="8.1762">
        <ele>209.8</ele>
        <time>2020-07-25T15:04:35Z</time>
      </trkpt>
      <trkpt lat="48.76267" lon="8.1762">
        <ele>209.8</ele>
        <time>2020-07-25T15:04:36Z</time>
      </trkpt>
      <trkpt lat="48.76263" lon="8.17616">
        <ele>210</ele>
        <time>2020-07-25T15:04:45Z</time>
      </trkpt>
      <trkpt lat="48.76259" lon="8.17614">
        <ele>209.8</ele>
        <time>2020-07-25T15:04:47Z</time>
      </trkpt>
      <trkpt lat="48.76247" lon="8.17601">
        <ele>209.4</ele>
        <time>2020-07-25T15:04:52Z</time>
      </trkpt>
      <trkpt lat="48.76235" lon="8.17589">
        <ele>208.2</ele>
        <time>2020-07-25T15:04:56Z</time>
      </trkpt>
      <trkpt lat="48.76229" lon="8.17583">
        <ele>206.8</ele>
        <time>2020-07-25T15:04:58Z</time>
      </trkpt>
      <trkpt lat="48.76225" lon="8.17578">
        <ele>206.2</ele>
        <time>2020-07-25T15:05:00Z</time>
      </trkpt>
      <trkpt lat="48.76223" lon="8.17576">
        <ele>205.8</ele>
        <time>2020-07-25T15:05:01Z</time>
      </trkpt>
      <trkpt lat="48.76218" lon="8.17573">
        <ele>204.2</ele>
        <time>2020-07-25T15:05:03Z</time>
      </trkpt>
      <trkpt lat="48.76215" lon="8.17572">
        <ele>203</ele>
        <time>2020-07-25T15:05:04Z</time>
      </trkpt>
      <trkpt lat="48.76212" lon="8.1757">
        <ele>202.4</ele>
        <time>2020-07-25T15:05:05Z</time>
      </trkpt>
      <trkpt lat="48.7621" lon="8.17569">
        <ele>201.4</ele>
        <time>2020-07-25T15:05:06Z</time>
      </trkpt>
      <trkpt lat="48.76208" lon="8.17568">
        <ele>200.4</ele>
        <time>2020-07-25T15:05:08Z</time>
      </trkpt>
      <trkpt lat="48.76206" lon="8.17568">
        <ele>199.8</ele>
        <time>2020-07-25T15:05:09Z</time>
      </trkpt>
      <trkpt lat="48.76205" lon="8.17569">
        <ele>199.2</ele>
        <time>2020-07-25T15:05:10Z</time>
      </trkpt>
      <trkpt lat="48.76204" lon="8.17571">
        <ele>198.4</ele>
        <time>2020-07-25T15:05:11Z</time>
      </trkpt>
      <trkpt lat="48.76204" lon="8.17573">
        <ele>198</ele>
        <time>2020-07-25T15:05:12Z</time>
      </trkpt>
      <trkpt lat="48.76202" lon="8.17579">
        <ele>197</ele>
        <time>2020-07-25T15:05:14Z</time>
      </trkpt>
      <trkpt lat="48.76199" lon="8.1759">
        <ele>195.6</ele>
        <time>2020-07-25T15:05:17Z</time>
      </trkpt>
      <trkpt lat="48.76198" lon="8.17594">
        <ele>195.4</ele>
        <time>2020-07-25T15:05:18Z</time>
      </trkpt>
      <trkpt lat="48.76196" lon="8.17603">
        <ele>195.2</ele>
        <time>2020-07-25T15:05:20Z</time>
      </trkpt>
      <trkpt lat="48.76195" lon="8.1761">
        <ele>195.4</ele>
        <time>2020-07-25T15:05:24Z</time>
      </trkpt>
      <trkpt lat="48.76195" lon="8.1761">
        <ele>195.4</ele>
        <time>2020-07-25T15:05:25Z</time>
      </trkpt>
      <trkpt lat="48.76194" lon="8.17613">
        <ele>195.4</ele>
        <time>2020-07-25T15:05:47Z</time>
      </trkpt>
      <trkpt lat="48.76191" lon="8.17622">
        <ele>195.4</ele>
        <time>2020-07-25T15:05:49Z</time>
      </trkpt>
      <trkpt lat="48.76183" lon="8.17651">
        <ele>195</ele>
        <time>2020-07-25T15:05:54Z</time>
      </trkpt>
      <trkpt lat="48.76177" lon="8.1767">
        <ele>194.6</ele>
        <time>2020-07-25T15:05:58Z</time>
      </trkpt>
      <trkpt lat="48.76174" lon="8.17671">
        <ele>194.4</ele>
        <time>2020-07-25T15:05:59Z</time>
      </trkpt>
      <trkpt lat="48.76169" lon="8.17663">
        <ele>194.4</ele>
        <time>2020-07-25T15:06:01Z</time>
      </trkpt>
      <trkpt lat="48.76169" lon="8.17656">
        <ele>194.2</ele>
        <time>2020-07-25T15:06:02Z</time>
      </trkpt>
      <trkpt lat="48.76167" lon="8.17614">
        <ele>194</ele>
        <time>2020-07-25T15:06:07Z</time>
      </trkpt>
      <trkpt lat="48.76167" lon="8.17605">
        <ele>193.4</ele>
        <time>2020-07-25T15:06:08Z</time>
      </trkpt>
      <trkpt lat="48.76164" lon="8.1758">
        <ele>191.8</ele>
        <time>2020-07-25T15:06:11Z</time>
      </trkpt>
      <trkpt lat="48.76161" lon="8.17564">
        <ele>190.6</ele>
        <time>2020-07-25T15:06:13Z</time>
      </trkpt>
      <trkpt lat="48.76158" lon="8.17554">
        <ele>190</ele>
        <time>2020-07-25T15:06:14Z</time>
      </trkpt>
      <trkpt lat="48.76155" lon="8.17545">
        <ele>189.4</ele>
        <time>2020-07-25T15:06:15Z</time>
      </trkpt>
      <trkpt lat="48.76149" lon="8.17529">
        <ele>188.2</ele>
        <time>2020-07-25T15:06:17Z</time>
      </trkpt>
      <trkpt lat="48.76141" lon="8.17515">
        <ele>186.6</ele>
        <time>2020-07-25T15:06:19Z</time>
      </trkpt>
      <trkpt lat="48.76137" lon="8.17507">
        <ele>185.2</ele>
        <time>2020-07-25T15:06:20Z</time>
      </trkpt>
      <trkpt lat="48.76131" lon="8.17492">
        <ele>183.8</ele>
        <time>2020-07-25T15:06:22Z</time>
      </trkpt>
      <trkpt lat="48.76128" lon="8.17483">
        <ele>182.6</ele>
        <time>2020-07-25T15:06:23Z</time>
      </trkpt>
      <trkpt lat="48.7612" lon="8.17466">
        <ele>181.4</ele>
        <time>2020-07-25T15:06:25Z</time>
      </trkpt>
      <trkpt lat="48.76115" lon="8.17453">
        <ele>181.2</ele>
        <time>2020-07-25T15:06:27Z</time>
      </trkpt>
      <trkpt lat="48.76113" lon="8.17445">
        <ele>180.8</ele>
        <time>2020-07-25T15:06:28Z</time>
      </trkpt>
      <trkpt lat="48.76113" lon="8.17439">
        <ele>180.2</ele>
        <time>2020-07-25T15:06:29Z</time>
      </trkpt>
      <trkpt lat="48.76113" lon="8.17427">
        <ele>179.2</ele>
        <time>2020-07-25T15:06:31Z</time>
      </trkpt>
      <trkpt lat="48.76113" lon="8.17418">
        <ele>178.4</ele>
        <time>2020-07-25T15:06:32Z</time>
      </trkpt>
      <trkpt lat="48.76113" lon="8.17409">
        <ele>177.8</ele>
        <time>2020-07-25T15:06:33Z</time>
      </trkpt>
      <trkpt lat="48.76113" lon="8.17389">
        <ele>176.2</ele>
        <time>2020-07-25T15:06:35Z</time>
      </trkpt>
      <trkpt lat="48.76113" lon="8.17378">
        <ele>175.6</ele>
        <time>2020-07-25T15:06:36Z</time>
      </trkpt>
      <trkpt lat="48.76113" lon="8.17351">
        <ele>175</ele>
        <time>2020-07-25T15:06:38Z</time>
      </trkpt>
      <trkpt lat="48.76114" lon="8.17327">
        <ele>173.8</ele>
        <time>2020-07-25T15:06:40Z</time>
      </trkpt>
      <trkpt lat="48.76116" lon="8.17305">
        <ele>172.6</ele>
        <time>2020-07-25T15:06:42Z</time>
      </trkpt>
      <trkpt lat="48.76118" lon="8.1728">
        <ele>171.2</ele>
        <time>2020-07-25T15:06:44Z</time>
      </trkpt>
      <trkpt lat="48.7612" lon="8.17261">
        <ele>169.2</ele>
        <time>2020-07-25T15:06:46Z</time>
      </trkpt>
      <trkpt lat="48.76123" lon="8.1724">
        <ele>167.6</ele>
        <time>2020-07-25T15:06:48Z</time>
      </trkpt>
      <trkpt lat="48.76123" lon="8.17222">
        <ele>166.2</ele>
        <time>2020-07-25T15:06:50Z</time>
      </trkpt>
      <trkpt lat="48.76122" lon="8.17202">
        <ele>165.2</ele>
        <time>2020-07-25T15:06:52Z</time>
      </trkpt>
      <trkpt lat="48.76121" lon="8.17176">
        <ele>164</ele>
        <time>2020-07-25T15:06:54Z</time>
      </trkpt>
      <trkpt lat="48.7612" lon="8.17163">
        <ele>164</ele>
        <time>2020-07-25T15:06:55Z</time>
      </trkpt>
      <trkpt lat="48.76119" lon="8.17126">
        <ele>162.6</ele>
        <time>2020-07-25T15:06:58Z</time>
      </trkpt>
      <trkpt lat="48.76119" lon="8.17113">
        <ele>161.6</ele>
        <time>2020-07-25T15:06:59Z</time>
      </trkpt>
      <trkpt lat="48.76121" lon="8.17101">
        <ele>160.6</ele>
        <time>2020-07-25T15:07:00Z</time>
      </trkpt>
      <trkpt lat="48.76124" lon="8.17091">
        <ele>160</ele>
        <time>2020-07-25T15:07:01Z</time>
      </trkpt>
      <trkpt lat="48.76127" lon="8.17083">
        <ele>159.6</ele>
        <time>2020-07-25T15:07:02Z</time>
      </trkpt>
      <trkpt lat="48.76133" lon="8.17064">
        <ele>158</ele>
        <time>2020-07-25T15:07:04Z</time>
      </trkpt>
      <trkpt lat="48.76137" lon="8.17057">
        <ele>157.4</ele>
        <time>2020-07-25T15:07:05Z</time>
      </trkpt>
      <trkpt lat="48.76146" lon="8.17045">
        <ele>156</ele>
        <time>2020-07-25T15:07:07Z</time>
      </trkpt>
      <trkpt lat="48.76156" lon="8.1703">
        <ele>154.6</ele>
        <time>2020-07-25T15:07:09Z</time>
      </trkpt>
      <trkpt lat="48.76176" lon="8.16999">
        <ele>154</ele>
        <time>2020-07-25T15:07:13Z</time>
      </trkpt>
      <trkpt lat="48.76186" lon="8.16984">
        <ele>153.6</ele>
        <time>2020-07-25T15:07:15Z</time>
      </trkpt>
      <trkpt lat="48.76208" lon="8.16951">
        <ele>152</ele>
        <time>2020-07-25T15:07:19Z</time>
      </trkpt>
      <trkpt lat="48.76217" lon="8.16939">
        <ele>151</ele>
        <time>2020-07-25T15:07:21Z</time>
      </trkpt>
      <trkpt lat="48.76228" lon="8.16923">
        <ele>150</ele>
        <time>2020-07-25T15:07:23Z</time>
      </trkpt>
      <trkpt lat="48.76232" lon="8.16917">
        <ele>150</ele>
        <time>2020-07-25T15:07:24Z</time>
      </trkpt>
      <trkpt lat="48.76237" lon="8.1691">
        <ele>149.8</ele>
        <time>2020-07-25T15:07:25Z</time>
      </trkpt>
      <trkpt lat="48.76242" lon="8.16896">
        <ele>149.6</ele>
        <time>2020-07-25T15:07:27Z</time>
      </trkpt>
      <trkpt lat="48.76244" lon="8.1689">
        <ele>149.6</ele>
        <time>2020-07-25T15:07:28Z</time>
      </trkpt>
      <trkpt lat="48.76245" lon="8.16885">
        <ele>149.6</ele>
        <time>2020-07-25T15:07:29Z</time>
      </trkpt>
      <trkpt lat="48.76253" lon="8.16877">
        <ele>149.6</ele>
        <time>2020-07-25T15:07:31Z</time>
      </trkpt>
      <trkpt lat="48.76287" lon="8.16859">
        <ele>149.6</ele>
        <time>2020-07-25T15:07:38Z</time>
      </trkpt>
      <trkpt lat="48.76335" lon="8.16841">
        <ele>149.6</ele>
        <time>2020-07-25T15:07:47Z</time>
      </trkpt>
      <trkpt lat="48.76346" lon="8.16842">
        <ele>149.6</ele>
        <time>2020-07-25T15:07:49Z</time>
      </trkpt>
      <trkpt lat="48.76364" lon="8.16849">
        <ele>149.6</ele>
        <time>2020-07-25T15:07:52Z</time>
      </trkpt>
      <trkpt lat="48.76369" lon="8.16852">
        <ele>149.6</ele>
        <time>2020-07-25T15:07:53Z</time>
      </trkpt>
      <trkpt lat="48.76382" lon="8.16864">
        <ele>149.6</ele>
        <time>2020-07-25T15:07:56Z</time>
      </trkpt>
      <trkpt lat="48.76397" lon="8.16881">
        <ele>149.8</ele>
        <time>2020-07-25T15:08:02Z</time>
      </trkpt>
      <trkpt lat="48.764" lon="8.16885">
        <ele>150.2</ele>
        <time>2020-07-25T15:08:04Z</time>
      </trkpt>
      <trkpt lat="48.76406" lon="8.16894">
        <ele>150.8</ele>
        <time>2020-07-25T15:08:09Z</time>
      </trkpt>
      <trkpt lat="48.7641" lon="8.169">
        <ele>151.4</ele>
        <time>2020-07-25T15:08:13Z</time>
      </trkpt>
      <trkpt lat="48.76413" lon="8.16904">
        <ele>151.4</ele>
        <time>2020-07-25T15:08:16Z</time>
      </trkpt>
      <trkpt lat="48.76416" lon="8.16907">
        <ele>151.6</ele>
        <time>2020-07-25T15:08:19Z</time>
      </trkpt>
      <trkpt lat="48.76419" lon="8.16901">
        <ele>151.6</ele>
        <time>2020-07-25T15:08:21Z</time>
      </trkpt>
      <trkpt lat="48.76419" lon="8.16897">
        <ele>151.6</ele>
        <time>2020-07-25T15:08:22Z</time>
      </trkpt>
      <trkpt lat="48.76414" lon="8.16891">
        <ele>151.6</ele>
        <time>2020-07-25T15:08:24Z</time>
      </trkpt>
      <trkpt lat="48.76397" lon="8.16869">
        <ele>151.2</ele>
        <time>2020-07-25T15:08:30Z</time>
      </trkpt>
      <trkpt lat="48.76382" lon="8.16854">
        <ele>150.2</ele>
        <time>2020-07-25T15:08:34Z</time>
      </trkpt>
      <trkpt lat="48.76378" lon="8.16851">
        <ele>150.2</ele>
        <time>2020-07-25T15:08:35Z</time>
      </trkpt>
      <trkpt lat="48.76361" lon="8.1684">
        <ele>150</ele>
        <time>2020-07-25T15:08:39Z</time>
      </trkpt>
      <trkpt lat="48.76355" lon="8.16831">
        <ele>150</ele>
        <time>2020-07-25T15:08:41Z</time>
      </trkpt>
      <trkpt lat="48.76356" lon="8.16818">
        <ele>150</ele>
        <time>2020-07-25T15:08:43Z</time>
      </trkpt>
      <trkpt lat="48.76358" lon="8.16813">
        <ele>150</ele>
        <time>2020-07-25T15:08:44Z</time>
      </trkpt>
      <trkpt lat="48.76361" lon="8.16809">
        <ele>150</ele>
        <time>2020-07-25T15:08:45Z</time>
      </trkpt>
      <trkpt lat="48.76368" lon="8.16802">
        <ele>149.8</ele>
        <time>2020-07-25T15:08:47Z</time>
      </trkpt>
      <trkpt lat="48.76371" lon="8.16799">
        <ele>149.8</ele>
        <time>2020-07-25T15:08:48Z</time>
      </trkpt>
      <trkpt lat="48.76395" lon="8.16778">
        <ele>149.8</ele>
        <time>2020-07-25T15:08:55Z</time>
      </trkpt>
      <trkpt lat="48.76407" lon="8.16788">
        <ele>149.6</ele>
        <time>2020-07-25T15:09:00Z</time>
      </trkpt>
      <trkpt lat="48.76419" lon="8.16793">
        <ele>149.4</ele>
        <time>2020-07-25T15:09:03Z</time>
      </trkpt>
      <trkpt lat="48.76423" lon="8.16794">
        <ele>149.2</ele>
        <time>2020-07-25T15:09:04Z</time>
      </trkpt>
      <trkpt lat="48.76429" lon="8.16795">
        <ele>149.2</ele>
        <time>2020-07-25T15:09:05Z</time>
      </trkpt>
      <trkpt lat="48.76459" lon="8.168">
        <ele>149</ele>
        <time>2020-07-25T15:09:11Z</time>
      </trkpt>
      <trkpt lat="48.76498" lon="8.16812">
        <ele>148.8</ele>
        <time>2020-07-25T15:09:18Z</time>
      </trkpt>
      <trkpt lat="48.76536" lon="8.16825">
        <ele>148.6</ele>
        <time>2020-07-25T15:09:25Z</time>
      </trkpt>
      <trkpt lat="48.76564" lon="8.16843">
        <ele>148.6</ele>
        <time>2020-07-25T15:09:31Z</time>
      </trkpt>
      <trkpt lat="48.76599" lon="8.1687">
        <ele>149.6</ele>
        <time>2020-07-25T15:09:38Z</time>
      </trkpt>
      <trkpt lat="48.76629" lon="8.16896">
        <ele>150</ele>
        <time>2020-07-25T15:09:45Z</time>
      </trkpt>
      <trkpt lat="48.76643" lon="8.16905">
        <ele>150.8</ele>
        <time>2020-07-25T15:09:49Z</time>
      </trkpt>
      <trkpt lat="48.76646" lon="8.16906">
        <ele>150.8</ele>
        <time>2020-07-25T15:09:50Z</time>
      </trkpt>
      <trkpt lat="48.7665" lon="8.16908">
        <ele>150.8</ele>
        <time>2020-07-25T15:09:52Z</time>
      </trkpt>
      <trkpt lat="48.7665" lon="8.16906">
        <ele>150.8</ele>
        <time>2020-07-25T15:09:53Z</time>
      </trkpt>
      <trkpt lat="48.76647" lon="8.169">
        <ele>151</ele>
        <time>2020-07-25T15:09:55Z</time>
      </trkpt>
      <trkpt lat="48.76641" lon="8.16896">
        <ele>151</ele>
        <time>2020-07-25T15:09:57Z</time>
      </trkpt>
      <trkpt lat="48.76634" lon="8.16892">
        <ele>151</ele>
        <time>2020-07-25T15:09:59Z</time>
      </trkpt>
      <trkpt lat="48.7663" lon="8.16889">
        <ele>151</ele>
        <time>2020-07-25T15:10:00Z</time>
      </trkpt>
      <trkpt lat="48.76626" lon="8.16886">
        <ele>151</ele>
        <time>2020-07-25T15:10:01Z</time>
      </trkpt>
      <trkpt lat="48.76618" lon="8.16874">
        <ele>151</ele>
        <time>2020-07-25T15:10:04Z</time>
      </trkpt>
      <trkpt lat="48.76617" lon="8.16868">
        <ele>150.6</ele>
        <time>2020-07-25T15:10:05Z</time>
      </trkpt>
      <trkpt lat="48.76618" lon="8.16862">
        <ele>150.6</ele>
        <time>2020-07-25T15:10:06Z</time>
      </trkpt>
      <trkpt lat="48.76619" lon="8.1685">
        <ele>150.4</ele>
        <time>2020-07-25T15:10:08Z</time>
      </trkpt>
      <trkpt lat="48.76622" lon="8.16834">
        <ele>150.4</ele>
        <time>2020-07-25T15:10:10Z</time>
      </trkpt>
      <trkpt lat="48.76635" lon="8.16782">
        <ele>150.2</ele>
        <time>2020-07-25T15:10:17Z</time>
      </trkpt>
      <trkpt lat="48.76637" lon="8.16774">
        <ele>150</ele>
        <time>2020-07-25T15:10:18Z</time>
      </trkpt>
      <trkpt lat="48.76641" lon="8.16769">
        <ele>149.8</ele>
        <time>2020-07-25T15:10:19Z</time>
      </trkpt>
      <trkpt lat="48.76648" lon="8.1676">
        <ele>149.2</ele>
        <time>2020-07-25T15:10:21Z</time>
      </trkpt>
      <trkpt lat="48.7666" lon="8.16753">
        <ele>149</ele>
        <time>2020-07-25T15:10:24Z</time>
      </trkpt>
      <trkpt lat="48.7667" lon="8.16739">
        <ele>149</ele>
        <time>2020-07-25T15:10:28Z</time>
      </trkpt>
      <trkpt lat="48.76679" lon="8.16744">
        <ele>149</ele>
        <time>2020-07-25T15:10:32Z</time>
      </trkpt>
      <trkpt lat="48.76696" lon="8.16763">
        <ele>149</ele>
        <time>2020-07-25T15:10:37Z</time>
      </trkpt>
      <trkpt lat="48.76705" lon="8.16768">
        <ele>149</ele>
        <time>2020-07-25T15:10:39Z</time>
      </trkpt>
      <trkpt lat="48.76723" lon="8.16774">
        <ele>149</ele>
        <time>2020-07-25T15:10:42Z</time>
      </trkpt>
      <trkpt lat="48.76752" lon="8.16778">
        <ele>148.4</ele>
        <time>2020-07-25T15:10:47Z</time>
      </trkpt>
      <trkpt lat="48.76763" lon="8.16778">
        <ele>148</ele>
        <time>2020-07-25T15:10:49Z</time>
      </trkpt>
      <trkpt lat="48.76769" lon="8.16778">
        <ele>147.8</ele>
        <time>2020-07-25T15:10:50Z</time>
      </trkpt>
      <trkpt lat="48.76788" lon="8.16771">
        <ele>147.4</ele>
        <time>2020-07-25T15:10:53Z</time>
      </trkpt>
      <trkpt lat="48.76814" lon="8.16753">
        <ele>146.8</ele>
        <time>2020-07-25T15:10:57Z</time>
      </trkpt>
      <trkpt lat="48.76819" lon="8.16747">
        <ele>146.8</ele>
        <time>2020-07-25T15:10:58Z</time>
      </trkpt>
      <trkpt lat="48.76831" lon="8.16732">
        <ele>146.2</ele>
        <time>2020-07-25T15:11:00Z</time>
      </trkpt>
      <trkpt lat="48.76851" lon="8.1672">
        <ele>145.6</ele>
        <time>2020-07-25T15:11:03Z</time>
      </trkpt>
      <trkpt lat="48.76853" lon="8.16695">
        <ele>144.8</ele>
        <time>2020-07-25T15:11:05Z</time>
      </trkpt>
      <trkpt lat="48.76858" lon="8.16682">
        <ele>144.6</ele>
        <time>2020-07-25T15:11:06Z</time>
      </trkpt>
      <trkpt lat="48.76863" lon="8.16666">
        <ele>144.6</ele>
        <time>2020-07-25T15:11:08Z</time>
      </trkpt>
      <trkpt lat="48.7687" lon="8.16651">
        <ele>144.6</ele>
        <time>2020-07-25T15:11:10Z</time>
      </trkpt>
      <trkpt lat="48.76878" lon="8.16633">
        <ele>144.4</ele>
        <time>2020-07-25T15:11:13Z</time>
      </trkpt>
      <trkpt lat="48.76885" lon="8.16621">
        <ele>144.4</ele>
        <time>2020-07-25T15:11:15Z</time>
      </trkpt>
      <trkpt lat="48.76904" lon="8.16604">
        <ele>145</ele>
        <time>2020-07-25T15:11:19Z</time>
      </trkpt>
      <trkpt lat="48.76914" lon="8.16595">
        <ele>145.4</ele>
        <time>2020-07-25T15:11:21Z</time>
      </trkpt>
      <trkpt lat="48.76945" lon="8.16569">
        <ele>145.6</ele>
        <time>2020-07-25T15:11:27Z</time>
      </trkpt>
      <trkpt lat="48.76994" lon="8.1653">
        <ele>145.4</ele>
        <time>2020-07-25T15:11:36Z</time>
      </trkpt>
      <trkpt lat="48.77024" lon="8.16513">
        <ele>145.6</ele>
        <time>2020-07-25T15:11:42Z</time>
      </trkpt>
      <trkpt lat="48.77032" lon="8.16511">
        <ele>145.8</ele>
        <time>2020-07-25T15:11:44Z</time>
      </trkpt>
      <trkpt lat="48.77039" lon="8.16511">
        <ele>146</ele>
        <time>2020-07-25T15:11:46Z</time>
      </trkpt>
      <trkpt lat="48.77041" lon="8.1651">
        <ele>146</ele>
        <time>2020-07-25T15:11:47Z</time>
      </trkpt>
      <trkpt lat="48.77042" lon="8.1651">
        <ele>146.8</ele>
        <time>2020-07-25T15:11:50Z</time>
      </trkpt>
      <trkpt lat="48.77047" lon="8.16508">
        <ele>147.6</ele>
        <time>2020-07-25T15:12:21Z</time>
      </trkpt>
      <trkpt lat="48.77051" lon="8.16507">
        <ele>147.6</ele>
        <time>2020-07-25T15:12:23Z</time>
      </trkpt>
      <trkpt lat="48.77066" lon="8.165">
        <ele>147.4</ele>
        <time>2020-07-25T15:12:29Z</time>
      </trkpt>
      <trkpt lat="48.77081" lon="8.16491">
        <ele>147.4</ele>
        <time>2020-07-25T15:12:35Z</time>
      </trkpt>
      <trkpt lat="48.77087" lon="8.16492">
        <ele>147.6</ele>
        <time>2020-07-25T15:12:38Z</time>
      </trkpt>
      <trkpt lat="48.77087" lon="8.16492">
        <ele>147.6</ele>
        <time>2020-07-25T15:12:39Z</time>
      </trkpt>
      <trkpt lat="48.77087" lon="8.16492">
        <ele>147.8</ele>
        <time>2020-07-25T15:12:41Z</time>
      </trkpt>
      <trkpt lat="48.77091" lon="8.16487">
        <ele>148.8</ele>
        <time>2020-07-25T15:12:47Z</time>
      </trkpt>
      <trkpt lat="48.77094" lon="8.16484">
        <ele>148.8</ele>
        <time>2020-07-25T15:12:48Z</time>
      </trkpt>
      <trkpt lat="48.77099" lon="8.16477">
        <ele>148.8</ele>
        <time>2020-07-25T15:12:50Z</time>
      </trkpt>
      <trkpt lat="48.771" lon="8.16472">
        <ele>148.8</ele>
        <time>2020-07-25T15:12:51Z</time>
      </trkpt>
      <trkpt lat="48.77106" lon="8.16441">
        <ele>148.8</ele>
        <time>2020-07-25T15:12:56Z</time>
      </trkpt>
      <trkpt lat="48.7711" lon="8.16421">
        <ele>148.6</ele>
        <time>2020-07-25T15:12:59Z</time>
      </trkpt>
      <trkpt lat="48.77114" lon="8.164">
        <ele>148.4</ele>
        <time>2020-07-25T15:13:02Z</time>
      </trkpt>
      <trkpt lat="48.77126" lon="8.16347">
        <ele>147.8</ele>
        <time>2020-07-25T15:13:09Z</time>
      </trkpt>
      <trkpt lat="48.77128" lon="8.16339">
        <ele>148</ele>
        <time>2020-07-25T15:13:10Z</time>
      </trkpt>
      <trkpt lat="48.77136" lon="8.16307">
        <ele>147.8</ele>
        <time>2020-07-25T15:13:14Z</time>
      </trkpt>
      <trkpt lat="48.7714" lon="8.16282">
        <ele>148</ele>
        <time>2020-07-25T15:13:17Z</time>
      </trkpt>
      <trkpt lat="48.77149" lon="8.16226">
        <ele>147.6</ele>
        <time>2020-07-25T15:13:23Z</time>
      </trkpt>
      <trkpt lat="48.77157" lon="8.16172">
        <ele>146.6</ele>
        <time>2020-07-25T15:13:29Z</time>
      </trkpt>
      <trkpt lat="48.77158" lon="8.16163">
        <ele>146.4</ele>
        <time>2020-07-25T15:13:30Z</time>
      </trkpt>
      <trkpt lat="48.7717" lon="8.161">
        <ele>146.2</ele>
        <time>2020-07-25T15:13:37Z</time>
      </trkpt>
      <trkpt lat="48.77171" lon="8.16092">
        <ele>146.2</ele>
        <time>2020-07-25T15:13:38Z</time>
      </trkpt>
      <trkpt lat="48.77177" lon="8.16066">
        <ele>146.2</ele>
        <time>2020-07-25T15:13:41Z</time>
      </trkpt>
      <trkpt lat="48.77185" lon="8.16024">
        <ele>146</ele>
        <time>2020-07-25T15:13:46Z</time>
      </trkpt>
      <trkpt lat="48.77185" lon="8.16016">
        <ele>146</ele>
        <time>2020-07-25T15:13:47Z</time>
      </trkpt>
      <trkpt lat="48.77183" lon="8.16">
        <ele>146</ele>
        <time>2020-07-25T15:13:49Z</time>
      </trkpt>
      <trkpt lat="48.77189" lon="8.15983">
        <ele>146.2</ele>
        <time>2020-07-25T15:13:51Z</time>
      </trkpt>
      <trkpt lat="48.77192" lon="8.15975">
        <ele>146.2</ele>
        <time>2020-07-25T15:13:52Z</time>
      </trkpt>
      <trkpt lat="48.77198" lon="8.15952">
        <ele>145.8</ele>
        <time>2020-07-25T15:13:55Z</time>
      </trkpt>
      <trkpt lat="48.77205" lon="8.1593">
        <ele>146.2</ele>
        <time>2020-07-25T15:13:58Z</time>
      </trkpt>
      <trkpt lat="48.77211" lon="8.15917">
        <ele>146.2</ele>
        <time>2020-07-25T15:14:00Z</time>
      </trkpt>
      <trkpt lat="48.77214" lon="8.1591">
        <ele>146.2</ele>
        <time>2020-07-25T15:14:01Z</time>
      </trkpt>
      <trkpt lat="48.77226" lon="8.15872">
        <ele>146.4</ele>
        <time>2020-07-25T15:14:06Z</time>
      </trkpt>
      <trkpt lat="48.77228" lon="8.15864">
        <ele>146.4</ele>
        <time>2020-07-25T15:14:07Z</time>
      </trkpt>
      <trkpt lat="48.7723" lon="8.15838">
        <ele>146.6</ele>
        <time>2020-07-25T15:14:10Z</time>
      </trkpt>
      <trkpt lat="48.77237" lon="8.15797">
        <ele>146.6</ele>
        <time>2020-07-25T15:14:15Z</time>
      </trkpt>
      <trkpt lat="48.77237" lon="8.15782">
        <ele>146.6</ele>
        <time>2020-07-25T15:14:17Z</time>
      </trkpt>
      <trkpt lat="48.77234" lon="8.15698">
        <ele>147</ele>
        <time>2020-07-25T15:14:27Z</time>
      </trkpt>
      <trkpt lat="48.77242" lon="8.15639">
        <ele>147.4</ele>
        <time>2020-07-25T15:14:34Z</time>
      </trkpt>
      <trkpt lat="48.77257" lon="8.1558">
        <ele>147.6</ele>
        <time>2020-07-25T15:14:42Z</time>
      </trkpt>
      <trkpt lat="48.77267" lon="8.15552">
        <ele>147.8</ele>
        <time>2020-07-25T15:14:47Z</time>
      </trkpt>
      <trkpt lat="48.77272" lon="8.15536">
        <ele>148.2</ele>
        <time>2020-07-25T15:14:50Z</time>
      </trkpt>
      <trkpt lat="48.77278" lon="8.15516">
        <ele>148.4</ele>
        <time>2020-07-25T15:14:54Z</time>
      </trkpt>
      <trkpt lat="48.77286" lon="8.15493">
        <ele>148.4</ele>
        <time>2020-07-25T15:14:58Z</time>
      </trkpt>
      <trkpt lat="48.7729" lon="8.1548">
        <ele>148.4</ele>
        <time>2020-07-25T15:15:00Z</time>
      </trkpt>
      <trkpt lat="48.77304" lon="8.15434">
        <ele>148.2</ele>
        <time>2020-07-25T15:15:08Z</time>
      </trkpt>
      <trkpt lat="48.77305" lon="8.15431">
        <ele>148.2</ele>
        <time>2020-07-25T15:15:09Z</time>
      </trkpt>
      <trkpt lat="48.77312" lon="8.15423">
        <ele>148.2</ele>
        <time>2020-07-25T15:15:13Z</time>
      </trkpt>
      <trkpt lat="48.7733" lon="8.1542">
        <ele>148.2</ele>
        <time>2020-07-25T15:15:19Z</time>
      </trkpt>
      <trkpt lat="48.77349" lon="8.15434">
        <ele>148.2</ele>
        <time>2020-07-25T15:15:23Z</time>
      </trkpt>
      <trkpt lat="48.77377" lon="8.15464">
        <ele>148.2</ele>
        <time>2020-07-25T15:15:28Z</time>
      </trkpt>
      <trkpt lat="48.77394" lon="8.15483">
        <ele>147.2</ele>
        <time>2020-07-25T15:15:31Z</time>
      </trkpt>
      <trkpt lat="48.7741" lon="8.15502">
        <ele>146.2</ele>
        <time>2020-07-25T15:15:34Z</time>
      </trkpt>
      <trkpt lat="48.7742" lon="8.15514">
        <ele>146</ele>
        <time>2020-07-25T15:15:36Z</time>
      </trkpt>
      <trkpt lat="48.77467" lon="8.15569">
        <ele>145.8</ele>
        <time>2020-07-25T15:15:45Z</time>
      </trkpt>
      <trkpt lat="48.77489" lon="8.15592">
        <ele>146</ele>
        <time>2020-07-25T15:15:49Z</time>
      </trkpt>
      <trkpt lat="48.775" lon="8.15603">
        <ele>146</ele>
        <time>2020-07-25T15:15:51Z</time>
      </trkpt>
      <trkpt lat="48.77512" lon="8.15611">
        <ele>146</ele>
        <time>2020-07-25T15:15:53Z</time>
      </trkpt>
      <trkpt lat="48.77519" lon="8.15613">
        <ele>146</ele>
        <time>2020-07-25T15:15:54Z</time>
      </trkpt>
      <trkpt lat="48.77525" lon="8.15613">
        <ele>146</ele>
        <time>2020-07-25T15:15:55Z</time>
      </trkpt>
      <trkpt lat="48.77537" lon="8.15608">
        <ele>145.8</ele>
        <time>2020-07-25T15:15:57Z</time>
      </trkpt>
      <trkpt lat="48.77544" lon="8.15603">
        <ele>145.8</ele>
        <time>2020-07-25T15:15:58Z</time>
      </trkpt>
      <trkpt lat="48.77555" lon="8.1559">
        <ele>145.6</ele>
        <time>2020-07-25T15:16:00Z</time>
      </trkpt>
      <trkpt lat="48.77563" lon="8.15574">
        <ele>145.2</ele>
        <time>2020-07-25T15:16:02Z</time>
      </trkpt>
      <trkpt lat="48.77573" lon="8.15548">
        <ele>144.8</ele>
        <time>2020-07-25T15:16:05Z</time>
      </trkpt>
      <trkpt lat="48.77593" lon="8.15496">
        <ele>144.2</ele>
        <time>2020-07-25T15:16:11Z</time>
      </trkpt>
      <trkpt lat="48.77605" lon="8.15473">
        <ele>144.2</ele>
        <time>2020-07-25T15:16:14Z</time>
      </trkpt>
      <trkpt lat="48.77622" lon="8.15446">
        <ele>144.2</ele>
        <time>2020-07-25T15:16:18Z</time>
      </trkpt>
      <trkpt lat="48.77634" lon="8.15428">
        <ele>144.2</ele>
        <time>2020-07-25T15:16:21Z</time>
      </trkpt>
      <trkpt lat="48.77673" lon="8.15383">
        <ele>144.6</ele>
        <time>2020-07-25T15:16:29Z</time>
      </trkpt>
      <trkpt lat="48.77678" lon="8.15378">
        <ele>144.6</ele>
        <time>2020-07-25T15:16:30Z</time>
      </trkpt>
      <trkpt lat="48.77719" lon="8.1534">
        <ele>145</ele>
        <time>2020-07-25T15:16:38Z</time>
      </trkpt>
      <trkpt lat="48.77734" lon="8.15327">
        <ele>145.4</ele>
        <time>2020-07-25T15:16:41Z</time>
      </trkpt>
      <trkpt lat="48.77773" lon="8.15295">
        <ele>146</ele>
        <time>2020-07-25T15:16:49Z</time>
      </trkpt>
      <trkpt lat="48.7782" lon="8.15267">
        <ele>146.6</ele>
        <time>2020-07-25T15:16:58Z</time>
      </trkpt>
      <trkpt lat="48.77839" lon="8.15259">
        <ele>146.6</ele>
        <time>2020-07-25T15:17:01Z</time>
      </trkpt>
      <trkpt lat="48.77875" lon="8.15249">
        <ele>146.6</ele>
        <time>2020-07-25T15:17:07Z</time>
      </trkpt>
      <trkpt lat="48.77929" lon="8.15235">
        <ele>145.6</ele>
        <time>2020-07-25T15:17:15Z</time>
      </trkpt>
      <trkpt lat="48.77949" lon="8.1523">
        <ele>144.6</ele>
        <time>2020-07-25T15:17:18Z</time>
      </trkpt>
      <trkpt lat="48.77975" lon="8.15222">
        <ele>144</ele>
        <time>2020-07-25T15:17:22Z</time>
      </trkpt>
      <trkpt lat="48.78024" lon="8.15209">
        <ele>143.8</ele>
        <time>2020-07-25T15:17:30Z</time>
      </trkpt>
      <trkpt lat="48.78062" lon="8.15196">
        <ele>144.2</ele>
        <time>2020-07-25T15:17:36Z</time>
      </trkpt>
      <trkpt lat="48.78079" lon="8.15188">
        <ele>144.6</ele>
        <time>2020-07-25T15:17:39Z</time>
      </trkpt>
      <trkpt lat="48.78107" lon="8.15175">
        <ele>145</ele>
        <time>2020-07-25T15:17:44Z</time>
      </trkpt>
      <trkpt lat="48.78123" lon="8.15167">
        <ele>145.2</ele>
        <time>2020-07-25T15:17:47Z</time>
      </trkpt>
      <trkpt lat="48.78159" lon="8.15146">
        <ele>146</ele>
        <time>2020-07-25T15:17:54Z</time>
      </trkpt>
      <trkpt lat="48.78183" lon="8.1513">
        <ele>147</ele>
        <time>2020-07-25T15:17:59Z</time>
      </trkpt>
      <trkpt lat="48.78203" lon="8.15117">
        <ele>147.4</ele>
        <time>2020-07-25T15:18:03Z</time>
      </trkpt>
      <trkpt lat="48.78221" lon="8.15102">
        <ele>148</ele>
        <time>2020-07-25T15:18:07Z</time>
      </trkpt>
      <trkpt lat="48.78243" lon="8.15084">
        <ele>149.4</ele>
        <time>2020-07-25T15:18:12Z</time>
      </trkpt>
      <trkpt lat="48.78247" lon="8.15079">
        <ele>149.4</ele>
        <time>2020-07-25T15:18:13Z</time>
      </trkpt>
      <trkpt lat="48.78272" lon="8.15055">
        <ele>150.4</ele>
        <time>2020-07-25T15:18:19Z</time>
      </trkpt>
      <trkpt lat="48.7828" lon="8.15046">
        <ele>150.6</ele>
        <time>2020-07-25T15:18:21Z</time>
      </trkpt>
      <trkpt lat="48.78305" lon="8.1502">
        <ele>151.4</ele>
        <time>2020-07-25T15:18:27Z</time>
      </trkpt>
      <trkpt lat="48.78309" lon="8.15016">
        <ele>151.6</ele>
        <time>2020-07-25T15:18:28Z</time>
      </trkpt>
      <trkpt lat="48.78337" lon="8.14979">
        <ele>152.2</ele>
        <time>2020-07-25T15:18:35Z</time>
      </trkpt>
      <trkpt lat="48.78345" lon="8.14969">
        <ele>152.6</ele>
        <time>2020-07-25T15:18:37Z</time>
      </trkpt>
      <trkpt lat="48.78376" lon="8.14925">
        <ele>152.8</ele>
        <time>2020-07-25T15:18:44Z</time>
      </trkpt>
      <trkpt lat="48.78404" lon="8.14878">
        <ele>151.6</ele>
        <time>2020-07-25T15:18:51Z</time>
      </trkpt>
      <trkpt lat="48.78431" lon="8.14828">
        <ele>150.6</ele>
        <time>2020-07-25T15:18:58Z</time>
      </trkpt>
      <trkpt lat="48.78435" lon="8.14821">
        <ele>150.6</ele>
        <time>2020-07-25T15:18:59Z</time>
      </trkpt>
      <trkpt lat="48.78464" lon="8.14758">
        <ele>149.6</ele>
        <time>2020-07-25T15:19:07Z</time>
      </trkpt>
      <trkpt lat="48.78493" lon="8.14683">
        <ele>148.8</ele>
        <time>2020-07-25T15:19:16Z</time>
      </trkpt>
      <trkpt lat="48.78499" lon="8.14667">
        <ele>148.6</ele>
        <time>2020-07-25T15:19:18Z</time>
      </trkpt>
      <trkpt lat="48.78509" lon="8.14633">
        <ele>148.4</ele>
        <time>2020-07-25T15:19:22Z</time>
      </trkpt>
      <trkpt lat="48.78524" lon="8.14575">
        <ele>148.4</ele>
        <time>2020-07-25T15:19:29Z</time>
      </trkpt>
      <trkpt lat="48.78537" lon="8.14506">
        <ele>148.4</ele>
        <time>2020-07-25T15:19:37Z</time>
      </trkpt>
      <trkpt lat="48.78543" lon="8.14452">
        <ele>148.6</ele>
        <time>2020-07-25T15:19:43Z</time>
      </trkpt>
      <trkpt lat="48.78548" lon="8.14399">
        <ele>148.4</ele>
        <time>2020-07-25T15:19:49Z</time>
      </trkpt>
      <trkpt lat="48.78549" lon="8.14387">
        <ele>148.4</ele>
        <time>2020-07-25T15:19:50Z</time>
      </trkpt>
      <trkpt lat="48.78551" lon="8.14371">
        <ele>148.4</ele>
        <time>2020-07-25T15:19:52Z</time>
      </trkpt>
      <trkpt lat="48.78552" lon="8.14352">
        <ele>148.6</ele>
        <time>2020-07-25T15:19:54Z</time>
      </trkpt>
      <trkpt lat="48.78561" lon="8.14284">
        <ele>148</ele>
        <time>2020-07-25T15:20:01Z</time>
      </trkpt>
      <trkpt lat="48.78562" lon="8.14275">
        <ele>148</ele>
        <time>2020-07-25T15:20:02Z</time>
      </trkpt>
      <trkpt lat="48.78565" lon="8.14257">
        <ele>147.6</ele>
        <time>2020-07-25T15:20:04Z</time>
      </trkpt>
      <trkpt lat="48.7857" lon="8.1423">
        <ele>147.4</ele>
        <time>2020-07-25T15:20:07Z</time>
      </trkpt>
      <trkpt lat="48.78572" lon="8.14222">
        <ele>147.4</ele>
        <time>2020-07-25T15:20:08Z</time>
      </trkpt>
      <trkpt lat="48.78582" lon="8.14178">
        <ele>147.2</ele>
        <time>2020-07-25T15:20:13Z</time>
      </trkpt>
      <trkpt lat="48.78598" lon="8.14116">
        <ele>146.6</ele>
        <time>2020-07-25T15:20:20Z</time>
      </trkpt>
      <trkpt lat="48.78619" lon="8.14054">
        <ele>146.6</ele>
        <time>2020-07-25T15:20:27Z</time>
      </trkpt>
      <trkpt lat="48.7864" lon="8.13986">
        <ele>146.6</ele>
        <time>2020-07-25T15:20:35Z</time>
      </trkpt>
      <trkpt lat="48.78652" lon="8.13953">
        <ele>146.6</ele>
        <time>2020-07-25T15:20:39Z</time>
      </trkpt>
      <trkpt lat="48.78657" lon="8.13938">
        <ele>146.4</ele>
        <time>2020-07-25T15:20:41Z</time>
      </trkpt>
      <trkpt lat="48.78678" lon="8.13877">
        <ele>146.4</ele>
        <time>2020-07-25T15:20:48Z</time>
      </trkpt>
      <trkpt lat="48.78699" lon="8.1382">
        <ele>146.2</ele>
        <time>2020-07-25T15:20:55Z</time>
      </trkpt>
      <trkpt lat="48.78706" lon="8.13803">
        <ele>146</ele>
        <time>2020-07-25T15:20:57Z</time>
      </trkpt>
      <trkpt lat="48.78713" lon="8.13786">
        <ele>145.8</ele>
        <time>2020-07-25T15:20:59Z</time>
      </trkpt>
      <trkpt lat="48.78719" lon="8.1377">
        <ele>145.8</ele>
        <time>2020-07-25T15:21:01Z</time>
      </trkpt>
      <trkpt lat="48.78721" lon="8.13762">
        <ele>145.6</ele>
        <time>2020-07-25T15:21:02Z</time>
      </trkpt>
      <trkpt lat="48.78735" lon="8.13732">
        <ele>145.2</ele>
        <time>2020-07-25T15:21:06Z</time>
      </trkpt>
      <trkpt lat="48.78756" lon="8.1369">
        <ele>145.2</ele>
        <time>2020-07-25T15:21:12Z</time>
      </trkpt>
      <trkpt lat="48.7876" lon="8.13683">
        <ele>145.2</ele>
        <time>2020-07-25T15:21:13Z</time>
      </trkpt>
      <trkpt lat="48.78784" lon="8.13641">
        <ele>145.6</ele>
        <time>2020-07-25T15:21:19Z</time>
      </trkpt>
      <trkpt lat="48.78787" lon="8.13633">
        <ele>145.6</ele>
        <time>2020-07-25T15:21:20Z</time>
      </trkpt>
      <trkpt lat="48.7881" lon="8.13579">
        <ele>145.8</ele>
        <time>2020-07-25T15:21:27Z</time>
      </trkpt>
      <trkpt lat="48.78812" lon="8.13548">
        <ele>145.8</ele>
        <time>2020-07-25T15:21:31Z</time>
      </trkpt>
      <trkpt lat="48.78813" lon="8.13541">
        <ele>145.8</ele>
        <time>2020-07-25T15:21:32Z</time>
      </trkpt>
      <trkpt lat="48.7882" lon="8.13525">
        <ele>145.8</ele>
        <time>2020-07-25T15:21:35Z</time>
      </trkpt>
      <trkpt lat="48.78822" lon="8.1352">
        <ele>145.8</ele>
        <time>2020-07-25T15:21:36Z</time>
      </trkpt>
      <trkpt lat="48.78825" lon="8.135">
        <ele>145.8</ele>
        <time>2020-07-25T15:21:39Z</time>
      </trkpt>
      <trkpt lat="48.78827" lon="8.13487">
        <ele>145.6</ele>
        <time>2020-07-25T15:21:41Z</time>
      </trkpt>
      <trkpt lat="48.7883" lon="8.13469">
        <ele>145.6</ele>
        <time>2020-07-25T15:21:44Z</time>
      </trkpt>
      <trkpt lat="48.78832" lon="8.1343">
        <ele>145.6</ele>
        <time>2020-07-25T15:21:49Z</time>
      </trkpt>
      <trkpt lat="48.78829" lon="8.13377">
        <ele>145.6</ele>
        <time>2020-07-25T15:21:55Z</time>
      </trkpt>
      <trkpt lat="48.78821" lon="8.13307">
        <ele>145.2</ele>
        <time>2020-07-25T15:22:03Z</time>
      </trkpt>
      <trkpt lat="48.78821" lon="8.13298">
        <ele>145.2</ele>
        <time>2020-07-25T15:22:04Z</time>
      </trkpt>
      <trkpt lat="48.78819" lon="8.13281">
        <ele>145</ele>
        <time>2020-07-25T15:22:06Z</time>
      </trkpt>
      <trkpt lat="48.78817" lon="8.13254">
        <ele>144.8</ele>
        <time>2020-07-25T15:22:09Z</time>
      </trkpt>
      <trkpt lat="48.78814" lon="8.13195">
        <ele>144.6</ele>
        <time>2020-07-25T15:22:15Z</time>
      </trkpt>
      <trkpt lat="48.78813" lon="8.13188">
        <ele>144.6</ele>
        <time>2020-07-25T15:22:16Z</time>
      </trkpt>
      <trkpt lat="48.78808" lon="8.13109">
        <ele>144.2</ele>
        <time>2020-07-25T15:22:24Z</time>
      </trkpt>
      <trkpt lat="48.78808" lon="8.131">
        <ele>144.2</ele>
        <time>2020-07-25T15:22:25Z</time>
      </trkpt>
      <trkpt lat="48.78807" lon="8.13082">
        <ele>144.2</ele>
        <time>2020-07-25T15:22:27Z</time>
      </trkpt>
      <trkpt lat="48.78806" lon="8.13055">
        <ele>144.2</ele>
        <time>2020-07-25T15:22:30Z</time>
      </trkpt>
      <trkpt lat="48.78804" lon="8.13019">
        <ele>144.2</ele>
        <time>2020-07-25T15:22:34Z</time>
      </trkpt>
      <trkpt lat="48.78803" lon="8.12991">
        <ele>144.6</ele>
        <time>2020-07-25T15:22:37Z</time>
      </trkpt>
      <trkpt lat="48.78803" lon="8.12926">
        <ele>145</ele>
        <time>2020-07-25T15:22:44Z</time>
      </trkpt>
      <trkpt lat="48.788" lon="8.12844">
        <ele>145</ele>
        <time>2020-07-25T15:22:53Z</time>
      </trkpt>
      <trkpt lat="48.78799" lon="8.12836">
        <ele>145</ele>
        <time>2020-07-25T15:22:54Z</time>
      </trkpt>
      <trkpt lat="48.78796" lon="8.12816">
        <ele>145</ele>
        <time>2020-07-25T15:22:56Z</time>
      </trkpt>
      <trkpt lat="48.78792" lon="8.12789">
        <ele>145.2</ele>
        <time>2020-07-25T15:22:59Z</time>
      </trkpt>
      <trkpt lat="48.78781" lon="8.12719">
        <ele>145</ele>
        <time>2020-07-25T15:23:07Z</time>
      </trkpt>
      <trkpt lat="48.78767" lon="8.12637">
        <ele>144.8</ele>
        <time>2020-07-25T15:23:16Z</time>
      </trkpt>
      <trkpt lat="48.78764" lon="8.12618">
        <ele>144.8</ele>
        <time>2020-07-25T15:23:18Z</time>
      </trkpt>
      <trkpt lat="48.78755" lon="8.12541">
        <ele>144.8</ele>
        <time>2020-07-25T15:23:27Z</time>
      </trkpt>
      <trkpt lat="48.78752" lon="8.12507">
        <ele>145.4</ele>
        <time>2020-07-25T15:23:32Z</time>
      </trkpt>
      <trkpt lat="48.78752" lon="8.12504">
        <ele>145.6</ele>
        <time>2020-07-25T15:23:33Z</time>
      </trkpt>
      <trkpt lat="48.78752" lon="8.12503">
        <ele>145.8</ele>
        <time>2020-07-25T15:23:34Z</time>
      </trkpt>
      <trkpt lat="48.78752" lon="8.12503">
        <ele>146</ele>
        <time>2020-07-25T15:23:35Z</time>
      </trkpt>
      <trkpt lat="48.78752" lon="8.12503">
        <ele>146</ele>
        <time>2020-07-25T15:23:36Z</time>
      </trkpt>
      <trkpt lat="48.78751" lon="8.12513">
        <ele>146.6</ele>
        <time>2020-07-25T15:23:42Z</time>
      </trkpt>
      <trkpt lat="48.78751" lon="8.12522">
        <ele>146.6</ele>
        <time>2020-07-25T15:23:44Z</time>
      </trkpt>
      <trkpt lat="48.78753" lon="8.12549">
        <ele>146.6</ele>
        <time>2020-07-25T15:23:49Z</time>
      </trkpt>
      <trkpt lat="48.78754" lon="8.12566">
        <ele>146.6</ele>
        <time>2020-07-25T15:23:52Z</time>
      </trkpt>
      <trkpt lat="48.78752" lon="8.12569">
        <ele>146.6</ele>
        <time>2020-07-25T15:23:53Z</time>
      </trkpt>
      <trkpt lat="48.78732" lon="8.1258">
        <ele>146.8</ele>
        <time>2020-07-25T15:24:00Z</time>
      </trkpt>
      <trkpt lat="48.78727" lon="8.12583">
        <ele>146.8</ele>
        <time>2020-07-25T15:24:02Z</time>
      </trkpt>
      <trkpt lat="48.78723" lon="8.12586">
        <ele>146.8</ele>
        <time>2020-07-25T15:24:05Z</time>
      </trkpt>
      <trkpt lat="48.78723" lon="8.12586">
        <ele>147</ele>
        <time>2020-07-25T15:24:07Z</time>
      </trkpt>
      <trkpt lat="48.78741" lon="8.12581">
        <ele>150.6</ele>
        <time>2020-07-25T16:02:20Z</time>
      </trkpt>
      <trkpt lat="48.78742" lon="8.1258">
        <ele>150.6</ele>
        <time>2020-07-25T16:02:21Z</time>
      </trkpt>
      <trkpt lat="48.78749" lon="8.12573">
        <ele>150.4</ele>
        <time>2020-07-25T16:02:26Z</time>
      </trkpt>
      <trkpt lat="48.7875" lon="8.1257">
        <ele>150.4</ele>
        <time>2020-07-25T16:02:27Z</time>
      </trkpt>
      <trkpt lat="48.7875" lon="8.12551">
        <ele>150.2</ele>
        <time>2020-07-25T16:02:32Z</time>
      </trkpt>
      <trkpt lat="48.7875" lon="8.12523">
        <ele>150.2</ele>
        <time>2020-07-25T16:02:37Z</time>
      </trkpt>
      <trkpt lat="48.7875" lon="8.12516">
        <ele>150.2</ele>
        <time>2020-07-25T16:02:38Z</time>
      </trkpt>
      <trkpt lat="48.7875" lon="8.12485">
        <ele>150</ele>
        <time>2020-07-25T16:02:43Z</time>
      </trkpt>
      <trkpt lat="48.78751" lon="8.12466">
        <ele>150</ele>
        <time>2020-07-25T16:02:46Z</time>
      </trkpt>
      <trkpt lat="48.78752" lon="8.12448">
        <ele>150</ele>
        <time>2020-07-25T16:02:49Z</time>
      </trkpt>
      <trkpt lat="48.78753" lon="8.12441">
        <ele>150</ele>
        <time>2020-07-25T16:02:50Z</time>
      </trkpt>
      <trkpt lat="48.78754" lon="8.12421">
        <ele>150</ele>
        <time>2020-07-25T16:02:53Z</time>
      </trkpt>
      <trkpt lat="48.78756" lon="8.12401">
        <ele>150.2</ele>
        <time>2020-07-25T16:02:56Z</time>
      </trkpt>
      <trkpt lat="48.78763" lon="8.12353">
        <ele>150.2</ele>
        <time>2020-07-25T16:03:03Z</time>
      </trkpt>
      <trkpt lat="48.78764" lon="8.12346">
        <ele>150.2</ele>
        <time>2020-07-25T16:03:04Z</time>
      </trkpt>
      <trkpt lat="48.78764" lon="8.12319">
        <ele>150.2</ele>
        <time>2020-07-25T16:03:08Z</time>
      </trkpt>
      <trkpt lat="48.78764" lon="8.12311">
        <ele>150.2</ele>
        <time>2020-07-25T16:03:09Z</time>
      </trkpt>
      <trkpt lat="48.78763" lon="8.12296">
        <ele>150.2</ele>
        <time>2020-07-25T16:03:11Z</time>
      </trkpt>
      <trkpt lat="48.78766" lon="8.12281">
        <ele>150.2</ele>
        <time>2020-07-25T16:03:13Z</time>
      </trkpt>
      <trkpt lat="48.78775" lon="8.12263">
        <ele>150.2</ele>
        <time>2020-07-25T16:03:16Z</time>
      </trkpt>
      <trkpt lat="48.78787" lon="8.12239">
        <ele>150</ele>
        <time>2020-07-25T16:03:20Z</time>
      </trkpt>
      <trkpt lat="48.788" lon="8.12214">
        <ele>149.8</ele>
        <time>2020-07-25T16:03:24Z</time>
      </trkpt>
      <trkpt lat="48.78807" lon="8.12203">
        <ele>149.8</ele>
        <time>2020-07-25T16:03:26Z</time>
      </trkpt>
      <trkpt lat="48.78811" lon="8.12198">
        <ele>149.8</ele>
        <time>2020-07-25T16:03:27Z</time>
      </trkpt>
      <trkpt lat="48.78814" lon="8.12192">
        <ele>149.8</ele>
        <time>2020-07-25T16:03:28Z</time>
      </trkpt>
      <trkpt lat="48.78818" lon="8.12187">
        <ele>149.8</ele>
        <time>2020-07-25T16:03:29Z</time>
      </trkpt>
      <trkpt lat="48.78825" lon="8.1218">
        <ele>149.8</ele>
        <time>2020-07-25T16:03:31Z</time>
      </trkpt>
      <trkpt lat="48.7883" lon="8.12177">
        <ele>149.8</ele>
        <time>2020-07-25T16:03:32Z</time>
      </trkpt>
      <trkpt lat="48.78835" lon="8.12174">
        <ele>149.8</ele>
        <time>2020-07-25T16:03:33Z</time>
      </trkpt>
      <trkpt lat="48.78844" lon="8.12166">
        <ele>149.8</ele>
        <time>2020-07-25T16:03:35Z</time>
      </trkpt>
      <trkpt lat="48.78851" lon="8.12154">
        <ele>149.8</ele>
        <time>2020-07-25T16:03:37Z</time>
      </trkpt>
      <trkpt lat="48.78854" lon="8.12132">
        <ele>149.8</ele>
        <time>2020-07-25T16:03:40Z</time>
      </trkpt>
      <trkpt lat="48.78872" lon="8.12105">
        <ele>149.6</ele>
        <time>2020-07-25T16:03:45Z</time>
      </trkpt>
      <trkpt lat="48.78882" lon="8.12099">
        <ele>149.4</ele>
        <time>2020-07-25T16:03:47Z</time>
      </trkpt>
      <trkpt lat="48.78891" lon="8.12089">
        <ele>149.4</ele>
        <time>2020-07-25T16:03:49Z</time>
      </trkpt>
      <trkpt lat="48.78895" lon="8.12083">
        <ele>149.2</ele>
        <time>2020-07-25T16:03:50Z</time>
      </trkpt>
      <trkpt lat="48.78909" lon="8.12059">
        <ele>149.2</ele>
        <time>2020-07-25T16:03:54Z</time>
      </trkpt>
      <trkpt lat="48.78912" lon="8.12052">
        <ele>149.2</ele>
        <time>2020-07-25T16:03:55Z</time>
      </trkpt>
      <trkpt lat="48.78947" lon="8.11998">
        <ele>149</ele>
        <time>2020-07-25T16:04:04Z</time>
      </trkpt>
      <trkpt lat="48.78984" lon="8.11961">
        <ele>149</ele>
        <time>2020-07-25T16:04:12Z</time>
      </trkpt>
      <trkpt lat="48.79025" lon="8.11932">
        <ele>149.2</ele>
        <time>2020-07-25T16:04:20Z</time>
      </trkpt>
      <trkpt lat="48.79073" lon="8.11904">
        <ele>149.2</ele>
        <time>2020-07-25T16:04:29Z</time>
      </trkpt>
      <trkpt lat="48.79078" lon="8.119">
        <ele>149.2</ele>
        <time>2020-07-25T16:04:30Z</time>
      </trkpt>
      <trkpt lat="48.79127" lon="8.11869">
        <ele>149</ele>
        <time>2020-07-25T16:04:39Z</time>
      </trkpt>
      <trkpt lat="48.79166" lon="8.11833">
        <ele>148.8</ele>
        <time>2020-07-25T16:04:47Z</time>
      </trkpt>
      <trkpt lat="48.79203" lon="8.11795">
        <ele>148.6</ele>
        <time>2020-07-25T16:04:55Z</time>
      </trkpt>
      <trkpt lat="48.79211" lon="8.11786">
        <ele>148.6</ele>
        <time>2020-07-25T16:04:57Z</time>
      </trkpt>
      <trkpt lat="48.79216" lon="8.11781">
        <ele>148.6</ele>
        <time>2020-07-25T16:04:58Z</time>
      </trkpt>
      <trkpt lat="48.79233" lon="8.11764">
        <ele>148.6</ele>
        <time>2020-07-25T16:05:02Z</time>
      </trkpt>
      <trkpt lat="48.79244" lon="8.11754">
        <ele>148.6</ele>
        <time>2020-07-25T16:05:06Z</time>
      </trkpt>
      <trkpt lat="48.79246" lon="8.11751">
        <ele>148.8</ele>
        <time>2020-07-25T16:05:10Z</time>
      </trkpt>
      <trkpt lat="48.79246" lon="8.11751">
        <ele>149</ele>
        <time>2020-07-25T16:05:11Z</time>
      </trkpt>
      <trkpt lat="48.79247" lon="8.1175">
        <ele>149.4</ele>
        <time>2020-07-25T16:05:29Z</time>
      </trkpt>
      <trkpt lat="48.79253" lon="8.11744">
        <ele>149.4</ele>
        <time>2020-07-25T16:05:32Z</time>
      </trkpt>
      <trkpt lat="48.7927" lon="8.11725">
        <ele>149.4</ele>
        <time>2020-07-25T16:05:38Z</time>
      </trkpt>
      <trkpt lat="48.79294" lon="8.11697">
        <ele>149</ele>
        <time>2020-07-25T16:05:45Z</time>
      </trkpt>
      <trkpt lat="48.79317" lon="8.11672">
        <ele>148.8</ele>
        <time>2020-07-25T16:05:51Z</time>
      </trkpt>
      <trkpt lat="48.79325" lon="8.11661">
        <ele>148.8</ele>
        <time>2020-07-25T16:05:53Z</time>
      </trkpt>
      <trkpt lat="48.79328" lon="8.11657">
        <ele>148.8</ele>
        <time>2020-07-25T16:05:54Z</time>
      </trkpt>
      <trkpt lat="48.79335" lon="8.11647">
        <ele>148.6</ele>
        <time>2020-07-25T16:05:56Z</time>
      </trkpt>
      <trkpt lat="48.79337" lon="8.11642">
        <ele>148.6</ele>
        <time>2020-07-25T16:05:57Z</time>
      </trkpt>
      <trkpt lat="48.79341" lon="8.11639">
        <ele>148.6</ele>
        <time>2020-07-25T16:05:58Z</time>
      </trkpt>
      <trkpt lat="48.79349" lon="8.11635">
        <ele>148.6</ele>
        <time>2020-07-25T16:06:00Z</time>
      </trkpt>
      <trkpt lat="48.79377" lon="8.11606">
        <ele>148.6</ele>
        <time>2020-07-25T16:06:07Z</time>
      </trkpt>
      <trkpt lat="48.79405" lon="8.11573">
        <ele>148.6</ele>
        <time>2020-07-25T16:06:14Z</time>
      </trkpt>
      <trkpt lat="48.79422" lon="8.11555">
        <ele>148.8</ele>
        <time>2020-07-25T16:06:18Z</time>
      </trkpt>
      <trkpt lat="48.79434" lon="8.1154">
        <ele>148.8</ele>
        <time>2020-07-25T16:06:21Z</time>
      </trkpt>
      <trkpt lat="48.7947" lon="8.11503">
        <ele>149</ele>
        <time>2020-07-25T16:06:30Z</time>
      </trkpt>
      <trkpt lat="48.79493" lon="8.11491">
        <ele>149.2</ele>
        <time>2020-07-25T16:06:35Z</time>
      </trkpt>
      <trkpt lat="48.79523" lon="8.11458">
        <ele>149.4</ele>
        <time>2020-07-25T16:06:42Z</time>
      </trkpt>
      <trkpt lat="48.79532" lon="8.11449">
        <ele>149.4</ele>
        <time>2020-07-25T16:06:44Z</time>
      </trkpt>
      <trkpt lat="48.79544" lon="8.11448">
        <ele>149.6</ele>
        <time>2020-07-25T16:06:46Z</time>
      </trkpt>
      <trkpt lat="48.79554" lon="8.11442">
        <ele>149.6</ele>
        <time>2020-07-25T16:06:48Z</time>
      </trkpt>
      <trkpt lat="48.79557" lon="8.1144">
        <ele>149.6</ele>
        <time>2020-07-25T16:06:49Z</time>
      </trkpt>
      <trkpt lat="48.79581" lon="8.11425">
        <ele>149.4</ele>
        <time>2020-07-25T16:06:54Z</time>
      </trkpt>
      <trkpt lat="48.79586" lon="8.11425">
        <ele>149.4</ele>
        <time>2020-07-25T16:06:55Z</time>
      </trkpt>
      <trkpt lat="48.79597" lon="8.11423">
        <ele>149.4</ele>
        <time>2020-07-25T16:06:57Z</time>
      </trkpt>
      <trkpt lat="48.79605" lon="8.11416">
        <ele>149.4</ele>
        <time>2020-07-25T16:06:59Z</time>
      </trkpt>
      <trkpt lat="48.79608" lon="8.11402">
        <ele>149.4</ele>
        <time>2020-07-25T16:07:01Z</time>
      </trkpt>
      <trkpt lat="48.79609" lon="8.11394">
        <ele>149.2</ele>
        <time>2020-07-25T16:07:02Z</time>
      </trkpt>
      <trkpt lat="48.79614" lon="8.11354">
        <ele>149</ele>
        <time>2020-07-25T16:07:08Z</time>
      </trkpt>
      <trkpt lat="48.79626" lon="8.11334">
        <ele>148.8</ele>
        <time>2020-07-25T16:07:12Z</time>
      </trkpt>
      <trkpt lat="48.79629" lon="8.1133">
        <ele>148.8</ele>
        <time>2020-07-25T16:07:13Z</time>
      </trkpt>
      <trkpt lat="48.79659" lon="8.11286">
        <ele>148.8</ele>
        <time>2020-07-25T16:07:21Z</time>
      </trkpt>
      <trkpt lat="48.79691" lon="8.11241">
        <ele>149</ele>
        <time>2020-07-25T16:07:29Z</time>
      </trkpt>
      <trkpt lat="48.79712" lon="8.11215">
        <ele>149.2</ele>
        <time>2020-07-25T16:07:35Z</time>
      </trkpt>
      <trkpt lat="48.79728" lon="8.11193">
        <ele>149.6</ele>
        <time>2020-07-25T16:07:41Z</time>
      </trkpt>
      <trkpt lat="48.79742" lon="8.11173">
        <ele>149.6</ele>
        <time>2020-07-25T16:07:46Z</time>
      </trkpt>
      <trkpt lat="48.79772" lon="8.11129">
        <ele>149.6</ele>
        <time>2020-07-25T16:07:54Z</time>
      </trkpt>
      <trkpt lat="48.79787" lon="8.11106">
        <ele>149.4</ele>
        <time>2020-07-25T16:07:58Z</time>
      </trkpt>
      <trkpt lat="48.79795" lon="8.11095">
        <ele>149.2</ele>
        <time>2020-07-25T16:08:00Z</time>
      </trkpt>
      <trkpt lat="48.79827" lon="8.11046">
        <ele>149</ele>
        <time>2020-07-25T16:08:08Z</time>
      </trkpt>
      <trkpt lat="48.79831" lon="8.1104">
        <ele>148.8</ele>
        <time>2020-07-25T16:08:09Z</time>
      </trkpt>
      <trkpt lat="48.79863" lon="8.1099">
        <ele>148.4</ele>
        <time>2020-07-25T16:08:17Z</time>
      </trkpt>
      <trkpt lat="48.79867" lon="8.10983">
        <ele>148.4</ele>
        <time>2020-07-25T16:08:18Z</time>
      </trkpt>
      <trkpt lat="48.79901" lon="8.10923">
        <ele>148.4</ele>
        <time>2020-07-25T16:08:27Z</time>
      </trkpt>
      <trkpt lat="48.79935" lon="8.10862">
        <ele>148.4</ele>
        <time>2020-07-25T16:08:36Z</time>
      </trkpt>
      <trkpt lat="48.79973" lon="8.10796">
        <ele>148.6</ele>
        <time>2020-07-25T16:08:46Z</time>
      </trkpt>
      <trkpt lat="48.80003" lon="8.10745">
        <ele>148.6</ele>
        <time>2020-07-25T16:08:54Z</time>
      </trkpt>
      <trkpt lat="48.80032" lon="8.10692">
        <ele>149</ele>
        <time>2020-07-25T16:09:02Z</time>
      </trkpt>
      <trkpt lat="48.80058" lon="8.10647">
        <ele>149</ele>
        <time>2020-07-25T16:09:09Z</time>
      </trkpt>
      <trkpt lat="48.80062" lon="8.10643">
        <ele>149</ele>
        <time>2020-07-25T16:09:10Z</time>
      </trkpt>
      <trkpt lat="48.8007" lon="8.10636">
        <ele>149</ele>
        <time>2020-07-25T16:09:12Z</time>
      </trkpt>
      <trkpt lat="48.80072" lon="8.10633">
        <ele>149</ele>
        <time>2020-07-25T16:09:14Z</time>
      </trkpt>
      <trkpt lat="48.80072" lon="8.10633">
        <ele>149</ele>
        <time>2020-07-25T16:09:16Z</time>
      </trkpt>
      <trkpt lat="48.80074" lon="8.1063">
        <ele>149.8</ele>
        <time>2020-07-25T16:10:31Z</time>
      </trkpt>
      <trkpt lat="48.80076" lon="8.10627">
        <ele>149.6</ele>
        <time>2020-07-25T16:10:32Z</time>
      </trkpt>
      <trkpt lat="48.80093" lon="8.10607">
        <ele>149.4</ele>
        <time>2020-07-25T16:10:37Z</time>
      </trkpt>
      <trkpt lat="48.80108" lon="8.1059">
        <ele>148.8</ele>
        <time>2020-07-25T16:10:41Z</time>
      </trkpt>
      <trkpt lat="48.80112" lon="8.10585">
        <ele>148.4</ele>
        <time>2020-07-25T16:10:42Z</time>
      </trkpt>
      <trkpt lat="48.80116" lon="8.10579">
        <ele>148.2</ele>
        <time>2020-07-25T16:10:43Z</time>
      </trkpt>
      <trkpt lat="48.80138" lon="8.10553">
        <ele>147</ele>
        <time>2020-07-25T16:10:48Z</time>
      </trkpt>
      <trkpt lat="48.80143" lon="8.10547">
        <ele>146.6</ele>
        <time>2020-07-25T16:10:49Z</time>
      </trkpt>
      <trkpt lat="48.80153" lon="8.10536">
        <ele>145.8</ele>
        <time>2020-07-25T16:10:51Z</time>
      </trkpt>
      <trkpt lat="48.80158" lon="8.10532">
        <ele>145.6</ele>
        <time>2020-07-25T16:10:52Z</time>
      </trkpt>
      <trkpt lat="48.80169" lon="8.10525">
        <ele>145.2</ele>
        <time>2020-07-25T16:10:54Z</time>
      </trkpt>
      <trkpt lat="48.80175" lon="8.10523">
        <ele>145</ele>
        <time>2020-07-25T16:10:55Z</time>
      </trkpt>
      <trkpt lat="48.80193" lon="8.10518">
        <ele>144.8</ele>
        <time>2020-07-25T16:10:58Z</time>
      </trkpt>
      <trkpt lat="48.80223" lon="8.10511">
        <ele>144.2</ele>
        <time>2020-07-25T16:11:03Z</time>
      </trkpt>
      <trkpt lat="48.80272" lon="8.10498">
        <ele>144</ele>
        <time>2020-07-25T16:11:11Z</time>
      </trkpt>
      <trkpt lat="48.80313" lon="8.10479">
        <ele>144</ele>
        <time>2020-07-25T16:11:18Z</time>
      </trkpt>
      <trkpt lat="48.80368" lon="8.1045">
        <ele>144.2</ele>
        <time>2020-07-25T16:11:28Z</time>
      </trkpt>
      <trkpt lat="48.80407" lon="8.10428">
        <ele>145</ele>
        <time>2020-07-25T16:11:36Z</time>
      </trkpt>
      <trkpt lat="48.80433" lon="8.10415">
        <ele>145.8</ele>
        <time>2020-07-25T16:11:42Z</time>
      </trkpt>
      <trkpt lat="48.80437" lon="8.10415">
        <ele>146</ele>
        <time>2020-07-25T16:11:43Z</time>
      </trkpt>
      <trkpt lat="48.80442" lon="8.10419">
        <ele>146.2</ele>
        <time>2020-07-25T16:11:45Z</time>
      </trkpt>
      <trkpt lat="48.80443" lon="8.10422">
        <ele>146.4</ele>
        <time>2020-07-25T16:11:46Z</time>
      </trkpt>
      <trkpt lat="48.80442" lon="8.10426">
        <ele>146.6</ele>
        <time>2020-07-25T16:11:47Z</time>
      </trkpt>
      <trkpt lat="48.80438" lon="8.10433">
        <ele>146.8</ele>
        <time>2020-07-25T16:11:49Z</time>
      </trkpt>
      <trkpt lat="48.80434" lon="8.10444">
        <ele>147</ele>
        <time>2020-07-25T16:11:51Z</time>
      </trkpt>
      <trkpt lat="48.80432" lon="8.10448">
        <ele>147.2</ele>
        <time>2020-07-25T16:11:52Z</time>
      </trkpt>
      <trkpt lat="48.80428" lon="8.10462">
        <ele>147.6</ele>
        <time>2020-07-25T16:11:54Z</time>
      </trkpt>
      <trkpt lat="48.8042" lon="8.10502">
        <ele>147.8</ele>
        <time>2020-07-25T16:12:00Z</time>
      </trkpt>
      <trkpt lat="48.80414" lon="8.10542">
        <ele>147.8</ele>
        <time>2020-07-25T16:12:05Z</time>
      </trkpt>
      <trkpt lat="48.80411" lon="8.10609">
        <ele>147.4</ele>
        <time>2020-07-25T16:12:13Z</time>
      </trkpt>
      <trkpt lat="48.80411" lon="8.10635">
        <ele>147.4</ele>
        <time>2020-07-25T16:12:16Z</time>
      </trkpt>
      <trkpt lat="48.80414" lon="8.1067">
        <ele>147.2</ele>
        <time>2020-07-25T16:12:20Z</time>
      </trkpt>
      <trkpt lat="48.80428" lon="8.10755">
        <ele>147.4</ele>
        <time>2020-07-25T16:12:30Z</time>
      </trkpt>
      <trkpt lat="48.8043" lon="8.10763">
        <ele>147.4</ele>
        <time>2020-07-25T16:12:31Z</time>
      </trkpt>
      <trkpt lat="48.80445" lon="8.1082">
        <ele>147.4</ele>
        <time>2020-07-25T16:12:38Z</time>
      </trkpt>
      <trkpt lat="48.80475" lon="8.10899">
        <ele>147.4</ele>
        <time>2020-07-25T16:12:48Z</time>
      </trkpt>
      <trkpt lat="48.80505" lon="8.10964">
        <ele>147.2</ele>
        <time>2020-07-25T16:12:57Z</time>
      </trkpt>
      <trkpt lat="48.80535" lon="8.11029">
        <ele>146.8</ele>
        <time>2020-07-25T16:13:06Z</time>
      </trkpt>
      <trkpt lat="48.80556" lon="8.11071">
        <ele>146.8</ele>
        <time>2020-07-25T16:13:12Z</time>
      </trkpt>
      <trkpt lat="48.80562" lon="8.11085">
        <ele>146.8</ele>
        <time>2020-07-25T16:13:14Z</time>
      </trkpt>
      <trkpt lat="48.80591" lon="8.11141">
        <ele>146.8</ele>
        <time>2020-07-25T16:13:22Z</time>
      </trkpt>
      <trkpt lat="48.80606" lon="8.11167">
        <ele>146.8</ele>
        <time>2020-07-25T16:13:26Z</time>
      </trkpt>
      <trkpt lat="48.80621" lon="8.11193">
        <ele>146.8</ele>
        <time>2020-07-25T16:13:30Z</time>
      </trkpt>
      <trkpt lat="48.80626" lon="8.11199">
        <ele>146.8</ele>
        <time>2020-07-25T16:13:31Z</time>
      </trkpt>
      <trkpt lat="48.80647" lon="8.11229">
        <ele>146.6</ele>
        <time>2020-07-25T16:13:36Z</time>
      </trkpt>
      <trkpt lat="48.80656" lon="8.1124">
        <ele>146.6</ele>
        <time>2020-07-25T16:13:38Z</time>
      </trkpt>
      <trkpt lat="48.8066" lon="8.11245">
        <ele>146.6</ele>
        <time>2020-07-25T16:13:39Z</time>
      </trkpt>
      <trkpt lat="48.80707" lon="8.11301">
        <ele>146.8</ele>
        <time>2020-07-25T16:13:49Z</time>
      </trkpt>
      <trkpt lat="48.80717" lon="8.11312">
        <ele>147</ele>
        <time>2020-07-25T16:13:51Z</time>
      </trkpt>
      <trkpt lat="48.80742" lon="8.11337">
        <ele>147</ele>
        <time>2020-07-25T16:13:56Z</time>
      </trkpt>
      <trkpt lat="48.80762" lon="8.11357">
        <ele>146.8</ele>
        <time>2020-07-25T16:14:00Z</time>
      </trkpt>
      <trkpt lat="48.80809" lon="8.11398">
        <ele>146.2</ele>
        <time>2020-07-25T16:14:09Z</time>
      </trkpt>
      <trkpt lat="48.80814" lon="8.11402">
        <ele>146.2</ele>
        <time>2020-07-25T16:14:10Z</time>
      </trkpt>
      <trkpt lat="48.80824" lon="8.11411">
        <ele>146.2</ele>
        <time>2020-07-25T16:14:12Z</time>
      </trkpt>
      <trkpt lat="48.80872" lon="8.11449">
        <ele>146.2</ele>
        <time>2020-07-25T16:14:21Z</time>
      </trkpt>
      <trkpt lat="48.80878" lon="8.11453">
        <ele>146.2</ele>
        <time>2020-07-25T16:14:22Z</time>
      </trkpt>
      <trkpt lat="48.80909" lon="8.11476">
        <ele>146.2</ele>
        <time>2020-07-25T16:14:28Z</time>
      </trkpt>
      <trkpt lat="48.80936" lon="8.11492">
        <ele>146.2</ele>
        <time>2020-07-25T16:14:33Z</time>
      </trkpt>
      <trkpt lat="48.80978" lon="8.11518">
        <ele>146.2</ele>
        <time>2020-07-25T16:14:41Z</time>
      </trkpt>
      <trkpt lat="48.81032" lon="8.11548">
        <ele>146.2</ele>
        <time>2020-07-25T16:14:51Z</time>
      </trkpt>
      <trkpt lat="48.81089" lon="8.11575">
        <ele>146</ele>
        <time>2020-07-25T16:15:01Z</time>
      </trkpt>
      <trkpt lat="48.81136" lon="8.11594">
        <ele>146</ele>
        <time>2020-07-25T16:15:09Z</time>
      </trkpt>
      <trkpt lat="48.81192" lon="8.11614">
        <ele>146</ele>
        <time>2020-07-25T16:15:19Z</time>
      </trkpt>
      <trkpt lat="48.81198" lon="8.11616">
        <ele>146</ele>
        <time>2020-07-25T16:15:20Z</time>
      </trkpt>
      <trkpt lat="48.81237" lon="8.11629">
        <ele>146</ele>
        <time>2020-07-25T16:15:27Z</time>
      </trkpt>
      <trkpt lat="48.81277" lon="8.1164">
        <ele>146</ele>
        <time>2020-07-25T16:15:34Z</time>
      </trkpt>
      <trkpt lat="48.81323" lon="8.1165">
        <ele>146</ele>
        <time>2020-07-25T16:15:42Z</time>
      </trkpt>
      <trkpt lat="48.8137" lon="8.11656">
        <ele>146</ele>
        <time>2020-07-25T16:15:50Z</time>
      </trkpt>
      <trkpt lat="48.81417" lon="8.11661">
        <ele>146</ele>
        <time>2020-07-25T16:15:58Z</time>
      </trkpt>
      <trkpt lat="48.81426" lon="8.11671">
        <ele>146.2</ele>
        <time>2020-07-25T16:16:00Z</time>
      </trkpt>
      <trkpt lat="48.81429" lon="8.11677">
        <ele>146.2</ele>
        <time>2020-07-25T16:16:01Z</time>
      </trkpt>
      <trkpt lat="48.81458" lon="8.11732">
        <ele>146.2</ele>
        <time>2020-07-25T16:16:09Z</time>
      </trkpt>
      <trkpt lat="48.81487" lon="8.11786">
        <ele>146.2</ele>
        <time>2020-07-25T16:16:17Z</time>
      </trkpt>
      <trkpt lat="48.81505" lon="8.11831">
        <ele>146</ele>
        <time>2020-07-25T16:16:23Z</time>
      </trkpt>
      <trkpt lat="48.81507" lon="8.11839">
        <ele>146</ele>
        <time>2020-07-25T16:16:24Z</time>
      </trkpt>
      <trkpt lat="48.81525" lon="8.11921">
        <ele>145.8</ele>
        <time>2020-07-25T16:16:34Z</time>
      </trkpt>
      <trkpt lat="48.81546" lon="8.11963">
        <ele>145.8</ele>
        <time>2020-07-25T16:16:40Z</time>
      </trkpt>
      <trkpt lat="48.81581" lon="8.12022">
        <ele>145.8</ele>
        <time>2020-07-25T16:16:49Z</time>
      </trkpt>
      <trkpt lat="48.81608" lon="8.12066">
        <ele>145.8</ele>
        <time>2020-07-25T16:16:56Z</time>
      </trkpt>
      <trkpt lat="48.81633" lon="8.12105">
        <ele>146</ele>
        <time>2020-07-25T16:17:02Z</time>
      </trkpt>
      <trkpt lat="48.81667" lon="8.12164">
        <ele>145.8</ele>
        <time>2020-07-25T16:17:11Z</time>
      </trkpt>
      <trkpt lat="48.81696" lon="8.12209">
        <ele>145.8</ele>
        <time>2020-07-25T16:17:18Z</time>
      </trkpt>
      <trkpt lat="48.81714" lon="8.12234">
        <ele>145.8</ele>
        <time>2020-07-25T16:17:22Z</time>
      </trkpt>
      <trkpt lat="48.81722" lon="8.12247">
        <ele>145.8</ele>
        <time>2020-07-25T16:17:24Z</time>
      </trkpt>
      <trkpt lat="48.8173" lon="8.12259">
        <ele>145.8</ele>
        <time>2020-07-25T16:17:26Z</time>
      </trkpt>
      <trkpt lat="48.81737" lon="8.12273">
        <ele>145.8</ele>
        <time>2020-07-25T16:17:28Z</time>
      </trkpt>
      <trkpt lat="48.81748" lon="8.12294">
        <ele>145.8</ele>
        <time>2020-07-25T16:17:31Z</time>
      </trkpt>
      <trkpt lat="48.81762" lon="8.12317">
        <ele>145.8</ele>
        <time>2020-07-25T16:17:34Z</time>
      </trkpt>
      <trkpt lat="48.81785" lon="8.12342">
        <ele>145.6</ele>
        <time>2020-07-25T16:17:38Z</time>
      </trkpt>
      <trkpt lat="48.81796" lon="8.12353">
        <ele>145</ele>
        <time>2020-07-25T16:17:40Z</time>
      </trkpt>
      <trkpt lat="48.81809" lon="8.12365">
        <ele>144</ele>
        <time>2020-07-25T16:17:42Z</time>
      </trkpt>
      <trkpt lat="48.81819" lon="8.12375">
        <ele>143.2</ele>
        <time>2020-07-25T16:17:44Z</time>
      </trkpt>
      <trkpt lat="48.81828" lon="8.12386">
        <ele>143</ele>
        <time>2020-07-25T16:17:46Z</time>
      </trkpt>
      <trkpt lat="48.81844" lon="8.12403">
        <ele>143</ele>
        <time>2020-07-25T16:17:49Z</time>
      </trkpt>
      <trkpt lat="48.81863" lon="8.12423">
        <ele>143</ele>
        <time>2020-07-25T16:17:53Z</time>
      </trkpt>
      <trkpt lat="48.81866" lon="8.1243">
        <ele>143</ele>
        <time>2020-07-25T16:17:54Z</time>
      </trkpt>
      <trkpt lat="48.81867" lon="8.12438">
        <ele>143</ele>
        <time>2020-07-25T16:17:55Z</time>
      </trkpt>
      <trkpt lat="48.81865" lon="8.12446">
        <ele>143</ele>
        <time>2020-07-25T16:17:56Z</time>
      </trkpt>
      <trkpt lat="48.81861" lon="8.12453">
        <ele>143</ele>
        <time>2020-07-25T16:17:57Z</time>
      </trkpt>
      <trkpt lat="48.81852" lon="8.12461">
        <ele>143.2</ele>
        <time>2020-07-25T16:17:59Z</time>
      </trkpt>
      <trkpt lat="48.81847" lon="8.12465">
        <ele>143.2</ele>
        <time>2020-07-25T16:18:00Z</time>
      </trkpt>
      <trkpt lat="48.81839" lon="8.12473">
        <ele>143.2</ele>
        <time>2020-07-25T16:18:02Z</time>
      </trkpt>
      <trkpt lat="48.81832" lon="8.12481">
        <ele>143.2</ele>
        <time>2020-07-25T16:18:04Z</time>
      </trkpt>
      <trkpt lat="48.81823" lon="8.12499">
        <ele>143.6</ele>
        <time>2020-07-25T16:18:08Z</time>
      </trkpt>
      <trkpt lat="48.81823" lon="8.12504">
        <ele>143.8</ele>
        <time>2020-07-25T16:18:09Z</time>
      </trkpt>
      <trkpt lat="48.81828" lon="8.1252">
        <ele>145</ele>
        <time>2020-07-25T16:18:13Z</time>
      </trkpt>
      <trkpt lat="48.8183" lon="8.12525">
        <ele>145.2</ele>
        <time>2020-07-25T16:18:14Z</time>
      </trkpt>
      <trkpt lat="48.81844" lon="8.12561">
        <ele>145.8</ele>
        <time>2020-07-25T16:18:22Z</time>
      </trkpt>
      <trkpt lat="48.8185" lon="8.12579">
        <ele>145.8</ele>
        <time>2020-07-25T16:18:28Z</time>
      </trkpt>
      <trkpt lat="48.81858" lon="8.12603">
        <ele>145.6</ele>
        <time>2020-07-25T16:18:33Z</time>
      </trkpt>
      <trkpt lat="48.81863" lon="8.12616">
        <ele>145.6</ele>
        <time>2020-07-25T16:18:35Z</time>
      </trkpt>
      <trkpt lat="48.81871" lon="8.12638">
        <ele>145.2</ele>
        <time>2020-07-25T16:18:38Z</time>
      </trkpt>
      <trkpt lat="48.81887" lon="8.12686">
        <ele>144.4</ele>
        <time>2020-07-25T16:18:44Z</time>
      </trkpt>
      <trkpt lat="48.81894" lon="8.12709">
        <ele>144.2</ele>
        <time>2020-07-25T16:18:47Z</time>
      </trkpt>
      <trkpt lat="48.81899" lon="8.12719">
        <ele>144</ele>
        <time>2020-07-25T16:18:48Z</time>
      </trkpt>
      <trkpt lat="48.81903" lon="8.12725">
        <ele>143.8</ele>
        <time>2020-07-25T16:18:49Z</time>
      </trkpt>
      <trkpt lat="48.81907" lon="8.12733">
        <ele>143.8</ele>
        <time>2020-07-25T16:18:50Z</time>
      </trkpt>
      <trkpt lat="48.81923" lon="8.1275">
        <ele>143.4</ele>
        <time>2020-07-25T16:18:53Z</time>
      </trkpt>
      <trkpt lat="48.81963" lon="8.12789">
        <ele>143.2</ele>
        <time>2020-07-25T16:19:01Z</time>
      </trkpt>
      <trkpt lat="48.82003" lon="8.12826">
        <ele>143.2</ele>
        <time>2020-07-25T16:19:09Z</time>
      </trkpt>
      <trkpt lat="48.82007" lon="8.12828">
        <ele>143.2</ele>
        <time>2020-07-25T16:19:10Z</time>
      </trkpt>
      <trkpt lat="48.82012" lon="8.12829">
        <ele>143.2</ele>
        <time>2020-07-25T16:19:11Z</time>
      </trkpt>
      <trkpt lat="48.82022" lon="8.12828">
        <ele>143.2</ele>
        <time>2020-07-25T16:19:13Z</time>
      </trkpt>
      <trkpt lat="48.82027" lon="8.12827">
        <ele>143.2</ele>
        <time>2020-07-25T16:19:14Z</time>
      </trkpt>
      <trkpt lat="48.82044" lon="8.12821">
        <ele>143.2</ele>
        <time>2020-07-25T16:19:18Z</time>
      </trkpt>
      <trkpt lat="48.82047" lon="8.12819">
        <ele>143.4</ele>
        <time>2020-07-25T16:19:19Z</time>
      </trkpt>
      <trkpt lat="48.82063" lon="8.12813">
        <ele>144.6</ele>
        <time>2020-07-25T16:19:24Z</time>
      </trkpt>
      <trkpt lat="48.82066" lon="8.12811">
        <ele>145</ele>
        <time>2020-07-25T16:19:25Z</time>
      </trkpt>
      <trkpt lat="48.82076" lon="8.12806">
        <ele>146.2</ele>
        <time>2020-07-25T16:19:29Z</time>
      </trkpt>
      <trkpt lat="48.8209" lon="8.12802">
        <ele>147.4</ele>
        <time>2020-07-25T16:19:34Z</time>
      </trkpt>
      <trkpt lat="48.82093" lon="8.12802">
        <ele>147.8</ele>
        <time>2020-07-25T16:19:35Z</time>
      </trkpt>
      <trkpt lat="48.82102" lon="8.12807">
        <ele>148.6</ele>
        <time>2020-07-25T16:19:38Z</time>
      </trkpt>
      <trkpt lat="48.82111" lon="8.12819">
        <ele>149.4</ele>
        <time>2020-07-25T16:19:41Z</time>
      </trkpt>
      <trkpt lat="48.82116" lon="8.12826">
        <ele>149.8</ele>
        <time>2020-07-25T16:19:43Z</time>
      </trkpt>
      <trkpt lat="48.82118" lon="8.12829">
        <ele>150.4</ele>
        <time>2020-07-25T16:19:46Z</time>
      </trkpt>
      <trkpt lat="48.82118" lon="8.12829">
        <ele>150.6</ele>
        <time>2020-07-25T16:19:47Z</time>
      </trkpt>
      <trkpt lat="48.82121" lon="8.12832">
        <ele>152</ele>
        <time>2020-07-25T16:21:16Z</time>
      </trkpt>
      <trkpt lat="48.82126" lon="8.12838">
        <ele>152</ele>
        <time>2020-07-25T16:21:18Z</time>
      </trkpt>
      <trkpt lat="48.82133" lon="8.1285">
        <ele>152</ele>
        <time>2020-07-25T16:21:21Z</time>
      </trkpt>
      <trkpt lat="48.82138" lon="8.1286">
        <ele>152</ele>
        <time>2020-07-25T16:21:23Z</time>
      </trkpt>
      <trkpt lat="48.82158" lon="8.12898">
        <ele>151.6</ele>
        <time>2020-07-25T16:21:30Z</time>
      </trkpt>
      <trkpt lat="48.8216" lon="8.12905">
        <ele>151.6</ele>
        <time>2020-07-25T16:21:31Z</time>
      </trkpt>
      <trkpt lat="48.82175" lon="8.12939">
        <ele>151</ele>
        <time>2020-07-25T16:21:35Z</time>
      </trkpt>
      <trkpt lat="48.82179" lon="8.1295">
        <ele>150.8</ele>
        <time>2020-07-25T16:21:36Z</time>
      </trkpt>
      <trkpt lat="48.82189" lon="8.12983">
        <ele>149.8</ele>
        <time>2020-07-25T16:21:39Z</time>
      </trkpt>
      <trkpt lat="48.82193" lon="8.12995">
        <ele>149.4</ele>
        <time>2020-07-25T16:21:40Z</time>
      </trkpt>
      <trkpt lat="48.82203" lon="8.1302">
        <ele>148</ele>
        <time>2020-07-25T16:21:42Z</time>
      </trkpt>
      <trkpt lat="48.82211" lon="8.13045">
        <ele>146.8</ele>
        <time>2020-07-25T16:21:44Z</time>
      </trkpt>
      <trkpt lat="48.82215" lon="8.13057">
        <ele>145.6</ele>
        <time>2020-07-25T16:21:45Z</time>
      </trkpt>
      <trkpt lat="48.82223" lon="8.1308">
        <ele>144.2</ele>
        <time>2020-07-25T16:21:47Z</time>
      </trkpt>
      <trkpt lat="48.82226" lon="8.1309">
        <ele>143.2</ele>
        <time>2020-07-25T16:21:48Z</time>
      </trkpt>
      <trkpt lat="48.82236" lon="8.13122">
        <ele>142.2</ele>
        <time>2020-07-25T16:21:51Z</time>
      </trkpt>
      <trkpt lat="48.8224" lon="8.13133">
        <ele>142</ele>
        <time>2020-07-25T16:21:52Z</time>
      </trkpt>
      <trkpt lat="48.82261" lon="8.13194">
        <ele>142</ele>
        <time>2020-07-25T16:21:59Z</time>
      </trkpt>
      <trkpt lat="48.82281" lon="8.13252">
        <ele>142.4</ele>
        <time>2020-07-25T16:22:06Z</time>
      </trkpt>
      <trkpt lat="48.823" lon="8.13309">
        <ele>142.6</ele>
        <time>2020-07-25T16:22:13Z</time>
      </trkpt>
      <trkpt lat="48.82308" lon="8.1332">
        <ele>142.6</ele>
        <time>2020-07-25T16:22:15Z</time>
      </trkpt>
      <trkpt lat="48.82313" lon="8.13326">
        <ele>142.6</ele>
        <time>2020-07-25T16:22:16Z</time>
      </trkpt>
      <trkpt lat="48.8232" lon="8.13341">
        <ele>142.6</ele>
        <time>2020-07-25T16:22:18Z</time>
      </trkpt>
      <trkpt lat="48.82322" lon="8.1335">
        <ele>142.4</ele>
        <time>2020-07-25T16:22:19Z</time>
      </trkpt>
      <trkpt lat="48.82347" lon="8.13424">
        <ele>142.2</ele>
        <time>2020-07-25T16:22:28Z</time>
      </trkpt>
      <trkpt lat="48.8235" lon="8.13432">
        <ele>142</ele>
        <time>2020-07-25T16:22:29Z</time>
      </trkpt>
      <trkpt lat="48.82367" lon="8.1348">
        <ele>142</ele>
        <time>2020-07-25T16:22:35Z</time>
      </trkpt>
      <trkpt lat="48.82373" lon="8.13492">
        <ele>142</ele>
        <time>2020-07-25T16:22:37Z</time>
      </trkpt>
      <trkpt lat="48.82373" lon="8.13505">
        <ele>142</ele>
        <time>2020-07-25T16:22:39Z</time>
      </trkpt>
      <trkpt lat="48.82372" lon="8.13508">
        <ele>142</ele>
        <time>2020-07-25T16:22:40Z</time>
      </trkpt>
      <trkpt lat="48.8237" lon="8.13514">
        <ele>142</ele>
        <time>2020-07-25T16:22:42Z</time>
      </trkpt>
      <trkpt lat="48.82371" lon="8.13517">
        <ele>142.2</ele>
        <time>2020-07-25T16:22:43Z</time>
      </trkpt>
      <trkpt lat="48.82378" lon="8.13537">
        <ele>142.6</ele>
        <time>2020-07-25T16:22:48Z</time>
      </trkpt>
      <trkpt lat="48.82389" lon="8.13574">
        <ele>143.2</ele>
        <time>2020-07-25T16:22:54Z</time>
      </trkpt>
      <trkpt lat="48.82405" lon="8.13626">
        <ele>142.8</ele>
        <time>2020-07-25T16:23:01Z</time>
      </trkpt>
      <trkpt lat="48.82421" lon="8.1368">
        <ele>142.6</ele>
        <time>2020-07-25T16:23:08Z</time>
      </trkpt>
      <trkpt lat="48.82424" lon="8.13688">
        <ele>142.6</ele>
        <time>2020-07-25T16:23:09Z</time>
      </trkpt>
      <trkpt lat="48.82431" lon="8.13701">
        <ele>142.6</ele>
        <time>2020-07-25T16:23:11Z</time>
      </trkpt>
      <trkpt lat="48.82438" lon="8.13713">
        <ele>142.6</ele>
        <time>2020-07-25T16:23:13Z</time>
      </trkpt>
      <trkpt lat="48.8244" lon="8.13729">
        <ele>142.4</ele>
        <time>2020-07-25T16:23:15Z</time>
      </trkpt>
      <trkpt lat="48.82438" lon="8.13737">
        <ele>142.4</ele>
        <time>2020-07-25T16:23:16Z</time>
      </trkpt>
      <trkpt lat="48.82436" lon="8.13744">
        <ele>142.6</ele>
        <time>2020-07-25T16:23:17Z</time>
      </trkpt>
      <trkpt lat="48.82418" lon="8.13778">
        <ele>142.6</ele>
        <time>2020-07-25T16:23:22Z</time>
      </trkpt>
      <trkpt lat="48.82411" lon="8.13791">
        <ele>142.6</ele>
        <time>2020-07-25T16:23:24Z</time>
      </trkpt>
      <trkpt lat="48.82401" lon="8.13804">
        <ele>142.6</ele>
        <time>2020-07-25T16:23:26Z</time>
      </trkpt>
      <trkpt lat="48.8237" lon="8.13847">
        <ele>142.4</ele>
        <time>2020-07-25T16:23:33Z</time>
      </trkpt>
      <trkpt lat="48.82345" lon="8.13885">
        <ele>142.4</ele>
        <time>2020-07-25T16:23:39Z</time>
      </trkpt>
      <trkpt lat="48.82325" lon="8.1393">
        <ele>142.4</ele>
        <time>2020-07-25T16:23:45Z</time>
      </trkpt>
      <trkpt lat="48.82317" lon="8.13944">
        <ele>142.4</ele>
        <time>2020-07-25T16:23:47Z</time>
      </trkpt>
      <trkpt lat="48.82314" lon="8.13951">
        <ele>142.4</ele>
        <time>2020-07-25T16:23:48Z</time>
      </trkpt>
      <trkpt lat="48.82298" lon="8.13984">
        <ele>143.4</ele>
        <time>2020-07-25T16:23:53Z</time>
      </trkpt>
      <trkpt lat="48.82288" lon="8.14002">
        <ele>143.8</ele>
        <time>2020-07-25T16:23:56Z</time>
      </trkpt>
      <trkpt lat="48.82279" lon="8.14021">
        <ele>144.4</ele>
        <time>2020-07-25T16:23:59Z</time>
      </trkpt>
      <trkpt lat="48.82276" lon="8.14027">
        <ele>144.6</ele>
        <time>2020-07-25T16:24:00Z</time>
      </trkpt>
      <trkpt lat="48.82268" lon="8.14045">
        <ele>145</ele>
        <time>2020-07-25T16:24:03Z</time>
      </trkpt>
      <trkpt lat="48.82266" lon="8.14052">
        <ele>145.2</ele>
        <time>2020-07-25T16:24:04Z</time>
      </trkpt>
      <trkpt lat="48.82265" lon="8.14057">
        <ele>145.6</ele>
        <time>2020-07-25T16:24:05Z</time>
      </trkpt>
      <trkpt lat="48.82264" lon="8.14064">
        <ele>146</ele>
        <time>2020-07-25T16:24:06Z</time>
      </trkpt>
      <trkpt lat="48.82263" lon="8.14087">
        <ele>146.4</ele>
        <time>2020-07-25T16:24:09Z</time>
      </trkpt>
      <trkpt lat="48.82262" lon="8.14101">
        <ele>146.8</ele>
        <time>2020-07-25T16:24:11Z</time>
      </trkpt>
      <trkpt lat="48.82261" lon="8.1411">
        <ele>147</ele>
        <time>2020-07-25T16:24:12Z</time>
      </trkpt>
      <trkpt lat="48.8226" lon="8.14157">
        <ele>147.8</ele>
        <time>2020-07-25T16:24:18Z</time>
      </trkpt>
      <trkpt lat="48.82258" lon="8.14181">
        <ele>148</ele>
        <time>2020-07-25T16:24:21Z</time>
      </trkpt>
      <trkpt lat="48.82252" lon="8.14235">
        <ele>148.8</ele>
        <time>2020-07-25T16:24:28Z</time>
      </trkpt>
      <trkpt lat="48.82251" lon="8.14242">
        <ele>149</ele>
        <time>2020-07-25T16:24:29Z</time>
      </trkpt>
      <trkpt lat="48.82239" lon="8.14295">
        <ele>149.8</ele>
        <time>2020-07-25T16:24:36Z</time>
      </trkpt>
      <trkpt lat="48.82235" lon="8.14311">
        <ele>150</ele>
        <time>2020-07-25T16:24:38Z</time>
      </trkpt>
      <trkpt lat="48.8222" lon="8.14373">
        <ele>150</ele>
        <time>2020-07-25T16:24:46Z</time>
      </trkpt>
      <trkpt lat="48.82203" lon="8.14455">
        <ele>150</ele>
        <time>2020-07-25T16:24:56Z</time>
      </trkpt>
      <trkpt lat="48.82185" lon="8.14533">
        <ele>149.8</ele>
        <time>2020-07-25T16:25:05Z</time>
      </trkpt>
      <trkpt lat="48.82178" lon="8.14557">
        <ele>149.8</ele>
        <time>2020-07-25T16:25:08Z</time>
      </trkpt>
      <trkpt lat="48.82177" lon="8.14564">
        <ele>149.8</ele>
        <time>2020-07-25T16:25:09Z</time>
      </trkpt>
      <trkpt lat="48.82179" lon="8.1457">
        <ele>149.8</ele>
        <time>2020-07-25T16:25:10Z</time>
      </trkpt>
      <trkpt lat="48.82186" lon="8.1458">
        <ele>149.8</ele>
        <time>2020-07-25T16:25:12Z</time>
      </trkpt>
      <trkpt lat="48.8219" lon="8.14604">
        <ele>149.8</ele>
        <time>2020-07-25T16:25:15Z</time>
      </trkpt>
      <trkpt lat="48.82192" lon="8.14621">
        <ele>149.6</ele>
        <time>2020-07-25T16:25:17Z</time>
      </trkpt>
      <trkpt lat="48.82194" lon="8.14638">
        <ele>149.6</ele>
        <time>2020-07-25T16:25:19Z</time>
      </trkpt>
      <trkpt lat="48.82197" lon="8.14654">
        <ele>149.6</ele>
        <time>2020-07-25T16:25:21Z</time>
      </trkpt>
      <trkpt lat="48.8221" lon="8.14726">
        <ele>149.4</ele>
        <time>2020-07-25T16:25:29Z</time>
      </trkpt>
      <trkpt lat="48.82229" lon="8.14808">
        <ele>149</ele>
        <time>2020-07-25T16:25:38Z</time>
      </trkpt>
      <trkpt lat="48.82251" lon="8.14889">
        <ele>148.8</ele>
        <time>2020-07-25T16:25:47Z</time>
      </trkpt>
      <trkpt lat="48.82258" lon="8.14908">
        <ele>148.8</ele>
        <time>2020-07-25T16:25:49Z</time>
      </trkpt>
      <trkpt lat="48.82277" lon="8.14966">
        <ele>148.8</ele>
        <time>2020-07-25T16:25:56Z</time>
      </trkpt>
      <trkpt lat="48.8228" lon="8.14972">
        <ele>148.8</ele>
        <time>2020-07-25T16:25:57Z</time>
      </trkpt>
      <trkpt lat="48.82303" lon="8.15036">
        <ele>149</ele>
        <time>2020-07-25T16:26:05Z</time>
      </trkpt>
      <trkpt lat="48.82328" lon="8.15097">
        <ele>149.6</ele>
        <time>2020-07-25T16:26:13Z</time>
      </trkpt>
      <trkpt lat="48.82359" lon="8.15152">
        <ele>149.8</ele>
        <time>2020-07-25T16:26:21Z</time>
      </trkpt>
      <trkpt lat="48.82377" lon="8.15178">
        <ele>149.8</ele>
        <time>2020-07-25T16:26:25Z</time>
      </trkpt>
      <trkpt lat="48.8239" lon="8.15194">
        <ele>149.8</ele>
        <time>2020-07-25T16:26:28Z</time>
      </trkpt>
      <trkpt lat="48.8242" lon="8.15234">
        <ele>149.8</ele>
        <time>2020-07-25T16:26:35Z</time>
      </trkpt>
      <trkpt lat="48.82423" lon="8.15238">
        <ele>149.8</ele>
        <time>2020-07-25T16:26:36Z</time>
      </trkpt>
    </trkseg>
  </trk>
</gpx>